<?xml version="1.0" encoding="UTF-8" standalone="no" ?>
<gpx xmlns="http://www.topografix.com/GPX/1/1" xmlns:xsi="http://www.w3.org/2001/XMLSchema-instance" xsi:schemaLocation="http://www.topografix.com/GPX/1/1 http://www.topografix.com/GPX/1/1/gpx.xsd" version="1.1" creator="VisuGPX - https://www.visugpx.com">
  <metadata>
    <name>rando 2 jour Briis / St leger</name>
    <desc><![CDATA[Briis sous Forges / St Leger en Yvelines]]></desc>
  </metadata>
  <trk>
    <name><![CDATA[20190310165800-neRU6]]></name>
    <trkseg>
      <trkpt lat="48.61488" lon="2.10788">
        <ele>109</ele>
        <time>2018-08-18T07:14:00Z</time>
      </trkpt>
      <trkpt lat="48.61497" lon="2.10749">
        <ele>110</ele>
        <time>2018-08-18T07:14:24Z</time>
      </trkpt>
      <trkpt lat="48.61499" lon="2.10742">
        <ele>110</ele>
        <time>2018-08-18T07:14:29Z</time>
      </trkpt>
      <trkpt lat="48.61499" lon="2.10737">
        <ele>110</ele>
        <time>2018-08-18T07:14:33Z</time>
      </trkpt>
      <trkpt lat="48.61501" lon="2.1073">
        <ele>110</ele>
        <time>2018-08-18T07:14:37Z</time>
      </trkpt>
      <trkpt lat="48.61504" lon="2.10723">
        <ele>110</ele>
        <time>2018-08-18T07:14:41Z</time>
      </trkpt>
      <trkpt lat="48.61504" lon="2.10717">
        <ele>110</ele>
        <time>2018-08-18T07:14:45Z</time>
      </trkpt>
      <trkpt lat="48.61503" lon="2.10711">
        <ele>110</ele>
        <time>2018-08-18T07:14:49Z</time>
      </trkpt>
      <trkpt lat="48.615" lon="2.10707">
        <ele>110</ele>
        <time>2018-08-18T07:14:53Z</time>
      </trkpt>
      <trkpt lat="48.61496" lon="2.10705">
        <ele>110</ele>
        <time>2018-08-18T07:14:57Z</time>
      </trkpt>
      <trkpt lat="48.61492" lon="2.10703">
        <ele>110</ele>
        <time>2018-08-18T07:15:01Z</time>
      </trkpt>
      <trkpt lat="48.61488" lon="2.107">
        <ele>110</ele>
        <time>2018-08-18T07:15:05Z</time>
      </trkpt>
      <trkpt lat="48.61483" lon="2.10696">
        <ele>110</ele>
        <time>2018-08-18T07:15:10Z</time>
      </trkpt>
      <trkpt lat="48.61479" lon="2.10692">
        <ele>110</ele>
        <time>2018-08-18T07:15:14Z</time>
      </trkpt>
      <trkpt lat="48.61475" lon="2.10688">
        <ele>110</ele>
        <time>2018-08-18T07:15:18Z</time>
      </trkpt>
      <trkpt lat="48.61472" lon="2.10684">
        <ele>110</ele>
        <time>2018-08-18T07:15:22Z</time>
      </trkpt>
      <trkpt lat="48.61469" lon="2.1068">
        <ele>110</ele>
        <time>2018-08-18T07:15:26Z</time>
      </trkpt>
      <trkpt lat="48.61466" lon="2.10674">
        <ele>110</ele>
        <time>2018-08-18T07:15:30Z</time>
      </trkpt>
      <trkpt lat="48.61462" lon="2.1067">
        <ele>110</ele>
        <time>2018-08-18T07:15:34Z</time>
      </trkpt>
      <trkpt lat="48.61458" lon="2.10664">
        <ele>110</ele>
        <time>2018-08-18T07:15:38Z</time>
      </trkpt>
      <trkpt lat="48.61455" lon="2.1066">
        <ele>110</ele>
        <time>2018-08-18T07:15:42Z</time>
      </trkpt>
      <trkpt lat="48.61452" lon="2.10655">
        <ele>110</ele>
        <time>2018-08-18T07:15:46Z</time>
      </trkpt>
      <trkpt lat="48.61449" lon="2.1065">
        <ele>110</ele>
        <time>2018-08-18T07:15:50Z</time>
      </trkpt>
      <trkpt lat="48.61445" lon="2.10645">
        <ele>110</ele>
        <time>2018-08-18T07:15:54Z</time>
      </trkpt>
      <trkpt lat="48.61441" lon="2.1064">
        <ele>110</ele>
        <time>2018-08-18T07:15:58Z</time>
      </trkpt>
      <trkpt lat="48.61438" lon="2.10635">
        <ele>110</ele>
        <time>2018-08-18T07:16:02Z</time>
      </trkpt>
      <trkpt lat="48.61434" lon="2.10629">
        <ele>110</ele>
        <time>2018-08-18T07:16:06Z</time>
      </trkpt>
      <trkpt lat="48.6143" lon="2.10624">
        <ele>110</ele>
        <time>2018-08-18T07:16:10Z</time>
      </trkpt>
      <trkpt lat="48.61426" lon="2.10619">
        <ele>110</ele>
        <time>2018-08-18T07:16:14Z</time>
      </trkpt>
      <trkpt lat="48.61422" lon="2.10614">
        <ele>110</ele>
        <time>2018-08-18T07:16:18Z</time>
      </trkpt>
      <trkpt lat="48.61418" lon="2.10609">
        <ele>111</ele>
        <time>2018-08-18T07:16:22Z</time>
      </trkpt>
      <trkpt lat="48.61413" lon="2.10603">
        <ele>111</ele>
        <time>2018-08-18T07:16:26Z</time>
      </trkpt>
      <trkpt lat="48.61408" lon="2.10597">
        <ele>111</ele>
        <time>2018-08-18T07:16:30Z</time>
      </trkpt>
      <trkpt lat="48.61405" lon="2.10591">
        <ele>111</ele>
        <time>2018-08-18T07:16:34Z</time>
      </trkpt>
      <trkpt lat="48.61403" lon="2.10584">
        <ele>111</ele>
        <time>2018-08-18T07:16:38Z</time>
      </trkpt>
      <trkpt lat="48.61403" lon="2.10576">
        <ele>111</ele>
        <time>2018-08-18T07:16:42Z</time>
      </trkpt>
      <trkpt lat="48.61404" lon="2.1057">
        <ele>111</ele>
        <time>2018-08-18T07:16:46Z</time>
      </trkpt>
      <trkpt lat="48.61406" lon="2.10567">
        <ele>111</ele>
        <time>2018-08-18T07:16:54Z</time>
      </trkpt>
      <trkpt lat="48.61407" lon="2.10566">
        <ele>111</ele>
        <time>2018-08-18T07:16:59Z</time>
      </trkpt>
      <trkpt lat="48.61408" lon="2.10566">
        <ele>111</ele>
        <time>2018-08-18T07:17:06Z</time>
      </trkpt>
      <trkpt lat="48.61409" lon="2.10564">
        <ele>111</ele>
        <time>2018-08-18T07:17:13Z</time>
      </trkpt>
      <trkpt lat="48.6141" lon="2.10557">
        <ele>111</ele>
        <time>2018-08-18T07:17:17Z</time>
      </trkpt>
      <trkpt lat="48.61411" lon="2.1055">
        <ele>111</ele>
        <time>2018-08-18T07:17:21Z</time>
      </trkpt>
      <trkpt lat="48.61411" lon="2.10542">
        <ele>111</ele>
        <time>2018-08-18T07:17:25Z</time>
      </trkpt>
      <trkpt lat="48.61413" lon="2.10534">
        <ele>111</ele>
        <time>2018-08-18T07:17:29Z</time>
      </trkpt>
      <trkpt lat="48.61414" lon="2.10525">
        <ele>111</ele>
        <time>2018-08-18T07:17:34Z</time>
      </trkpt>
      <trkpt lat="48.61415" lon="2.10517">
        <ele>111</ele>
        <time>2018-08-18T07:17:38Z</time>
      </trkpt>
      <trkpt lat="48.61417" lon="2.1051">
        <ele>111</ele>
        <time>2018-08-18T07:17:43Z</time>
      </trkpt>
      <trkpt lat="48.61419" lon="2.10504">
        <ele>111</ele>
        <time>2018-08-18T07:17:47Z</time>
      </trkpt>
      <trkpt lat="48.61421" lon="2.10496">
        <ele>111</ele>
        <time>2018-08-18T07:17:51Z</time>
      </trkpt>
      <trkpt lat="48.61425" lon="2.10488">
        <ele>111</ele>
        <time>2018-08-18T07:17:56Z</time>
      </trkpt>
      <trkpt lat="48.61427" lon="2.10482">
        <ele>111</ele>
        <time>2018-08-18T07:18:00Z</time>
      </trkpt>
      <trkpt lat="48.6143" lon="2.10473">
        <ele>111</ele>
        <time>2018-08-18T07:18:05Z</time>
      </trkpt>
      <trkpt lat="48.61432" lon="2.10467">
        <ele>111</ele>
        <time>2018-08-18T07:18:09Z</time>
      </trkpt>
      <trkpt lat="48.61435" lon="2.10461">
        <ele>111</ele>
        <time>2018-08-18T07:18:14Z</time>
      </trkpt>
      <trkpt lat="48.61436" lon="2.10458">
        <ele>111</ele>
        <time>2018-08-18T07:18:19Z</time>
      </trkpt>
      <trkpt lat="48.61435" lon="2.1046">
        <ele>111</ele>
        <time>2018-08-18T07:18:33Z</time>
      </trkpt>
      <trkpt lat="48.61435" lon="2.10463">
        <ele>111</ele>
        <time>2018-08-18T07:18:45Z</time>
      </trkpt>
      <trkpt lat="48.61437" lon="2.10463">
        <ele>111</ele>
        <time>2018-08-18T07:19:08Z</time>
      </trkpt>
      <trkpt lat="48.61436" lon="2.10465">
        <ele>112</ele>
        <time>2018-08-18T07:19:20Z</time>
      </trkpt>
      <trkpt lat="48.61435" lon="2.10468">
        <ele>112</ele>
        <time>2018-08-18T07:19:30Z</time>
      </trkpt>
      <trkpt lat="48.61433" lon="2.10462">
        <ele>112</ele>
        <time>2018-08-18T07:19:34Z</time>
      </trkpt>
      <trkpt lat="48.61435" lon="2.10455">
        <ele>112</ele>
        <time>2018-08-18T07:19:38Z</time>
      </trkpt>
      <trkpt lat="48.61439" lon="2.10448">
        <ele>112</ele>
        <time>2018-08-18T07:19:43Z</time>
      </trkpt>
      <trkpt lat="48.61442" lon="2.10444">
        <ele>112</ele>
        <time>2018-08-18T07:19:52Z</time>
      </trkpt>
      <trkpt lat="48.61445" lon="2.10441">
        <ele>112</ele>
        <time>2018-08-18T07:20:11Z</time>
      </trkpt>
      <trkpt lat="48.61447" lon="2.10436">
        <ele>112</ele>
        <time>2018-08-18T07:20:15Z</time>
      </trkpt>
      <trkpt lat="48.61451" lon="2.1043">
        <ele>112</ele>
        <time>2018-08-18T07:20:19Z</time>
      </trkpt>
      <trkpt lat="48.61455" lon="2.10424">
        <ele>113</ele>
        <time>2018-08-18T07:20:23Z</time>
      </trkpt>
      <trkpt lat="48.61459" lon="2.10418">
        <ele>113</ele>
        <time>2018-08-18T07:20:27Z</time>
      </trkpt>
      <trkpt lat="48.61462" lon="2.10413">
        <ele>114</ele>
        <time>2018-08-18T07:20:31Z</time>
      </trkpt>
      <trkpt lat="48.61466" lon="2.10408">
        <ele>114</ele>
        <time>2018-08-18T07:20:35Z</time>
      </trkpt>
      <trkpt lat="48.61469" lon="2.10403">
        <ele>114</ele>
        <time>2018-08-18T07:20:39Z</time>
      </trkpt>
      <trkpt lat="48.61473" lon="2.10397">
        <ele>114</ele>
        <time>2018-08-18T07:20:43Z</time>
      </trkpt>
      <trkpt lat="48.61477" lon="2.10391">
        <ele>114</ele>
        <time>2018-08-18T07:20:47Z</time>
      </trkpt>
      <trkpt lat="48.6148" lon="2.10383">
        <ele>114</ele>
        <time>2018-08-18T07:20:51Z</time>
      </trkpt>
      <trkpt lat="48.61483" lon="2.10379">
        <ele>114</ele>
        <time>2018-08-18T07:20:55Z</time>
      </trkpt>
      <trkpt lat="48.61486" lon="2.10373">
        <ele>115</ele>
        <time>2018-08-18T07:20:59Z</time>
      </trkpt>
      <trkpt lat="48.61489" lon="2.10367">
        <ele>115</ele>
        <time>2018-08-18T07:21:03Z</time>
      </trkpt>
      <trkpt lat="48.61493" lon="2.1036">
        <ele>115</ele>
        <time>2018-08-18T07:21:08Z</time>
      </trkpt>
      <trkpt lat="48.61497" lon="2.10354">
        <ele>116</ele>
        <time>2018-08-18T07:21:12Z</time>
      </trkpt>
      <trkpt lat="48.615" lon="2.10349">
        <ele>116</ele>
        <time>2018-08-18T07:21:16Z</time>
      </trkpt>
      <trkpt lat="48.61504" lon="2.10341">
        <ele>116</ele>
        <time>2018-08-18T07:21:21Z</time>
      </trkpt>
      <trkpt lat="48.61507" lon="2.10334">
        <ele>116</ele>
        <time>2018-08-18T07:21:25Z</time>
      </trkpt>
      <trkpt lat="48.61511" lon="2.10326">
        <ele>116</ele>
        <time>2018-08-18T07:21:30Z</time>
      </trkpt>
      <trkpt lat="48.61514" lon="2.10319">
        <ele>116</ele>
        <time>2018-08-18T07:21:34Z</time>
      </trkpt>
      <trkpt lat="48.61516" lon="2.10312">
        <ele>116</ele>
        <time>2018-08-18T07:21:38Z</time>
      </trkpt>
      <trkpt lat="48.61518" lon="2.10305">
        <ele>116</ele>
        <time>2018-08-18T07:21:42Z</time>
      </trkpt>
      <trkpt lat="48.6152" lon="2.10298">
        <ele>116</ele>
        <time>2018-08-18T07:21:46Z</time>
      </trkpt>
      <trkpt lat="48.61523" lon="2.10291">
        <ele>116</ele>
        <time>2018-08-18T07:21:50Z</time>
      </trkpt>
      <trkpt lat="48.61524" lon="2.10283">
        <ele>117</ele>
        <time>2018-08-18T07:21:54Z</time>
      </trkpt>
      <trkpt lat="48.61526" lon="2.10275">
        <ele>117</ele>
        <time>2018-08-18T07:21:58Z</time>
      </trkpt>
      <trkpt lat="48.61528" lon="2.10266">
        <ele>117</ele>
        <time>2018-08-18T07:22:02Z</time>
      </trkpt>
      <trkpt lat="48.6153" lon="2.10258">
        <ele>117</ele>
        <time>2018-08-18T07:22:06Z</time>
      </trkpt>
      <trkpt lat="48.61533" lon="2.10248">
        <ele>117</ele>
        <time>2018-08-18T07:22:11Z</time>
      </trkpt>
      <trkpt lat="48.61535" lon="2.1024">
        <ele>117</ele>
        <time>2018-08-18T07:22:15Z</time>
      </trkpt>
      <trkpt lat="48.61537" lon="2.10233">
        <ele>117</ele>
        <time>2018-08-18T07:22:19Z</time>
      </trkpt>
      <trkpt lat="48.61539" lon="2.10225">
        <ele>117</ele>
        <time>2018-08-18T07:22:23Z</time>
      </trkpt>
      <trkpt lat="48.61541" lon="2.10217">
        <ele>117</ele>
        <time>2018-08-18T07:22:27Z</time>
      </trkpt>
      <trkpt lat="48.61544" lon="2.1021">
        <ele>117</ele>
        <time>2018-08-18T07:22:31Z</time>
      </trkpt>
      <trkpt lat="48.61549" lon="2.102">
        <ele>117</ele>
        <time>2018-08-18T07:22:35Z</time>
      </trkpt>
      <trkpt lat="48.61552" lon="2.10192">
        <ele>117</ele>
        <time>2018-08-18T07:22:40Z</time>
      </trkpt>
      <trkpt lat="48.61555" lon="2.10186">
        <ele>117</ele>
        <time>2018-08-18T07:22:44Z</time>
      </trkpt>
      <trkpt lat="48.61556" lon="2.10179">
        <ele>117</ele>
        <time>2018-08-18T07:22:49Z</time>
      </trkpt>
      <trkpt lat="48.61557" lon="2.10172">
        <ele>118</ele>
        <time>2018-08-18T07:22:53Z</time>
      </trkpt>
      <trkpt lat="48.61559" lon="2.10164">
        <ele>118</ele>
        <time>2018-08-18T07:22:57Z</time>
      </trkpt>
      <trkpt lat="48.6156" lon="2.10155">
        <ele>118</ele>
        <time>2018-08-18T07:23:01Z</time>
      </trkpt>
      <trkpt lat="48.61561" lon="2.10147">
        <ele>118</ele>
        <time>2018-08-18T07:23:05Z</time>
      </trkpt>
      <trkpt lat="48.61563" lon="2.1014">
        <ele>118</ele>
        <time>2018-08-18T07:23:09Z</time>
      </trkpt>
      <trkpt lat="48.61564" lon="2.10132">
        <ele>119</ele>
        <time>2018-08-18T07:23:13Z</time>
      </trkpt>
      <trkpt lat="48.61565" lon="2.10124">
        <ele>119</ele>
        <time>2018-08-18T07:23:17Z</time>
      </trkpt>
      <trkpt lat="48.61566" lon="2.10116">
        <ele>119</ele>
        <time>2018-08-18T07:23:21Z</time>
      </trkpt>
      <trkpt lat="48.61567" lon="2.10108">
        <ele>119</ele>
        <time>2018-08-18T07:23:25Z</time>
      </trkpt>
      <trkpt lat="48.61568" lon="2.101">
        <ele>119</ele>
        <time>2018-08-18T07:23:29Z</time>
      </trkpt>
      <trkpt lat="48.61569" lon="2.10092">
        <ele>119</ele>
        <time>2018-08-18T07:23:33Z</time>
      </trkpt>
      <trkpt lat="48.6157" lon="2.10084">
        <ele>120</ele>
        <time>2018-08-18T07:23:37Z</time>
      </trkpt>
      <trkpt lat="48.6157" lon="2.10077">
        <ele>120</ele>
        <time>2018-08-18T07:23:41Z</time>
      </trkpt>
      <trkpt lat="48.61572" lon="2.1007">
        <ele>120</ele>
        <time>2018-08-18T07:23:45Z</time>
      </trkpt>
      <trkpt lat="48.61572" lon="2.10065">
        <ele>120</ele>
        <time>2018-08-18T07:23:49Z</time>
      </trkpt>
      <trkpt lat="48.61573" lon="2.10057">
        <ele>120</ele>
        <time>2018-08-18T07:23:53Z</time>
      </trkpt>
      <trkpt lat="48.61573" lon="2.10048">
        <ele>120</ele>
        <time>2018-08-18T07:23:58Z</time>
      </trkpt>
      <trkpt lat="48.61574" lon="2.1004">
        <ele>120</ele>
        <time>2018-08-18T07:24:02Z</time>
      </trkpt>
      <trkpt lat="48.61574" lon="2.10032">
        <ele>120</ele>
        <time>2018-08-18T07:24:06Z</time>
      </trkpt>
      <trkpt lat="48.61575" lon="2.10024">
        <ele>120</ele>
        <time>2018-08-18T07:24:10Z</time>
      </trkpt>
      <trkpt lat="48.61576" lon="2.10016">
        <ele>120</ele>
        <time>2018-08-18T07:24:14Z</time>
      </trkpt>
      <trkpt lat="48.61576" lon="2.10009">
        <ele>121</ele>
        <time>2018-08-18T07:24:18Z</time>
      </trkpt>
      <trkpt lat="48.61577" lon="2.10001">
        <ele>121</ele>
        <time>2018-08-18T07:24:22Z</time>
      </trkpt>
      <trkpt lat="48.61578" lon="2.09994">
        <ele>121</ele>
        <time>2018-08-18T07:24:26Z</time>
      </trkpt>
      <trkpt lat="48.61578" lon="2.09986">
        <ele>121</ele>
        <time>2018-08-18T07:24:30Z</time>
      </trkpt>
      <trkpt lat="48.61578" lon="2.09979">
        <ele>121</ele>
        <time>2018-08-18T07:24:34Z</time>
      </trkpt>
      <trkpt lat="48.61579" lon="2.09971">
        <ele>121</ele>
        <time>2018-08-18T07:24:38Z</time>
      </trkpt>
      <trkpt lat="48.6158" lon="2.09963">
        <ele>122</ele>
        <time>2018-08-18T07:24:42Z</time>
      </trkpt>
      <trkpt lat="48.6158" lon="2.09956">
        <ele>122</ele>
        <time>2018-08-18T07:24:48Z</time>
      </trkpt>
      <trkpt lat="48.61581" lon="2.09949">
        <ele>122</ele>
        <time>2018-08-18T07:24:52Z</time>
      </trkpt>
      <trkpt lat="48.61581" lon="2.09941">
        <ele>122</ele>
        <time>2018-08-18T07:24:56Z</time>
      </trkpt>
      <trkpt lat="48.61581" lon="2.09933">
        <ele>122</ele>
        <time>2018-08-18T07:25:00Z</time>
      </trkpt>
      <trkpt lat="48.61581" lon="2.09925">
        <ele>122</ele>
        <time>2018-08-18T07:25:04Z</time>
      </trkpt>
      <trkpt lat="48.61582" lon="2.09917">
        <ele>122</ele>
        <time>2018-08-18T07:25:08Z</time>
      </trkpt>
      <trkpt lat="48.61581" lon="2.09909">
        <ele>122</ele>
        <time>2018-08-18T07:25:12Z</time>
      </trkpt>
      <trkpt lat="48.61581" lon="2.099">
        <ele>122</ele>
        <time>2018-08-18T07:25:16Z</time>
      </trkpt>
      <trkpt lat="48.61581" lon="2.09892">
        <ele>122</ele>
        <time>2018-08-18T07:25:20Z</time>
      </trkpt>
      <trkpt lat="48.61581" lon="2.09884">
        <ele>122</ele>
        <time>2018-08-18T07:25:24Z</time>
      </trkpt>
      <trkpt lat="48.61581" lon="2.09875">
        <ele>122</ele>
        <time>2018-08-18T07:25:28Z</time>
      </trkpt>
      <trkpt lat="48.61581" lon="2.09866">
        <ele>122</ele>
        <time>2018-08-18T07:25:32Z</time>
      </trkpt>
      <trkpt lat="48.61581" lon="2.09858">
        <ele>122</ele>
        <time>2018-08-18T07:25:36Z</time>
      </trkpt>
      <trkpt lat="48.61581" lon="2.09849">
        <ele>122</ele>
        <time>2018-08-18T07:25:40Z</time>
      </trkpt>
      <trkpt lat="48.6158" lon="2.0984">
        <ele>122</ele>
        <time>2018-08-18T07:25:44Z</time>
      </trkpt>
      <trkpt lat="48.61579" lon="2.09832">
        <ele>122</ele>
        <time>2018-08-18T07:25:48Z</time>
      </trkpt>
      <trkpt lat="48.61579" lon="2.09823">
        <ele>122</ele>
        <time>2018-08-18T07:25:52Z</time>
      </trkpt>
      <trkpt lat="48.61578" lon="2.09814">
        <ele>122</ele>
        <time>2018-08-18T07:25:56Z</time>
      </trkpt>
      <trkpt lat="48.61578" lon="2.09806">
        <ele>122</ele>
        <time>2018-08-18T07:26:00Z</time>
      </trkpt>
      <trkpt lat="48.61577" lon="2.09799">
        <ele>122</ele>
        <time>2018-08-18T07:26:04Z</time>
      </trkpt>
      <trkpt lat="48.61577" lon="2.09792">
        <ele>123</ele>
        <time>2018-08-18T07:26:08Z</time>
      </trkpt>
      <trkpt lat="48.61576" lon="2.09783">
        <ele>123</ele>
        <time>2018-08-18T07:26:12Z</time>
      </trkpt>
      <trkpt lat="48.61575" lon="2.09775">
        <ele>123</ele>
        <time>2018-08-18T07:26:16Z</time>
      </trkpt>
      <trkpt lat="48.61574" lon="2.09767">
        <ele>123</ele>
        <time>2018-08-18T07:26:20Z</time>
      </trkpt>
      <trkpt lat="48.61573" lon="2.09759">
        <ele>123</ele>
        <time>2018-08-18T07:26:24Z</time>
      </trkpt>
      <trkpt lat="48.61572" lon="2.09751">
        <ele>124</ele>
        <time>2018-08-18T07:26:28Z</time>
      </trkpt>
      <trkpt lat="48.61572" lon="2.09743">
        <ele>124</ele>
        <time>2018-08-18T07:26:32Z</time>
      </trkpt>
      <trkpt lat="48.61571" lon="2.09734">
        <ele>124</ele>
        <time>2018-08-18T07:26:36Z</time>
      </trkpt>
      <trkpt lat="48.61569" lon="2.09725">
        <ele>125</ele>
        <time>2018-08-18T07:26:40Z</time>
      </trkpt>
      <trkpt lat="48.61568" lon="2.09717">
        <ele>125</ele>
        <time>2018-08-18T07:26:44Z</time>
      </trkpt>
      <trkpt lat="48.61567" lon="2.09709">
        <ele>125</ele>
        <time>2018-08-18T07:26:48Z</time>
      </trkpt>
      <trkpt lat="48.61565" lon="2.097">
        <ele>125</ele>
        <time>2018-08-18T07:26:52Z</time>
      </trkpt>
      <trkpt lat="48.61564" lon="2.09692">
        <ele>125</ele>
        <time>2018-08-18T07:26:56Z</time>
      </trkpt>
      <trkpt lat="48.61562" lon="2.09684">
        <ele>125</ele>
        <time>2018-08-18T07:27:00Z</time>
      </trkpt>
      <trkpt lat="48.61561" lon="2.09675">
        <ele>125</ele>
        <time>2018-08-18T07:27:04Z</time>
      </trkpt>
      <trkpt lat="48.61559" lon="2.09667">
        <ele>125</ele>
        <time>2018-08-18T07:27:08Z</time>
      </trkpt>
      <trkpt lat="48.61558" lon="2.0966">
        <ele>125</ele>
        <time>2018-08-18T07:27:12Z</time>
      </trkpt>
      <trkpt lat="48.61556" lon="2.09652">
        <ele>125</ele>
        <time>2018-08-18T07:27:16Z</time>
      </trkpt>
      <trkpt lat="48.61555" lon="2.09644">
        <ele>125</ele>
        <time>2018-08-18T07:27:20Z</time>
      </trkpt>
      <trkpt lat="48.61553" lon="2.09636">
        <ele>125</ele>
        <time>2018-08-18T07:27:24Z</time>
      </trkpt>
      <trkpt lat="48.61551" lon="2.09627">
        <ele>125</ele>
        <time>2018-08-18T07:27:28Z</time>
      </trkpt>
      <trkpt lat="48.61549" lon="2.09619">
        <ele>126</ele>
        <time>2018-08-18T07:27:32Z</time>
      </trkpt>
      <trkpt lat="48.61548" lon="2.09611">
        <ele>126</ele>
        <time>2018-08-18T07:27:36Z</time>
      </trkpt>
      <trkpt lat="48.61546" lon="2.09603">
        <ele>126</ele>
        <time>2018-08-18T07:27:40Z</time>
      </trkpt>
      <trkpt lat="48.61544" lon="2.09595">
        <ele>126</ele>
        <time>2018-08-18T07:27:44Z</time>
      </trkpt>
      <trkpt lat="48.61542" lon="2.09586">
        <ele>126</ele>
        <time>2018-08-18T07:27:48Z</time>
      </trkpt>
      <trkpt lat="48.6154" lon="2.09577">
        <ele>126</ele>
        <time>2018-08-18T07:27:52Z</time>
      </trkpt>
      <trkpt lat="48.61538" lon="2.09569">
        <ele>126</ele>
        <time>2018-08-18T07:27:56Z</time>
      </trkpt>
      <trkpt lat="48.61536" lon="2.0956">
        <ele>126</ele>
        <time>2018-08-18T07:28:00Z</time>
      </trkpt>
      <trkpt lat="48.61534" lon="2.09552">
        <ele>126</ele>
        <time>2018-08-18T07:28:04Z</time>
      </trkpt>
      <trkpt lat="48.61532" lon="2.09544">
        <ele>126</ele>
        <time>2018-08-18T07:28:08Z</time>
      </trkpt>
      <trkpt lat="48.6153" lon="2.09535">
        <ele>126</ele>
        <time>2018-08-18T07:28:12Z</time>
      </trkpt>
      <trkpt lat="48.61528" lon="2.09527">
        <ele>126</ele>
        <time>2018-08-18T07:28:16Z</time>
      </trkpt>
      <trkpt lat="48.61527" lon="2.09519">
        <ele>126</ele>
        <time>2018-08-18T07:28:20Z</time>
      </trkpt>
      <trkpt lat="48.61524" lon="2.09511">
        <ele>126</ele>
        <time>2018-08-18T07:28:24Z</time>
      </trkpt>
      <trkpt lat="48.61522" lon="2.09503">
        <ele>126</ele>
        <time>2018-08-18T07:28:28Z</time>
      </trkpt>
      <trkpt lat="48.6152" lon="2.09494">
        <ele>126</ele>
        <time>2018-08-18T07:28:32Z</time>
      </trkpt>
      <trkpt lat="48.61519" lon="2.09486">
        <ele>126</ele>
        <time>2018-08-18T07:28:36Z</time>
      </trkpt>
      <trkpt lat="48.61517" lon="2.09478">
        <ele>126</ele>
        <time>2018-08-18T07:28:40Z</time>
      </trkpt>
      <trkpt lat="48.61514" lon="2.0947">
        <ele>126</ele>
        <time>2018-08-18T07:28:44Z</time>
      </trkpt>
      <trkpt lat="48.61512" lon="2.09462">
        <ele>127</ele>
        <time>2018-08-18T07:28:48Z</time>
      </trkpt>
      <trkpt lat="48.6151" lon="2.09454">
        <ele>127</ele>
        <time>2018-08-18T07:28:52Z</time>
      </trkpt>
      <trkpt lat="48.61508" lon="2.09445">
        <ele>127</ele>
        <time>2018-08-18T07:28:56Z</time>
      </trkpt>
      <trkpt lat="48.61506" lon="2.09437">
        <ele>127</ele>
        <time>2018-08-18T07:29:00Z</time>
      </trkpt>
      <trkpt lat="48.61504" lon="2.09428">
        <ele>128</ele>
        <time>2018-08-18T07:29:04Z</time>
      </trkpt>
      <trkpt lat="48.61502" lon="2.09419">
        <ele>128</ele>
        <time>2018-08-18T07:29:08Z</time>
      </trkpt>
      <trkpt lat="48.615" lon="2.09411">
        <ele>128</ele>
        <time>2018-08-18T07:29:12Z</time>
      </trkpt>
      <trkpt lat="48.61498" lon="2.09402">
        <ele>128</ele>
        <time>2018-08-18T07:29:16Z</time>
      </trkpt>
      <trkpt lat="48.61496" lon="2.09394">
        <ele>129</ele>
        <time>2018-08-18T07:29:20Z</time>
      </trkpt>
      <trkpt lat="48.61495" lon="2.09385">
        <ele>129</ele>
        <time>2018-08-18T07:29:24Z</time>
      </trkpt>
      <trkpt lat="48.61493" lon="2.09377">
        <ele>129</ele>
        <time>2018-08-18T07:29:28Z</time>
      </trkpt>
      <trkpt lat="48.61491" lon="2.0937">
        <ele>129</ele>
        <time>2018-08-18T07:29:32Z</time>
      </trkpt>
      <trkpt lat="48.6149" lon="2.09361">
        <ele>129</ele>
        <time>2018-08-18T07:29:36Z</time>
      </trkpt>
      <trkpt lat="48.61488" lon="2.09353">
        <ele>130</ele>
        <time>2018-08-18T07:29:40Z</time>
      </trkpt>
      <trkpt lat="48.61487" lon="2.09345">
        <ele>130</ele>
        <time>2018-08-18T07:29:44Z</time>
      </trkpt>
      <trkpt lat="48.61485" lon="2.09337">
        <ele>130</ele>
        <time>2018-08-18T07:29:48Z</time>
      </trkpt>
      <trkpt lat="48.61483" lon="2.09329">
        <ele>131</ele>
        <time>2018-08-18T07:29:52Z</time>
      </trkpt>
      <trkpt lat="48.61482" lon="2.09321">
        <ele>131</ele>
        <time>2018-08-18T07:29:56Z</time>
      </trkpt>
      <trkpt lat="48.6148" lon="2.09312">
        <ele>131</ele>
        <time>2018-08-18T07:30:00Z</time>
      </trkpt>
      <trkpt lat="48.61478" lon="2.09304">
        <ele>131</ele>
        <time>2018-08-18T07:30:04Z</time>
      </trkpt>
      <trkpt lat="48.61477" lon="2.09297">
        <ele>131</ele>
        <time>2018-08-18T07:30:08Z</time>
      </trkpt>
      <trkpt lat="48.61475" lon="2.0929">
        <ele>131</ele>
        <time>2018-08-18T07:30:12Z</time>
      </trkpt>
      <trkpt lat="48.61474" lon="2.09282">
        <ele>131</ele>
        <time>2018-08-18T07:30:16Z</time>
      </trkpt>
      <trkpt lat="48.61472" lon="2.09275">
        <ele>131</ele>
        <time>2018-08-18T07:30:20Z</time>
      </trkpt>
      <trkpt lat="48.61471" lon="2.09267">
        <ele>132</ele>
        <time>2018-08-18T07:30:24Z</time>
      </trkpt>
      <trkpt lat="48.61469" lon="2.09259">
        <ele>132</ele>
        <time>2018-08-18T07:30:28Z</time>
      </trkpt>
      <trkpt lat="48.61468" lon="2.09251">
        <ele>132</ele>
        <time>2018-08-18T07:30:32Z</time>
      </trkpt>
      <trkpt lat="48.61466" lon="2.09242">
        <ele>132</ele>
        <time>2018-08-18T07:30:36Z</time>
      </trkpt>
      <trkpt lat="48.61465" lon="2.09234">
        <ele>132</ele>
        <time>2018-08-18T07:30:40Z</time>
      </trkpt>
      <trkpt lat="48.61463" lon="2.09225">
        <ele>132</ele>
        <time>2018-08-18T07:30:44Z</time>
      </trkpt>
      <trkpt lat="48.61462" lon="2.09217">
        <ele>132</ele>
        <time>2018-08-18T07:30:48Z</time>
      </trkpt>
      <trkpt lat="48.61461" lon="2.09209">
        <ele>132</ele>
        <time>2018-08-18T07:30:52Z</time>
      </trkpt>
      <trkpt lat="48.6146" lon="2.092">
        <ele>132</ele>
        <time>2018-08-18T07:30:56Z</time>
      </trkpt>
      <trkpt lat="48.61457" lon="2.09194">
        <ele>132</ele>
        <time>2018-08-18T07:31:01Z</time>
      </trkpt>
      <trkpt lat="48.61453" lon="2.09192">
        <ele>132</ele>
        <time>2018-08-18T07:31:05Z</time>
      </trkpt>
      <trkpt lat="48.61447" lon="2.09191">
        <ele>132</ele>
        <time>2018-08-18T07:31:09Z</time>
      </trkpt>
      <trkpt lat="48.61442" lon="2.09191">
        <ele>132</ele>
        <time>2018-08-18T07:31:13Z</time>
      </trkpt>
      <trkpt lat="48.61437" lon="2.09191">
        <ele>132</ele>
        <time>2018-08-18T07:31:17Z</time>
      </trkpt>
      <trkpt lat="48.61433" lon="2.09191">
        <ele>132</ele>
        <time>2018-08-18T07:31:23Z</time>
      </trkpt>
      <trkpt lat="48.6143" lon="2.09192">
        <ele>132</ele>
        <time>2018-08-18T07:31:27Z</time>
      </trkpt>
      <trkpt lat="48.61424" lon="2.09192">
        <ele>132</ele>
        <time>2018-08-18T07:31:31Z</time>
      </trkpt>
      <trkpt lat="48.61418" lon="2.09193">
        <ele>132</ele>
        <time>2018-08-18T07:31:35Z</time>
      </trkpt>
      <trkpt lat="48.61412" lon="2.09195">
        <ele>132</ele>
        <time>2018-08-18T07:31:39Z</time>
      </trkpt>
      <trkpt lat="48.61406" lon="2.09198">
        <ele>132</ele>
        <time>2018-08-18T07:31:43Z</time>
      </trkpt>
      <trkpt lat="48.61401" lon="2.092">
        <ele>132</ele>
        <time>2018-08-18T07:31:47Z</time>
      </trkpt>
      <trkpt lat="48.61396" lon="2.09204">
        <ele>132</ele>
        <time>2018-08-18T07:31:51Z</time>
      </trkpt>
      <trkpt lat="48.61391" lon="2.09206">
        <ele>132</ele>
        <time>2018-08-18T07:31:55Z</time>
      </trkpt>
      <trkpt lat="48.61386" lon="2.09208">
        <ele>132</ele>
        <time>2018-08-18T07:31:59Z</time>
      </trkpt>
      <trkpt lat="48.6138" lon="2.0921">
        <ele>132</ele>
        <time>2018-08-18T07:32:03Z</time>
      </trkpt>
      <trkpt lat="48.61375" lon="2.09209">
        <ele>132</ele>
        <time>2018-08-18T07:32:07Z</time>
      </trkpt>
      <trkpt lat="48.61371" lon="2.09205">
        <ele>132</ele>
        <time>2018-08-18T07:32:11Z</time>
      </trkpt>
      <trkpt lat="48.6137" lon="2.09199">
        <ele>132</ele>
        <time>2018-08-18T07:32:15Z</time>
      </trkpt>
      <trkpt lat="48.61369" lon="2.09193">
        <ele>132</ele>
        <time>2018-08-18T07:32:19Z</time>
      </trkpt>
      <trkpt lat="48.61368" lon="2.09185">
        <ele>132</ele>
        <time>2018-08-18T07:32:23Z</time>
      </trkpt>
      <trkpt lat="48.61367" lon="2.09177">
        <ele>132</ele>
        <time>2018-08-18T07:32:27Z</time>
      </trkpt>
      <trkpt lat="48.61366" lon="2.0917">
        <ele>132</ele>
        <time>2018-08-18T07:32:31Z</time>
      </trkpt>
      <trkpt lat="48.61365" lon="2.09163">
        <ele>132</ele>
        <time>2018-08-18T07:32:35Z</time>
      </trkpt>
      <trkpt lat="48.61364" lon="2.09155">
        <ele>132</ele>
        <time>2018-08-18T07:32:39Z</time>
      </trkpt>
      <trkpt lat="48.61364" lon="2.09147">
        <ele>132</ele>
        <time>2018-08-18T07:32:43Z</time>
      </trkpt>
      <trkpt lat="48.61363" lon="2.09139">
        <ele>132</ele>
        <time>2018-08-18T07:32:47Z</time>
      </trkpt>
      <trkpt lat="48.61362" lon="2.09132">
        <ele>132</ele>
        <time>2018-08-18T07:32:51Z</time>
      </trkpt>
      <trkpt lat="48.61361" lon="2.09124">
        <ele>132</ele>
        <time>2018-08-18T07:32:55Z</time>
      </trkpt>
      <trkpt lat="48.6136" lon="2.09116">
        <ele>132</ele>
        <time>2018-08-18T07:32:59Z</time>
      </trkpt>
      <trkpt lat="48.61358" lon="2.09108">
        <ele>132</ele>
        <time>2018-08-18T07:33:03Z</time>
      </trkpt>
      <trkpt lat="48.61357" lon="2.091">
        <ele>132</ele>
        <time>2018-08-18T07:33:07Z</time>
      </trkpt>
      <trkpt lat="48.61356" lon="2.09093">
        <ele>132</ele>
        <time>2018-08-18T07:33:11Z</time>
      </trkpt>
      <trkpt lat="48.61354" lon="2.09085">
        <ele>132</ele>
        <time>2018-08-18T07:33:15Z</time>
      </trkpt>
      <trkpt lat="48.61353" lon="2.09078">
        <ele>132</ele>
        <time>2018-08-18T07:33:20Z</time>
      </trkpt>
      <trkpt lat="48.61353" lon="2.09072">
        <ele>132</ele>
        <time>2018-08-18T07:33:25Z</time>
      </trkpt>
      <trkpt lat="48.61352" lon="2.09065">
        <ele>132</ele>
        <time>2018-08-18T07:33:29Z</time>
      </trkpt>
      <trkpt lat="48.61352" lon="2.09058">
        <ele>131</ele>
        <time>2018-08-18T07:33:33Z</time>
      </trkpt>
      <trkpt lat="48.6135" lon="2.09048">
        <ele>131</ele>
        <time>2018-08-18T07:33:37Z</time>
      </trkpt>
      <trkpt lat="48.6135" lon="2.09039">
        <ele>131</ele>
        <time>2018-08-18T07:33:41Z</time>
      </trkpt>
      <trkpt lat="48.6135" lon="2.09031">
        <ele>131</ele>
        <time>2018-08-18T07:33:45Z</time>
      </trkpt>
      <trkpt lat="48.61349" lon="2.09023">
        <ele>131</ele>
        <time>2018-08-18T07:33:49Z</time>
      </trkpt>
      <trkpt lat="48.61349" lon="2.09015">
        <ele>131</ele>
        <time>2018-08-18T07:33:53Z</time>
      </trkpt>
      <trkpt lat="48.6135" lon="2.09006">
        <ele>131</ele>
        <time>2018-08-18T07:33:57Z</time>
      </trkpt>
      <trkpt lat="48.61351" lon="2.08997">
        <ele>131</ele>
        <time>2018-08-18T07:34:01Z</time>
      </trkpt>
      <trkpt lat="48.61353" lon="2.08989">
        <ele>131</ele>
        <time>2018-08-18T07:34:05Z</time>
      </trkpt>
      <trkpt lat="48.61356" lon="2.08981">
        <ele>131</ele>
        <time>2018-08-18T07:34:09Z</time>
      </trkpt>
      <trkpt lat="48.61359" lon="2.08973">
        <ele>131</ele>
        <time>2018-08-18T07:34:13Z</time>
      </trkpt>
      <trkpt lat="48.61363" lon="2.08966">
        <ele>131</ele>
        <time>2018-08-18T07:34:17Z</time>
      </trkpt>
      <trkpt lat="48.61365" lon="2.08958">
        <ele>131</ele>
        <time>2018-08-18T07:34:21Z</time>
      </trkpt>
      <trkpt lat="48.61368" lon="2.0895">
        <ele>131</ele>
        <time>2018-08-18T07:34:25Z</time>
      </trkpt>
      <trkpt lat="48.61369" lon="2.08941">
        <ele>131</ele>
        <time>2018-08-18T07:34:29Z</time>
      </trkpt>
      <trkpt lat="48.61369" lon="2.08932">
        <ele>131</ele>
        <time>2018-08-18T07:34:33Z</time>
      </trkpt>
      <trkpt lat="48.61369" lon="2.08923">
        <ele>131</ele>
        <time>2018-08-18T07:34:37Z</time>
      </trkpt>
      <trkpt lat="48.61369" lon="2.08915">
        <ele>132</ele>
        <time>2018-08-18T07:34:42Z</time>
      </trkpt>
      <trkpt lat="48.61367" lon="2.08907">
        <ele>133</ele>
        <time>2018-08-18T07:34:46Z</time>
      </trkpt>
      <trkpt lat="48.61366" lon="2.08898">
        <ele>134</ele>
        <time>2018-08-18T07:34:50Z</time>
      </trkpt>
      <trkpt lat="48.61366" lon="2.08891">
        <ele>134</ele>
        <time>2018-08-18T07:34:54Z</time>
      </trkpt>
      <trkpt lat="48.61365" lon="2.08884">
        <ele>134</ele>
        <time>2018-08-18T07:34:58Z</time>
      </trkpt>
      <trkpt lat="48.61364" lon="2.08876">
        <ele>135</ele>
        <time>2018-08-18T07:35:02Z</time>
      </trkpt>
      <trkpt lat="48.61363" lon="2.08868">
        <ele>136</ele>
        <time>2018-08-18T07:35:06Z</time>
      </trkpt>
      <trkpt lat="48.61362" lon="2.08861">
        <ele>136</ele>
        <time>2018-08-18T07:35:10Z</time>
      </trkpt>
      <trkpt lat="48.61361" lon="2.08853">
        <ele>136</ele>
        <time>2018-08-18T07:35:14Z</time>
      </trkpt>
      <trkpt lat="48.6136" lon="2.08845">
        <ele>136</ele>
        <time>2018-08-18T07:35:18Z</time>
      </trkpt>
      <trkpt lat="48.61359" lon="2.08837">
        <ele>137</ele>
        <time>2018-08-18T07:35:22Z</time>
      </trkpt>
      <trkpt lat="48.61358" lon="2.08829">
        <ele>137</ele>
        <time>2018-08-18T07:35:26Z</time>
      </trkpt>
      <trkpt lat="48.61358" lon="2.08821">
        <ele>137</ele>
        <time>2018-08-18T07:35:30Z</time>
      </trkpt>
      <trkpt lat="48.61358" lon="2.08813">
        <ele>138</ele>
        <time>2018-08-18T07:35:34Z</time>
      </trkpt>
      <trkpt lat="48.61357" lon="2.08805">
        <ele>138</ele>
        <time>2018-08-18T07:35:38Z</time>
      </trkpt>
      <trkpt lat="48.61358" lon="2.08795">
        <ele>138</ele>
        <time>2018-08-18T07:35:42Z</time>
      </trkpt>
      <trkpt lat="48.61359" lon="2.08786">
        <ele>138</ele>
        <time>2018-08-18T07:35:46Z</time>
      </trkpt>
      <trkpt lat="48.6136" lon="2.08778">
        <ele>138</ele>
        <time>2018-08-18T07:35:50Z</time>
      </trkpt>
      <trkpt lat="48.61361" lon="2.08771">
        <ele>138</ele>
        <time>2018-08-18T07:35:54Z</time>
      </trkpt>
      <trkpt lat="48.61363" lon="2.08763">
        <ele>138</ele>
        <time>2018-08-18T07:35:58Z</time>
      </trkpt>
      <trkpt lat="48.61364" lon="2.08755">
        <ele>138</ele>
        <time>2018-08-18T07:36:02Z</time>
      </trkpt>
      <trkpt lat="48.61367" lon="2.08748">
        <ele>138</ele>
        <time>2018-08-18T07:36:06Z</time>
      </trkpt>
      <trkpt lat="48.61369" lon="2.0874">
        <ele>138</ele>
        <time>2018-08-18T07:36:10Z</time>
      </trkpt>
      <trkpt lat="48.61371" lon="2.08733">
        <ele>139</ele>
        <time>2018-08-18T07:36:14Z</time>
      </trkpt>
      <trkpt lat="48.61373" lon="2.08725">
        <ele>140</ele>
        <time>2018-08-18T07:36:18Z</time>
      </trkpt>
      <trkpt lat="48.61376" lon="2.08718">
        <ele>140</ele>
        <time>2018-08-18T07:36:22Z</time>
      </trkpt>
      <trkpt lat="48.61378" lon="2.08711">
        <ele>140</ele>
        <time>2018-08-18T07:36:26Z</time>
      </trkpt>
      <trkpt lat="48.6138" lon="2.08703">
        <ele>140</ele>
        <time>2018-08-18T07:36:30Z</time>
      </trkpt>
      <trkpt lat="48.61383" lon="2.08696">
        <ele>140</ele>
        <time>2018-08-18T07:36:34Z</time>
      </trkpt>
      <trkpt lat="48.61387" lon="2.08689">
        <ele>140</ele>
        <time>2018-08-18T07:36:38Z</time>
      </trkpt>
      <trkpt lat="48.61389" lon="2.08682">
        <ele>140</ele>
        <time>2018-08-18T07:36:42Z</time>
      </trkpt>
      <trkpt lat="48.61393" lon="2.08674">
        <ele>140</ele>
        <time>2018-08-18T07:36:46Z</time>
      </trkpt>
      <trkpt lat="48.61396" lon="2.08668">
        <ele>140</ele>
        <time>2018-08-18T07:36:50Z</time>
      </trkpt>
      <trkpt lat="48.61399" lon="2.0866">
        <ele>140</ele>
        <time>2018-08-18T07:36:54Z</time>
      </trkpt>
      <trkpt lat="48.61401" lon="2.08654">
        <ele>140</ele>
        <time>2018-08-18T07:36:58Z</time>
      </trkpt>
      <trkpt lat="48.61404" lon="2.08648">
        <ele>140</ele>
        <time>2018-08-18T07:37:02Z</time>
      </trkpt>
      <trkpt lat="48.61404" lon="2.08641">
        <ele>140</ele>
        <time>2018-08-18T07:37:06Z</time>
      </trkpt>
      <trkpt lat="48.61403" lon="2.08636">
        <ele>141</ele>
        <time>2018-08-18T07:37:10Z</time>
      </trkpt>
      <trkpt lat="48.61398" lon="2.08633">
        <ele>141</ele>
        <time>2018-08-18T07:37:14Z</time>
      </trkpt>
      <trkpt lat="48.61393" lon="2.08632">
        <ele>141</ele>
        <time>2018-08-18T07:37:19Z</time>
      </trkpt>
      <trkpt lat="48.61388" lon="2.08631">
        <ele>141</ele>
        <time>2018-08-18T07:37:24Z</time>
      </trkpt>
      <trkpt lat="48.61384" lon="2.08628">
        <ele>141</ele>
        <time>2018-08-18T07:37:28Z</time>
      </trkpt>
      <trkpt lat="48.61379" lon="2.08627">
        <ele>141</ele>
        <time>2018-08-18T07:37:32Z</time>
      </trkpt>
      <trkpt lat="48.61372" lon="2.08626">
        <ele>140</ele>
        <time>2018-08-18T07:37:37Z</time>
      </trkpt>
      <trkpt lat="48.61367" lon="2.08624">
        <ele>139</ele>
        <time>2018-08-18T07:37:41Z</time>
      </trkpt>
      <trkpt lat="48.61362" lon="2.08624">
        <ele>137</ele>
        <time>2018-08-18T07:37:45Z</time>
      </trkpt>
      <trkpt lat="48.61357" lon="2.08623">
        <ele>136</ele>
        <time>2018-08-18T07:37:49Z</time>
      </trkpt>
      <trkpt lat="48.61353" lon="2.08621">
        <ele>134</ele>
        <time>2018-08-18T07:37:53Z</time>
      </trkpt>
      <trkpt lat="48.61347" lon="2.08619">
        <ele>132</ele>
        <time>2018-08-18T07:37:57Z</time>
      </trkpt>
      <trkpt lat="48.61342" lon="2.08617">
        <ele>130</ele>
        <time>2018-08-18T07:38:01Z</time>
      </trkpt>
      <trkpt lat="48.61337" lon="2.08615">
        <ele>130</ele>
        <time>2018-08-18T07:38:05Z</time>
      </trkpt>
      <trkpt lat="48.61331" lon="2.08613">
        <ele>129</ele>
        <time>2018-08-18T07:38:09Z</time>
      </trkpt>
      <trkpt lat="48.61326" lon="2.0861">
        <ele>128</ele>
        <time>2018-08-18T07:38:13Z</time>
      </trkpt>
      <trkpt lat="48.61321" lon="2.08606">
        <ele>128</ele>
        <time>2018-08-18T07:38:17Z</time>
      </trkpt>
      <trkpt lat="48.61316" lon="2.08602">
        <ele>128</ele>
        <time>2018-08-18T07:38:21Z</time>
      </trkpt>
      <trkpt lat="48.6131" lon="2.08598">
        <ele>128</ele>
        <time>2018-08-18T07:38:26Z</time>
      </trkpt>
      <trkpt lat="48.61304" lon="2.08593">
        <ele>128</ele>
        <time>2018-08-18T07:38:31Z</time>
      </trkpt>
      <trkpt lat="48.61298" lon="2.0859">
        <ele>128</ele>
        <time>2018-08-18T07:38:35Z</time>
      </trkpt>
      <trkpt lat="48.61293" lon="2.08587">
        <ele>128</ele>
        <time>2018-08-18T07:38:39Z</time>
      </trkpt>
      <trkpt lat="48.61288" lon="2.08584">
        <ele>128</ele>
        <time>2018-08-18T07:38:43Z</time>
      </trkpt>
      <trkpt lat="48.61283" lon="2.08582">
        <ele>128</ele>
        <time>2018-08-18T07:38:47Z</time>
      </trkpt>
      <trkpt lat="48.61278" lon="2.08578">
        <ele>128</ele>
        <time>2018-08-18T07:38:51Z</time>
      </trkpt>
      <trkpt lat="48.61273" lon="2.08574">
        <ele>128</ele>
        <time>2018-08-18T07:38:55Z</time>
      </trkpt>
      <trkpt lat="48.61269" lon="2.0857">
        <ele>128</ele>
        <time>2018-08-18T07:38:59Z</time>
      </trkpt>
      <trkpt lat="48.61264" lon="2.08566">
        <ele>128</ele>
        <time>2018-08-18T07:39:03Z</time>
      </trkpt>
      <trkpt lat="48.61259" lon="2.08561">
        <ele>126</ele>
        <time>2018-08-18T07:39:07Z</time>
      </trkpt>
      <trkpt lat="48.61254" lon="2.08559">
        <ele>126</ele>
        <time>2018-08-18T07:39:11Z</time>
      </trkpt>
      <trkpt lat="48.61249" lon="2.08554">
        <ele>125</ele>
        <time>2018-08-18T07:39:15Z</time>
      </trkpt>
      <trkpt lat="48.61243" lon="2.08547">
        <ele>121</ele>
        <time>2018-08-18T07:39:20Z</time>
      </trkpt>
      <trkpt lat="48.6124" lon="2.08542">
        <ele>119</ele>
        <time>2018-08-18T07:39:24Z</time>
      </trkpt>
      <trkpt lat="48.61235" lon="2.08533">
        <ele>119</ele>
        <time>2018-08-18T07:39:28Z</time>
      </trkpt>
      <trkpt lat="48.6123" lon="2.08526">
        <ele>119</ele>
        <time>2018-08-18T07:39:32Z</time>
      </trkpt>
      <trkpt lat="48.61224" lon="2.08518">
        <ele>119</ele>
        <time>2018-08-18T07:39:37Z</time>
      </trkpt>
      <trkpt lat="48.6122" lon="2.08513">
        <ele>119</ele>
        <time>2018-08-18T07:39:41Z</time>
      </trkpt>
      <trkpt lat="48.61215" lon="2.08507">
        <ele>119</ele>
        <time>2018-08-18T07:39:45Z</time>
      </trkpt>
      <trkpt lat="48.61211" lon="2.085">
        <ele>119</ele>
        <time>2018-08-18T07:39:49Z</time>
      </trkpt>
      <trkpt lat="48.61207" lon="2.08491">
        <ele>119</ele>
        <time>2018-08-18T07:39:54Z</time>
      </trkpt>
      <trkpt lat="48.61204" lon="2.08486">
        <ele>119</ele>
        <time>2018-08-18T07:39:58Z</time>
      </trkpt>
      <trkpt lat="48.61201" lon="2.08479">
        <ele>119</ele>
        <time>2018-08-18T07:40:02Z</time>
      </trkpt>
      <trkpt lat="48.61198" lon="2.08472">
        <ele>119</ele>
        <time>2018-08-18T07:40:06Z</time>
      </trkpt>
      <trkpt lat="48.61195" lon="2.08464">
        <ele>119</ele>
        <time>2018-08-18T07:40:11Z</time>
      </trkpt>
      <trkpt lat="48.61195" lon="2.08458">
        <ele>119</ele>
        <time>2018-08-18T07:40:15Z</time>
      </trkpt>
      <trkpt lat="48.61193" lon="2.08449">
        <ele>119</ele>
        <time>2018-08-18T07:40:19Z</time>
      </trkpt>
      <trkpt lat="48.61191" lon="2.0844">
        <ele>121</ele>
        <time>2018-08-18T07:40:23Z</time>
      </trkpt>
      <trkpt lat="48.61188" lon="2.08432">
        <ele>122</ele>
        <time>2018-08-18T07:40:27Z</time>
      </trkpt>
      <trkpt lat="48.61187" lon="2.08424">
        <ele>123</ele>
        <time>2018-08-18T07:40:32Z</time>
      </trkpt>
      <trkpt lat="48.61184" lon="2.08416">
        <ele>123</ele>
        <time>2018-08-18T07:40:36Z</time>
      </trkpt>
      <trkpt lat="48.61183" lon="2.08408">
        <ele>124</ele>
        <time>2018-08-18T07:40:40Z</time>
      </trkpt>
      <trkpt lat="48.61182" lon="2.08402">
        <ele>125</ele>
        <time>2018-08-18T07:40:44Z</time>
      </trkpt>
      <trkpt lat="48.61182" lon="2.08398">
        <ele>125</ele>
        <time>2018-08-18T07:40:50Z</time>
      </trkpt>
      <trkpt lat="48.61182" lon="2.0839">
        <ele>126</ele>
        <time>2018-08-18T07:40:55Z</time>
      </trkpt>
      <trkpt lat="48.61182" lon="2.08381">
        <ele>126</ele>
        <time>2018-08-18T07:40:59Z</time>
      </trkpt>
      <trkpt lat="48.61181" lon="2.08371">
        <ele>126</ele>
        <time>2018-08-18T07:41:03Z</time>
      </trkpt>
      <trkpt lat="48.61182" lon="2.08362">
        <ele>127</ele>
        <time>2018-08-18T07:41:07Z</time>
      </trkpt>
      <trkpt lat="48.61183" lon="2.08353">
        <ele>129</ele>
        <time>2018-08-18T07:41:11Z</time>
      </trkpt>
      <trkpt lat="48.61186" lon="2.08345">
        <ele>130</ele>
        <time>2018-08-18T07:41:15Z</time>
      </trkpt>
      <trkpt lat="48.6119" lon="2.08337">
        <ele>130</ele>
        <time>2018-08-18T07:41:19Z</time>
      </trkpt>
      <trkpt lat="48.61192" lon="2.0833">
        <ele>130</ele>
        <time>2018-08-18T07:41:23Z</time>
      </trkpt>
      <trkpt lat="48.61195" lon="2.08323">
        <ele>130</ele>
        <time>2018-08-18T07:41:27Z</time>
      </trkpt>
      <trkpt lat="48.61199" lon="2.08315">
        <ele>132</ele>
        <time>2018-08-18T07:41:31Z</time>
      </trkpt>
      <trkpt lat="48.61203" lon="2.08306">
        <ele>134</ele>
        <time>2018-08-18T07:41:35Z</time>
      </trkpt>
      <trkpt lat="48.61206" lon="2.08298">
        <ele>134</ele>
        <time>2018-08-18T07:41:39Z</time>
      </trkpt>
      <trkpt lat="48.6121" lon="2.0829">
        <ele>134</ele>
        <time>2018-08-18T07:41:43Z</time>
      </trkpt>
      <trkpt lat="48.61212" lon="2.08282">
        <ele>133</ele>
        <time>2018-08-18T07:41:47Z</time>
      </trkpt>
      <trkpt lat="48.61214" lon="2.08272">
        <ele>132</ele>
        <time>2018-08-18T07:41:51Z</time>
      </trkpt>
      <trkpt lat="48.61217" lon="2.08263">
        <ele>132</ele>
        <time>2018-08-18T07:41:55Z</time>
      </trkpt>
      <trkpt lat="48.61221" lon="2.08254">
        <ele>132</ele>
        <time>2018-08-18T07:42:00Z</time>
      </trkpt>
      <trkpt lat="48.61224" lon="2.08244">
        <ele>132</ele>
        <time>2018-08-18T07:42:04Z</time>
      </trkpt>
      <trkpt lat="48.61226" lon="2.08235">
        <ele>131</ele>
        <time>2018-08-18T07:42:08Z</time>
      </trkpt>
      <trkpt lat="48.61228" lon="2.08228">
        <ele>129</ele>
        <time>2018-08-18T07:42:12Z</time>
      </trkpt>
      <trkpt lat="48.6123" lon="2.08223">
        <ele>129</ele>
        <time>2018-08-18T07:42:16Z</time>
      </trkpt>
      <trkpt lat="48.61231" lon="2.08218">
        <ele>129</ele>
        <time>2018-08-18T07:42:20Z</time>
      </trkpt>
      <trkpt lat="48.61232" lon="2.08214">
        <ele>129</ele>
        <time>2018-08-18T07:42:25Z</time>
      </trkpt>
      <trkpt lat="48.61234" lon="2.08206">
        <ele>129</ele>
        <time>2018-08-18T07:42:29Z</time>
      </trkpt>
      <trkpt lat="48.61235" lon="2.08195">
        <ele>129</ele>
        <time>2018-08-18T07:42:34Z</time>
      </trkpt>
      <trkpt lat="48.61234" lon="2.08187">
        <ele>129</ele>
        <time>2018-08-18T07:42:38Z</time>
      </trkpt>
      <trkpt lat="48.61232" lon="2.0818">
        <ele>129</ele>
        <time>2018-08-18T07:42:42Z</time>
      </trkpt>
      <trkpt lat="48.61229" lon="2.08171">
        <ele>127</ele>
        <time>2018-08-18T07:42:46Z</time>
      </trkpt>
      <trkpt lat="48.61227" lon="2.08162">
        <ele>124</ele>
        <time>2018-08-18T07:42:50Z</time>
      </trkpt>
      <trkpt lat="48.61224" lon="2.08154">
        <ele>122</ele>
        <time>2018-08-18T07:42:55Z</time>
      </trkpt>
      <trkpt lat="48.61222" lon="2.08147">
        <ele>121</ele>
        <time>2018-08-18T07:42:59Z</time>
      </trkpt>
      <trkpt lat="48.61219" lon="2.08138">
        <ele>120</ele>
        <time>2018-08-18T07:43:03Z</time>
      </trkpt>
      <trkpt lat="48.61217" lon="2.08129">
        <ele>120</ele>
        <time>2018-08-18T07:43:07Z</time>
      </trkpt>
      <trkpt lat="48.61215" lon="2.08118">
        <ele>120</ele>
        <time>2018-08-18T07:43:12Z</time>
      </trkpt>
      <trkpt lat="48.61214" lon="2.08111">
        <ele>120</ele>
        <time>2018-08-18T07:43:16Z</time>
      </trkpt>
      <trkpt lat="48.61211" lon="2.08103">
        <ele>120</ele>
        <time>2018-08-18T07:43:21Z</time>
      </trkpt>
      <trkpt lat="48.61209" lon="2.08091">
        <ele>120</ele>
        <time>2018-08-18T07:43:25Z</time>
      </trkpt>
      <trkpt lat="48.61208" lon="2.08083">
        <ele>121</ele>
        <time>2018-08-18T07:43:29Z</time>
      </trkpt>
      <trkpt lat="48.61208" lon="2.08075">
        <ele>123</ele>
        <time>2018-08-18T07:43:33Z</time>
      </trkpt>
      <trkpt lat="48.61207" lon="2.08067">
        <ele>124</ele>
        <time>2018-08-18T07:43:38Z</time>
      </trkpt>
      <trkpt lat="48.61207" lon="2.08058">
        <ele>124</ele>
        <time>2018-08-18T07:43:43Z</time>
      </trkpt>
      <trkpt lat="48.61206" lon="2.08046">
        <ele>122</ele>
        <time>2018-08-18T07:43:48Z</time>
      </trkpt>
      <trkpt lat="48.61205" lon="2.08037">
        <ele>120</ele>
        <time>2018-08-18T07:43:52Z</time>
      </trkpt>
      <trkpt lat="48.61203" lon="2.08028">
        <ele>118</ele>
        <time>2018-08-18T07:43:56Z</time>
      </trkpt>
      <trkpt lat="48.61201" lon="2.08016">
        <ele>118</ele>
        <time>2018-08-18T07:44:01Z</time>
      </trkpt>
      <trkpt lat="48.612" lon="2.08007">
        <ele>118</ele>
        <time>2018-08-18T07:44:05Z</time>
      </trkpt>
      <trkpt lat="48.61197" lon="2.07999">
        <ele>118</ele>
        <time>2018-08-18T07:44:09Z</time>
      </trkpt>
      <trkpt lat="48.61195" lon="2.07991">
        <ele>116</ele>
        <time>2018-08-18T07:44:13Z</time>
      </trkpt>
      <trkpt lat="48.61194" lon="2.07983">
        <ele>116</ele>
        <time>2018-08-18T07:44:17Z</time>
      </trkpt>
      <trkpt lat="48.61191" lon="2.07976">
        <ele>114</ele>
        <time>2018-08-18T07:44:21Z</time>
      </trkpt>
      <trkpt lat="48.61188" lon="2.07967">
        <ele>112</ele>
        <time>2018-08-18T07:44:26Z</time>
      </trkpt>
      <trkpt lat="48.61186" lon="2.07959">
        <ele>111</ele>
        <time>2018-08-18T07:44:30Z</time>
      </trkpt>
      <trkpt lat="48.61183" lon="2.07949">
        <ele>110</ele>
        <time>2018-08-18T07:44:35Z</time>
      </trkpt>
      <trkpt lat="48.61181" lon="2.07941">
        <ele>110</ele>
        <time>2018-08-18T07:44:39Z</time>
      </trkpt>
      <trkpt lat="48.61178" lon="2.07932">
        <ele>110</ele>
        <time>2018-08-18T07:44:43Z</time>
      </trkpt>
      <trkpt lat="48.61177" lon="2.0793">
        <ele>112</ele>
        <time>2018-08-18T07:44:49Z</time>
      </trkpt>
      <trkpt lat="48.61177" lon="2.0793">
        <ele>117</ele>
        <time>2018-08-18T07:44:57Z</time>
      </trkpt>
      <trkpt lat="48.61179" lon="2.07931">
        <ele>122</ele>
        <time>2018-08-18T07:45:10Z</time>
      </trkpt>
      <trkpt lat="48.61179" lon="2.07929">
        <ele>123</ele>
        <time>2018-08-18T07:45:14Z</time>
      </trkpt>
      <trkpt lat="48.61176" lon="2.07928">
        <ele>123</ele>
        <time>2018-08-18T07:45:27Z</time>
      </trkpt>
      <trkpt lat="48.61176" lon="2.0793">
        <ele>123</ele>
        <time>2018-08-18T07:45:36Z</time>
      </trkpt>
      <trkpt lat="48.61177" lon="2.07929">
        <ele>125</ele>
        <time>2018-08-18T07:45:57Z</time>
      </trkpt>
      <trkpt lat="48.61176" lon="2.07925">
        <ele>114</ele>
        <time>2018-08-18T07:46:18Z</time>
      </trkpt>
      <trkpt lat="48.61177" lon="2.07925">
        <ele>111</ele>
        <time>2018-08-18T07:46:24Z</time>
      </trkpt>
      <trkpt lat="48.61178" lon="2.07928">
        <ele>111</ele>
        <time>2018-08-18T07:46:29Z</time>
      </trkpt>
      <trkpt lat="48.61177" lon="2.07927">
        <ele>114</ele>
        <time>2018-08-18T07:46:36Z</time>
      </trkpt>
      <trkpt lat="48.61177" lon="2.07929">
        <ele>114</ele>
        <time>2018-08-18T07:46:40Z</time>
      </trkpt>
      <trkpt lat="48.61176" lon="2.07932">
        <ele>117</ele>
        <time>2018-08-18T07:46:46Z</time>
      </trkpt>
      <trkpt lat="48.61177" lon="2.07934">
        <ele>117</ele>
        <time>2018-08-18T07:46:53Z</time>
      </trkpt>
      <trkpt lat="48.61179" lon="2.07934">
        <ele>122</ele>
        <time>2018-08-18T07:47:01Z</time>
      </trkpt>
      <trkpt lat="48.6118" lon="2.07936">
        <ele>122</ele>
        <time>2018-08-18T07:47:12Z</time>
      </trkpt>
      <trkpt lat="48.61181" lon="2.07938">
        <ele>122</ele>
        <time>2018-08-18T07:47:23Z</time>
      </trkpt>
      <trkpt lat="48.61182" lon="2.07936">
        <ele>121</ele>
        <time>2018-08-18T07:47:32Z</time>
      </trkpt>
      <trkpt lat="48.61182" lon="2.07934">
        <ele>121</ele>
        <time>2018-08-18T07:47:39Z</time>
      </trkpt>
      <trkpt lat="48.61179" lon="2.07932">
        <ele>120</ele>
        <time>2018-08-18T07:47:43Z</time>
      </trkpt>
      <trkpt lat="48.61175" lon="2.07926">
        <ele>120</ele>
        <time>2018-08-18T07:47:48Z</time>
      </trkpt>
      <trkpt lat="48.61173" lon="2.07922">
        <ele>120</ele>
        <time>2018-08-18T07:47:53Z</time>
      </trkpt>
      <trkpt lat="48.61174" lon="2.07921">
        <ele>120</ele>
        <time>2018-08-18T07:47:57Z</time>
      </trkpt>
      <trkpt lat="48.61173" lon="2.07919">
        <ele>121</ele>
        <time>2018-08-18T07:48:06Z</time>
      </trkpt>
      <trkpt lat="48.61171" lon="2.07919">
        <ele>123</ele>
        <time>2018-08-18T07:48:10Z</time>
      </trkpt>
      <trkpt lat="48.61171" lon="2.07917">
        <ele>129</ele>
        <time>2018-08-18T07:48:23Z</time>
      </trkpt>
      <trkpt lat="48.61173" lon="2.07917">
        <ele>129</ele>
        <time>2018-08-18T07:48:30Z</time>
      </trkpt>
      <trkpt lat="48.61173" lon="2.07917">
        <ele>129</ele>
        <time>2018-08-18T07:48:44Z</time>
      </trkpt>
      <trkpt lat="48.61169" lon="2.07911">
        <ele>129</ele>
        <time>2018-08-18T07:48:48Z</time>
      </trkpt>
      <trkpt lat="48.61167" lon="2.07906">
        <ele>129</ele>
        <time>2018-08-18T07:48:52Z</time>
      </trkpt>
      <trkpt lat="48.61165" lon="2.07899">
        <ele>129</ele>
        <time>2018-08-18T07:48:56Z</time>
      </trkpt>
      <trkpt lat="48.61163" lon="2.07893">
        <ele>129</ele>
        <time>2018-08-18T07:49:01Z</time>
      </trkpt>
      <trkpt lat="48.61161" lon="2.07886">
        <ele>128</ele>
        <time>2018-08-18T07:49:05Z</time>
      </trkpt>
      <trkpt lat="48.61158" lon="2.07879">
        <ele>128</ele>
        <time>2018-08-18T07:49:11Z</time>
      </trkpt>
      <trkpt lat="48.61155" lon="2.0787">
        <ele>126</ele>
        <time>2018-08-18T07:49:16Z</time>
      </trkpt>
      <trkpt lat="48.61153" lon="2.07862">
        <ele>126</ele>
        <time>2018-08-18T07:49:20Z</time>
      </trkpt>
      <trkpt lat="48.6115" lon="2.07855">
        <ele>123</ele>
        <time>2018-08-18T07:49:24Z</time>
      </trkpt>
      <trkpt lat="48.61148" lon="2.07847">
        <ele>122</ele>
        <time>2018-08-18T07:49:28Z</time>
      </trkpt>
      <trkpt lat="48.61144" lon="2.07839">
        <ele>121</ele>
        <time>2018-08-18T07:49:33Z</time>
      </trkpt>
      <trkpt lat="48.61139" lon="2.07834">
        <ele>120</ele>
        <time>2018-08-18T07:49:37Z</time>
      </trkpt>
      <trkpt lat="48.61135" lon="2.07829">
        <ele>120</ele>
        <time>2018-08-18T07:49:41Z</time>
      </trkpt>
      <trkpt lat="48.61132" lon="2.07825">
        <ele>120</ele>
        <time>2018-08-18T07:49:45Z</time>
      </trkpt>
      <trkpt lat="48.61128" lon="2.07821">
        <ele>118</ele>
        <time>2018-08-18T07:49:49Z</time>
      </trkpt>
      <trkpt lat="48.61121" lon="2.07816">
        <ele>117</ele>
        <time>2018-08-18T07:49:54Z</time>
      </trkpt>
      <trkpt lat="48.61118" lon="2.07812">
        <ele>117</ele>
        <time>2018-08-18T07:49:58Z</time>
      </trkpt>
      <trkpt lat="48.61113" lon="2.07809">
        <ele>117</ele>
        <time>2018-08-18T07:50:02Z</time>
      </trkpt>
      <trkpt lat="48.61108" lon="2.07804">
        <ele>116</ele>
        <time>2018-08-18T07:50:06Z</time>
      </trkpt>
      <trkpt lat="48.61104" lon="2.078">
        <ele>114</ele>
        <time>2018-08-18T07:50:10Z</time>
      </trkpt>
      <trkpt lat="48.611" lon="2.07797">
        <ele>113</ele>
        <time>2018-08-18T07:50:14Z</time>
      </trkpt>
      <trkpt lat="48.61096" lon="2.07793">
        <ele>111</ele>
        <time>2018-08-18T07:50:18Z</time>
      </trkpt>
      <trkpt lat="48.61092" lon="2.07788">
        <ele>108</ele>
        <time>2018-08-18T07:50:22Z</time>
      </trkpt>
      <trkpt lat="48.61087" lon="2.07783">
        <ele>108</ele>
        <time>2018-08-18T07:50:26Z</time>
      </trkpt>
      <trkpt lat="48.61083" lon="2.07778">
        <ele>106</ele>
        <time>2018-08-18T07:50:30Z</time>
      </trkpt>
      <trkpt lat="48.61077" lon="2.07773">
        <ele>105</ele>
        <time>2018-08-18T07:50:35Z</time>
      </trkpt>
      <trkpt lat="48.61071" lon="2.0777">
        <ele>105</ele>
        <time>2018-08-18T07:50:40Z</time>
      </trkpt>
      <trkpt lat="48.61066" lon="2.07767">
        <ele>105</ele>
        <time>2018-08-18T07:50:44Z</time>
      </trkpt>
      <trkpt lat="48.6106" lon="2.07763">
        <ele>107</ele>
        <time>2018-08-18T07:50:49Z</time>
      </trkpt>
      <trkpt lat="48.61059" lon="2.07761">
        <ele>108</ele>
        <time>2018-08-18T07:50:54Z</time>
      </trkpt>
      <trkpt lat="48.6106" lon="2.07763">
        <ele>114</ele>
        <time>2018-08-18T07:51:06Z</time>
      </trkpt>
      <trkpt lat="48.6106" lon="2.07761">
        <ele>114</ele>
        <time>2018-08-18T07:51:12Z</time>
      </trkpt>
      <trkpt lat="48.61059" lon="2.07761">
        <ele>114</ele>
        <time>2018-08-18T07:51:19Z</time>
      </trkpt>
      <trkpt lat="48.61055" lon="2.07757">
        <ele>115</ele>
        <time>2018-08-18T07:51:23Z</time>
      </trkpt>
      <trkpt lat="48.61052" lon="2.07754">
        <ele>115</ele>
        <time>2018-08-18T07:51:27Z</time>
      </trkpt>
      <trkpt lat="48.61049" lon="2.07751">
        <ele>115</ele>
        <time>2018-08-18T07:51:31Z</time>
      </trkpt>
      <trkpt lat="48.61044" lon="2.07747">
        <ele>115</ele>
        <time>2018-08-18T07:51:35Z</time>
      </trkpt>
      <trkpt lat="48.61038" lon="2.07741">
        <ele>115</ele>
        <time>2018-08-18T07:51:39Z</time>
      </trkpt>
      <trkpt lat="48.61033" lon="2.07733">
        <ele>115</ele>
        <time>2018-08-18T07:51:44Z</time>
      </trkpt>
      <trkpt lat="48.61029" lon="2.07727">
        <ele>115</ele>
        <time>2018-08-18T07:51:48Z</time>
      </trkpt>
      <trkpt lat="48.61025" lon="2.07722">
        <ele>115</ele>
        <time>2018-08-18T07:51:52Z</time>
      </trkpt>
      <trkpt lat="48.6102" lon="2.07717">
        <ele>115</ele>
        <time>2018-08-18T07:51:56Z</time>
      </trkpt>
      <trkpt lat="48.61014" lon="2.07712">
        <ele>115</ele>
        <time>2018-08-18T07:52:00Z</time>
      </trkpt>
      <trkpt lat="48.6101" lon="2.07706">
        <ele>115</ele>
        <time>2018-08-18T07:52:04Z</time>
      </trkpt>
      <trkpt lat="48.61004" lon="2.07699">
        <ele>115</ele>
        <time>2018-08-18T07:52:08Z</time>
      </trkpt>
      <trkpt lat="48.60999" lon="2.07692">
        <ele>115</ele>
        <time>2018-08-18T07:52:12Z</time>
      </trkpt>
      <trkpt lat="48.60994" lon="2.07686">
        <ele>115</ele>
        <time>2018-08-18T07:52:16Z</time>
      </trkpt>
      <trkpt lat="48.60989" lon="2.0768">
        <ele>115</ele>
        <time>2018-08-18T07:52:20Z</time>
      </trkpt>
      <trkpt lat="48.60983" lon="2.07672">
        <ele>115</ele>
        <time>2018-08-18T07:52:24Z</time>
      </trkpt>
      <trkpt lat="48.60978" lon="2.07666">
        <ele>115</ele>
        <time>2018-08-18T07:52:28Z</time>
      </trkpt>
      <trkpt lat="48.60973" lon="2.0766">
        <ele>115</ele>
        <time>2018-08-18T07:52:32Z</time>
      </trkpt>
      <trkpt lat="48.60969" lon="2.07652">
        <ele>115</ele>
        <time>2018-08-18T07:52:36Z</time>
      </trkpt>
      <trkpt lat="48.60964" lon="2.07646">
        <ele>115</ele>
        <time>2018-08-18T07:52:40Z</time>
      </trkpt>
      <trkpt lat="48.6096" lon="2.07639">
        <ele>115</ele>
        <time>2018-08-18T07:52:44Z</time>
      </trkpt>
      <trkpt lat="48.60955" lon="2.07633">
        <ele>115</ele>
        <time>2018-08-18T07:52:48Z</time>
      </trkpt>
      <trkpt lat="48.60951" lon="2.07627">
        <ele>115</ele>
        <time>2018-08-18T07:52:52Z</time>
      </trkpt>
      <trkpt lat="48.60945" lon="2.07622">
        <ele>115</ele>
        <time>2018-08-18T07:52:56Z</time>
      </trkpt>
      <trkpt lat="48.6094" lon="2.07617">
        <ele>115</ele>
        <time>2018-08-18T07:53:00Z</time>
      </trkpt>
      <trkpt lat="48.60935" lon="2.07612">
        <ele>115</ele>
        <time>2018-08-18T07:53:04Z</time>
      </trkpt>
      <trkpt lat="48.6093" lon="2.07609">
        <ele>115</ele>
        <time>2018-08-18T07:53:08Z</time>
      </trkpt>
      <trkpt lat="48.60925" lon="2.07606">
        <ele>115</ele>
        <time>2018-08-18T07:53:12Z</time>
      </trkpt>
      <trkpt lat="48.60919" lon="2.07603">
        <ele>115</ele>
        <time>2018-08-18T07:53:16Z</time>
      </trkpt>
      <trkpt lat="48.60914" lon="2.07601">
        <ele>115</ele>
        <time>2018-08-18T07:53:20Z</time>
      </trkpt>
      <trkpt lat="48.60908" lon="2.07599">
        <ele>115</ele>
        <time>2018-08-18T07:53:24Z</time>
      </trkpt>
      <trkpt lat="48.60902" lon="2.07596">
        <ele>115</ele>
        <time>2018-08-18T07:53:28Z</time>
      </trkpt>
      <trkpt lat="48.60897" lon="2.07593">
        <ele>115</ele>
        <time>2018-08-18T07:53:33Z</time>
      </trkpt>
      <trkpt lat="48.6089" lon="2.0759">
        <ele>115</ele>
        <time>2018-08-18T07:53:37Z</time>
      </trkpt>
      <trkpt lat="48.60884" lon="2.07588">
        <ele>115</ele>
        <time>2018-08-18T07:53:41Z</time>
      </trkpt>
      <trkpt lat="48.60877" lon="2.07585">
        <ele>115</ele>
        <time>2018-08-18T07:53:45Z</time>
      </trkpt>
      <trkpt lat="48.60871" lon="2.07583">
        <ele>115</ele>
        <time>2018-08-18T07:53:49Z</time>
      </trkpt>
      <trkpt lat="48.60866" lon="2.07581">
        <ele>115</ele>
        <time>2018-08-18T07:53:53Z</time>
      </trkpt>
      <trkpt lat="48.6086" lon="2.07579">
        <ele>115</ele>
        <time>2018-08-18T07:53:57Z</time>
      </trkpt>
      <trkpt lat="48.60855" lon="2.07576">
        <ele>114</ele>
        <time>2018-08-18T07:54:01Z</time>
      </trkpt>
      <trkpt lat="48.6085" lon="2.07573">
        <ele>114</ele>
        <time>2018-08-18T07:54:05Z</time>
      </trkpt>
      <trkpt lat="48.60844" lon="2.07571">
        <ele>114</ele>
        <time>2018-08-18T07:54:09Z</time>
      </trkpt>
      <trkpt lat="48.60842" lon="2.07571">
        <ele>114</ele>
        <time>2018-08-18T07:54:20Z</time>
      </trkpt>
      <trkpt lat="48.6084" lon="2.07572">
        <ele>114</ele>
        <time>2018-08-18T07:54:25Z</time>
      </trkpt>
      <trkpt lat="48.60835" lon="2.07569">
        <ele>114</ele>
        <time>2018-08-18T07:54:29Z</time>
      </trkpt>
      <trkpt lat="48.60829" lon="2.07567">
        <ele>114</ele>
        <time>2018-08-18T07:54:33Z</time>
      </trkpt>
      <trkpt lat="48.60823" lon="2.07564">
        <ele>114</ele>
        <time>2018-08-18T07:54:37Z</time>
      </trkpt>
      <trkpt lat="48.60817" lon="2.07561">
        <ele>114</ele>
        <time>2018-08-18T07:54:41Z</time>
      </trkpt>
      <trkpt lat="48.60812" lon="2.0756">
        <ele>113</ele>
        <time>2018-08-18T07:54:45Z</time>
      </trkpt>
      <trkpt lat="48.60806" lon="2.07557">
        <ele>113</ele>
        <time>2018-08-18T07:54:49Z</time>
      </trkpt>
      <trkpt lat="48.608" lon="2.07555">
        <ele>113</ele>
        <time>2018-08-18T07:54:53Z</time>
      </trkpt>
      <trkpt lat="48.60794" lon="2.07552">
        <ele>112</ele>
        <time>2018-08-18T07:54:57Z</time>
      </trkpt>
      <trkpt lat="48.60789" lon="2.0755">
        <ele>112</ele>
        <time>2018-08-18T07:55:01Z</time>
      </trkpt>
      <trkpt lat="48.60783" lon="2.07547">
        <ele>112</ele>
        <time>2018-08-18T07:55:05Z</time>
      </trkpt>
      <trkpt lat="48.60778" lon="2.07545">
        <ele>111</ele>
        <time>2018-08-18T07:55:09Z</time>
      </trkpt>
      <trkpt lat="48.60772" lon="2.07543">
        <ele>111</ele>
        <time>2018-08-18T07:55:13Z</time>
      </trkpt>
      <trkpt lat="48.60767" lon="2.0754">
        <ele>111</ele>
        <time>2018-08-18T07:55:17Z</time>
      </trkpt>
      <trkpt lat="48.60761" lon="2.07538">
        <ele>110</ele>
        <time>2018-08-18T07:55:21Z</time>
      </trkpt>
      <trkpt lat="48.60756" lon="2.07535">
        <ele>110</ele>
        <time>2018-08-18T07:55:25Z</time>
      </trkpt>
      <trkpt lat="48.6075" lon="2.07533">
        <ele>109</ele>
        <time>2018-08-18T07:55:29Z</time>
      </trkpt>
      <trkpt lat="48.60745" lon="2.0753">
        <ele>109</ele>
        <time>2018-08-18T07:55:33Z</time>
      </trkpt>
      <trkpt lat="48.6074" lon="2.07528">
        <ele>108</ele>
        <time>2018-08-18T07:55:37Z</time>
      </trkpt>
      <trkpt lat="48.60734" lon="2.07526">
        <ele>108</ele>
        <time>2018-08-18T07:55:41Z</time>
      </trkpt>
      <trkpt lat="48.60729" lon="2.07524">
        <ele>108</ele>
        <time>2018-08-18T07:55:45Z</time>
      </trkpt>
      <trkpt lat="48.60723" lon="2.07522">
        <ele>108</ele>
        <time>2018-08-18T07:55:49Z</time>
      </trkpt>
      <trkpt lat="48.60718" lon="2.07519">
        <ele>107</ele>
        <time>2018-08-18T07:55:53Z</time>
      </trkpt>
      <trkpt lat="48.60712" lon="2.07517">
        <ele>107</ele>
        <time>2018-08-18T07:55:57Z</time>
      </trkpt>
      <trkpt lat="48.60707" lon="2.07515">
        <ele>107</ele>
        <time>2018-08-18T07:56:01Z</time>
      </trkpt>
      <trkpt lat="48.60701" lon="2.07513">
        <ele>107</ele>
        <time>2018-08-18T07:56:05Z</time>
      </trkpt>
      <trkpt lat="48.60696" lon="2.07511">
        <ele>106</ele>
        <time>2018-08-18T07:56:09Z</time>
      </trkpt>
      <trkpt lat="48.60691" lon="2.07509">
        <ele>106</ele>
        <time>2018-08-18T07:56:13Z</time>
      </trkpt>
      <trkpt lat="48.60686" lon="2.07507">
        <ele>106</ele>
        <time>2018-08-18T07:56:17Z</time>
      </trkpt>
      <trkpt lat="48.6068" lon="2.07505">
        <ele>106</ele>
        <time>2018-08-18T07:56:21Z</time>
      </trkpt>
      <trkpt lat="48.60675" lon="2.07503">
        <ele>106</ele>
        <time>2018-08-18T07:56:25Z</time>
      </trkpt>
      <trkpt lat="48.6067" lon="2.07501">
        <ele>106</ele>
        <time>2018-08-18T07:56:29Z</time>
      </trkpt>
      <trkpt lat="48.60665" lon="2.07499">
        <ele>105</ele>
        <time>2018-08-18T07:56:33Z</time>
      </trkpt>
      <trkpt lat="48.6066" lon="2.07498">
        <ele>104</ele>
        <time>2018-08-18T07:56:37Z</time>
      </trkpt>
      <trkpt lat="48.60655" lon="2.07496">
        <ele>104</ele>
        <time>2018-08-18T07:56:41Z</time>
      </trkpt>
      <trkpt lat="48.6065" lon="2.07494">
        <ele>104</ele>
        <time>2018-08-18T07:56:45Z</time>
      </trkpt>
      <trkpt lat="48.60645" lon="2.07493">
        <ele>104</ele>
        <time>2018-08-18T07:56:49Z</time>
      </trkpt>
      <trkpt lat="48.6064" lon="2.07491">
        <ele>104</ele>
        <time>2018-08-18T07:56:53Z</time>
      </trkpt>
      <trkpt lat="48.60635" lon="2.07489">
        <ele>104</ele>
        <time>2018-08-18T07:56:57Z</time>
      </trkpt>
      <trkpt lat="48.6063" lon="2.07488">
        <ele>104</ele>
        <time>2018-08-18T07:57:02Z</time>
      </trkpt>
      <trkpt lat="48.60627" lon="2.07488">
        <ele>104</ele>
        <time>2018-08-18T07:57:07Z</time>
      </trkpt>
      <trkpt lat="48.60627" lon="2.0749">
        <ele>104</ele>
        <time>2018-08-18T07:57:17Z</time>
      </trkpt>
      <trkpt lat="48.60624" lon="2.0749">
        <ele>107</ele>
        <time>2018-08-18T07:57:36Z</time>
      </trkpt>
      <trkpt lat="48.60619" lon="2.07488">
        <ele>107</ele>
        <time>2018-08-18T07:57:40Z</time>
      </trkpt>
      <trkpt lat="48.60613" lon="2.07485">
        <ele>107</ele>
        <time>2018-08-18T07:57:45Z</time>
      </trkpt>
      <trkpt lat="48.60608" lon="2.07483">
        <ele>107</ele>
        <time>2018-08-18T07:57:50Z</time>
      </trkpt>
      <trkpt lat="48.60604" lon="2.0748">
        <ele>107</ele>
        <time>2018-08-18T07:57:54Z</time>
      </trkpt>
      <trkpt lat="48.60598" lon="2.07479">
        <ele>107</ele>
        <time>2018-08-18T07:57:58Z</time>
      </trkpt>
      <trkpt lat="48.60592" lon="2.07477">
        <ele>107</ele>
        <time>2018-08-18T07:58:02Z</time>
      </trkpt>
      <trkpt lat="48.60587" lon="2.07475">
        <ele>107</ele>
        <time>2018-08-18T07:58:06Z</time>
      </trkpt>
      <trkpt lat="48.60581" lon="2.07473">
        <ele>107</ele>
        <time>2018-08-18T07:58:10Z</time>
      </trkpt>
      <trkpt lat="48.60575" lon="2.07471">
        <ele>107</ele>
        <time>2018-08-18T07:58:14Z</time>
      </trkpt>
      <trkpt lat="48.60569" lon="2.07469">
        <ele>107</ele>
        <time>2018-08-18T07:58:18Z</time>
      </trkpt>
      <trkpt lat="48.60564" lon="2.07467">
        <ele>107</ele>
        <time>2018-08-18T07:58:22Z</time>
      </trkpt>
      <trkpt lat="48.60558" lon="2.07465">
        <ele>107</ele>
        <time>2018-08-18T07:58:26Z</time>
      </trkpt>
      <trkpt lat="48.60552" lon="2.07463">
        <ele>107</ele>
        <time>2018-08-18T07:58:30Z</time>
      </trkpt>
      <trkpt lat="48.60547" lon="2.07461">
        <ele>107</ele>
        <time>2018-08-18T07:58:34Z</time>
      </trkpt>
      <trkpt lat="48.60541" lon="2.07459">
        <ele>107</ele>
        <time>2018-08-18T07:58:38Z</time>
      </trkpt>
      <trkpt lat="48.60535" lon="2.07456">
        <ele>107</ele>
        <time>2018-08-18T07:58:42Z</time>
      </trkpt>
      <trkpt lat="48.6053" lon="2.07454">
        <ele>107</ele>
        <time>2018-08-18T07:58:46Z</time>
      </trkpt>
      <trkpt lat="48.60524" lon="2.07452">
        <ele>107</ele>
        <time>2018-08-18T07:58:50Z</time>
      </trkpt>
      <trkpt lat="48.60519" lon="2.07449">
        <ele>107</ele>
        <time>2018-08-18T07:58:54Z</time>
      </trkpt>
      <trkpt lat="48.60514" lon="2.07446">
        <ele>107</ele>
        <time>2018-08-18T07:58:58Z</time>
      </trkpt>
      <trkpt lat="48.60508" lon="2.07444">
        <ele>107</ele>
        <time>2018-08-18T07:59:02Z</time>
      </trkpt>
      <trkpt lat="48.60503" lon="2.07442">
        <ele>107</ele>
        <time>2018-08-18T07:59:06Z</time>
      </trkpt>
      <trkpt lat="48.60498" lon="2.07439">
        <ele>107</ele>
        <time>2018-08-18T07:59:10Z</time>
      </trkpt>
      <trkpt lat="48.60492" lon="2.07437">
        <ele>106</ele>
        <time>2018-08-18T07:59:15Z</time>
      </trkpt>
      <trkpt lat="48.60486" lon="2.07437">
        <ele>106</ele>
        <time>2018-08-18T07:59:19Z</time>
      </trkpt>
      <trkpt lat="48.60482" lon="2.07433">
        <ele>106</ele>
        <time>2018-08-18T07:59:23Z</time>
      </trkpt>
      <trkpt lat="48.6048" lon="2.07428">
        <ele>106</ele>
        <time>2018-08-18T07:59:27Z</time>
      </trkpt>
      <trkpt lat="48.60479" lon="2.07421">
        <ele>106</ele>
        <time>2018-08-18T07:59:31Z</time>
      </trkpt>
      <trkpt lat="48.60479" lon="2.07415">
        <ele>106</ele>
        <time>2018-08-18T07:59:36Z</time>
      </trkpt>
      <trkpt lat="48.60478" lon="2.0741">
        <ele>106</ele>
        <time>2018-08-18T07:59:40Z</time>
      </trkpt>
      <trkpt lat="48.60477" lon="2.07406">
        <ele>107</ele>
        <time>2018-08-18T07:59:44Z</time>
      </trkpt>
      <trkpt lat="48.60477" lon="2.07403">
        <ele>107</ele>
        <time>2018-08-18T07:59:49Z</time>
      </trkpt>
      <trkpt lat="48.60476" lon="2.07395">
        <ele>108</ele>
        <time>2018-08-18T07:59:53Z</time>
      </trkpt>
      <trkpt lat="48.60475" lon="2.07387">
        <ele>108</ele>
        <time>2018-08-18T07:59:57Z</time>
      </trkpt>
      <trkpt lat="48.60476" lon="2.0738">
        <ele>108</ele>
        <time>2018-08-18T08:00:03Z</time>
      </trkpt>
      <trkpt lat="48.60476" lon="2.07374">
        <ele>108</ele>
        <time>2018-08-18T08:00:07Z</time>
      </trkpt>
      <trkpt lat="48.60476" lon="2.07365">
        <ele>108</ele>
        <time>2018-08-18T08:00:11Z</time>
      </trkpt>
      <trkpt lat="48.60475" lon="2.07356">
        <ele>108</ele>
        <time>2018-08-18T08:00:15Z</time>
      </trkpt>
      <trkpt lat="48.60475" lon="2.07348">
        <ele>108</ele>
        <time>2018-08-18T08:00:20Z</time>
      </trkpt>
      <trkpt lat="48.60475" lon="2.07343">
        <ele>108</ele>
        <time>2018-08-18T08:00:25Z</time>
      </trkpt>
      <trkpt lat="48.60474" lon="2.07335">
        <ele>108</ele>
        <time>2018-08-18T08:00:29Z</time>
      </trkpt>
      <trkpt lat="48.60474" lon="2.07326">
        <ele>108</ele>
        <time>2018-08-18T08:00:33Z</time>
      </trkpt>
      <trkpt lat="48.60473" lon="2.07317">
        <ele>108</ele>
        <time>2018-08-18T08:00:37Z</time>
      </trkpt>
      <trkpt lat="48.60472" lon="2.07308">
        <ele>108</ele>
        <time>2018-08-18T08:00:41Z</time>
      </trkpt>
      <trkpt lat="48.60471" lon="2.07299">
        <ele>108</ele>
        <time>2018-08-18T08:00:45Z</time>
      </trkpt>
      <trkpt lat="48.60471" lon="2.0729">
        <ele>108</ele>
        <time>2018-08-18T08:00:49Z</time>
      </trkpt>
      <trkpt lat="48.6047" lon="2.07282">
        <ele>108</ele>
        <time>2018-08-18T08:00:53Z</time>
      </trkpt>
      <trkpt lat="48.6047" lon="2.07275">
        <ele>108</ele>
        <time>2018-08-18T08:00:57Z</time>
      </trkpt>
      <trkpt lat="48.6047" lon="2.07269">
        <ele>108</ele>
        <time>2018-08-18T08:01:01Z</time>
      </trkpt>
      <trkpt lat="48.60469" lon="2.07263">
        <ele>108</ele>
        <time>2018-08-18T08:01:05Z</time>
      </trkpt>
      <trkpt lat="48.6047" lon="2.07256">
        <ele>108</ele>
        <time>2018-08-18T08:01:09Z</time>
      </trkpt>
      <trkpt lat="48.60471" lon="2.07248">
        <ele>108</ele>
        <time>2018-08-18T08:01:13Z</time>
      </trkpt>
      <trkpt lat="48.6047" lon="2.07239">
        <ele>108</ele>
        <time>2018-08-18T08:01:17Z</time>
      </trkpt>
      <trkpt lat="48.60469" lon="2.07231">
        <ele>108</ele>
        <time>2018-08-18T08:01:21Z</time>
      </trkpt>
      <trkpt lat="48.60468" lon="2.07223">
        <ele>108</ele>
        <time>2018-08-18T08:01:25Z</time>
      </trkpt>
      <trkpt lat="48.60468" lon="2.07217">
        <ele>108</ele>
        <time>2018-08-18T08:01:30Z</time>
      </trkpt>
      <trkpt lat="48.60466" lon="2.0721">
        <ele>108</ele>
        <time>2018-08-18T08:01:34Z</time>
      </trkpt>
      <trkpt lat="48.60465" lon="2.07201">
        <ele>108</ele>
        <time>2018-08-18T08:01:38Z</time>
      </trkpt>
      <trkpt lat="48.60463" lon="2.07192">
        <ele>108</ele>
        <time>2018-08-18T08:01:42Z</time>
      </trkpt>
      <trkpt lat="48.60464" lon="2.07183">
        <ele>108</ele>
        <time>2018-08-18T08:01:46Z</time>
      </trkpt>
      <trkpt lat="48.60464" lon="2.07174">
        <ele>108</ele>
        <time>2018-08-18T08:01:50Z</time>
      </trkpt>
      <trkpt lat="48.60465" lon="2.07165">
        <ele>108</ele>
        <time>2018-08-18T08:01:54Z</time>
      </trkpt>
      <trkpt lat="48.60463" lon="2.07156">
        <ele>108</ele>
        <time>2018-08-18T08:01:58Z</time>
      </trkpt>
      <trkpt lat="48.60463" lon="2.07151">
        <ele>108</ele>
        <time>2018-08-18T08:02:02Z</time>
      </trkpt>
      <trkpt lat="48.60463" lon="2.07143">
        <ele>108</ele>
        <time>2018-08-18T08:02:07Z</time>
      </trkpt>
      <trkpt lat="48.60462" lon="2.07135">
        <ele>108</ele>
        <time>2018-08-18T08:02:11Z</time>
      </trkpt>
      <trkpt lat="48.60461" lon="2.07126">
        <ele>108</ele>
        <time>2018-08-18T08:02:15Z</time>
      </trkpt>
      <trkpt lat="48.60461" lon="2.07118">
        <ele>108</ele>
        <time>2018-08-18T08:02:19Z</time>
      </trkpt>
      <trkpt lat="48.60462" lon="2.07111">
        <ele>108</ele>
        <time>2018-08-18T08:02:23Z</time>
      </trkpt>
      <trkpt lat="48.60461" lon="2.07102">
        <ele>108</ele>
        <time>2018-08-18T08:02:27Z</time>
      </trkpt>
      <trkpt lat="48.60461" lon="2.07094">
        <ele>108</ele>
        <time>2018-08-18T08:02:31Z</time>
      </trkpt>
      <trkpt lat="48.6046" lon="2.07085">
        <ele>108</ele>
        <time>2018-08-18T08:02:35Z</time>
      </trkpt>
      <trkpt lat="48.60459" lon="2.07077">
        <ele>108</ele>
        <time>2018-08-18T08:02:39Z</time>
      </trkpt>
      <trkpt lat="48.60459" lon="2.07069">
        <ele>108</ele>
        <time>2018-08-18T08:02:43Z</time>
      </trkpt>
      <trkpt lat="48.6046" lon="2.0706">
        <ele>108</ele>
        <time>2018-08-18T08:02:47Z</time>
      </trkpt>
      <trkpt lat="48.60461" lon="2.07052">
        <ele>108</ele>
        <time>2018-08-18T08:02:51Z</time>
      </trkpt>
      <trkpt lat="48.60464" lon="2.07044">
        <ele>108</ele>
        <time>2018-08-18T08:02:55Z</time>
      </trkpt>
      <trkpt lat="48.60467" lon="2.07037">
        <ele>108</ele>
        <time>2018-08-18T08:02:59Z</time>
      </trkpt>
      <trkpt lat="48.6047" lon="2.0703">
        <ele>108</ele>
        <time>2018-08-18T08:03:03Z</time>
      </trkpt>
      <trkpt lat="48.60474" lon="2.07021">
        <ele>108</ele>
        <time>2018-08-18T08:03:08Z</time>
      </trkpt>
      <trkpt lat="48.60478" lon="2.07013">
        <ele>108</ele>
        <time>2018-08-18T08:03:13Z</time>
      </trkpt>
      <trkpt lat="48.60482" lon="2.07005">
        <ele>108</ele>
        <time>2018-08-18T08:03:18Z</time>
      </trkpt>
      <trkpt lat="48.60486" lon="2.06998">
        <ele>108</ele>
        <time>2018-08-18T08:03:23Z</time>
      </trkpt>
      <trkpt lat="48.60487" lon="2.06994">
        <ele>108</ele>
        <time>2018-08-18T08:03:44Z</time>
      </trkpt>
      <trkpt lat="48.60487" lon="2.06991">
        <ele>109</ele>
        <time>2018-08-18T08:03:58Z</time>
      </trkpt>
      <trkpt lat="48.60489" lon="2.06984">
        <ele>109</ele>
        <time>2018-08-18T08:04:02Z</time>
      </trkpt>
      <trkpt lat="48.60491" lon="2.06977">
        <ele>109</ele>
        <time>2018-08-18T08:04:06Z</time>
      </trkpt>
      <trkpt lat="48.60494" lon="2.06969">
        <ele>109</ele>
        <time>2018-08-18T08:04:10Z</time>
      </trkpt>
      <trkpt lat="48.60495" lon="2.06962">
        <ele>109</ele>
        <time>2018-08-18T08:04:14Z</time>
      </trkpt>
      <trkpt lat="48.60498" lon="2.06955">
        <ele>109</ele>
        <time>2018-08-18T08:04:18Z</time>
      </trkpt>
      <trkpt lat="48.60499" lon="2.06948">
        <ele>109</ele>
        <time>2018-08-18T08:04:22Z</time>
      </trkpt>
      <trkpt lat="48.605" lon="2.0694">
        <ele>109</ele>
        <time>2018-08-18T08:04:26Z</time>
      </trkpt>
      <trkpt lat="48.60502" lon="2.06932">
        <ele>109</ele>
        <time>2018-08-18T08:04:30Z</time>
      </trkpt>
      <trkpt lat="48.60504" lon="2.06924">
        <ele>109</ele>
        <time>2018-08-18T08:04:34Z</time>
      </trkpt>
      <trkpt lat="48.60506" lon="2.06917">
        <ele>109</ele>
        <time>2018-08-18T08:04:38Z</time>
      </trkpt>
      <trkpt lat="48.60508" lon="2.06909">
        <ele>109</ele>
        <time>2018-08-18T08:04:42Z</time>
      </trkpt>
      <trkpt lat="48.60511" lon="2.069">
        <ele>109</ele>
        <time>2018-08-18T08:04:47Z</time>
      </trkpt>
      <trkpt lat="48.60512" lon="2.06893">
        <ele>109</ele>
        <time>2018-08-18T08:04:51Z</time>
      </trkpt>
      <trkpt lat="48.60514" lon="2.06885">
        <ele>109</ele>
        <time>2018-08-18T08:04:55Z</time>
      </trkpt>
      <trkpt lat="48.60516" lon="2.06878">
        <ele>109</ele>
        <time>2018-08-18T08:04:59Z</time>
      </trkpt>
      <trkpt lat="48.60518" lon="2.06869">
        <ele>109</ele>
        <time>2018-08-18T08:05:03Z</time>
      </trkpt>
      <trkpt lat="48.60519" lon="2.06861">
        <ele>109</ele>
        <time>2018-08-18T08:05:07Z</time>
      </trkpt>
      <trkpt lat="48.60521" lon="2.06854">
        <ele>109</ele>
        <time>2018-08-18T08:05:11Z</time>
      </trkpt>
      <trkpt lat="48.60523" lon="2.06846">
        <ele>109</ele>
        <time>2018-08-18T08:05:15Z</time>
      </trkpt>
      <trkpt lat="48.60525" lon="2.06839">
        <ele>108</ele>
        <time>2018-08-18T08:05:19Z</time>
      </trkpt>
      <trkpt lat="48.60528" lon="2.06832">
        <ele>108</ele>
        <time>2018-08-18T08:05:23Z</time>
      </trkpt>
      <trkpt lat="48.60531" lon="2.06825">
        <ele>108</ele>
        <time>2018-08-18T08:05:27Z</time>
      </trkpt>
      <trkpt lat="48.60535" lon="2.06818">
        <ele>108</ele>
        <time>2018-08-18T08:05:31Z</time>
      </trkpt>
      <trkpt lat="48.60538" lon="2.06811">
        <ele>108</ele>
        <time>2018-08-18T08:05:35Z</time>
      </trkpt>
      <trkpt lat="48.60541" lon="2.06803">
        <ele>108</ele>
        <time>2018-08-18T08:05:39Z</time>
      </trkpt>
      <trkpt lat="48.60544" lon="2.06795">
        <ele>108</ele>
        <time>2018-08-18T08:05:43Z</time>
      </trkpt>
      <trkpt lat="48.60547" lon="2.06787">
        <ele>108</ele>
        <time>2018-08-18T08:05:47Z</time>
      </trkpt>
      <trkpt lat="48.6055" lon="2.06779">
        <ele>108</ele>
        <time>2018-08-18T08:05:51Z</time>
      </trkpt>
      <trkpt lat="48.60552" lon="2.06769">
        <ele>108</ele>
        <time>2018-08-18T08:05:55Z</time>
      </trkpt>
      <trkpt lat="48.60554" lon="2.06761">
        <ele>108</ele>
        <time>2018-08-18T08:05:59Z</time>
      </trkpt>
      <trkpt lat="48.60556" lon="2.06751">
        <ele>108</ele>
        <time>2018-08-18T08:06:03Z</time>
      </trkpt>
      <trkpt lat="48.60558" lon="2.06742">
        <ele>108</ele>
        <time>2018-08-18T08:06:07Z</time>
      </trkpt>
      <trkpt lat="48.6056" lon="2.06734">
        <ele>108</ele>
        <time>2018-08-18T08:06:11Z</time>
      </trkpt>
      <trkpt lat="48.60563" lon="2.06725">
        <ele>108</ele>
        <time>2018-08-18T08:06:15Z</time>
      </trkpt>
      <trkpt lat="48.60566" lon="2.06717">
        <ele>108</ele>
        <time>2018-08-18T08:06:19Z</time>
      </trkpt>
      <trkpt lat="48.60569" lon="2.0671">
        <ele>108</ele>
        <time>2018-08-18T08:06:23Z</time>
      </trkpt>
      <trkpt lat="48.60572" lon="2.06704">
        <ele>108</ele>
        <time>2018-08-18T08:06:27Z</time>
      </trkpt>
      <trkpt lat="48.60573" lon="2.06701">
        <ele>108</ele>
        <time>2018-08-18T08:06:33Z</time>
      </trkpt>
      <trkpt lat="48.60576" lon="2.06694">
        <ele>108</ele>
        <time>2018-08-18T08:06:37Z</time>
      </trkpt>
      <trkpt lat="48.60577" lon="2.06687">
        <ele>108</ele>
        <time>2018-08-18T08:06:41Z</time>
      </trkpt>
      <trkpt lat="48.60579" lon="2.06679">
        <ele>108</ele>
        <time>2018-08-18T08:06:45Z</time>
      </trkpt>
      <trkpt lat="48.60581" lon="2.06672">
        <ele>107</ele>
        <time>2018-08-18T08:06:49Z</time>
      </trkpt>
      <trkpt lat="48.60581" lon="2.06664">
        <ele>107</ele>
        <time>2018-08-18T08:06:53Z</time>
      </trkpt>
      <trkpt lat="48.60583" lon="2.06658">
        <ele>107</ele>
        <time>2018-08-18T08:06:57Z</time>
      </trkpt>
      <trkpt lat="48.60585" lon="2.0665">
        <ele>107</ele>
        <time>2018-08-18T08:07:01Z</time>
      </trkpt>
      <trkpt lat="48.60585" lon="2.0664">
        <ele>106</ele>
        <time>2018-08-18T08:07:05Z</time>
      </trkpt>
      <trkpt lat="48.60587" lon="2.06631">
        <ele>106</ele>
        <time>2018-08-18T08:07:09Z</time>
      </trkpt>
      <trkpt lat="48.60589" lon="2.0662">
        <ele>106</ele>
        <time>2018-08-18T08:07:13Z</time>
      </trkpt>
      <trkpt lat="48.60591" lon="2.0661">
        <ele>106</ele>
        <time>2018-08-18T08:07:17Z</time>
      </trkpt>
      <trkpt lat="48.60593" lon="2.06601">
        <ele>106</ele>
        <time>2018-08-18T08:07:22Z</time>
      </trkpt>
      <trkpt lat="48.60595" lon="2.06592">
        <ele>106</ele>
        <time>2018-08-18T08:07:26Z</time>
      </trkpt>
      <trkpt lat="48.60597" lon="2.06582">
        <ele>106</ele>
        <time>2018-08-18T08:07:30Z</time>
      </trkpt>
      <trkpt lat="48.60598" lon="2.06572">
        <ele>106</ele>
        <time>2018-08-18T08:07:34Z</time>
      </trkpt>
      <trkpt lat="48.60599" lon="2.06563">
        <ele>106</ele>
        <time>2018-08-18T08:07:38Z</time>
      </trkpt>
      <trkpt lat="48.606" lon="2.06554">
        <ele>106</ele>
        <time>2018-08-18T08:07:42Z</time>
      </trkpt>
      <trkpt lat="48.60605" lon="2.06546">
        <ele>106</ele>
        <time>2018-08-18T08:07:47Z</time>
      </trkpt>
      <trkpt lat="48.60608" lon="2.0654">
        <ele>106</ele>
        <time>2018-08-18T08:07:51Z</time>
      </trkpt>
      <trkpt lat="48.6061" lon="2.06534">
        <ele>106</ele>
        <time>2018-08-18T08:07:55Z</time>
      </trkpt>
      <trkpt lat="48.60611" lon="2.06527">
        <ele>106</ele>
        <time>2018-08-18T08:07:59Z</time>
      </trkpt>
      <trkpt lat="48.60614" lon="2.06519">
        <ele>106</ele>
        <time>2018-08-18T08:08:04Z</time>
      </trkpt>
      <trkpt lat="48.60617" lon="2.06513">
        <ele>106</ele>
        <time>2018-08-18T08:08:08Z</time>
      </trkpt>
      <trkpt lat="48.6062" lon="2.06504">
        <ele>107</ele>
        <time>2018-08-18T08:08:12Z</time>
      </trkpt>
      <trkpt lat="48.60624" lon="2.06495">
        <ele>108</ele>
        <time>2018-08-18T08:08:17Z</time>
      </trkpt>
      <trkpt lat="48.60627" lon="2.06488">
        <ele>109</ele>
        <time>2018-08-18T08:08:21Z</time>
      </trkpt>
      <trkpt lat="48.6063" lon="2.06481">
        <ele>109</ele>
        <time>2018-08-18T08:08:25Z</time>
      </trkpt>
      <trkpt lat="48.60634" lon="2.06473">
        <ele>109</ele>
        <time>2018-08-18T08:08:29Z</time>
      </trkpt>
      <trkpt lat="48.60639" lon="2.06465">
        <ele>109</ele>
        <time>2018-08-18T08:08:34Z</time>
      </trkpt>
      <trkpt lat="48.60642" lon="2.06459">
        <ele>109</ele>
        <time>2018-08-18T08:08:38Z</time>
      </trkpt>
      <trkpt lat="48.60644" lon="2.06453">
        <ele>109</ele>
        <time>2018-08-18T08:08:42Z</time>
      </trkpt>
      <trkpt lat="48.60647" lon="2.06446">
        <ele>109</ele>
        <time>2018-08-18T08:08:46Z</time>
      </trkpt>
      <trkpt lat="48.60651" lon="2.06439">
        <ele>109</ele>
        <time>2018-08-18T08:08:50Z</time>
      </trkpt>
      <trkpt lat="48.60654" lon="2.06432">
        <ele>109</ele>
        <time>2018-08-18T08:08:54Z</time>
      </trkpt>
      <trkpt lat="48.60657" lon="2.06423">
        <ele>109</ele>
        <time>2018-08-18T08:08:58Z</time>
      </trkpt>
      <trkpt lat="48.60661" lon="2.06416">
        <ele>109</ele>
        <time>2018-08-18T08:09:02Z</time>
      </trkpt>
      <trkpt lat="48.60664" lon="2.06409">
        <ele>109</ele>
        <time>2018-08-18T08:09:06Z</time>
      </trkpt>
      <trkpt lat="48.60667" lon="2.06402">
        <ele>109</ele>
        <time>2018-08-18T08:09:10Z</time>
      </trkpt>
      <trkpt lat="48.60669" lon="2.06393">
        <ele>109</ele>
        <time>2018-08-18T08:09:14Z</time>
      </trkpt>
      <trkpt lat="48.60672" lon="2.06385">
        <ele>109</ele>
        <time>2018-08-18T08:09:18Z</time>
      </trkpt>
      <trkpt lat="48.60676" lon="2.06378">
        <ele>109</ele>
        <time>2018-08-18T08:09:23Z</time>
      </trkpt>
      <trkpt lat="48.6068" lon="2.06371">
        <ele>109</ele>
        <time>2018-08-18T08:09:28Z</time>
      </trkpt>
      <trkpt lat="48.60683" lon="2.06363">
        <ele>109</ele>
        <time>2018-08-18T08:09:32Z</time>
      </trkpt>
      <trkpt lat="48.60687" lon="2.06357">
        <ele>109</ele>
        <time>2018-08-18T08:09:36Z</time>
      </trkpt>
      <trkpt lat="48.6069" lon="2.06353">
        <ele>109</ele>
        <time>2018-08-18T08:09:40Z</time>
      </trkpt>
      <trkpt lat="48.60693" lon="2.06346">
        <ele>109</ele>
        <time>2018-08-18T08:09:44Z</time>
      </trkpt>
      <trkpt lat="48.60696" lon="2.06341">
        <ele>109</ele>
        <time>2018-08-18T08:09:48Z</time>
      </trkpt>
      <trkpt lat="48.607" lon="2.06333">
        <ele>109</ele>
        <time>2018-08-18T08:09:52Z</time>
      </trkpt>
      <trkpt lat="48.60703" lon="2.06325">
        <ele>109</ele>
        <time>2018-08-18T08:09:56Z</time>
      </trkpt>
      <trkpt lat="48.60706" lon="2.06318">
        <ele>109</ele>
        <time>2018-08-18T08:10:00Z</time>
      </trkpt>
      <trkpt lat="48.60709" lon="2.06311">
        <ele>109</ele>
        <time>2018-08-18T08:10:04Z</time>
      </trkpt>
      <trkpt lat="48.60712" lon="2.06306">
        <ele>109</ele>
        <time>2018-08-18T08:10:08Z</time>
      </trkpt>
      <trkpt lat="48.60715" lon="2.06302">
        <ele>109</ele>
        <time>2018-08-18T08:10:12Z</time>
      </trkpt>
      <trkpt lat="48.60718" lon="2.06296">
        <ele>109</ele>
        <time>2018-08-18T08:10:16Z</time>
      </trkpt>
      <trkpt lat="48.60721" lon="2.06289">
        <ele>109</ele>
        <time>2018-08-18T08:10:20Z</time>
      </trkpt>
      <trkpt lat="48.60724" lon="2.06282">
        <ele>109</ele>
        <time>2018-08-18T08:10:24Z</time>
      </trkpt>
      <trkpt lat="48.60727" lon="2.06275">
        <ele>109</ele>
        <time>2018-08-18T08:10:28Z</time>
      </trkpt>
      <trkpt lat="48.60727" lon="2.06267">
        <ele>109</ele>
        <time>2018-08-18T08:10:32Z</time>
      </trkpt>
      <trkpt lat="48.60728" lon="2.0626">
        <ele>109</ele>
        <time>2018-08-18T08:10:36Z</time>
      </trkpt>
      <trkpt lat="48.60726" lon="2.06252">
        <ele>109</ele>
        <time>2018-08-18T08:10:40Z</time>
      </trkpt>
      <trkpt lat="48.60722" lon="2.06246">
        <ele>109</ele>
        <time>2018-08-18T08:10:44Z</time>
      </trkpt>
      <trkpt lat="48.60717" lon="2.06243">
        <ele>109</ele>
        <time>2018-08-18T08:10:48Z</time>
      </trkpt>
      <trkpt lat="48.60712" lon="2.06239">
        <ele>109</ele>
        <time>2018-08-18T08:10:52Z</time>
      </trkpt>
      <trkpt lat="48.60708" lon="2.06237">
        <ele>108</ele>
        <time>2018-08-18T08:10:56Z</time>
      </trkpt>
      <trkpt lat="48.60703" lon="2.06234">
        <ele>107</ele>
        <time>2018-08-18T08:11:00Z</time>
      </trkpt>
      <trkpt lat="48.60697" lon="2.06232">
        <ele>104</ele>
        <time>2018-08-18T08:11:05Z</time>
      </trkpt>
      <trkpt lat="48.60692" lon="2.06231">
        <ele>103</ele>
        <time>2018-08-18T08:11:09Z</time>
      </trkpt>
      <trkpt lat="48.60688" lon="2.0623">
        <ele>102</ele>
        <time>2018-08-18T08:11:13Z</time>
      </trkpt>
      <trkpt lat="48.60683" lon="2.06229">
        <ele>101</ele>
        <time>2018-08-18T08:11:17Z</time>
      </trkpt>
      <trkpt lat="48.60678" lon="2.06226">
        <ele>101</ele>
        <time>2018-08-18T08:11:21Z</time>
      </trkpt>
      <trkpt lat="48.60671" lon="2.06224">
        <ele>100</ele>
        <time>2018-08-18T08:11:25Z</time>
      </trkpt>
      <trkpt lat="48.60664" lon="2.06222">
        <ele>99</ele>
        <time>2018-08-18T08:11:29Z</time>
      </trkpt>
      <trkpt lat="48.60659" lon="2.06218">
        <ele>99</ele>
        <time>2018-08-18T08:11:33Z</time>
      </trkpt>
      <trkpt lat="48.60653" lon="2.06216">
        <ele>99</ele>
        <time>2018-08-18T08:11:38Z</time>
      </trkpt>
      <trkpt lat="48.60647" lon="2.06215">
        <ele>99</ele>
        <time>2018-08-18T08:11:42Z</time>
      </trkpt>
      <trkpt lat="48.60642" lon="2.06213">
        <ele>99</ele>
        <time>2018-08-18T08:11:46Z</time>
      </trkpt>
      <trkpt lat="48.60636" lon="2.06211">
        <ele>99</ele>
        <time>2018-08-18T08:11:50Z</time>
      </trkpt>
      <trkpt lat="48.6063" lon="2.06207">
        <ele>99</ele>
        <time>2018-08-18T08:11:55Z</time>
      </trkpt>
      <trkpt lat="48.60624" lon="2.06206">
        <ele>99</ele>
        <time>2018-08-18T08:11:59Z</time>
      </trkpt>
      <trkpt lat="48.60619" lon="2.06204">
        <ele>99</ele>
        <time>2018-08-18T08:12:03Z</time>
      </trkpt>
      <trkpt lat="48.60614" lon="2.06202">
        <ele>99</ele>
        <time>2018-08-18T08:12:07Z</time>
      </trkpt>
      <trkpt lat="48.60607" lon="2.062">
        <ele>99</ele>
        <time>2018-08-18T08:12:11Z</time>
      </trkpt>
      <trkpt lat="48.60601" lon="2.06198">
        <ele>99</ele>
        <time>2018-08-18T08:12:15Z</time>
      </trkpt>
      <trkpt lat="48.60596" lon="2.06196">
        <ele>99</ele>
        <time>2018-08-18T08:12:19Z</time>
      </trkpt>
      <trkpt lat="48.6059" lon="2.06195">
        <ele>99</ele>
        <time>2018-08-18T08:12:23Z</time>
      </trkpt>
      <trkpt lat="48.60585" lon="2.06194">
        <ele>99</ele>
        <time>2018-08-18T08:12:27Z</time>
      </trkpt>
      <trkpt lat="48.6058" lon="2.06192">
        <ele>99</ele>
        <time>2018-08-18T08:12:31Z</time>
      </trkpt>
      <trkpt lat="48.60574" lon="2.06191">
        <ele>98</ele>
        <time>2018-08-18T08:12:35Z</time>
      </trkpt>
      <trkpt lat="48.60569" lon="2.06189">
        <ele>97</ele>
        <time>2018-08-18T08:12:39Z</time>
      </trkpt>
      <trkpt lat="48.60563" lon="2.06186">
        <ele>97</ele>
        <time>2018-08-18T08:12:43Z</time>
      </trkpt>
      <trkpt lat="48.60557" lon="2.06186">
        <ele>97</ele>
        <time>2018-08-18T08:12:47Z</time>
      </trkpt>
      <trkpt lat="48.60551" lon="2.06185">
        <ele>97</ele>
        <time>2018-08-18T08:12:51Z</time>
      </trkpt>
      <trkpt lat="48.60545" lon="2.06185">
        <ele>97</ele>
        <time>2018-08-18T08:12:55Z</time>
      </trkpt>
      <trkpt lat="48.6054" lon="2.06184">
        <ele>97</ele>
        <time>2018-08-18T08:12:59Z</time>
      </trkpt>
      <trkpt lat="48.60534" lon="2.06182">
        <ele>97</ele>
        <time>2018-08-18T08:13:03Z</time>
      </trkpt>
      <trkpt lat="48.60529" lon="2.06179">
        <ele>97</ele>
        <time>2018-08-18T08:13:07Z</time>
      </trkpt>
      <trkpt lat="48.60524" lon="2.06177">
        <ele>98</ele>
        <time>2018-08-18T08:13:11Z</time>
      </trkpt>
      <trkpt lat="48.60519" lon="2.06177">
        <ele>98</ele>
        <time>2018-08-18T08:13:15Z</time>
      </trkpt>
      <trkpt lat="48.60513" lon="2.06175">
        <ele>99</ele>
        <time>2018-08-18T08:13:19Z</time>
      </trkpt>
      <trkpt lat="48.60508" lon="2.06173">
        <ele>99</ele>
        <time>2018-08-18T08:13:23Z</time>
      </trkpt>
      <trkpt lat="48.60502" lon="2.06169">
        <ele>99</ele>
        <time>2018-08-18T08:13:27Z</time>
      </trkpt>
      <trkpt lat="48.60496" lon="2.06166">
        <ele>99</ele>
        <time>2018-08-18T08:13:31Z</time>
      </trkpt>
      <trkpt lat="48.60491" lon="2.06165">
        <ele>99</ele>
        <time>2018-08-18T08:13:35Z</time>
      </trkpt>
      <trkpt lat="48.60485" lon="2.06162">
        <ele>99</ele>
        <time>2018-08-18T08:13:39Z</time>
      </trkpt>
      <trkpt lat="48.6048" lon="2.06159">
        <ele>99</ele>
        <time>2018-08-18T08:13:43Z</time>
      </trkpt>
      <trkpt lat="48.60474" lon="2.06159">
        <ele>99</ele>
        <time>2018-08-18T08:13:47Z</time>
      </trkpt>
      <trkpt lat="48.60469" lon="2.0616">
        <ele>98</ele>
        <time>2018-08-18T08:13:52Z</time>
      </trkpt>
      <trkpt lat="48.60463" lon="2.06161">
        <ele>98</ele>
        <time>2018-08-18T08:13:56Z</time>
      </trkpt>
      <trkpt lat="48.60457" lon="2.06164">
        <ele>96</ele>
        <time>2018-08-18T08:14:01Z</time>
      </trkpt>
      <trkpt lat="48.60452" lon="2.06166">
        <ele>95</ele>
        <time>2018-08-18T08:14:05Z</time>
      </trkpt>
      <trkpt lat="48.60443" lon="2.06171">
        <ele>94</ele>
        <time>2018-08-18T08:14:09Z</time>
      </trkpt>
      <trkpt lat="48.60433" lon="2.06176">
        <ele>91</ele>
        <time>2018-08-18T08:14:13Z</time>
      </trkpt>
      <trkpt lat="48.60422" lon="2.06181">
        <ele>89</ele>
        <time>2018-08-18T08:14:17Z</time>
      </trkpt>
      <trkpt lat="48.6041" lon="2.06185">
        <ele>86</ele>
        <time>2018-08-18T08:14:21Z</time>
      </trkpt>
      <trkpt lat="48.60399" lon="2.06182">
        <ele>84</ele>
        <time>2018-08-18T08:14:25Z</time>
      </trkpt>
      <trkpt lat="48.60389" lon="2.06174">
        <ele>81</ele>
        <time>2018-08-18T08:14:29Z</time>
      </trkpt>
      <trkpt lat="48.60378" lon="2.06169">
        <ele>80</ele>
        <time>2018-08-18T08:14:33Z</time>
      </trkpt>
      <trkpt lat="48.60366" lon="2.06157">
        <ele>82</ele>
        <time>2018-08-18T08:14:37Z</time>
      </trkpt>
      <trkpt lat="48.60355" lon="2.06143">
        <ele>82</ele>
        <time>2018-08-18T08:14:41Z</time>
      </trkpt>
      <trkpt lat="48.60347" lon="2.06126">
        <ele>83</ele>
        <time>2018-08-18T08:14:45Z</time>
      </trkpt>
      <trkpt lat="48.6034" lon="2.06108">
        <ele>87</ele>
        <time>2018-08-18T08:14:49Z</time>
      </trkpt>
      <trkpt lat="48.60331" lon="2.06093">
        <ele>91</ele>
        <time>2018-08-18T08:14:53Z</time>
      </trkpt>
      <trkpt lat="48.60321" lon="2.06084">
        <ele>92</ele>
        <time>2018-08-18T08:14:57Z</time>
      </trkpt>
      <trkpt lat="48.6031" lon="2.06084">
        <ele>92</ele>
        <time>2018-08-18T08:15:01Z</time>
      </trkpt>
      <trkpt lat="48.60301" lon="2.06087">
        <ele>92</ele>
        <time>2018-08-18T08:15:05Z</time>
      </trkpt>
      <trkpt lat="48.60289" lon="2.0609">
        <ele>92</ele>
        <time>2018-08-18T08:15:09Z</time>
      </trkpt>
      <trkpt lat="48.60276" lon="2.06091">
        <ele>91</ele>
        <time>2018-08-18T08:15:13Z</time>
      </trkpt>
      <trkpt lat="48.60261" lon="2.06096">
        <ele>91</ele>
        <time>2018-08-18T08:15:17Z</time>
      </trkpt>
      <trkpt lat="48.60248" lon="2.06099">
        <ele>88</ele>
        <time>2018-08-18T08:15:21Z</time>
      </trkpt>
      <trkpt lat="48.60233" lon="2.061">
        <ele>88</ele>
        <time>2018-08-18T08:15:25Z</time>
      </trkpt>
      <trkpt lat="48.6022" lon="2.06105">
        <ele>85</ele>
        <time>2018-08-18T08:15:29Z</time>
      </trkpt>
      <trkpt lat="48.6021" lon="2.06109">
        <ele>84</ele>
        <time>2018-08-18T08:15:33Z</time>
      </trkpt>
      <trkpt lat="48.60197" lon="2.06114">
        <ele>83</ele>
        <time>2018-08-18T08:15:37Z</time>
      </trkpt>
      <trkpt lat="48.60185" lon="2.06119">
        <ele>82</ele>
        <time>2018-08-18T08:15:41Z</time>
      </trkpt>
      <trkpt lat="48.60171" lon="2.06123">
        <ele>81</ele>
        <time>2018-08-18T08:15:45Z</time>
      </trkpt>
      <trkpt lat="48.60157" lon="2.0613">
        <ele>80</ele>
        <time>2018-08-18T08:15:49Z</time>
      </trkpt>
      <trkpt lat="48.60143" lon="2.06134">
        <ele>77</ele>
        <time>2018-08-18T08:15:53Z</time>
      </trkpt>
      <trkpt lat="48.6013" lon="2.06139">
        <ele>74</ele>
        <time>2018-08-18T08:15:57Z</time>
      </trkpt>
      <trkpt lat="48.60117" lon="2.06144">
        <ele>74</ele>
        <time>2018-08-18T08:16:01Z</time>
      </trkpt>
      <trkpt lat="48.60104" lon="2.06152">
        <ele>74</ele>
        <time>2018-08-18T08:16:05Z</time>
      </trkpt>
      <trkpt lat="48.60096" lon="2.06158">
        <ele>74</ele>
        <time>2018-08-18T08:16:09Z</time>
      </trkpt>
      <trkpt lat="48.60085" lon="2.06161">
        <ele>74</ele>
        <time>2018-08-18T08:16:13Z</time>
      </trkpt>
      <trkpt lat="48.60075" lon="2.06152">
        <ele>74</ele>
        <time>2018-08-18T08:16:17Z</time>
      </trkpt>
      <trkpt lat="48.60068" lon="2.06139">
        <ele>77</ele>
        <time>2018-08-18T08:16:21Z</time>
      </trkpt>
      <trkpt lat="48.6006" lon="2.06125">
        <ele>81</ele>
        <time>2018-08-18T08:16:25Z</time>
      </trkpt>
      <trkpt lat="48.60054" lon="2.06108">
        <ele>85</ele>
        <time>2018-08-18T08:16:29Z</time>
      </trkpt>
      <trkpt lat="48.60048" lon="2.0609">
        <ele>89</ele>
        <time>2018-08-18T08:16:33Z</time>
      </trkpt>
      <trkpt lat="48.60041" lon="2.06072">
        <ele>93</ele>
        <time>2018-08-18T08:16:37Z</time>
      </trkpt>
      <trkpt lat="48.60035" lon="2.06055">
        <ele>97</ele>
        <time>2018-08-18T08:16:41Z</time>
      </trkpt>
      <trkpt lat="48.60029" lon="2.06038">
        <ele>99</ele>
        <time>2018-08-18T08:16:45Z</time>
      </trkpt>
      <trkpt lat="48.60023" lon="2.06022">
        <ele>102</ele>
        <time>2018-08-18T08:16:49Z</time>
      </trkpt>
      <trkpt lat="48.60017" lon="2.06007">
        <ele>104</ele>
        <time>2018-08-18T08:16:53Z</time>
      </trkpt>
      <trkpt lat="48.60011" lon="2.05991">
        <ele>105</ele>
        <time>2018-08-18T08:16:57Z</time>
      </trkpt>
      <trkpt lat="48.60005" lon="2.05973">
        <ele>107</ele>
        <time>2018-08-18T08:17:01Z</time>
      </trkpt>
      <trkpt lat="48.59999" lon="2.05957">
        <ele>108</ele>
        <time>2018-08-18T08:17:05Z</time>
      </trkpt>
      <trkpt lat="48.59994" lon="2.0594">
        <ele>109</ele>
        <time>2018-08-18T08:17:09Z</time>
      </trkpt>
      <trkpt lat="48.5999" lon="2.05923">
        <ele>109</ele>
        <time>2018-08-18T08:17:13Z</time>
      </trkpt>
      <trkpt lat="48.59984" lon="2.05906">
        <ele>109</ele>
        <time>2018-08-18T08:17:17Z</time>
      </trkpt>
      <trkpt lat="48.59979" lon="2.05889">
        <ele>109</ele>
        <time>2018-08-18T08:17:21Z</time>
      </trkpt>
      <trkpt lat="48.59974" lon="2.05871">
        <ele>110</ele>
        <time>2018-08-18T08:17:25Z</time>
      </trkpt>
      <trkpt lat="48.59969" lon="2.05852">
        <ele>112</ele>
        <time>2018-08-18T08:17:29Z</time>
      </trkpt>
      <trkpt lat="48.59963" lon="2.05834">
        <ele>113</ele>
        <time>2018-08-18T08:17:33Z</time>
      </trkpt>
      <trkpt lat="48.59965" lon="2.05815">
        <ele>115</ele>
        <time>2018-08-18T08:17:37Z</time>
      </trkpt>
      <trkpt lat="48.59973" lon="2.05802">
        <ele>116</ele>
        <time>2018-08-18T08:17:41Z</time>
      </trkpt>
      <trkpt lat="48.59983" lon="2.05793">
        <ele>118</ele>
        <time>2018-08-18T08:17:45Z</time>
      </trkpt>
      <trkpt lat="48.59993" lon="2.05784">
        <ele>119</ele>
        <time>2018-08-18T08:17:49Z</time>
      </trkpt>
      <trkpt lat="48.60003" lon="2.05774">
        <ele>120</ele>
        <time>2018-08-18T08:17:53Z</time>
      </trkpt>
      <trkpt lat="48.60012" lon="2.05763">
        <ele>120</ele>
        <time>2018-08-18T08:17:57Z</time>
      </trkpt>
      <trkpt lat="48.60021" lon="2.05755">
        <ele>121</ele>
        <time>2018-08-18T08:18:01Z</time>
      </trkpt>
      <trkpt lat="48.60031" lon="2.05747">
        <ele>121</ele>
        <time>2018-08-18T08:18:05Z</time>
      </trkpt>
      <trkpt lat="48.60041" lon="2.05737">
        <ele>121</ele>
        <time>2018-08-18T08:18:09Z</time>
      </trkpt>
      <trkpt lat="48.6005" lon="2.05727">
        <ele>121</ele>
        <time>2018-08-18T08:18:13Z</time>
      </trkpt>
      <trkpt lat="48.60059" lon="2.05715">
        <ele>121</ele>
        <time>2018-08-18T08:18:17Z</time>
      </trkpt>
      <trkpt lat="48.60067" lon="2.05702">
        <ele>121</ele>
        <time>2018-08-18T08:18:21Z</time>
      </trkpt>
      <trkpt lat="48.60077" lon="2.05693">
        <ele>121</ele>
        <time>2018-08-18T08:18:25Z</time>
      </trkpt>
      <trkpt lat="48.60085" lon="2.05682">
        <ele>121</ele>
        <time>2018-08-18T08:18:29Z</time>
      </trkpt>
      <trkpt lat="48.60094" lon="2.05668">
        <ele>121</ele>
        <time>2018-08-18T08:18:33Z</time>
      </trkpt>
      <trkpt lat="48.60103" lon="2.05659">
        <ele>121</ele>
        <time>2018-08-18T08:18:37Z</time>
      </trkpt>
      <trkpt lat="48.6011" lon="2.05654">
        <ele>121</ele>
        <time>2018-08-18T08:18:41Z</time>
      </trkpt>
      <trkpt lat="48.60115" lon="2.05653">
        <ele>121</ele>
        <time>2018-08-18T08:18:45Z</time>
      </trkpt>
      <trkpt lat="48.6012" lon="2.05647">
        <ele>121</ele>
        <time>2018-08-18T08:18:50Z</time>
      </trkpt>
      <trkpt lat="48.60124" lon="2.05643">
        <ele>121</ele>
        <time>2018-08-18T08:18:54Z</time>
      </trkpt>
      <trkpt lat="48.60128" lon="2.05637">
        <ele>121</ele>
        <time>2018-08-18T08:18:58Z</time>
      </trkpt>
      <trkpt lat="48.60129" lon="2.05626">
        <ele>121</ele>
        <time>2018-08-18T08:19:02Z</time>
      </trkpt>
      <trkpt lat="48.6013" lon="2.05616">
        <ele>121</ele>
        <time>2018-08-18T08:19:06Z</time>
      </trkpt>
      <trkpt lat="48.60132" lon="2.05608">
        <ele>122</ele>
        <time>2018-08-18T08:19:10Z</time>
      </trkpt>
      <trkpt lat="48.60133" lon="2.056">
        <ele>123</ele>
        <time>2018-08-18T08:19:14Z</time>
      </trkpt>
      <trkpt lat="48.60127" lon="2.05597">
        <ele>123</ele>
        <time>2018-08-18T08:19:18Z</time>
      </trkpt>
      <trkpt lat="48.60122" lon="2.056">
        <ele>123</ele>
        <time>2018-08-18T08:19:22Z</time>
      </trkpt>
      <trkpt lat="48.60118" lon="2.05607">
        <ele>123</ele>
        <time>2018-08-18T08:19:27Z</time>
      </trkpt>
      <trkpt lat="48.60112" lon="2.05611">
        <ele>123</ele>
        <time>2018-08-18T08:19:32Z</time>
      </trkpt>
      <trkpt lat="48.60107" lon="2.05616">
        <ele>121</ele>
        <time>2018-08-18T08:19:36Z</time>
      </trkpt>
      <trkpt lat="48.60103" lon="2.05618">
        <ele>120</ele>
        <time>2018-08-18T08:19:41Z</time>
      </trkpt>
      <trkpt lat="48.601" lon="2.05614">
        <ele>120</ele>
        <time>2018-08-18T08:19:45Z</time>
      </trkpt>
      <trkpt lat="48.60095" lon="2.05608">
        <ele>120</ele>
        <time>2018-08-18T08:19:49Z</time>
      </trkpt>
      <trkpt lat="48.60091" lon="2.05604">
        <ele>120</ele>
        <time>2018-08-18T08:19:53Z</time>
      </trkpt>
      <trkpt lat="48.60086" lon="2.05595">
        <ele>120</ele>
        <time>2018-08-18T08:19:57Z</time>
      </trkpt>
      <trkpt lat="48.60084" lon="2.05588">
        <ele>120</ele>
        <time>2018-08-18T08:20:01Z</time>
      </trkpt>
      <trkpt lat="48.6008" lon="2.05582">
        <ele>120</ele>
        <time>2018-08-18T08:20:05Z</time>
      </trkpt>
      <trkpt lat="48.60075" lon="2.05575">
        <ele>120</ele>
        <time>2018-08-18T08:20:09Z</time>
      </trkpt>
      <trkpt lat="48.60069" lon="2.0557">
        <ele>120</ele>
        <time>2018-08-18T08:20:13Z</time>
      </trkpt>
      <trkpt lat="48.60066" lon="2.05571">
        <ele>120</ele>
        <time>2018-08-18T08:20:17Z</time>
      </trkpt>
      <trkpt lat="48.60061" lon="2.05564">
        <ele>120</ele>
        <time>2018-08-18T08:20:21Z</time>
      </trkpt>
      <trkpt lat="48.60058" lon="2.05555">
        <ele>120</ele>
        <time>2018-08-18T08:20:25Z</time>
      </trkpt>
      <trkpt lat="48.60055" lon="2.05547">
        <ele>120</ele>
        <time>2018-08-18T08:20:29Z</time>
      </trkpt>
      <trkpt lat="48.6005" lon="2.05541">
        <ele>120</ele>
        <time>2018-08-18T08:20:33Z</time>
      </trkpt>
      <trkpt lat="48.60046" lon="2.05537">
        <ele>120</ele>
        <time>2018-08-18T08:20:37Z</time>
      </trkpt>
      <trkpt lat="48.6004" lon="2.05535">
        <ele>120</ele>
        <time>2018-08-18T08:20:41Z</time>
      </trkpt>
      <trkpt lat="48.60035" lon="2.05531">
        <ele>120</ele>
        <time>2018-08-18T08:20:45Z</time>
      </trkpt>
      <trkpt lat="48.6003" lon="2.05526">
        <ele>120</ele>
        <time>2018-08-18T08:20:49Z</time>
      </trkpt>
      <trkpt lat="48.60025" lon="2.05517">
        <ele>120</ele>
        <time>2018-08-18T08:20:53Z</time>
      </trkpt>
      <trkpt lat="48.60022" lon="2.0551">
        <ele>120</ele>
        <time>2018-08-18T08:20:57Z</time>
      </trkpt>
      <trkpt lat="48.60018" lon="2.05501">
        <ele>120</ele>
        <time>2018-08-18T08:21:01Z</time>
      </trkpt>
      <trkpt lat="48.60016" lon="2.05494">
        <ele>120</ele>
        <time>2018-08-18T08:21:05Z</time>
      </trkpt>
      <trkpt lat="48.60013" lon="2.05486">
        <ele>120</ele>
        <time>2018-08-18T08:21:09Z</time>
      </trkpt>
      <trkpt lat="48.60009" lon="2.05479">
        <ele>122</ele>
        <time>2018-08-18T08:21:13Z</time>
      </trkpt>
      <trkpt lat="48.60005" lon="2.05472">
        <ele>123</ele>
        <time>2018-08-18T08:21:17Z</time>
      </trkpt>
      <trkpt lat="48.60001" lon="2.05462">
        <ele>123</ele>
        <time>2018-08-18T08:21:21Z</time>
      </trkpt>
      <trkpt lat="48.59999" lon="2.05452">
        <ele>123</ele>
        <time>2018-08-18T08:21:25Z</time>
      </trkpt>
      <trkpt lat="48.59996" lon="2.05443">
        <ele>123</ele>
        <time>2018-08-18T08:21:29Z</time>
      </trkpt>
      <trkpt lat="48.59993" lon="2.05434">
        <ele>123</ele>
        <time>2018-08-18T08:21:33Z</time>
      </trkpt>
      <trkpt lat="48.5999" lon="2.05426">
        <ele>123</ele>
        <time>2018-08-18T08:21:37Z</time>
      </trkpt>
      <trkpt lat="48.59986" lon="2.0542">
        <ele>123</ele>
        <time>2018-08-18T08:21:41Z</time>
      </trkpt>
      <trkpt lat="48.59983" lon="2.05413">
        <ele>123</ele>
        <time>2018-08-18T08:21:45Z</time>
      </trkpt>
      <trkpt lat="48.59979" lon="2.05407">
        <ele>123</ele>
        <time>2018-08-18T08:21:49Z</time>
      </trkpt>
      <trkpt lat="48.59977" lon="2.05398">
        <ele>123</ele>
        <time>2018-08-18T08:21:53Z</time>
      </trkpt>
      <trkpt lat="48.59974" lon="2.0539">
        <ele>123</ele>
        <time>2018-08-18T08:21:57Z</time>
      </trkpt>
      <trkpt lat="48.59971" lon="2.0538">
        <ele>123</ele>
        <time>2018-08-18T08:22:01Z</time>
      </trkpt>
      <trkpt lat="48.59968" lon="2.05374">
        <ele>123</ele>
        <time>2018-08-18T08:22:05Z</time>
      </trkpt>
      <trkpt lat="48.59965" lon="2.05365">
        <ele>123</ele>
        <time>2018-08-18T08:22:09Z</time>
      </trkpt>
      <trkpt lat="48.59961" lon="2.05356">
        <ele>123</ele>
        <time>2018-08-18T08:22:13Z</time>
      </trkpt>
      <trkpt lat="48.59957" lon="2.05347">
        <ele>124</ele>
        <time>2018-08-18T08:22:17Z</time>
      </trkpt>
      <trkpt lat="48.59952" lon="2.0534">
        <ele>124</ele>
        <time>2018-08-18T08:22:22Z</time>
      </trkpt>
      <trkpt lat="48.59947" lon="2.05335">
        <ele>125</ele>
        <time>2018-08-18T08:22:26Z</time>
      </trkpt>
      <trkpt lat="48.59942" lon="2.0533">
        <ele>125</ele>
        <time>2018-08-18T08:22:30Z</time>
      </trkpt>
      <trkpt lat="48.59937" lon="2.05325">
        <ele>125</ele>
        <time>2018-08-18T08:22:34Z</time>
      </trkpt>
      <trkpt lat="48.59932" lon="2.05321">
        <ele>125</ele>
        <time>2018-08-18T08:22:38Z</time>
      </trkpt>
      <trkpt lat="48.59928" lon="2.05316">
        <ele>125</ele>
        <time>2018-08-18T08:22:42Z</time>
      </trkpt>
      <trkpt lat="48.59923" lon="2.05312">
        <ele>125</ele>
        <time>2018-08-18T08:22:46Z</time>
      </trkpt>
      <trkpt lat="48.59918" lon="2.05307">
        <ele>125</ele>
        <time>2018-08-18T08:22:50Z</time>
      </trkpt>
      <trkpt lat="48.59919" lon="2.05299">
        <ele>125</ele>
        <time>2018-08-18T08:22:54Z</time>
      </trkpt>
      <trkpt lat="48.59916" lon="2.05294">
        <ele>125</ele>
        <time>2018-08-18T08:22:58Z</time>
      </trkpt>
      <trkpt lat="48.59915" lon="2.05292">
        <ele>125</ele>
        <time>2018-08-18T08:23:04Z</time>
      </trkpt>
      <trkpt lat="48.59912" lon="2.05287">
        <ele>125</ele>
        <time>2018-08-18T08:23:08Z</time>
      </trkpt>
      <trkpt lat="48.59906" lon="2.05284">
        <ele>125</ele>
        <time>2018-08-18T08:23:12Z</time>
      </trkpt>
      <trkpt lat="48.599" lon="2.05284">
        <ele>125</ele>
        <time>2018-08-18T08:23:16Z</time>
      </trkpt>
      <trkpt lat="48.59895" lon="2.05282">
        <ele>125</ele>
        <time>2018-08-18T08:23:20Z</time>
      </trkpt>
      <trkpt lat="48.5989" lon="2.05277">
        <ele>125</ele>
        <time>2018-08-18T08:23:24Z</time>
      </trkpt>
      <trkpt lat="48.59889" lon="2.05267">
        <ele>125</ele>
        <time>2018-08-18T08:23:28Z</time>
      </trkpt>
      <trkpt lat="48.59889" lon="2.05258">
        <ele>125</ele>
        <time>2018-08-18T08:23:32Z</time>
      </trkpt>
      <trkpt lat="48.59889" lon="2.05249">
        <ele>125</ele>
        <time>2018-08-18T08:23:36Z</time>
      </trkpt>
      <trkpt lat="48.59891" lon="2.05238">
        <ele>126</ele>
        <time>2018-08-18T08:23:41Z</time>
      </trkpt>
      <trkpt lat="48.59892" lon="2.05228">
        <ele>127</ele>
        <time>2018-08-18T08:23:45Z</time>
      </trkpt>
      <trkpt lat="48.59893" lon="2.05217">
        <ele>128</ele>
        <time>2018-08-18T08:23:49Z</time>
      </trkpt>
      <trkpt lat="48.59894" lon="2.0521">
        <ele>129</ele>
        <time>2018-08-18T08:23:53Z</time>
      </trkpt>
      <trkpt lat="48.59895" lon="2.052">
        <ele>129</ele>
        <time>2018-08-18T08:23:57Z</time>
      </trkpt>
      <trkpt lat="48.59895" lon="2.05191">
        <ele>129</ele>
        <time>2018-08-18T08:24:01Z</time>
      </trkpt>
      <trkpt lat="48.59897" lon="2.05183">
        <ele>129</ele>
        <time>2018-08-18T08:24:05Z</time>
      </trkpt>
      <trkpt lat="48.59898" lon="2.05174">
        <ele>129</ele>
        <time>2018-08-18T08:24:09Z</time>
      </trkpt>
      <trkpt lat="48.59899" lon="2.05166">
        <ele>129</ele>
        <time>2018-08-18T08:24:13Z</time>
      </trkpt>
      <trkpt lat="48.599" lon="2.05158">
        <ele>129</ele>
        <time>2018-08-18T08:24:17Z</time>
      </trkpt>
      <trkpt lat="48.59901" lon="2.05149">
        <ele>129</ele>
        <time>2018-08-18T08:24:21Z</time>
      </trkpt>
      <trkpt lat="48.59902" lon="2.05141">
        <ele>129</ele>
        <time>2018-08-18T08:24:25Z</time>
      </trkpt>
      <trkpt lat="48.59903" lon="2.05133">
        <ele>129</ele>
        <time>2018-08-18T08:24:29Z</time>
      </trkpt>
      <trkpt lat="48.59905" lon="2.05125">
        <ele>129</ele>
        <time>2018-08-18T08:24:33Z</time>
      </trkpt>
      <trkpt lat="48.59906" lon="2.05118">
        <ele>129</ele>
        <time>2018-08-18T08:24:37Z</time>
      </trkpt>
      <trkpt lat="48.59908" lon="2.0511">
        <ele>129</ele>
        <time>2018-08-18T08:24:41Z</time>
      </trkpt>
      <trkpt lat="48.5991" lon="2.05104">
        <ele>129</ele>
        <time>2018-08-18T08:24:45Z</time>
      </trkpt>
      <trkpt lat="48.59911" lon="2.05096">
        <ele>129</ele>
        <time>2018-08-18T08:24:49Z</time>
      </trkpt>
      <trkpt lat="48.59913" lon="2.05088">
        <ele>129</ele>
        <time>2018-08-18T08:24:53Z</time>
      </trkpt>
      <trkpt lat="48.59914" lon="2.05079">
        <ele>129</ele>
        <time>2018-08-18T08:24:57Z</time>
      </trkpt>
      <trkpt lat="48.59913" lon="2.05068">
        <ele>129</ele>
        <time>2018-08-18T08:25:01Z</time>
      </trkpt>
      <trkpt lat="48.59915" lon="2.05059">
        <ele>129</ele>
        <time>2018-08-18T08:25:05Z</time>
      </trkpt>
      <trkpt lat="48.59917" lon="2.0505">
        <ele>129</ele>
        <time>2018-08-18T08:25:09Z</time>
      </trkpt>
      <trkpt lat="48.59918" lon="2.05041">
        <ele>129</ele>
        <time>2018-08-18T08:25:13Z</time>
      </trkpt>
      <trkpt lat="48.59919" lon="2.05032">
        <ele>129</ele>
        <time>2018-08-18T08:25:17Z</time>
      </trkpt>
      <trkpt lat="48.59923" lon="2.05026">
        <ele>129</ele>
        <time>2018-08-18T08:25:21Z</time>
      </trkpt>
      <trkpt lat="48.59924" lon="2.05016">
        <ele>129</ele>
        <time>2018-08-18T08:25:25Z</time>
      </trkpt>
      <trkpt lat="48.59926" lon="2.05005">
        <ele>129</ele>
        <time>2018-08-18T08:25:29Z</time>
      </trkpt>
      <trkpt lat="48.59926" lon="2.04994">
        <ele>130</ele>
        <time>2018-08-18T08:25:33Z</time>
      </trkpt>
      <trkpt lat="48.59926" lon="2.04985">
        <ele>130</ele>
        <time>2018-08-18T08:25:37Z</time>
      </trkpt>
      <trkpt lat="48.59927" lon="2.04981">
        <ele>130</ele>
        <time>2018-08-18T08:25:43Z</time>
      </trkpt>
      <trkpt lat="48.59926" lon="2.04979">
        <ele>131</ele>
        <time>2018-08-18T08:25:54Z</time>
      </trkpt>
      <trkpt lat="48.59922" lon="2.04973">
        <ele>132</ele>
        <time>2018-08-18T08:25:58Z</time>
      </trkpt>
      <trkpt lat="48.59917" lon="2.04969">
        <ele>132</ele>
        <time>2018-08-18T08:26:02Z</time>
      </trkpt>
      <trkpt lat="48.5991" lon="2.04966">
        <ele>132</ele>
        <time>2018-08-18T08:26:06Z</time>
      </trkpt>
      <trkpt lat="48.59905" lon="2.04962">
        <ele>134</ele>
        <time>2018-08-18T08:26:10Z</time>
      </trkpt>
      <trkpt lat="48.59899" lon="2.04956">
        <ele>135</ele>
        <time>2018-08-18T08:26:16Z</time>
      </trkpt>
      <trkpt lat="48.59893" lon="2.04952">
        <ele>135</ele>
        <time>2018-08-18T08:26:20Z</time>
      </trkpt>
      <trkpt lat="48.59888" lon="2.04947">
        <ele>135</ele>
        <time>2018-08-18T08:26:24Z</time>
      </trkpt>
      <trkpt lat="48.59882" lon="2.04942">
        <ele>135</ele>
        <time>2018-08-18T08:26:28Z</time>
      </trkpt>
      <trkpt lat="48.59876" lon="2.04939">
        <ele>135</ele>
        <time>2018-08-18T08:26:32Z</time>
      </trkpt>
      <trkpt lat="48.59869" lon="2.04936">
        <ele>135</ele>
        <time>2018-08-18T08:26:36Z</time>
      </trkpt>
      <trkpt lat="48.59864" lon="2.04932">
        <ele>135</ele>
        <time>2018-08-18T08:26:40Z</time>
      </trkpt>
      <trkpt lat="48.59859" lon="2.04927">
        <ele>135</ele>
        <time>2018-08-18T08:26:44Z</time>
      </trkpt>
      <trkpt lat="48.59855" lon="2.04924">
        <ele>135</ele>
        <time>2018-08-18T08:26:48Z</time>
      </trkpt>
      <trkpt lat="48.59849" lon="2.0492">
        <ele>135</ele>
        <time>2018-08-18T08:26:52Z</time>
      </trkpt>
      <trkpt lat="48.59845" lon="2.04916">
        <ele>135</ele>
        <time>2018-08-18T08:26:56Z</time>
      </trkpt>
      <trkpt lat="48.59838" lon="2.04914">
        <ele>135</ele>
        <time>2018-08-18T08:27:01Z</time>
      </trkpt>
      <trkpt lat="48.59832" lon="2.04909">
        <ele>136</ele>
        <time>2018-08-18T08:27:05Z</time>
      </trkpt>
      <trkpt lat="48.59827" lon="2.04905">
        <ele>137</ele>
        <time>2018-08-18T08:27:09Z</time>
      </trkpt>
      <trkpt lat="48.59819" lon="2.04901">
        <ele>137</ele>
        <time>2018-08-18T08:27:14Z</time>
      </trkpt>
      <trkpt lat="48.59813" lon="2.04897">
        <ele>137</ele>
        <time>2018-08-18T08:27:18Z</time>
      </trkpt>
      <trkpt lat="48.59806" lon="2.04894">
        <ele>137</ele>
        <time>2018-08-18T08:27:22Z</time>
      </trkpt>
      <trkpt lat="48.598" lon="2.0489">
        <ele>137</ele>
        <time>2018-08-18T08:27:26Z</time>
      </trkpt>
      <trkpt lat="48.59795" lon="2.04885">
        <ele>137</ele>
        <time>2018-08-18T08:27:30Z</time>
      </trkpt>
      <trkpt lat="48.59788" lon="2.04878">
        <ele>137</ele>
        <time>2018-08-18T08:27:35Z</time>
      </trkpt>
      <trkpt lat="48.59781" lon="2.04875">
        <ele>137</ele>
        <time>2018-08-18T08:27:40Z</time>
      </trkpt>
      <trkpt lat="48.59774" lon="2.0487">
        <ele>137</ele>
        <time>2018-08-18T08:27:45Z</time>
      </trkpt>
      <trkpt lat="48.59769" lon="2.04868">
        <ele>137</ele>
        <time>2018-08-18T08:27:49Z</time>
      </trkpt>
      <trkpt lat="48.59766" lon="2.04864">
        <ele>137</ele>
        <time>2018-08-18T08:27:53Z</time>
      </trkpt>
      <trkpt lat="48.59763" lon="2.04858">
        <ele>137</ele>
        <time>2018-08-18T08:27:58Z</time>
      </trkpt>
      <trkpt lat="48.59753" lon="2.04853">
        <ele>137</ele>
        <time>2018-08-18T08:28:03Z</time>
      </trkpt>
      <trkpt lat="48.59745" lon="2.04849">
        <ele>137</ele>
        <time>2018-08-18T08:28:07Z</time>
      </trkpt>
      <trkpt lat="48.59739" lon="2.04845">
        <ele>137</ele>
        <time>2018-08-18T08:28:12Z</time>
      </trkpt>
      <trkpt lat="48.59733" lon="2.04842">
        <ele>137</ele>
        <time>2018-08-18T08:28:17Z</time>
      </trkpt>
      <trkpt lat="48.59731" lon="2.04842">
        <ele>138</ele>
        <time>2018-08-18T08:28:22Z</time>
      </trkpt>
      <trkpt lat="48.59724" lon="2.04838">
        <ele>138</ele>
        <time>2018-08-18T08:28:27Z</time>
      </trkpt>
      <trkpt lat="48.5972" lon="2.04833">
        <ele>138</ele>
        <time>2018-08-18T08:28:32Z</time>
      </trkpt>
      <trkpt lat="48.59713" lon="2.04827">
        <ele>138</ele>
        <time>2018-08-18T08:28:37Z</time>
      </trkpt>
      <trkpt lat="48.59707" lon="2.04823">
        <ele>139</ele>
        <time>2018-08-18T08:28:41Z</time>
      </trkpt>
      <trkpt lat="48.59701" lon="2.0482">
        <ele>140</ele>
        <time>2018-08-18T08:28:45Z</time>
      </trkpt>
      <trkpt lat="48.59694" lon="2.04817">
        <ele>141</ele>
        <time>2018-08-18T08:28:49Z</time>
      </trkpt>
      <trkpt lat="48.59687" lon="2.04812">
        <ele>144</ele>
        <time>2018-08-18T08:28:54Z</time>
      </trkpt>
      <trkpt lat="48.5968" lon="2.04808">
        <ele>145</ele>
        <time>2018-08-18T08:28:59Z</time>
      </trkpt>
      <trkpt lat="48.59674" lon="2.04804">
        <ele>148</ele>
        <time>2018-08-18T08:29:04Z</time>
      </trkpt>
      <trkpt lat="48.59669" lon="2.04801">
        <ele>148</ele>
        <time>2018-08-18T08:29:08Z</time>
      </trkpt>
      <trkpt lat="48.59663" lon="2.04797">
        <ele>148</ele>
        <time>2018-08-18T08:29:13Z</time>
      </trkpt>
      <trkpt lat="48.5966" lon="2.04793">
        <ele>148</ele>
        <time>2018-08-18T08:29:17Z</time>
      </trkpt>
      <trkpt lat="48.59654" lon="2.04792">
        <ele>148</ele>
        <time>2018-08-18T08:29:22Z</time>
      </trkpt>
      <trkpt lat="48.59647" lon="2.04787">
        <ele>150</ele>
        <time>2018-08-18T08:29:26Z</time>
      </trkpt>
      <trkpt lat="48.59641" lon="2.04781">
        <ele>152</ele>
        <time>2018-08-18T08:29:30Z</time>
      </trkpt>
      <trkpt lat="48.59634" lon="2.04779">
        <ele>153</ele>
        <time>2018-08-18T08:29:35Z</time>
      </trkpt>
      <trkpt lat="48.59628" lon="2.04772">
        <ele>153</ele>
        <time>2018-08-18T08:29:41Z</time>
      </trkpt>
      <trkpt lat="48.59624" lon="2.04768">
        <ele>153</ele>
        <time>2018-08-18T08:29:46Z</time>
      </trkpt>
      <trkpt lat="48.59618" lon="2.04762">
        <ele>153</ele>
        <time>2018-08-18T08:29:51Z</time>
      </trkpt>
      <trkpt lat="48.59612" lon="2.04758">
        <ele>153</ele>
        <time>2018-08-18T08:29:55Z</time>
      </trkpt>
      <trkpt lat="48.59607" lon="2.04755">
        <ele>153</ele>
        <time>2018-08-18T08:29:59Z</time>
      </trkpt>
      <trkpt lat="48.59601" lon="2.04752">
        <ele>153</ele>
        <time>2018-08-18T08:30:03Z</time>
      </trkpt>
      <trkpt lat="48.59597" lon="2.04749">
        <ele>154</ele>
        <time>2018-08-18T08:30:07Z</time>
      </trkpt>
      <trkpt lat="48.5959" lon="2.04745">
        <ele>155</ele>
        <time>2018-08-18T08:30:12Z</time>
      </trkpt>
      <trkpt lat="48.59585" lon="2.04741">
        <ele>155</ele>
        <time>2018-08-18T08:30:16Z</time>
      </trkpt>
      <trkpt lat="48.59579" lon="2.04736">
        <ele>156</ele>
        <time>2018-08-18T08:30:21Z</time>
      </trkpt>
      <trkpt lat="48.59574" lon="2.04732">
        <ele>156</ele>
        <time>2018-08-18T08:30:25Z</time>
      </trkpt>
      <trkpt lat="48.59569" lon="2.04728">
        <ele>157</ele>
        <time>2018-08-18T08:30:29Z</time>
      </trkpt>
      <trkpt lat="48.59564" lon="2.04724">
        <ele>157</ele>
        <time>2018-08-18T08:30:33Z</time>
      </trkpt>
      <trkpt lat="48.59559" lon="2.04719">
        <ele>157</ele>
        <time>2018-08-18T08:30:37Z</time>
      </trkpt>
      <trkpt lat="48.59554" lon="2.04714">
        <ele>157</ele>
        <time>2018-08-18T08:30:41Z</time>
      </trkpt>
      <trkpt lat="48.5955" lon="2.04709">
        <ele>157</ele>
        <time>2018-08-18T08:30:45Z</time>
      </trkpt>
      <trkpt lat="48.59547" lon="2.04704">
        <ele>157</ele>
        <time>2018-08-18T08:30:49Z</time>
      </trkpt>
      <trkpt lat="48.59544" lon="2.04697">
        <ele>157</ele>
        <time>2018-08-18T08:30:53Z</time>
      </trkpt>
      <trkpt lat="48.59538" lon="2.04689">
        <ele>157</ele>
        <time>2018-08-18T08:30:59Z</time>
      </trkpt>
      <trkpt lat="48.59534" lon="2.0468">
        <ele>157</ele>
        <time>2018-08-18T08:31:04Z</time>
      </trkpt>
      <trkpt lat="48.59529" lon="2.04672">
        <ele>157</ele>
        <time>2018-08-18T08:31:09Z</time>
      </trkpt>
      <trkpt lat="48.59526" lon="2.04663">
        <ele>157</ele>
        <time>2018-08-18T08:31:13Z</time>
      </trkpt>
      <trkpt lat="48.59524" lon="2.04653">
        <ele>157</ele>
        <time>2018-08-18T08:31:18Z</time>
      </trkpt>
      <trkpt lat="48.59521" lon="2.04646">
        <ele>157</ele>
        <time>2018-08-18T08:31:22Z</time>
      </trkpt>
      <trkpt lat="48.59516" lon="2.0464">
        <ele>157</ele>
        <time>2018-08-18T08:31:26Z</time>
      </trkpt>
      <trkpt lat="48.59511" lon="2.04633">
        <ele>157</ele>
        <time>2018-08-18T08:31:31Z</time>
      </trkpt>
      <trkpt lat="48.59507" lon="2.04625">
        <ele>157</ele>
        <time>2018-08-18T08:31:36Z</time>
      </trkpt>
      <trkpt lat="48.59502" lon="2.04616">
        <ele>157</ele>
        <time>2018-08-18T08:31:41Z</time>
      </trkpt>
      <trkpt lat="48.59499" lon="2.04608">
        <ele>157</ele>
        <time>2018-08-18T08:31:46Z</time>
      </trkpt>
      <trkpt lat="48.59494" lon="2.04603">
        <ele>157</ele>
        <time>2018-08-18T08:31:51Z</time>
      </trkpt>
      <trkpt lat="48.59489" lon="2.04597">
        <ele>157</ele>
        <time>2018-08-18T08:31:55Z</time>
      </trkpt>
      <trkpt lat="48.59485" lon="2.04591">
        <ele>157</ele>
        <time>2018-08-18T08:31:59Z</time>
      </trkpt>
      <trkpt lat="48.59481" lon="2.04583">
        <ele>157</ele>
        <time>2018-08-18T08:32:03Z</time>
      </trkpt>
      <trkpt lat="48.59477" lon="2.04574">
        <ele>157</ele>
        <time>2018-08-18T08:32:08Z</time>
      </trkpt>
      <trkpt lat="48.59471" lon="2.04566">
        <ele>157</ele>
        <time>2018-08-18T08:32:13Z</time>
      </trkpt>
      <trkpt lat="48.59465" lon="2.04556">
        <ele>157</ele>
        <time>2018-08-18T08:32:19Z</time>
      </trkpt>
      <trkpt lat="48.59462" lon="2.04547">
        <ele>157</ele>
        <time>2018-08-18T08:32:24Z</time>
      </trkpt>
      <trkpt lat="48.59456" lon="2.04538">
        <ele>157</ele>
        <time>2018-08-18T08:32:30Z</time>
      </trkpt>
      <trkpt lat="48.59452" lon="2.04528">
        <ele>157</ele>
        <time>2018-08-18T08:32:35Z</time>
      </trkpt>
      <trkpt lat="48.59451" lon="2.0452">
        <ele>157</ele>
        <time>2018-08-18T08:32:39Z</time>
      </trkpt>
      <trkpt lat="48.59446" lon="2.04515">
        <ele>157</ele>
        <time>2018-08-18T08:32:43Z</time>
      </trkpt>
      <trkpt lat="48.59441" lon="2.0451">
        <ele>157</ele>
        <time>2018-08-18T08:32:47Z</time>
      </trkpt>
      <trkpt lat="48.59436" lon="2.04505">
        <ele>157</ele>
        <time>2018-08-18T08:32:51Z</time>
      </trkpt>
      <trkpt lat="48.59432" lon="2.04498">
        <ele>157</ele>
        <time>2018-08-18T08:32:56Z</time>
      </trkpt>
      <trkpt lat="48.59427" lon="2.0449">
        <ele>157</ele>
        <time>2018-08-18T08:33:01Z</time>
      </trkpt>
      <trkpt lat="48.59422" lon="2.04484">
        <ele>157</ele>
        <time>2018-08-18T08:33:05Z</time>
      </trkpt>
      <trkpt lat="48.59419" lon="2.04476">
        <ele>157</ele>
        <time>2018-08-18T08:33:09Z</time>
      </trkpt>
      <trkpt lat="48.59415" lon="2.0447">
        <ele>157</ele>
        <time>2018-08-18T08:33:13Z</time>
      </trkpt>
      <trkpt lat="48.59411" lon="2.04463">
        <ele>157</ele>
        <time>2018-08-18T08:33:17Z</time>
      </trkpt>
      <trkpt lat="48.59407" lon="2.04455">
        <ele>156</ele>
        <time>2018-08-18T08:33:22Z</time>
      </trkpt>
      <trkpt lat="48.59403" lon="2.04449">
        <ele>155</ele>
        <time>2018-08-18T08:33:26Z</time>
      </trkpt>
      <trkpt lat="48.59403" lon="2.04438">
        <ele>155</ele>
        <time>2018-08-18T08:33:31Z</time>
      </trkpt>
      <trkpt lat="48.59404" lon="2.04428">
        <ele>155</ele>
        <time>2018-08-18T08:33:35Z</time>
      </trkpt>
      <trkpt lat="48.59405" lon="2.04416">
        <ele>155</ele>
        <time>2018-08-18T08:33:39Z</time>
      </trkpt>
      <trkpt lat="48.59408" lon="2.04409">
        <ele>156</ele>
        <time>2018-08-18T08:33:43Z</time>
      </trkpt>
      <trkpt lat="48.5941" lon="2.04403">
        <ele>157</ele>
        <time>2018-08-18T08:33:47Z</time>
      </trkpt>
      <trkpt lat="48.59412" lon="2.04396">
        <ele>158</ele>
        <time>2018-08-18T08:33:51Z</time>
      </trkpt>
      <trkpt lat="48.59415" lon="2.04387">
        <ele>159</ele>
        <time>2018-08-18T08:33:55Z</time>
      </trkpt>
      <trkpt lat="48.59417" lon="2.0438">
        <ele>159</ele>
        <time>2018-08-18T08:33:59Z</time>
      </trkpt>
      <trkpt lat="48.59422" lon="2.04373">
        <ele>159</ele>
        <time>2018-08-18T08:34:05Z</time>
      </trkpt>
      <trkpt lat="48.59425" lon="2.04366">
        <ele>159</ele>
        <time>2018-08-18T08:34:09Z</time>
      </trkpt>
      <trkpt lat="48.59428" lon="2.04359">
        <ele>159</ele>
        <time>2018-08-18T08:34:13Z</time>
      </trkpt>
      <trkpt lat="48.5943" lon="2.0435">
        <ele>159</ele>
        <time>2018-08-18T08:34:17Z</time>
      </trkpt>
      <trkpt lat="48.59434" lon="2.04342">
        <ele>159</ele>
        <time>2018-08-18T08:34:22Z</time>
      </trkpt>
      <trkpt lat="48.59437" lon="2.04333">
        <ele>159</ele>
        <time>2018-08-18T08:34:27Z</time>
      </trkpt>
      <trkpt lat="48.5944" lon="2.04328">
        <ele>159</ele>
        <time>2018-08-18T08:34:31Z</time>
      </trkpt>
      <trkpt lat="48.59444" lon="2.04323">
        <ele>159</ele>
        <time>2018-08-18T08:34:35Z</time>
      </trkpt>
      <trkpt lat="48.59446" lon="2.04316">
        <ele>159</ele>
        <time>2018-08-18T08:34:39Z</time>
      </trkpt>
      <trkpt lat="48.59449" lon="2.04309">
        <ele>158</ele>
        <time>2018-08-18T08:34:43Z</time>
      </trkpt>
      <trkpt lat="48.5945" lon="2.04301">
        <ele>156</ele>
        <time>2018-08-18T08:34:47Z</time>
      </trkpt>
      <trkpt lat="48.59449" lon="2.04293">
        <ele>154</ele>
        <time>2018-08-18T08:34:51Z</time>
      </trkpt>
      <trkpt lat="48.59451" lon="2.0429">
        <ele>152</ele>
        <time>2018-08-18T08:34:56Z</time>
      </trkpt>
      <trkpt lat="48.59454" lon="2.04294">
        <ele>150</ele>
        <time>2018-08-18T08:35:00Z</time>
      </trkpt>
      <trkpt lat="48.59453" lon="2.04294">
        <ele>150</ele>
        <time>2018-08-18T08:35:07Z</time>
      </trkpt>
      <trkpt lat="48.59448" lon="2.04288">
        <ele>150</ele>
        <time>2018-08-18T08:35:11Z</time>
      </trkpt>
      <trkpt lat="48.59444" lon="2.04283">
        <ele>150</ele>
        <time>2018-08-18T08:35:16Z</time>
      </trkpt>
      <trkpt lat="48.59436" lon="2.04277">
        <ele>150</ele>
        <time>2018-08-18T08:35:20Z</time>
      </trkpt>
      <trkpt lat="48.59426" lon="2.04273">
        <ele>150</ele>
        <time>2018-08-18T08:35:24Z</time>
      </trkpt>
      <trkpt lat="48.5942" lon="2.04269">
        <ele>150</ele>
        <time>2018-08-18T08:35:29Z</time>
      </trkpt>
      <trkpt lat="48.59415" lon="2.04264">
        <ele>150</ele>
        <time>2018-08-18T08:35:33Z</time>
      </trkpt>
      <trkpt lat="48.5941" lon="2.04262">
        <ele>150</ele>
        <time>2018-08-18T08:35:37Z</time>
      </trkpt>
      <trkpt lat="48.59406" lon="2.04261">
        <ele>150</ele>
        <time>2018-08-18T08:35:41Z</time>
      </trkpt>
      <trkpt lat="48.594" lon="2.04264">
        <ele>149</ele>
        <time>2018-08-18T08:35:45Z</time>
      </trkpt>
      <trkpt lat="48.59394" lon="2.04266">
        <ele>149</ele>
        <time>2018-08-18T08:35:49Z</time>
      </trkpt>
      <trkpt lat="48.5939" lon="2.04265">
        <ele>148</ele>
        <time>2018-08-18T08:35:53Z</time>
      </trkpt>
      <trkpt lat="48.59383" lon="2.04266">
        <ele>147</ele>
        <time>2018-08-18T08:35:57Z</time>
      </trkpt>
      <trkpt lat="48.59377" lon="2.04265">
        <ele>146</ele>
        <time>2018-08-18T08:36:01Z</time>
      </trkpt>
      <trkpt lat="48.5937" lon="2.04265">
        <ele>145</ele>
        <time>2018-08-18T08:36:05Z</time>
      </trkpt>
      <trkpt lat="48.59362" lon="2.04263">
        <ele>144</ele>
        <time>2018-08-18T08:36:10Z</time>
      </trkpt>
      <trkpt lat="48.59355" lon="2.0426">
        <ele>144</ele>
        <time>2018-08-18T08:36:14Z</time>
      </trkpt>
      <trkpt lat="48.5935" lon="2.04256">
        <ele>144</ele>
        <time>2018-08-18T08:36:19Z</time>
      </trkpt>
      <trkpt lat="48.59344" lon="2.04252">
        <ele>144</ele>
        <time>2018-08-18T08:36:23Z</time>
      </trkpt>
      <trkpt lat="48.59339" lon="2.04248">
        <ele>143</ele>
        <time>2018-08-18T08:36:27Z</time>
      </trkpt>
      <trkpt lat="48.59334" lon="2.04244">
        <ele>142</ele>
        <time>2018-08-18T08:36:31Z</time>
      </trkpt>
      <trkpt lat="48.5933" lon="2.04237">
        <ele>140</ele>
        <time>2018-08-18T08:36:35Z</time>
      </trkpt>
      <trkpt lat="48.59327" lon="2.04229">
        <ele>140</ele>
        <time>2018-08-18T08:36:39Z</time>
      </trkpt>
      <trkpt lat="48.59323" lon="2.04222">
        <ele>138</ele>
        <time>2018-08-18T08:36:43Z</time>
      </trkpt>
      <trkpt lat="48.59317" lon="2.04216">
        <ele>136</ele>
        <time>2018-08-18T08:36:47Z</time>
      </trkpt>
      <trkpt lat="48.59313" lon="2.0421">
        <ele>134</ele>
        <time>2018-08-18T08:36:51Z</time>
      </trkpt>
      <trkpt lat="48.59308" lon="2.04205">
        <ele>133</ele>
        <time>2018-08-18T08:36:55Z</time>
      </trkpt>
      <trkpt lat="48.59302" lon="2.04204">
        <ele>133</ele>
        <time>2018-08-18T08:36:59Z</time>
      </trkpt>
      <trkpt lat="48.59296" lon="2.04199">
        <ele>133</ele>
        <time>2018-08-18T08:37:03Z</time>
      </trkpt>
      <trkpt lat="48.5929" lon="2.04191">
        <ele>133</ele>
        <time>2018-08-18T08:37:07Z</time>
      </trkpt>
      <trkpt lat="48.59283" lon="2.04187">
        <ele>133</ele>
        <time>2018-08-18T08:37:11Z</time>
      </trkpt>
      <trkpt lat="48.5928" lon="2.04178">
        <ele>133</ele>
        <time>2018-08-18T08:37:15Z</time>
      </trkpt>
      <trkpt lat="48.59276" lon="2.04169">
        <ele>133</ele>
        <time>2018-08-18T08:37:19Z</time>
      </trkpt>
      <trkpt lat="48.59271" lon="2.04162">
        <ele>133</ele>
        <time>2018-08-18T08:37:23Z</time>
      </trkpt>
      <trkpt lat="48.59267" lon="2.04156">
        <ele>133</ele>
        <time>2018-08-18T08:37:27Z</time>
      </trkpt>
      <trkpt lat="48.5926" lon="2.04147">
        <ele>133</ele>
        <time>2018-08-18T08:37:32Z</time>
      </trkpt>
      <trkpt lat="48.59255" lon="2.04144">
        <ele>133</ele>
        <time>2018-08-18T08:37:37Z</time>
      </trkpt>
      <trkpt lat="48.5925" lon="2.04139">
        <ele>133</ele>
        <time>2018-08-18T08:37:41Z</time>
      </trkpt>
      <trkpt lat="48.59246" lon="2.04131">
        <ele>133</ele>
        <time>2018-08-18T08:37:45Z</time>
      </trkpt>
      <trkpt lat="48.59243" lon="2.04124">
        <ele>133</ele>
        <time>2018-08-18T08:37:49Z</time>
      </trkpt>
      <trkpt lat="48.5924" lon="2.04116">
        <ele>130</ele>
        <time>2018-08-18T08:37:53Z</time>
      </trkpt>
      <trkpt lat="48.59236" lon="2.04113">
        <ele>130</ele>
        <time>2018-08-18T08:37:57Z</time>
      </trkpt>
      <trkpt lat="48.5923" lon="2.04111">
        <ele>130</ele>
        <time>2018-08-18T08:38:01Z</time>
      </trkpt>
      <trkpt lat="48.59223" lon="2.04111">
        <ele>130</ele>
        <time>2018-08-18T08:38:05Z</time>
      </trkpt>
      <trkpt lat="48.59217" lon="2.04103">
        <ele>130</ele>
        <time>2018-08-18T08:38:09Z</time>
      </trkpt>
      <trkpt lat="48.59211" lon="2.04097">
        <ele>130</ele>
        <time>2018-08-18T08:38:14Z</time>
      </trkpt>
      <trkpt lat="48.59206" lon="2.04093">
        <ele>130</ele>
        <time>2018-08-18T08:38:18Z</time>
      </trkpt>
      <trkpt lat="48.59202" lon="2.04088">
        <ele>130</ele>
        <time>2018-08-18T08:38:22Z</time>
      </trkpt>
      <trkpt lat="48.59197" lon="2.04083">
        <ele>130</ele>
        <time>2018-08-18T08:38:26Z</time>
      </trkpt>
      <trkpt lat="48.59193" lon="2.04076">
        <ele>130</ele>
        <time>2018-08-18T08:38:30Z</time>
      </trkpt>
      <trkpt lat="48.5919" lon="2.04068">
        <ele>129</ele>
        <time>2018-08-18T08:38:34Z</time>
      </trkpt>
      <trkpt lat="48.59186" lon="2.0406">
        <ele>129</ele>
        <time>2018-08-18T08:38:38Z</time>
      </trkpt>
      <trkpt lat="48.59184" lon="2.04051">
        <ele>129</ele>
        <time>2018-08-18T08:38:42Z</time>
      </trkpt>
      <trkpt lat="48.59183" lon="2.04041">
        <ele>128</ele>
        <time>2018-08-18T08:38:47Z</time>
      </trkpt>
      <trkpt lat="48.59181" lon="2.04037">
        <ele>128</ele>
        <time>2018-08-18T08:38:55Z</time>
      </trkpt>
      <trkpt lat="48.59181" lon="2.04032">
        <ele>128</ele>
        <time>2018-08-18T08:38:59Z</time>
      </trkpt>
      <trkpt lat="48.5918" lon="2.04024">
        <ele>128</ele>
        <time>2018-08-18T08:39:03Z</time>
      </trkpt>
      <trkpt lat="48.59179" lon="2.04014">
        <ele>128</ele>
        <time>2018-08-18T08:39:07Z</time>
      </trkpt>
      <trkpt lat="48.59178" lon="2.04005">
        <ele>128</ele>
        <time>2018-08-18T08:39:11Z</time>
      </trkpt>
      <trkpt lat="48.59179" lon="2.03997">
        <ele>127</ele>
        <time>2018-08-18T08:39:15Z</time>
      </trkpt>
      <trkpt lat="48.59178" lon="2.03989">
        <ele>127</ele>
        <time>2018-08-18T08:39:19Z</time>
      </trkpt>
      <trkpt lat="48.59177" lon="2.03979">
        <ele>127</ele>
        <time>2018-08-18T08:39:23Z</time>
      </trkpt>
      <trkpt lat="48.59178" lon="2.03971">
        <ele>125</ele>
        <time>2018-08-18T08:39:28Z</time>
      </trkpt>
      <trkpt lat="48.59179" lon="2.0396">
        <ele>123</ele>
        <time>2018-08-18T08:39:33Z</time>
      </trkpt>
      <trkpt lat="48.59181" lon="2.03952">
        <ele>121</ele>
        <time>2018-08-18T08:39:38Z</time>
      </trkpt>
      <trkpt lat="48.59182" lon="2.03944">
        <ele>120</ele>
        <time>2018-08-18T08:39:42Z</time>
      </trkpt>
      <trkpt lat="48.59181" lon="2.03934">
        <ele>119</ele>
        <time>2018-08-18T08:39:46Z</time>
      </trkpt>
      <trkpt lat="48.59179" lon="2.03924">
        <ele>118</ele>
        <time>2018-08-18T08:39:51Z</time>
      </trkpt>
      <trkpt lat="48.59179" lon="2.03915">
        <ele>118</ele>
        <time>2018-08-18T08:39:55Z</time>
      </trkpt>
      <trkpt lat="48.59177" lon="2.03902">
        <ele>117</ele>
        <time>2018-08-18T08:39:59Z</time>
      </trkpt>
      <trkpt lat="48.59176" lon="2.03891">
        <ele>117</ele>
        <time>2018-08-18T08:40:03Z</time>
      </trkpt>
      <trkpt lat="48.59175" lon="2.0388">
        <ele>117</ele>
        <time>2018-08-18T08:40:07Z</time>
      </trkpt>
      <trkpt lat="48.59174" lon="2.03871">
        <ele>117</ele>
        <time>2018-08-18T08:40:11Z</time>
      </trkpt>
      <trkpt lat="48.59172" lon="2.03858">
        <ele>117</ele>
        <time>2018-08-18T08:40:15Z</time>
      </trkpt>
      <trkpt lat="48.59169" lon="2.03845">
        <ele>120</ele>
        <time>2018-08-18T08:40:19Z</time>
      </trkpt>
      <trkpt lat="48.59168" lon="2.03837">
        <ele>124</ele>
        <time>2018-08-18T08:40:23Z</time>
      </trkpt>
      <trkpt lat="48.59168" lon="2.03828">
        <ele>126</ele>
        <time>2018-08-18T08:40:27Z</time>
      </trkpt>
      <trkpt lat="48.59167" lon="2.03818">
        <ele>128</ele>
        <time>2018-08-18T08:40:31Z</time>
      </trkpt>
      <trkpt lat="48.59168" lon="2.0381">
        <ele>129</ele>
        <time>2018-08-18T08:40:35Z</time>
      </trkpt>
      <trkpt lat="48.59168" lon="2.038">
        <ele>129</ele>
        <time>2018-08-18T08:40:39Z</time>
      </trkpt>
      <trkpt lat="48.59168" lon="2.03788">
        <ele>129</ele>
        <time>2018-08-18T08:40:43Z</time>
      </trkpt>
      <trkpt lat="48.59169" lon="2.03781">
        <ele>129</ele>
        <time>2018-08-18T08:40:47Z</time>
      </trkpt>
      <trkpt lat="48.5917" lon="2.03775">
        <ele>129</ele>
        <time>2018-08-18T08:40:52Z</time>
      </trkpt>
      <trkpt lat="48.5917" lon="2.03765">
        <ele>129</ele>
        <time>2018-08-18T08:40:57Z</time>
      </trkpt>
      <trkpt lat="48.59171" lon="2.03755">
        <ele>127</ele>
        <time>2018-08-18T08:41:01Z</time>
      </trkpt>
      <trkpt lat="48.5917" lon="2.03746">
        <ele>125</ele>
        <time>2018-08-18T08:41:05Z</time>
      </trkpt>
      <trkpt lat="48.59169" lon="2.03735">
        <ele>125</ele>
        <time>2018-08-18T08:41:09Z</time>
      </trkpt>
      <trkpt lat="48.59169" lon="2.03725">
        <ele>125</ele>
        <time>2018-08-18T08:41:13Z</time>
      </trkpt>
      <trkpt lat="48.59168" lon="2.03711">
        <ele>125</ele>
        <time>2018-08-18T08:41:17Z</time>
      </trkpt>
      <trkpt lat="48.59167" lon="2.03699">
        <ele>125</ele>
        <time>2018-08-18T08:41:21Z</time>
      </trkpt>
      <trkpt lat="48.59168" lon="2.0369">
        <ele>125</ele>
        <time>2018-08-18T08:41:25Z</time>
      </trkpt>
      <trkpt lat="48.59168" lon="2.03678">
        <ele>125</ele>
        <time>2018-08-18T08:41:29Z</time>
      </trkpt>
      <trkpt lat="48.59168" lon="2.03667">
        <ele>127</ele>
        <time>2018-08-18T08:41:33Z</time>
      </trkpt>
      <trkpt lat="48.59168" lon="2.03656">
        <ele>128</ele>
        <time>2018-08-18T08:41:37Z</time>
      </trkpt>
      <trkpt lat="48.59168" lon="2.03645">
        <ele>130</ele>
        <time>2018-08-18T08:41:41Z</time>
      </trkpt>
      <trkpt lat="48.5917" lon="2.03637">
        <ele>130</ele>
        <time>2018-08-18T08:41:45Z</time>
      </trkpt>
      <trkpt lat="48.5917" lon="2.03628">
        <ele>130</ele>
        <time>2018-08-18T08:41:49Z</time>
      </trkpt>
      <trkpt lat="48.59172" lon="2.03622">
        <ele>130</ele>
        <time>2018-08-18T08:41:53Z</time>
      </trkpt>
      <trkpt lat="48.59172" lon="2.03614">
        <ele>130</ele>
        <time>2018-08-18T08:41:57Z</time>
      </trkpt>
      <trkpt lat="48.5917" lon="2.03604">
        <ele>129</ele>
        <time>2018-08-18T08:42:02Z</time>
      </trkpt>
      <trkpt lat="48.59169" lon="2.03598">
        <ele>128</ele>
        <time>2018-08-18T08:42:06Z</time>
      </trkpt>
      <trkpt lat="48.59171" lon="2.03594">
        <ele>128</ele>
        <time>2018-08-18T08:42:12Z</time>
      </trkpt>
      <trkpt lat="48.59172" lon="2.0359">
        <ele>128</ele>
        <time>2018-08-18T08:42:16Z</time>
      </trkpt>
      <trkpt lat="48.59172" lon="2.03584">
        <ele>128</ele>
        <time>2018-08-18T08:42:20Z</time>
      </trkpt>
      <trkpt lat="48.59173" lon="2.03576">
        <ele>127</ele>
        <time>2018-08-18T08:42:25Z</time>
      </trkpt>
      <trkpt lat="48.59173" lon="2.03569">
        <ele>127</ele>
        <time>2018-08-18T08:42:29Z</time>
      </trkpt>
      <trkpt lat="48.59174" lon="2.03561">
        <ele>126</ele>
        <time>2018-08-18T08:42:34Z</time>
      </trkpt>
      <trkpt lat="48.59173" lon="2.03552">
        <ele>125</ele>
        <time>2018-08-18T08:42:38Z</time>
      </trkpt>
      <trkpt lat="48.59174" lon="2.03544">
        <ele>124</ele>
        <time>2018-08-18T08:42:42Z</time>
      </trkpt>
      <trkpt lat="48.59174" lon="2.03535">
        <ele>123</ele>
        <time>2018-08-18T08:42:47Z</time>
      </trkpt>
      <trkpt lat="48.59175" lon="2.03527">
        <ele>122</ele>
        <time>2018-08-18T08:42:51Z</time>
      </trkpt>
      <trkpt lat="48.59174" lon="2.03517">
        <ele>122</ele>
        <time>2018-08-18T08:42:55Z</time>
      </trkpt>
      <trkpt lat="48.59173" lon="2.03505">
        <ele>122</ele>
        <time>2018-08-18T08:42:59Z</time>
      </trkpt>
      <trkpt lat="48.59174" lon="2.03495">
        <ele>121</ele>
        <time>2018-08-18T08:43:04Z</time>
      </trkpt>
      <trkpt lat="48.59173" lon="2.03486">
        <ele>120</ele>
        <time>2018-08-18T08:43:08Z</time>
      </trkpt>
      <trkpt lat="48.59174" lon="2.03479">
        <ele>120</ele>
        <time>2018-08-18T08:43:12Z</time>
      </trkpt>
      <trkpt lat="48.59174" lon="2.03471">
        <ele>118</ele>
        <time>2018-08-18T08:43:16Z</time>
      </trkpt>
      <trkpt lat="48.59172" lon="2.03463">
        <ele>118</ele>
        <time>2018-08-18T08:43:20Z</time>
      </trkpt>
      <trkpt lat="48.59171" lon="2.03454">
        <ele>118</ele>
        <time>2018-08-18T08:43:24Z</time>
      </trkpt>
      <trkpt lat="48.59171" lon="2.03445">
        <ele>117</ele>
        <time>2018-08-18T08:43:28Z</time>
      </trkpt>
      <trkpt lat="48.5917" lon="2.03437">
        <ele>117</ele>
        <time>2018-08-18T08:43:32Z</time>
      </trkpt>
      <trkpt lat="48.59169" lon="2.03427">
        <ele>117</ele>
        <time>2018-08-18T08:43:37Z</time>
      </trkpt>
      <trkpt lat="48.59168" lon="2.03417">
        <ele>117</ele>
        <time>2018-08-18T08:43:41Z</time>
      </trkpt>
      <trkpt lat="48.59166" lon="2.03408">
        <ele>117</ele>
        <time>2018-08-18T08:43:45Z</time>
      </trkpt>
      <trkpt lat="48.59166" lon="2.03399">
        <ele>117</ele>
        <time>2018-08-18T08:43:49Z</time>
      </trkpt>
      <trkpt lat="48.59164" lon="2.0339">
        <ele>117</ele>
        <time>2018-08-18T08:43:53Z</time>
      </trkpt>
      <trkpt lat="48.59163" lon="2.03379">
        <ele>117</ele>
        <time>2018-08-18T08:43:57Z</time>
      </trkpt>
      <trkpt lat="48.59163" lon="2.0337">
        <ele>117</ele>
        <time>2018-08-18T08:44:01Z</time>
      </trkpt>
      <trkpt lat="48.59163" lon="2.03361">
        <ele>117</ele>
        <time>2018-08-18T08:44:05Z</time>
      </trkpt>
      <trkpt lat="48.59163" lon="2.03353">
        <ele>117</ele>
        <time>2018-08-18T08:44:09Z</time>
      </trkpt>
      <trkpt lat="48.59162" lon="2.03341">
        <ele>117</ele>
        <time>2018-08-18T08:44:13Z</time>
      </trkpt>
      <trkpt lat="48.59162" lon="2.03334">
        <ele>117</ele>
        <time>2018-08-18T08:44:17Z</time>
      </trkpt>
      <trkpt lat="48.59162" lon="2.03323">
        <ele>117</ele>
        <time>2018-08-18T08:44:21Z</time>
      </trkpt>
      <trkpt lat="48.59161" lon="2.03312">
        <ele>117</ele>
        <time>2018-08-18T08:44:25Z</time>
      </trkpt>
      <trkpt lat="48.5916" lon="2.03302">
        <ele>118</ele>
        <time>2018-08-18T08:44:29Z</time>
      </trkpt>
      <trkpt lat="48.5916" lon="2.03293">
        <ele>118</ele>
        <time>2018-08-18T08:44:33Z</time>
      </trkpt>
      <trkpt lat="48.5916" lon="2.03282">
        <ele>118</ele>
        <time>2018-08-18T08:44:37Z</time>
      </trkpt>
      <trkpt lat="48.59158" lon="2.03266">
        <ele>118</ele>
        <time>2018-08-18T08:44:41Z</time>
      </trkpt>
      <trkpt lat="48.59157" lon="2.03251">
        <ele>118</ele>
        <time>2018-08-18T08:44:45Z</time>
      </trkpt>
      <trkpt lat="48.59157" lon="2.03231">
        <ele>118</ele>
        <time>2018-08-18T08:44:49Z</time>
      </trkpt>
      <trkpt lat="48.59155" lon="2.03211">
        <ele>118</ele>
        <time>2018-08-18T08:44:53Z</time>
      </trkpt>
      <trkpt lat="48.59156" lon="2.03201">
        <ele>118</ele>
        <time>2018-08-18T08:44:57Z</time>
      </trkpt>
      <trkpt lat="48.59156" lon="2.03177">
        <ele>118</ele>
        <time>2018-08-18T08:45:01Z</time>
      </trkpt>
      <trkpt lat="48.59154" lon="2.03154">
        <ele>118</ele>
        <time>2018-08-18T08:45:05Z</time>
      </trkpt>
      <trkpt lat="48.59154" lon="2.0313">
        <ele>118</ele>
        <time>2018-08-18T08:45:09Z</time>
      </trkpt>
      <trkpt lat="48.59154" lon="2.03108">
        <ele>118</ele>
        <time>2018-08-18T08:45:13Z</time>
      </trkpt>
      <trkpt lat="48.59153" lon="2.03086">
        <ele>118</ele>
        <time>2018-08-18T08:45:17Z</time>
      </trkpt>
      <trkpt lat="48.59151" lon="2.03065">
        <ele>118</ele>
        <time>2018-08-18T08:45:21Z</time>
      </trkpt>
      <trkpt lat="48.5915" lon="2.03043">
        <ele>118</ele>
        <time>2018-08-18T08:45:25Z</time>
      </trkpt>
      <trkpt lat="48.59148" lon="2.03023">
        <ele>118</ele>
        <time>2018-08-18T08:45:29Z</time>
      </trkpt>
      <trkpt lat="48.59147" lon="2.03001">
        <ele>118</ele>
        <time>2018-08-18T08:45:33Z</time>
      </trkpt>
      <trkpt lat="48.59145" lon="2.0298">
        <ele>118</ele>
        <time>2018-08-18T08:45:37Z</time>
      </trkpt>
      <trkpt lat="48.59144" lon="2.02958">
        <ele>118</ele>
        <time>2018-08-18T08:45:41Z</time>
      </trkpt>
      <trkpt lat="48.59143" lon="2.02936">
        <ele>118</ele>
        <time>2018-08-18T08:45:45Z</time>
      </trkpt>
      <trkpt lat="48.59142" lon="2.02915">
        <ele>118</ele>
        <time>2018-08-18T08:45:49Z</time>
      </trkpt>
      <trkpt lat="48.59142" lon="2.02893">
        <ele>118</ele>
        <time>2018-08-18T08:45:53Z</time>
      </trkpt>
      <trkpt lat="48.59141" lon="2.02871">
        <ele>118</ele>
        <time>2018-08-18T08:45:57Z</time>
      </trkpt>
      <trkpt lat="48.59141" lon="2.02849">
        <ele>118</ele>
        <time>2018-08-18T08:46:01Z</time>
      </trkpt>
      <trkpt lat="48.59142" lon="2.02829">
        <ele>118</ele>
        <time>2018-08-18T08:46:05Z</time>
      </trkpt>
      <trkpt lat="48.59141" lon="2.02806">
        <ele>119</ele>
        <time>2018-08-18T08:46:09Z</time>
      </trkpt>
      <trkpt lat="48.59141" lon="2.02779">
        <ele>122</ele>
        <time>2018-08-18T08:46:13Z</time>
      </trkpt>
      <trkpt lat="48.59142" lon="2.02751">
        <ele>126</ele>
        <time>2018-08-18T08:46:17Z</time>
      </trkpt>
      <trkpt lat="48.59144" lon="2.02723">
        <ele>130</ele>
        <time>2018-08-18T08:46:21Z</time>
      </trkpt>
      <trkpt lat="48.59146" lon="2.02699">
        <ele>134</ele>
        <time>2018-08-18T08:46:25Z</time>
      </trkpt>
      <trkpt lat="48.59148" lon="2.02669">
        <ele>136</ele>
        <time>2018-08-18T08:46:29Z</time>
      </trkpt>
      <trkpt lat="48.5915" lon="2.02644">
        <ele>138</ele>
        <time>2018-08-18T08:46:33Z</time>
      </trkpt>
      <trkpt lat="48.59153" lon="2.02622">
        <ele>138</ele>
        <time>2018-08-18T08:46:37Z</time>
      </trkpt>
      <trkpt lat="48.59154" lon="2.02596">
        <ele>140</ele>
        <time>2018-08-18T08:46:41Z</time>
      </trkpt>
      <trkpt lat="48.59156" lon="2.02573">
        <ele>141</ele>
        <time>2018-08-18T08:46:45Z</time>
      </trkpt>
      <trkpt lat="48.59159" lon="2.02553">
        <ele>141</ele>
        <time>2018-08-18T08:46:49Z</time>
      </trkpt>
      <trkpt lat="48.59161" lon="2.02532">
        <ele>141</ele>
        <time>2018-08-18T08:46:53Z</time>
      </trkpt>
      <trkpt lat="48.59163" lon="2.02507">
        <ele>141</ele>
        <time>2018-08-18T08:46:57Z</time>
      </trkpt>
      <trkpt lat="48.59164" lon="2.02485">
        <ele>140</ele>
        <time>2018-08-18T08:47:01Z</time>
      </trkpt>
      <trkpt lat="48.59166" lon="2.02463">
        <ele>139</ele>
        <time>2018-08-18T08:47:05Z</time>
      </trkpt>
      <trkpt lat="48.59172" lon="2.02441">
        <ele>136</ele>
        <time>2018-08-18T08:47:09Z</time>
      </trkpt>
      <trkpt lat="48.59174" lon="2.02422">
        <ele>130</ele>
        <time>2018-08-18T08:47:13Z</time>
      </trkpt>
      <trkpt lat="48.59173" lon="2.02402">
        <ele>122</ele>
        <time>2018-08-18T08:47:17Z</time>
      </trkpt>
      <trkpt lat="48.59174" lon="2.02383">
        <ele>114</ele>
        <time>2018-08-18T08:47:21Z</time>
      </trkpt>
      <trkpt lat="48.59176" lon="2.02368">
        <ele>106</ele>
        <time>2018-08-18T08:47:25Z</time>
      </trkpt>
      <trkpt lat="48.5918" lon="2.02354">
        <ele>98</ele>
        <time>2018-08-18T08:47:29Z</time>
      </trkpt>
      <trkpt lat="48.59184" lon="2.02337">
        <ele>89</ele>
        <time>2018-08-18T08:47:33Z</time>
      </trkpt>
      <trkpt lat="48.59185" lon="2.02316">
        <ele>80</ele>
        <time>2018-08-18T08:47:37Z</time>
      </trkpt>
      <trkpt lat="48.59189" lon="2.02296">
        <ele>71</ele>
        <time>2018-08-18T08:47:41Z</time>
      </trkpt>
      <trkpt lat="48.59192" lon="2.02281">
        <ele>63</ele>
        <time>2018-08-18T08:47:45Z</time>
      </trkpt>
      <trkpt lat="48.59195" lon="2.02263">
        <ele>55</ele>
        <time>2018-08-18T08:47:49Z</time>
      </trkpt>
      <trkpt lat="48.59197" lon="2.02246">
        <ele>47</ele>
        <time>2018-08-18T08:47:53Z</time>
      </trkpt>
      <trkpt lat="48.59198" lon="2.02233">
        <ele>39</ele>
        <time>2018-08-18T08:47:57Z</time>
      </trkpt>
      <trkpt lat="48.592" lon="2.02217">
        <ele>31</ele>
        <time>2018-08-18T08:48:01Z</time>
      </trkpt>
      <trkpt lat="48.59199" lon="2.02203">
        <ele>27</ele>
        <time>2018-08-18T08:48:05Z</time>
      </trkpt>
      <trkpt lat="48.59197" lon="2.02184">
        <ele>22</ele>
        <time>2018-08-18T08:48:09Z</time>
      </trkpt>
      <trkpt lat="48.59195" lon="2.02169">
        <ele>19</ele>
        <time>2018-08-18T08:48:13Z</time>
      </trkpt>
      <trkpt lat="48.59192" lon="2.02146">
        <ele>18</ele>
        <time>2018-08-18T08:48:17Z</time>
      </trkpt>
      <trkpt lat="48.59188" lon="2.02125">
        <ele>18</ele>
        <time>2018-08-18T08:48:21Z</time>
      </trkpt>
      <trkpt lat="48.59186" lon="2.02114">
        <ele>18</ele>
        <time>2018-08-18T08:48:25Z</time>
      </trkpt>
      <trkpt lat="48.59184" lon="2.02098">
        <ele>18</ele>
        <time>2018-08-18T08:48:29Z</time>
      </trkpt>
      <trkpt lat="48.59182" lon="2.02086">
        <ele>17</ele>
        <time>2018-08-18T08:48:33Z</time>
      </trkpt>
      <trkpt lat="48.5918" lon="2.02076">
        <ele>16</ele>
        <time>2018-08-18T08:48:37Z</time>
      </trkpt>
      <trkpt lat="48.59177" lon="2.0206">
        <ele>16</ele>
        <time>2018-08-18T08:48:41Z</time>
      </trkpt>
      <trkpt lat="48.59173" lon="2.02048">
        <ele>20</ele>
        <time>2018-08-18T08:48:45Z</time>
      </trkpt>
      <trkpt lat="48.5917" lon="2.02037">
        <ele>24</ele>
        <time>2018-08-18T08:48:49Z</time>
      </trkpt>
      <trkpt lat="48.59156" lon="2.02007">
        <ele>30</ele>
        <time>2018-08-18T08:48:53Z</time>
      </trkpt>
      <trkpt lat="48.5915" lon="2.01991">
        <ele>42</ele>
        <time>2018-08-18T08:48:57Z</time>
      </trkpt>
      <trkpt lat="48.59145" lon="2.01976">
        <ele>52</ele>
        <time>2018-08-18T08:49:01Z</time>
      </trkpt>
      <trkpt lat="48.59144" lon="2.01969">
        <ele>62</ele>
        <time>2018-08-18T08:49:06Z</time>
      </trkpt>
      <trkpt lat="48.5914" lon="2.0196">
        <ele>67</ele>
        <time>2018-08-18T08:49:10Z</time>
      </trkpt>
      <trkpt lat="48.59136" lon="2.01949">
        <ele>73</ele>
        <time>2018-08-18T08:49:14Z</time>
      </trkpt>
      <trkpt lat="48.59132" lon="2.01938">
        <ele>78</ele>
        <time>2018-08-18T08:49:18Z</time>
      </trkpt>
      <trkpt lat="48.59128" lon="2.01927">
        <ele>82</ele>
        <time>2018-08-18T08:49:22Z</time>
      </trkpt>
      <trkpt lat="48.59124" lon="2.0192">
        <ele>86</ele>
        <time>2018-08-18T08:49:26Z</time>
      </trkpt>
      <trkpt lat="48.5912" lon="2.01912">
        <ele>90</ele>
        <time>2018-08-18T08:49:30Z</time>
      </trkpt>
      <trkpt lat="48.59116" lon="2.01904">
        <ele>91</ele>
        <time>2018-08-18T08:49:34Z</time>
      </trkpt>
      <trkpt lat="48.59113" lon="2.01896">
        <ele>92</ele>
        <time>2018-08-18T08:49:38Z</time>
      </trkpt>
      <trkpt lat="48.5911" lon="2.01888">
        <ele>93</ele>
        <time>2018-08-18T08:49:42Z</time>
      </trkpt>
      <trkpt lat="48.59107" lon="2.01882">
        <ele>93</ele>
        <time>2018-08-18T08:49:46Z</time>
      </trkpt>
      <trkpt lat="48.59104" lon="2.01875">
        <ele>93</ele>
        <time>2018-08-18T08:49:50Z</time>
      </trkpt>
      <trkpt lat="48.591" lon="2.01865">
        <ele>93</ele>
        <time>2018-08-18T08:49:55Z</time>
      </trkpt>
      <trkpt lat="48.59098" lon="2.01858">
        <ele>93</ele>
        <time>2018-08-18T08:49:59Z</time>
      </trkpt>
      <trkpt lat="48.59096" lon="2.01852">
        <ele>93</ele>
        <time>2018-08-18T08:50:03Z</time>
      </trkpt>
      <trkpt lat="48.59094" lon="2.01846">
        <ele>93</ele>
        <time>2018-08-18T08:50:07Z</time>
      </trkpt>
      <trkpt lat="48.59091" lon="2.01838">
        <ele>93</ele>
        <time>2018-08-18T08:50:11Z</time>
      </trkpt>
      <trkpt lat="48.59088" lon="2.01829">
        <ele>93</ele>
        <time>2018-08-18T08:50:15Z</time>
      </trkpt>
      <trkpt lat="48.59085" lon="2.01819">
        <ele>93</ele>
        <time>2018-08-18T08:50:19Z</time>
      </trkpt>
      <trkpt lat="48.59082" lon="2.0181">
        <ele>94</ele>
        <time>2018-08-18T08:50:23Z</time>
      </trkpt>
      <trkpt lat="48.5908" lon="2.01801">
        <ele>94</ele>
        <time>2018-08-18T08:50:27Z</time>
      </trkpt>
      <trkpt lat="48.59078" lon="2.01792">
        <ele>94</ele>
        <time>2018-08-18T08:50:31Z</time>
      </trkpt>
      <trkpt lat="48.59076" lon="2.01784">
        <ele>94</ele>
        <time>2018-08-18T08:50:35Z</time>
      </trkpt>
      <trkpt lat="48.59074" lon="2.01776">
        <ele>94</ele>
        <time>2018-08-18T08:50:39Z</time>
      </trkpt>
      <trkpt lat="48.59073" lon="2.01767">
        <ele>94</ele>
        <time>2018-08-18T08:50:43Z</time>
      </trkpt>
      <trkpt lat="48.59073" lon="2.01758">
        <ele>94</ele>
        <time>2018-08-18T08:50:47Z</time>
      </trkpt>
      <trkpt lat="48.59073" lon="2.01749">
        <ele>94</ele>
        <time>2018-08-18T08:50:51Z</time>
      </trkpt>
      <trkpt lat="48.59074" lon="2.0174">
        <ele>94</ele>
        <time>2018-08-18T08:50:55Z</time>
      </trkpt>
      <trkpt lat="48.59073" lon="2.01731">
        <ele>94</ele>
        <time>2018-08-18T08:50:59Z</time>
      </trkpt>
      <trkpt lat="48.59073" lon="2.01721">
        <ele>94</ele>
        <time>2018-08-18T08:51:03Z</time>
      </trkpt>
      <trkpt lat="48.59073" lon="2.01712">
        <ele>94</ele>
        <time>2018-08-18T08:51:07Z</time>
      </trkpt>
      <trkpt lat="48.59073" lon="2.01704">
        <ele>94</ele>
        <time>2018-08-18T08:51:11Z</time>
      </trkpt>
      <trkpt lat="48.59074" lon="2.01695">
        <ele>94</ele>
        <time>2018-08-18T08:51:15Z</time>
      </trkpt>
      <trkpt lat="48.59073" lon="2.01686">
        <ele>94</ele>
        <time>2018-08-18T08:51:19Z</time>
      </trkpt>
      <trkpt lat="48.59074" lon="2.01678">
        <ele>94</ele>
        <time>2018-08-18T08:51:23Z</time>
      </trkpt>
      <trkpt lat="48.59072" lon="2.01666">
        <ele>94</ele>
        <time>2018-08-18T08:51:27Z</time>
      </trkpt>
      <trkpt lat="48.59072" lon="2.01656">
        <ele>94</ele>
        <time>2018-08-18T08:51:31Z</time>
      </trkpt>
      <trkpt lat="48.59073" lon="2.01648">
        <ele>94</ele>
        <time>2018-08-18T08:51:35Z</time>
      </trkpt>
      <trkpt lat="48.59074" lon="2.01641">
        <ele>94</ele>
        <time>2018-08-18T08:51:39Z</time>
      </trkpt>
      <trkpt lat="48.59074" lon="2.01634">
        <ele>93</ele>
        <time>2018-08-18T08:51:43Z</time>
      </trkpt>
      <trkpt lat="48.59073" lon="2.01625">
        <ele>92</ele>
        <time>2018-08-18T08:51:47Z</time>
      </trkpt>
      <trkpt lat="48.59071" lon="2.01617">
        <ele>92</ele>
        <time>2018-08-18T08:51:51Z</time>
      </trkpt>
      <trkpt lat="48.59069" lon="2.01608">
        <ele>91</ele>
        <time>2018-08-18T08:51:55Z</time>
      </trkpt>
      <trkpt lat="48.59067" lon="2.016">
        <ele>91</ele>
        <time>2018-08-18T08:51:59Z</time>
      </trkpt>
      <trkpt lat="48.59065" lon="2.01593">
        <ele>90</ele>
        <time>2018-08-18T08:52:03Z</time>
      </trkpt>
      <trkpt lat="48.59062" lon="2.01586">
        <ele>90</ele>
        <time>2018-08-18T08:52:07Z</time>
      </trkpt>
      <trkpt lat="48.59059" lon="2.0158">
        <ele>90</ele>
        <time>2018-08-18T08:52:11Z</time>
      </trkpt>
      <trkpt lat="48.59055" lon="2.01573">
        <ele>89</ele>
        <time>2018-08-18T08:52:15Z</time>
      </trkpt>
      <trkpt lat="48.59052" lon="2.01567">
        <ele>89</ele>
        <time>2018-08-18T08:52:19Z</time>
      </trkpt>
      <trkpt lat="48.59049" lon="2.01561">
        <ele>89</ele>
        <time>2018-08-18T08:52:23Z</time>
      </trkpt>
      <trkpt lat="48.59045" lon="2.01554">
        <ele>88</ele>
        <time>2018-08-18T08:52:27Z</time>
      </trkpt>
      <trkpt lat="48.59041" lon="2.01547">
        <ele>88</ele>
        <time>2018-08-18T08:52:31Z</time>
      </trkpt>
      <trkpt lat="48.59038" lon="2.01539">
        <ele>87</ele>
        <time>2018-08-18T08:52:35Z</time>
      </trkpt>
      <trkpt lat="48.59035" lon="2.01532">
        <ele>87</ele>
        <time>2018-08-18T08:52:39Z</time>
      </trkpt>
      <trkpt lat="48.59032" lon="2.01525">
        <ele>87</ele>
        <time>2018-08-18T08:52:43Z</time>
      </trkpt>
      <trkpt lat="48.59029" lon="2.01518">
        <ele>87</ele>
        <time>2018-08-18T08:52:47Z</time>
      </trkpt>
      <trkpt lat="48.59026" lon="2.0151">
        <ele>87</ele>
        <time>2018-08-18T08:52:51Z</time>
      </trkpt>
      <trkpt lat="48.59024" lon="2.01503">
        <ele>87</ele>
        <time>2018-08-18T08:52:55Z</time>
      </trkpt>
      <trkpt lat="48.59022" lon="2.01495">
        <ele>87</ele>
        <time>2018-08-18T08:52:59Z</time>
      </trkpt>
      <trkpt lat="48.59021" lon="2.01486">
        <ele>86</ele>
        <time>2018-08-18T08:53:03Z</time>
      </trkpt>
      <trkpt lat="48.59019" lon="2.01478">
        <ele>85</ele>
        <time>2018-08-18T08:53:07Z</time>
      </trkpt>
      <trkpt lat="48.59017" lon="2.0147">
        <ele>84</ele>
        <time>2018-08-18T08:53:11Z</time>
      </trkpt>
      <trkpt lat="48.59016" lon="2.01461">
        <ele>84</ele>
        <time>2018-08-18T08:53:15Z</time>
      </trkpt>
      <trkpt lat="48.59016" lon="2.01453">
        <ele>84</ele>
        <time>2018-08-18T08:53:19Z</time>
      </trkpt>
      <trkpt lat="48.59014" lon="2.01445">
        <ele>84</ele>
        <time>2018-08-18T08:53:23Z</time>
      </trkpt>
      <trkpt lat="48.59013" lon="2.01439">
        <ele>84</ele>
        <time>2018-08-18T08:53:27Z</time>
      </trkpt>
      <trkpt lat="48.59011" lon="2.01432">
        <ele>83</ele>
        <time>2018-08-18T08:53:31Z</time>
      </trkpt>
      <trkpt lat="48.59009" lon="2.01424">
        <ele>83</ele>
        <time>2018-08-18T08:53:35Z</time>
      </trkpt>
      <trkpt lat="48.59008" lon="2.01415">
        <ele>83</ele>
        <time>2018-08-18T08:53:39Z</time>
      </trkpt>
      <trkpt lat="48.59006" lon="2.01407">
        <ele>82</ele>
        <time>2018-08-18T08:53:43Z</time>
      </trkpt>
      <trkpt lat="48.59005" lon="2.01398">
        <ele>82</ele>
        <time>2018-08-18T08:53:47Z</time>
      </trkpt>
      <trkpt lat="48.59003" lon="2.01389">
        <ele>82</ele>
        <time>2018-08-18T08:53:51Z</time>
      </trkpt>
      <trkpt lat="48.59002" lon="2.01382">
        <ele>82</ele>
        <time>2018-08-18T08:53:55Z</time>
      </trkpt>
      <trkpt lat="48.58999" lon="2.01373">
        <ele>82</ele>
        <time>2018-08-18T08:53:59Z</time>
      </trkpt>
      <trkpt lat="48.58997" lon="2.01364">
        <ele>82</ele>
        <time>2018-08-18T08:54:03Z</time>
      </trkpt>
      <trkpt lat="48.58995" lon="2.01356">
        <ele>82</ele>
        <time>2018-08-18T08:54:07Z</time>
      </trkpt>
      <trkpt lat="48.58993" lon="2.01347">
        <ele>82</ele>
        <time>2018-08-18T08:54:11Z</time>
      </trkpt>
      <trkpt lat="48.58991" lon="2.01338">
        <ele>82</ele>
        <time>2018-08-18T08:54:15Z</time>
      </trkpt>
      <trkpt lat="48.5899" lon="2.0133">
        <ele>82</ele>
        <time>2018-08-18T08:54:19Z</time>
      </trkpt>
      <trkpt lat="48.58989" lon="2.01322">
        <ele>82</ele>
        <time>2018-08-18T08:54:23Z</time>
      </trkpt>
      <trkpt lat="48.58987" lon="2.01313">
        <ele>82</ele>
        <time>2018-08-18T08:54:27Z</time>
      </trkpt>
      <trkpt lat="48.58985" lon="2.01305">
        <ele>82</ele>
        <time>2018-08-18T08:54:31Z</time>
      </trkpt>
      <trkpt lat="48.58984" lon="2.01296">
        <ele>82</ele>
        <time>2018-08-18T08:54:35Z</time>
      </trkpt>
      <trkpt lat="48.58982" lon="2.01288">
        <ele>82</ele>
        <time>2018-08-18T08:54:39Z</time>
      </trkpt>
      <trkpt lat="48.58981" lon="2.0128">
        <ele>82</ele>
        <time>2018-08-18T08:54:43Z</time>
      </trkpt>
      <trkpt lat="48.58979" lon="2.01271">
        <ele>82</ele>
        <time>2018-08-18T08:54:47Z</time>
      </trkpt>
      <trkpt lat="48.58977" lon="2.01262">
        <ele>82</ele>
        <time>2018-08-18T08:54:51Z</time>
      </trkpt>
      <trkpt lat="48.58976" lon="2.01254">
        <ele>82</ele>
        <time>2018-08-18T08:54:55Z</time>
      </trkpt>
      <trkpt lat="48.58975" lon="2.01245">
        <ele>82</ele>
        <time>2018-08-18T08:54:59Z</time>
      </trkpt>
      <trkpt lat="48.58973" lon="2.01236">
        <ele>82</ele>
        <time>2018-08-18T08:55:03Z</time>
      </trkpt>
      <trkpt lat="48.58971" lon="2.01227">
        <ele>83</ele>
        <time>2018-08-18T08:55:07Z</time>
      </trkpt>
      <trkpt lat="48.58969" lon="2.01218">
        <ele>83</ele>
        <time>2018-08-18T08:55:11Z</time>
      </trkpt>
      <trkpt lat="48.58968" lon="2.0121">
        <ele>83</ele>
        <time>2018-08-18T08:55:15Z</time>
      </trkpt>
      <trkpt lat="48.58968" lon="2.01202">
        <ele>83</ele>
        <time>2018-08-18T08:55:19Z</time>
      </trkpt>
      <trkpt lat="48.58966" lon="2.01193">
        <ele>83</ele>
        <time>2018-08-18T08:55:23Z</time>
      </trkpt>
      <trkpt lat="48.58965" lon="2.01185">
        <ele>83</ele>
        <time>2018-08-18T08:55:27Z</time>
      </trkpt>
      <trkpt lat="48.58964" lon="2.01176">
        <ele>83</ele>
        <time>2018-08-18T08:55:31Z</time>
      </trkpt>
      <trkpt lat="48.58963" lon="2.01167">
        <ele>83</ele>
        <time>2018-08-18T08:55:35Z</time>
      </trkpt>
      <trkpt lat="48.58962" lon="2.01158">
        <ele>83</ele>
        <time>2018-08-18T08:55:39Z</time>
      </trkpt>
      <trkpt lat="48.5896" lon="2.0115">
        <ele>83</ele>
        <time>2018-08-18T08:55:43Z</time>
      </trkpt>
      <trkpt lat="48.58959" lon="2.01141">
        <ele>83</ele>
        <time>2018-08-18T08:55:47Z</time>
      </trkpt>
      <trkpt lat="48.58958" lon="2.01132">
        <ele>83</ele>
        <time>2018-08-18T08:55:51Z</time>
      </trkpt>
      <trkpt lat="48.58956" lon="2.01124">
        <ele>83</ele>
        <time>2018-08-18T08:55:55Z</time>
      </trkpt>
      <trkpt lat="48.58955" lon="2.01115">
        <ele>83</ele>
        <time>2018-08-18T08:55:59Z</time>
      </trkpt>
      <trkpt lat="48.58953" lon="2.01107">
        <ele>83</ele>
        <time>2018-08-18T08:56:03Z</time>
      </trkpt>
      <trkpt lat="48.58952" lon="2.01099">
        <ele>83</ele>
        <time>2018-08-18T08:56:07Z</time>
      </trkpt>
      <trkpt lat="48.5895" lon="2.01091">
        <ele>83</ele>
        <time>2018-08-18T08:56:11Z</time>
      </trkpt>
      <trkpt lat="48.58949" lon="2.01082">
        <ele>83</ele>
        <time>2018-08-18T08:56:15Z</time>
      </trkpt>
      <trkpt lat="48.58947" lon="2.01074">
        <ele>83</ele>
        <time>2018-08-18T08:56:19Z</time>
      </trkpt>
      <trkpt lat="48.58946" lon="2.01065">
        <ele>83</ele>
        <time>2018-08-18T08:56:23Z</time>
      </trkpt>
      <trkpt lat="48.58944" lon="2.01056">
        <ele>83</ele>
        <time>2018-08-18T08:56:27Z</time>
      </trkpt>
      <trkpt lat="48.58943" lon="2.01048">
        <ele>83</ele>
        <time>2018-08-18T08:56:31Z</time>
      </trkpt>
      <trkpt lat="48.58942" lon="2.01039">
        <ele>83</ele>
        <time>2018-08-18T08:56:35Z</time>
      </trkpt>
      <trkpt lat="48.58941" lon="2.0103">
        <ele>83</ele>
        <time>2018-08-18T08:56:39Z</time>
      </trkpt>
      <trkpt lat="48.58942" lon="2.01023">
        <ele>84</ele>
        <time>2018-08-18T08:56:43Z</time>
      </trkpt>
      <trkpt lat="48.58943" lon="2.01018">
        <ele>86</ele>
        <time>2018-08-18T08:56:47Z</time>
      </trkpt>
      <trkpt lat="48.58949" lon="2.01022">
        <ele>86</ele>
        <time>2018-08-18T08:56:52Z</time>
      </trkpt>
      <trkpt lat="48.58955" lon="2.01026">
        <ele>86</ele>
        <time>2018-08-18T08:56:56Z</time>
      </trkpt>
      <trkpt lat="48.58962" lon="2.01029">
        <ele>86</ele>
        <time>2018-08-18T08:57:00Z</time>
      </trkpt>
      <trkpt lat="48.58968" lon="2.01032">
        <ele>88</ele>
        <time>2018-08-18T08:57:04Z</time>
      </trkpt>
      <trkpt lat="48.58974" lon="2.01034">
        <ele>89</ele>
        <time>2018-08-18T08:57:08Z</time>
      </trkpt>
      <trkpt lat="48.5898" lon="2.01036">
        <ele>89</ele>
        <time>2018-08-18T08:57:12Z</time>
      </trkpt>
      <trkpt lat="48.58984" lon="2.01036">
        <ele>89</ele>
        <time>2018-08-18T08:57:16Z</time>
      </trkpt>
      <trkpt lat="48.58989" lon="2.01036">
        <ele>89</ele>
        <time>2018-08-18T08:57:20Z</time>
      </trkpt>
      <trkpt lat="48.58999" lon="2.01034">
        <ele>90</ele>
        <time>2018-08-18T08:57:24Z</time>
      </trkpt>
      <trkpt lat="48.59008" lon="2.01031">
        <ele>92</ele>
        <time>2018-08-18T08:57:28Z</time>
      </trkpt>
      <trkpt lat="48.59014" lon="2.01029">
        <ele>93</ele>
        <time>2018-08-18T08:57:33Z</time>
      </trkpt>
      <trkpt lat="48.59019" lon="2.01028">
        <ele>93</ele>
        <time>2018-08-18T08:57:38Z</time>
      </trkpt>
      <trkpt lat="48.59025" lon="2.01025">
        <ele>93</ele>
        <time>2018-08-18T08:57:42Z</time>
      </trkpt>
      <trkpt lat="48.59031" lon="2.01021">
        <ele>93</ele>
        <time>2018-08-18T08:57:46Z</time>
      </trkpt>
      <trkpt lat="48.59039" lon="2.01019">
        <ele>93</ele>
        <time>2018-08-18T08:57:51Z</time>
      </trkpt>
      <trkpt lat="48.59045" lon="2.01014">
        <ele>93</ele>
        <time>2018-08-18T08:57:56Z</time>
      </trkpt>
      <trkpt lat="48.5905" lon="2.01013">
        <ele>93</ele>
        <time>2018-08-18T08:58:00Z</time>
      </trkpt>
      <trkpt lat="48.59057" lon="2.01011">
        <ele>93</ele>
        <time>2018-08-18T08:58:04Z</time>
      </trkpt>
      <trkpt lat="48.59065" lon="2.01006">
        <ele>93</ele>
        <time>2018-08-18T08:58:08Z</time>
      </trkpt>
      <trkpt lat="48.59071" lon="2.01003">
        <ele>93</ele>
        <time>2018-08-18T08:58:12Z</time>
      </trkpt>
      <trkpt lat="48.59077" lon="2.00999">
        <ele>93</ele>
        <time>2018-08-18T08:58:16Z</time>
      </trkpt>
      <trkpt lat="48.59082" lon="2.00992">
        <ele>93</ele>
        <time>2018-08-18T08:58:21Z</time>
      </trkpt>
      <trkpt lat="48.59087" lon="2.00988">
        <ele>93</ele>
        <time>2018-08-18T08:58:25Z</time>
      </trkpt>
      <trkpt lat="48.59093" lon="2.00987">
        <ele>93</ele>
        <time>2018-08-18T08:58:29Z</time>
      </trkpt>
      <trkpt lat="48.59102" lon="2.00985">
        <ele>93</ele>
        <time>2018-08-18T08:58:33Z</time>
      </trkpt>
      <trkpt lat="48.59108" lon="2.00982">
        <ele>93</ele>
        <time>2018-08-18T08:58:37Z</time>
      </trkpt>
      <trkpt lat="48.59112" lon="2.00983">
        <ele>93</ele>
        <time>2018-08-18T08:58:41Z</time>
      </trkpt>
      <trkpt lat="48.59115" lon="2.00982">
        <ele>93</ele>
        <time>2018-08-18T08:58:45Z</time>
      </trkpt>
      <trkpt lat="48.59118" lon="2.00984">
        <ele>92</ele>
        <time>2018-08-18T08:58:49Z</time>
      </trkpt>
      <trkpt lat="48.59119" lon="2.00982">
        <ele>92</ele>
        <time>2018-08-18T08:58:53Z</time>
      </trkpt>
      <trkpt lat="48.5912" lon="2.00978">
        <ele>92</ele>
        <time>2018-08-18T08:58:57Z</time>
      </trkpt>
      <trkpt lat="48.59121" lon="2.00976">
        <ele>92</ele>
        <time>2018-08-18T08:59:01Z</time>
      </trkpt>
      <trkpt lat="48.59127" lon="2.00975">
        <ele>92</ele>
        <time>2018-08-18T08:59:05Z</time>
      </trkpt>
      <trkpt lat="48.59133" lon="2.00975">
        <ele>93</ele>
        <time>2018-08-18T08:59:09Z</time>
      </trkpt>
      <trkpt lat="48.59138" lon="2.00976">
        <ele>93</ele>
        <time>2018-08-18T08:59:13Z</time>
      </trkpt>
      <trkpt lat="48.59145" lon="2.00977">
        <ele>94</ele>
        <time>2018-08-18T08:59:17Z</time>
      </trkpt>
      <trkpt lat="48.59152" lon="2.0098">
        <ele>95</ele>
        <time>2018-08-18T08:59:21Z</time>
      </trkpt>
      <trkpt lat="48.59156" lon="2.00978">
        <ele>95</ele>
        <time>2018-08-18T08:59:25Z</time>
      </trkpt>
      <trkpt lat="48.59163" lon="2.00977">
        <ele>96</ele>
        <time>2018-08-18T08:59:29Z</time>
      </trkpt>
      <trkpt lat="48.59168" lon="2.00979">
        <ele>97</ele>
        <time>2018-08-18T08:59:33Z</time>
      </trkpt>
      <trkpt lat="48.59172" lon="2.00981">
        <ele>98</ele>
        <time>2018-08-18T08:59:37Z</time>
      </trkpt>
      <trkpt lat="48.59179" lon="2.00982">
        <ele>98</ele>
        <time>2018-08-18T08:59:41Z</time>
      </trkpt>
      <trkpt lat="48.59185" lon="2.00984">
        <ele>98</ele>
        <time>2018-08-18T08:59:45Z</time>
      </trkpt>
      <trkpt lat="48.59191" lon="2.00983">
        <ele>98</ele>
        <time>2018-08-18T08:59:49Z</time>
      </trkpt>
      <trkpt lat="48.59197" lon="2.00984">
        <ele>98</ele>
        <time>2018-08-18T08:59:53Z</time>
      </trkpt>
      <trkpt lat="48.59204" lon="2.00982">
        <ele>98</ele>
        <time>2018-08-18T08:59:57Z</time>
      </trkpt>
      <trkpt lat="48.59209" lon="2.0098">
        <ele>98</ele>
        <time>2018-08-18T09:00:01Z</time>
      </trkpt>
      <trkpt lat="48.59215" lon="2.00978">
        <ele>98</ele>
        <time>2018-08-18T09:00:05Z</time>
      </trkpt>
      <trkpt lat="48.5922" lon="2.00974">
        <ele>98</ele>
        <time>2018-08-18T09:00:09Z</time>
      </trkpt>
      <trkpt lat="48.59225" lon="2.00967">
        <ele>98</ele>
        <time>2018-08-18T09:00:13Z</time>
      </trkpt>
      <trkpt lat="48.59231" lon="2.0096">
        <ele>98</ele>
        <time>2018-08-18T09:00:18Z</time>
      </trkpt>
      <trkpt lat="48.59237" lon="2.00957">
        <ele>98</ele>
        <time>2018-08-18T09:00:23Z</time>
      </trkpt>
      <trkpt lat="48.59241" lon="2.00956">
        <ele>98</ele>
        <time>2018-08-18T09:00:27Z</time>
      </trkpt>
      <trkpt lat="48.59246" lon="2.00956">
        <ele>96</ele>
        <time>2018-08-18T09:00:31Z</time>
      </trkpt>
      <trkpt lat="48.59254" lon="2.00952">
        <ele>96</ele>
        <time>2018-08-18T09:00:35Z</time>
      </trkpt>
      <trkpt lat="48.5926" lon="2.0095">
        <ele>96</ele>
        <time>2018-08-18T09:00:39Z</time>
      </trkpt>
      <trkpt lat="48.59268" lon="2.00945">
        <ele>96</ele>
        <time>2018-08-18T09:00:43Z</time>
      </trkpt>
      <trkpt lat="48.59274" lon="2.0094">
        <ele>96</ele>
        <time>2018-08-18T09:00:47Z</time>
      </trkpt>
      <trkpt lat="48.5928" lon="2.00934">
        <ele>96</ele>
        <time>2018-08-18T09:00:51Z</time>
      </trkpt>
      <trkpt lat="48.59287" lon="2.00929">
        <ele>97</ele>
        <time>2018-08-18T09:00:55Z</time>
      </trkpt>
      <trkpt lat="48.59292" lon="2.00923">
        <ele>98</ele>
        <time>2018-08-18T09:00:59Z</time>
      </trkpt>
      <trkpt lat="48.59297" lon="2.00917">
        <ele>98</ele>
        <time>2018-08-18T09:01:03Z</time>
      </trkpt>
      <trkpt lat="48.59302" lon="2.0091">
        <ele>98</ele>
        <time>2018-08-18T09:01:07Z</time>
      </trkpt>
      <trkpt lat="48.59307" lon="2.00904">
        <ele>98</ele>
        <time>2018-08-18T09:01:11Z</time>
      </trkpt>
      <trkpt lat="48.59311" lon="2.0089">
        <ele>98</ele>
        <time>2018-08-18T09:01:15Z</time>
      </trkpt>
      <trkpt lat="48.5932" lon="2.00876">
        <ele>96</ele>
        <time>2018-08-18T09:01:19Z</time>
      </trkpt>
      <trkpt lat="48.59332" lon="2.00862">
        <ele>96</ele>
        <time>2018-08-18T09:01:23Z</time>
      </trkpt>
      <trkpt lat="48.5934" lon="2.00848">
        <ele>96</ele>
        <time>2018-08-18T09:01:27Z</time>
      </trkpt>
      <trkpt lat="48.59347" lon="2.00834">
        <ele>93</ele>
        <time>2018-08-18T09:01:31Z</time>
      </trkpt>
      <trkpt lat="48.59355" lon="2.00821">
        <ele>90</ele>
        <time>2018-08-18T09:01:35Z</time>
      </trkpt>
      <trkpt lat="48.59364" lon="2.00805">
        <ele>90</ele>
        <time>2018-08-18T09:01:39Z</time>
      </trkpt>
      <trkpt lat="48.59375" lon="2.00788">
        <ele>89</ele>
        <time>2018-08-18T09:01:43Z</time>
      </trkpt>
      <trkpt lat="48.59384" lon="2.00772">
        <ele>88</ele>
        <time>2018-08-18T09:01:47Z</time>
      </trkpt>
      <trkpt lat="48.59391" lon="2.00756">
        <ele>87</ele>
        <time>2018-08-18T09:01:51Z</time>
      </trkpt>
      <trkpt lat="48.59398" lon="2.00742">
        <ele>87</ele>
        <time>2018-08-18T09:01:55Z</time>
      </trkpt>
      <trkpt lat="48.59404" lon="2.0073">
        <ele>87</ele>
        <time>2018-08-18T09:01:59Z</time>
      </trkpt>
      <trkpt lat="48.59403" lon="2.00713">
        <ele>87</ele>
        <time>2018-08-18T09:02:03Z</time>
      </trkpt>
      <trkpt lat="48.59401" lon="2.0069">
        <ele>87</ele>
        <time>2018-08-18T09:02:07Z</time>
      </trkpt>
      <trkpt lat="48.594" lon="2.00674">
        <ele>86</ele>
        <time>2018-08-18T09:02:11Z</time>
      </trkpt>
      <trkpt lat="48.59397" lon="2.00656">
        <ele>82</ele>
        <time>2018-08-18T09:02:15Z</time>
      </trkpt>
      <trkpt lat="48.59395" lon="2.00637">
        <ele>78</ele>
        <time>2018-08-18T09:02:19Z</time>
      </trkpt>
      <trkpt lat="48.59394" lon="2.00622">
        <ele>74</ele>
        <time>2018-08-18T09:02:23Z</time>
      </trkpt>
      <trkpt lat="48.59392" lon="2.00607">
        <ele>70</ele>
        <time>2018-08-18T09:02:27Z</time>
      </trkpt>
      <trkpt lat="48.59389" lon="2.00592">
        <ele>66</ele>
        <time>2018-08-18T09:02:31Z</time>
      </trkpt>
      <trkpt lat="48.59385" lon="2.00573">
        <ele>62</ele>
        <time>2018-08-18T09:02:35Z</time>
      </trkpt>
      <trkpt lat="48.59384" lon="2.00558">
        <ele>58</ele>
        <time>2018-08-18T09:02:39Z</time>
      </trkpt>
      <trkpt lat="48.59382" lon="2.00544">
        <ele>54</ele>
        <time>2018-08-18T09:02:43Z</time>
      </trkpt>
      <trkpt lat="48.59378" lon="2.0053">
        <ele>50</ele>
        <time>2018-08-18T09:02:47Z</time>
      </trkpt>
      <trkpt lat="48.59375" lon="2.00511">
        <ele>46</ele>
        <time>2018-08-18T09:02:51Z</time>
      </trkpt>
      <trkpt lat="48.5937" lon="2.00495">
        <ele>44</ele>
        <time>2018-08-18T09:02:55Z</time>
      </trkpt>
      <trkpt lat="48.59365" lon="2.00479">
        <ele>41</ele>
        <time>2018-08-18T09:02:59Z</time>
      </trkpt>
      <trkpt lat="48.59361" lon="2.00463">
        <ele>41</ele>
        <time>2018-08-18T09:03:03Z</time>
      </trkpt>
      <trkpt lat="48.59356" lon="2.00444">
        <ele>41</ele>
        <time>2018-08-18T09:03:07Z</time>
      </trkpt>
      <trkpt lat="48.59349" lon="2.00427">
        <ele>41</ele>
        <time>2018-08-18T09:03:11Z</time>
      </trkpt>
      <trkpt lat="48.59347" lon="2.00404">
        <ele>43</ele>
        <time>2018-08-18T09:03:15Z</time>
      </trkpt>
      <trkpt lat="48.59353" lon="2.00387">
        <ele>45</ele>
        <time>2018-08-18T09:03:19Z</time>
      </trkpt>
      <trkpt lat="48.59356" lon="2.00365">
        <ele>46</ele>
        <time>2018-08-18T09:03:23Z</time>
      </trkpt>
      <trkpt lat="48.59362" lon="2.00349">
        <ele>48</ele>
        <time>2018-08-18T09:03:27Z</time>
      </trkpt>
      <trkpt lat="48.5937" lon="2.00335">
        <ele>48</ele>
        <time>2018-08-18T09:03:31Z</time>
      </trkpt>
      <trkpt lat="48.59377" lon="2.00318">
        <ele>48</ele>
        <time>2018-08-18T09:03:35Z</time>
      </trkpt>
      <trkpt lat="48.59385" lon="2.00303">
        <ele>50</ele>
        <time>2018-08-18T09:03:39Z</time>
      </trkpt>
      <trkpt lat="48.59394" lon="2.00289">
        <ele>50</ele>
        <time>2018-08-18T09:03:43Z</time>
      </trkpt>
      <trkpt lat="48.59403" lon="2.00278">
        <ele>50</ele>
        <time>2018-08-18T09:03:47Z</time>
      </trkpt>
      <trkpt lat="48.59412" lon="2.00263">
        <ele>50</ele>
        <time>2018-08-18T09:03:51Z</time>
      </trkpt>
      <trkpt lat="48.59418" lon="2.00243">
        <ele>51</ele>
        <time>2018-08-18T09:03:55Z</time>
      </trkpt>
      <trkpt lat="48.59424" lon="2.00222">
        <ele>55</ele>
        <time>2018-08-18T09:03:59Z</time>
      </trkpt>
      <trkpt lat="48.59432" lon="2.00203">
        <ele>57</ele>
        <time>2018-08-18T09:04:03Z</time>
      </trkpt>
      <trkpt lat="48.59439" lon="2.00185">
        <ele>58</ele>
        <time>2018-08-18T09:04:07Z</time>
      </trkpt>
      <trkpt lat="48.59447" lon="2.00167">
        <ele>58</ele>
        <time>2018-08-18T09:04:11Z</time>
      </trkpt>
      <trkpt lat="48.59454" lon="2.00152">
        <ele>58</ele>
        <time>2018-08-18T09:04:15Z</time>
      </trkpt>
      <trkpt lat="48.5946" lon="2.00137">
        <ele>58</ele>
        <time>2018-08-18T09:04:19Z</time>
      </trkpt>
      <trkpt lat="48.59466" lon="2.00122">
        <ele>58</ele>
        <time>2018-08-18T09:04:23Z</time>
      </trkpt>
      <trkpt lat="48.59475" lon="2.00109">
        <ele>58</ele>
        <time>2018-08-18T09:04:27Z</time>
      </trkpt>
      <trkpt lat="48.59482" lon="2.0009">
        <ele>57</ele>
        <time>2018-08-18T09:04:31Z</time>
      </trkpt>
      <trkpt lat="48.59486" lon="2.00068">
        <ele>57</ele>
        <time>2018-08-18T09:04:35Z</time>
      </trkpt>
      <trkpt lat="48.59491" lon="2.00048">
        <ele>57</ele>
        <time>2018-08-18T09:04:39Z</time>
      </trkpt>
      <trkpt lat="48.59496" lon="2.00032">
        <ele>57</ele>
        <time>2018-08-18T09:04:43Z</time>
      </trkpt>
      <trkpt lat="48.59501" lon="2.00016">
        <ele>57</ele>
        <time>2018-08-18T09:04:47Z</time>
      </trkpt>
      <trkpt lat="48.59502" lon="2.00001">
        <ele>57</ele>
        <time>2018-08-18T09:04:51Z</time>
      </trkpt>
      <trkpt lat="48.59498" lon="1.9999">
        <ele>59</ele>
        <time>2018-08-18T09:04:55Z</time>
      </trkpt>
      <trkpt lat="48.59492" lon="1.99978">
        <ele>63</ele>
        <time>2018-08-18T09:04:59Z</time>
      </trkpt>
      <trkpt lat="48.59492" lon="1.99959">
        <ele>66</ele>
        <time>2018-08-18T09:05:03Z</time>
      </trkpt>
      <trkpt lat="48.59493" lon="1.9994">
        <ele>70</ele>
        <time>2018-08-18T09:05:07Z</time>
      </trkpt>
      <trkpt lat="48.59493" lon="1.99928">
        <ele>74</ele>
        <time>2018-08-18T09:05:11Z</time>
      </trkpt>
      <trkpt lat="48.59497" lon="1.99914">
        <ele>78</ele>
        <time>2018-08-18T09:05:15Z</time>
      </trkpt>
      <trkpt lat="48.59499" lon="1.99896">
        <ele>82</ele>
        <time>2018-08-18T09:05:19Z</time>
      </trkpt>
      <trkpt lat="48.59503" lon="1.99871">
        <ele>86</ele>
        <time>2018-08-18T09:05:23Z</time>
      </trkpt>
      <trkpt lat="48.59509" lon="1.99854">
        <ele>89</ele>
        <time>2018-08-18T09:05:27Z</time>
      </trkpt>
      <trkpt lat="48.5952" lon="1.99836">
        <ele>92</ele>
        <time>2018-08-18T09:05:31Z</time>
      </trkpt>
      <trkpt lat="48.59531" lon="1.99819">
        <ele>94</ele>
        <time>2018-08-18T09:05:35Z</time>
      </trkpt>
      <trkpt lat="48.59545" lon="1.99806">
        <ele>97</ele>
        <time>2018-08-18T09:05:39Z</time>
      </trkpt>
      <trkpt lat="48.59553" lon="1.99791">
        <ele>97</ele>
        <time>2018-08-18T09:05:43Z</time>
      </trkpt>
      <trkpt lat="48.59558" lon="1.99782">
        <ele>98</ele>
        <time>2018-08-18T09:05:47Z</time>
      </trkpt>
      <trkpt lat="48.59565" lon="1.99775">
        <ele>101</ele>
        <time>2018-08-18T09:05:51Z</time>
      </trkpt>
      <trkpt lat="48.59567" lon="1.99769">
        <ele>105</ele>
        <time>2018-08-18T09:05:55Z</time>
      </trkpt>
      <trkpt lat="48.5957" lon="1.99764">
        <ele>106</ele>
        <time>2018-08-18T09:05:59Z</time>
      </trkpt>
      <trkpt lat="48.59573" lon="1.99754">
        <ele>108</ele>
        <time>2018-08-18T09:06:03Z</time>
      </trkpt>
      <trkpt lat="48.59581" lon="1.99757">
        <ele>112</ele>
        <time>2018-08-18T09:06:07Z</time>
      </trkpt>
      <trkpt lat="48.59588" lon="1.99763">
        <ele>113</ele>
        <time>2018-08-18T09:06:11Z</time>
      </trkpt>
      <trkpt lat="48.59592" lon="1.9977">
        <ele>113</ele>
        <time>2018-08-18T09:06:16Z</time>
      </trkpt>
      <trkpt lat="48.59598" lon="1.99778">
        <ele>113</ele>
        <time>2018-08-18T09:06:20Z</time>
      </trkpt>
      <trkpt lat="48.59602" lon="1.99784">
        <ele>112</ele>
        <time>2018-08-18T09:06:24Z</time>
      </trkpt>
      <trkpt lat="48.59608" lon="1.9979">
        <ele>111</ele>
        <time>2018-08-18T09:06:29Z</time>
      </trkpt>
      <trkpt lat="48.59611" lon="1.99796">
        <ele>109</ele>
        <time>2018-08-18T09:06:33Z</time>
      </trkpt>
      <trkpt lat="48.59617" lon="1.99804">
        <ele>109</ele>
        <time>2018-08-18T09:06:37Z</time>
      </trkpt>
      <trkpt lat="48.59621" lon="1.99812">
        <ele>108</ele>
        <time>2018-08-18T09:06:41Z</time>
      </trkpt>
      <trkpt lat="48.59628" lon="1.99816">
        <ele>106</ele>
        <time>2018-08-18T09:06:46Z</time>
      </trkpt>
      <trkpt lat="48.59634" lon="1.99823">
        <ele>105</ele>
        <time>2018-08-18T09:06:51Z</time>
      </trkpt>
      <trkpt lat="48.59637" lon="1.99828">
        <ele>105</ele>
        <time>2018-08-18T09:06:55Z</time>
      </trkpt>
      <trkpt lat="48.59639" lon="1.99834">
        <ele>104</ele>
        <time>2018-08-18T09:06:59Z</time>
      </trkpt>
      <trkpt lat="48.59644" lon="1.99838">
        <ele>104</ele>
        <time>2018-08-18T09:07:03Z</time>
      </trkpt>
      <trkpt lat="48.59649" lon="1.99841">
        <ele>104</ele>
        <time>2018-08-18T09:07:07Z</time>
      </trkpt>
      <trkpt lat="48.59654" lon="1.99841">
        <ele>104</ele>
        <time>2018-08-18T09:07:11Z</time>
      </trkpt>
      <trkpt lat="48.59656" lon="1.99839">
        <ele>104</ele>
        <time>2018-08-18T09:07:16Z</time>
      </trkpt>
      <trkpt lat="48.5966" lon="1.99839">
        <ele>103</ele>
        <time>2018-08-18T09:07:20Z</time>
      </trkpt>
      <trkpt lat="48.59669" lon="1.99838">
        <ele>103</ele>
        <time>2018-08-18T09:07:24Z</time>
      </trkpt>
      <trkpt lat="48.59673" lon="1.99833">
        <ele>103</ele>
        <time>2018-08-18T09:07:28Z</time>
      </trkpt>
      <trkpt lat="48.59672" lon="1.99826">
        <ele>103</ele>
        <time>2018-08-18T09:07:32Z</time>
      </trkpt>
      <trkpt lat="48.5967" lon="1.9982">
        <ele>103</ele>
        <time>2018-08-18T09:07:38Z</time>
      </trkpt>
      <trkpt lat="48.59669" lon="1.99814">
        <ele>103</ele>
        <time>2018-08-18T09:07:43Z</time>
      </trkpt>
      <trkpt lat="48.59668" lon="1.99806">
        <ele>104</ele>
        <time>2018-08-18T09:07:47Z</time>
      </trkpt>
      <trkpt lat="48.59668" lon="1.99798">
        <ele>104</ele>
        <time>2018-08-18T09:07:51Z</time>
      </trkpt>
      <trkpt lat="48.59668" lon="1.99789">
        <ele>104</ele>
        <time>2018-08-18T09:07:55Z</time>
      </trkpt>
      <trkpt lat="48.59667" lon="1.99779">
        <ele>104</ele>
        <time>2018-08-18T09:07:59Z</time>
      </trkpt>
      <trkpt lat="48.59666" lon="1.9977">
        <ele>104</ele>
        <time>2018-08-18T09:08:03Z</time>
      </trkpt>
      <trkpt lat="48.59665" lon="1.9976">
        <ele>104</ele>
        <time>2018-08-18T09:08:07Z</time>
      </trkpt>
      <trkpt lat="48.59665" lon="1.99753">
        <ele>104</ele>
        <time>2018-08-18T09:08:11Z</time>
      </trkpt>
      <trkpt lat="48.59663" lon="1.99745">
        <ele>104</ele>
        <time>2018-08-18T09:08:15Z</time>
      </trkpt>
      <trkpt lat="48.59662" lon="1.99737">
        <ele>104</ele>
        <time>2018-08-18T09:08:19Z</time>
      </trkpt>
      <trkpt lat="48.59662" lon="1.99728">
        <ele>104</ele>
        <time>2018-08-18T09:08:23Z</time>
      </trkpt>
      <trkpt lat="48.59661" lon="1.9972">
        <ele>104</ele>
        <time>2018-08-18T09:08:27Z</time>
      </trkpt>
      <trkpt lat="48.5966" lon="1.9971">
        <ele>104</ele>
        <time>2018-08-18T09:08:31Z</time>
      </trkpt>
      <trkpt lat="48.5966" lon="1.99702">
        <ele>104</ele>
        <time>2018-08-18T09:08:35Z</time>
      </trkpt>
      <trkpt lat="48.59658" lon="1.99694">
        <ele>104</ele>
        <time>2018-08-18T09:08:39Z</time>
      </trkpt>
      <trkpt lat="48.59656" lon="1.99685">
        <ele>104</ele>
        <time>2018-08-18T09:08:43Z</time>
      </trkpt>
      <trkpt lat="48.59655" lon="1.99679">
        <ele>104</ele>
        <time>2018-08-18T09:08:47Z</time>
      </trkpt>
      <trkpt lat="48.59655" lon="1.99671">
        <ele>104</ele>
        <time>2018-08-18T09:08:51Z</time>
      </trkpt>
      <trkpt lat="48.59656" lon="1.99662">
        <ele>104</ele>
        <time>2018-08-18T09:08:55Z</time>
      </trkpt>
      <trkpt lat="48.59657" lon="1.99654">
        <ele>104</ele>
        <time>2018-08-18T09:08:59Z</time>
      </trkpt>
      <trkpt lat="48.59656" lon="1.99646">
        <ele>104</ele>
        <time>2018-08-18T09:09:03Z</time>
      </trkpt>
      <trkpt lat="48.59655" lon="1.99638">
        <ele>104</ele>
        <time>2018-08-18T09:09:07Z</time>
      </trkpt>
      <trkpt lat="48.59652" lon="1.99628">
        <ele>104</ele>
        <time>2018-08-18T09:09:11Z</time>
      </trkpt>
      <trkpt lat="48.59651" lon="1.99619">
        <ele>104</ele>
        <time>2018-08-18T09:09:15Z</time>
      </trkpt>
      <trkpt lat="48.5965" lon="1.9961">
        <ele>104</ele>
        <time>2018-08-18T09:09:19Z</time>
      </trkpt>
      <trkpt lat="48.59649" lon="1.99603">
        <ele>104</ele>
        <time>2018-08-18T09:09:23Z</time>
      </trkpt>
      <trkpt lat="48.59648" lon="1.99594">
        <ele>104</ele>
        <time>2018-08-18T09:09:27Z</time>
      </trkpt>
      <trkpt lat="48.59648" lon="1.99586">
        <ele>104</ele>
        <time>2018-08-18T09:09:31Z</time>
      </trkpt>
      <trkpt lat="48.59646" lon="1.99577">
        <ele>104</ele>
        <time>2018-08-18T09:09:35Z</time>
      </trkpt>
      <trkpt lat="48.59643" lon="1.99568">
        <ele>104</ele>
        <time>2018-08-18T09:09:39Z</time>
      </trkpt>
      <trkpt lat="48.59642" lon="1.9956">
        <ele>104</ele>
        <time>2018-08-18T09:09:43Z</time>
      </trkpt>
      <trkpt lat="48.59639" lon="1.99553">
        <ele>104</ele>
        <time>2018-08-18T09:09:47Z</time>
      </trkpt>
      <trkpt lat="48.59638" lon="1.99547">
        <ele>104</ele>
        <time>2018-08-18T09:09:51Z</time>
      </trkpt>
      <trkpt lat="48.59637" lon="1.99538">
        <ele>104</ele>
        <time>2018-08-18T09:09:55Z</time>
      </trkpt>
      <trkpt lat="48.59636" lon="1.99532">
        <ele>104</ele>
        <time>2018-08-18T09:09:59Z</time>
      </trkpt>
      <trkpt lat="48.59634" lon="1.99524">
        <ele>104</ele>
        <time>2018-08-18T09:10:03Z</time>
      </trkpt>
      <trkpt lat="48.59634" lon="1.99516">
        <ele>104</ele>
        <time>2018-08-18T09:10:07Z</time>
      </trkpt>
      <trkpt lat="48.59633" lon="1.99508">
        <ele>104</ele>
        <time>2018-08-18T09:10:11Z</time>
      </trkpt>
      <trkpt lat="48.59632" lon="1.99501">
        <ele>104</ele>
        <time>2018-08-18T09:10:15Z</time>
      </trkpt>
      <trkpt lat="48.5963" lon="1.99492">
        <ele>104</ele>
        <time>2018-08-18T09:10:19Z</time>
      </trkpt>
      <trkpt lat="48.59628" lon="1.99484">
        <ele>104</ele>
        <time>2018-08-18T09:10:23Z</time>
      </trkpt>
      <trkpt lat="48.59626" lon="1.99476">
        <ele>104</ele>
        <time>2018-08-18T09:10:27Z</time>
      </trkpt>
      <trkpt lat="48.59625" lon="1.99467">
        <ele>104</ele>
        <time>2018-08-18T09:10:31Z</time>
      </trkpt>
      <trkpt lat="48.59623" lon="1.99459">
        <ele>104</ele>
        <time>2018-08-18T09:10:35Z</time>
      </trkpt>
      <trkpt lat="48.59621" lon="1.99451">
        <ele>105</ele>
        <time>2018-08-18T09:10:39Z</time>
      </trkpt>
      <trkpt lat="48.59619" lon="1.99443">
        <ele>105</ele>
        <time>2018-08-18T09:10:43Z</time>
      </trkpt>
      <trkpt lat="48.59618" lon="1.99434">
        <ele>105</ele>
        <time>2018-08-18T09:10:47Z</time>
      </trkpt>
      <trkpt lat="48.59617" lon="1.99427">
        <ele>105</ele>
        <time>2018-08-18T09:10:51Z</time>
      </trkpt>
      <trkpt lat="48.59615" lon="1.99419">
        <ele>105</ele>
        <time>2018-08-18T09:10:55Z</time>
      </trkpt>
      <trkpt lat="48.59614" lon="1.99411">
        <ele>105</ele>
        <time>2018-08-18T09:10:59Z</time>
      </trkpt>
      <trkpt lat="48.59613" lon="1.99402">
        <ele>106</ele>
        <time>2018-08-18T09:11:03Z</time>
      </trkpt>
      <trkpt lat="48.59611" lon="1.99395">
        <ele>106</ele>
        <time>2018-08-18T09:11:07Z</time>
      </trkpt>
      <trkpt lat="48.59611" lon="1.99386">
        <ele>107</ele>
        <time>2018-08-18T09:11:11Z</time>
      </trkpt>
      <trkpt lat="48.59612" lon="1.99379">
        <ele>107</ele>
        <time>2018-08-18T09:11:15Z</time>
      </trkpt>
      <trkpt lat="48.59617" lon="1.99371">
        <ele>107</ele>
        <time>2018-08-18T09:11:20Z</time>
      </trkpt>
      <trkpt lat="48.59622" lon="1.99367">
        <ele>107</ele>
        <time>2018-08-18T09:11:24Z</time>
      </trkpt>
      <trkpt lat="48.59626" lon="1.99364">
        <ele>107</ele>
        <time>2018-08-18T09:11:28Z</time>
      </trkpt>
      <trkpt lat="48.59631" lon="1.99357">
        <ele>107</ele>
        <time>2018-08-18T09:11:33Z</time>
      </trkpt>
      <trkpt lat="48.59635" lon="1.9935">
        <ele>110</ele>
        <time>2018-08-18T09:11:38Z</time>
      </trkpt>
      <trkpt lat="48.59641" lon="1.99348">
        <ele>112</ele>
        <time>2018-08-18T09:11:42Z</time>
      </trkpt>
      <trkpt lat="48.59646" lon="1.99347">
        <ele>112</ele>
        <time>2018-08-18T09:11:46Z</time>
      </trkpt>
      <trkpt lat="48.59653" lon="1.9935">
        <ele>112</ele>
        <time>2018-08-18T09:11:51Z</time>
      </trkpt>
      <trkpt lat="48.59657" lon="1.99346">
        <ele>112</ele>
        <time>2018-08-18T09:11:56Z</time>
      </trkpt>
      <trkpt lat="48.59663" lon="1.99337">
        <ele>114</ele>
        <time>2018-08-18T09:12:01Z</time>
      </trkpt>
      <trkpt lat="48.59667" lon="1.99334">
        <ele>115</ele>
        <time>2018-08-18T09:12:05Z</time>
      </trkpt>
      <trkpt lat="48.59673" lon="1.99333">
        <ele>116</ele>
        <time>2018-08-18T09:12:09Z</time>
      </trkpt>
      <trkpt lat="48.59678" lon="1.9933">
        <ele>116</ele>
        <time>2018-08-18T09:12:13Z</time>
      </trkpt>
      <trkpt lat="48.59684" lon="1.99327">
        <ele>116</ele>
        <time>2018-08-18T09:12:17Z</time>
      </trkpt>
      <trkpt lat="48.59692" lon="1.99326">
        <ele>116</ele>
        <time>2018-08-18T09:12:21Z</time>
      </trkpt>
      <trkpt lat="48.59697" lon="1.99324">
        <ele>116</ele>
        <time>2018-08-18T09:12:25Z</time>
      </trkpt>
      <trkpt lat="48.59705" lon="1.99321">
        <ele>117</ele>
        <time>2018-08-18T09:12:29Z</time>
      </trkpt>
      <trkpt lat="48.59713" lon="1.99323">
        <ele>118</ele>
        <time>2018-08-18T09:12:33Z</time>
      </trkpt>
      <trkpt lat="48.59721" lon="1.99323">
        <ele>118</ele>
        <time>2018-08-18T09:12:37Z</time>
      </trkpt>
      <trkpt lat="48.59726" lon="1.99323">
        <ele>118</ele>
        <time>2018-08-18T09:12:41Z</time>
      </trkpt>
      <trkpt lat="48.59732" lon="1.99324">
        <ele>118</ele>
        <time>2018-08-18T09:12:45Z</time>
      </trkpt>
      <trkpt lat="48.59738" lon="1.99324">
        <ele>118</ele>
        <time>2018-08-18T09:12:49Z</time>
      </trkpt>
      <trkpt lat="48.59745" lon="1.99325">
        <ele>118</ele>
        <time>2018-08-18T09:12:53Z</time>
      </trkpt>
      <trkpt lat="48.5975" lon="1.99326">
        <ele>119</ele>
        <time>2018-08-18T09:12:57Z</time>
      </trkpt>
      <trkpt lat="48.59757" lon="1.99324">
        <ele>119</ele>
        <time>2018-08-18T09:13:02Z</time>
      </trkpt>
      <trkpt lat="48.59761" lon="1.99323">
        <ele>119</ele>
        <time>2018-08-18T09:13:06Z</time>
      </trkpt>
      <trkpt lat="48.59767" lon="1.99324">
        <ele>119</ele>
        <time>2018-08-18T09:13:10Z</time>
      </trkpt>
      <trkpt lat="48.59775" lon="1.99327">
        <ele>119</ele>
        <time>2018-08-18T09:13:14Z</time>
      </trkpt>
      <trkpt lat="48.59782" lon="1.9933">
        <ele>119</ele>
        <time>2018-08-18T09:13:18Z</time>
      </trkpt>
      <trkpt lat="48.59787" lon="1.99332">
        <ele>119</ele>
        <time>2018-08-18T09:13:22Z</time>
      </trkpt>
      <trkpt lat="48.59792" lon="1.99332">
        <ele>119</ele>
        <time>2018-08-18T09:13:27Z</time>
      </trkpt>
      <trkpt lat="48.59796" lon="1.99331">
        <ele>118</ele>
        <time>2018-08-18T09:13:31Z</time>
      </trkpt>
      <trkpt lat="48.59798" lon="1.9933">
        <ele>118</ele>
        <time>2018-08-18T09:13:36Z</time>
      </trkpt>
      <trkpt lat="48.59801" lon="1.99327">
        <ele>118</ele>
        <time>2018-08-18T09:13:40Z</time>
      </trkpt>
      <trkpt lat="48.59805" lon="1.99326">
        <ele>118</ele>
        <time>2018-08-18T09:13:44Z</time>
      </trkpt>
      <trkpt lat="48.5981" lon="1.99321">
        <ele>118</ele>
        <time>2018-08-18T09:13:48Z</time>
      </trkpt>
      <trkpt lat="48.59813" lon="1.99311">
        <ele>118</ele>
        <time>2018-08-18T09:13:53Z</time>
      </trkpt>
      <trkpt lat="48.59816" lon="1.99306">
        <ele>117</ele>
        <time>2018-08-18T09:13:57Z</time>
      </trkpt>
      <trkpt lat="48.59821" lon="1.99298">
        <ele>116</ele>
        <time>2018-08-18T09:14:01Z</time>
      </trkpt>
      <trkpt lat="48.59826" lon="1.9929">
        <ele>114</ele>
        <time>2018-08-18T09:14:06Z</time>
      </trkpt>
      <trkpt lat="48.59831" lon="1.99282">
        <ele>112</ele>
        <time>2018-08-18T09:14:10Z</time>
      </trkpt>
      <trkpt lat="48.59834" lon="1.99274">
        <ele>112</ele>
        <time>2018-08-18T09:14:14Z</time>
      </trkpt>
      <trkpt lat="48.59835" lon="1.99265">
        <ele>112</ele>
        <time>2018-08-18T09:14:18Z</time>
      </trkpt>
      <trkpt lat="48.59836" lon="1.99258">
        <ele>112</ele>
        <time>2018-08-18T09:14:22Z</time>
      </trkpt>
      <trkpt lat="48.59839" lon="1.99247">
        <ele>112</ele>
        <time>2018-08-18T09:14:26Z</time>
      </trkpt>
      <trkpt lat="48.59842" lon="1.99237">
        <ele>112</ele>
        <time>2018-08-18T09:14:31Z</time>
      </trkpt>
      <trkpt lat="48.59847" lon="1.99223">
        <ele>111</ele>
        <time>2018-08-18T09:14:35Z</time>
      </trkpt>
      <trkpt lat="48.59852" lon="1.99197">
        <ele>111</ele>
        <time>2018-08-18T09:14:39Z</time>
      </trkpt>
      <trkpt lat="48.59863" lon="1.99168">
        <ele>111</ele>
        <time>2018-08-18T09:14:43Z</time>
      </trkpt>
      <trkpt lat="48.59874" lon="1.9914">
        <ele>111</ele>
        <time>2018-08-18T09:14:47Z</time>
      </trkpt>
      <trkpt lat="48.59885" lon="1.99113">
        <ele>111</ele>
        <time>2018-08-18T09:14:51Z</time>
      </trkpt>
      <trkpt lat="48.59895" lon="1.99089">
        <ele>114</ele>
        <time>2018-08-18T09:14:55Z</time>
      </trkpt>
      <trkpt lat="48.59905" lon="1.99069">
        <ele>115</ele>
        <time>2018-08-18T09:14:59Z</time>
      </trkpt>
      <trkpt lat="48.59919" lon="1.99043">
        <ele>115</ele>
        <time>2018-08-18T09:15:03Z</time>
      </trkpt>
      <trkpt lat="48.59933" lon="1.99017">
        <ele>115</ele>
        <time>2018-08-18T09:15:07Z</time>
      </trkpt>
      <trkpt lat="48.59947" lon="1.98991">
        <ele>115</ele>
        <time>2018-08-18T09:15:11Z</time>
      </trkpt>
      <trkpt lat="48.59962" lon="1.98967">
        <ele>115</ele>
        <time>2018-08-18T09:15:15Z</time>
      </trkpt>
      <trkpt lat="48.59977" lon="1.98943">
        <ele>115</ele>
        <time>2018-08-18T09:15:19Z</time>
      </trkpt>
      <trkpt lat="48.59987" lon="1.98923">
        <ele>115</ele>
        <time>2018-08-18T09:15:23Z</time>
      </trkpt>
      <trkpt lat="48.59999" lon="1.98903">
        <ele>112</ele>
        <time>2018-08-18T09:15:27Z</time>
      </trkpt>
      <trkpt lat="48.60011" lon="1.98882">
        <ele>111</ele>
        <time>2018-08-18T09:15:31Z</time>
      </trkpt>
      <trkpt lat="48.60024" lon="1.98858">
        <ele>111</ele>
        <time>2018-08-18T09:15:35Z</time>
      </trkpt>
      <trkpt lat="48.60037" lon="1.98831">
        <ele>111</ele>
        <time>2018-08-18T09:15:39Z</time>
      </trkpt>
      <trkpt lat="48.60053" lon="1.98801">
        <ele>111</ele>
        <time>2018-08-18T09:15:43Z</time>
      </trkpt>
      <trkpt lat="48.6007" lon="1.98767">
        <ele>111</ele>
        <time>2018-08-18T09:15:47Z</time>
      </trkpt>
      <trkpt lat="48.6009" lon="1.98735">
        <ele>111</ele>
        <time>2018-08-18T09:15:51Z</time>
      </trkpt>
      <trkpt lat="48.60104" lon="1.98708">
        <ele>111</ele>
        <time>2018-08-18T09:15:55Z</time>
      </trkpt>
      <trkpt lat="48.60117" lon="1.98684">
        <ele>112</ele>
        <time>2018-08-18T09:15:59Z</time>
      </trkpt>
      <trkpt lat="48.60132" lon="1.98668">
        <ele>113</ele>
        <time>2018-08-18T09:16:03Z</time>
      </trkpt>
      <trkpt lat="48.60141" lon="1.98655">
        <ele>113</ele>
        <time>2018-08-18T09:16:07Z</time>
      </trkpt>
      <trkpt lat="48.60144" lon="1.98655">
        <ele>113</ele>
        <time>2018-08-18T09:16:13Z</time>
      </trkpt>
      <trkpt lat="48.6014" lon="1.98662">
        <ele>113</ele>
        <time>2018-08-18T09:16:17Z</time>
      </trkpt>
      <trkpt lat="48.60133" lon="1.98671">
        <ele>113</ele>
        <time>2018-08-18T09:16:21Z</time>
      </trkpt>
      <trkpt lat="48.60125" lon="1.98673">
        <ele>113</ele>
        <time>2018-08-18T09:16:25Z</time>
      </trkpt>
      <trkpt lat="48.60116" lon="1.98661">
        <ele>113</ele>
        <time>2018-08-18T09:16:29Z</time>
      </trkpt>
      <trkpt lat="48.60115" lon="1.98645">
        <ele>111</ele>
        <time>2018-08-18T09:16:33Z</time>
      </trkpt>
      <trkpt lat="48.60109" lon="1.98628">
        <ele>107</ele>
        <time>2018-08-18T09:16:37Z</time>
      </trkpt>
      <trkpt lat="48.601" lon="1.98611">
        <ele>107</ele>
        <time>2018-08-18T09:16:41Z</time>
      </trkpt>
      <trkpt lat="48.60089" lon="1.98596">
        <ele>107</ele>
        <time>2018-08-18T09:16:45Z</time>
      </trkpt>
      <trkpt lat="48.60079" lon="1.98584">
        <ele>107</ele>
        <time>2018-08-18T09:16:49Z</time>
      </trkpt>
      <trkpt lat="48.60066" lon="1.98573">
        <ele>107</ele>
        <time>2018-08-18T09:16:53Z</time>
      </trkpt>
      <trkpt lat="48.60054" lon="1.9856">
        <ele>107</ele>
        <time>2018-08-18T09:16:57Z</time>
      </trkpt>
      <trkpt lat="48.60044" lon="1.98544">
        <ele>107</ele>
        <time>2018-08-18T09:17:01Z</time>
      </trkpt>
      <trkpt lat="48.60037" lon="1.98524">
        <ele>107</ele>
        <time>2018-08-18T09:17:05Z</time>
      </trkpt>
      <trkpt lat="48.60029" lon="1.98505">
        <ele>107</ele>
        <time>2018-08-18T09:17:09Z</time>
      </trkpt>
      <trkpt lat="48.60022" lon="1.98488">
        <ele>110</ele>
        <time>2018-08-18T09:17:13Z</time>
      </trkpt>
      <trkpt lat="48.60022" lon="1.98469">
        <ele>112</ele>
        <time>2018-08-18T09:17:17Z</time>
      </trkpt>
      <trkpt lat="48.6003" lon="1.98458">
        <ele>116</ele>
        <time>2018-08-18T09:17:21Z</time>
      </trkpt>
      <trkpt lat="48.6004" lon="1.98454">
        <ele>120</ele>
        <time>2018-08-18T09:17:25Z</time>
      </trkpt>
      <trkpt lat="48.60053" lon="1.98447">
        <ele>124</ele>
        <time>2018-08-18T09:17:29Z</time>
      </trkpt>
      <trkpt lat="48.60063" lon="1.98436">
        <ele>126</ele>
        <time>2018-08-18T09:17:33Z</time>
      </trkpt>
      <trkpt lat="48.60073" lon="1.98428">
        <ele>126</ele>
        <time>2018-08-18T09:17:37Z</time>
      </trkpt>
      <trkpt lat="48.6008" lon="1.98417">
        <ele>126</ele>
        <time>2018-08-18T09:17:41Z</time>
      </trkpt>
      <trkpt lat="48.60091" lon="1.98409">
        <ele>126</ele>
        <time>2018-08-18T09:17:45Z</time>
      </trkpt>
      <trkpt lat="48.60101" lon="1.98403">
        <ele>125</ele>
        <time>2018-08-18T09:17:49Z</time>
      </trkpt>
      <trkpt lat="48.60109" lon="1.98391">
        <ele>124</ele>
        <time>2018-08-18T09:17:53Z</time>
      </trkpt>
      <trkpt lat="48.60119" lon="1.98381">
        <ele>124</ele>
        <time>2018-08-18T09:17:57Z</time>
      </trkpt>
      <trkpt lat="48.60129" lon="1.98376">
        <ele>122</ele>
        <time>2018-08-18T09:18:01Z</time>
      </trkpt>
      <trkpt lat="48.60138" lon="1.98365">
        <ele>122</ele>
        <time>2018-08-18T09:18:05Z</time>
      </trkpt>
      <trkpt lat="48.60147" lon="1.98356">
        <ele>121</ele>
        <time>2018-08-18T09:18:09Z</time>
      </trkpt>
      <trkpt lat="48.60152" lon="1.98358">
        <ele>119</ele>
        <time>2018-08-18T09:18:13Z</time>
      </trkpt>
      <trkpt lat="48.60161" lon="1.98349">
        <ele>119</ele>
        <time>2018-08-18T09:18:17Z</time>
      </trkpt>
      <trkpt lat="48.6018" lon="1.98349">
        <ele>119</ele>
        <time>2018-08-18T09:18:21Z</time>
      </trkpt>
      <trkpt lat="48.60196" lon="1.98347">
        <ele>119</ele>
        <time>2018-08-18T09:18:25Z</time>
      </trkpt>
      <trkpt lat="48.60209" lon="1.98342">
        <ele>119</ele>
        <time>2018-08-18T09:18:29Z</time>
      </trkpt>
      <trkpt lat="48.60217" lon="1.98332">
        <ele>119</ele>
        <time>2018-08-18T09:18:33Z</time>
      </trkpt>
      <trkpt lat="48.60227" lon="1.98325">
        <ele>119</ele>
        <time>2018-08-18T09:18:37Z</time>
      </trkpt>
      <trkpt lat="48.60235" lon="1.98313">
        <ele>119</ele>
        <time>2018-08-18T09:18:41Z</time>
      </trkpt>
      <trkpt lat="48.60247" lon="1.98305">
        <ele>119</ele>
        <time>2018-08-18T09:18:45Z</time>
      </trkpt>
      <trkpt lat="48.60258" lon="1.983">
        <ele>118</ele>
        <time>2018-08-18T09:18:49Z</time>
      </trkpt>
      <trkpt lat="48.6027" lon="1.98297">
        <ele>117</ele>
        <time>2018-08-18T09:18:53Z</time>
      </trkpt>
      <trkpt lat="48.60281" lon="1.98294">
        <ele>116</ele>
        <time>2018-08-18T09:18:57Z</time>
      </trkpt>
      <trkpt lat="48.6029" lon="1.98289">
        <ele>115</ele>
        <time>2018-08-18T09:19:01Z</time>
      </trkpt>
      <trkpt lat="48.60298" lon="1.98282">
        <ele>114</ele>
        <time>2018-08-18T09:19:05Z</time>
      </trkpt>
      <trkpt lat="48.60304" lon="1.98278">
        <ele>114</ele>
        <time>2018-08-18T09:19:09Z</time>
      </trkpt>
      <trkpt lat="48.6031" lon="1.98273">
        <ele>112</ele>
        <time>2018-08-18T09:19:13Z</time>
      </trkpt>
      <trkpt lat="48.60315" lon="1.9827">
        <ele>110</ele>
        <time>2018-08-18T09:19:17Z</time>
      </trkpt>
      <trkpt lat="48.60323" lon="1.98269">
        <ele>110</ele>
        <time>2018-08-18T09:19:21Z</time>
      </trkpt>
      <trkpt lat="48.60326" lon="1.98264">
        <ele>110</ele>
        <time>2018-08-18T09:19:25Z</time>
      </trkpt>
      <trkpt lat="48.60329" lon="1.98255">
        <ele>110</ele>
        <time>2018-08-18T09:19:29Z</time>
      </trkpt>
      <trkpt lat="48.60331" lon="1.98247">
        <ele>110</ele>
        <time>2018-08-18T09:19:33Z</time>
      </trkpt>
      <trkpt lat="48.60334" lon="1.98238">
        <ele>110</ele>
        <time>2018-08-18T09:19:37Z</time>
      </trkpt>
      <trkpt lat="48.60339" lon="1.98231">
        <ele>110</ele>
        <time>2018-08-18T09:19:41Z</time>
      </trkpt>
      <trkpt lat="48.60346" lon="1.98229">
        <ele>110</ele>
        <time>2018-08-18T09:19:45Z</time>
      </trkpt>
      <trkpt lat="48.60349" lon="1.98227">
        <ele>110</ele>
        <time>2018-08-18T09:19:50Z</time>
      </trkpt>
      <trkpt lat="48.60352" lon="1.98225">
        <ele>110</ele>
        <time>2018-08-18T09:19:54Z</time>
      </trkpt>
      <trkpt lat="48.60355" lon="1.98221">
        <ele>108</ele>
        <time>2018-08-18T09:19:58Z</time>
      </trkpt>
      <trkpt lat="48.6036" lon="1.98212">
        <ele>108</ele>
        <time>2018-08-18T09:20:02Z</time>
      </trkpt>
      <trkpt lat="48.60365" lon="1.98206">
        <ele>108</ele>
        <time>2018-08-18T09:20:06Z</time>
      </trkpt>
      <trkpt lat="48.6037" lon="1.98204">
        <ele>108</ele>
        <time>2018-08-18T09:20:10Z</time>
      </trkpt>
      <trkpt lat="48.60377" lon="1.98202">
        <ele>108</ele>
        <time>2018-08-18T09:20:14Z</time>
      </trkpt>
      <trkpt lat="48.6038" lon="1.98195">
        <ele>108</ele>
        <time>2018-08-18T09:20:18Z</time>
      </trkpt>
      <trkpt lat="48.60376" lon="1.98188">
        <ele>108</ele>
        <time>2018-08-18T09:20:22Z</time>
      </trkpt>
      <trkpt lat="48.60369" lon="1.9818">
        <ele>108</ele>
        <time>2018-08-18T09:20:26Z</time>
      </trkpt>
      <trkpt lat="48.60361" lon="1.98171">
        <ele>108</ele>
        <time>2018-08-18T09:20:30Z</time>
      </trkpt>
      <trkpt lat="48.60351" lon="1.98159">
        <ele>108</ele>
        <time>2018-08-18T09:20:34Z</time>
      </trkpt>
      <trkpt lat="48.6034" lon="1.98149">
        <ele>108</ele>
        <time>2018-08-18T09:20:38Z</time>
      </trkpt>
      <trkpt lat="48.6033" lon="1.9814">
        <ele>108</ele>
        <time>2018-08-18T09:20:42Z</time>
      </trkpt>
      <trkpt lat="48.60321" lon="1.98128">
        <ele>107</ele>
        <time>2018-08-18T09:20:46Z</time>
      </trkpt>
      <trkpt lat="48.60309" lon="1.98116">
        <ele>107</ele>
        <time>2018-08-18T09:20:50Z</time>
      </trkpt>
      <trkpt lat="48.60297" lon="1.98104">
        <ele>107</ele>
        <time>2018-08-18T09:20:54Z</time>
      </trkpt>
      <trkpt lat="48.60288" lon="1.98094">
        <ele>107</ele>
        <time>2018-08-18T09:20:58Z</time>
      </trkpt>
      <trkpt lat="48.60278" lon="1.98084">
        <ele>107</ele>
        <time>2018-08-18T09:21:02Z</time>
      </trkpt>
      <trkpt lat="48.60267" lon="1.98074">
        <ele>107</ele>
        <time>2018-08-18T09:21:06Z</time>
      </trkpt>
      <trkpt lat="48.60257" lon="1.98063">
        <ele>107</ele>
        <time>2018-08-18T09:21:10Z</time>
      </trkpt>
      <trkpt lat="48.60246" lon="1.98052">
        <ele>107</ele>
        <time>2018-08-18T09:21:14Z</time>
      </trkpt>
      <trkpt lat="48.60236" lon="1.98041">
        <ele>107</ele>
        <time>2018-08-18T09:21:18Z</time>
      </trkpt>
      <trkpt lat="48.60225" lon="1.98029">
        <ele>107</ele>
        <time>2018-08-18T09:21:22Z</time>
      </trkpt>
      <trkpt lat="48.60215" lon="1.98017">
        <ele>107</ele>
        <time>2018-08-18T09:21:26Z</time>
      </trkpt>
      <trkpt lat="48.60204" lon="1.98005">
        <ele>107</ele>
        <time>2018-08-18T09:21:30Z</time>
      </trkpt>
      <trkpt lat="48.60193" lon="1.97994">
        <ele>107</ele>
        <time>2018-08-18T09:21:34Z</time>
      </trkpt>
      <trkpt lat="48.60182" lon="1.97981">
        <ele>107</ele>
        <time>2018-08-18T09:21:38Z</time>
      </trkpt>
      <trkpt lat="48.60169" lon="1.97967">
        <ele>107</ele>
        <time>2018-08-18T09:21:42Z</time>
      </trkpt>
      <trkpt lat="48.60157" lon="1.97955">
        <ele>107</ele>
        <time>2018-08-18T09:21:46Z</time>
      </trkpt>
      <trkpt lat="48.60146" lon="1.97943">
        <ele>107</ele>
        <time>2018-08-18T09:21:50Z</time>
      </trkpt>
      <trkpt lat="48.60135" lon="1.97932">
        <ele>107</ele>
        <time>2018-08-18T09:21:54Z</time>
      </trkpt>
      <trkpt lat="48.60125" lon="1.9792">
        <ele>107</ele>
        <time>2018-08-18T09:21:58Z</time>
      </trkpt>
      <trkpt lat="48.60115" lon="1.97907">
        <ele>107</ele>
        <time>2018-08-18T09:22:02Z</time>
      </trkpt>
      <trkpt lat="48.60105" lon="1.97895">
        <ele>108</ele>
        <time>2018-08-18T09:22:06Z</time>
      </trkpt>
      <trkpt lat="48.60093" lon="1.97882">
        <ele>110</ele>
        <time>2018-08-18T09:22:10Z</time>
      </trkpt>
      <trkpt lat="48.60082" lon="1.97869">
        <ele>111</ele>
        <time>2018-08-18T09:22:14Z</time>
      </trkpt>
      <trkpt lat="48.6007" lon="1.97858">
        <ele>113</ele>
        <time>2018-08-18T09:22:18Z</time>
      </trkpt>
      <trkpt lat="48.60059" lon="1.97847">
        <ele>114</ele>
        <time>2018-08-18T09:22:22Z</time>
      </trkpt>
      <trkpt lat="48.60046" lon="1.97833">
        <ele>116</ele>
        <time>2018-08-18T09:22:26Z</time>
      </trkpt>
      <trkpt lat="48.60036" lon="1.97824">
        <ele>117</ele>
        <time>2018-08-18T09:22:30Z</time>
      </trkpt>
      <trkpt lat="48.60026" lon="1.97812">
        <ele>117</ele>
        <time>2018-08-18T09:22:34Z</time>
      </trkpt>
      <trkpt lat="48.60014" lon="1.978">
        <ele>117</ele>
        <time>2018-08-18T09:22:38Z</time>
      </trkpt>
      <trkpt lat="48.60005" lon="1.97786">
        <ele>118</ele>
        <time>2018-08-18T09:22:42Z</time>
      </trkpt>
      <trkpt lat="48.59999" lon="1.97772">
        <ele>119</ele>
        <time>2018-08-18T09:22:46Z</time>
      </trkpt>
      <trkpt lat="48.59994" lon="1.97756">
        <ele>119</ele>
        <time>2018-08-18T09:22:50Z</time>
      </trkpt>
      <trkpt lat="48.59985" lon="1.97736">
        <ele>119</ele>
        <time>2018-08-18T09:22:54Z</time>
      </trkpt>
      <trkpt lat="48.59978" lon="1.97717">
        <ele>119</ele>
        <time>2018-08-18T09:22:58Z</time>
      </trkpt>
      <trkpt lat="48.59978" lon="1.97696">
        <ele>121</ele>
        <time>2018-08-18T09:23:02Z</time>
      </trkpt>
      <trkpt lat="48.59983" lon="1.97683">
        <ele>121</ele>
        <time>2018-08-18T09:23:06Z</time>
      </trkpt>
      <trkpt lat="48.59988" lon="1.97669">
        <ele>121</ele>
        <time>2018-08-18T09:23:10Z</time>
      </trkpt>
      <trkpt lat="48.59995" lon="1.97652">
        <ele>121</ele>
        <time>2018-08-18T09:23:14Z</time>
      </trkpt>
      <trkpt lat="48.60002" lon="1.97638">
        <ele>121</ele>
        <time>2018-08-18T09:23:18Z</time>
      </trkpt>
      <trkpt lat="48.60009" lon="1.97625">
        <ele>121</ele>
        <time>2018-08-18T09:23:22Z</time>
      </trkpt>
      <trkpt lat="48.60018" lon="1.97608">
        <ele>121</ele>
        <time>2018-08-18T09:23:26Z</time>
      </trkpt>
      <trkpt lat="48.60026" lon="1.97588">
        <ele>121</ele>
        <time>2018-08-18T09:23:30Z</time>
      </trkpt>
      <trkpt lat="48.60032" lon="1.97568">
        <ele>124</ele>
        <time>2018-08-18T09:23:34Z</time>
      </trkpt>
      <trkpt lat="48.60039" lon="1.97551">
        <ele>127</ele>
        <time>2018-08-18T09:23:38Z</time>
      </trkpt>
      <trkpt lat="48.60048" lon="1.97536">
        <ele>127</ele>
        <time>2018-08-18T09:23:42Z</time>
      </trkpt>
      <trkpt lat="48.60054" lon="1.97526">
        <ele>127</ele>
        <time>2018-08-18T09:23:47Z</time>
      </trkpt>
      <trkpt lat="48.60059" lon="1.9752">
        <ele>127</ele>
        <time>2018-08-18T09:23:51Z</time>
      </trkpt>
      <trkpt lat="48.60064" lon="1.97514">
        <ele>127</ele>
        <time>2018-08-18T09:23:55Z</time>
      </trkpt>
      <trkpt lat="48.60068" lon="1.97506">
        <ele>127</ele>
        <time>2018-08-18T09:23:59Z</time>
      </trkpt>
      <trkpt lat="48.60071" lon="1.97499">
        <ele>127</ele>
        <time>2018-08-18T09:24:03Z</time>
      </trkpt>
      <trkpt lat="48.60076" lon="1.97491">
        <ele>127</ele>
        <time>2018-08-18T09:24:07Z</time>
      </trkpt>
      <trkpt lat="48.6008" lon="1.97483">
        <ele>127</ele>
        <time>2018-08-18T09:24:12Z</time>
      </trkpt>
      <trkpt lat="48.60085" lon="1.97476">
        <ele>127</ele>
        <time>2018-08-18T09:24:16Z</time>
      </trkpt>
      <trkpt lat="48.60088" lon="1.97468">
        <ele>127</ele>
        <time>2018-08-18T09:24:20Z</time>
      </trkpt>
      <trkpt lat="48.60091" lon="1.97462">
        <ele>127</ele>
        <time>2018-08-18T09:24:24Z</time>
      </trkpt>
      <trkpt lat="48.60092" lon="1.97457">
        <ele>127</ele>
        <time>2018-08-18T09:24:28Z</time>
      </trkpt>
      <trkpt lat="48.60095" lon="1.97448">
        <ele>127</ele>
        <time>2018-08-18T09:24:33Z</time>
      </trkpt>
      <trkpt lat="48.60096" lon="1.9744">
        <ele>128</ele>
        <time>2018-08-18T09:24:37Z</time>
      </trkpt>
      <trkpt lat="48.60099" lon="1.97433">
        <ele>130</ele>
        <time>2018-08-18T09:24:41Z</time>
      </trkpt>
      <trkpt lat="48.60104" lon="1.97427">
        <ele>130</ele>
        <time>2018-08-18T09:24:45Z</time>
      </trkpt>
      <trkpt lat="48.60109" lon="1.97419">
        <ele>130</ele>
        <time>2018-08-18T09:24:50Z</time>
      </trkpt>
      <trkpt lat="48.60111" lon="1.9741">
        <ele>133</ele>
        <time>2018-08-18T09:24:54Z</time>
      </trkpt>
      <trkpt lat="48.60114" lon="1.97402">
        <ele>134</ele>
        <time>2018-08-18T09:24:58Z</time>
      </trkpt>
      <trkpt lat="48.60119" lon="1.97393">
        <ele>136</ele>
        <time>2018-08-18T09:25:02Z</time>
      </trkpt>
      <trkpt lat="48.60123" lon="1.97384">
        <ele>137</ele>
        <time>2018-08-18T09:25:06Z</time>
      </trkpt>
      <trkpt lat="48.60127" lon="1.97375">
        <ele>138</ele>
        <time>2018-08-18T09:25:10Z</time>
      </trkpt>
      <trkpt lat="48.60131" lon="1.97368">
        <ele>139</ele>
        <time>2018-08-18T09:25:14Z</time>
      </trkpt>
      <trkpt lat="48.60135" lon="1.97361">
        <ele>139</ele>
        <time>2018-08-18T09:25:18Z</time>
      </trkpt>
      <trkpt lat="48.60138" lon="1.97353">
        <ele>139</ele>
        <time>2018-08-18T09:25:22Z</time>
      </trkpt>
      <trkpt lat="48.60141" lon="1.97346">
        <ele>139</ele>
        <time>2018-08-18T09:25:26Z</time>
      </trkpt>
      <trkpt lat="48.60143" lon="1.97338">
        <ele>141</ele>
        <time>2018-08-18T09:25:30Z</time>
      </trkpt>
      <trkpt lat="48.60146" lon="1.9733">
        <ele>141</ele>
        <time>2018-08-18T09:25:35Z</time>
      </trkpt>
      <trkpt lat="48.60152" lon="1.97327">
        <ele>141</ele>
        <time>2018-08-18T09:25:39Z</time>
      </trkpt>
      <trkpt lat="48.60153" lon="1.97318">
        <ele>141</ele>
        <time>2018-08-18T09:25:43Z</time>
      </trkpt>
      <trkpt lat="48.60155" lon="1.97309">
        <ele>142</ele>
        <time>2018-08-18T09:25:47Z</time>
      </trkpt>
      <trkpt lat="48.60159" lon="1.97301">
        <ele>142</ele>
        <time>2018-08-18T09:25:52Z</time>
      </trkpt>
      <trkpt lat="48.60162" lon="1.97293">
        <ele>142</ele>
        <time>2018-08-18T09:25:57Z</time>
      </trkpt>
      <trkpt lat="48.60167" lon="1.97285">
        <ele>142</ele>
        <time>2018-08-18T09:26:02Z</time>
      </trkpt>
      <trkpt lat="48.60167" lon="1.97276">
        <ele>142</ele>
        <time>2018-08-18T09:26:06Z</time>
      </trkpt>
      <trkpt lat="48.6017" lon="1.97269">
        <ele>142</ele>
        <time>2018-08-18T09:26:10Z</time>
      </trkpt>
      <trkpt lat="48.60174" lon="1.97263">
        <ele>142</ele>
        <time>2018-08-18T09:26:14Z</time>
      </trkpt>
      <trkpt lat="48.60178" lon="1.97258">
        <ele>142</ele>
        <time>2018-08-18T09:26:18Z</time>
      </trkpt>
      <trkpt lat="48.60182" lon="1.97252">
        <ele>142</ele>
        <time>2018-08-18T09:26:23Z</time>
      </trkpt>
      <trkpt lat="48.60186" lon="1.97247">
        <ele>140</ele>
        <time>2018-08-18T09:26:28Z</time>
      </trkpt>
      <trkpt lat="48.60191" lon="1.97241">
        <ele>140</ele>
        <time>2018-08-18T09:26:33Z</time>
      </trkpt>
      <trkpt lat="48.60191" lon="1.97235">
        <ele>139</ele>
        <time>2018-08-18T09:26:37Z</time>
      </trkpt>
      <trkpt lat="48.60194" lon="1.97226">
        <ele>139</ele>
        <time>2018-08-18T09:26:43Z</time>
      </trkpt>
      <trkpt lat="48.60195" lon="1.97218">
        <ele>139</ele>
        <time>2018-08-18T09:26:48Z</time>
      </trkpt>
      <trkpt lat="48.60196" lon="1.97212">
        <ele>139</ele>
        <time>2018-08-18T09:26:52Z</time>
      </trkpt>
      <trkpt lat="48.60199" lon="1.97207">
        <ele>139</ele>
        <time>2018-08-18T09:26:57Z</time>
      </trkpt>
      <trkpt lat="48.60202" lon="1.972">
        <ele>139</ele>
        <time>2018-08-18T09:27:01Z</time>
      </trkpt>
      <trkpt lat="48.60205" lon="1.97192">
        <ele>139</ele>
        <time>2018-08-18T09:27:05Z</time>
      </trkpt>
      <trkpt lat="48.60207" lon="1.97184">
        <ele>139</ele>
        <time>2018-08-18T09:27:09Z</time>
      </trkpt>
      <trkpt lat="48.6021" lon="1.97178">
        <ele>138</ele>
        <time>2018-08-18T09:27:13Z</time>
      </trkpt>
      <trkpt lat="48.60215" lon="1.97172">
        <ele>135</ele>
        <time>2018-08-18T09:27:17Z</time>
      </trkpt>
      <trkpt lat="48.60221" lon="1.97165">
        <ele>132</ele>
        <time>2018-08-18T09:27:21Z</time>
      </trkpt>
      <trkpt lat="48.60226" lon="1.97156">
        <ele>130</ele>
        <time>2018-08-18T09:27:25Z</time>
      </trkpt>
      <trkpt lat="48.60231" lon="1.97149">
        <ele>130</ele>
        <time>2018-08-18T09:27:29Z</time>
      </trkpt>
      <trkpt lat="48.60234" lon="1.97139">
        <ele>130</ele>
        <time>2018-08-18T09:27:33Z</time>
      </trkpt>
      <trkpt lat="48.60237" lon="1.97129">
        <ele>130</ele>
        <time>2018-08-18T09:27:37Z</time>
      </trkpt>
      <trkpt lat="48.6024" lon="1.97118">
        <ele>130</ele>
        <time>2018-08-18T09:27:42Z</time>
      </trkpt>
      <trkpt lat="48.60244" lon="1.97112">
        <ele>130</ele>
        <time>2018-08-18T09:27:47Z</time>
      </trkpt>
      <trkpt lat="48.60246" lon="1.97104">
        <ele>130</ele>
        <time>2018-08-18T09:27:51Z</time>
      </trkpt>
      <trkpt lat="48.60249" lon="1.97096">
        <ele>130</ele>
        <time>2018-08-18T09:27:55Z</time>
      </trkpt>
      <trkpt lat="48.60253" lon="1.97089">
        <ele>129</ele>
        <time>2018-08-18T09:27:59Z</time>
      </trkpt>
      <trkpt lat="48.60256" lon="1.97082">
        <ele>128</ele>
        <time>2018-08-18T09:28:03Z</time>
      </trkpt>
      <trkpt lat="48.60259" lon="1.97074">
        <ele>128</ele>
        <time>2018-08-18T09:28:07Z</time>
      </trkpt>
      <trkpt lat="48.60262" lon="1.97069">
        <ele>127</ele>
        <time>2018-08-18T09:28:11Z</time>
      </trkpt>
      <trkpt lat="48.60266" lon="1.97061">
        <ele>126</ele>
        <time>2018-08-18T09:28:15Z</time>
      </trkpt>
      <trkpt lat="48.60271" lon="1.97055">
        <ele>125</ele>
        <time>2018-08-18T09:28:19Z</time>
      </trkpt>
      <trkpt lat="48.60275" lon="1.97047">
        <ele>125</ele>
        <time>2018-08-18T09:28:23Z</time>
      </trkpt>
      <trkpt lat="48.60278" lon="1.97038">
        <ele>125</ele>
        <time>2018-08-18T09:28:27Z</time>
      </trkpt>
      <trkpt lat="48.60283" lon="1.97029">
        <ele>124</ele>
        <time>2018-08-18T09:28:32Z</time>
      </trkpt>
      <trkpt lat="48.60287" lon="1.97021">
        <ele>124</ele>
        <time>2018-08-18T09:28:36Z</time>
      </trkpt>
      <trkpt lat="48.6029" lon="1.97013">
        <ele>124</ele>
        <time>2018-08-18T09:28:40Z</time>
      </trkpt>
      <trkpt lat="48.60295" lon="1.97004">
        <ele>124</ele>
        <time>2018-08-18T09:28:45Z</time>
      </trkpt>
      <trkpt lat="48.603" lon="1.96997">
        <ele>123</ele>
        <time>2018-08-18T09:28:49Z</time>
      </trkpt>
      <trkpt lat="48.60305" lon="1.96989">
        <ele>121</ele>
        <time>2018-08-18T09:28:54Z</time>
      </trkpt>
      <trkpt lat="48.6031" lon="1.96982">
        <ele>121</ele>
        <time>2018-08-18T09:28:58Z</time>
      </trkpt>
      <trkpt lat="48.60315" lon="1.96976">
        <ele>121</ele>
        <time>2018-08-18T09:29:03Z</time>
      </trkpt>
      <trkpt lat="48.60319" lon="1.96966">
        <ele>121</ele>
        <time>2018-08-18T09:29:08Z</time>
      </trkpt>
      <trkpt lat="48.60318" lon="1.96955">
        <ele>121</ele>
        <time>2018-08-18T09:29:12Z</time>
      </trkpt>
      <trkpt lat="48.60324" lon="1.96947">
        <ele>122</ele>
        <time>2018-08-18T09:29:17Z</time>
      </trkpt>
      <trkpt lat="48.60328" lon="1.96942">
        <ele>122</ele>
        <time>2018-08-18T09:29:21Z</time>
      </trkpt>
      <trkpt lat="48.60331" lon="1.96933">
        <ele>122</ele>
        <time>2018-08-18T09:29:26Z</time>
      </trkpt>
      <trkpt lat="48.60333" lon="1.96927">
        <ele>123</ele>
        <time>2018-08-18T09:29:30Z</time>
      </trkpt>
      <trkpt lat="48.60337" lon="1.9692">
        <ele>124</ele>
        <time>2018-08-18T09:29:34Z</time>
      </trkpt>
      <trkpt lat="48.6034" lon="1.96912">
        <ele>124</ele>
        <time>2018-08-18T09:29:39Z</time>
      </trkpt>
      <trkpt lat="48.60345" lon="1.96903">
        <ele>125</ele>
        <time>2018-08-18T09:29:43Z</time>
      </trkpt>
      <trkpt lat="48.6035" lon="1.96893">
        <ele>126</ele>
        <time>2018-08-18T09:29:48Z</time>
      </trkpt>
      <trkpt lat="48.60353" lon="1.96886">
        <ele>126</ele>
        <time>2018-08-18T09:29:52Z</time>
      </trkpt>
      <trkpt lat="48.60357" lon="1.96878">
        <ele>126</ele>
        <time>2018-08-18T09:29:56Z</time>
      </trkpt>
      <trkpt lat="48.6036" lon="1.96872">
        <ele>127</ele>
        <time>2018-08-18T09:30:00Z</time>
      </trkpt>
      <trkpt lat="48.60364" lon="1.96862">
        <ele>128</ele>
        <time>2018-08-18T09:30:04Z</time>
      </trkpt>
      <trkpt lat="48.60369" lon="1.96852">
        <ele>131</ele>
        <time>2018-08-18T09:30:09Z</time>
      </trkpt>
      <trkpt lat="48.60373" lon="1.96846">
        <ele>132</ele>
        <time>2018-08-18T09:30:13Z</time>
      </trkpt>
      <trkpt lat="48.60376" lon="1.96837">
        <ele>133</ele>
        <time>2018-08-18T09:30:17Z</time>
      </trkpt>
      <trkpt lat="48.60378" lon="1.9683">
        <ele>135</ele>
        <time>2018-08-18T09:30:21Z</time>
      </trkpt>
      <trkpt lat="48.60383" lon="1.96823">
        <ele>137</ele>
        <time>2018-08-18T09:30:26Z</time>
      </trkpt>
      <trkpt lat="48.60386" lon="1.96815">
        <ele>139</ele>
        <time>2018-08-18T09:30:30Z</time>
      </trkpt>
      <trkpt lat="48.6039" lon="1.96808">
        <ele>140</ele>
        <time>2018-08-18T09:30:34Z</time>
      </trkpt>
      <trkpt lat="48.60393" lon="1.96801">
        <ele>140</ele>
        <time>2018-08-18T09:30:38Z</time>
      </trkpt>
      <trkpt lat="48.60397" lon="1.96795">
        <ele>142</ele>
        <time>2018-08-18T09:30:42Z</time>
      </trkpt>
      <trkpt lat="48.60399" lon="1.96786">
        <ele>142</ele>
        <time>2018-08-18T09:30:47Z</time>
      </trkpt>
      <trkpt lat="48.60402" lon="1.96776">
        <ele>142</ele>
        <time>2018-08-18T09:30:52Z</time>
      </trkpt>
      <trkpt lat="48.60406" lon="1.96769">
        <ele>142</ele>
        <time>2018-08-18T09:30:56Z</time>
      </trkpt>
      <trkpt lat="48.60412" lon="1.9676">
        <ele>142</ele>
        <time>2018-08-18T09:31:01Z</time>
      </trkpt>
      <trkpt lat="48.60417" lon="1.96751">
        <ele>142</ele>
        <time>2018-08-18T09:31:05Z</time>
      </trkpt>
      <trkpt lat="48.60423" lon="1.96743">
        <ele>141</ele>
        <time>2018-08-18T09:31:10Z</time>
      </trkpt>
      <trkpt lat="48.60426" lon="1.96735">
        <ele>141</ele>
        <time>2018-08-18T09:31:14Z</time>
      </trkpt>
      <trkpt lat="48.60428" lon="1.96725">
        <ele>141</ele>
        <time>2018-08-18T09:31:19Z</time>
      </trkpt>
      <trkpt lat="48.6043" lon="1.96715">
        <ele>141</ele>
        <time>2018-08-18T09:31:24Z</time>
      </trkpt>
      <trkpt lat="48.60433" lon="1.96707">
        <ele>141</ele>
        <time>2018-08-18T09:31:28Z</time>
      </trkpt>
      <trkpt lat="48.60438" lon="1.96699">
        <ele>141</ele>
        <time>2018-08-18T09:31:32Z</time>
      </trkpt>
      <trkpt lat="48.60444" lon="1.96695">
        <ele>141</ele>
        <time>2018-08-18T09:31:36Z</time>
      </trkpt>
      <trkpt lat="48.60447" lon="1.96687">
        <ele>141</ele>
        <time>2018-08-18T09:31:40Z</time>
      </trkpt>
      <trkpt lat="48.6045" lon="1.96679">
        <ele>141</ele>
        <time>2018-08-18T09:31:45Z</time>
      </trkpt>
      <trkpt lat="48.60451" lon="1.96671">
        <ele>141</ele>
        <time>2018-08-18T09:31:49Z</time>
      </trkpt>
      <trkpt lat="48.60454" lon="1.96661">
        <ele>141</ele>
        <time>2018-08-18T09:31:53Z</time>
      </trkpt>
      <trkpt lat="48.60459" lon="1.96652">
        <ele>141</ele>
        <time>2018-08-18T09:31:57Z</time>
      </trkpt>
      <trkpt lat="48.60464" lon="1.96645">
        <ele>141</ele>
        <time>2018-08-18T09:32:01Z</time>
      </trkpt>
      <trkpt lat="48.60468" lon="1.96637">
        <ele>141</ele>
        <time>2018-08-18T09:32:05Z</time>
      </trkpt>
      <trkpt lat="48.60469" lon="1.96629">
        <ele>141</ele>
        <time>2018-08-18T09:32:09Z</time>
      </trkpt>
      <trkpt lat="48.60473" lon="1.9662">
        <ele>144</ele>
        <time>2018-08-18T09:32:14Z</time>
      </trkpt>
      <trkpt lat="48.60476" lon="1.96611">
        <ele>144</ele>
        <time>2018-08-18T09:32:18Z</time>
      </trkpt>
      <trkpt lat="48.6048" lon="1.96601">
        <ele>145</ele>
        <time>2018-08-18T09:32:23Z</time>
      </trkpt>
      <trkpt lat="48.60483" lon="1.96592">
        <ele>146</ele>
        <time>2018-08-18T09:32:28Z</time>
      </trkpt>
      <trkpt lat="48.60485" lon="1.96585">
        <ele>146</ele>
        <time>2018-08-18T09:32:32Z</time>
      </trkpt>
      <trkpt lat="48.60489" lon="1.96577">
        <ele>146</ele>
        <time>2018-08-18T09:32:36Z</time>
      </trkpt>
      <trkpt lat="48.60491" lon="1.96567">
        <ele>146</ele>
        <time>2018-08-18T09:32:40Z</time>
      </trkpt>
      <trkpt lat="48.60492" lon="1.96557">
        <ele>146</ele>
        <time>2018-08-18T09:32:45Z</time>
      </trkpt>
      <trkpt lat="48.60494" lon="1.96549">
        <ele>146</ele>
        <time>2018-08-18T09:32:49Z</time>
      </trkpt>
      <trkpt lat="48.60498" lon="1.96538">
        <ele>146</ele>
        <time>2018-08-18T09:32:54Z</time>
      </trkpt>
      <trkpt lat="48.60503" lon="1.96527">
        <ele>146</ele>
        <time>2018-08-18T09:32:59Z</time>
      </trkpt>
      <trkpt lat="48.60508" lon="1.96519">
        <ele>146</ele>
        <time>2018-08-18T09:33:03Z</time>
      </trkpt>
      <trkpt lat="48.60511" lon="1.96511">
        <ele>146</ele>
        <time>2018-08-18T09:33:07Z</time>
      </trkpt>
      <trkpt lat="48.60517" lon="1.96503">
        <ele>147</ele>
        <time>2018-08-18T09:33:12Z</time>
      </trkpt>
      <trkpt lat="48.60521" lon="1.96493">
        <ele>148</ele>
        <time>2018-08-18T09:33:17Z</time>
      </trkpt>
      <trkpt lat="48.60524" lon="1.96485">
        <ele>148</ele>
        <time>2018-08-18T09:33:21Z</time>
      </trkpt>
      <trkpt lat="48.60527" lon="1.96477">
        <ele>148</ele>
        <time>2018-08-18T09:33:25Z</time>
      </trkpt>
      <trkpt lat="48.60532" lon="1.9647">
        <ele>148</ele>
        <time>2018-08-18T09:33:29Z</time>
      </trkpt>
      <trkpt lat="48.60536" lon="1.96465">
        <ele>148</ele>
        <time>2018-08-18T09:33:33Z</time>
      </trkpt>
      <trkpt lat="48.60542" lon="1.9646">
        <ele>148</ele>
        <time>2018-08-18T09:33:37Z</time>
      </trkpt>
      <trkpt lat="48.60546" lon="1.96453">
        <ele>147</ele>
        <time>2018-08-18T09:33:41Z</time>
      </trkpt>
      <trkpt lat="48.6055" lon="1.96446">
        <ele>147</ele>
        <time>2018-08-18T09:33:45Z</time>
      </trkpt>
      <trkpt lat="48.60556" lon="1.96434">
        <ele>147</ele>
        <time>2018-08-18T09:33:50Z</time>
      </trkpt>
      <trkpt lat="48.6056" lon="1.96427">
        <ele>147</ele>
        <time>2018-08-18T09:33:54Z</time>
      </trkpt>
      <trkpt lat="48.60565" lon="1.96421">
        <ele>147</ele>
        <time>2018-08-18T09:33:59Z</time>
      </trkpt>
      <trkpt lat="48.60569" lon="1.96412">
        <ele>145</ele>
        <time>2018-08-18T09:34:04Z</time>
      </trkpt>
      <trkpt lat="48.6057" lon="1.96402">
        <ele>145</ele>
        <time>2018-08-18T09:34:09Z</time>
      </trkpt>
      <trkpt lat="48.60573" lon="1.96391">
        <ele>144</ele>
        <time>2018-08-18T09:34:14Z</time>
      </trkpt>
      <trkpt lat="48.60578" lon="1.96384">
        <ele>140</ele>
        <time>2018-08-18T09:34:18Z</time>
      </trkpt>
      <trkpt lat="48.6058" lon="1.96375">
        <ele>139</ele>
        <time>2018-08-18T09:34:22Z</time>
      </trkpt>
      <trkpt lat="48.6058" lon="1.96364">
        <ele>139</ele>
        <time>2018-08-18T09:34:26Z</time>
      </trkpt>
      <trkpt lat="48.60587" lon="1.96353">
        <ele>139</ele>
        <time>2018-08-18T09:34:31Z</time>
      </trkpt>
      <trkpt lat="48.60594" lon="1.96345">
        <ele>139</ele>
        <time>2018-08-18T09:34:36Z</time>
      </trkpt>
      <trkpt lat="48.60598" lon="1.96336">
        <ele>140</ele>
        <time>2018-08-18T09:34:41Z</time>
      </trkpt>
      <trkpt lat="48.60601" lon="1.96329">
        <ele>140</ele>
        <time>2018-08-18T09:34:45Z</time>
      </trkpt>
      <trkpt lat="48.60607" lon="1.9632">
        <ele>139</ele>
        <time>2018-08-18T09:34:51Z</time>
      </trkpt>
      <trkpt lat="48.60609" lon="1.96313">
        <ele>136</ele>
        <time>2018-08-18T09:34:55Z</time>
      </trkpt>
      <trkpt lat="48.60612" lon="1.96303">
        <ele>134</ele>
        <time>2018-08-18T09:34:59Z</time>
      </trkpt>
      <trkpt lat="48.60617" lon="1.96296">
        <ele>133</ele>
        <time>2018-08-18T09:35:03Z</time>
      </trkpt>
      <trkpt lat="48.60621" lon="1.9629">
        <ele>132</ele>
        <time>2018-08-18T09:35:07Z</time>
      </trkpt>
      <trkpt lat="48.60627" lon="1.9628">
        <ele>131</ele>
        <time>2018-08-18T09:35:12Z</time>
      </trkpt>
      <trkpt lat="48.60628" lon="1.96269">
        <ele>131</ele>
        <time>2018-08-18T09:35:17Z</time>
      </trkpt>
      <trkpt lat="48.60633" lon="1.96259">
        <ele>131</ele>
        <time>2018-08-18T09:35:22Z</time>
      </trkpt>
      <trkpt lat="48.60641" lon="1.96248">
        <ele>131</ele>
        <time>2018-08-18T09:35:27Z</time>
      </trkpt>
      <trkpt lat="48.60646" lon="1.96237">
        <ele>131</ele>
        <time>2018-08-18T09:35:32Z</time>
      </trkpt>
      <trkpt lat="48.60649" lon="1.9623">
        <ele>131</ele>
        <time>2018-08-18T09:35:36Z</time>
      </trkpt>
      <trkpt lat="48.60652" lon="1.96223">
        <ele>131</ele>
        <time>2018-08-18T09:35:40Z</time>
      </trkpt>
      <trkpt lat="48.60656" lon="1.96215">
        <ele>131</ele>
        <time>2018-08-18T09:35:44Z</time>
      </trkpt>
      <trkpt lat="48.6066" lon="1.96209">
        <ele>131</ele>
        <time>2018-08-18T09:35:48Z</time>
      </trkpt>
      <trkpt lat="48.60665" lon="1.96199">
        <ele>131</ele>
        <time>2018-08-18T09:35:54Z</time>
      </trkpt>
      <trkpt lat="48.6067" lon="1.96191">
        <ele>130</ele>
        <time>2018-08-18T09:35:59Z</time>
      </trkpt>
      <trkpt lat="48.60674" lon="1.96183">
        <ele>130</ele>
        <time>2018-08-18T09:36:03Z</time>
      </trkpt>
      <trkpt lat="48.60677" lon="1.96174">
        <ele>130</ele>
        <time>2018-08-18T09:36:08Z</time>
      </trkpt>
      <trkpt lat="48.60678" lon="1.96172">
        <ele>130</ele>
        <time>2018-08-18T09:36:12Z</time>
      </trkpt>
      <trkpt lat="48.6068" lon="1.96173">
        <ele>130</ele>
        <time>2018-08-18T09:36:17Z</time>
      </trkpt>
      <trkpt lat="48.60686" lon="1.96174">
        <ele>130</ele>
        <time>2018-08-18T09:36:22Z</time>
      </trkpt>
      <trkpt lat="48.60688" lon="1.96169">
        <ele>127</ele>
        <time>2018-08-18T09:36:27Z</time>
      </trkpt>
      <trkpt lat="48.60691" lon="1.96168">
        <ele>127</ele>
        <time>2018-08-18T09:36:32Z</time>
      </trkpt>
      <trkpt lat="48.60693" lon="1.96166">
        <ele>125</ele>
        <time>2018-08-18T09:36:37Z</time>
      </trkpt>
      <trkpt lat="48.60692" lon="1.9616">
        <ele>125</ele>
        <time>2018-08-18T09:36:41Z</time>
      </trkpt>
      <trkpt lat="48.60693" lon="1.96154">
        <ele>124</ele>
        <time>2018-08-18T09:36:47Z</time>
      </trkpt>
      <trkpt lat="48.60693" lon="1.96148">
        <ele>123</ele>
        <time>2018-08-18T09:36:51Z</time>
      </trkpt>
      <trkpt lat="48.60693" lon="1.96143">
        <ele>123</ele>
        <time>2018-08-18T09:36:56Z</time>
      </trkpt>
      <trkpt lat="48.60694" lon="1.96137">
        <ele>123</ele>
        <time>2018-08-18T09:37:00Z</time>
      </trkpt>
      <trkpt lat="48.60696" lon="1.96136">
        <ele>123</ele>
        <time>2018-08-18T09:37:04Z</time>
      </trkpt>
      <trkpt lat="48.60695" lon="1.96132">
        <ele>123</ele>
        <time>2018-08-18T09:37:09Z</time>
      </trkpt>
      <trkpt lat="48.60695" lon="1.96129">
        <ele>127</ele>
        <time>2018-08-18T09:37:16Z</time>
      </trkpt>
      <trkpt lat="48.60699" lon="1.96123">
        <ele>127</ele>
        <time>2018-08-18T09:37:21Z</time>
      </trkpt>
      <trkpt lat="48.60701" lon="1.96114">
        <ele>127</ele>
        <time>2018-08-18T09:37:26Z</time>
      </trkpt>
      <trkpt lat="48.60701" lon="1.96104">
        <ele>127</ele>
        <time>2018-08-18T09:37:30Z</time>
      </trkpt>
      <trkpt lat="48.60703" lon="1.96094">
        <ele>127</ele>
        <time>2018-08-18T09:37:35Z</time>
      </trkpt>
      <trkpt lat="48.60704" lon="1.96083">
        <ele>127</ele>
        <time>2018-08-18T09:37:40Z</time>
      </trkpt>
      <trkpt lat="48.60706" lon="1.96077">
        <ele>127</ele>
        <time>2018-08-18T09:37:44Z</time>
      </trkpt>
      <trkpt lat="48.60707" lon="1.96068">
        <ele>125</ele>
        <time>2018-08-18T09:37:49Z</time>
      </trkpt>
      <trkpt lat="48.60708" lon="1.96058">
        <ele>123</ele>
        <time>2018-08-18T09:37:54Z</time>
      </trkpt>
      <trkpt lat="48.6071" lon="1.96049">
        <ele>122</ele>
        <time>2018-08-18T09:37:59Z</time>
      </trkpt>
      <trkpt lat="48.6071" lon="1.96039">
        <ele>122</ele>
        <time>2018-08-18T09:38:03Z</time>
      </trkpt>
      <trkpt lat="48.60711" lon="1.96031">
        <ele>122</ele>
        <time>2018-08-18T09:38:08Z</time>
      </trkpt>
      <trkpt lat="48.6071" lon="1.96023">
        <ele>121</ele>
        <time>2018-08-18T09:38:12Z</time>
      </trkpt>
      <trkpt lat="48.60709" lon="1.96014">
        <ele>121</ele>
        <time>2018-08-18T09:38:17Z</time>
      </trkpt>
      <trkpt lat="48.60709" lon="1.96006">
        <ele>120</ele>
        <time>2018-08-18T09:38:21Z</time>
      </trkpt>
      <trkpt lat="48.60708" lon="1.95999">
        <ele>118</ele>
        <time>2018-08-18T09:38:25Z</time>
      </trkpt>
      <trkpt lat="48.60708" lon="1.95992">
        <ele>116</ele>
        <time>2018-08-18T09:38:29Z</time>
      </trkpt>
      <trkpt lat="48.60706" lon="1.95984">
        <ele>115</ele>
        <time>2018-08-18T09:38:33Z</time>
      </trkpt>
      <trkpt lat="48.60702" lon="1.95976">
        <ele>114</ele>
        <time>2018-08-18T09:38:39Z</time>
      </trkpt>
      <trkpt lat="48.60698" lon="1.9597">
        <ele>114</ele>
        <time>2018-08-18T09:38:44Z</time>
      </trkpt>
      <trkpt lat="48.60694" lon="1.95964">
        <ele>114</ele>
        <time>2018-08-18T09:38:48Z</time>
      </trkpt>
      <trkpt lat="48.60687" lon="1.95957">
        <ele>114</ele>
        <time>2018-08-18T09:38:54Z</time>
      </trkpt>
      <trkpt lat="48.60681" lon="1.95951">
        <ele>114</ele>
        <time>2018-08-18T09:39:00Z</time>
      </trkpt>
      <trkpt lat="48.60676" lon="1.95945">
        <ele>114</ele>
        <time>2018-08-18T09:39:05Z</time>
      </trkpt>
      <trkpt lat="48.60671" lon="1.9594">
        <ele>114</ele>
        <time>2018-08-18T09:39:09Z</time>
      </trkpt>
      <trkpt lat="48.60666" lon="1.95934">
        <ele>113</ele>
        <time>2018-08-18T09:39:14Z</time>
      </trkpt>
      <trkpt lat="48.60659" lon="1.95927">
        <ele>113</ele>
        <time>2018-08-18T09:39:18Z</time>
      </trkpt>
      <trkpt lat="48.60654" lon="1.9592">
        <ele>113</ele>
        <time>2018-08-18T09:39:22Z</time>
      </trkpt>
      <trkpt lat="48.60648" lon="1.95912">
        <ele>113</ele>
        <time>2018-08-18T09:39:26Z</time>
      </trkpt>
      <trkpt lat="48.60641" lon="1.95906">
        <ele>113</ele>
        <time>2018-08-18T09:39:30Z</time>
      </trkpt>
      <trkpt lat="48.60636" lon="1.95903">
        <ele>113</ele>
        <time>2018-08-18T09:39:34Z</time>
      </trkpt>
      <trkpt lat="48.6063" lon="1.95896">
        <ele>113</ele>
        <time>2018-08-18T09:39:38Z</time>
      </trkpt>
      <trkpt lat="48.60625" lon="1.95893">
        <ele>114</ele>
        <time>2018-08-18T09:39:42Z</time>
      </trkpt>
      <trkpt lat="48.60618" lon="1.95885">
        <ele>116</ele>
        <time>2018-08-18T09:39:47Z</time>
      </trkpt>
      <trkpt lat="48.60612" lon="1.95879">
        <ele>116</ele>
        <time>2018-08-18T09:39:52Z</time>
      </trkpt>
      <trkpt lat="48.60608" lon="1.95874">
        <ele>116</ele>
        <time>2018-08-18T09:39:56Z</time>
      </trkpt>
      <trkpt lat="48.60601" lon="1.95868">
        <ele>116</ele>
        <time>2018-08-18T09:40:00Z</time>
      </trkpt>
      <trkpt lat="48.60596" lon="1.95864">
        <ele>117</ele>
        <time>2018-08-18T09:40:04Z</time>
      </trkpt>
      <trkpt lat="48.60592" lon="1.95858">
        <ele>118</ele>
        <time>2018-08-18T09:40:08Z</time>
      </trkpt>
      <trkpt lat="48.60586" lon="1.95855">
        <ele>120</ele>
        <time>2018-08-18T09:40:13Z</time>
      </trkpt>
      <trkpt lat="48.6058" lon="1.95849">
        <ele>122</ele>
        <time>2018-08-18T09:40:18Z</time>
      </trkpt>
      <trkpt lat="48.60574" lon="1.95843">
        <ele>123</ele>
        <time>2018-08-18T09:40:22Z</time>
      </trkpt>
      <trkpt lat="48.60569" lon="1.95834">
        <ele>123</ele>
        <time>2018-08-18T09:40:26Z</time>
      </trkpt>
      <trkpt lat="48.60563" lon="1.95829">
        <ele>123</ele>
        <time>2018-08-18T09:40:30Z</time>
      </trkpt>
      <trkpt lat="48.60558" lon="1.95825">
        <ele>123</ele>
        <time>2018-08-18T09:40:34Z</time>
      </trkpt>
      <trkpt lat="48.60552" lon="1.95817">
        <ele>123</ele>
        <time>2018-08-18T09:40:39Z</time>
      </trkpt>
      <trkpt lat="48.60546" lon="1.9581">
        <ele>123</ele>
        <time>2018-08-18T09:40:44Z</time>
      </trkpt>
      <trkpt lat="48.6054" lon="1.95803">
        <ele>123</ele>
        <time>2018-08-18T09:40:48Z</time>
      </trkpt>
      <trkpt lat="48.60535" lon="1.95793">
        <ele>123</ele>
        <time>2018-08-18T09:40:52Z</time>
      </trkpt>
      <trkpt lat="48.60527" lon="1.95787">
        <ele>123</ele>
        <time>2018-08-18T09:40:57Z</time>
      </trkpt>
      <trkpt lat="48.60523" lon="1.95781">
        <ele>123</ele>
        <time>2018-08-18T09:41:02Z</time>
      </trkpt>
      <trkpt lat="48.6052" lon="1.95776">
        <ele>123</ele>
        <time>2018-08-18T09:41:07Z</time>
      </trkpt>
      <trkpt lat="48.60518" lon="1.95774">
        <ele>123</ele>
        <time>2018-08-18T09:41:11Z</time>
      </trkpt>
      <trkpt lat="48.60515" lon="1.95773">
        <ele>123</ele>
        <time>2018-08-18T09:41:15Z</time>
      </trkpt>
      <trkpt lat="48.60511" lon="1.95767">
        <ele>123</ele>
        <time>2018-08-18T09:41:20Z</time>
      </trkpt>
      <trkpt lat="48.60506" lon="1.95762">
        <ele>123</ele>
        <time>2018-08-18T09:41:24Z</time>
      </trkpt>
      <trkpt lat="48.60501" lon="1.95756">
        <ele>123</ele>
        <time>2018-08-18T09:41:28Z</time>
      </trkpt>
      <trkpt lat="48.60496" lon="1.9575">
        <ele>123</ele>
        <time>2018-08-18T09:41:32Z</time>
      </trkpt>
      <trkpt lat="48.60491" lon="1.95743">
        <ele>122</ele>
        <time>2018-08-18T09:41:36Z</time>
      </trkpt>
      <trkpt lat="48.60484" lon="1.9574">
        <ele>122</ele>
        <time>2018-08-18T09:41:40Z</time>
      </trkpt>
      <trkpt lat="48.6048" lon="1.95736">
        <ele>122</ele>
        <time>2018-08-18T09:41:44Z</time>
      </trkpt>
      <trkpt lat="48.60477" lon="1.95731">
        <ele>122</ele>
        <time>2018-08-18T09:41:48Z</time>
      </trkpt>
      <trkpt lat="48.60472" lon="1.95718">
        <ele>121</ele>
        <time>2018-08-18T09:41:52Z</time>
      </trkpt>
      <trkpt lat="48.60465" lon="1.95709">
        <ele>121</ele>
        <time>2018-08-18T09:41:57Z</time>
      </trkpt>
      <trkpt lat="48.60459" lon="1.95705">
        <ele>121</ele>
        <time>2018-08-18T09:42:01Z</time>
      </trkpt>
      <trkpt lat="48.60454" lon="1.95703">
        <ele>121</ele>
        <time>2018-08-18T09:42:06Z</time>
      </trkpt>
      <trkpt lat="48.60447" lon="1.95702">
        <ele>121</ele>
        <time>2018-08-18T09:42:10Z</time>
      </trkpt>
      <trkpt lat="48.60441" lon="1.957">
        <ele>121</ele>
        <time>2018-08-18T09:42:14Z</time>
      </trkpt>
      <trkpt lat="48.60436" lon="1.95692">
        <ele>121</ele>
        <time>2018-08-18T09:42:18Z</time>
      </trkpt>
      <trkpt lat="48.60431" lon="1.95682">
        <ele>121</ele>
        <time>2018-08-18T09:42:22Z</time>
      </trkpt>
      <trkpt lat="48.60427" lon="1.95674">
        <ele>121</ele>
        <time>2018-08-18T09:42:26Z</time>
      </trkpt>
      <trkpt lat="48.60423" lon="1.9567">
        <ele>121</ele>
        <time>2018-08-18T09:42:30Z</time>
      </trkpt>
      <trkpt lat="48.60418" lon="1.95668">
        <ele>121</ele>
        <time>2018-08-18T09:42:34Z</time>
      </trkpt>
      <trkpt lat="48.60413" lon="1.95663">
        <ele>123</ele>
        <time>2018-08-18T09:42:38Z</time>
      </trkpt>
      <trkpt lat="48.60408" lon="1.9566">
        <ele>125</ele>
        <time>2018-08-18T09:42:42Z</time>
      </trkpt>
      <trkpt lat="48.60402" lon="1.95656">
        <ele>125</ele>
        <time>2018-08-18T09:42:46Z</time>
      </trkpt>
      <trkpt lat="48.604" lon="1.95654">
        <ele>127</ele>
        <time>2018-08-18T09:42:51Z</time>
      </trkpt>
      <trkpt lat="48.60397" lon="1.9565">
        <ele>127</ele>
        <time>2018-08-18T09:42:55Z</time>
      </trkpt>
      <trkpt lat="48.60391" lon="1.95642">
        <ele>127</ele>
        <time>2018-08-18T09:42:59Z</time>
      </trkpt>
      <trkpt lat="48.60384" lon="1.95634">
        <ele>127</ele>
        <time>2018-08-18T09:43:03Z</time>
      </trkpt>
      <trkpt lat="48.60376" lon="1.95624">
        <ele>127</ele>
        <time>2018-08-18T09:43:08Z</time>
      </trkpt>
      <trkpt lat="48.60373" lon="1.95616">
        <ele>127</ele>
        <time>2018-08-18T09:43:12Z</time>
      </trkpt>
      <trkpt lat="48.60373" lon="1.95604">
        <ele>127</ele>
        <time>2018-08-18T09:43:16Z</time>
      </trkpt>
      <trkpt lat="48.60375" lon="1.95594">
        <ele>125</ele>
        <time>2018-08-18T09:43:20Z</time>
      </trkpt>
      <trkpt lat="48.60376" lon="1.95583">
        <ele>125</ele>
        <time>2018-08-18T09:43:24Z</time>
      </trkpt>
      <trkpt lat="48.60378" lon="1.9557">
        <ele>125</ele>
        <time>2018-08-18T09:43:28Z</time>
      </trkpt>
      <trkpt lat="48.60383" lon="1.9556">
        <ele>125</ele>
        <time>2018-08-18T09:43:32Z</time>
      </trkpt>
      <trkpt lat="48.60384" lon="1.95549">
        <ele>126</ele>
        <time>2018-08-18T09:43:36Z</time>
      </trkpt>
      <trkpt lat="48.6039" lon="1.95542">
        <ele>127</ele>
        <time>2018-08-18T09:43:41Z</time>
      </trkpt>
      <trkpt lat="48.60393" lon="1.95536">
        <ele>127</ele>
        <time>2018-08-18T09:43:45Z</time>
      </trkpt>
      <trkpt lat="48.60397" lon="1.95529">
        <ele>124</ele>
        <time>2018-08-18T09:43:49Z</time>
      </trkpt>
      <trkpt lat="48.60403" lon="1.95522">
        <ele>122</ele>
        <time>2018-08-18T09:43:53Z</time>
      </trkpt>
      <trkpt lat="48.60406" lon="1.95513">
        <ele>122</ele>
        <time>2018-08-18T09:43:57Z</time>
      </trkpt>
      <trkpt lat="48.6041" lon="1.95506">
        <ele>122</ele>
        <time>2018-08-18T09:44:01Z</time>
      </trkpt>
      <trkpt lat="48.60414" lon="1.95497">
        <ele>122</ele>
        <time>2018-08-18T09:44:05Z</time>
      </trkpt>
      <trkpt lat="48.6042" lon="1.95489">
        <ele>122</ele>
        <time>2018-08-18T09:44:10Z</time>
      </trkpt>
      <trkpt lat="48.60422" lon="1.95481">
        <ele>121</ele>
        <time>2018-08-18T09:44:14Z</time>
      </trkpt>
      <trkpt lat="48.60426" lon="1.95474">
        <ele>119</ele>
        <time>2018-08-18T09:44:18Z</time>
      </trkpt>
      <trkpt lat="48.60428" lon="1.95465">
        <ele>117</ele>
        <time>2018-08-18T09:44:22Z</time>
      </trkpt>
      <trkpt lat="48.60435" lon="1.95458">
        <ele>117</ele>
        <time>2018-08-18T09:44:27Z</time>
      </trkpt>
      <trkpt lat="48.60438" lon="1.95452">
        <ele>116</ele>
        <time>2018-08-18T09:44:31Z</time>
      </trkpt>
      <trkpt lat="48.60443" lon="1.95445">
        <ele>114</ele>
        <time>2018-08-18T09:44:35Z</time>
      </trkpt>
      <trkpt lat="48.60447" lon="1.95436">
        <ele>114</ele>
        <time>2018-08-18T09:44:40Z</time>
      </trkpt>
      <trkpt lat="48.60451" lon="1.95428">
        <ele>113</ele>
        <time>2018-08-18T09:44:44Z</time>
      </trkpt>
      <trkpt lat="48.60455" lon="1.95421">
        <ele>112</ele>
        <time>2018-08-18T09:44:48Z</time>
      </trkpt>
      <trkpt lat="48.6046" lon="1.95413">
        <ele>111</ele>
        <time>2018-08-18T09:44:52Z</time>
      </trkpt>
      <trkpt lat="48.60463" lon="1.95405">
        <ele>111</ele>
        <time>2018-08-18T09:44:56Z</time>
      </trkpt>
      <trkpt lat="48.60469" lon="1.95396">
        <ele>111</ele>
        <time>2018-08-18T09:45:00Z</time>
      </trkpt>
      <trkpt lat="48.60471" lon="1.95386">
        <ele>112</ele>
        <time>2018-08-18T09:45:04Z</time>
      </trkpt>
      <trkpt lat="48.60475" lon="1.95378">
        <ele>114</ele>
        <time>2018-08-18T09:45:08Z</time>
      </trkpt>
      <trkpt lat="48.60476" lon="1.95368">
        <ele>116</ele>
        <time>2018-08-18T09:45:12Z</time>
      </trkpt>
      <trkpt lat="48.60479" lon="1.9536">
        <ele>116</ele>
        <time>2018-08-18T09:45:16Z</time>
      </trkpt>
      <trkpt lat="48.60482" lon="1.95353">
        <ele>116</ele>
        <time>2018-08-18T09:45:20Z</time>
      </trkpt>
      <trkpt lat="48.60486" lon="1.95348">
        <ele>116</ele>
        <time>2018-08-18T09:45:24Z</time>
      </trkpt>
      <trkpt lat="48.60487" lon="1.95343">
        <ele>116</ele>
        <time>2018-08-18T09:45:30Z</time>
      </trkpt>
      <trkpt lat="48.60486" lon="1.95339">
        <ele>115</ele>
        <time>2018-08-18T09:45:38Z</time>
      </trkpt>
      <trkpt lat="48.60486" lon="1.95335">
        <ele>115</ele>
        <time>2018-08-18T09:45:43Z</time>
      </trkpt>
      <trkpt lat="48.60489" lon="1.95331">
        <ele>114</ele>
        <time>2018-08-18T09:45:47Z</time>
      </trkpt>
      <trkpt lat="48.60497" lon="1.95325">
        <ele>112</ele>
        <time>2018-08-18T09:45:52Z</time>
      </trkpt>
      <trkpt lat="48.60503" lon="1.95321">
        <ele>111</ele>
        <time>2018-08-18T09:45:56Z</time>
      </trkpt>
      <trkpt lat="48.60508" lon="1.95317">
        <ele>111</ele>
        <time>2018-08-18T09:46:00Z</time>
      </trkpt>
      <trkpt lat="48.60513" lon="1.9531">
        <ele>111</ele>
        <time>2018-08-18T09:46:04Z</time>
      </trkpt>
      <trkpt lat="48.60516" lon="1.95301">
        <ele>111</ele>
        <time>2018-08-18T09:46:08Z</time>
      </trkpt>
      <trkpt lat="48.60518" lon="1.95292">
        <ele>111</ele>
        <time>2018-08-18T09:46:12Z</time>
      </trkpt>
      <trkpt lat="48.60522" lon="1.95285">
        <ele>111</ele>
        <time>2018-08-18T09:46:16Z</time>
      </trkpt>
      <trkpt lat="48.60526" lon="1.95278">
        <ele>111</ele>
        <time>2018-08-18T09:46:20Z</time>
      </trkpt>
      <trkpt lat="48.60529" lon="1.95268">
        <ele>112</ele>
        <time>2018-08-18T09:46:25Z</time>
      </trkpt>
      <trkpt lat="48.60534" lon="1.9526">
        <ele>112</ele>
        <time>2018-08-18T09:46:29Z</time>
      </trkpt>
      <trkpt lat="48.60536" lon="1.95249">
        <ele>114</ele>
        <time>2018-08-18T09:46:33Z</time>
      </trkpt>
      <trkpt lat="48.60542" lon="1.9524">
        <ele>117</ele>
        <time>2018-08-18T09:46:37Z</time>
      </trkpt>
      <trkpt lat="48.60543" lon="1.95231">
        <ele>119</ele>
        <time>2018-08-18T09:46:41Z</time>
      </trkpt>
      <trkpt lat="48.60545" lon="1.95223">
        <ele>119</ele>
        <time>2018-08-18T09:46:45Z</time>
      </trkpt>
      <trkpt lat="48.60549" lon="1.95215">
        <ele>120</ele>
        <time>2018-08-18T09:46:49Z</time>
      </trkpt>
      <trkpt lat="48.60553" lon="1.95208">
        <ele>121</ele>
        <time>2018-08-18T09:46:53Z</time>
      </trkpt>
      <trkpt lat="48.60558" lon="1.95203">
        <ele>121</ele>
        <time>2018-08-18T09:46:57Z</time>
      </trkpt>
      <trkpt lat="48.60563" lon="1.95197">
        <ele>121</ele>
        <time>2018-08-18T09:47:01Z</time>
      </trkpt>
      <trkpt lat="48.6057" lon="1.9519">
        <ele>121</ele>
        <time>2018-08-18T09:47:06Z</time>
      </trkpt>
      <trkpt lat="48.60572" lon="1.95186">
        <ele>121</ele>
        <time>2018-08-18T09:47:10Z</time>
      </trkpt>
      <trkpt lat="48.60577" lon="1.95178">
        <ele>121</ele>
        <time>2018-08-18T09:47:14Z</time>
      </trkpt>
      <trkpt lat="48.60581" lon="1.95168">
        <ele>121</ele>
        <time>2018-08-18T09:47:18Z</time>
      </trkpt>
      <trkpt lat="48.60583" lon="1.95162">
        <ele>121</ele>
        <time>2018-08-18T09:47:22Z</time>
      </trkpt>
      <trkpt lat="48.60587" lon="1.95153">
        <ele>121</ele>
        <time>2018-08-18T09:47:26Z</time>
      </trkpt>
      <trkpt lat="48.6059" lon="1.95144">
        <ele>121</ele>
        <time>2018-08-18T09:47:30Z</time>
      </trkpt>
      <trkpt lat="48.60594" lon="1.95137">
        <ele>122</ele>
        <time>2018-08-18T09:47:34Z</time>
      </trkpt>
      <trkpt lat="48.60598" lon="1.95127">
        <ele>123</ele>
        <time>2018-08-18T09:47:39Z</time>
      </trkpt>
      <trkpt lat="48.60603" lon="1.95119">
        <ele>123</ele>
        <time>2018-08-18T09:47:43Z</time>
      </trkpt>
      <trkpt lat="48.60609" lon="1.95112">
        <ele>123</ele>
        <time>2018-08-18T09:47:47Z</time>
      </trkpt>
      <trkpt lat="48.60613" lon="1.95105">
        <ele>123</ele>
        <time>2018-08-18T09:47:51Z</time>
      </trkpt>
      <trkpt lat="48.60617" lon="1.95095">
        <ele>123</ele>
        <time>2018-08-18T09:47:55Z</time>
      </trkpt>
      <trkpt lat="48.6062" lon="1.95087">
        <ele>123</ele>
        <time>2018-08-18T09:47:59Z</time>
      </trkpt>
      <trkpt lat="48.60621" lon="1.9508">
        <ele>123</ele>
        <time>2018-08-18T09:48:04Z</time>
      </trkpt>
      <trkpt lat="48.6062" lon="1.95076">
        <ele>123</ele>
        <time>2018-08-18T09:48:08Z</time>
      </trkpt>
      <trkpt lat="48.60622" lon="1.95071">
        <ele>123</ele>
        <time>2018-08-18T09:48:12Z</time>
      </trkpt>
      <trkpt lat="48.60622" lon="1.95069">
        <ele>123</ele>
        <time>2018-08-18T09:48:16Z</time>
      </trkpt>
      <trkpt lat="48.60626" lon="1.95066">
        <ele>120</ele>
        <time>2018-08-18T09:48:22Z</time>
      </trkpt>
      <trkpt lat="48.60629" lon="1.95062">
        <ele>120</ele>
        <time>2018-08-18T09:48:26Z</time>
      </trkpt>
      <trkpt lat="48.60634" lon="1.95055">
        <ele>119</ele>
        <time>2018-08-18T09:48:31Z</time>
      </trkpt>
      <trkpt lat="48.60639" lon="1.95046">
        <ele>119</ele>
        <time>2018-08-18T09:48:35Z</time>
      </trkpt>
      <trkpt lat="48.60645" lon="1.95039">
        <ele>119</ele>
        <time>2018-08-18T09:48:39Z</time>
      </trkpt>
      <trkpt lat="48.60648" lon="1.95032">
        <ele>122</ele>
        <time>2018-08-18T09:48:43Z</time>
      </trkpt>
      <trkpt lat="48.60651" lon="1.95023">
        <ele>124</ele>
        <time>2018-08-18T09:48:47Z</time>
      </trkpt>
      <trkpt lat="48.60654" lon="1.95014">
        <ele>124</ele>
        <time>2018-08-18T09:48:52Z</time>
      </trkpt>
      <trkpt lat="48.60656" lon="1.95004">
        <ele>124</ele>
        <time>2018-08-18T09:48:57Z</time>
      </trkpt>
      <trkpt lat="48.60661" lon="1.94995">
        <ele>124</ele>
        <time>2018-08-18T09:49:01Z</time>
      </trkpt>
      <trkpt lat="48.60663" lon="1.94987">
        <ele>124</ele>
        <time>2018-08-18T09:49:05Z</time>
      </trkpt>
      <trkpt lat="48.60672" lon="1.94981">
        <ele>124</ele>
        <time>2018-08-18T09:49:10Z</time>
      </trkpt>
      <trkpt lat="48.60675" lon="1.94974">
        <ele>124</ele>
        <time>2018-08-18T09:49:15Z</time>
      </trkpt>
      <trkpt lat="48.60675" lon="1.9497">
        <ele>122</ele>
        <time>2018-08-18T09:49:20Z</time>
      </trkpt>
      <trkpt lat="48.60675" lon="1.94966">
        <ele>120</ele>
        <time>2018-08-18T09:49:24Z</time>
      </trkpt>
      <trkpt lat="48.60672" lon="1.94959">
        <ele>120</ele>
        <time>2018-08-18T09:49:32Z</time>
      </trkpt>
      <trkpt lat="48.60672" lon="1.94956">
        <ele>120</ele>
        <time>2018-08-18T09:49:37Z</time>
      </trkpt>
      <trkpt lat="48.60679" lon="1.94948">
        <ele>120</ele>
        <time>2018-08-18T09:49:43Z</time>
      </trkpt>
      <trkpt lat="48.60681" lon="1.94945">
        <ele>120</ele>
        <time>2018-08-18T09:49:48Z</time>
      </trkpt>
      <trkpt lat="48.60683" lon="1.9494">
        <ele>121</ele>
        <time>2018-08-18T09:49:55Z</time>
      </trkpt>
      <trkpt lat="48.60684" lon="1.94939">
        <ele>121</ele>
        <time>2018-08-18T09:50:02Z</time>
      </trkpt>
      <trkpt lat="48.60684" lon="1.94936">
        <ele>122</ele>
        <time>2018-08-18T09:50:10Z</time>
      </trkpt>
      <trkpt lat="48.60685" lon="1.94932">
        <ele>122</ele>
        <time>2018-08-18T09:50:15Z</time>
      </trkpt>
      <trkpt lat="48.60688" lon="1.94928">
        <ele>122</ele>
        <time>2018-08-18T09:50:20Z</time>
      </trkpt>
      <trkpt lat="48.60692" lon="1.94925">
        <ele>122</ele>
        <time>2018-08-18T09:50:24Z</time>
      </trkpt>
      <trkpt lat="48.6069" lon="1.94925">
        <ele>122</ele>
        <time>2018-08-18T09:50:30Z</time>
      </trkpt>
      <trkpt lat="48.60689" lon="1.94925">
        <ele>122</ele>
        <time>2018-08-18T09:50:35Z</time>
      </trkpt>
      <trkpt lat="48.60686" lon="1.94926">
        <ele>122</ele>
        <time>2018-08-18T09:50:41Z</time>
      </trkpt>
      <trkpt lat="48.60685" lon="1.94927">
        <ele>122</ele>
        <time>2018-08-18T09:50:47Z</time>
      </trkpt>
      <trkpt lat="48.60686" lon="1.94929">
        <ele>122</ele>
        <time>2018-08-18T09:50:59Z</time>
      </trkpt>
      <trkpt lat="48.60685" lon="1.94932">
        <ele>120</ele>
        <time>2018-08-18T09:51:05Z</time>
      </trkpt>
      <trkpt lat="48.60685" lon="1.94934">
        <ele>120</ele>
        <time>2018-08-18T09:51:10Z</time>
      </trkpt>
      <trkpt lat="48.60685" lon="1.94936">
        <ele>123</ele>
        <time>2018-08-18T09:51:16Z</time>
      </trkpt>
      <trkpt lat="48.60686" lon="1.94934">
        <ele>128</ele>
        <time>2018-08-18T09:51:21Z</time>
      </trkpt>
      <trkpt lat="48.60689" lon="1.94929">
        <ele>131</ele>
        <time>2018-08-18T09:51:27Z</time>
      </trkpt>
      <trkpt lat="48.6069" lon="1.94927">
        <ele>132</ele>
        <time>2018-08-18T09:51:34Z</time>
      </trkpt>
      <trkpt lat="48.60692" lon="1.94923">
        <ele>132</ele>
        <time>2018-08-18T09:51:39Z</time>
      </trkpt>
      <trkpt lat="48.6069" lon="1.9492">
        <ele>132</ele>
        <time>2018-08-18T09:51:50Z</time>
      </trkpt>
      <trkpt lat="48.60689" lon="1.94919">
        <ele>129</ele>
        <time>2018-08-18T09:51:57Z</time>
      </trkpt>
      <trkpt lat="48.6069" lon="1.94921">
        <ele>127</ele>
        <time>2018-08-18T09:52:01Z</time>
      </trkpt>
      <trkpt lat="48.60688" lon="1.94917">
        <ele>127</ele>
        <time>2018-08-18T09:52:05Z</time>
      </trkpt>
      <trkpt lat="48.60687" lon="1.94911">
        <ele>125</ele>
        <time>2018-08-18T09:52:09Z</time>
      </trkpt>
      <trkpt lat="48.60684" lon="1.94906">
        <ele>123</ele>
        <time>2018-08-18T09:52:13Z</time>
      </trkpt>
      <trkpt lat="48.60681" lon="1.94901">
        <ele>121</ele>
        <time>2018-08-18T09:52:17Z</time>
      </trkpt>
      <trkpt lat="48.60678" lon="1.94897">
        <ele>116</ele>
        <time>2018-08-18T09:52:22Z</time>
      </trkpt>
      <trkpt lat="48.60681" lon="1.94896">
        <ele>110</ele>
        <time>2018-08-18T09:52:28Z</time>
      </trkpt>
      <trkpt lat="48.60685" lon="1.94896">
        <ele>110</ele>
        <time>2018-08-18T09:52:32Z</time>
      </trkpt>
      <trkpt lat="48.60683" lon="1.94896">
        <ele>110</ele>
        <time>2018-08-18T09:52:38Z</time>
      </trkpt>
      <trkpt lat="48.60686" lon="1.94896">
        <ele>110</ele>
        <time>2018-08-18T09:52:43Z</time>
      </trkpt>
      <trkpt lat="48.6069" lon="1.94897">
        <ele>113</ele>
        <time>2018-08-18T09:52:47Z</time>
      </trkpt>
      <trkpt lat="48.60693" lon="1.94906">
        <ele>116</ele>
        <time>2018-08-18T09:52:51Z</time>
      </trkpt>
      <trkpt lat="48.60696" lon="1.94913">
        <ele>118</ele>
        <time>2018-08-18T09:52:55Z</time>
      </trkpt>
      <trkpt lat="48.60692" lon="1.9492">
        <ele>118</ele>
        <time>2018-08-18T09:53:01Z</time>
      </trkpt>
      <trkpt lat="48.6069" lon="1.94924">
        <ele>121</ele>
        <time>2018-08-18T09:53:06Z</time>
      </trkpt>
      <trkpt lat="48.6069" lon="1.94926">
        <ele>126</ele>
        <time>2018-08-18T09:53:17Z</time>
      </trkpt>
      <trkpt lat="48.60692" lon="1.94927">
        <ele>126</ele>
        <time>2018-08-18T09:53:21Z</time>
      </trkpt>
      <trkpt lat="48.60695" lon="1.94924">
        <ele>126</ele>
        <time>2018-08-18T09:53:29Z</time>
      </trkpt>
      <trkpt lat="48.60698" lon="1.94922">
        <ele>127</ele>
        <time>2018-08-18T09:53:34Z</time>
      </trkpt>
      <trkpt lat="48.60694" lon="1.94919">
        <ele>128</ele>
        <time>2018-08-18T09:53:39Z</time>
      </trkpt>
      <trkpt lat="48.60691" lon="1.94917">
        <ele>128</ele>
        <time>2018-08-18T09:53:44Z</time>
      </trkpt>
      <trkpt lat="48.60688" lon="1.94915">
        <ele>128</ele>
        <time>2018-08-18T09:53:50Z</time>
      </trkpt>
      <trkpt lat="48.60686" lon="1.94919">
        <ele>128</ele>
        <time>2018-08-18T09:53:54Z</time>
      </trkpt>
      <trkpt lat="48.60687" lon="1.94922">
        <ele>127</ele>
        <time>2018-08-18T09:54:00Z</time>
      </trkpt>
      <trkpt lat="48.60686" lon="1.94926">
        <ele>126</ele>
        <time>2018-08-18T09:54:04Z</time>
      </trkpt>
      <trkpt lat="48.60688" lon="1.94929">
        <ele>126</ele>
        <time>2018-08-18T09:54:13Z</time>
      </trkpt>
      <trkpt lat="48.60687" lon="1.94927">
        <ele>126</ele>
        <time>2018-08-18T09:54:20Z</time>
      </trkpt>
      <trkpt lat="48.60692" lon="1.94922">
        <ele>126</ele>
        <time>2018-08-18T09:54:25Z</time>
      </trkpt>
      <trkpt lat="48.60696" lon="1.94921">
        <ele>128</ele>
        <time>2018-08-18T09:54:30Z</time>
      </trkpt>
      <trkpt lat="48.60698" lon="1.9492">
        <ele>128</ele>
        <time>2018-08-18T09:54:34Z</time>
      </trkpt>
      <trkpt lat="48.60704" lon="1.9492">
        <ele>128</ele>
        <time>2018-08-18T09:54:39Z</time>
      </trkpt>
      <trkpt lat="48.60701" lon="1.94921">
        <ele>128</ele>
        <time>2018-08-18T09:54:43Z</time>
      </trkpt>
      <trkpt lat="48.60697" lon="1.94921">
        <ele>128</ele>
        <time>2018-08-18T09:54:48Z</time>
      </trkpt>
      <trkpt lat="48.60697" lon="1.94919">
        <ele>128</ele>
        <time>2018-08-18T09:54:54Z</time>
      </trkpt>
      <trkpt lat="48.60696" lon="1.94919">
        <ele>128</ele>
        <time>2018-08-18T09:55:04Z</time>
      </trkpt>
      <trkpt lat="48.60697" lon="1.94917">
        <ele>130</ele>
        <time>2018-08-18T09:55:10Z</time>
      </trkpt>
      <trkpt lat="48.60697" lon="1.94917">
        <ele>131</ele>
        <time>2018-08-18T09:55:17Z</time>
      </trkpt>
      <trkpt lat="48.607" lon="1.94918">
        <ele>131</ele>
        <time>2018-08-18T09:55:22Z</time>
      </trkpt>
      <trkpt lat="48.60698" lon="1.9492">
        <ele>131</ele>
        <time>2018-08-18T09:55:26Z</time>
      </trkpt>
      <trkpt lat="48.60695" lon="1.94921">
        <ele>130</ele>
        <time>2018-08-18T09:55:32Z</time>
      </trkpt>
      <trkpt lat="48.60696" lon="1.94919">
        <ele>126</ele>
        <time>2018-08-18T09:55:44Z</time>
      </trkpt>
      <trkpt lat="48.60701" lon="1.94919">
        <ele>123</ele>
        <time>2018-08-18T09:55:48Z</time>
      </trkpt>
      <trkpt lat="48.60703" lon="1.94916">
        <ele>121</ele>
        <time>2018-08-18T09:55:52Z</time>
      </trkpt>
      <trkpt lat="48.60706" lon="1.94909">
        <ele>120</ele>
        <time>2018-08-18T09:55:56Z</time>
      </trkpt>
      <trkpt lat="48.60709" lon="1.94902">
        <ele>119</ele>
        <time>2018-08-18T09:56:00Z</time>
      </trkpt>
      <trkpt lat="48.60714" lon="1.94892">
        <ele>118</ele>
        <time>2018-08-18T09:56:06Z</time>
      </trkpt>
      <trkpt lat="48.60715" lon="1.94884">
        <ele>118</ele>
        <time>2018-08-18T09:56:10Z</time>
      </trkpt>
      <trkpt lat="48.60719" lon="1.94876">
        <ele>118</ele>
        <time>2018-08-18T09:56:14Z</time>
      </trkpt>
      <trkpt lat="48.60722" lon="1.94868">
        <ele>117</ele>
        <time>2018-08-18T09:56:18Z</time>
      </trkpt>
      <trkpt lat="48.60725" lon="1.94858">
        <ele>117</ele>
        <time>2018-08-18T09:56:23Z</time>
      </trkpt>
      <trkpt lat="48.60729" lon="1.9485">
        <ele>116</ele>
        <time>2018-08-18T09:56:29Z</time>
      </trkpt>
      <trkpt lat="48.60733" lon="1.94843">
        <ele>115</ele>
        <time>2018-08-18T09:56:33Z</time>
      </trkpt>
      <trkpt lat="48.60737" lon="1.94836">
        <ele>113</ele>
        <time>2018-08-18T09:56:37Z</time>
      </trkpt>
      <trkpt lat="48.60742" lon="1.94829">
        <ele>110</ele>
        <time>2018-08-18T09:56:41Z</time>
      </trkpt>
      <trkpt lat="48.60748" lon="1.94821">
        <ele>109</ele>
        <time>2018-08-18T09:56:46Z</time>
      </trkpt>
      <trkpt lat="48.60752" lon="1.94812">
        <ele>109</ele>
        <time>2018-08-18T09:56:51Z</time>
      </trkpt>
      <trkpt lat="48.60754" lon="1.94804">
        <ele>109</ele>
        <time>2018-08-18T09:56:55Z</time>
      </trkpt>
      <trkpt lat="48.60757" lon="1.94797">
        <ele>109</ele>
        <time>2018-08-18T09:56:59Z</time>
      </trkpt>
      <trkpt lat="48.60762" lon="1.94788">
        <ele>109</ele>
        <time>2018-08-18T09:57:04Z</time>
      </trkpt>
      <trkpt lat="48.60766" lon="1.94781">
        <ele>109</ele>
        <time>2018-08-18T09:57:08Z</time>
      </trkpt>
      <trkpt lat="48.60767" lon="1.94772">
        <ele>109</ele>
        <time>2018-08-18T09:57:12Z</time>
      </trkpt>
      <trkpt lat="48.60772" lon="1.94763">
        <ele>109</ele>
        <time>2018-08-18T09:57:17Z</time>
      </trkpt>
      <trkpt lat="48.60775" lon="1.94756">
        <ele>109</ele>
        <time>2018-08-18T09:57:21Z</time>
      </trkpt>
      <trkpt lat="48.6078" lon="1.94749">
        <ele>109</ele>
        <time>2018-08-18T09:57:25Z</time>
      </trkpt>
      <trkpt lat="48.60783" lon="1.94742">
        <ele>109</ele>
        <time>2018-08-18T09:57:29Z</time>
      </trkpt>
      <trkpt lat="48.60786" lon="1.94735">
        <ele>109</ele>
        <time>2018-08-18T09:57:33Z</time>
      </trkpt>
      <trkpt lat="48.6079" lon="1.94729">
        <ele>109</ele>
        <time>2018-08-18T09:57:37Z</time>
      </trkpt>
      <trkpt lat="48.60793" lon="1.94722">
        <ele>109</ele>
        <time>2018-08-18T09:57:41Z</time>
      </trkpt>
      <trkpt lat="48.60797" lon="1.94715">
        <ele>109</ele>
        <time>2018-08-18T09:57:45Z</time>
      </trkpt>
      <trkpt lat="48.60802" lon="1.94708">
        <ele>109</ele>
        <time>2018-08-18T09:57:49Z</time>
      </trkpt>
      <trkpt lat="48.60805" lon="1.94701">
        <ele>109</ele>
        <time>2018-08-18T09:57:53Z</time>
      </trkpt>
      <trkpt lat="48.60809" lon="1.94694">
        <ele>109</ele>
        <time>2018-08-18T09:57:57Z</time>
      </trkpt>
      <trkpt lat="48.60812" lon="1.94688">
        <ele>109</ele>
        <time>2018-08-18T09:58:01Z</time>
      </trkpt>
      <trkpt lat="48.60816" lon="1.94681">
        <ele>109</ele>
        <time>2018-08-18T09:58:05Z</time>
      </trkpt>
      <trkpt lat="48.6082" lon="1.94671">
        <ele>109</ele>
        <time>2018-08-18T09:58:10Z</time>
      </trkpt>
      <trkpt lat="48.60823" lon="1.9466">
        <ele>109</ele>
        <time>2018-08-18T09:58:14Z</time>
      </trkpt>
      <trkpt lat="48.60827" lon="1.94651">
        <ele>110</ele>
        <time>2018-08-18T09:58:19Z</time>
      </trkpt>
      <trkpt lat="48.60831" lon="1.94642">
        <ele>110</ele>
        <time>2018-08-18T09:58:23Z</time>
      </trkpt>
      <trkpt lat="48.60834" lon="1.94635">
        <ele>110</ele>
        <time>2018-08-18T09:58:27Z</time>
      </trkpt>
      <trkpt lat="48.60838" lon="1.94628">
        <ele>110</ele>
        <time>2018-08-18T09:58:31Z</time>
      </trkpt>
      <trkpt lat="48.60843" lon="1.9462">
        <ele>110</ele>
        <time>2018-08-18T09:58:35Z</time>
      </trkpt>
      <trkpt lat="48.60848" lon="1.94612">
        <ele>110</ele>
        <time>2018-08-18T09:58:39Z</time>
      </trkpt>
      <trkpt lat="48.60855" lon="1.94604">
        <ele>113</ele>
        <time>2018-08-18T09:58:45Z</time>
      </trkpt>
      <trkpt lat="48.60859" lon="1.94597">
        <ele>114</ele>
        <time>2018-08-18T09:58:49Z</time>
      </trkpt>
      <trkpt lat="48.60862" lon="1.94588">
        <ele>115</ele>
        <time>2018-08-18T09:58:53Z</time>
      </trkpt>
      <trkpt lat="48.60866" lon="1.94578">
        <ele>115</ele>
        <time>2018-08-18T09:58:58Z</time>
      </trkpt>
      <trkpt lat="48.6087" lon="1.94568">
        <ele>115</ele>
        <time>2018-08-18T09:59:02Z</time>
      </trkpt>
      <trkpt lat="48.60874" lon="1.94561">
        <ele>115</ele>
        <time>2018-08-18T09:59:06Z</time>
      </trkpt>
      <trkpt lat="48.60879" lon="1.94553">
        <ele>115</ele>
        <time>2018-08-18T09:59:11Z</time>
      </trkpt>
      <trkpt lat="48.60882" lon="1.94544">
        <ele>115</ele>
        <time>2018-08-18T09:59:16Z</time>
      </trkpt>
      <trkpt lat="48.60885" lon="1.94538">
        <ele>115</ele>
        <time>2018-08-18T09:59:20Z</time>
      </trkpt>
      <trkpt lat="48.60889" lon="1.94529">
        <ele>114</ele>
        <time>2018-08-18T09:59:24Z</time>
      </trkpt>
      <trkpt lat="48.60892" lon="1.94521">
        <ele>113</ele>
        <time>2018-08-18T09:59:28Z</time>
      </trkpt>
      <trkpt lat="48.60896" lon="1.94513">
        <ele>113</ele>
        <time>2018-08-18T09:59:32Z</time>
      </trkpt>
      <trkpt lat="48.60904" lon="1.94504">
        <ele>113</ele>
        <time>2018-08-18T09:59:37Z</time>
      </trkpt>
      <trkpt lat="48.60906" lon="1.94498">
        <ele>113</ele>
        <time>2018-08-18T09:59:41Z</time>
      </trkpt>
      <trkpt lat="48.60908" lon="1.9449">
        <ele>112</ele>
        <time>2018-08-18T09:59:45Z</time>
      </trkpt>
      <trkpt lat="48.60911" lon="1.94482">
        <ele>111</ele>
        <time>2018-08-18T09:59:49Z</time>
      </trkpt>
      <trkpt lat="48.60915" lon="1.94474">
        <ele>109</ele>
        <time>2018-08-18T09:59:54Z</time>
      </trkpt>
      <trkpt lat="48.6092" lon="1.94465">
        <ele>108</ele>
        <time>2018-08-18T09:59:58Z</time>
      </trkpt>
      <trkpt lat="48.60922" lon="1.94458">
        <ele>108</ele>
        <time>2018-08-18T10:00:02Z</time>
      </trkpt>
      <trkpt lat="48.60925" lon="1.94448">
        <ele>108</ele>
        <time>2018-08-18T10:00:06Z</time>
      </trkpt>
      <trkpt lat="48.60931" lon="1.94438">
        <ele>108</ele>
        <time>2018-08-18T10:00:10Z</time>
      </trkpt>
      <trkpt lat="48.60936" lon="1.94431">
        <ele>108</ele>
        <time>2018-08-18T10:00:15Z</time>
      </trkpt>
      <trkpt lat="48.60939" lon="1.94424">
        <ele>106</ele>
        <time>2018-08-18T10:00:19Z</time>
      </trkpt>
      <trkpt lat="48.60943" lon="1.94416">
        <ele>104</ele>
        <time>2018-08-18T10:00:23Z</time>
      </trkpt>
      <trkpt lat="48.60946" lon="1.94407">
        <ele>102</ele>
        <time>2018-08-18T10:00:27Z</time>
      </trkpt>
      <trkpt lat="48.60951" lon="1.94398">
        <ele>102</ele>
        <time>2018-08-18T10:00:31Z</time>
      </trkpt>
      <trkpt lat="48.60955" lon="1.94388">
        <ele>102</ele>
        <time>2018-08-18T10:00:35Z</time>
      </trkpt>
      <trkpt lat="48.60961" lon="1.94381">
        <ele>104</ele>
        <time>2018-08-18T10:00:39Z</time>
      </trkpt>
      <trkpt lat="48.60966" lon="1.94372">
        <ele>107</ele>
        <time>2018-08-18T10:00:43Z</time>
      </trkpt>
      <trkpt lat="48.6097" lon="1.94365">
        <ele>110</ele>
        <time>2018-08-18T10:00:47Z</time>
      </trkpt>
      <trkpt lat="48.60972" lon="1.94357">
        <ele>111</ele>
        <time>2018-08-18T10:00:51Z</time>
      </trkpt>
      <trkpt lat="48.60976" lon="1.9435">
        <ele>111</ele>
        <time>2018-08-18T10:00:55Z</time>
      </trkpt>
      <trkpt lat="48.60979" lon="1.94342">
        <ele>111</ele>
        <time>2018-08-18T10:00:59Z</time>
      </trkpt>
      <trkpt lat="48.60983" lon="1.94335">
        <ele>111</ele>
        <time>2018-08-18T10:01:03Z</time>
      </trkpt>
      <trkpt lat="48.60985" lon="1.94326">
        <ele>111</ele>
        <time>2018-08-18T10:01:07Z</time>
      </trkpt>
      <trkpt lat="48.60989" lon="1.94317">
        <ele>114</ele>
        <time>2018-08-18T10:01:11Z</time>
      </trkpt>
      <trkpt lat="48.60993" lon="1.9431">
        <ele>116</ele>
        <time>2018-08-18T10:01:15Z</time>
      </trkpt>
      <trkpt lat="48.60997" lon="1.94302">
        <ele>117</ele>
        <time>2018-08-18T10:01:19Z</time>
      </trkpt>
      <trkpt lat="48.61" lon="1.94295">
        <ele>117</ele>
        <time>2018-08-18T10:01:23Z</time>
      </trkpt>
      <trkpt lat="48.61004" lon="1.94288">
        <ele>117</ele>
        <time>2018-08-18T10:01:27Z</time>
      </trkpt>
      <trkpt lat="48.61008" lon="1.9428">
        <ele>117</ele>
        <time>2018-08-18T10:01:31Z</time>
      </trkpt>
      <trkpt lat="48.6101" lon="1.94271">
        <ele>117</ele>
        <time>2018-08-18T10:01:35Z</time>
      </trkpt>
      <trkpt lat="48.61013" lon="1.94262">
        <ele>116</ele>
        <time>2018-08-18T10:01:39Z</time>
      </trkpt>
      <trkpt lat="48.61017" lon="1.94256">
        <ele>115</ele>
        <time>2018-08-18T10:01:43Z</time>
      </trkpt>
      <trkpt lat="48.61023" lon="1.94249">
        <ele>115</ele>
        <time>2018-08-18T10:01:47Z</time>
      </trkpt>
      <trkpt lat="48.61028" lon="1.94243">
        <ele>115</ele>
        <time>2018-08-18T10:01:51Z</time>
      </trkpt>
      <trkpt lat="48.6103" lon="1.94234">
        <ele>115</ele>
        <time>2018-08-18T10:01:55Z</time>
      </trkpt>
      <trkpt lat="48.61034" lon="1.94227">
        <ele>115</ele>
        <time>2018-08-18T10:01:59Z</time>
      </trkpt>
      <trkpt lat="48.61038" lon="1.94219">
        <ele>115</ele>
        <time>2018-08-18T10:02:03Z</time>
      </trkpt>
      <trkpt lat="48.61043" lon="1.94212">
        <ele>115</ele>
        <time>2018-08-18T10:02:07Z</time>
      </trkpt>
      <trkpt lat="48.61047" lon="1.94204">
        <ele>115</ele>
        <time>2018-08-18T10:02:11Z</time>
      </trkpt>
      <trkpt lat="48.61051" lon="1.94196">
        <ele>115</ele>
        <time>2018-08-18T10:02:15Z</time>
      </trkpt>
      <trkpt lat="48.61053" lon="1.94187">
        <ele>115</ele>
        <time>2018-08-18T10:02:19Z</time>
      </trkpt>
      <trkpt lat="48.61058" lon="1.9418">
        <ele>115</ele>
        <time>2018-08-18T10:02:23Z</time>
      </trkpt>
      <trkpt lat="48.61063" lon="1.94173">
        <ele>114</ele>
        <time>2018-08-18T10:02:28Z</time>
      </trkpt>
      <trkpt lat="48.61067" lon="1.94165">
        <ele>114</ele>
        <time>2018-08-18T10:02:32Z</time>
      </trkpt>
      <trkpt lat="48.6107" lon="1.94156">
        <ele>114</ele>
        <time>2018-08-18T10:02:36Z</time>
      </trkpt>
      <trkpt lat="48.61074" lon="1.9415">
        <ele>114</ele>
        <time>2018-08-18T10:02:40Z</time>
      </trkpt>
      <trkpt lat="48.61079" lon="1.94142">
        <ele>114</ele>
        <time>2018-08-18T10:02:44Z</time>
      </trkpt>
      <trkpt lat="48.61083" lon="1.94134">
        <ele>117</ele>
        <time>2018-08-18T10:02:48Z</time>
      </trkpt>
      <trkpt lat="48.61085" lon="1.94126">
        <ele>117</ele>
        <time>2018-08-18T10:02:52Z</time>
      </trkpt>
      <trkpt lat="48.6109" lon="1.94115">
        <ele>117</ele>
        <time>2018-08-18T10:02:57Z</time>
      </trkpt>
      <trkpt lat="48.61094" lon="1.94108">
        <ele>117</ele>
        <time>2018-08-18T10:03:01Z</time>
      </trkpt>
      <trkpt lat="48.61098" lon="1.941">
        <ele>117</ele>
        <time>2018-08-18T10:03:05Z</time>
      </trkpt>
      <trkpt lat="48.61101" lon="1.94091">
        <ele>117</ele>
        <time>2018-08-18T10:03:09Z</time>
      </trkpt>
      <trkpt lat="48.61105" lon="1.94084">
        <ele>117</ele>
        <time>2018-08-18T10:03:13Z</time>
      </trkpt>
      <trkpt lat="48.61109" lon="1.94075">
        <ele>117</ele>
        <time>2018-08-18T10:03:17Z</time>
      </trkpt>
      <trkpt lat="48.61112" lon="1.94068">
        <ele>117</ele>
        <time>2018-08-18T10:03:21Z</time>
      </trkpt>
      <trkpt lat="48.61116" lon="1.9406">
        <ele>117</ele>
        <time>2018-08-18T10:03:25Z</time>
      </trkpt>
      <trkpt lat="48.6112" lon="1.94052">
        <ele>117</ele>
        <time>2018-08-18T10:03:29Z</time>
      </trkpt>
      <trkpt lat="48.61123" lon="1.94042">
        <ele>117</ele>
        <time>2018-08-18T10:03:33Z</time>
      </trkpt>
      <trkpt lat="48.61128" lon="1.94034">
        <ele>117</ele>
        <time>2018-08-18T10:03:37Z</time>
      </trkpt>
      <trkpt lat="48.61132" lon="1.94027">
        <ele>117</ele>
        <time>2018-08-18T10:03:42Z</time>
      </trkpt>
      <trkpt lat="48.61136" lon="1.94019">
        <ele>118</ele>
        <time>2018-08-18T10:03:46Z</time>
      </trkpt>
      <trkpt lat="48.6114" lon="1.94012">
        <ele>119</ele>
        <time>2018-08-18T10:03:50Z</time>
      </trkpt>
      <trkpt lat="48.61145" lon="1.94003">
        <ele>119</ele>
        <time>2018-08-18T10:03:55Z</time>
      </trkpt>
      <trkpt lat="48.61151" lon="1.93994">
        <ele>119</ele>
        <time>2018-08-18T10:04:00Z</time>
      </trkpt>
      <trkpt lat="48.61155" lon="1.93986">
        <ele>120</ele>
        <time>2018-08-18T10:04:04Z</time>
      </trkpt>
      <trkpt lat="48.61158" lon="1.93978">
        <ele>120</ele>
        <time>2018-08-18T10:04:08Z</time>
      </trkpt>
      <trkpt lat="48.6116" lon="1.93969">
        <ele>120</ele>
        <time>2018-08-18T10:04:12Z</time>
      </trkpt>
      <trkpt lat="48.61163" lon="1.9396">
        <ele>120</ele>
        <time>2018-08-18T10:04:16Z</time>
      </trkpt>
      <trkpt lat="48.61166" lon="1.93951">
        <ele>120</ele>
        <time>2018-08-18T10:04:20Z</time>
      </trkpt>
      <trkpt lat="48.61167" lon="1.9394">
        <ele>120</ele>
        <time>2018-08-18T10:04:24Z</time>
      </trkpt>
      <trkpt lat="48.61169" lon="1.93932">
        <ele>120</ele>
        <time>2018-08-18T10:04:28Z</time>
      </trkpt>
      <trkpt lat="48.61171" lon="1.93922">
        <ele>120</ele>
        <time>2018-08-18T10:04:32Z</time>
      </trkpt>
      <trkpt lat="48.61173" lon="1.93913">
        <ele>121</ele>
        <time>2018-08-18T10:04:36Z</time>
      </trkpt>
      <trkpt lat="48.61177" lon="1.93905">
        <ele>122</ele>
        <time>2018-08-18T10:04:41Z</time>
      </trkpt>
      <trkpt lat="48.61181" lon="1.939">
        <ele>125</ele>
        <time>2018-08-18T10:04:45Z</time>
      </trkpt>
      <trkpt lat="48.61183" lon="1.93892">
        <ele>126</ele>
        <time>2018-08-18T10:04:49Z</time>
      </trkpt>
      <trkpt lat="48.61184" lon="1.93882">
        <ele>126</ele>
        <time>2018-08-18T10:04:53Z</time>
      </trkpt>
      <trkpt lat="48.61186" lon="1.93873">
        <ele>126</ele>
        <time>2018-08-18T10:04:57Z</time>
      </trkpt>
      <trkpt lat="48.61189" lon="1.93865">
        <ele>126</ele>
        <time>2018-08-18T10:05:01Z</time>
      </trkpt>
      <trkpt lat="48.6119" lon="1.93856">
        <ele>126</ele>
        <time>2018-08-18T10:05:05Z</time>
      </trkpt>
      <trkpt lat="48.61191" lon="1.93847">
        <ele>126</ele>
        <time>2018-08-18T10:05:09Z</time>
      </trkpt>
      <trkpt lat="48.61194" lon="1.93838">
        <ele>125</ele>
        <time>2018-08-18T10:05:13Z</time>
      </trkpt>
      <trkpt lat="48.61196" lon="1.93829">
        <ele>123</ele>
        <time>2018-08-18T10:05:17Z</time>
      </trkpt>
      <trkpt lat="48.61199" lon="1.93821">
        <ele>123</ele>
        <time>2018-08-18T10:05:21Z</time>
      </trkpt>
      <trkpt lat="48.61202" lon="1.9381">
        <ele>123</ele>
        <time>2018-08-18T10:05:26Z</time>
      </trkpt>
      <trkpt lat="48.61204" lon="1.93801">
        <ele>123</ele>
        <time>2018-08-18T10:05:30Z</time>
      </trkpt>
      <trkpt lat="48.61207" lon="1.93792">
        <ele>123</ele>
        <time>2018-08-18T10:05:34Z</time>
      </trkpt>
      <trkpt lat="48.61209" lon="1.93784">
        <ele>123</ele>
        <time>2018-08-18T10:05:38Z</time>
      </trkpt>
      <trkpt lat="48.61213" lon="1.93776">
        <ele>123</ele>
        <time>2018-08-18T10:05:42Z</time>
      </trkpt>
      <trkpt lat="48.61214" lon="1.93766">
        <ele>123</ele>
        <time>2018-08-18T10:05:46Z</time>
      </trkpt>
      <trkpt lat="48.61215" lon="1.93756">
        <ele>123</ele>
        <time>2018-08-18T10:05:50Z</time>
      </trkpt>
      <trkpt lat="48.61216" lon="1.93746">
        <ele>123</ele>
        <time>2018-08-18T10:05:54Z</time>
      </trkpt>
      <trkpt lat="48.61218" lon="1.93739">
        <ele>124</ele>
        <time>2018-08-18T10:05:58Z</time>
      </trkpt>
      <trkpt lat="48.61215" lon="1.93733">
        <ele>124</ele>
        <time>2018-08-18T10:06:03Z</time>
      </trkpt>
      <trkpt lat="48.61214" lon="1.93731">
        <ele>124</ele>
        <time>2018-08-18T10:06:11Z</time>
      </trkpt>
      <trkpt lat="48.61213" lon="1.9373">
        <ele>124</ele>
        <time>2018-08-18T10:06:15Z</time>
      </trkpt>
      <trkpt lat="48.6121" lon="1.93726">
        <ele>124</ele>
        <time>2018-08-18T10:06:19Z</time>
      </trkpt>
      <trkpt lat="48.61211" lon="1.93725">
        <ele>124</ele>
        <time>2018-08-18T10:06:24Z</time>
      </trkpt>
      <trkpt lat="48.61211" lon="1.93723">
        <ele>124</ele>
        <time>2018-08-18T10:06:28Z</time>
      </trkpt>
      <trkpt lat="48.61214" lon="1.93715">
        <ele>124</ele>
        <time>2018-08-18T10:06:33Z</time>
      </trkpt>
      <trkpt lat="48.61218" lon="1.93709">
        <ele>124</ele>
        <time>2018-08-18T10:06:37Z</time>
      </trkpt>
      <trkpt lat="48.61223" lon="1.93703">
        <ele>124</ele>
        <time>2018-08-18T10:06:41Z</time>
      </trkpt>
      <trkpt lat="48.61227" lon="1.93696">
        <ele>124</ele>
        <time>2018-08-18T10:06:45Z</time>
      </trkpt>
      <trkpt lat="48.61229" lon="1.93687">
        <ele>124</ele>
        <time>2018-08-18T10:06:49Z</time>
      </trkpt>
      <trkpt lat="48.61231" lon="1.93678">
        <ele>124</ele>
        <time>2018-08-18T10:06:53Z</time>
      </trkpt>
      <trkpt lat="48.61231" lon="1.93666">
        <ele>124</ele>
        <time>2018-08-18T10:06:57Z</time>
      </trkpt>
      <trkpt lat="48.61231" lon="1.93656">
        <ele>124</ele>
        <time>2018-08-18T10:07:01Z</time>
      </trkpt>
      <trkpt lat="48.61233" lon="1.93648">
        <ele>124</ele>
        <time>2018-08-18T10:07:05Z</time>
      </trkpt>
      <trkpt lat="48.61234" lon="1.93638">
        <ele>124</ele>
        <time>2018-08-18T10:07:09Z</time>
      </trkpt>
      <trkpt lat="48.61233" lon="1.93626">
        <ele>124</ele>
        <time>2018-08-18T10:07:13Z</time>
      </trkpt>
      <trkpt lat="48.61236" lon="1.93617">
        <ele>124</ele>
        <time>2018-08-18T10:07:17Z</time>
      </trkpt>
      <trkpt lat="48.6124" lon="1.93611">
        <ele>124</ele>
        <time>2018-08-18T10:07:21Z</time>
      </trkpt>
      <trkpt lat="48.6124" lon="1.936">
        <ele>124</ele>
        <time>2018-08-18T10:07:25Z</time>
      </trkpt>
      <trkpt lat="48.61243" lon="1.93594">
        <ele>124</ele>
        <time>2018-08-18T10:07:29Z</time>
      </trkpt>
      <trkpt lat="48.61247" lon="1.93586">
        <ele>125</ele>
        <time>2018-08-18T10:07:33Z</time>
      </trkpt>
      <trkpt lat="48.61251" lon="1.9358">
        <ele>125</ele>
        <time>2018-08-18T10:07:37Z</time>
      </trkpt>
      <trkpt lat="48.61251" lon="1.9357">
        <ele>125</ele>
        <time>2018-08-18T10:07:41Z</time>
      </trkpt>
      <trkpt lat="48.61256" lon="1.93563">
        <ele>125</ele>
        <time>2018-08-18T10:07:45Z</time>
      </trkpt>
      <trkpt lat="48.61257" lon="1.93554">
        <ele>125</ele>
        <time>2018-08-18T10:07:49Z</time>
      </trkpt>
      <trkpt lat="48.61261" lon="1.93547">
        <ele>125</ele>
        <time>2018-08-18T10:07:53Z</time>
      </trkpt>
      <trkpt lat="48.61264" lon="1.9354">
        <ele>126</ele>
        <time>2018-08-18T10:07:57Z</time>
      </trkpt>
      <trkpt lat="48.61269" lon="1.93532">
        <ele>126</ele>
        <time>2018-08-18T10:08:01Z</time>
      </trkpt>
      <trkpt lat="48.61272" lon="1.93523">
        <ele>126</ele>
        <time>2018-08-18T10:08:05Z</time>
      </trkpt>
      <trkpt lat="48.61274" lon="1.93514">
        <ele>126</ele>
        <time>2018-08-18T10:08:09Z</time>
      </trkpt>
      <trkpt lat="48.61274" lon="1.93504">
        <ele>126</ele>
        <time>2018-08-18T10:08:13Z</time>
      </trkpt>
      <trkpt lat="48.61276" lon="1.93497">
        <ele>126</ele>
        <time>2018-08-18T10:08:17Z</time>
      </trkpt>
      <trkpt lat="48.61274" lon="1.93485">
        <ele>126</ele>
        <time>2018-08-18T10:08:21Z</time>
      </trkpt>
      <trkpt lat="48.61275" lon="1.93476">
        <ele>126</ele>
        <time>2018-08-18T10:08:25Z</time>
      </trkpt>
      <trkpt lat="48.61277" lon="1.93466">
        <ele>126</ele>
        <time>2018-08-18T10:08:29Z</time>
      </trkpt>
      <trkpt lat="48.6128" lon="1.93458">
        <ele>126</ele>
        <time>2018-08-18T10:08:33Z</time>
      </trkpt>
      <trkpt lat="48.61282" lon="1.93449">
        <ele>126</ele>
        <time>2018-08-18T10:08:37Z</time>
      </trkpt>
      <trkpt lat="48.61284" lon="1.9344">
        <ele>126</ele>
        <time>2018-08-18T10:08:41Z</time>
      </trkpt>
      <trkpt lat="48.61287" lon="1.93431">
        <ele>126</ele>
        <time>2018-08-18T10:08:45Z</time>
      </trkpt>
      <trkpt lat="48.6129" lon="1.93423">
        <ele>126</ele>
        <time>2018-08-18T10:08:49Z</time>
      </trkpt>
      <trkpt lat="48.61292" lon="1.93413">
        <ele>127</ele>
        <time>2018-08-18T10:08:53Z</time>
      </trkpt>
      <trkpt lat="48.61293" lon="1.93404">
        <ele>127</ele>
        <time>2018-08-18T10:08:57Z</time>
      </trkpt>
      <trkpt lat="48.61296" lon="1.93395">
        <ele>128</ele>
        <time>2018-08-18T10:09:01Z</time>
      </trkpt>
      <trkpt lat="48.61301" lon="1.9339">
        <ele>129</ele>
        <time>2018-08-18T10:09:05Z</time>
      </trkpt>
      <trkpt lat="48.61303" lon="1.93382">
        <ele>131</ele>
        <time>2018-08-18T10:09:09Z</time>
      </trkpt>
      <trkpt lat="48.61306" lon="1.93374">
        <ele>132</ele>
        <time>2018-08-18T10:09:13Z</time>
      </trkpt>
      <trkpt lat="48.61309" lon="1.93366">
        <ele>133</ele>
        <time>2018-08-18T10:09:17Z</time>
      </trkpt>
      <trkpt lat="48.61312" lon="1.93358">
        <ele>133</ele>
        <time>2018-08-18T10:09:21Z</time>
      </trkpt>
      <trkpt lat="48.61314" lon="1.93352">
        <ele>135</ele>
        <time>2018-08-18T10:09:25Z</time>
      </trkpt>
      <trkpt lat="48.61316" lon="1.93343">
        <ele>139</ele>
        <time>2018-08-18T10:09:29Z</time>
      </trkpt>
      <trkpt lat="48.61318" lon="1.93334">
        <ele>141</ele>
        <time>2018-08-18T10:09:33Z</time>
      </trkpt>
      <trkpt lat="48.6132" lon="1.93326">
        <ele>142</ele>
        <time>2018-08-18T10:09:37Z</time>
      </trkpt>
      <trkpt lat="48.61323" lon="1.93317">
        <ele>143</ele>
        <time>2018-08-18T10:09:42Z</time>
      </trkpt>
      <trkpt lat="48.61327" lon="1.93309">
        <ele>143</ele>
        <time>2018-08-18T10:09:46Z</time>
      </trkpt>
      <trkpt lat="48.61328" lon="1.93302">
        <ele>144</ele>
        <time>2018-08-18T10:09:50Z</time>
      </trkpt>
      <trkpt lat="48.6133" lon="1.93293">
        <ele>144</ele>
        <time>2018-08-18T10:09:54Z</time>
      </trkpt>
      <trkpt lat="48.61332" lon="1.93286">
        <ele>144</ele>
        <time>2018-08-18T10:09:58Z</time>
      </trkpt>
      <trkpt lat="48.61332" lon="1.93277">
        <ele>144</ele>
        <time>2018-08-18T10:10:02Z</time>
      </trkpt>
      <trkpt lat="48.61332" lon="1.93268">
        <ele>144</ele>
        <time>2018-08-18T10:10:06Z</time>
      </trkpt>
      <trkpt lat="48.61335" lon="1.9326">
        <ele>144</ele>
        <time>2018-08-18T10:10:10Z</time>
      </trkpt>
      <trkpt lat="48.61337" lon="1.93251">
        <ele>144</ele>
        <time>2018-08-18T10:10:14Z</time>
      </trkpt>
      <trkpt lat="48.6134" lon="1.93243">
        <ele>147</ele>
        <time>2018-08-18T10:10:18Z</time>
      </trkpt>
      <trkpt lat="48.61342" lon="1.93237">
        <ele>149</ele>
        <time>2018-08-18T10:10:22Z</time>
      </trkpt>
      <trkpt lat="48.6135" lon="1.93232">
        <ele>149</ele>
        <time>2018-08-18T10:10:26Z</time>
      </trkpt>
      <trkpt lat="48.61353" lon="1.93226">
        <ele>149</ele>
        <time>2018-08-18T10:10:30Z</time>
      </trkpt>
      <trkpt lat="48.61357" lon="1.93221">
        <ele>148</ele>
        <time>2018-08-18T10:10:34Z</time>
      </trkpt>
      <trkpt lat="48.61361" lon="1.93216">
        <ele>144</ele>
        <time>2018-08-18T10:10:38Z</time>
      </trkpt>
      <trkpt lat="48.61367" lon="1.93209">
        <ele>144</ele>
        <time>2018-08-18T10:10:43Z</time>
      </trkpt>
      <trkpt lat="48.61372" lon="1.932">
        <ele>144</ele>
        <time>2018-08-18T10:10:47Z</time>
      </trkpt>
      <trkpt lat="48.61376" lon="1.93194">
        <ele>144</ele>
        <time>2018-08-18T10:10:51Z</time>
      </trkpt>
      <trkpt lat="48.61377" lon="1.93183">
        <ele>146</ele>
        <time>2018-08-18T10:10:55Z</time>
      </trkpt>
      <trkpt lat="48.61379" lon="1.93173">
        <ele>148</ele>
        <time>2018-08-18T10:10:59Z</time>
      </trkpt>
      <trkpt lat="48.61382" lon="1.93164">
        <ele>148</ele>
        <time>2018-08-18T10:11:04Z</time>
      </trkpt>
      <trkpt lat="48.61388" lon="1.9316">
        <ele>148</ele>
        <time>2018-08-18T10:11:08Z</time>
      </trkpt>
      <trkpt lat="48.61393" lon="1.93153">
        <ele>148</ele>
        <time>2018-08-18T10:11:12Z</time>
      </trkpt>
      <trkpt lat="48.61398" lon="1.93146">
        <ele>148</ele>
        <time>2018-08-18T10:11:16Z</time>
      </trkpt>
      <trkpt lat="48.61403" lon="1.9314">
        <ele>151</ele>
        <time>2018-08-18T10:11:20Z</time>
      </trkpt>
      <trkpt lat="48.61409" lon="1.93136">
        <ele>152</ele>
        <time>2018-08-18T10:11:25Z</time>
      </trkpt>
      <trkpt lat="48.61416" lon="1.93134">
        <ele>152</ele>
        <time>2018-08-18T10:11:29Z</time>
      </trkpt>
      <trkpt lat="48.61422" lon="1.9313">
        <ele>152</ele>
        <time>2018-08-18T10:11:34Z</time>
      </trkpt>
      <trkpt lat="48.61427" lon="1.93126">
        <ele>153</ele>
        <time>2018-08-18T10:11:38Z</time>
      </trkpt>
      <trkpt lat="48.6143" lon="1.93119">
        <ele>157</ele>
        <time>2018-08-18T10:11:42Z</time>
      </trkpt>
      <trkpt lat="48.61438" lon="1.93113">
        <ele>160</ele>
        <time>2018-08-18T10:11:47Z</time>
      </trkpt>
      <trkpt lat="48.61441" lon="1.93108">
        <ele>160</ele>
        <time>2018-08-18T10:11:51Z</time>
      </trkpt>
      <trkpt lat="48.61446" lon="1.93103">
        <ele>161</ele>
        <time>2018-08-18T10:11:55Z</time>
      </trkpt>
      <trkpt lat="48.6145" lon="1.93098">
        <ele>163</ele>
        <time>2018-08-18T10:11:59Z</time>
      </trkpt>
      <trkpt lat="48.61455" lon="1.93092">
        <ele>163</ele>
        <time>2018-08-18T10:12:03Z</time>
      </trkpt>
      <trkpt lat="48.61459" lon="1.93083">
        <ele>164</ele>
        <time>2018-08-18T10:12:07Z</time>
      </trkpt>
      <trkpt lat="48.61463" lon="1.93076">
        <ele>165</ele>
        <time>2018-08-18T10:12:11Z</time>
      </trkpt>
      <trkpt lat="48.61468" lon="1.93072">
        <ele>166</ele>
        <time>2018-08-18T10:12:15Z</time>
      </trkpt>
      <trkpt lat="48.61473" lon="1.93068">
        <ele>167</ele>
        <time>2018-08-18T10:12:19Z</time>
      </trkpt>
      <trkpt lat="48.61478" lon="1.93065">
        <ele>169</ele>
        <time>2018-08-18T10:12:23Z</time>
      </trkpt>
      <trkpt lat="48.61482" lon="1.93061">
        <ele>170</ele>
        <time>2018-08-18T10:12:27Z</time>
      </trkpt>
      <trkpt lat="48.61483" lon="1.93056">
        <ele>170</ele>
        <time>2018-08-18T10:12:31Z</time>
      </trkpt>
      <trkpt lat="48.61486" lon="1.93059">
        <ele>170</ele>
        <time>2018-08-18T10:12:35Z</time>
      </trkpt>
      <trkpt lat="48.61485" lon="1.93055">
        <ele>169</ele>
        <time>2018-08-18T10:12:50Z</time>
      </trkpt>
      <trkpt lat="48.61486" lon="1.93054">
        <ele>169</ele>
        <time>2018-08-18T10:13:00Z</time>
      </trkpt>
      <trkpt lat="48.6149" lon="1.93053">
        <ele>169</ele>
        <time>2018-08-18T10:13:04Z</time>
      </trkpt>
      <trkpt lat="48.61496" lon="1.93051">
        <ele>169</ele>
        <time>2018-08-18T10:13:08Z</time>
      </trkpt>
      <trkpt lat="48.615" lon="1.93049">
        <ele>169</ele>
        <time>2018-08-18T10:13:12Z</time>
      </trkpt>
      <trkpt lat="48.61501" lon="1.93045">
        <ele>170</ele>
        <time>2018-08-18T10:13:16Z</time>
      </trkpt>
      <trkpt lat="48.61506" lon="1.93042">
        <ele>173</ele>
        <time>2018-08-18T10:13:20Z</time>
      </trkpt>
      <trkpt lat="48.61512" lon="1.93042">
        <ele>174</ele>
        <time>2018-08-18T10:13:24Z</time>
      </trkpt>
      <trkpt lat="48.61518" lon="1.93036">
        <ele>178</ele>
        <time>2018-08-18T10:13:29Z</time>
      </trkpt>
      <trkpt lat="48.61521" lon="1.93033">
        <ele>180</ele>
        <time>2018-08-18T10:13:33Z</time>
      </trkpt>
      <trkpt lat="48.61525" lon="1.9303">
        <ele>180</ele>
        <time>2018-08-18T10:13:37Z</time>
      </trkpt>
      <trkpt lat="48.6153" lon="1.93029">
        <ele>180</ele>
        <time>2018-08-18T10:13:41Z</time>
      </trkpt>
      <trkpt lat="48.61533" lon="1.93023">
        <ele>180</ele>
        <time>2018-08-18T10:13:45Z</time>
      </trkpt>
      <trkpt lat="48.61539" lon="1.9302">
        <ele>180</ele>
        <time>2018-08-18T10:13:50Z</time>
      </trkpt>
      <trkpt lat="48.61544" lon="1.93017">
        <ele>180</ele>
        <time>2018-08-18T10:13:54Z</time>
      </trkpt>
      <trkpt lat="48.61547" lon="1.93014">
        <ele>180</ele>
        <time>2018-08-18T10:13:58Z</time>
      </trkpt>
      <trkpt lat="48.61554" lon="1.93012">
        <ele>180</ele>
        <time>2018-08-18T10:14:02Z</time>
      </trkpt>
      <trkpt lat="48.61558" lon="1.93009">
        <ele>180</ele>
        <time>2018-08-18T10:14:06Z</time>
      </trkpt>
      <trkpt lat="48.61565" lon="1.93006">
        <ele>180</ele>
        <time>2018-08-18T10:14:12Z</time>
      </trkpt>
      <trkpt lat="48.6157" lon="1.93002">
        <ele>182</ele>
        <time>2018-08-18T10:14:16Z</time>
      </trkpt>
      <trkpt lat="48.61575" lon="1.92998">
        <ele>182</ele>
        <time>2018-08-18T10:14:20Z</time>
      </trkpt>
      <trkpt lat="48.61581" lon="1.92993">
        <ele>183</ele>
        <time>2018-08-18T10:14:24Z</time>
      </trkpt>
      <trkpt lat="48.61588" lon="1.9299">
        <ele>183</ele>
        <time>2018-08-18T10:14:28Z</time>
      </trkpt>
      <trkpt lat="48.61594" lon="1.92986">
        <ele>183</ele>
        <time>2018-08-18T10:14:32Z</time>
      </trkpt>
      <trkpt lat="48.61599" lon="1.92982">
        <ele>183</ele>
        <time>2018-08-18T10:14:36Z</time>
      </trkpt>
      <trkpt lat="48.61606" lon="1.92976">
        <ele>183</ele>
        <time>2018-08-18T10:14:41Z</time>
      </trkpt>
      <trkpt lat="48.61613" lon="1.92972">
        <ele>181</ele>
        <time>2018-08-18T10:14:46Z</time>
      </trkpt>
      <trkpt lat="48.61622" lon="1.92971">
        <ele>180</ele>
        <time>2018-08-18T10:14:50Z</time>
      </trkpt>
      <trkpt lat="48.61627" lon="1.92966">
        <ele>179</ele>
        <time>2018-08-18T10:14:54Z</time>
      </trkpt>
      <trkpt lat="48.61631" lon="1.92961">
        <ele>179</ele>
        <time>2018-08-18T10:14:58Z</time>
      </trkpt>
      <trkpt lat="48.61634" lon="1.92957">
        <ele>179</ele>
        <time>2018-08-18T10:15:02Z</time>
      </trkpt>
      <trkpt lat="48.6164" lon="1.92955">
        <ele>179</ele>
        <time>2018-08-18T10:15:06Z</time>
      </trkpt>
      <trkpt lat="48.61645" lon="1.92951">
        <ele>175</ele>
        <time>2018-08-18T10:15:10Z</time>
      </trkpt>
      <trkpt lat="48.6165" lon="1.92945">
        <ele>173</ele>
        <time>2018-08-18T10:15:15Z</time>
      </trkpt>
      <trkpt lat="48.61655" lon="1.9294">
        <ele>172</ele>
        <time>2018-08-18T10:15:19Z</time>
      </trkpt>
      <trkpt lat="48.61658" lon="1.92932">
        <ele>171</ele>
        <time>2018-08-18T10:15:23Z</time>
      </trkpt>
      <trkpt lat="48.61662" lon="1.92922">
        <ele>171</ele>
        <time>2018-08-18T10:15:28Z</time>
      </trkpt>
      <trkpt lat="48.61665" lon="1.92915">
        <ele>171</ele>
        <time>2018-08-18T10:15:32Z</time>
      </trkpt>
      <trkpt lat="48.61668" lon="1.92908">
        <ele>171</ele>
        <time>2018-08-18T10:15:36Z</time>
      </trkpt>
      <trkpt lat="48.61671" lon="1.92902">
        <ele>170</ele>
        <time>2018-08-18T10:15:40Z</time>
      </trkpt>
      <trkpt lat="48.61675" lon="1.92895">
        <ele>170</ele>
        <time>2018-08-18T10:15:44Z</time>
      </trkpt>
      <trkpt lat="48.61678" lon="1.92887">
        <ele>170</ele>
        <time>2018-08-18T10:15:48Z</time>
      </trkpt>
      <trkpt lat="48.6168" lon="1.92878">
        <ele>170</ele>
        <time>2018-08-18T10:15:52Z</time>
      </trkpt>
      <trkpt lat="48.61683" lon="1.92871">
        <ele>170</ele>
        <time>2018-08-18T10:15:56Z</time>
      </trkpt>
      <trkpt lat="48.61689" lon="1.92863">
        <ele>170</ele>
        <time>2018-08-18T10:16:01Z</time>
      </trkpt>
      <trkpt lat="48.61692" lon="1.92856">
        <ele>169</ele>
        <time>2018-08-18T10:16:05Z</time>
      </trkpt>
      <trkpt lat="48.61695" lon="1.92848">
        <ele>168</ele>
        <time>2018-08-18T10:16:09Z</time>
      </trkpt>
      <trkpt lat="48.61697" lon="1.92841">
        <ele>168</ele>
        <time>2018-08-18T10:16:13Z</time>
      </trkpt>
      <trkpt lat="48.617" lon="1.92834">
        <ele>168</ele>
        <time>2018-08-18T10:16:17Z</time>
      </trkpt>
      <trkpt lat="48.61705" lon="1.92826">
        <ele>167</ele>
        <time>2018-08-18T10:16:22Z</time>
      </trkpt>
      <trkpt lat="48.61709" lon="1.92818">
        <ele>167</ele>
        <time>2018-08-18T10:16:26Z</time>
      </trkpt>
      <trkpt lat="48.61713" lon="1.9281">
        <ele>167</ele>
        <time>2018-08-18T10:16:30Z</time>
      </trkpt>
      <trkpt lat="48.61717" lon="1.92805">
        <ele>167</ele>
        <time>2018-08-18T10:16:34Z</time>
      </trkpt>
      <trkpt lat="48.61721" lon="1.92802">
        <ele>167</ele>
        <time>2018-08-18T10:16:38Z</time>
      </trkpt>
      <trkpt lat="48.61725" lon="1.92795">
        <ele>167</ele>
        <time>2018-08-18T10:16:42Z</time>
      </trkpt>
      <trkpt lat="48.61728" lon="1.92788">
        <ele>167</ele>
        <time>2018-08-18T10:16:46Z</time>
      </trkpt>
      <trkpt lat="48.61731" lon="1.9278">
        <ele>167</ele>
        <time>2018-08-18T10:16:50Z</time>
      </trkpt>
      <trkpt lat="48.61734" lon="1.92773">
        <ele>167</ele>
        <time>2018-08-18T10:16:54Z</time>
      </trkpt>
      <trkpt lat="48.61738" lon="1.92766">
        <ele>167</ele>
        <time>2018-08-18T10:16:58Z</time>
      </trkpt>
      <trkpt lat="48.61741" lon="1.92758">
        <ele>167</ele>
        <time>2018-08-18T10:17:02Z</time>
      </trkpt>
      <trkpt lat="48.61743" lon="1.92751">
        <ele>167</ele>
        <time>2018-08-18T10:17:06Z</time>
      </trkpt>
      <trkpt lat="48.61747" lon="1.92744">
        <ele>167</ele>
        <time>2018-08-18T10:17:10Z</time>
      </trkpt>
      <trkpt lat="48.6175" lon="1.92737">
        <ele>167</ele>
        <time>2018-08-18T10:17:14Z</time>
      </trkpt>
      <trkpt lat="48.61753" lon="1.92731">
        <ele>167</ele>
        <time>2018-08-18T10:17:18Z</time>
      </trkpt>
      <trkpt lat="48.61756" lon="1.92724">
        <ele>167</ele>
        <time>2018-08-18T10:17:22Z</time>
      </trkpt>
      <trkpt lat="48.6176" lon="1.92718">
        <ele>167</ele>
        <time>2018-08-18T10:17:26Z</time>
      </trkpt>
      <trkpt lat="48.61764" lon="1.92711">
        <ele>167</ele>
        <time>2018-08-18T10:17:30Z</time>
      </trkpt>
      <trkpt lat="48.61767" lon="1.92704">
        <ele>167</ele>
        <time>2018-08-18T10:17:34Z</time>
      </trkpt>
      <trkpt lat="48.6177" lon="1.92696">
        <ele>167</ele>
        <time>2018-08-18T10:17:38Z</time>
      </trkpt>
      <trkpt lat="48.61774" lon="1.92691">
        <ele>167</ele>
        <time>2018-08-18T10:17:42Z</time>
      </trkpt>
      <trkpt lat="48.61778" lon="1.92683">
        <ele>167</ele>
        <time>2018-08-18T10:17:47Z</time>
      </trkpt>
      <trkpt lat="48.6178" lon="1.92674">
        <ele>167</ele>
        <time>2018-08-18T10:17:51Z</time>
      </trkpt>
      <trkpt lat="48.61784" lon="1.92667">
        <ele>167</ele>
        <time>2018-08-18T10:17:55Z</time>
      </trkpt>
      <trkpt lat="48.61786" lon="1.9266">
        <ele>167</ele>
        <time>2018-08-18T10:17:59Z</time>
      </trkpt>
      <trkpt lat="48.61788" lon="1.92653">
        <ele>168</ele>
        <time>2018-08-18T10:18:03Z</time>
      </trkpt>
      <trkpt lat="48.61792" lon="1.92647">
        <ele>169</ele>
        <time>2018-08-18T10:18:07Z</time>
      </trkpt>
      <trkpt lat="48.61796" lon="1.9264">
        <ele>169</ele>
        <time>2018-08-18T10:18:11Z</time>
      </trkpt>
      <trkpt lat="48.61799" lon="1.92632">
        <ele>170</ele>
        <time>2018-08-18T10:18:15Z</time>
      </trkpt>
      <trkpt lat="48.61801" lon="1.92624">
        <ele>170</ele>
        <time>2018-08-18T10:18:19Z</time>
      </trkpt>
      <trkpt lat="48.61805" lon="1.92616">
        <ele>170</ele>
        <time>2018-08-18T10:18:24Z</time>
      </trkpt>
      <trkpt lat="48.61809" lon="1.92608">
        <ele>170</ele>
        <time>2018-08-18T10:18:28Z</time>
      </trkpt>
      <trkpt lat="48.61812" lon="1.92602">
        <ele>170</ele>
        <time>2018-08-18T10:18:32Z</time>
      </trkpt>
      <trkpt lat="48.61815" lon="1.92595">
        <ele>170</ele>
        <time>2018-08-18T10:18:36Z</time>
      </trkpt>
      <trkpt lat="48.6182" lon="1.92589">
        <ele>170</ele>
        <time>2018-08-18T10:18:40Z</time>
      </trkpt>
      <trkpt lat="48.61823" lon="1.92583">
        <ele>170</ele>
        <time>2018-08-18T10:18:44Z</time>
      </trkpt>
      <trkpt lat="48.61827" lon="1.92575">
        <ele>170</ele>
        <time>2018-08-18T10:18:48Z</time>
      </trkpt>
      <trkpt lat="48.61831" lon="1.92567">
        <ele>170</ele>
        <time>2018-08-18T10:18:52Z</time>
      </trkpt>
      <trkpt lat="48.61835" lon="1.92558">
        <ele>170</ele>
        <time>2018-08-18T10:18:56Z</time>
      </trkpt>
      <trkpt lat="48.61838" lon="1.92551">
        <ele>170</ele>
        <time>2018-08-18T10:19:00Z</time>
      </trkpt>
      <trkpt lat="48.61841" lon="1.92544">
        <ele>169</ele>
        <time>2018-08-18T10:19:04Z</time>
      </trkpt>
      <trkpt lat="48.61846" lon="1.92536">
        <ele>169</ele>
        <time>2018-08-18T10:19:08Z</time>
      </trkpt>
      <trkpt lat="48.6185" lon="1.92531">
        <ele>169</ele>
        <time>2018-08-18T10:19:12Z</time>
      </trkpt>
      <trkpt lat="48.61856" lon="1.92523">
        <ele>169</ele>
        <time>2018-08-18T10:19:17Z</time>
      </trkpt>
      <trkpt lat="48.61859" lon="1.92517">
        <ele>169</ele>
        <time>2018-08-18T10:19:21Z</time>
      </trkpt>
      <trkpt lat="48.61862" lon="1.9251">
        <ele>169</ele>
        <time>2018-08-18T10:19:25Z</time>
      </trkpt>
      <trkpt lat="48.61866" lon="1.92503">
        <ele>169</ele>
        <time>2018-08-18T10:19:29Z</time>
      </trkpt>
      <trkpt lat="48.6187" lon="1.92497">
        <ele>168</ele>
        <time>2018-08-18T10:19:33Z</time>
      </trkpt>
      <trkpt lat="48.61875" lon="1.92492">
        <ele>168</ele>
        <time>2018-08-18T10:19:37Z</time>
      </trkpt>
      <trkpt lat="48.61877" lon="1.92484">
        <ele>168</ele>
        <time>2018-08-18T10:19:41Z</time>
      </trkpt>
      <trkpt lat="48.61881" lon="1.92474">
        <ele>168</ele>
        <time>2018-08-18T10:19:46Z</time>
      </trkpt>
      <trkpt lat="48.61883" lon="1.92466">
        <ele>168</ele>
        <time>2018-08-18T10:19:50Z</time>
      </trkpt>
      <trkpt lat="48.61887" lon="1.92458">
        <ele>168</ele>
        <time>2018-08-18T10:19:55Z</time>
      </trkpt>
      <trkpt lat="48.61888" lon="1.92448">
        <ele>168</ele>
        <time>2018-08-18T10:19:59Z</time>
      </trkpt>
      <trkpt lat="48.61891" lon="1.9244">
        <ele>168</ele>
        <time>2018-08-18T10:20:03Z</time>
      </trkpt>
      <trkpt lat="48.61894" lon="1.92431">
        <ele>167</ele>
        <time>2018-08-18T10:20:08Z</time>
      </trkpt>
      <trkpt lat="48.61897" lon="1.92425">
        <ele>166</ele>
        <time>2018-08-18T10:20:12Z</time>
      </trkpt>
      <trkpt lat="48.619" lon="1.92416">
        <ele>166</ele>
        <time>2018-08-18T10:20:17Z</time>
      </trkpt>
      <trkpt lat="48.61903" lon="1.92412">
        <ele>166</ele>
        <time>2018-08-18T10:20:24Z</time>
      </trkpt>
      <trkpt lat="48.61905" lon="1.92412">
        <ele>166</ele>
        <time>2018-08-18T10:20:30Z</time>
      </trkpt>
      <trkpt lat="48.61906" lon="1.92407">
        <ele>166</ele>
        <time>2018-08-18T10:20:34Z</time>
      </trkpt>
      <trkpt lat="48.6191" lon="1.92402">
        <ele>166</ele>
        <time>2018-08-18T10:20:38Z</time>
      </trkpt>
      <trkpt lat="48.61913" lon="1.92397">
        <ele>166</ele>
        <time>2018-08-18T10:20:42Z</time>
      </trkpt>
      <trkpt lat="48.61915" lon="1.92393">
        <ele>166</ele>
        <time>2018-08-18T10:20:48Z</time>
      </trkpt>
      <trkpt lat="48.61916" lon="1.92388">
        <ele>166</ele>
        <time>2018-08-18T10:20:52Z</time>
      </trkpt>
      <trkpt lat="48.61917" lon="1.92384">
        <ele>166</ele>
        <time>2018-08-18T10:20:56Z</time>
      </trkpt>
      <trkpt lat="48.6192" lon="1.9238">
        <ele>166</ele>
        <time>2018-08-18T10:21:00Z</time>
      </trkpt>
      <trkpt lat="48.61923" lon="1.92375">
        <ele>166</ele>
        <time>2018-08-18T10:21:04Z</time>
      </trkpt>
      <trkpt lat="48.61926" lon="1.92367">
        <ele>166</ele>
        <time>2018-08-18T10:21:08Z</time>
      </trkpt>
      <trkpt lat="48.61928" lon="1.92361">
        <ele>166</ele>
        <time>2018-08-18T10:21:12Z</time>
      </trkpt>
      <trkpt lat="48.61931" lon="1.92355">
        <ele>166</ele>
        <time>2018-08-18T10:21:16Z</time>
      </trkpt>
      <trkpt lat="48.61935" lon="1.92351">
        <ele>166</ele>
        <time>2018-08-18T10:21:20Z</time>
      </trkpt>
      <trkpt lat="48.61939" lon="1.92341">
        <ele>166</ele>
        <time>2018-08-18T10:21:25Z</time>
      </trkpt>
      <trkpt lat="48.61941" lon="1.92335">
        <ele>166</ele>
        <time>2018-08-18T10:21:29Z</time>
      </trkpt>
      <trkpt lat="48.61943" lon="1.92328">
        <ele>166</ele>
        <time>2018-08-18T10:21:33Z</time>
      </trkpt>
      <trkpt lat="48.61947" lon="1.9232">
        <ele>166</ele>
        <time>2018-08-18T10:21:38Z</time>
      </trkpt>
      <trkpt lat="48.6195" lon="1.92313">
        <ele>166</ele>
        <time>2018-08-18T10:21:43Z</time>
      </trkpt>
      <trkpt lat="48.61952" lon="1.92305">
        <ele>166</ele>
        <time>2018-08-18T10:21:47Z</time>
      </trkpt>
      <trkpt lat="48.61956" lon="1.92296">
        <ele>166</ele>
        <time>2018-08-18T10:21:52Z</time>
      </trkpt>
      <trkpt lat="48.61961" lon="1.92289">
        <ele>166</ele>
        <time>2018-08-18T10:21:57Z</time>
      </trkpt>
      <trkpt lat="48.61964" lon="1.92282">
        <ele>166</ele>
        <time>2018-08-18T10:22:01Z</time>
      </trkpt>
      <trkpt lat="48.61968" lon="1.92275">
        <ele>166</ele>
        <time>2018-08-18T10:22:05Z</time>
      </trkpt>
      <trkpt lat="48.61971" lon="1.92268">
        <ele>166</ele>
        <time>2018-08-18T10:22:09Z</time>
      </trkpt>
      <trkpt lat="48.61975" lon="1.92261">
        <ele>166</ele>
        <time>2018-08-18T10:22:13Z</time>
      </trkpt>
      <trkpt lat="48.61977" lon="1.92253">
        <ele>166</ele>
        <time>2018-08-18T10:22:17Z</time>
      </trkpt>
      <trkpt lat="48.6198" lon="1.92245">
        <ele>166</ele>
        <time>2018-08-18T10:22:21Z</time>
      </trkpt>
      <trkpt lat="48.61983" lon="1.92239">
        <ele>166</ele>
        <time>2018-08-18T10:22:25Z</time>
      </trkpt>
      <trkpt lat="48.61986" lon="1.92232">
        <ele>166</ele>
        <time>2018-08-18T10:22:29Z</time>
      </trkpt>
      <trkpt lat="48.6199" lon="1.92224">
        <ele>166</ele>
        <time>2018-08-18T10:22:34Z</time>
      </trkpt>
      <trkpt lat="48.61993" lon="1.92215">
        <ele>166</ele>
        <time>2018-08-18T10:22:39Z</time>
      </trkpt>
      <trkpt lat="48.61996" lon="1.92208">
        <ele>166</ele>
        <time>2018-08-18T10:22:43Z</time>
      </trkpt>
      <trkpt lat="48.62" lon="1.92202">
        <ele>166</ele>
        <time>2018-08-18T10:22:47Z</time>
      </trkpt>
      <trkpt lat="48.62003" lon="1.92196">
        <ele>167</ele>
        <time>2018-08-18T10:22:51Z</time>
      </trkpt>
      <trkpt lat="48.62007" lon="1.92189">
        <ele>167</ele>
        <time>2018-08-18T10:22:55Z</time>
      </trkpt>
      <trkpt lat="48.62011" lon="1.92181">
        <ele>167</ele>
        <time>2018-08-18T10:23:00Z</time>
      </trkpt>
      <trkpt lat="48.62015" lon="1.92174">
        <ele>167</ele>
        <time>2018-08-18T10:23:04Z</time>
      </trkpt>
      <trkpt lat="48.62019" lon="1.92165">
        <ele>167</ele>
        <time>2018-08-18T10:23:09Z</time>
      </trkpt>
      <trkpt lat="48.62022" lon="1.92158">
        <ele>167</ele>
        <time>2018-08-18T10:23:13Z</time>
      </trkpt>
      <trkpt lat="48.62025" lon="1.92149">
        <ele>167</ele>
        <time>2018-08-18T10:23:17Z</time>
      </trkpt>
      <trkpt lat="48.6203" lon="1.92142">
        <ele>167</ele>
        <time>2018-08-18T10:23:22Z</time>
      </trkpt>
      <trkpt lat="48.62033" lon="1.92134">
        <ele>167</ele>
        <time>2018-08-18T10:23:26Z</time>
      </trkpt>
      <trkpt lat="48.62037" lon="1.92126">
        <ele>167</ele>
        <time>2018-08-18T10:23:30Z</time>
      </trkpt>
      <trkpt lat="48.6204" lon="1.92118">
        <ele>167</ele>
        <time>2018-08-18T10:23:34Z</time>
      </trkpt>
      <trkpt lat="48.62044" lon="1.92109">
        <ele>167</ele>
        <time>2018-08-18T10:23:38Z</time>
      </trkpt>
      <trkpt lat="48.62048" lon="1.92104">
        <ele>167</ele>
        <time>2018-08-18T10:23:42Z</time>
      </trkpt>
      <trkpt lat="48.62052" lon="1.92099">
        <ele>167</ele>
        <time>2018-08-18T10:23:46Z</time>
      </trkpt>
      <trkpt lat="48.62054" lon="1.92091">
        <ele>167</ele>
        <time>2018-08-18T10:23:50Z</time>
      </trkpt>
      <trkpt lat="48.62057" lon="1.92083">
        <ele>167</ele>
        <time>2018-08-18T10:23:54Z</time>
      </trkpt>
      <trkpt lat="48.62059" lon="1.92076">
        <ele>167</ele>
        <time>2018-08-18T10:23:58Z</time>
      </trkpt>
      <trkpt lat="48.62064" lon="1.92067">
        <ele>167</ele>
        <time>2018-08-18T10:24:03Z</time>
      </trkpt>
      <trkpt lat="48.62066" lon="1.9206">
        <ele>167</ele>
        <time>2018-08-18T10:24:07Z</time>
      </trkpt>
      <trkpt lat="48.6207" lon="1.92052">
        <ele>167</ele>
        <time>2018-08-18T10:24:12Z</time>
      </trkpt>
      <trkpt lat="48.62074" lon="1.92044">
        <ele>167</ele>
        <time>2018-08-18T10:24:17Z</time>
      </trkpt>
      <trkpt lat="48.62077" lon="1.92038">
        <ele>167</ele>
        <time>2018-08-18T10:24:21Z</time>
      </trkpt>
      <trkpt lat="48.62081" lon="1.92032">
        <ele>167</ele>
        <time>2018-08-18T10:24:25Z</time>
      </trkpt>
      <trkpt lat="48.62085" lon="1.92025">
        <ele>167</ele>
        <time>2018-08-18T10:24:29Z</time>
      </trkpt>
      <trkpt lat="48.62088" lon="1.92018">
        <ele>167</ele>
        <time>2018-08-18T10:24:33Z</time>
      </trkpt>
      <trkpt lat="48.62092" lon="1.92012">
        <ele>167</ele>
        <time>2018-08-18T10:24:37Z</time>
      </trkpt>
      <trkpt lat="48.62095" lon="1.92004">
        <ele>167</ele>
        <time>2018-08-18T10:24:41Z</time>
      </trkpt>
      <trkpt lat="48.62099" lon="1.91996">
        <ele>168</ele>
        <time>2018-08-18T10:24:45Z</time>
      </trkpt>
      <trkpt lat="48.62102" lon="1.9199">
        <ele>168</ele>
        <time>2018-08-18T10:24:49Z</time>
      </trkpt>
      <trkpt lat="48.62105" lon="1.9198">
        <ele>168</ele>
        <time>2018-08-18T10:24:54Z</time>
      </trkpt>
      <trkpt lat="48.62108" lon="1.91973">
        <ele>168</ele>
        <time>2018-08-18T10:24:58Z</time>
      </trkpt>
      <trkpt lat="48.62112" lon="1.91966">
        <ele>168</ele>
        <time>2018-08-18T10:25:02Z</time>
      </trkpt>
      <trkpt lat="48.62115" lon="1.91958">
        <ele>168</ele>
        <time>2018-08-18T10:25:06Z</time>
      </trkpt>
      <trkpt lat="48.62119" lon="1.91948">
        <ele>168</ele>
        <time>2018-08-18T10:25:11Z</time>
      </trkpt>
      <trkpt lat="48.62123" lon="1.91943">
        <ele>168</ele>
        <time>2018-08-18T10:25:15Z</time>
      </trkpt>
      <trkpt lat="48.62127" lon="1.91936">
        <ele>168</ele>
        <time>2018-08-18T10:25:20Z</time>
      </trkpt>
      <trkpt lat="48.6213" lon="1.91929">
        <ele>168</ele>
        <time>2018-08-18T10:25:24Z</time>
      </trkpt>
      <trkpt lat="48.62133" lon="1.9192">
        <ele>168</ele>
        <time>2018-08-18T10:25:29Z</time>
      </trkpt>
      <trkpt lat="48.62137" lon="1.91915">
        <ele>168</ele>
        <time>2018-08-18T10:25:33Z</time>
      </trkpt>
      <trkpt lat="48.6214" lon="1.91909">
        <ele>168</ele>
        <time>2018-08-18T10:25:37Z</time>
      </trkpt>
      <trkpt lat="48.62143" lon="1.91903">
        <ele>168</ele>
        <time>2018-08-18T10:25:41Z</time>
      </trkpt>
      <trkpt lat="48.62149" lon="1.91896">
        <ele>168</ele>
        <time>2018-08-18T10:25:46Z</time>
      </trkpt>
      <trkpt lat="48.62153" lon="1.91888">
        <ele>168</ele>
        <time>2018-08-18T10:25:50Z</time>
      </trkpt>
      <trkpt lat="48.62154" lon="1.9188">
        <ele>168</ele>
        <time>2018-08-18T10:25:54Z</time>
      </trkpt>
      <trkpt lat="48.62157" lon="1.91871">
        <ele>169</ele>
        <time>2018-08-18T10:25:59Z</time>
      </trkpt>
      <trkpt lat="48.62162" lon="1.91863">
        <ele>169</ele>
        <time>2018-08-18T10:26:04Z</time>
      </trkpt>
      <trkpt lat="48.62166" lon="1.91854">
        <ele>169</ele>
        <time>2018-08-18T10:26:09Z</time>
      </trkpt>
      <trkpt lat="48.62169" lon="1.91847">
        <ele>169</ele>
        <time>2018-08-18T10:26:13Z</time>
      </trkpt>
      <trkpt lat="48.62173" lon="1.91839">
        <ele>169</ele>
        <time>2018-08-18T10:26:18Z</time>
      </trkpt>
      <trkpt lat="48.62175" lon="1.9183">
        <ele>169</ele>
        <time>2018-08-18T10:26:22Z</time>
      </trkpt>
      <trkpt lat="48.62178" lon="1.91823">
        <ele>169</ele>
        <time>2018-08-18T10:26:26Z</time>
      </trkpt>
      <trkpt lat="48.62182" lon="1.91816">
        <ele>169</ele>
        <time>2018-08-18T10:26:30Z</time>
      </trkpt>
      <trkpt lat="48.62185" lon="1.91809">
        <ele>169</ele>
        <time>2018-08-18T10:26:34Z</time>
      </trkpt>
      <trkpt lat="48.62188" lon="1.91802">
        <ele>170</ele>
        <time>2018-08-18T10:26:38Z</time>
      </trkpt>
      <trkpt lat="48.62192" lon="1.91795">
        <ele>170</ele>
        <time>2018-08-18T10:26:43Z</time>
      </trkpt>
      <trkpt lat="48.62194" lon="1.91788">
        <ele>170</ele>
        <time>2018-08-18T10:26:47Z</time>
      </trkpt>
      <trkpt lat="48.62198" lon="1.91781">
        <ele>170</ele>
        <time>2018-08-18T10:26:51Z</time>
      </trkpt>
      <trkpt lat="48.62201" lon="1.91773">
        <ele>172</ele>
        <time>2018-08-18T10:26:55Z</time>
      </trkpt>
      <trkpt lat="48.62206" lon="1.91763">
        <ele>174</ele>
        <time>2018-08-18T10:26:59Z</time>
      </trkpt>
      <trkpt lat="48.62211" lon="1.91752">
        <ele>174</ele>
        <time>2018-08-18T10:27:03Z</time>
      </trkpt>
      <trkpt lat="48.6222" lon="1.91743">
        <ele>174</ele>
        <time>2018-08-18T10:27:07Z</time>
      </trkpt>
      <trkpt lat="48.62228" lon="1.91729">
        <ele>174</ele>
        <time>2018-08-18T10:27:11Z</time>
      </trkpt>
      <trkpt lat="48.62236" lon="1.9171">
        <ele>177</ele>
        <time>2018-08-18T10:27:15Z</time>
      </trkpt>
      <trkpt lat="48.6224" lon="1.91684">
        <ele>178</ele>
        <time>2018-08-18T10:27:19Z</time>
      </trkpt>
      <trkpt lat="48.62248" lon="1.91667">
        <ele>180</ele>
        <time>2018-08-18T10:27:23Z</time>
      </trkpt>
      <trkpt lat="48.62257" lon="1.91648">
        <ele>180</ele>
        <time>2018-08-18T10:27:27Z</time>
      </trkpt>
      <trkpt lat="48.62267" lon="1.91632">
        <ele>180</ele>
        <time>2018-08-18T10:27:31Z</time>
      </trkpt>
      <trkpt lat="48.62277" lon="1.9162">
        <ele>180</ele>
        <time>2018-08-18T10:27:35Z</time>
      </trkpt>
      <trkpt lat="48.62285" lon="1.91606">
        <ele>178</ele>
        <time>2018-08-18T10:27:39Z</time>
      </trkpt>
      <trkpt lat="48.62294" lon="1.91592">
        <ele>174</ele>
        <time>2018-08-18T10:27:43Z</time>
      </trkpt>
      <trkpt lat="48.62302" lon="1.91576">
        <ele>172</ele>
        <time>2018-08-18T10:27:47Z</time>
      </trkpt>
      <trkpt lat="48.6231" lon="1.91558">
        <ele>171</ele>
        <time>2018-08-18T10:27:51Z</time>
      </trkpt>
      <trkpt lat="48.62318" lon="1.91539">
        <ele>171</ele>
        <time>2018-08-18T10:27:55Z</time>
      </trkpt>
      <trkpt lat="48.62325" lon="1.91519">
        <ele>169</ele>
        <time>2018-08-18T10:27:59Z</time>
      </trkpt>
      <trkpt lat="48.62335" lon="1.91503">
        <ele>166</ele>
        <time>2018-08-18T10:28:03Z</time>
      </trkpt>
      <trkpt lat="48.62345" lon="1.91486">
        <ele>165</ele>
        <time>2018-08-18T10:28:07Z</time>
      </trkpt>
      <trkpt lat="48.62358" lon="1.91467">
        <ele>165</ele>
        <time>2018-08-18T10:28:11Z</time>
      </trkpt>
      <trkpt lat="48.62373" lon="1.91444">
        <ele>165</ele>
        <time>2018-08-18T10:28:15Z</time>
      </trkpt>
      <trkpt lat="48.6238" lon="1.91413">
        <ele>168</ele>
        <time>2018-08-18T10:28:19Z</time>
      </trkpt>
      <trkpt lat="48.62388" lon="1.91391">
        <ele>169</ele>
        <time>2018-08-18T10:28:23Z</time>
      </trkpt>
      <trkpt lat="48.62396" lon="1.91373">
        <ele>173</ele>
        <time>2018-08-18T10:28:27Z</time>
      </trkpt>
      <trkpt lat="48.62405" lon="1.91353">
        <ele>177</ele>
        <time>2018-08-18T10:28:31Z</time>
      </trkpt>
      <trkpt lat="48.62418" lon="1.9133">
        <ele>181</ele>
        <time>2018-08-18T10:28:35Z</time>
      </trkpt>
      <trkpt lat="48.62429" lon="1.91307">
        <ele>185</ele>
        <time>2018-08-18T10:28:39Z</time>
      </trkpt>
      <trkpt lat="48.62442" lon="1.91291">
        <ele>189</ele>
        <time>2018-08-18T10:28:43Z</time>
      </trkpt>
      <trkpt lat="48.62457" lon="1.9127">
        <ele>193</ele>
        <time>2018-08-18T10:28:47Z</time>
      </trkpt>
      <trkpt lat="48.62467" lon="1.91243">
        <ele>197</ele>
        <time>2018-08-18T10:28:51Z</time>
      </trkpt>
      <trkpt lat="48.62486" lon="1.91223">
        <ele>202</ele>
        <time>2018-08-18T10:28:55Z</time>
      </trkpt>
      <trkpt lat="48.625" lon="1.91202">
        <ele>204</ele>
        <time>2018-08-18T10:28:59Z</time>
      </trkpt>
      <trkpt lat="48.62518" lon="1.91182">
        <ele>204</ele>
        <time>2018-08-18T10:29:03Z</time>
      </trkpt>
      <trkpt lat="48.62536" lon="1.91164">
        <ele>203</ele>
        <time>2018-08-18T10:29:07Z</time>
      </trkpt>
      <trkpt lat="48.62552" lon="1.91145">
        <ele>199</ele>
        <time>2018-08-18T10:29:11Z</time>
      </trkpt>
      <trkpt lat="48.62563" lon="1.9111">
        <ele>194</ele>
        <time>2018-08-18T10:29:15Z</time>
      </trkpt>
      <trkpt lat="48.62575" lon="1.91082">
        <ele>188</ele>
        <time>2018-08-18T10:29:19Z</time>
      </trkpt>
      <trkpt lat="48.62586" lon="1.91055">
        <ele>184</ele>
        <time>2018-08-18T10:29:23Z</time>
      </trkpt>
      <trkpt lat="48.62595" lon="1.91027">
        <ele>180</ele>
        <time>2018-08-18T10:29:27Z</time>
      </trkpt>
      <trkpt lat="48.62607" lon="1.91002">
        <ele>176</ele>
        <time>2018-08-18T10:29:31Z</time>
      </trkpt>
      <trkpt lat="48.62618" lon="1.9097">
        <ele>172</ele>
        <time>2018-08-18T10:29:35Z</time>
      </trkpt>
      <trkpt lat="48.62625" lon="1.90944">
        <ele>168</ele>
        <time>2018-08-18T10:29:39Z</time>
      </trkpt>
      <trkpt lat="48.62634" lon="1.90917">
        <ele>164</ele>
        <time>2018-08-18T10:29:43Z</time>
      </trkpt>
      <trkpt lat="48.62645" lon="1.90891">
        <ele>163</ele>
        <time>2018-08-18T10:29:47Z</time>
      </trkpt>
      <trkpt lat="48.62655" lon="1.90858">
        <ele>163</ele>
        <time>2018-08-18T10:29:51Z</time>
      </trkpt>
      <trkpt lat="48.62666" lon="1.90834">
        <ele>163</ele>
        <time>2018-08-18T10:29:55Z</time>
      </trkpt>
      <trkpt lat="48.62676" lon="1.90813">
        <ele>163</ele>
        <time>2018-08-18T10:29:59Z</time>
      </trkpt>
      <trkpt lat="48.62688" lon="1.90788">
        <ele>163</ele>
        <time>2018-08-18T10:30:03Z</time>
      </trkpt>
      <trkpt lat="48.62687" lon="1.90746">
        <ele>163</ele>
        <time>2018-08-18T10:30:07Z</time>
      </trkpt>
      <trkpt lat="48.62697" lon="1.9072">
        <ele>163</ele>
        <time>2018-08-18T10:30:11Z</time>
      </trkpt>
      <trkpt lat="48.62708" lon="1.90704">
        <ele>167</ele>
        <time>2018-08-18T10:30:15Z</time>
      </trkpt>
      <trkpt lat="48.62724" lon="1.9069">
        <ele>171</ele>
        <time>2018-08-18T10:30:19Z</time>
      </trkpt>
      <trkpt lat="48.62738" lon="1.90667">
        <ele>175</ele>
        <time>2018-08-18T10:30:23Z</time>
      </trkpt>
      <trkpt lat="48.6275" lon="1.90638">
        <ele>175</ele>
        <time>2018-08-18T10:30:27Z</time>
      </trkpt>
      <trkpt lat="48.62766" lon="1.90614">
        <ele>175</ele>
        <time>2018-08-18T10:30:31Z</time>
      </trkpt>
      <trkpt lat="48.62782" lon="1.90593">
        <ele>175</ele>
        <time>2018-08-18T10:30:35Z</time>
      </trkpt>
      <trkpt lat="48.62802" lon="1.90575">
        <ele>175</ele>
        <time>2018-08-18T10:30:39Z</time>
      </trkpt>
      <trkpt lat="48.62818" lon="1.90551">
        <ele>173</ele>
        <time>2018-08-18T10:30:43Z</time>
      </trkpt>
      <trkpt lat="48.62832" lon="1.90521">
        <ele>173</ele>
        <time>2018-08-18T10:30:47Z</time>
      </trkpt>
      <trkpt lat="48.62844" lon="1.90502">
        <ele>174</ele>
        <time>2018-08-18T10:30:51Z</time>
      </trkpt>
      <trkpt lat="48.62857" lon="1.90477">
        <ele>178</ele>
        <time>2018-08-18T10:30:55Z</time>
      </trkpt>
      <trkpt lat="48.62874" lon="1.90449">
        <ele>182</ele>
        <time>2018-08-18T10:30:59Z</time>
      </trkpt>
      <trkpt lat="48.62887" lon="1.90419">
        <ele>183</ele>
        <time>2018-08-18T10:31:03Z</time>
      </trkpt>
      <trkpt lat="48.62898" lon="1.90385">
        <ele>183</ele>
        <time>2018-08-18T10:31:07Z</time>
      </trkpt>
      <trkpt lat="48.62908" lon="1.90351">
        <ele>181</ele>
        <time>2018-08-18T10:31:11Z</time>
      </trkpt>
      <trkpt lat="48.62918" lon="1.90321">
        <ele>177</ele>
        <time>2018-08-18T10:31:15Z</time>
      </trkpt>
      <trkpt lat="48.62929" lon="1.90294">
        <ele>173</ele>
        <time>2018-08-18T10:31:19Z</time>
      </trkpt>
      <trkpt lat="48.62933" lon="1.9026">
        <ele>170</ele>
        <time>2018-08-18T10:31:23Z</time>
      </trkpt>
      <trkpt lat="48.62941" lon="1.90227">
        <ele>170</ele>
        <time>2018-08-18T10:31:27Z</time>
      </trkpt>
      <trkpt lat="48.62952" lon="1.902">
        <ele>170</ele>
        <time>2018-08-18T10:31:31Z</time>
      </trkpt>
      <trkpt lat="48.62962" lon="1.90174">
        <ele>170</ele>
        <time>2018-08-18T10:31:35Z</time>
      </trkpt>
      <trkpt lat="48.62971" lon="1.90156">
        <ele>170</ele>
        <time>2018-08-18T10:31:39Z</time>
      </trkpt>
      <trkpt lat="48.62983" lon="1.90138">
        <ele>170</ele>
        <time>2018-08-18T10:31:43Z</time>
      </trkpt>
      <trkpt lat="48.63001" lon="1.90122">
        <ele>170</ele>
        <time>2018-08-18T10:31:47Z</time>
      </trkpt>
      <trkpt lat="48.63013" lon="1.90102">
        <ele>170</ele>
        <time>2018-08-18T10:31:51Z</time>
      </trkpt>
      <trkpt lat="48.63026" lon="1.90078">
        <ele>170</ele>
        <time>2018-08-18T10:31:55Z</time>
      </trkpt>
      <trkpt lat="48.63041" lon="1.90051">
        <ele>170</ele>
        <time>2018-08-18T10:32:00Z</time>
      </trkpt>
      <trkpt lat="48.63055" lon="1.90034">
        <ele>170</ele>
        <time>2018-08-18T10:32:04Z</time>
      </trkpt>
      <trkpt lat="48.63068" lon="1.90018">
        <ele>169</ele>
        <time>2018-08-18T10:32:08Z</time>
      </trkpt>
      <trkpt lat="48.6308" lon="1.90001">
        <ele>167</ele>
        <time>2018-08-18T10:32:12Z</time>
      </trkpt>
      <trkpt lat="48.63092" lon="1.89983">
        <ele>164</ele>
        <time>2018-08-18T10:32:16Z</time>
      </trkpt>
      <trkpt lat="48.63104" lon="1.89968">
        <ele>164</ele>
        <time>2018-08-18T10:32:20Z</time>
      </trkpt>
      <trkpt lat="48.63114" lon="1.89943">
        <ele>164</ele>
        <time>2018-08-18T10:32:24Z</time>
      </trkpt>
      <trkpt lat="48.63128" lon="1.8992">
        <ele>164</ele>
        <time>2018-08-18T10:32:28Z</time>
      </trkpt>
      <trkpt lat="48.63131" lon="1.89882">
        <ele>164</ele>
        <time>2018-08-18T10:32:32Z</time>
      </trkpt>
      <trkpt lat="48.63143" lon="1.89853">
        <ele>167</ele>
        <time>2018-08-18T10:32:36Z</time>
      </trkpt>
      <trkpt lat="48.63159" lon="1.89822">
        <ele>172</ele>
        <time>2018-08-18T10:32:41Z</time>
      </trkpt>
      <trkpt lat="48.63171" lon="1.89797">
        <ele>174</ele>
        <time>2018-08-18T10:32:45Z</time>
      </trkpt>
      <trkpt lat="48.6318" lon="1.89773">
        <ele>174</ele>
        <time>2018-08-18T10:32:49Z</time>
      </trkpt>
      <trkpt lat="48.63191" lon="1.89745">
        <ele>174</ele>
        <time>2018-08-18T10:32:53Z</time>
      </trkpt>
      <trkpt lat="48.63204" lon="1.89721">
        <ele>175</ele>
        <time>2018-08-18T10:32:57Z</time>
      </trkpt>
      <trkpt lat="48.63218" lon="1.89704">
        <ele>177</ele>
        <time>2018-08-18T10:33:01Z</time>
      </trkpt>
      <trkpt lat="48.63232" lon="1.89686">
        <ele>177</ele>
        <time>2018-08-18T10:33:05Z</time>
      </trkpt>
      <trkpt lat="48.63247" lon="1.8966">
        <ele>175</ele>
        <time>2018-08-18T10:33:09Z</time>
      </trkpt>
      <trkpt lat="48.63257" lon="1.89637">
        <ele>170</ele>
        <time>2018-08-18T10:33:13Z</time>
      </trkpt>
      <trkpt lat="48.63268" lon="1.89618">
        <ele>166</ele>
        <time>2018-08-18T10:33:17Z</time>
      </trkpt>
      <trkpt lat="48.63278" lon="1.89588">
        <ele>162</ele>
        <time>2018-08-18T10:33:21Z</time>
      </trkpt>
      <trkpt lat="48.63288" lon="1.89563">
        <ele>158</ele>
        <time>2018-08-18T10:33:25Z</time>
      </trkpt>
      <trkpt lat="48.63298" lon="1.89535">
        <ele>157</ele>
        <time>2018-08-18T10:33:29Z</time>
      </trkpt>
      <trkpt lat="48.63311" lon="1.89513">
        <ele>155</ele>
        <time>2018-08-18T10:33:33Z</time>
      </trkpt>
      <trkpt lat="48.63321" lon="1.89482">
        <ele>154</ele>
        <time>2018-08-18T10:33:37Z</time>
      </trkpt>
      <trkpt lat="48.63329" lon="1.89451">
        <ele>154</ele>
        <time>2018-08-18T10:33:41Z</time>
      </trkpt>
      <trkpt lat="48.63336" lon="1.89415">
        <ele>157</ele>
        <time>2018-08-18T10:33:45Z</time>
      </trkpt>
      <trkpt lat="48.63334" lon="1.89373">
        <ele>161</ele>
        <time>2018-08-18T10:33:49Z</time>
      </trkpt>
      <trkpt lat="48.63341" lon="1.89348">
        <ele>165</ele>
        <time>2018-08-18T10:33:53Z</time>
      </trkpt>
      <trkpt lat="48.63353" lon="1.89321">
        <ele>168</ele>
        <time>2018-08-18T10:33:57Z</time>
      </trkpt>
      <trkpt lat="48.63365" lon="1.89297">
        <ele>171</ele>
        <time>2018-08-18T10:34:01Z</time>
      </trkpt>
      <trkpt lat="48.6338" lon="1.89278">
        <ele>173</ele>
        <time>2018-08-18T10:34:05Z</time>
      </trkpt>
      <trkpt lat="48.63393" lon="1.89261">
        <ele>173</ele>
        <time>2018-08-18T10:34:09Z</time>
      </trkpt>
      <trkpt lat="48.63403" lon="1.89237">
        <ele>173</ele>
        <time>2018-08-18T10:34:13Z</time>
      </trkpt>
      <trkpt lat="48.63413" lon="1.89216">
        <ele>173</ele>
        <time>2018-08-18T10:34:17Z</time>
      </trkpt>
      <trkpt lat="48.63427" lon="1.89195">
        <ele>173</ele>
        <time>2018-08-18T10:34:21Z</time>
      </trkpt>
      <trkpt lat="48.63437" lon="1.89177">
        <ele>172</ele>
        <time>2018-08-18T10:34:25Z</time>
      </trkpt>
      <trkpt lat="48.63449" lon="1.89156">
        <ele>169</ele>
        <time>2018-08-18T10:34:29Z</time>
      </trkpt>
      <trkpt lat="48.63459" lon="1.89129">
        <ele>166</ele>
        <time>2018-08-18T10:34:33Z</time>
      </trkpt>
      <trkpt lat="48.63469" lon="1.89105">
        <ele>165</ele>
        <time>2018-08-18T10:34:37Z</time>
      </trkpt>
      <trkpt lat="48.6348" lon="1.89081">
        <ele>163</ele>
        <time>2018-08-18T10:34:41Z</time>
      </trkpt>
      <trkpt lat="48.63492" lon="1.89056">
        <ele>163</ele>
        <time>2018-08-18T10:34:45Z</time>
      </trkpt>
      <trkpt lat="48.63504" lon="1.89032">
        <ele>163</ele>
        <time>2018-08-18T10:34:49Z</time>
      </trkpt>
      <trkpt lat="48.63515" lon="1.89004">
        <ele>163</ele>
        <time>2018-08-18T10:34:53Z</time>
      </trkpt>
      <trkpt lat="48.63523" lon="1.88977">
        <ele>163</ele>
        <time>2018-08-18T10:34:57Z</time>
      </trkpt>
      <trkpt lat="48.63534" lon="1.88954">
        <ele>164</ele>
        <time>2018-08-18T10:35:01Z</time>
      </trkpt>
      <trkpt lat="48.63546" lon="1.88933">
        <ele>164</ele>
        <time>2018-08-18T10:35:05Z</time>
      </trkpt>
      <trkpt lat="48.63556" lon="1.88912">
        <ele>165</ele>
        <time>2018-08-18T10:35:09Z</time>
      </trkpt>
      <trkpt lat="48.63572" lon="1.88884">
        <ele>165</ele>
        <time>2018-08-18T10:35:14Z</time>
      </trkpt>
      <trkpt lat="48.63582" lon="1.88858">
        <ele>166</ele>
        <time>2018-08-18T10:35:18Z</time>
      </trkpt>
      <trkpt lat="48.63593" lon="1.88832">
        <ele>168</ele>
        <time>2018-08-18T10:35:22Z</time>
      </trkpt>
      <trkpt lat="48.63604" lon="1.88809">
        <ele>168</ele>
        <time>2018-08-18T10:35:26Z</time>
      </trkpt>
      <trkpt lat="48.6362" lon="1.88783">
        <ele>168</ele>
        <time>2018-08-18T10:35:31Z</time>
      </trkpt>
      <trkpt lat="48.63631" lon="1.88762">
        <ele>168</ele>
        <time>2018-08-18T10:35:35Z</time>
      </trkpt>
      <trkpt lat="48.6364" lon="1.88739">
        <ele>168</ele>
        <time>2018-08-18T10:35:39Z</time>
      </trkpt>
      <trkpt lat="48.63649" lon="1.88714">
        <ele>168</ele>
        <time>2018-08-18T10:35:43Z</time>
      </trkpt>
      <trkpt lat="48.63658" lon="1.88689">
        <ele>168</ele>
        <time>2018-08-18T10:35:47Z</time>
      </trkpt>
      <trkpt lat="48.63667" lon="1.88668">
        <ele>168</ele>
        <time>2018-08-18T10:35:51Z</time>
      </trkpt>
      <trkpt lat="48.63675" lon="1.88639">
        <ele>168</ele>
        <time>2018-08-18T10:35:55Z</time>
      </trkpt>
      <trkpt lat="48.63678" lon="1.88605">
        <ele>168</ele>
        <time>2018-08-18T10:35:59Z</time>
      </trkpt>
      <trkpt lat="48.63683" lon="1.88572">
        <ele>168</ele>
        <time>2018-08-18T10:36:03Z</time>
      </trkpt>
      <trkpt lat="48.6369" lon="1.88542">
        <ele>169</ele>
        <time>2018-08-18T10:36:07Z</time>
      </trkpt>
      <trkpt lat="48.63699" lon="1.88516">
        <ele>170</ele>
        <time>2018-08-18T10:36:11Z</time>
      </trkpt>
      <trkpt lat="48.63707" lon="1.88489">
        <ele>170</ele>
        <time>2018-08-18T10:36:15Z</time>
      </trkpt>
      <trkpt lat="48.63715" lon="1.88463">
        <ele>170</ele>
        <time>2018-08-18T10:36:19Z</time>
      </trkpt>
      <trkpt lat="48.63722" lon="1.88436">
        <ele>170</ele>
        <time>2018-08-18T10:36:23Z</time>
      </trkpt>
      <trkpt lat="48.63732" lon="1.88411">
        <ele>170</ele>
        <time>2018-08-18T10:36:27Z</time>
      </trkpt>
      <trkpt lat="48.63739" lon="1.88386">
        <ele>170</ele>
        <time>2018-08-18T10:36:31Z</time>
      </trkpt>
      <trkpt lat="48.63746" lon="1.88362">
        <ele>170</ele>
        <time>2018-08-18T10:36:35Z</time>
      </trkpt>
      <trkpt lat="48.63753" lon="1.88339">
        <ele>170</ele>
        <time>2018-08-18T10:36:39Z</time>
      </trkpt>
      <trkpt lat="48.63758" lon="1.88315">
        <ele>170</ele>
        <time>2018-08-18T10:36:43Z</time>
      </trkpt>
      <trkpt lat="48.63765" lon="1.88296">
        <ele>170</ele>
        <time>2018-08-18T10:36:47Z</time>
      </trkpt>
      <trkpt lat="48.63771" lon="1.88283">
        <ele>170</ele>
        <time>2018-08-18T10:36:51Z</time>
      </trkpt>
      <trkpt lat="48.63773" lon="1.88273">
        <ele>170</ele>
        <time>2018-08-18T10:36:55Z</time>
      </trkpt>
      <trkpt lat="48.63776" lon="1.88264">
        <ele>170</ele>
        <time>2018-08-18T10:36:59Z</time>
      </trkpt>
      <trkpt lat="48.63779" lon="1.88254">
        <ele>170</ele>
        <time>2018-08-18T10:37:04Z</time>
      </trkpt>
      <trkpt lat="48.6378" lon="1.88247">
        <ele>170</ele>
        <time>2018-08-18T10:37:08Z</time>
      </trkpt>
      <trkpt lat="48.63784" lon="1.88241">
        <ele>170</ele>
        <time>2018-08-18T10:37:12Z</time>
      </trkpt>
      <trkpt lat="48.63787" lon="1.88235">
        <ele>170</ele>
        <time>2018-08-18T10:37:16Z</time>
      </trkpt>
      <trkpt lat="48.63789" lon="1.88225">
        <ele>170</ele>
        <time>2018-08-18T10:37:21Z</time>
      </trkpt>
      <trkpt lat="48.63791" lon="1.88217">
        <ele>170</ele>
        <time>2018-08-18T10:37:25Z</time>
      </trkpt>
      <trkpt lat="48.63793" lon="1.88207">
        <ele>170</ele>
        <time>2018-08-18T10:37:29Z</time>
      </trkpt>
      <trkpt lat="48.63794" lon="1.88196">
        <ele>170</ele>
        <time>2018-08-18T10:37:33Z</time>
      </trkpt>
      <trkpt lat="48.63797" lon="1.88188">
        <ele>170</ele>
        <time>2018-08-18T10:37:37Z</time>
      </trkpt>
      <trkpt lat="48.63799" lon="1.88175">
        <ele>170</ele>
        <time>2018-08-18T10:37:42Z</time>
      </trkpt>
      <trkpt lat="48.63801" lon="1.88166">
        <ele>170</ele>
        <time>2018-08-18T10:37:46Z</time>
      </trkpt>
      <trkpt lat="48.63804" lon="1.88157">
        <ele>170</ele>
        <time>2018-08-18T10:37:50Z</time>
      </trkpt>
      <trkpt lat="48.63807" lon="1.88146">
        <ele>170</ele>
        <time>2018-08-18T10:37:55Z</time>
      </trkpt>
      <trkpt lat="48.6381" lon="1.88134">
        <ele>170</ele>
        <time>2018-08-18T10:38:00Z</time>
      </trkpt>
      <trkpt lat="48.63812" lon="1.88126">
        <ele>170</ele>
        <time>2018-08-18T10:38:04Z</time>
      </trkpt>
      <trkpt lat="48.63815" lon="1.88117">
        <ele>170</ele>
        <time>2018-08-18T10:38:08Z</time>
      </trkpt>
      <trkpt lat="48.63819" lon="1.88108">
        <ele>170</ele>
        <time>2018-08-18T10:38:13Z</time>
      </trkpt>
      <trkpt lat="48.63821" lon="1.88099">
        <ele>170</ele>
        <time>2018-08-18T10:38:17Z</time>
      </trkpt>
      <trkpt lat="48.63823" lon="1.8809">
        <ele>170</ele>
        <time>2018-08-18T10:38:21Z</time>
      </trkpt>
      <trkpt lat="48.63828" lon="1.88079">
        <ele>170</ele>
        <time>2018-08-18T10:38:27Z</time>
      </trkpt>
      <trkpt lat="48.6383" lon="1.88068">
        <ele>170</ele>
        <time>2018-08-18T10:38:32Z</time>
      </trkpt>
      <trkpt lat="48.63833" lon="1.88058">
        <ele>169</ele>
        <time>2018-08-18T10:38:37Z</time>
      </trkpt>
      <trkpt lat="48.63837" lon="1.88051">
        <ele>168</ele>
        <time>2018-08-18T10:38:41Z</time>
      </trkpt>
      <trkpt lat="48.63839" lon="1.88041">
        <ele>168</ele>
        <time>2018-08-18T10:38:45Z</time>
      </trkpt>
      <trkpt lat="48.63843" lon="1.8803">
        <ele>168</ele>
        <time>2018-08-18T10:38:50Z</time>
      </trkpt>
      <trkpt lat="48.63846" lon="1.88021">
        <ele>168</ele>
        <time>2018-08-18T10:38:54Z</time>
      </trkpt>
      <trkpt lat="48.63849" lon="1.88009">
        <ele>168</ele>
        <time>2018-08-18T10:38:59Z</time>
      </trkpt>
      <trkpt lat="48.6385" lon="1.87998">
        <ele>168</ele>
        <time>2018-08-18T10:39:04Z</time>
      </trkpt>
      <trkpt lat="48.63852" lon="1.8799">
        <ele>168</ele>
        <time>2018-08-18T10:39:08Z</time>
      </trkpt>
      <trkpt lat="48.63855" lon="1.87983">
        <ele>168</ele>
        <time>2018-08-18T10:39:12Z</time>
      </trkpt>
      <trkpt lat="48.63858" lon="1.87975">
        <ele>168</ele>
        <time>2018-08-18T10:39:16Z</time>
      </trkpt>
      <trkpt lat="48.63858" lon="1.87967">
        <ele>168</ele>
        <time>2018-08-18T10:39:20Z</time>
      </trkpt>
      <trkpt lat="48.63862" lon="1.87958">
        <ele>168</ele>
        <time>2018-08-18T10:39:24Z</time>
      </trkpt>
      <trkpt lat="48.63864" lon="1.87949">
        <ele>168</ele>
        <time>2018-08-18T10:39:28Z</time>
      </trkpt>
      <trkpt lat="48.63868" lon="1.87942">
        <ele>168</ele>
        <time>2018-08-18T10:39:32Z</time>
      </trkpt>
      <trkpt lat="48.63871" lon="1.87934">
        <ele>168</ele>
        <time>2018-08-18T10:39:36Z</time>
      </trkpt>
      <trkpt lat="48.63874" lon="1.87924">
        <ele>168</ele>
        <time>2018-08-18T10:39:40Z</time>
      </trkpt>
      <trkpt lat="48.63878" lon="1.87916">
        <ele>168</ele>
        <time>2018-08-18T10:39:44Z</time>
      </trkpt>
      <trkpt lat="48.63881" lon="1.87908">
        <ele>168</ele>
        <time>2018-08-18T10:39:48Z</time>
      </trkpt>
      <trkpt lat="48.63886" lon="1.87899">
        <ele>168</ele>
        <time>2018-08-18T10:39:54Z</time>
      </trkpt>
      <trkpt lat="48.63891" lon="1.87891">
        <ele>168</ele>
        <time>2018-08-18T10:39:58Z</time>
      </trkpt>
      <trkpt lat="48.63894" lon="1.87881">
        <ele>168</ele>
        <time>2018-08-18T10:40:02Z</time>
      </trkpt>
      <trkpt lat="48.63897" lon="1.87873">
        <ele>168</ele>
        <time>2018-08-18T10:40:06Z</time>
      </trkpt>
      <trkpt lat="48.639" lon="1.87864">
        <ele>168</ele>
        <time>2018-08-18T10:40:10Z</time>
      </trkpt>
      <trkpt lat="48.63904" lon="1.87856">
        <ele>168</ele>
        <time>2018-08-18T10:40:14Z</time>
      </trkpt>
      <trkpt lat="48.63907" lon="1.87846">
        <ele>168</ele>
        <time>2018-08-18T10:40:19Z</time>
      </trkpt>
      <trkpt lat="48.6391" lon="1.87838">
        <ele>168</ele>
        <time>2018-08-18T10:40:23Z</time>
      </trkpt>
      <trkpt lat="48.63914" lon="1.87829">
        <ele>168</ele>
        <time>2018-08-18T10:40:28Z</time>
      </trkpt>
      <trkpt lat="48.63918" lon="1.87822">
        <ele>168</ele>
        <time>2018-08-18T10:40:32Z</time>
      </trkpt>
      <trkpt lat="48.63923" lon="1.87814">
        <ele>168</ele>
        <time>2018-08-18T10:40:36Z</time>
      </trkpt>
      <trkpt lat="48.63925" lon="1.87804">
        <ele>168</ele>
        <time>2018-08-18T10:40:40Z</time>
      </trkpt>
      <trkpt lat="48.63928" lon="1.87795">
        <ele>168</ele>
        <time>2018-08-18T10:40:44Z</time>
      </trkpt>
      <trkpt lat="48.63931" lon="1.87785">
        <ele>168</ele>
        <time>2018-08-18T10:40:48Z</time>
      </trkpt>
      <trkpt lat="48.63934" lon="1.87778">
        <ele>168</ele>
        <time>2018-08-18T10:40:52Z</time>
      </trkpt>
      <trkpt lat="48.63937" lon="1.87771">
        <ele>168</ele>
        <time>2018-08-18T10:40:56Z</time>
      </trkpt>
      <trkpt lat="48.63942" lon="1.87762">
        <ele>168</ele>
        <time>2018-08-18T10:41:01Z</time>
      </trkpt>
      <trkpt lat="48.63945" lon="1.87754">
        <ele>168</ele>
        <time>2018-08-18T10:41:05Z</time>
      </trkpt>
      <trkpt lat="48.63948" lon="1.87746">
        <ele>168</ele>
        <time>2018-08-18T10:41:09Z</time>
      </trkpt>
      <trkpt lat="48.63952" lon="1.87739">
        <ele>168</ele>
        <time>2018-08-18T10:41:13Z</time>
      </trkpt>
      <trkpt lat="48.63955" lon="1.87728">
        <ele>168</ele>
        <time>2018-08-18T10:41:18Z</time>
      </trkpt>
      <trkpt lat="48.63959" lon="1.87718">
        <ele>168</ele>
        <time>2018-08-18T10:41:25Z</time>
      </trkpt>
      <trkpt lat="48.63959" lon="1.87716">
        <ele>168</ele>
        <time>2018-08-18T10:41:36Z</time>
      </trkpt>
      <trkpt lat="48.6396" lon="1.87718">
        <ele>168</ele>
        <time>2018-08-18T10:41:49Z</time>
      </trkpt>
      <trkpt lat="48.63961" lon="1.87716">
        <ele>168</ele>
        <time>2018-08-18T10:41:54Z</time>
      </trkpt>
      <trkpt lat="48.63962" lon="1.87714">
        <ele>168</ele>
        <time>2018-08-18T10:42:03Z</time>
      </trkpt>
      <trkpt lat="48.63965" lon="1.87707">
        <ele>168</ele>
        <time>2018-08-18T10:42:07Z</time>
      </trkpt>
      <trkpt lat="48.63969" lon="1.87698">
        <ele>168</ele>
        <time>2018-08-18T10:42:12Z</time>
      </trkpt>
      <trkpt lat="48.63972" lon="1.87691">
        <ele>168</ele>
        <time>2018-08-18T10:42:16Z</time>
      </trkpt>
      <trkpt lat="48.63976" lon="1.87684">
        <ele>168</ele>
        <time>2018-08-18T10:42:20Z</time>
      </trkpt>
      <trkpt lat="48.63979" lon="1.87674">
        <ele>168</ele>
        <time>2018-08-18T10:42:24Z</time>
      </trkpt>
      <trkpt lat="48.63983" lon="1.87667">
        <ele>168</ele>
        <time>2018-08-18T10:42:28Z</time>
      </trkpt>
      <trkpt lat="48.63987" lon="1.87659">
        <ele>168</ele>
        <time>2018-08-18T10:42:32Z</time>
      </trkpt>
      <trkpt lat="48.6399" lon="1.8765">
        <ele>168</ele>
        <time>2018-08-18T10:42:36Z</time>
      </trkpt>
      <trkpt lat="48.63993" lon="1.87641">
        <ele>168</ele>
        <time>2018-08-18T10:42:40Z</time>
      </trkpt>
      <trkpt lat="48.63996" lon="1.87633">
        <ele>168</ele>
        <time>2018-08-18T10:42:44Z</time>
      </trkpt>
      <trkpt lat="48.64" lon="1.87626">
        <ele>168</ele>
        <time>2018-08-18T10:42:48Z</time>
      </trkpt>
      <trkpt lat="48.64004" lon="1.87619">
        <ele>168</ele>
        <time>2018-08-18T10:42:52Z</time>
      </trkpt>
      <trkpt lat="48.64007" lon="1.87611">
        <ele>168</ele>
        <time>2018-08-18T10:42:56Z</time>
      </trkpt>
      <trkpt lat="48.64011" lon="1.87604">
        <ele>168</ele>
        <time>2018-08-18T10:43:00Z</time>
      </trkpt>
      <trkpt lat="48.64014" lon="1.87596">
        <ele>168</ele>
        <time>2018-08-18T10:43:04Z</time>
      </trkpt>
      <trkpt lat="48.64019" lon="1.87588">
        <ele>168</ele>
        <time>2018-08-18T10:43:08Z</time>
      </trkpt>
      <trkpt lat="48.64022" lon="1.87581">
        <ele>168</ele>
        <time>2018-08-18T10:43:12Z</time>
      </trkpt>
      <trkpt lat="48.64025" lon="1.87573">
        <ele>168</ele>
        <time>2018-08-18T10:43:16Z</time>
      </trkpt>
      <trkpt lat="48.64029" lon="1.87567">
        <ele>168</ele>
        <time>2018-08-18T10:43:20Z</time>
      </trkpt>
      <trkpt lat="48.64032" lon="1.87558">
        <ele>168</ele>
        <time>2018-08-18T10:43:24Z</time>
      </trkpt>
      <trkpt lat="48.64034" lon="1.87548">
        <ele>168</ele>
        <time>2018-08-18T10:43:28Z</time>
      </trkpt>
      <trkpt lat="48.64037" lon="1.87541">
        <ele>168</ele>
        <time>2018-08-18T10:43:32Z</time>
      </trkpt>
      <trkpt lat="48.64042" lon="1.87533">
        <ele>168</ele>
        <time>2018-08-18T10:43:36Z</time>
      </trkpt>
      <trkpt lat="48.64044" lon="1.87523">
        <ele>168</ele>
        <time>2018-08-18T10:43:40Z</time>
      </trkpt>
      <trkpt lat="48.64045" lon="1.87512">
        <ele>168</ele>
        <time>2018-08-18T10:43:44Z</time>
      </trkpt>
      <trkpt lat="48.64049" lon="1.87505">
        <ele>168</ele>
        <time>2018-08-18T10:43:48Z</time>
      </trkpt>
      <trkpt lat="48.64053" lon="1.87498">
        <ele>168</ele>
        <time>2018-08-18T10:43:52Z</time>
      </trkpt>
      <trkpt lat="48.64056" lon="1.87491">
        <ele>168</ele>
        <time>2018-08-18T10:43:57Z</time>
      </trkpt>
      <trkpt lat="48.64061" lon="1.87485">
        <ele>168</ele>
        <time>2018-08-18T10:44:01Z</time>
      </trkpt>
      <trkpt lat="48.64064" lon="1.87476">
        <ele>168</ele>
        <time>2018-08-18T10:44:05Z</time>
      </trkpt>
      <trkpt lat="48.64068" lon="1.87469">
        <ele>168</ele>
        <time>2018-08-18T10:44:09Z</time>
      </trkpt>
      <trkpt lat="48.64072" lon="1.87461">
        <ele>168</ele>
        <time>2018-08-18T10:44:13Z</time>
      </trkpt>
      <trkpt lat="48.64077" lon="1.87454">
        <ele>168</ele>
        <time>2018-08-18T10:44:17Z</time>
      </trkpt>
      <trkpt lat="48.64081" lon="1.87448">
        <ele>168</ele>
        <time>2018-08-18T10:44:21Z</time>
      </trkpt>
      <trkpt lat="48.64084" lon="1.87439">
        <ele>168</ele>
        <time>2018-08-18T10:44:25Z</time>
      </trkpt>
      <trkpt lat="48.64087" lon="1.87431">
        <ele>168</ele>
        <time>2018-08-18T10:44:29Z</time>
      </trkpt>
      <trkpt lat="48.6409" lon="1.87423">
        <ele>168</ele>
        <time>2018-08-18T10:44:33Z</time>
      </trkpt>
      <trkpt lat="48.64094" lon="1.87417">
        <ele>168</ele>
        <time>2018-08-18T10:44:37Z</time>
      </trkpt>
      <trkpt lat="48.64098" lon="1.87409">
        <ele>168</ele>
        <time>2018-08-18T10:44:41Z</time>
      </trkpt>
      <trkpt lat="48.64101" lon="1.87405">
        <ele>168</ele>
        <time>2018-08-18T10:44:47Z</time>
      </trkpt>
      <trkpt lat="48.64102" lon="1.87397">
        <ele>168</ele>
        <time>2018-08-18T10:44:51Z</time>
      </trkpt>
      <trkpt lat="48.64106" lon="1.87388">
        <ele>168</ele>
        <time>2018-08-18T10:44:55Z</time>
      </trkpt>
      <trkpt lat="48.6411" lon="1.87378">
        <ele>168</ele>
        <time>2018-08-18T10:44:59Z</time>
      </trkpt>
      <trkpt lat="48.64114" lon="1.87368">
        <ele>168</ele>
        <time>2018-08-18T10:45:03Z</time>
      </trkpt>
      <trkpt lat="48.64117" lon="1.87359">
        <ele>168</ele>
        <time>2018-08-18T10:45:07Z</time>
      </trkpt>
      <trkpt lat="48.64121" lon="1.87352">
        <ele>168</ele>
        <time>2018-08-18T10:45:11Z</time>
      </trkpt>
      <trkpt lat="48.64125" lon="1.87344">
        <ele>168</ele>
        <time>2018-08-18T10:45:15Z</time>
      </trkpt>
      <trkpt lat="48.64129" lon="1.87335">
        <ele>168</ele>
        <time>2018-08-18T10:45:19Z</time>
      </trkpt>
      <trkpt lat="48.64132" lon="1.87327">
        <ele>168</ele>
        <time>2018-08-18T10:45:23Z</time>
      </trkpt>
      <trkpt lat="48.64134" lon="1.87317">
        <ele>167</ele>
        <time>2018-08-18T10:45:27Z</time>
      </trkpt>
      <trkpt lat="48.64138" lon="1.87308">
        <ele>167</ele>
        <time>2018-08-18T10:45:31Z</time>
      </trkpt>
      <trkpt lat="48.64142" lon="1.873">
        <ele>167</ele>
        <time>2018-08-18T10:45:35Z</time>
      </trkpt>
      <trkpt lat="48.64145" lon="1.87292">
        <ele>167</ele>
        <time>2018-08-18T10:45:39Z</time>
      </trkpt>
      <trkpt lat="48.64149" lon="1.87284">
        <ele>167</ele>
        <time>2018-08-18T10:45:43Z</time>
      </trkpt>
      <trkpt lat="48.64153" lon="1.87276">
        <ele>167</ele>
        <time>2018-08-18T10:45:47Z</time>
      </trkpt>
      <trkpt lat="48.64156" lon="1.87268">
        <ele>167</ele>
        <time>2018-08-18T10:45:51Z</time>
      </trkpt>
      <trkpt lat="48.6416" lon="1.87261">
        <ele>167</ele>
        <time>2018-08-18T10:45:55Z</time>
      </trkpt>
      <trkpt lat="48.64163" lon="1.87252">
        <ele>167</ele>
        <time>2018-08-18T10:45:59Z</time>
      </trkpt>
      <trkpt lat="48.64167" lon="1.87244">
        <ele>167</ele>
        <time>2018-08-18T10:46:03Z</time>
      </trkpt>
      <trkpt lat="48.64169" lon="1.87235">
        <ele>167</ele>
        <time>2018-08-18T10:46:07Z</time>
      </trkpt>
      <trkpt lat="48.64173" lon="1.87228">
        <ele>167</ele>
        <time>2018-08-18T10:46:11Z</time>
      </trkpt>
      <trkpt lat="48.64176" lon="1.8722">
        <ele>167</ele>
        <time>2018-08-18T10:46:15Z</time>
      </trkpt>
      <trkpt lat="48.64179" lon="1.87212">
        <ele>167</ele>
        <time>2018-08-18T10:46:19Z</time>
      </trkpt>
      <trkpt lat="48.64182" lon="1.87205">
        <ele>167</ele>
        <time>2018-08-18T10:46:23Z</time>
      </trkpt>
      <trkpt lat="48.64186" lon="1.87198">
        <ele>167</ele>
        <time>2018-08-18T10:46:27Z</time>
      </trkpt>
      <trkpt lat="48.6419" lon="1.87191">
        <ele>167</ele>
        <time>2018-08-18T10:46:31Z</time>
      </trkpt>
      <trkpt lat="48.64193" lon="1.87184">
        <ele>167</ele>
        <time>2018-08-18T10:46:35Z</time>
      </trkpt>
      <trkpt lat="48.64197" lon="1.87176">
        <ele>167</ele>
        <time>2018-08-18T10:46:39Z</time>
      </trkpt>
      <trkpt lat="48.642" lon="1.87168">
        <ele>167</ele>
        <time>2018-08-18T10:46:43Z</time>
      </trkpt>
      <trkpt lat="48.64204" lon="1.8716">
        <ele>167</ele>
        <time>2018-08-18T10:46:47Z</time>
      </trkpt>
      <trkpt lat="48.64208" lon="1.87152">
        <ele>167</ele>
        <time>2018-08-18T10:46:51Z</time>
      </trkpt>
      <trkpt lat="48.64212" lon="1.87145">
        <ele>167</ele>
        <time>2018-08-18T10:46:55Z</time>
      </trkpt>
      <trkpt lat="48.64216" lon="1.87136">
        <ele>167</ele>
        <time>2018-08-18T10:47:00Z</time>
      </trkpt>
      <trkpt lat="48.64219" lon="1.87128">
        <ele>167</ele>
        <time>2018-08-18T10:47:04Z</time>
      </trkpt>
      <trkpt lat="48.64221" lon="1.87121">
        <ele>167</ele>
        <time>2018-08-18T10:47:08Z</time>
      </trkpt>
      <trkpt lat="48.64224" lon="1.87113">
        <ele>167</ele>
        <time>2018-08-18T10:47:12Z</time>
      </trkpt>
      <trkpt lat="48.64225" lon="1.87103">
        <ele>167</ele>
        <time>2018-08-18T10:47:16Z</time>
      </trkpt>
      <trkpt lat="48.64228" lon="1.87095">
        <ele>167</ele>
        <time>2018-08-18T10:47:20Z</time>
      </trkpt>
      <trkpt lat="48.64232" lon="1.87086">
        <ele>167</ele>
        <time>2018-08-18T10:47:24Z</time>
      </trkpt>
      <trkpt lat="48.64235" lon="1.87079">
        <ele>167</ele>
        <time>2018-08-18T10:47:28Z</time>
      </trkpt>
      <trkpt lat="48.6424" lon="1.87071">
        <ele>167</ele>
        <time>2018-08-18T10:47:33Z</time>
      </trkpt>
      <trkpt lat="48.64245" lon="1.87064">
        <ele>167</ele>
        <time>2018-08-18T10:47:38Z</time>
      </trkpt>
      <trkpt lat="48.64249" lon="1.87056">
        <ele>167</ele>
        <time>2018-08-18T10:47:42Z</time>
      </trkpt>
      <trkpt lat="48.64251" lon="1.87047">
        <ele>167</ele>
        <time>2018-08-18T10:47:46Z</time>
      </trkpt>
      <trkpt lat="48.64254" lon="1.87039">
        <ele>167</ele>
        <time>2018-08-18T10:47:50Z</time>
      </trkpt>
      <trkpt lat="48.64258" lon="1.87025">
        <ele>167</ele>
        <time>2018-08-18T10:47:56Z</time>
      </trkpt>
      <trkpt lat="48.64262" lon="1.87015">
        <ele>167</ele>
        <time>2018-08-18T10:48:01Z</time>
      </trkpt>
      <trkpt lat="48.64267" lon="1.87004">
        <ele>167</ele>
        <time>2018-08-18T10:48:06Z</time>
      </trkpt>
      <trkpt lat="48.64271" lon="1.86995">
        <ele>167</ele>
        <time>2018-08-18T10:48:11Z</time>
      </trkpt>
      <trkpt lat="48.64274" lon="1.86986">
        <ele>167</ele>
        <time>2018-08-18T10:48:15Z</time>
      </trkpt>
      <trkpt lat="48.64278" lon="1.86976">
        <ele>167</ele>
        <time>2018-08-18T10:48:20Z</time>
      </trkpt>
      <trkpt lat="48.64282" lon="1.86969">
        <ele>167</ele>
        <time>2018-08-18T10:48:24Z</time>
      </trkpt>
      <trkpt lat="48.64285" lon="1.86959">
        <ele>167</ele>
        <time>2018-08-18T10:48:29Z</time>
      </trkpt>
      <trkpt lat="48.64288" lon="1.86951">
        <ele>167</ele>
        <time>2018-08-18T10:48:33Z</time>
      </trkpt>
      <trkpt lat="48.64292" lon="1.86944">
        <ele>167</ele>
        <time>2018-08-18T10:48:37Z</time>
      </trkpt>
      <trkpt lat="48.64295" lon="1.86936">
        <ele>167</ele>
        <time>2018-08-18T10:48:41Z</time>
      </trkpt>
      <trkpt lat="48.64299" lon="1.86929">
        <ele>167</ele>
        <time>2018-08-18T10:48:45Z</time>
      </trkpt>
      <trkpt lat="48.64302" lon="1.86922">
        <ele>167</ele>
        <time>2018-08-18T10:48:49Z</time>
      </trkpt>
      <trkpt lat="48.64305" lon="1.86914">
        <ele>167</ele>
        <time>2018-08-18T10:48:53Z</time>
      </trkpt>
      <trkpt lat="48.64309" lon="1.86907">
        <ele>167</ele>
        <time>2018-08-18T10:48:57Z</time>
      </trkpt>
      <trkpt lat="48.64313" lon="1.86899">
        <ele>167</ele>
        <time>2018-08-18T10:49:01Z</time>
      </trkpt>
      <trkpt lat="48.6432" lon="1.86893">
        <ele>167</ele>
        <time>2018-08-18T10:49:06Z</time>
      </trkpt>
      <trkpt lat="48.64325" lon="1.86888">
        <ele>167</ele>
        <time>2018-08-18T10:49:10Z</time>
      </trkpt>
      <trkpt lat="48.64331" lon="1.86887">
        <ele>167</ele>
        <time>2018-08-18T10:49:14Z</time>
      </trkpt>
      <trkpt lat="48.64336" lon="1.86889">
        <ele>166</ele>
        <time>2018-08-18T10:49:18Z</time>
      </trkpt>
      <trkpt lat="48.64344" lon="1.86895">
        <ele>166</ele>
        <time>2018-08-18T10:49:23Z</time>
      </trkpt>
      <trkpt lat="48.6435" lon="1.86901">
        <ele>165</ele>
        <time>2018-08-18T10:49:27Z</time>
      </trkpt>
      <trkpt lat="48.64356" lon="1.86907">
        <ele>165</ele>
        <time>2018-08-18T10:49:31Z</time>
      </trkpt>
      <trkpt lat="48.64361" lon="1.86912">
        <ele>165</ele>
        <time>2018-08-18T10:49:36Z</time>
      </trkpt>
      <trkpt lat="48.64362" lon="1.86914">
        <ele>165</ele>
        <time>2018-08-18T10:49:41Z</time>
      </trkpt>
      <trkpt lat="48.64366" lon="1.86915">
        <ele>165</ele>
        <time>2018-08-18T10:49:47Z</time>
      </trkpt>
      <trkpt lat="48.64366" lon="1.86913">
        <ele>165</ele>
        <time>2018-08-18T10:49:52Z</time>
      </trkpt>
      <trkpt lat="48.64366" lon="1.86915">
        <ele>165</ele>
        <time>2018-08-18T10:49:59Z</time>
      </trkpt>
      <trkpt lat="48.64368" lon="1.86919">
        <ele>165</ele>
        <time>2018-08-18T10:50:07Z</time>
      </trkpt>
      <trkpt lat="48.64369" lon="1.86921">
        <ele>165</ele>
        <time>2018-08-18T10:50:12Z</time>
      </trkpt>
      <trkpt lat="48.64373" lon="1.86927">
        <ele>165</ele>
        <time>2018-08-18T10:50:17Z</time>
      </trkpt>
      <trkpt lat="48.64378" lon="1.86932">
        <ele>165</ele>
        <time>2018-08-18T10:50:21Z</time>
      </trkpt>
      <trkpt lat="48.64383" lon="1.86938">
        <ele>165</ele>
        <time>2018-08-18T10:50:25Z</time>
      </trkpt>
      <trkpt lat="48.64391" lon="1.86944">
        <ele>165</ele>
        <time>2018-08-18T10:50:29Z</time>
      </trkpt>
      <trkpt lat="48.64397" lon="1.86951">
        <ele>165</ele>
        <time>2018-08-18T10:50:34Z</time>
      </trkpt>
      <trkpt lat="48.64401" lon="1.86957">
        <ele>165</ele>
        <time>2018-08-18T10:50:38Z</time>
      </trkpt>
      <trkpt lat="48.64405" lon="1.86964">
        <ele>165</ele>
        <time>2018-08-18T10:50:43Z</time>
      </trkpt>
      <trkpt lat="48.6441" lon="1.86969">
        <ele>165</ele>
        <time>2018-08-18T10:50:47Z</time>
      </trkpt>
      <trkpt lat="48.64417" lon="1.86976">
        <ele>165</ele>
        <time>2018-08-18T10:50:52Z</time>
      </trkpt>
      <trkpt lat="48.64423" lon="1.86984">
        <ele>165</ele>
        <time>2018-08-18T10:50:57Z</time>
      </trkpt>
      <trkpt lat="48.64428" lon="1.8699">
        <ele>165</ele>
        <time>2018-08-18T10:51:01Z</time>
      </trkpt>
      <trkpt lat="48.64434" lon="1.86997">
        <ele>165</ele>
        <time>2018-08-18T10:51:05Z</time>
      </trkpt>
      <trkpt lat="48.64441" lon="1.87004">
        <ele>165</ele>
        <time>2018-08-18T10:51:10Z</time>
      </trkpt>
      <trkpt lat="48.64446" lon="1.8701">
        <ele>165</ele>
        <time>2018-08-18T10:51:14Z</time>
      </trkpt>
      <trkpt lat="48.64451" lon="1.87016">
        <ele>164</ele>
        <time>2018-08-18T10:51:18Z</time>
      </trkpt>
      <trkpt lat="48.64457" lon="1.87022">
        <ele>164</ele>
        <time>2018-08-18T10:51:23Z</time>
      </trkpt>
      <trkpt lat="48.64463" lon="1.87028">
        <ele>164</ele>
        <time>2018-08-18T10:51:27Z</time>
      </trkpt>
      <trkpt lat="48.64468" lon="1.87034">
        <ele>164</ele>
        <time>2018-08-18T10:51:31Z</time>
      </trkpt>
      <trkpt lat="48.64475" lon="1.87041">
        <ele>163</ele>
        <time>2018-08-18T10:51:36Z</time>
      </trkpt>
      <trkpt lat="48.6448" lon="1.87047">
        <ele>162</ele>
        <time>2018-08-18T10:51:40Z</time>
      </trkpt>
      <trkpt lat="48.64485" lon="1.87053">
        <ele>162</ele>
        <time>2018-08-18T10:51:44Z</time>
      </trkpt>
      <trkpt lat="48.64491" lon="1.87059">
        <ele>162</ele>
        <time>2018-08-18T10:51:48Z</time>
      </trkpt>
      <trkpt lat="48.64496" lon="1.87065">
        <ele>162</ele>
        <time>2018-08-18T10:51:52Z</time>
      </trkpt>
      <trkpt lat="48.64502" lon="1.87072">
        <ele>161</ele>
        <time>2018-08-18T10:51:57Z</time>
      </trkpt>
      <trkpt lat="48.64507" lon="1.87077">
        <ele>161</ele>
        <time>2018-08-18T10:52:01Z</time>
      </trkpt>
      <trkpt lat="48.64512" lon="1.87083">
        <ele>161</ele>
        <time>2018-08-18T10:52:05Z</time>
      </trkpt>
      <trkpt lat="48.64517" lon="1.87088">
        <ele>161</ele>
        <time>2018-08-18T10:52:09Z</time>
      </trkpt>
      <trkpt lat="48.64521" lon="1.87094">
        <ele>161</ele>
        <time>2018-08-18T10:52:13Z</time>
      </trkpt>
      <trkpt lat="48.64528" lon="1.87101">
        <ele>161</ele>
        <time>2018-08-18T10:52:18Z</time>
      </trkpt>
      <trkpt lat="48.64534" lon="1.87107">
        <ele>161</ele>
        <time>2018-08-18T10:52:22Z</time>
      </trkpt>
      <trkpt lat="48.64538" lon="1.87112">
        <ele>161</ele>
        <time>2018-08-18T10:52:26Z</time>
      </trkpt>
      <trkpt lat="48.64543" lon="1.87118">
        <ele>161</ele>
        <time>2018-08-18T10:52:30Z</time>
      </trkpt>
      <trkpt lat="48.64548" lon="1.87124">
        <ele>161</ele>
        <time>2018-08-18T10:52:35Z</time>
      </trkpt>
      <trkpt lat="48.64553" lon="1.87129">
        <ele>161</ele>
        <time>2018-08-18T10:52:39Z</time>
      </trkpt>
      <trkpt lat="48.64558" lon="1.87135">
        <ele>161</ele>
        <time>2018-08-18T10:52:43Z</time>
      </trkpt>
      <trkpt lat="48.64563" lon="1.87141">
        <ele>161</ele>
        <time>2018-08-18T10:52:47Z</time>
      </trkpt>
      <trkpt lat="48.64568" lon="1.87146">
        <ele>161</ele>
        <time>2018-08-18T10:52:51Z</time>
      </trkpt>
      <trkpt lat="48.64573" lon="1.87151">
        <ele>161</ele>
        <time>2018-08-18T10:52:55Z</time>
      </trkpt>
      <trkpt lat="48.64578" lon="1.87157">
        <ele>161</ele>
        <time>2018-08-18T10:52:59Z</time>
      </trkpt>
      <trkpt lat="48.64583" lon="1.87164">
        <ele>161</ele>
        <time>2018-08-18T10:53:03Z</time>
      </trkpt>
      <trkpt lat="48.64589" lon="1.87171">
        <ele>161</ele>
        <time>2018-08-18T10:53:08Z</time>
      </trkpt>
      <trkpt lat="48.64594" lon="1.87176">
        <ele>161</ele>
        <time>2018-08-18T10:53:12Z</time>
      </trkpt>
      <trkpt lat="48.646" lon="1.87183">
        <ele>161</ele>
        <time>2018-08-18T10:53:17Z</time>
      </trkpt>
      <trkpt lat="48.64604" lon="1.87188">
        <ele>161</ele>
        <time>2018-08-18T10:53:21Z</time>
      </trkpt>
      <trkpt lat="48.64609" lon="1.87194">
        <ele>161</ele>
        <time>2018-08-18T10:53:25Z</time>
      </trkpt>
      <trkpt lat="48.64614" lon="1.87199">
        <ele>161</ele>
        <time>2018-08-18T10:53:29Z</time>
      </trkpt>
      <trkpt lat="48.64619" lon="1.87204">
        <ele>161</ele>
        <time>2018-08-18T10:53:33Z</time>
      </trkpt>
      <trkpt lat="48.64623" lon="1.8721">
        <ele>161</ele>
        <time>2018-08-18T10:53:37Z</time>
      </trkpt>
      <trkpt lat="48.64629" lon="1.87217">
        <ele>161</ele>
        <time>2018-08-18T10:53:42Z</time>
      </trkpt>
      <trkpt lat="48.64634" lon="1.87223">
        <ele>161</ele>
        <time>2018-08-18T10:53:46Z</time>
      </trkpt>
      <trkpt lat="48.6464" lon="1.87228">
        <ele>161</ele>
        <time>2018-08-18T10:53:50Z</time>
      </trkpt>
      <trkpt lat="48.64645" lon="1.87234">
        <ele>161</ele>
        <time>2018-08-18T10:53:54Z</time>
      </trkpt>
      <trkpt lat="48.6465" lon="1.8724">
        <ele>161</ele>
        <time>2018-08-18T10:53:59Z</time>
      </trkpt>
      <trkpt lat="48.64655" lon="1.87246">
        <ele>161</ele>
        <time>2018-08-18T10:54:03Z</time>
      </trkpt>
      <trkpt lat="48.64659" lon="1.87251">
        <ele>161</ele>
        <time>2018-08-18T10:54:07Z</time>
      </trkpt>
      <trkpt lat="48.64662" lon="1.87254">
        <ele>161</ele>
        <time>2018-08-18T10:54:12Z</time>
      </trkpt>
      <trkpt lat="48.64668" lon="1.87259">
        <ele>161</ele>
        <time>2018-08-18T10:54:16Z</time>
      </trkpt>
      <trkpt lat="48.64674" lon="1.87266">
        <ele>161</ele>
        <time>2018-08-18T10:54:21Z</time>
      </trkpt>
      <trkpt lat="48.64679" lon="1.87271">
        <ele>161</ele>
        <time>2018-08-18T10:54:25Z</time>
      </trkpt>
      <trkpt lat="48.64684" lon="1.87278">
        <ele>161</ele>
        <time>2018-08-18T10:54:29Z</time>
      </trkpt>
      <trkpt lat="48.64689" lon="1.87284">
        <ele>161</ele>
        <time>2018-08-18T10:54:33Z</time>
      </trkpt>
      <trkpt lat="48.64695" lon="1.87289">
        <ele>161</ele>
        <time>2018-08-18T10:54:37Z</time>
      </trkpt>
      <trkpt lat="48.64699" lon="1.87295">
        <ele>161</ele>
        <time>2018-08-18T10:54:41Z</time>
      </trkpt>
      <trkpt lat="48.64704" lon="1.873">
        <ele>161</ele>
        <time>2018-08-18T10:54:45Z</time>
      </trkpt>
      <trkpt lat="48.64708" lon="1.87307">
        <ele>161</ele>
        <time>2018-08-18T10:54:49Z</time>
      </trkpt>
      <trkpt lat="48.64715" lon="1.87312">
        <ele>161</ele>
        <time>2018-08-18T10:54:53Z</time>
      </trkpt>
      <trkpt lat="48.64721" lon="1.8732">
        <ele>161</ele>
        <time>2018-08-18T10:54:58Z</time>
      </trkpt>
      <trkpt lat="48.64726" lon="1.87326">
        <ele>161</ele>
        <time>2018-08-18T10:55:02Z</time>
      </trkpt>
      <trkpt lat="48.64731" lon="1.87331">
        <ele>161</ele>
        <time>2018-08-18T10:55:06Z</time>
      </trkpt>
      <trkpt lat="48.64737" lon="1.87337">
        <ele>161</ele>
        <time>2018-08-18T10:55:11Z</time>
      </trkpt>
      <trkpt lat="48.64742" lon="1.87343">
        <ele>161</ele>
        <time>2018-08-18T10:55:15Z</time>
      </trkpt>
      <trkpt lat="48.64747" lon="1.87348">
        <ele>161</ele>
        <time>2018-08-18T10:55:19Z</time>
      </trkpt>
      <trkpt lat="48.64752" lon="1.87353">
        <ele>161</ele>
        <time>2018-08-18T10:55:23Z</time>
      </trkpt>
      <trkpt lat="48.64758" lon="1.87359">
        <ele>161</ele>
        <time>2018-08-18T10:55:27Z</time>
      </trkpt>
      <trkpt lat="48.64762" lon="1.87364">
        <ele>161</ele>
        <time>2018-08-18T10:55:31Z</time>
      </trkpt>
      <trkpt lat="48.64766" lon="1.8737">
        <ele>161</ele>
        <time>2018-08-18T10:55:35Z</time>
      </trkpt>
      <trkpt lat="48.64773" lon="1.87378">
        <ele>161</ele>
        <time>2018-08-18T10:55:40Z</time>
      </trkpt>
      <trkpt lat="48.6478" lon="1.87385">
        <ele>161</ele>
        <time>2018-08-18T10:55:45Z</time>
      </trkpt>
      <trkpt lat="48.64784" lon="1.87389">
        <ele>161</ele>
        <time>2018-08-18T10:55:49Z</time>
      </trkpt>
      <trkpt lat="48.64791" lon="1.87398">
        <ele>161</ele>
        <time>2018-08-18T10:55:54Z</time>
      </trkpt>
      <trkpt lat="48.64796" lon="1.87405">
        <ele>161</ele>
        <time>2018-08-18T10:55:59Z</time>
      </trkpt>
      <trkpt lat="48.64803" lon="1.87411">
        <ele>161</ele>
        <time>2018-08-18T10:56:03Z</time>
      </trkpt>
      <trkpt lat="48.64808" lon="1.87417">
        <ele>161</ele>
        <time>2018-08-18T10:56:07Z</time>
      </trkpt>
      <trkpt lat="48.64814" lon="1.87426">
        <ele>161</ele>
        <time>2018-08-18T10:56:13Z</time>
      </trkpt>
      <trkpt lat="48.64817" lon="1.87431">
        <ele>161</ele>
        <time>2018-08-18T10:56:17Z</time>
      </trkpt>
      <trkpt lat="48.64824" lon="1.87438">
        <ele>161</ele>
        <time>2018-08-18T10:56:22Z</time>
      </trkpt>
      <trkpt lat="48.64829" lon="1.87444">
        <ele>161</ele>
        <time>2018-08-18T10:56:26Z</time>
      </trkpt>
      <trkpt lat="48.64835" lon="1.87449">
        <ele>161</ele>
        <time>2018-08-18T10:56:30Z</time>
      </trkpt>
      <trkpt lat="48.64843" lon="1.87457">
        <ele>161</ele>
        <time>2018-08-18T10:56:35Z</time>
      </trkpt>
      <trkpt lat="48.64851" lon="1.87467">
        <ele>164</ele>
        <time>2018-08-18T10:56:40Z</time>
      </trkpt>
      <trkpt lat="48.64857" lon="1.87473">
        <ele>164</ele>
        <time>2018-08-18T10:56:46Z</time>
      </trkpt>
      <trkpt lat="48.64863" lon="1.8748">
        <ele>164</ele>
        <time>2018-08-18T10:56:51Z</time>
      </trkpt>
      <trkpt lat="48.64868" lon="1.87486">
        <ele>164</ele>
        <time>2018-08-18T10:56:56Z</time>
      </trkpt>
      <trkpt lat="48.64874" lon="1.87495">
        <ele>163</ele>
        <time>2018-08-18T10:57:02Z</time>
      </trkpt>
      <trkpt lat="48.64879" lon="1.875">
        <ele>163</ele>
        <time>2018-08-18T10:57:06Z</time>
      </trkpt>
      <trkpt lat="48.64885" lon="1.87508">
        <ele>163</ele>
        <time>2018-08-18T10:57:11Z</time>
      </trkpt>
      <trkpt lat="48.6489" lon="1.87514">
        <ele>162</ele>
        <time>2018-08-18T10:57:15Z</time>
      </trkpt>
      <trkpt lat="48.64895" lon="1.87519">
        <ele>161</ele>
        <time>2018-08-18T10:57:19Z</time>
      </trkpt>
      <trkpt lat="48.649" lon="1.87524">
        <ele>161</ele>
        <time>2018-08-18T10:57:23Z</time>
      </trkpt>
      <trkpt lat="48.64906" lon="1.87529">
        <ele>161</ele>
        <time>2018-08-18T10:57:28Z</time>
      </trkpt>
      <trkpt lat="48.64913" lon="1.87535">
        <ele>161</ele>
        <time>2018-08-18T10:57:33Z</time>
      </trkpt>
      <trkpt lat="48.64919" lon="1.87542">
        <ele>161</ele>
        <time>2018-08-18T10:57:38Z</time>
      </trkpt>
      <trkpt lat="48.64926" lon="1.87549">
        <ele>161</ele>
        <time>2018-08-18T10:57:43Z</time>
      </trkpt>
      <trkpt lat="48.64932" lon="1.87557">
        <ele>161</ele>
        <time>2018-08-18T10:57:48Z</time>
      </trkpt>
      <trkpt lat="48.6494" lon="1.87565">
        <ele>161</ele>
        <time>2018-08-18T10:57:53Z</time>
      </trkpt>
      <trkpt lat="48.64948" lon="1.87573">
        <ele>161</ele>
        <time>2018-08-18T10:57:58Z</time>
      </trkpt>
      <trkpt lat="48.64956" lon="1.87581">
        <ele>161</ele>
        <time>2018-08-18T10:58:03Z</time>
      </trkpt>
      <trkpt lat="48.64958" lon="1.87592">
        <ele>163</ele>
        <time>2018-08-18T10:58:08Z</time>
      </trkpt>
      <trkpt lat="48.64959" lon="1.87604">
        <ele>163</ele>
        <time>2018-08-18T10:58:13Z</time>
      </trkpt>
      <trkpt lat="48.64957" lon="1.87616">
        <ele>163</ele>
        <time>2018-08-18T10:58:18Z</time>
      </trkpt>
      <trkpt lat="48.64955" lon="1.87628">
        <ele>163</ele>
        <time>2018-08-18T10:58:23Z</time>
      </trkpt>
      <trkpt lat="48.64953" lon="1.87639">
        <ele>163</ele>
        <time>2018-08-18T10:58:28Z</time>
      </trkpt>
      <trkpt lat="48.64949" lon="1.87649">
        <ele>163</ele>
        <time>2018-08-18T10:58:33Z</time>
      </trkpt>
      <trkpt lat="48.64948" lon="1.8766">
        <ele>163</ele>
        <time>2018-08-18T10:58:38Z</time>
      </trkpt>
      <trkpt lat="48.64945" lon="1.87671">
        <ele>163</ele>
        <time>2018-08-18T10:58:43Z</time>
      </trkpt>
      <trkpt lat="48.64943" lon="1.87682">
        <ele>163</ele>
        <time>2018-08-18T10:58:48Z</time>
      </trkpt>
      <trkpt lat="48.64942" lon="1.87692">
        <ele>163</ele>
        <time>2018-08-18T10:58:53Z</time>
      </trkpt>
      <trkpt lat="48.6494" lon="1.87704">
        <ele>163</ele>
        <time>2018-08-18T10:58:58Z</time>
      </trkpt>
      <trkpt lat="48.64938" lon="1.87717">
        <ele>163</ele>
        <time>2018-08-18T10:59:03Z</time>
      </trkpt>
      <trkpt lat="48.64936" lon="1.87729">
        <ele>163</ele>
        <time>2018-08-18T10:59:08Z</time>
      </trkpt>
      <trkpt lat="48.64935" lon="1.8774">
        <ele>163</ele>
        <time>2018-08-18T10:59:13Z</time>
      </trkpt>
      <trkpt lat="48.64935" lon="1.87752">
        <ele>163</ele>
        <time>2018-08-18T10:59:18Z</time>
      </trkpt>
      <trkpt lat="48.64936" lon="1.87764">
        <ele>163</ele>
        <time>2018-08-18T10:59:23Z</time>
      </trkpt>
      <trkpt lat="48.64941" lon="1.87775">
        <ele>163</ele>
        <time>2018-08-18T10:59:29Z</time>
      </trkpt>
      <trkpt lat="48.64945" lon="1.87779">
        <ele>163</ele>
        <time>2018-08-18T10:59:35Z</time>
      </trkpt>
      <trkpt lat="48.64951" lon="1.87783">
        <ele>163</ele>
        <time>2018-08-18T10:59:39Z</time>
      </trkpt>
      <trkpt lat="48.64957" lon="1.87789">
        <ele>163</ele>
        <time>2018-08-18T10:59:43Z</time>
      </trkpt>
      <trkpt lat="48.64962" lon="1.87793">
        <ele>163</ele>
        <time>2018-08-18T10:59:47Z</time>
      </trkpt>
      <trkpt lat="48.64969" lon="1.87796">
        <ele>163</ele>
        <time>2018-08-18T10:59:51Z</time>
      </trkpt>
      <trkpt lat="48.64977" lon="1.878">
        <ele>163</ele>
        <time>2018-08-18T10:59:55Z</time>
      </trkpt>
      <trkpt lat="48.64984" lon="1.87803">
        <ele>163</ele>
        <time>2018-08-18T11:00:00Z</time>
      </trkpt>
      <trkpt lat="48.64991" lon="1.8781">
        <ele>163</ele>
        <time>2018-08-18T11:00:05Z</time>
      </trkpt>
      <trkpt lat="48.64999" lon="1.87817">
        <ele>162</ele>
        <time>2018-08-18T11:00:11Z</time>
      </trkpt>
      <trkpt lat="48.65006" lon="1.87821">
        <ele>162</ele>
        <time>2018-08-18T11:00:16Z</time>
      </trkpt>
      <trkpt lat="48.65015" lon="1.87827">
        <ele>162</ele>
        <time>2018-08-18T11:00:21Z</time>
      </trkpt>
      <trkpt lat="48.65021" lon="1.87833">
        <ele>162</ele>
        <time>2018-08-18T11:00:26Z</time>
      </trkpt>
      <trkpt lat="48.65026" lon="1.87837">
        <ele>162</ele>
        <time>2018-08-18T11:00:30Z</time>
      </trkpt>
      <trkpt lat="48.65032" lon="1.87843">
        <ele>160</ele>
        <time>2018-08-18T11:00:34Z</time>
      </trkpt>
      <trkpt lat="48.65036" lon="1.87847">
        <ele>159</ele>
        <time>2018-08-18T11:00:38Z</time>
      </trkpt>
      <trkpt lat="48.65043" lon="1.87852">
        <ele>158</ele>
        <time>2018-08-18T11:00:43Z</time>
      </trkpt>
      <trkpt lat="48.65049" lon="1.87856">
        <ele>157</ele>
        <time>2018-08-18T11:00:47Z</time>
      </trkpt>
      <trkpt lat="48.65054" lon="1.87861">
        <ele>157</ele>
        <time>2018-08-18T11:00:52Z</time>
      </trkpt>
      <trkpt lat="48.6506" lon="1.87866">
        <ele>157</ele>
        <time>2018-08-18T11:00:57Z</time>
      </trkpt>
      <trkpt lat="48.65065" lon="1.87867">
        <ele>157</ele>
        <time>2018-08-18T11:01:01Z</time>
      </trkpt>
      <trkpt lat="48.65072" lon="1.8787">
        <ele>157</ele>
        <time>2018-08-18T11:01:05Z</time>
      </trkpt>
      <trkpt lat="48.65078" lon="1.87871">
        <ele>157</ele>
        <time>2018-08-18T11:01:09Z</time>
      </trkpt>
      <trkpt lat="48.65086" lon="1.87875">
        <ele>157</ele>
        <time>2018-08-18T11:01:13Z</time>
      </trkpt>
      <trkpt lat="48.65091" lon="1.87877">
        <ele>156</ele>
        <time>2018-08-18T11:01:17Z</time>
      </trkpt>
      <trkpt lat="48.65096" lon="1.87879">
        <ele>155</ele>
        <time>2018-08-18T11:01:21Z</time>
      </trkpt>
      <trkpt lat="48.65102" lon="1.87881">
        <ele>155</ele>
        <time>2018-08-18T11:01:25Z</time>
      </trkpt>
      <trkpt lat="48.6511" lon="1.87882">
        <ele>155</ele>
        <time>2018-08-18T11:01:29Z</time>
      </trkpt>
      <trkpt lat="48.65117" lon="1.87884">
        <ele>155</ele>
        <time>2018-08-18T11:01:33Z</time>
      </trkpt>
      <trkpt lat="48.65124" lon="1.87889">
        <ele>155</ele>
        <time>2018-08-18T11:01:38Z</time>
      </trkpt>
      <trkpt lat="48.65128" lon="1.87891">
        <ele>155</ele>
        <time>2018-08-18T11:01:43Z</time>
      </trkpt>
      <trkpt lat="48.65134" lon="1.87893">
        <ele>155</ele>
        <time>2018-08-18T11:01:47Z</time>
      </trkpt>
      <trkpt lat="48.65141" lon="1.87894">
        <ele>155</ele>
        <time>2018-08-18T11:01:51Z</time>
      </trkpt>
      <trkpt lat="48.65149" lon="1.87895">
        <ele>155</ele>
        <time>2018-08-18T11:01:55Z</time>
      </trkpt>
      <trkpt lat="48.65154" lon="1.87897">
        <ele>155</ele>
        <time>2018-08-18T11:01:59Z</time>
      </trkpt>
      <trkpt lat="48.6516" lon="1.879">
        <ele>155</ele>
        <time>2018-08-18T11:02:03Z</time>
      </trkpt>
      <trkpt lat="48.65167" lon="1.87902">
        <ele>155</ele>
        <time>2018-08-18T11:02:07Z</time>
      </trkpt>
      <trkpt lat="48.65173" lon="1.87903">
        <ele>155</ele>
        <time>2018-08-18T11:02:11Z</time>
      </trkpt>
      <trkpt lat="48.65179" lon="1.87904">
        <ele>155</ele>
        <time>2018-08-18T11:02:15Z</time>
      </trkpt>
      <trkpt lat="48.65184" lon="1.87907">
        <ele>155</ele>
        <time>2018-08-18T11:02:20Z</time>
      </trkpt>
      <trkpt lat="48.65189" lon="1.87908">
        <ele>155</ele>
        <time>2018-08-18T11:02:24Z</time>
      </trkpt>
      <trkpt lat="48.65196" lon="1.8791">
        <ele>155</ele>
        <time>2018-08-18T11:02:28Z</time>
      </trkpt>
      <trkpt lat="48.65204" lon="1.87913">
        <ele>155</ele>
        <time>2018-08-18T11:02:32Z</time>
      </trkpt>
      <trkpt lat="48.6521" lon="1.87914">
        <ele>155</ele>
        <time>2018-08-18T11:02:36Z</time>
      </trkpt>
      <trkpt lat="48.65215" lon="1.87915">
        <ele>155</ele>
        <time>2018-08-18T11:02:40Z</time>
      </trkpt>
      <trkpt lat="48.6522" lon="1.87918">
        <ele>155</ele>
        <time>2018-08-18T11:02:44Z</time>
      </trkpt>
      <trkpt lat="48.65225" lon="1.87919">
        <ele>155</ele>
        <time>2018-08-18T11:02:48Z</time>
      </trkpt>
      <trkpt lat="48.6523" lon="1.8792">
        <ele>155</ele>
        <time>2018-08-18T11:02:52Z</time>
      </trkpt>
      <trkpt lat="48.65236" lon="1.87923">
        <ele>155</ele>
        <time>2018-08-18T11:02:57Z</time>
      </trkpt>
      <trkpt lat="48.65242" lon="1.87924">
        <ele>155</ele>
        <time>2018-08-18T11:03:01Z</time>
      </trkpt>
      <trkpt lat="48.65247" lon="1.87924">
        <ele>155</ele>
        <time>2018-08-18T11:03:05Z</time>
      </trkpt>
      <trkpt lat="48.65252" lon="1.87925">
        <ele>155</ele>
        <time>2018-08-18T11:03:09Z</time>
      </trkpt>
      <trkpt lat="48.65259" lon="1.87928">
        <ele>155</ele>
        <time>2018-08-18T11:03:14Z</time>
      </trkpt>
      <trkpt lat="48.65262" lon="1.87933">
        <ele>156</ele>
        <time>2018-08-18T11:03:19Z</time>
      </trkpt>
      <trkpt lat="48.65266" lon="1.87938">
        <ele>157</ele>
        <time>2018-08-18T11:03:23Z</time>
      </trkpt>
      <trkpt lat="48.65274" lon="1.87943">
        <ele>158</ele>
        <time>2018-08-18T11:03:27Z</time>
      </trkpt>
      <trkpt lat="48.65279" lon="1.87948">
        <ele>158</ele>
        <time>2018-08-18T11:03:31Z</time>
      </trkpt>
      <trkpt lat="48.65283" lon="1.87954">
        <ele>158</ele>
        <time>2018-08-18T11:03:36Z</time>
      </trkpt>
      <trkpt lat="48.65289" lon="1.87959">
        <ele>158</ele>
        <time>2018-08-18T11:03:40Z</time>
      </trkpt>
      <trkpt lat="48.65294" lon="1.87963">
        <ele>158</ele>
        <time>2018-08-18T11:03:44Z</time>
      </trkpt>
      <trkpt lat="48.65299" lon="1.87968">
        <ele>158</ele>
        <time>2018-08-18T11:03:48Z</time>
      </trkpt>
      <trkpt lat="48.65302" lon="1.87973">
        <ele>158</ele>
        <time>2018-08-18T11:03:52Z</time>
      </trkpt>
      <trkpt lat="48.65306" lon="1.87979">
        <ele>158</ele>
        <time>2018-08-18T11:03:56Z</time>
      </trkpt>
      <trkpt lat="48.65311" lon="1.87984">
        <ele>158</ele>
        <time>2018-08-18T11:04:00Z</time>
      </trkpt>
      <trkpt lat="48.65316" lon="1.87992">
        <ele>158</ele>
        <time>2018-08-18T11:04:05Z</time>
      </trkpt>
      <trkpt lat="48.6532" lon="1.88">
        <ele>158</ele>
        <time>2018-08-18T11:04:10Z</time>
      </trkpt>
      <trkpt lat="48.65323" lon="1.88001">
        <ele>158</ele>
        <time>2018-08-18T11:04:14Z</time>
      </trkpt>
      <trkpt lat="48.65327" lon="1.88003">
        <ele>158</ele>
        <time>2018-08-18T11:04:20Z</time>
      </trkpt>
      <trkpt lat="48.65331" lon="1.88006">
        <ele>158</ele>
        <time>2018-08-18T11:04:24Z</time>
      </trkpt>
      <trkpt lat="48.65333" lon="1.88012">
        <ele>158</ele>
        <time>2018-08-18T11:04:28Z</time>
      </trkpt>
      <trkpt lat="48.65337" lon="1.88014">
        <ele>158</ele>
        <time>2018-08-18T11:04:32Z</time>
      </trkpt>
      <trkpt lat="48.65342" lon="1.88017">
        <ele>158</ele>
        <time>2018-08-18T11:04:37Z</time>
      </trkpt>
      <trkpt lat="48.65348" lon="1.88022">
        <ele>158</ele>
        <time>2018-08-18T11:04:41Z</time>
      </trkpt>
      <trkpt lat="48.65353" lon="1.8803">
        <ele>158</ele>
        <time>2018-08-18T11:04:46Z</time>
      </trkpt>
      <trkpt lat="48.65358" lon="1.88035">
        <ele>158</ele>
        <time>2018-08-18T11:04:50Z</time>
      </trkpt>
      <trkpt lat="48.65363" lon="1.88041">
        <ele>158</ele>
        <time>2018-08-18T11:04:54Z</time>
      </trkpt>
      <trkpt lat="48.6537" lon="1.88047">
        <ele>158</ele>
        <time>2018-08-18T11:04:58Z</time>
      </trkpt>
      <trkpt lat="48.65374" lon="1.88053">
        <ele>158</ele>
        <time>2018-08-18T11:05:03Z</time>
      </trkpt>
      <trkpt lat="48.6538" lon="1.88058">
        <ele>158</ele>
        <time>2018-08-18T11:05:07Z</time>
      </trkpt>
      <trkpt lat="48.65384" lon="1.88063">
        <ele>158</ele>
        <time>2018-08-18T11:05:11Z</time>
      </trkpt>
      <trkpt lat="48.65389" lon="1.88069">
        <ele>158</ele>
        <time>2018-08-18T11:05:15Z</time>
      </trkpt>
      <trkpt lat="48.65393" lon="1.88075">
        <ele>158</ele>
        <time>2018-08-18T11:05:19Z</time>
      </trkpt>
      <trkpt lat="48.654" lon="1.88082">
        <ele>158</ele>
        <time>2018-08-18T11:05:23Z</time>
      </trkpt>
      <trkpt lat="48.65405" lon="1.88089">
        <ele>158</ele>
        <time>2018-08-18T11:05:27Z</time>
      </trkpt>
      <trkpt lat="48.6541" lon="1.88097">
        <ele>158</ele>
        <time>2018-08-18T11:05:32Z</time>
      </trkpt>
      <trkpt lat="48.65414" lon="1.88105">
        <ele>158</ele>
        <time>2018-08-18T11:05:36Z</time>
      </trkpt>
      <trkpt lat="48.65418" lon="1.88112">
        <ele>158</ele>
        <time>2018-08-18T11:05:40Z</time>
      </trkpt>
      <trkpt lat="48.65421" lon="1.88123">
        <ele>158</ele>
        <time>2018-08-18T11:05:45Z</time>
      </trkpt>
      <trkpt lat="48.65424" lon="1.88134">
        <ele>158</ele>
        <time>2018-08-18T11:05:50Z</time>
      </trkpt>
      <trkpt lat="48.65424" lon="1.88145">
        <ele>158</ele>
        <time>2018-08-18T11:05:55Z</time>
      </trkpt>
      <trkpt lat="48.65427" lon="1.88154">
        <ele>158</ele>
        <time>2018-08-18T11:05:59Z</time>
      </trkpt>
      <trkpt lat="48.65427" lon="1.88164">
        <ele>159</ele>
        <time>2018-08-18T11:06:03Z</time>
      </trkpt>
      <trkpt lat="48.65426" lon="1.88172">
        <ele>159</ele>
        <time>2018-08-18T11:06:07Z</time>
      </trkpt>
      <trkpt lat="48.65426" lon="1.88181">
        <ele>159</ele>
        <time>2018-08-18T11:06:11Z</time>
      </trkpt>
      <trkpt lat="48.65425" lon="1.88191">
        <ele>159</ele>
        <time>2018-08-18T11:06:15Z</time>
      </trkpt>
      <trkpt lat="48.65422" lon="1.882">
        <ele>159</ele>
        <time>2018-08-18T11:06:20Z</time>
      </trkpt>
      <trkpt lat="48.65421" lon="1.88212">
        <ele>159</ele>
        <time>2018-08-18T11:06:25Z</time>
      </trkpt>
      <trkpt lat="48.65424" lon="1.88221">
        <ele>159</ele>
        <time>2018-08-18T11:06:29Z</time>
      </trkpt>
      <trkpt lat="48.65424" lon="1.88231">
        <ele>159</ele>
        <time>2018-08-18T11:06:34Z</time>
      </trkpt>
      <trkpt lat="48.65426" lon="1.8824">
        <ele>158</ele>
        <time>2018-08-18T11:06:38Z</time>
      </trkpt>
      <trkpt lat="48.65426" lon="1.8825">
        <ele>158</ele>
        <time>2018-08-18T11:06:42Z</time>
      </trkpt>
      <trkpt lat="48.65427" lon="1.88258">
        <ele>158</ele>
        <time>2018-08-18T11:06:46Z</time>
      </trkpt>
      <trkpt lat="48.65427" lon="1.88268">
        <ele>158</ele>
        <time>2018-08-18T11:06:50Z</time>
      </trkpt>
      <trkpt lat="48.65427" lon="1.88278">
        <ele>158</ele>
        <time>2018-08-18T11:06:54Z</time>
      </trkpt>
      <trkpt lat="48.65427" lon="1.88288">
        <ele>158</ele>
        <time>2018-08-18T11:06:58Z</time>
      </trkpt>
      <trkpt lat="48.65427" lon="1.88297">
        <ele>158</ele>
        <time>2018-08-18T11:07:02Z</time>
      </trkpt>
      <trkpt lat="48.65426" lon="1.88307">
        <ele>158</ele>
        <time>2018-08-18T11:07:06Z</time>
      </trkpt>
      <trkpt lat="48.65426" lon="1.88317">
        <ele>158</ele>
        <time>2018-08-18T11:07:10Z</time>
      </trkpt>
      <trkpt lat="48.65426" lon="1.88326">
        <ele>158</ele>
        <time>2018-08-18T11:07:14Z</time>
      </trkpt>
      <trkpt lat="48.65426" lon="1.88336">
        <ele>158</ele>
        <time>2018-08-18T11:07:18Z</time>
      </trkpt>
      <trkpt lat="48.65426" lon="1.88346">
        <ele>159</ele>
        <time>2018-08-18T11:07:22Z</time>
      </trkpt>
      <trkpt lat="48.65426" lon="1.88356">
        <ele>159</ele>
        <time>2018-08-18T11:07:26Z</time>
      </trkpt>
      <trkpt lat="48.65426" lon="1.88368">
        <ele>159</ele>
        <time>2018-08-18T11:07:31Z</time>
      </trkpt>
      <trkpt lat="48.65426" lon="1.8838">
        <ele>159</ele>
        <time>2018-08-18T11:07:36Z</time>
      </trkpt>
      <trkpt lat="48.65426" lon="1.8839">
        <ele>159</ele>
        <time>2018-08-18T11:07:40Z</time>
      </trkpt>
      <trkpt lat="48.65426" lon="1.88399">
        <ele>159</ele>
        <time>2018-08-18T11:07:44Z</time>
      </trkpt>
      <trkpt lat="48.65425" lon="1.88409">
        <ele>159</ele>
        <time>2018-08-18T11:07:48Z</time>
      </trkpt>
      <trkpt lat="48.65425" lon="1.88418">
        <ele>159</ele>
        <time>2018-08-18T11:07:52Z</time>
      </trkpt>
      <trkpt lat="48.65425" lon="1.88428">
        <ele>160</ele>
        <time>2018-08-18T11:07:56Z</time>
      </trkpt>
      <trkpt lat="48.65424" lon="1.88439">
        <ele>160</ele>
        <time>2018-08-18T11:08:01Z</time>
      </trkpt>
      <trkpt lat="48.65425" lon="1.88448">
        <ele>160</ele>
        <time>2018-08-18T11:08:05Z</time>
      </trkpt>
      <trkpt lat="48.65428" lon="1.88457">
        <ele>160</ele>
        <time>2018-08-18T11:08:10Z</time>
      </trkpt>
      <trkpt lat="48.65432" lon="1.88462">
        <ele>160</ele>
        <time>2018-08-18T11:08:14Z</time>
      </trkpt>
      <trkpt lat="48.65438" lon="1.88467">
        <ele>160</ele>
        <time>2018-08-18T11:08:18Z</time>
      </trkpt>
      <trkpt lat="48.65445" lon="1.88471">
        <ele>160</ele>
        <time>2018-08-18T11:08:22Z</time>
      </trkpt>
      <trkpt lat="48.65451" lon="1.88475">
        <ele>160</ele>
        <time>2018-08-18T11:08:26Z</time>
      </trkpt>
      <trkpt lat="48.65457" lon="1.88478">
        <ele>160</ele>
        <time>2018-08-18T11:08:30Z</time>
      </trkpt>
      <trkpt lat="48.65463" lon="1.88481">
        <ele>160</ele>
        <time>2018-08-18T11:08:34Z</time>
      </trkpt>
      <trkpt lat="48.65469" lon="1.88484">
        <ele>160</ele>
        <time>2018-08-18T11:08:38Z</time>
      </trkpt>
      <trkpt lat="48.65476" lon="1.88488">
        <ele>160</ele>
        <time>2018-08-18T11:08:42Z</time>
      </trkpt>
      <trkpt lat="48.65481" lon="1.88491">
        <ele>160</ele>
        <time>2018-08-18T11:08:46Z</time>
      </trkpt>
      <trkpt lat="48.65487" lon="1.88493">
        <ele>160</ele>
        <time>2018-08-18T11:08:50Z</time>
      </trkpt>
      <trkpt lat="48.65492" lon="1.88494">
        <ele>160</ele>
        <time>2018-08-18T11:08:54Z</time>
      </trkpt>
      <trkpt lat="48.65498" lon="1.88496">
        <ele>160</ele>
        <time>2018-08-18T11:08:58Z</time>
      </trkpt>
      <trkpt lat="48.65503" lon="1.88501">
        <ele>160</ele>
        <time>2018-08-18T11:09:03Z</time>
      </trkpt>
      <trkpt lat="48.65505" lon="1.88508">
        <ele>160</ele>
        <time>2018-08-18T11:09:07Z</time>
      </trkpt>
      <trkpt lat="48.65507" lon="1.88515">
        <ele>160</ele>
        <time>2018-08-18T11:09:11Z</time>
      </trkpt>
      <trkpt lat="48.65513" lon="1.88518">
        <ele>160</ele>
        <time>2018-08-18T11:09:16Z</time>
      </trkpt>
      <trkpt lat="48.65518" lon="1.88522">
        <ele>160</ele>
        <time>2018-08-18T11:09:21Z</time>
      </trkpt>
      <trkpt lat="48.65522" lon="1.88526">
        <ele>160</ele>
        <time>2018-08-18T11:09:25Z</time>
      </trkpt>
      <trkpt lat="48.65528" lon="1.8853">
        <ele>160</ele>
        <time>2018-08-18T11:09:29Z</time>
      </trkpt>
      <trkpt lat="48.65535" lon="1.88529">
        <ele>160</ele>
        <time>2018-08-18T11:09:33Z</time>
      </trkpt>
      <trkpt lat="48.65538" lon="1.88533">
        <ele>160</ele>
        <time>2018-08-18T11:09:37Z</time>
      </trkpt>
      <trkpt lat="48.65538" lon="1.88534">
        <ele>160</ele>
        <time>2018-08-18T11:09:52Z</time>
      </trkpt>
      <trkpt lat="48.65538" lon="1.88532">
        <ele>160</ele>
        <time>2018-08-18T11:10:02Z</time>
      </trkpt>
      <trkpt lat="48.65539" lon="1.88533">
        <ele>160</ele>
        <time>2018-08-18T11:10:08Z</time>
      </trkpt>
      <trkpt lat="48.65539" lon="1.88534">
        <ele>163</ele>
        <time>2018-08-18T11:10:16Z</time>
      </trkpt>
      <trkpt lat="48.65543" lon="1.88533">
        <ele>163</ele>
        <time>2018-08-18T11:10:21Z</time>
      </trkpt>
      <trkpt lat="48.65547" lon="1.88533">
        <ele>163</ele>
        <time>2018-08-18T11:10:25Z</time>
      </trkpt>
      <trkpt lat="48.65551" lon="1.88535">
        <ele>163</ele>
        <time>2018-08-18T11:10:29Z</time>
      </trkpt>
      <trkpt lat="48.65556" lon="1.88539">
        <ele>163</ele>
        <time>2018-08-18T11:10:34Z</time>
      </trkpt>
      <trkpt lat="48.6556" lon="1.88545">
        <ele>163</ele>
        <time>2018-08-18T11:10:39Z</time>
      </trkpt>
      <trkpt lat="48.65566" lon="1.88549">
        <ele>163</ele>
        <time>2018-08-18T11:10:44Z</time>
      </trkpt>
      <trkpt lat="48.65569" lon="1.8855">
        <ele>163</ele>
        <time>2018-08-18T11:10:48Z</time>
      </trkpt>
      <trkpt lat="48.65571" lon="1.88545">
        <ele>162</ele>
        <time>2018-08-18T11:10:52Z</time>
      </trkpt>
      <trkpt lat="48.65573" lon="1.8854">
        <ele>160</ele>
        <time>2018-08-18T11:10:56Z</time>
      </trkpt>
      <trkpt lat="48.65578" lon="1.88537">
        <ele>159</ele>
        <time>2018-08-18T11:11:00Z</time>
      </trkpt>
      <trkpt lat="48.65582" lon="1.88537">
        <ele>159</ele>
        <time>2018-08-18T11:11:04Z</time>
      </trkpt>
      <trkpt lat="48.65587" lon="1.88538">
        <ele>159</ele>
        <time>2018-08-18T11:11:09Z</time>
      </trkpt>
      <trkpt lat="48.6559" lon="1.88538">
        <ele>159</ele>
        <time>2018-08-18T11:11:20Z</time>
      </trkpt>
      <trkpt lat="48.65591" lon="1.88537">
        <ele>159</ele>
        <time>2018-08-18T11:11:25Z</time>
      </trkpt>
      <trkpt lat="48.65592" lon="1.88539">
        <ele>159</ele>
        <time>2018-08-18T11:11:41Z</time>
      </trkpt>
      <trkpt lat="48.65592" lon="1.88537">
        <ele>159</ele>
        <time>2018-08-18T11:11:53Z</time>
      </trkpt>
      <trkpt lat="48.65593" lon="1.88537">
        <ele>159</ele>
        <time>2018-08-18T11:11:57Z</time>
      </trkpt>
      <trkpt lat="48.65594" lon="1.88535">
        <ele>159</ele>
        <time>2018-08-18T11:12:21Z</time>
      </trkpt>
      <trkpt lat="48.65595" lon="1.88533">
        <ele>159</ele>
        <time>2018-08-18T11:12:25Z</time>
      </trkpt>
      <trkpt lat="48.65596" lon="1.88535">
        <ele>159</ele>
        <time>2018-08-18T11:12:52Z</time>
      </trkpt>
      <trkpt lat="48.65593" lon="1.88533">
        <ele>160</ele>
        <time>2018-08-18T11:13:00Z</time>
      </trkpt>
      <trkpt lat="48.65591" lon="1.88534">
        <ele>162</ele>
        <time>2018-08-18T11:13:14Z</time>
      </trkpt>
      <trkpt lat="48.65592" lon="1.88534">
        <ele>162</ele>
        <time>2018-08-18T11:14:04Z</time>
      </trkpt>
      <trkpt lat="48.65591" lon="1.88532">
        <ele>162</ele>
        <time>2018-08-18T11:14:28Z</time>
      </trkpt>
      <trkpt lat="48.65593" lon="1.88532">
        <ele>162</ele>
        <time>2018-08-18T11:15:03Z</time>
      </trkpt>
      <trkpt lat="48.65596" lon="1.8853">
        <ele>162</ele>
        <time>2018-08-18T11:15:07Z</time>
      </trkpt>
      <trkpt lat="48.65601" lon="1.88531">
        <ele>162</ele>
        <time>2018-08-18T11:15:11Z</time>
      </trkpt>
      <trkpt lat="48.65604" lon="1.88532">
        <ele>162</ele>
        <time>2018-08-18T11:15:15Z</time>
      </trkpt>
      <trkpt lat="48.65608" lon="1.88534">
        <ele>162</ele>
        <time>2018-08-18T11:15:19Z</time>
      </trkpt>
      <trkpt lat="48.65613" lon="1.88534">
        <ele>162</ele>
        <time>2018-08-18T11:15:24Z</time>
      </trkpt>
      <trkpt lat="48.65619" lon="1.88533">
        <ele>161</ele>
        <time>2018-08-18T11:15:28Z</time>
      </trkpt>
      <trkpt lat="48.65625" lon="1.88534">
        <ele>160</ele>
        <time>2018-08-18T11:15:33Z</time>
      </trkpt>
      <trkpt lat="48.65628" lon="1.88535">
        <ele>160</ele>
        <time>2018-08-18T11:15:37Z</time>
      </trkpt>
      <trkpt lat="48.65633" lon="1.88534">
        <ele>160</ele>
        <time>2018-08-18T11:15:41Z</time>
      </trkpt>
      <trkpt lat="48.65638" lon="1.88533">
        <ele>160</ele>
        <time>2018-08-18T11:15:45Z</time>
      </trkpt>
      <trkpt lat="48.65643" lon="1.88534">
        <ele>159</ele>
        <time>2018-08-18T11:15:50Z</time>
      </trkpt>
      <trkpt lat="48.65649" lon="1.88535">
        <ele>159</ele>
        <time>2018-08-18T11:15:54Z</time>
      </trkpt>
      <trkpt lat="48.65654" lon="1.88537">
        <ele>158</ele>
        <time>2018-08-18T11:15:58Z</time>
      </trkpt>
      <trkpt lat="48.6566" lon="1.88537">
        <ele>158</ele>
        <time>2018-08-18T11:16:02Z</time>
      </trkpt>
      <trkpt lat="48.65665" lon="1.88537">
        <ele>158</ele>
        <time>2018-08-18T11:16:06Z</time>
      </trkpt>
      <trkpt lat="48.65672" lon="1.88537">
        <ele>158</ele>
        <time>2018-08-18T11:16:10Z</time>
      </trkpt>
      <trkpt lat="48.65678" lon="1.88537">
        <ele>158</ele>
        <time>2018-08-18T11:16:14Z</time>
      </trkpt>
      <trkpt lat="48.65683" lon="1.88539">
        <ele>158</ele>
        <time>2018-08-18T11:16:19Z</time>
      </trkpt>
      <trkpt lat="48.65689" lon="1.88538">
        <ele>158</ele>
        <time>2018-08-18T11:16:23Z</time>
      </trkpt>
      <trkpt lat="48.65695" lon="1.88537">
        <ele>158</ele>
        <time>2018-08-18T11:16:27Z</time>
      </trkpt>
      <trkpt lat="48.657" lon="1.88535">
        <ele>158</ele>
        <time>2018-08-18T11:16:31Z</time>
      </trkpt>
      <trkpt lat="48.65706" lon="1.88534">
        <ele>158</ele>
        <time>2018-08-18T11:16:35Z</time>
      </trkpt>
      <trkpt lat="48.65711" lon="1.88533">
        <ele>158</ele>
        <time>2018-08-18T11:16:39Z</time>
      </trkpt>
      <trkpt lat="48.65715" lon="1.8853">
        <ele>158</ele>
        <time>2018-08-18T11:16:43Z</time>
      </trkpt>
      <trkpt lat="48.65719" lon="1.88529">
        <ele>158</ele>
        <time>2018-08-18T11:16:47Z</time>
      </trkpt>
      <trkpt lat="48.65724" lon="1.88529">
        <ele>158</ele>
        <time>2018-08-18T11:16:51Z</time>
      </trkpt>
      <trkpt lat="48.65728" lon="1.88525">
        <ele>158</ele>
        <time>2018-08-18T11:16:55Z</time>
      </trkpt>
      <trkpt lat="48.65733" lon="1.88523">
        <ele>158</ele>
        <time>2018-08-18T11:16:59Z</time>
      </trkpt>
      <trkpt lat="48.65739" lon="1.88521">
        <ele>158</ele>
        <time>2018-08-18T11:17:04Z</time>
      </trkpt>
      <trkpt lat="48.65744" lon="1.88519">
        <ele>158</ele>
        <time>2018-08-18T11:17:09Z</time>
      </trkpt>
      <trkpt lat="48.65749" lon="1.88517">
        <ele>158</ele>
        <time>2018-08-18T11:17:13Z</time>
      </trkpt>
      <trkpt lat="48.65756" lon="1.88515">
        <ele>158</ele>
        <time>2018-08-18T11:17:17Z</time>
      </trkpt>
      <trkpt lat="48.6576" lon="1.88514">
        <ele>158</ele>
        <time>2018-08-18T11:17:21Z</time>
      </trkpt>
      <trkpt lat="48.65765" lon="1.88514">
        <ele>158</ele>
        <time>2018-08-18T11:17:25Z</time>
      </trkpt>
      <trkpt lat="48.6577" lon="1.88512">
        <ele>158</ele>
        <time>2018-08-18T11:17:29Z</time>
      </trkpt>
      <trkpt lat="48.65776" lon="1.8851">
        <ele>158</ele>
        <time>2018-08-18T11:17:33Z</time>
      </trkpt>
      <trkpt lat="48.65781" lon="1.8851">
        <ele>158</ele>
        <time>2018-08-18T11:17:38Z</time>
      </trkpt>
      <trkpt lat="48.65787" lon="1.8851">
        <ele>158</ele>
        <time>2018-08-18T11:17:42Z</time>
      </trkpt>
      <trkpt lat="48.65793" lon="1.88508">
        <ele>158</ele>
        <time>2018-08-18T11:17:46Z</time>
      </trkpt>
      <trkpt lat="48.65798" lon="1.88506">
        <ele>158</ele>
        <time>2018-08-18T11:17:50Z</time>
      </trkpt>
      <trkpt lat="48.65804" lon="1.88505">
        <ele>157</ele>
        <time>2018-08-18T11:17:55Z</time>
      </trkpt>
      <trkpt lat="48.65809" lon="1.88504">
        <ele>157</ele>
        <time>2018-08-18T11:17:59Z</time>
      </trkpt>
      <trkpt lat="48.65815" lon="1.885">
        <ele>157</ele>
        <time>2018-08-18T11:18:03Z</time>
      </trkpt>
      <trkpt lat="48.65819" lon="1.88497">
        <ele>157</ele>
        <time>2018-08-18T11:18:08Z</time>
      </trkpt>
      <trkpt lat="48.65823" lon="1.88494">
        <ele>157</ele>
        <time>2018-08-18T11:18:12Z</time>
      </trkpt>
      <trkpt lat="48.65829" lon="1.88492">
        <ele>157</ele>
        <time>2018-08-18T11:18:16Z</time>
      </trkpt>
      <trkpt lat="48.65833" lon="1.88489">
        <ele>157</ele>
        <time>2018-08-18T11:18:20Z</time>
      </trkpt>
      <trkpt lat="48.65839" lon="1.88486">
        <ele>157</ele>
        <time>2018-08-18T11:18:24Z</time>
      </trkpt>
      <trkpt lat="48.65843" lon="1.88484">
        <ele>157</ele>
        <time>2018-08-18T11:18:28Z</time>
      </trkpt>
      <trkpt lat="48.65848" lon="1.8848">
        <ele>157</ele>
        <time>2018-08-18T11:18:32Z</time>
      </trkpt>
      <trkpt lat="48.65853" lon="1.88476">
        <ele>157</ele>
        <time>2018-08-18T11:18:36Z</time>
      </trkpt>
      <trkpt lat="48.65858" lon="1.88472">
        <ele>157</ele>
        <time>2018-08-18T11:18:40Z</time>
      </trkpt>
      <trkpt lat="48.65863" lon="1.88465">
        <ele>157</ele>
        <time>2018-08-18T11:18:45Z</time>
      </trkpt>
      <trkpt lat="48.65868" lon="1.88459">
        <ele>158</ele>
        <time>2018-08-18T11:18:50Z</time>
      </trkpt>
      <trkpt lat="48.65873" lon="1.88454">
        <ele>159</ele>
        <time>2018-08-18T11:18:54Z</time>
      </trkpt>
      <trkpt lat="48.65877" lon="1.88447">
        <ele>159</ele>
        <time>2018-08-18T11:18:58Z</time>
      </trkpt>
      <trkpt lat="48.65881" lon="1.8844">
        <ele>159</ele>
        <time>2018-08-18T11:19:02Z</time>
      </trkpt>
      <trkpt lat="48.65885" lon="1.88433">
        <ele>160</ele>
        <time>2018-08-18T11:19:06Z</time>
      </trkpt>
      <trkpt lat="48.65888" lon="1.88425">
        <ele>160</ele>
        <time>2018-08-18T11:19:11Z</time>
      </trkpt>
      <trkpt lat="48.6589" lon="1.88419">
        <ele>160</ele>
        <time>2018-08-18T11:19:15Z</time>
      </trkpt>
      <trkpt lat="48.65893" lon="1.88412">
        <ele>160</ele>
        <time>2018-08-18T11:19:19Z</time>
      </trkpt>
      <trkpt lat="48.65895" lon="1.88406">
        <ele>160</ele>
        <time>2018-08-18T11:19:23Z</time>
      </trkpt>
      <trkpt lat="48.65897" lon="1.88399">
        <ele>160</ele>
        <time>2018-08-18T11:19:27Z</time>
      </trkpt>
      <trkpt lat="48.659" lon="1.88391">
        <ele>160</ele>
        <time>2018-08-18T11:19:31Z</time>
      </trkpt>
      <trkpt lat="48.65903" lon="1.88384">
        <ele>160</ele>
        <time>2018-08-18T11:19:35Z</time>
      </trkpt>
      <trkpt lat="48.65906" lon="1.88377">
        <ele>160</ele>
        <time>2018-08-18T11:19:39Z</time>
      </trkpt>
      <trkpt lat="48.65908" lon="1.8837">
        <ele>160</ele>
        <time>2018-08-18T11:19:43Z</time>
      </trkpt>
      <trkpt lat="48.6591" lon="1.88363">
        <ele>160</ele>
        <time>2018-08-18T11:19:47Z</time>
      </trkpt>
      <trkpt lat="48.65912" lon="1.88356">
        <ele>160</ele>
        <time>2018-08-18T11:19:51Z</time>
      </trkpt>
      <trkpt lat="48.65914" lon="1.88348">
        <ele>160</ele>
        <time>2018-08-18T11:19:56Z</time>
      </trkpt>
      <trkpt lat="48.65916" lon="1.88341">
        <ele>160</ele>
        <time>2018-08-18T11:20:00Z</time>
      </trkpt>
      <trkpt lat="48.65917" lon="1.88334">
        <ele>159</ele>
        <time>2018-08-18T11:20:04Z</time>
      </trkpt>
      <trkpt lat="48.65919" lon="1.88327">
        <ele>158</ele>
        <time>2018-08-18T11:20:08Z</time>
      </trkpt>
      <trkpt lat="48.65922" lon="1.8832">
        <ele>157</ele>
        <time>2018-08-18T11:20:12Z</time>
      </trkpt>
      <trkpt lat="48.65923" lon="1.88314">
        <ele>156</ele>
        <time>2018-08-18T11:20:16Z</time>
      </trkpt>
      <trkpt lat="48.65925" lon="1.88307">
        <ele>154</ele>
        <time>2018-08-18T11:20:20Z</time>
      </trkpt>
      <trkpt lat="48.65928" lon="1.88297">
        <ele>152</ele>
        <time>2018-08-18T11:20:25Z</time>
      </trkpt>
      <trkpt lat="48.65929" lon="1.88292">
        <ele>151</ele>
        <time>2018-08-18T11:20:29Z</time>
      </trkpt>
      <trkpt lat="48.65931" lon="1.88285">
        <ele>149</ele>
        <time>2018-08-18T11:20:33Z</time>
      </trkpt>
      <trkpt lat="48.65931" lon="1.88276">
        <ele>149</ele>
        <time>2018-08-18T11:20:37Z</time>
      </trkpt>
      <trkpt lat="48.65932" lon="1.88267">
        <ele>149</ele>
        <time>2018-08-18T11:20:41Z</time>
      </trkpt>
      <trkpt lat="48.65934" lon="1.8826">
        <ele>149</ele>
        <time>2018-08-18T11:20:45Z</time>
      </trkpt>
      <trkpt lat="48.65935" lon="1.88254">
        <ele>149</ele>
        <time>2018-08-18T11:20:49Z</time>
      </trkpt>
      <trkpt lat="48.65937" lon="1.88248">
        <ele>149</ele>
        <time>2018-08-18T11:20:53Z</time>
      </trkpt>
      <trkpt lat="48.65938" lon="1.88241">
        <ele>148</ele>
        <time>2018-08-18T11:20:57Z</time>
      </trkpt>
      <trkpt lat="48.65939" lon="1.88235">
        <ele>146</ele>
        <time>2018-08-18T11:21:01Z</time>
      </trkpt>
      <trkpt lat="48.65941" lon="1.88228">
        <ele>145</ele>
        <time>2018-08-18T11:21:05Z</time>
      </trkpt>
      <trkpt lat="48.65943" lon="1.88221">
        <ele>144</ele>
        <time>2018-08-18T11:21:09Z</time>
      </trkpt>
      <trkpt lat="48.65945" lon="1.88213">
        <ele>143</ele>
        <time>2018-08-18T11:21:14Z</time>
      </trkpt>
      <trkpt lat="48.65947" lon="1.88207">
        <ele>141</ele>
        <time>2018-08-18T11:21:18Z</time>
      </trkpt>
      <trkpt lat="48.6595" lon="1.88199">
        <ele>139</ele>
        <time>2018-08-18T11:21:23Z</time>
      </trkpt>
      <trkpt lat="48.65952" lon="1.88193">
        <ele>138</ele>
        <time>2018-08-18T11:21:27Z</time>
      </trkpt>
      <trkpt lat="48.65954" lon="1.88187">
        <ele>138</ele>
        <time>2018-08-18T11:21:31Z</time>
      </trkpt>
      <trkpt lat="48.65956" lon="1.8818">
        <ele>138</ele>
        <time>2018-08-18T11:21:35Z</time>
      </trkpt>
      <trkpt lat="48.65958" lon="1.88174">
        <ele>138</ele>
        <time>2018-08-18T11:21:39Z</time>
      </trkpt>
      <trkpt lat="48.6596" lon="1.88167">
        <ele>138</ele>
        <time>2018-08-18T11:21:43Z</time>
      </trkpt>
      <trkpt lat="48.65962" lon="1.8816">
        <ele>137</ele>
        <time>2018-08-18T11:21:47Z</time>
      </trkpt>
      <trkpt lat="48.65964" lon="1.88152">
        <ele>137</ele>
        <time>2018-08-18T11:21:51Z</time>
      </trkpt>
      <trkpt lat="48.65965" lon="1.88143">
        <ele>137</ele>
        <time>2018-08-18T11:21:55Z</time>
      </trkpt>
      <trkpt lat="48.65966" lon="1.88135">
        <ele>137</ele>
        <time>2018-08-18T11:21:59Z</time>
      </trkpt>
      <trkpt lat="48.65965" lon="1.88124">
        <ele>137</ele>
        <time>2018-08-18T11:22:03Z</time>
      </trkpt>
      <trkpt lat="48.65964" lon="1.88115">
        <ele>138</ele>
        <time>2018-08-18T11:22:07Z</time>
      </trkpt>
      <trkpt lat="48.65964" lon="1.88105">
        <ele>142</ele>
        <time>2018-08-18T11:22:11Z</time>
      </trkpt>
      <trkpt lat="48.65965" lon="1.88097">
        <ele>145</ele>
        <time>2018-08-18T11:22:15Z</time>
      </trkpt>
      <trkpt lat="48.65965" lon="1.88088">
        <ele>146</ele>
        <time>2018-08-18T11:22:19Z</time>
      </trkpt>
      <trkpt lat="48.65967" lon="1.88081">
        <ele>147</ele>
        <time>2018-08-18T11:22:23Z</time>
      </trkpt>
      <trkpt lat="48.6597" lon="1.88074">
        <ele>147</ele>
        <time>2018-08-18T11:22:27Z</time>
      </trkpt>
      <trkpt lat="48.65971" lon="1.88065">
        <ele>147</ele>
        <time>2018-08-18T11:22:32Z</time>
      </trkpt>
      <trkpt lat="48.65971" lon="1.88058">
        <ele>147</ele>
        <time>2018-08-18T11:22:36Z</time>
      </trkpt>
      <trkpt lat="48.65967" lon="1.88049">
        <ele>147</ele>
        <time>2018-08-18T11:22:40Z</time>
      </trkpt>
      <trkpt lat="48.65961" lon="1.88044">
        <ele>147</ele>
        <time>2018-08-18T11:22:44Z</time>
      </trkpt>
      <trkpt lat="48.65956" lon="1.88038">
        <ele>149</ele>
        <time>2018-08-18T11:22:48Z</time>
      </trkpt>
      <trkpt lat="48.65955" lon="1.88033">
        <ele>152</ele>
        <time>2018-08-18T11:22:55Z</time>
      </trkpt>
      <trkpt lat="48.65954" lon="1.88031">
        <ele>154</ele>
        <time>2018-08-18T11:23:06Z</time>
      </trkpt>
      <trkpt lat="48.65955" lon="1.88033">
        <ele>157</ele>
        <time>2018-08-18T11:23:52Z</time>
      </trkpt>
      <trkpt lat="48.65958" lon="1.88033">
        <ele>158</ele>
        <time>2018-08-18T11:24:00Z</time>
      </trkpt>
      <trkpt lat="48.65958" lon="1.88035">
        <ele>161</ele>
        <time>2018-08-18T11:24:27Z</time>
      </trkpt>
      <trkpt lat="48.65959" lon="1.88037">
        <ele>163</ele>
        <time>2018-08-18T11:24:42Z</time>
      </trkpt>
      <trkpt lat="48.65958" lon="1.88038">
        <ele>163</ele>
        <time>2018-08-18T11:24:46Z</time>
      </trkpt>
      <trkpt lat="48.65958" lon="1.8804">
        <ele>164</ele>
        <time>2018-08-18T11:24:57Z</time>
      </trkpt>
      <trkpt lat="48.65957" lon="1.8804">
        <ele>166</ele>
        <time>2018-08-18T11:25:09Z</time>
      </trkpt>
      <trkpt lat="48.65956" lon="1.88042">
        <ele>166</ele>
        <time>2018-08-18T11:25:13Z</time>
      </trkpt>
      <trkpt lat="48.65953" lon="1.88049">
        <ele>166</ele>
        <time>2018-08-18T11:25:18Z</time>
      </trkpt>
      <trkpt lat="48.65949" lon="1.88053">
        <ele>166</ele>
        <time>2018-08-18T11:25:23Z</time>
      </trkpt>
      <trkpt lat="48.65949" lon="1.88056">
        <ele>166</ele>
        <time>2018-08-18T11:25:27Z</time>
      </trkpt>
      <trkpt lat="48.65948" lon="1.88057">
        <ele>166</ele>
        <time>2018-08-18T11:25:33Z</time>
      </trkpt>
      <trkpt lat="48.65948" lon="1.88059">
        <ele>166</ele>
        <time>2018-08-18T11:25:37Z</time>
      </trkpt>
      <trkpt lat="48.65949" lon="1.88061">
        <ele>166</ele>
        <time>2018-08-18T11:25:41Z</time>
      </trkpt>
      <trkpt lat="48.65948" lon="1.88061">
        <ele>168</ele>
        <time>2018-08-18T11:26:00Z</time>
      </trkpt>
      <trkpt lat="48.65949" lon="1.88054">
        <ele>168</ele>
        <time>2018-08-18T11:26:05Z</time>
      </trkpt>
      <trkpt lat="48.65953" lon="1.8805">
        <ele>165</ele>
        <time>2018-08-18T11:26:09Z</time>
      </trkpt>
      <trkpt lat="48.65955" lon="1.88047">
        <ele>163</ele>
        <time>2018-08-18T11:26:13Z</time>
      </trkpt>
      <trkpt lat="48.65957" lon="1.88042">
        <ele>163</ele>
        <time>2018-08-18T11:26:17Z</time>
      </trkpt>
      <trkpt lat="48.65959" lon="1.88035">
        <ele>163</ele>
        <time>2018-08-18T11:26:34Z</time>
      </trkpt>
      <trkpt lat="48.65962" lon="1.88038">
        <ele>163</ele>
        <time>2018-08-18T11:26:38Z</time>
      </trkpt>
      <trkpt lat="48.65965" lon="1.88042">
        <ele>163</ele>
        <time>2018-08-18T11:26:42Z</time>
      </trkpt>
      <trkpt lat="48.65968" lon="1.88044">
        <ele>163</ele>
        <time>2018-08-18T11:26:46Z</time>
      </trkpt>
      <trkpt lat="48.65973" lon="1.88045">
        <ele>162</ele>
        <time>2018-08-18T11:26:51Z</time>
      </trkpt>
      <trkpt lat="48.65977" lon="1.88043">
        <ele>162</ele>
        <time>2018-08-18T11:26:55Z</time>
      </trkpt>
      <trkpt lat="48.65982" lon="1.8804">
        <ele>161</ele>
        <time>2018-08-18T11:26:59Z</time>
      </trkpt>
      <trkpt lat="48.65986" lon="1.88038">
        <ele>159</ele>
        <time>2018-08-18T11:27:04Z</time>
      </trkpt>
      <trkpt lat="48.6599" lon="1.88038">
        <ele>157</ele>
        <time>2018-08-18T11:27:08Z</time>
      </trkpt>
      <trkpt lat="48.65993" lon="1.88039">
        <ele>156</ele>
        <time>2018-08-18T11:27:13Z</time>
      </trkpt>
      <trkpt lat="48.65996" lon="1.88042">
        <ele>155</ele>
        <time>2018-08-18T11:27:17Z</time>
      </trkpt>
      <trkpt lat="48.66002" lon="1.88042">
        <ele>154</ele>
        <time>2018-08-18T11:27:21Z</time>
      </trkpt>
      <trkpt lat="48.66008" lon="1.88043">
        <ele>154</ele>
        <time>2018-08-18T11:27:25Z</time>
      </trkpt>
      <trkpt lat="48.66013" lon="1.88046">
        <ele>152</ele>
        <time>2018-08-18T11:27:30Z</time>
      </trkpt>
      <trkpt lat="48.66018" lon="1.88047">
        <ele>151</ele>
        <time>2018-08-18T11:27:34Z</time>
      </trkpt>
      <trkpt lat="48.66022" lon="1.88049">
        <ele>151</ele>
        <time>2018-08-18T11:27:38Z</time>
      </trkpt>
      <trkpt lat="48.66027" lon="1.88052">
        <ele>151</ele>
        <time>2018-08-18T11:27:42Z</time>
      </trkpt>
      <trkpt lat="48.66032" lon="1.88053">
        <ele>151</ele>
        <time>2018-08-18T11:27:46Z</time>
      </trkpt>
      <trkpt lat="48.66037" lon="1.88056">
        <ele>151</ele>
        <time>2018-08-18T11:27:50Z</time>
      </trkpt>
      <trkpt lat="48.66045" lon="1.88058">
        <ele>152</ele>
        <time>2018-08-18T11:27:55Z</time>
      </trkpt>
      <trkpt lat="48.66048" lon="1.88059">
        <ele>153</ele>
        <time>2018-08-18T11:28:05Z</time>
      </trkpt>
      <trkpt lat="48.6605" lon="1.88058">
        <ele>155</ele>
        <time>2018-08-18T11:28:09Z</time>
      </trkpt>
      <trkpt lat="48.66051" lon="1.88059">
        <ele>158</ele>
        <time>2018-08-18T11:28:13Z</time>
      </trkpt>
      <trkpt lat="48.66054" lon="1.88057">
        <ele>159</ele>
        <time>2018-08-18T11:28:17Z</time>
      </trkpt>
      <trkpt lat="48.66055" lon="1.88055">
        <ele>160</ele>
        <time>2018-08-18T11:28:23Z</time>
      </trkpt>
      <trkpt lat="48.66056" lon="1.88054">
        <ele>160</ele>
        <time>2018-08-18T11:28:27Z</time>
      </trkpt>
      <trkpt lat="48.66057" lon="1.88053">
        <ele>160</ele>
        <time>2018-08-18T11:28:31Z</time>
      </trkpt>
      <trkpt lat="48.6606" lon="1.88049">
        <ele>160</ele>
        <time>2018-08-18T11:28:35Z</time>
      </trkpt>
      <trkpt lat="48.66063" lon="1.88047">
        <ele>161</ele>
        <time>2018-08-18T11:28:41Z</time>
      </trkpt>
      <trkpt lat="48.66063" lon="1.88049">
        <ele>161</ele>
        <time>2018-08-18T11:28:47Z</time>
      </trkpt>
      <trkpt lat="48.66063" lon="1.88054">
        <ele>161</ele>
        <time>2018-08-18T11:28:51Z</time>
      </trkpt>
      <trkpt lat="48.66068" lon="1.8805">
        <ele>161</ele>
        <time>2018-08-18T11:28:55Z</time>
      </trkpt>
      <trkpt lat="48.6607" lon="1.88046">
        <ele>161</ele>
        <time>2018-08-18T11:29:00Z</time>
      </trkpt>
      <trkpt lat="48.66073" lon="1.88042">
        <ele>161</ele>
        <time>2018-08-18T11:29:05Z</time>
      </trkpt>
      <trkpt lat="48.66074" lon="1.88043">
        <ele>161</ele>
        <time>2018-08-18T11:29:12Z</time>
      </trkpt>
      <trkpt lat="48.66076" lon="1.88039">
        <ele>161</ele>
        <time>2018-08-18T11:29:17Z</time>
      </trkpt>
      <trkpt lat="48.66082" lon="1.88034">
        <ele>161</ele>
        <time>2018-08-18T11:29:22Z</time>
      </trkpt>
      <trkpt lat="48.66085" lon="1.88031">
        <ele>161</ele>
        <time>2018-08-18T11:29:26Z</time>
      </trkpt>
      <trkpt lat="48.66091" lon="1.88026">
        <ele>161</ele>
        <time>2018-08-18T11:29:31Z</time>
      </trkpt>
      <trkpt lat="48.66095" lon="1.88023">
        <ele>159</ele>
        <time>2018-08-18T11:29:35Z</time>
      </trkpt>
      <trkpt lat="48.66099" lon="1.88019">
        <ele>158</ele>
        <time>2018-08-18T11:29:39Z</time>
      </trkpt>
      <trkpt lat="48.66104" lon="1.88013">
        <ele>158</ele>
        <time>2018-08-18T11:29:43Z</time>
      </trkpt>
      <trkpt lat="48.66108" lon="1.88009">
        <ele>158</ele>
        <time>2018-08-18T11:29:47Z</time>
      </trkpt>
      <trkpt lat="48.66111" lon="1.88004">
        <ele>158</ele>
        <time>2018-08-18T11:29:51Z</time>
      </trkpt>
      <trkpt lat="48.66116" lon="1.88002">
        <ele>158</ele>
        <time>2018-08-18T11:29:55Z</time>
      </trkpt>
      <trkpt lat="48.6612" lon="1.88001">
        <ele>158</ele>
        <time>2018-08-18T11:29:59Z</time>
      </trkpt>
      <trkpt lat="48.66124" lon="1.88001">
        <ele>158</ele>
        <time>2018-08-18T11:30:03Z</time>
      </trkpt>
      <trkpt lat="48.66129" lon="1.88001">
        <ele>157</ele>
        <time>2018-08-18T11:30:07Z</time>
      </trkpt>
      <trkpt lat="48.66133" lon="1.87999">
        <ele>156</ele>
        <time>2018-08-18T11:30:11Z</time>
      </trkpt>
      <trkpt lat="48.66139" lon="1.87998">
        <ele>156</ele>
        <time>2018-08-18T11:30:15Z</time>
      </trkpt>
      <trkpt lat="48.66143" lon="1.87999">
        <ele>154</ele>
        <time>2018-08-18T11:30:19Z</time>
      </trkpt>
      <trkpt lat="48.6615" lon="1.87998">
        <ele>154</ele>
        <time>2018-08-18T11:30:24Z</time>
      </trkpt>
      <trkpt lat="48.66153" lon="1.87998">
        <ele>154</ele>
        <time>2018-08-18T11:30:28Z</time>
      </trkpt>
      <trkpt lat="48.66158" lon="1.87998">
        <ele>154</ele>
        <time>2018-08-18T11:30:32Z</time>
      </trkpt>
      <trkpt lat="48.66164" lon="1.87996">
        <ele>154</ele>
        <time>2018-08-18T11:30:37Z</time>
      </trkpt>
      <trkpt lat="48.66169" lon="1.87991">
        <ele>154</ele>
        <time>2018-08-18T11:30:41Z</time>
      </trkpt>
      <trkpt lat="48.66172" lon="1.87985">
        <ele>154</ele>
        <time>2018-08-18T11:30:45Z</time>
      </trkpt>
      <trkpt lat="48.66176" lon="1.8798">
        <ele>154</ele>
        <time>2018-08-18T11:30:49Z</time>
      </trkpt>
      <trkpt lat="48.6618" lon="1.87974">
        <ele>154</ele>
        <time>2018-08-18T11:30:53Z</time>
      </trkpt>
      <trkpt lat="48.66184" lon="1.87967">
        <ele>154</ele>
        <time>2018-08-18T11:30:57Z</time>
      </trkpt>
      <trkpt lat="48.66188" lon="1.87959">
        <ele>154</ele>
        <time>2018-08-18T11:31:01Z</time>
      </trkpt>
      <trkpt lat="48.66192" lon="1.87952">
        <ele>154</ele>
        <time>2018-08-18T11:31:05Z</time>
      </trkpt>
      <trkpt lat="48.66195" lon="1.87945">
        <ele>154</ele>
        <time>2018-08-18T11:31:09Z</time>
      </trkpt>
      <trkpt lat="48.66198" lon="1.87938">
        <ele>154</ele>
        <time>2018-08-18T11:31:13Z</time>
      </trkpt>
      <trkpt lat="48.66203" lon="1.8793">
        <ele>155</ele>
        <time>2018-08-18T11:31:18Z</time>
      </trkpt>
      <trkpt lat="48.66206" lon="1.87923">
        <ele>155</ele>
        <time>2018-08-18T11:31:22Z</time>
      </trkpt>
      <trkpt lat="48.6621" lon="1.87914">
        <ele>156</ele>
        <time>2018-08-18T11:31:27Z</time>
      </trkpt>
      <trkpt lat="48.66214" lon="1.87909">
        <ele>156</ele>
        <time>2018-08-18T11:31:31Z</time>
      </trkpt>
      <trkpt lat="48.66217" lon="1.87902">
        <ele>156</ele>
        <time>2018-08-18T11:31:35Z</time>
      </trkpt>
      <trkpt lat="48.6622" lon="1.87894">
        <ele>157</ele>
        <time>2018-08-18T11:31:39Z</time>
      </trkpt>
      <trkpt lat="48.66223" lon="1.87887">
        <ele>159</ele>
        <time>2018-08-18T11:31:43Z</time>
      </trkpt>
      <trkpt lat="48.66227" lon="1.8788">
        <ele>160</ele>
        <time>2018-08-18T11:31:47Z</time>
      </trkpt>
      <trkpt lat="48.6623" lon="1.87874">
        <ele>161</ele>
        <time>2018-08-18T11:31:51Z</time>
      </trkpt>
      <trkpt lat="48.66234" lon="1.87869">
        <ele>162</ele>
        <time>2018-08-18T11:31:55Z</time>
      </trkpt>
      <trkpt lat="48.66238" lon="1.87864">
        <ele>162</ele>
        <time>2018-08-18T11:31:59Z</time>
      </trkpt>
      <trkpt lat="48.66241" lon="1.87858">
        <ele>162</ele>
        <time>2018-08-18T11:32:03Z</time>
      </trkpt>
      <trkpt lat="48.66244" lon="1.87851">
        <ele>163</ele>
        <time>2018-08-18T11:32:07Z</time>
      </trkpt>
      <trkpt lat="48.66244" lon="1.87843">
        <ele>163</ele>
        <time>2018-08-18T11:32:11Z</time>
      </trkpt>
      <trkpt lat="48.66245" lon="1.87834">
        <ele>164</ele>
        <time>2018-08-18T11:32:15Z</time>
      </trkpt>
      <trkpt lat="48.66248" lon="1.87826">
        <ele>164</ele>
        <time>2018-08-18T11:32:19Z</time>
      </trkpt>
      <trkpt lat="48.66252" lon="1.8782">
        <ele>165</ele>
        <time>2018-08-18T11:32:23Z</time>
      </trkpt>
      <trkpt lat="48.66255" lon="1.8781">
        <ele>165</ele>
        <time>2018-08-18T11:32:28Z</time>
      </trkpt>
      <trkpt lat="48.66258" lon="1.87803">
        <ele>165</ele>
        <time>2018-08-18T11:32:32Z</time>
      </trkpt>
      <trkpt lat="48.66261" lon="1.87796">
        <ele>165</ele>
        <time>2018-08-18T11:32:36Z</time>
      </trkpt>
      <trkpt lat="48.66263" lon="1.87789">
        <ele>165</ele>
        <time>2018-08-18T11:32:40Z</time>
      </trkpt>
      <trkpt lat="48.66267" lon="1.87783">
        <ele>165</ele>
        <time>2018-08-18T11:32:45Z</time>
      </trkpt>
      <trkpt lat="48.66269" lon="1.87774">
        <ele>165</ele>
        <time>2018-08-18T11:32:49Z</time>
      </trkpt>
      <trkpt lat="48.66273" lon="1.87766">
        <ele>165</ele>
        <time>2018-08-18T11:32:54Z</time>
      </trkpt>
      <trkpt lat="48.66277" lon="1.87759">
        <ele>165</ele>
        <time>2018-08-18T11:32:58Z</time>
      </trkpt>
      <trkpt lat="48.66282" lon="1.87753">
        <ele>165</ele>
        <time>2018-08-18T11:33:02Z</time>
      </trkpt>
      <trkpt lat="48.66288" lon="1.87748">
        <ele>165</ele>
        <time>2018-08-18T11:33:06Z</time>
      </trkpt>
      <trkpt lat="48.66293" lon="1.87742">
        <ele>165</ele>
        <time>2018-08-18T11:33:10Z</time>
      </trkpt>
      <trkpt lat="48.66295" lon="1.87737">
        <ele>165</ele>
        <time>2018-08-18T11:33:14Z</time>
      </trkpt>
      <trkpt lat="48.66298" lon="1.87733">
        <ele>165</ele>
        <time>2018-08-18T11:33:18Z</time>
      </trkpt>
      <trkpt lat="48.66303" lon="1.87727">
        <ele>165</ele>
        <time>2018-08-18T11:33:22Z</time>
      </trkpt>
      <trkpt lat="48.66307" lon="1.87721">
        <ele>164</ele>
        <time>2018-08-18T11:33:26Z</time>
      </trkpt>
      <trkpt lat="48.66311" lon="1.87714">
        <ele>163</ele>
        <time>2018-08-18T11:33:30Z</time>
      </trkpt>
      <trkpt lat="48.66314" lon="1.87707">
        <ele>162</ele>
        <time>2018-08-18T11:33:34Z</time>
      </trkpt>
      <trkpt lat="48.66314" lon="1.87699">
        <ele>161</ele>
        <time>2018-08-18T11:33:38Z</time>
      </trkpt>
      <trkpt lat="48.66316" lon="1.87692">
        <ele>161</ele>
        <time>2018-08-18T11:33:42Z</time>
      </trkpt>
      <trkpt lat="48.66315" lon="1.87685">
        <ele>160</ele>
        <time>2018-08-18T11:33:46Z</time>
      </trkpt>
      <trkpt lat="48.6631" lon="1.87675">
        <ele>160</ele>
        <time>2018-08-18T11:33:50Z</time>
      </trkpt>
      <trkpt lat="48.66308" lon="1.87665">
        <ele>160</ele>
        <time>2018-08-18T11:33:54Z</time>
      </trkpt>
      <trkpt lat="48.66307" lon="1.87657">
        <ele>160</ele>
        <time>2018-08-18T11:33:58Z</time>
      </trkpt>
      <trkpt lat="48.66306" lon="1.87649">
        <ele>160</ele>
        <time>2018-08-18T11:34:02Z</time>
      </trkpt>
      <trkpt lat="48.66305" lon="1.87642">
        <ele>160</ele>
        <time>2018-08-18T11:34:06Z</time>
      </trkpt>
      <trkpt lat="48.66301" lon="1.87631">
        <ele>160</ele>
        <time>2018-08-18T11:34:10Z</time>
      </trkpt>
      <trkpt lat="48.66299" lon="1.87622">
        <ele>160</ele>
        <time>2018-08-18T11:34:14Z</time>
      </trkpt>
      <trkpt lat="48.66297" lon="1.87614">
        <ele>160</ele>
        <time>2018-08-18T11:34:18Z</time>
      </trkpt>
      <trkpt lat="48.66296" lon="1.87606">
        <ele>161</ele>
        <time>2018-08-18T11:34:22Z</time>
      </trkpt>
      <trkpt lat="48.66295" lon="1.87597">
        <ele>161</ele>
        <time>2018-08-18T11:34:26Z</time>
      </trkpt>
      <trkpt lat="48.66293" lon="1.8759">
        <ele>161</ele>
        <time>2018-08-18T11:34:30Z</time>
      </trkpt>
      <trkpt lat="48.66293" lon="1.87582">
        <ele>161</ele>
        <time>2018-08-18T11:34:34Z</time>
      </trkpt>
      <trkpt lat="48.66291" lon="1.87575">
        <ele>161</ele>
        <time>2018-08-18T11:34:38Z</time>
      </trkpt>
      <trkpt lat="48.66291" lon="1.87568">
        <ele>161</ele>
        <time>2018-08-18T11:34:42Z</time>
      </trkpt>
      <trkpt lat="48.6629" lon="1.8756">
        <ele>161</ele>
        <time>2018-08-18T11:34:46Z</time>
      </trkpt>
      <trkpt lat="48.66289" lon="1.87553">
        <ele>161</ele>
        <time>2018-08-18T11:34:50Z</time>
      </trkpt>
      <trkpt lat="48.66294" lon="1.87547">
        <ele>161</ele>
        <time>2018-08-18T11:34:54Z</time>
      </trkpt>
      <trkpt lat="48.66299" lon="1.87542">
        <ele>161</ele>
        <time>2018-08-18T11:34:58Z</time>
      </trkpt>
      <trkpt lat="48.66303" lon="1.87539">
        <ele>161</ele>
        <time>2018-08-18T11:35:02Z</time>
      </trkpt>
      <trkpt lat="48.66309" lon="1.87536">
        <ele>161</ele>
        <time>2018-08-18T11:35:06Z</time>
      </trkpt>
      <trkpt lat="48.66314" lon="1.87533">
        <ele>161</ele>
        <time>2018-08-18T11:35:10Z</time>
      </trkpt>
      <trkpt lat="48.6632" lon="1.87531">
        <ele>161</ele>
        <time>2018-08-18T11:35:14Z</time>
      </trkpt>
      <trkpt lat="48.66325" lon="1.87528">
        <ele>161</ele>
        <time>2018-08-18T11:35:18Z</time>
      </trkpt>
      <trkpt lat="48.6633" lon="1.87527">
        <ele>161</ele>
        <time>2018-08-18T11:35:22Z</time>
      </trkpt>
      <trkpt lat="48.66336" lon="1.87525">
        <ele>161</ele>
        <time>2018-08-18T11:35:26Z</time>
      </trkpt>
      <trkpt lat="48.66341" lon="1.87522">
        <ele>161</ele>
        <time>2018-08-18T11:35:30Z</time>
      </trkpt>
      <trkpt lat="48.66346" lon="1.87519">
        <ele>161</ele>
        <time>2018-08-18T11:35:34Z</time>
      </trkpt>
      <trkpt lat="48.66352" lon="1.87515">
        <ele>161</ele>
        <time>2018-08-18T11:35:38Z</time>
      </trkpt>
      <trkpt lat="48.66357" lon="1.87512">
        <ele>161</ele>
        <time>2018-08-18T11:35:42Z</time>
      </trkpt>
      <trkpt lat="48.66363" lon="1.8751">
        <ele>161</ele>
        <time>2018-08-18T11:35:46Z</time>
      </trkpt>
      <trkpt lat="48.66369" lon="1.87508">
        <ele>161</ele>
        <time>2018-08-18T11:35:50Z</time>
      </trkpt>
      <trkpt lat="48.66373" lon="1.87506">
        <ele>161</ele>
        <time>2018-08-18T11:35:54Z</time>
      </trkpt>
      <trkpt lat="48.66378" lon="1.87504">
        <ele>161</ele>
        <time>2018-08-18T11:35:58Z</time>
      </trkpt>
      <trkpt lat="48.66383" lon="1.87503">
        <ele>161</ele>
        <time>2018-08-18T11:36:09Z</time>
      </trkpt>
      <trkpt lat="48.66388" lon="1.87504">
        <ele>161</ele>
        <time>2018-08-18T11:36:13Z</time>
      </trkpt>
      <trkpt lat="48.66392" lon="1.87507">
        <ele>162</ele>
        <time>2018-08-18T11:36:17Z</time>
      </trkpt>
      <trkpt lat="48.66394" lon="1.87511">
        <ele>163</ele>
        <time>2018-08-18T11:36:21Z</time>
      </trkpt>
      <trkpt lat="48.66399" lon="1.87514">
        <ele>164</ele>
        <time>2018-08-18T11:36:25Z</time>
      </trkpt>
      <trkpt lat="48.66404" lon="1.87508">
        <ele>165</ele>
        <time>2018-08-18T11:36:30Z</time>
      </trkpt>
      <trkpt lat="48.6641" lon="1.87502">
        <ele>165</ele>
        <time>2018-08-18T11:36:35Z</time>
      </trkpt>
      <trkpt lat="48.66413" lon="1.87495">
        <ele>165</ele>
        <time>2018-08-18T11:36:39Z</time>
      </trkpt>
      <trkpt lat="48.66416" lon="1.8749">
        <ele>165</ele>
        <time>2018-08-18T11:36:43Z</time>
      </trkpt>
      <trkpt lat="48.6642" lon="1.87482">
        <ele>165</ele>
        <time>2018-08-18T11:36:48Z</time>
      </trkpt>
      <trkpt lat="48.66423" lon="1.87474">
        <ele>165</ele>
        <time>2018-08-18T11:36:52Z</time>
      </trkpt>
      <trkpt lat="48.66426" lon="1.87467">
        <ele>165</ele>
        <time>2018-08-18T11:36:56Z</time>
      </trkpt>
      <trkpt lat="48.66429" lon="1.8746">
        <ele>165</ele>
        <time>2018-08-18T11:37:00Z</time>
      </trkpt>
      <trkpt lat="48.66432" lon="1.87453">
        <ele>165</ele>
        <time>2018-08-18T11:37:04Z</time>
      </trkpt>
      <trkpt lat="48.66435" lon="1.87445">
        <ele>165</ele>
        <time>2018-08-18T11:37:08Z</time>
      </trkpt>
      <trkpt lat="48.66438" lon="1.8744">
        <ele>165</ele>
        <time>2018-08-18T11:37:12Z</time>
      </trkpt>
      <trkpt lat="48.66443" lon="1.87439">
        <ele>165</ele>
        <time>2018-08-18T11:37:16Z</time>
      </trkpt>
      <trkpt lat="48.66449" lon="1.87444">
        <ele>165</ele>
        <time>2018-08-18T11:37:21Z</time>
      </trkpt>
      <trkpt lat="48.66454" lon="1.87448">
        <ele>165</ele>
        <time>2018-08-18T11:37:25Z</time>
      </trkpt>
      <trkpt lat="48.66459" lon="1.8745">
        <ele>165</ele>
        <time>2018-08-18T11:37:29Z</time>
      </trkpt>
      <trkpt lat="48.66465" lon="1.8745">
        <ele>165</ele>
        <time>2018-08-18T11:37:33Z</time>
      </trkpt>
      <trkpt lat="48.6647" lon="1.87451">
        <ele>165</ele>
        <time>2018-08-18T11:37:38Z</time>
      </trkpt>
      <trkpt lat="48.66475" lon="1.87449">
        <ele>165</ele>
        <time>2018-08-18T11:37:43Z</time>
      </trkpt>
      <trkpt lat="48.66479" lon="1.87446">
        <ele>165</ele>
        <time>2018-08-18T11:37:47Z</time>
      </trkpt>
      <trkpt lat="48.66483" lon="1.87443">
        <ele>165</ele>
        <time>2018-08-18T11:37:51Z</time>
      </trkpt>
      <trkpt lat="48.66486" lon="1.87442">
        <ele>163</ele>
        <time>2018-08-18T11:37:55Z</time>
      </trkpt>
      <trkpt lat="48.66493" lon="1.87438">
        <ele>163</ele>
        <time>2018-08-18T11:37:59Z</time>
      </trkpt>
      <trkpt lat="48.66498" lon="1.87436">
        <ele>163</ele>
        <time>2018-08-18T11:38:03Z</time>
      </trkpt>
      <trkpt lat="48.66504" lon="1.87433">
        <ele>163</ele>
        <time>2018-08-18T11:38:07Z</time>
      </trkpt>
      <trkpt lat="48.66507" lon="1.87431">
        <ele>163</ele>
        <time>2018-08-18T11:38:11Z</time>
      </trkpt>
      <trkpt lat="48.66513" lon="1.87428">
        <ele>162</ele>
        <time>2018-08-18T11:38:16Z</time>
      </trkpt>
      <trkpt lat="48.66519" lon="1.87425">
        <ele>162</ele>
        <time>2018-08-18T11:38:20Z</time>
      </trkpt>
      <trkpt lat="48.66523" lon="1.8742">
        <ele>162</ele>
        <time>2018-08-18T11:38:24Z</time>
      </trkpt>
      <trkpt lat="48.66527" lon="1.87416">
        <ele>162</ele>
        <time>2018-08-18T11:38:28Z</time>
      </trkpt>
      <trkpt lat="48.66533" lon="1.87414">
        <ele>162</ele>
        <time>2018-08-18T11:38:32Z</time>
      </trkpt>
      <trkpt lat="48.66537" lon="1.87411">
        <ele>162</ele>
        <time>2018-08-18T11:38:36Z</time>
      </trkpt>
      <trkpt lat="48.66544" lon="1.87409">
        <ele>162</ele>
        <time>2018-08-18T11:38:40Z</time>
      </trkpt>
      <trkpt lat="48.66548" lon="1.87406">
        <ele>162</ele>
        <time>2018-08-18T11:38:44Z</time>
      </trkpt>
      <trkpt lat="48.66553" lon="1.87402">
        <ele>163</ele>
        <time>2018-08-18T11:38:48Z</time>
      </trkpt>
      <trkpt lat="48.6656" lon="1.87398">
        <ele>163</ele>
        <time>2018-08-18T11:38:53Z</time>
      </trkpt>
      <trkpt lat="48.66565" lon="1.87396">
        <ele>163</ele>
        <time>2018-08-18T11:38:57Z</time>
      </trkpt>
      <trkpt lat="48.66572" lon="1.87395">
        <ele>163</ele>
        <time>2018-08-18T11:39:01Z</time>
      </trkpt>
      <trkpt lat="48.66577" lon="1.87393">
        <ele>163</ele>
        <time>2018-08-18T11:39:06Z</time>
      </trkpt>
      <trkpt lat="48.66582" lon="1.8739">
        <ele>163</ele>
        <time>2018-08-18T11:39:10Z</time>
      </trkpt>
      <trkpt lat="48.66588" lon="1.87387">
        <ele>163</ele>
        <time>2018-08-18T11:39:14Z</time>
      </trkpt>
      <trkpt lat="48.66593" lon="1.87386">
        <ele>163</ele>
        <time>2018-08-18T11:39:19Z</time>
      </trkpt>
      <trkpt lat="48.66598" lon="1.87382">
        <ele>163</ele>
        <time>2018-08-18T11:39:24Z</time>
      </trkpt>
      <trkpt lat="48.66602" lon="1.8738">
        <ele>162</ele>
        <time>2018-08-18T11:39:29Z</time>
      </trkpt>
      <trkpt lat="48.6661" lon="1.87377">
        <ele>162</ele>
        <time>2018-08-18T11:39:33Z</time>
      </trkpt>
      <trkpt lat="48.66616" lon="1.87373">
        <ele>162</ele>
        <time>2018-08-18T11:39:37Z</time>
      </trkpt>
      <trkpt lat="48.66623" lon="1.87369">
        <ele>162</ele>
        <time>2018-08-18T11:39:41Z</time>
      </trkpt>
      <trkpt lat="48.66628" lon="1.87367">
        <ele>162</ele>
        <time>2018-08-18T11:39:45Z</time>
      </trkpt>
      <trkpt lat="48.66634" lon="1.87365">
        <ele>162</ele>
        <time>2018-08-18T11:39:49Z</time>
      </trkpt>
      <trkpt lat="48.66641" lon="1.87362">
        <ele>162</ele>
        <time>2018-08-18T11:39:53Z</time>
      </trkpt>
      <trkpt lat="48.66647" lon="1.87359">
        <ele>164</ele>
        <time>2018-08-18T11:39:57Z</time>
      </trkpt>
      <trkpt lat="48.66653" lon="1.87357">
        <ele>164</ele>
        <time>2018-08-18T11:40:01Z</time>
      </trkpt>
      <trkpt lat="48.6666" lon="1.87353">
        <ele>164</ele>
        <time>2018-08-18T11:40:06Z</time>
      </trkpt>
      <trkpt lat="48.66666" lon="1.8735">
        <ele>164</ele>
        <time>2018-08-18T11:40:10Z</time>
      </trkpt>
      <trkpt lat="48.66672" lon="1.87347">
        <ele>164</ele>
        <time>2018-08-18T11:40:14Z</time>
      </trkpt>
      <trkpt lat="48.66679" lon="1.87345">
        <ele>164</ele>
        <time>2018-08-18T11:40:18Z</time>
      </trkpt>
      <trkpt lat="48.66686" lon="1.87343">
        <ele>164</ele>
        <time>2018-08-18T11:40:22Z</time>
      </trkpt>
      <trkpt lat="48.66691" lon="1.8734">
        <ele>164</ele>
        <time>2018-08-18T11:40:26Z</time>
      </trkpt>
      <trkpt lat="48.66696" lon="1.87337">
        <ele>164</ele>
        <time>2018-08-18T11:40:30Z</time>
      </trkpt>
      <trkpt lat="48.66701" lon="1.87335">
        <ele>164</ele>
        <time>2018-08-18T11:40:34Z</time>
      </trkpt>
      <trkpt lat="48.66706" lon="1.87331">
        <ele>164</ele>
        <time>2018-08-18T11:40:38Z</time>
      </trkpt>
      <trkpt lat="48.66711" lon="1.8733">
        <ele>164</ele>
        <time>2018-08-18T11:40:42Z</time>
      </trkpt>
      <trkpt lat="48.66719" lon="1.87329">
        <ele>164</ele>
        <time>2018-08-18T11:40:46Z</time>
      </trkpt>
      <trkpt lat="48.66726" lon="1.87325">
        <ele>164</ele>
        <time>2018-08-18T11:40:50Z</time>
      </trkpt>
      <trkpt lat="48.66732" lon="1.87322">
        <ele>164</ele>
        <time>2018-08-18T11:40:54Z</time>
      </trkpt>
      <trkpt lat="48.66739" lon="1.8732">
        <ele>164</ele>
        <time>2018-08-18T11:40:58Z</time>
      </trkpt>
      <trkpt lat="48.66746" lon="1.87318">
        <ele>164</ele>
        <time>2018-08-18T11:41:02Z</time>
      </trkpt>
      <trkpt lat="48.6675" lon="1.87313">
        <ele>164</ele>
        <time>2018-08-18T11:41:06Z</time>
      </trkpt>
      <trkpt lat="48.66756" lon="1.87309">
        <ele>164</ele>
        <time>2018-08-18T11:41:10Z</time>
      </trkpt>
      <trkpt lat="48.66761" lon="1.87305">
        <ele>164</ele>
        <time>2018-08-18T11:41:14Z</time>
      </trkpt>
      <trkpt lat="48.66768" lon="1.87302">
        <ele>164</ele>
        <time>2018-08-18T11:41:18Z</time>
      </trkpt>
      <trkpt lat="48.66775" lon="1.87299">
        <ele>164</ele>
        <time>2018-08-18T11:41:22Z</time>
      </trkpt>
      <trkpt lat="48.66782" lon="1.87296">
        <ele>164</ele>
        <time>2018-08-18T11:41:26Z</time>
      </trkpt>
      <trkpt lat="48.66789" lon="1.87294">
        <ele>164</ele>
        <time>2018-08-18T11:41:30Z</time>
      </trkpt>
      <trkpt lat="48.66795" lon="1.87292">
        <ele>164</ele>
        <time>2018-08-18T11:41:34Z</time>
      </trkpt>
      <trkpt lat="48.66798" lon="1.87291">
        <ele>164</ele>
        <time>2018-08-18T11:41:38Z</time>
      </trkpt>
      <trkpt lat="48.66803" lon="1.87289">
        <ele>164</ele>
        <time>2018-08-18T11:41:42Z</time>
      </trkpt>
      <trkpt lat="48.66811" lon="1.87286">
        <ele>164</ele>
        <time>2018-08-18T11:41:47Z</time>
      </trkpt>
      <trkpt lat="48.66815" lon="1.87283">
        <ele>164</ele>
        <time>2018-08-18T11:41:51Z</time>
      </trkpt>
      <trkpt lat="48.66819" lon="1.87281">
        <ele>161</ele>
        <time>2018-08-18T11:41:55Z</time>
      </trkpt>
      <trkpt lat="48.66826" lon="1.87278">
        <ele>160</ele>
        <time>2018-08-18T11:41:59Z</time>
      </trkpt>
      <trkpt lat="48.66833" lon="1.87274">
        <ele>160</ele>
        <time>2018-08-18T11:42:03Z</time>
      </trkpt>
      <trkpt lat="48.66839" lon="1.8727">
        <ele>160</ele>
        <time>2018-08-18T11:42:07Z</time>
      </trkpt>
      <trkpt lat="48.66846" lon="1.87267">
        <ele>160</ele>
        <time>2018-08-18T11:42:11Z</time>
      </trkpt>
      <trkpt lat="48.66853" lon="1.87263">
        <ele>160</ele>
        <time>2018-08-18T11:42:15Z</time>
      </trkpt>
      <trkpt lat="48.6686" lon="1.87258">
        <ele>161</ele>
        <time>2018-08-18T11:42:20Z</time>
      </trkpt>
      <trkpt lat="48.66865" lon="1.87256">
        <ele>161</ele>
        <time>2018-08-18T11:42:24Z</time>
      </trkpt>
      <trkpt lat="48.66871" lon="1.87253">
        <ele>161</ele>
        <time>2018-08-18T11:42:28Z</time>
      </trkpt>
      <trkpt lat="48.66879" lon="1.87249">
        <ele>161</ele>
        <time>2018-08-18T11:42:32Z</time>
      </trkpt>
      <trkpt lat="48.66884" lon="1.87247">
        <ele>162</ele>
        <time>2018-08-18T11:42:36Z</time>
      </trkpt>
      <trkpt lat="48.66892" lon="1.87242">
        <ele>163</ele>
        <time>2018-08-18T11:42:40Z</time>
      </trkpt>
      <trkpt lat="48.66896" lon="1.8724">
        <ele>164</ele>
        <time>2018-08-18T11:42:44Z</time>
      </trkpt>
      <trkpt lat="48.669" lon="1.87238">
        <ele>164</ele>
        <time>2018-08-18T11:42:48Z</time>
      </trkpt>
      <trkpt lat="48.66906" lon="1.87234">
        <ele>164</ele>
        <time>2018-08-18T11:42:52Z</time>
      </trkpt>
      <trkpt lat="48.66913" lon="1.87232">
        <ele>164</ele>
        <time>2018-08-18T11:42:56Z</time>
      </trkpt>
      <trkpt lat="48.66919" lon="1.8723">
        <ele>164</ele>
        <time>2018-08-18T11:43:00Z</time>
      </trkpt>
      <trkpt lat="48.66925" lon="1.8723">
        <ele>164</ele>
        <time>2018-08-18T11:43:04Z</time>
      </trkpt>
      <trkpt lat="48.6693" lon="1.8723">
        <ele>164</ele>
        <time>2018-08-18T11:43:08Z</time>
      </trkpt>
      <trkpt lat="48.66935" lon="1.87231">
        <ele>164</ele>
        <time>2018-08-18T11:43:12Z</time>
      </trkpt>
      <trkpt lat="48.66939" lon="1.8723">
        <ele>164</ele>
        <time>2018-08-18T11:43:16Z</time>
      </trkpt>
      <trkpt lat="48.66945" lon="1.87225">
        <ele>164</ele>
        <time>2018-08-18T11:43:20Z</time>
      </trkpt>
      <trkpt lat="48.66948" lon="1.87217">
        <ele>164</ele>
        <time>2018-08-18T11:43:25Z</time>
      </trkpt>
      <trkpt lat="48.6695" lon="1.87208">
        <ele>164</ele>
        <time>2018-08-18T11:43:29Z</time>
      </trkpt>
      <trkpt lat="48.66953" lon="1.87204">
        <ele>164</ele>
        <time>2018-08-18T11:43:33Z</time>
      </trkpt>
      <trkpt lat="48.66959" lon="1.87201">
        <ele>164</ele>
        <time>2018-08-18T11:43:37Z</time>
      </trkpt>
      <trkpt lat="48.66964" lon="1.87196">
        <ele>164</ele>
        <time>2018-08-18T11:43:41Z</time>
      </trkpt>
      <trkpt lat="48.6697" lon="1.87193">
        <ele>164</ele>
        <time>2018-08-18T11:43:45Z</time>
      </trkpt>
      <trkpt lat="48.66976" lon="1.87189">
        <ele>164</ele>
        <time>2018-08-18T11:43:49Z</time>
      </trkpt>
      <trkpt lat="48.66983" lon="1.87185">
        <ele>164</ele>
        <time>2018-08-18T11:43:54Z</time>
      </trkpt>
      <trkpt lat="48.66989" lon="1.87181">
        <ele>164</ele>
        <time>2018-08-18T11:43:58Z</time>
      </trkpt>
      <trkpt lat="48.66994" lon="1.87179">
        <ele>164</ele>
        <time>2018-08-18T11:44:02Z</time>
      </trkpt>
      <trkpt lat="48.66999" lon="1.87177">
        <ele>164</ele>
        <time>2018-08-18T11:44:06Z</time>
      </trkpt>
      <trkpt lat="48.67005" lon="1.87174">
        <ele>164</ele>
        <time>2018-08-18T11:44:10Z</time>
      </trkpt>
      <trkpt lat="48.67011" lon="1.8717">
        <ele>164</ele>
        <time>2018-08-18T11:44:14Z</time>
      </trkpt>
      <trkpt lat="48.67017" lon="1.87164">
        <ele>164</ele>
        <time>2018-08-18T11:44:19Z</time>
      </trkpt>
      <trkpt lat="48.67022" lon="1.87161">
        <ele>164</ele>
        <time>2018-08-18T11:44:23Z</time>
      </trkpt>
      <trkpt lat="48.67028" lon="1.87158">
        <ele>164</ele>
        <time>2018-08-18T11:44:27Z</time>
      </trkpt>
      <trkpt lat="48.67033" lon="1.87154">
        <ele>164</ele>
        <time>2018-08-18T11:44:31Z</time>
      </trkpt>
      <trkpt lat="48.67039" lon="1.87151">
        <ele>164</ele>
        <time>2018-08-18T11:44:35Z</time>
      </trkpt>
      <trkpt lat="48.67045" lon="1.87149">
        <ele>164</ele>
        <time>2018-08-18T11:44:39Z</time>
      </trkpt>
      <trkpt lat="48.6705" lon="1.87144">
        <ele>164</ele>
        <time>2018-08-18T11:44:43Z</time>
      </trkpt>
      <trkpt lat="48.67056" lon="1.8714">
        <ele>164</ele>
        <time>2018-08-18T11:44:47Z</time>
      </trkpt>
      <trkpt lat="48.6706" lon="1.87137">
        <ele>164</ele>
        <time>2018-08-18T11:44:51Z</time>
      </trkpt>
      <trkpt lat="48.67065" lon="1.87134">
        <ele>164</ele>
        <time>2018-08-18T11:44:55Z</time>
      </trkpt>
      <trkpt lat="48.67071" lon="1.87131">
        <ele>164</ele>
        <time>2018-08-18T11:44:59Z</time>
      </trkpt>
      <trkpt lat="48.67076" lon="1.87126">
        <ele>164</ele>
        <time>2018-08-18T11:45:03Z</time>
      </trkpt>
      <trkpt lat="48.67082" lon="1.87123">
        <ele>164</ele>
        <time>2018-08-18T11:45:07Z</time>
      </trkpt>
      <trkpt lat="48.67087" lon="1.8712">
        <ele>164</ele>
        <time>2018-08-18T11:45:11Z</time>
      </trkpt>
      <trkpt lat="48.67092" lon="1.87117">
        <ele>164</ele>
        <time>2018-08-18T11:45:15Z</time>
      </trkpt>
      <trkpt lat="48.67098" lon="1.87113">
        <ele>164</ele>
        <time>2018-08-18T11:45:19Z</time>
      </trkpt>
      <trkpt lat="48.67103" lon="1.87109">
        <ele>164</ele>
        <time>2018-08-18T11:45:23Z</time>
      </trkpt>
      <trkpt lat="48.67109" lon="1.87106">
        <ele>164</ele>
        <time>2018-08-18T11:45:27Z</time>
      </trkpt>
      <trkpt lat="48.67115" lon="1.87104">
        <ele>164</ele>
        <time>2018-08-18T11:45:31Z</time>
      </trkpt>
      <trkpt lat="48.6712" lon="1.87099">
        <ele>162</ele>
        <time>2018-08-18T11:45:35Z</time>
      </trkpt>
      <trkpt lat="48.67125" lon="1.87095">
        <ele>162</ele>
        <time>2018-08-18T11:45:39Z</time>
      </trkpt>
      <trkpt lat="48.67131" lon="1.87091">
        <ele>162</ele>
        <time>2018-08-18T11:45:43Z</time>
      </trkpt>
      <trkpt lat="48.67137" lon="1.87087">
        <ele>162</ele>
        <time>2018-08-18T11:45:47Z</time>
      </trkpt>
      <trkpt lat="48.67143" lon="1.87084">
        <ele>162</ele>
        <time>2018-08-18T11:45:51Z</time>
      </trkpt>
      <trkpt lat="48.67147" lon="1.8708">
        <ele>162</ele>
        <time>2018-08-18T11:45:55Z</time>
      </trkpt>
      <trkpt lat="48.67152" lon="1.87076">
        <ele>162</ele>
        <time>2018-08-18T11:45:59Z</time>
      </trkpt>
      <trkpt lat="48.67158" lon="1.87071">
        <ele>162</ele>
        <time>2018-08-18T11:46:03Z</time>
      </trkpt>
      <trkpt lat="48.67162" lon="1.87069">
        <ele>162</ele>
        <time>2018-08-18T11:46:07Z</time>
      </trkpt>
      <trkpt lat="48.67168" lon="1.87068">
        <ele>162</ele>
        <time>2018-08-18T11:46:11Z</time>
      </trkpt>
      <trkpt lat="48.67172" lon="1.87065">
        <ele>162</ele>
        <time>2018-08-18T11:46:15Z</time>
      </trkpt>
      <trkpt lat="48.67178" lon="1.87061">
        <ele>162</ele>
        <time>2018-08-18T11:46:19Z</time>
      </trkpt>
      <trkpt lat="48.67183" lon="1.87057">
        <ele>162</ele>
        <time>2018-08-18T11:46:23Z</time>
      </trkpt>
      <trkpt lat="48.67189" lon="1.87054">
        <ele>162</ele>
        <time>2018-08-18T11:46:27Z</time>
      </trkpt>
      <trkpt lat="48.67194" lon="1.87051">
        <ele>162</ele>
        <time>2018-08-18T11:46:31Z</time>
      </trkpt>
      <trkpt lat="48.67199" lon="1.87048">
        <ele>162</ele>
        <time>2018-08-18T11:46:35Z</time>
      </trkpt>
      <trkpt lat="48.67205" lon="1.87045">
        <ele>162</ele>
        <time>2018-08-18T11:46:39Z</time>
      </trkpt>
      <trkpt lat="48.67212" lon="1.87041">
        <ele>162</ele>
        <time>2018-08-18T11:46:43Z</time>
      </trkpt>
      <trkpt lat="48.67217" lon="1.87037">
        <ele>162</ele>
        <time>2018-08-18T11:46:47Z</time>
      </trkpt>
      <trkpt lat="48.67221" lon="1.87034">
        <ele>162</ele>
        <time>2018-08-18T11:46:51Z</time>
      </trkpt>
      <trkpt lat="48.67226" lon="1.87031">
        <ele>160</ele>
        <time>2018-08-18T11:46:55Z</time>
      </trkpt>
      <trkpt lat="48.67232" lon="1.87028">
        <ele>160</ele>
        <time>2018-08-18T11:46:59Z</time>
      </trkpt>
      <trkpt lat="48.67237" lon="1.87024">
        <ele>160</ele>
        <time>2018-08-18T11:47:03Z</time>
      </trkpt>
      <trkpt lat="48.67242" lon="1.87021">
        <ele>160</ele>
        <time>2018-08-18T11:47:07Z</time>
      </trkpt>
      <trkpt lat="48.67246" lon="1.87017">
        <ele>160</ele>
        <time>2018-08-18T11:47:11Z</time>
      </trkpt>
      <trkpt lat="48.67251" lon="1.87014">
        <ele>160</ele>
        <time>2018-08-18T11:47:15Z</time>
      </trkpt>
      <trkpt lat="48.67258" lon="1.87011">
        <ele>160</ele>
        <time>2018-08-18T11:47:19Z</time>
      </trkpt>
      <trkpt lat="48.67265" lon="1.87008">
        <ele>160</ele>
        <time>2018-08-18T11:47:23Z</time>
      </trkpt>
      <trkpt lat="48.67269" lon="1.87007">
        <ele>160</ele>
        <time>2018-08-18T11:47:27Z</time>
      </trkpt>
      <trkpt lat="48.67276" lon="1.87008">
        <ele>160</ele>
        <time>2018-08-18T11:47:31Z</time>
      </trkpt>
      <trkpt lat="48.67283" lon="1.87009">
        <ele>160</ele>
        <time>2018-08-18T11:47:35Z</time>
      </trkpt>
      <trkpt lat="48.67289" lon="1.8701">
        <ele>160</ele>
        <time>2018-08-18T11:47:39Z</time>
      </trkpt>
      <trkpt lat="48.67295" lon="1.87012">
        <ele>160</ele>
        <time>2018-08-18T11:47:43Z</time>
      </trkpt>
      <trkpt lat="48.67302" lon="1.87016">
        <ele>160</ele>
        <time>2018-08-18T11:47:48Z</time>
      </trkpt>
      <trkpt lat="48.67306" lon="1.87018">
        <ele>160</ele>
        <time>2018-08-18T11:47:52Z</time>
      </trkpt>
      <trkpt lat="48.67312" lon="1.87019">
        <ele>160</ele>
        <time>2018-08-18T11:47:56Z</time>
      </trkpt>
      <trkpt lat="48.67318" lon="1.87022">
        <ele>160</ele>
        <time>2018-08-18T11:48:01Z</time>
      </trkpt>
      <trkpt lat="48.67323" lon="1.87023">
        <ele>159</ele>
        <time>2018-08-18T11:48:05Z</time>
      </trkpt>
      <trkpt lat="48.67326" lon="1.87025">
        <ele>159</ele>
        <time>2018-08-18T11:48:09Z</time>
      </trkpt>
      <trkpt lat="48.6733" lon="1.87027">
        <ele>158</ele>
        <time>2018-08-18T11:48:13Z</time>
      </trkpt>
      <trkpt lat="48.67335" lon="1.87029">
        <ele>157</ele>
        <time>2018-08-18T11:48:17Z</time>
      </trkpt>
      <trkpt lat="48.67341" lon="1.87032">
        <ele>156</ele>
        <time>2018-08-18T11:48:21Z</time>
      </trkpt>
      <trkpt lat="48.67346" lon="1.87034">
        <ele>155</ele>
        <time>2018-08-18T11:48:25Z</time>
      </trkpt>
      <trkpt lat="48.67351" lon="1.87036">
        <ele>153</ele>
        <time>2018-08-18T11:48:29Z</time>
      </trkpt>
      <trkpt lat="48.6736" lon="1.87037">
        <ele>153</ele>
        <time>2018-08-18T11:48:33Z</time>
      </trkpt>
      <trkpt lat="48.67365" lon="1.87038">
        <ele>153</ele>
        <time>2018-08-18T11:48:37Z</time>
      </trkpt>
      <trkpt lat="48.67371" lon="1.87038">
        <ele>153</ele>
        <time>2018-08-18T11:48:41Z</time>
      </trkpt>
      <trkpt lat="48.67377" lon="1.87039">
        <ele>154</ele>
        <time>2018-08-18T11:48:45Z</time>
      </trkpt>
      <trkpt lat="48.67383" lon="1.87041">
        <ele>154</ele>
        <time>2018-08-18T11:48:49Z</time>
      </trkpt>
      <trkpt lat="48.6739" lon="1.87043">
        <ele>154</ele>
        <time>2018-08-18T11:48:53Z</time>
      </trkpt>
      <trkpt lat="48.67398" lon="1.87045">
        <ele>155</ele>
        <time>2018-08-18T11:48:57Z</time>
      </trkpt>
      <trkpt lat="48.67405" lon="1.87047">
        <ele>158</ele>
        <time>2018-08-18T11:49:01Z</time>
      </trkpt>
      <trkpt lat="48.67415" lon="1.87048">
        <ele>161</ele>
        <time>2018-08-18T11:49:06Z</time>
      </trkpt>
      <trkpt lat="48.6742" lon="1.87049">
        <ele>162</ele>
        <time>2018-08-18T11:49:10Z</time>
      </trkpt>
      <trkpt lat="48.67425" lon="1.87053">
        <ele>162</ele>
        <time>2018-08-18T11:49:15Z</time>
      </trkpt>
      <trkpt lat="48.67431" lon="1.87055">
        <ele>162</ele>
        <time>2018-08-18T11:49:19Z</time>
      </trkpt>
      <trkpt lat="48.67434" lon="1.87057">
        <ele>162</ele>
        <time>2018-08-18T11:49:23Z</time>
      </trkpt>
      <trkpt lat="48.67439" lon="1.87057">
        <ele>162</ele>
        <time>2018-08-18T11:49:27Z</time>
      </trkpt>
      <trkpt lat="48.67446" lon="1.87059">
        <ele>162</ele>
        <time>2018-08-18T11:49:32Z</time>
      </trkpt>
      <trkpt lat="48.67451" lon="1.8706">
        <ele>160</ele>
        <time>2018-08-18T11:49:37Z</time>
      </trkpt>
      <trkpt lat="48.67456" lon="1.87058">
        <ele>158</ele>
        <time>2018-08-18T11:49:41Z</time>
      </trkpt>
      <trkpt lat="48.67465" lon="1.87055">
        <ele>157</ele>
        <time>2018-08-18T11:49:46Z</time>
      </trkpt>
      <trkpt lat="48.6747" lon="1.87058">
        <ele>157</ele>
        <time>2018-08-18T11:49:50Z</time>
      </trkpt>
      <trkpt lat="48.67472" lon="1.87066">
        <ele>158</ele>
        <time>2018-08-18T11:49:56Z</time>
      </trkpt>
      <trkpt lat="48.67471" lon="1.87074">
        <ele>159</ele>
        <time>2018-08-18T11:50:00Z</time>
      </trkpt>
      <trkpt lat="48.67473" lon="1.87082">
        <ele>161</ele>
        <time>2018-08-18T11:50:04Z</time>
      </trkpt>
      <trkpt lat="48.67476" lon="1.8709">
        <ele>162</ele>
        <time>2018-08-18T11:50:08Z</time>
      </trkpt>
      <trkpt lat="48.6748" lon="1.87095">
        <ele>162</ele>
        <time>2018-08-18T11:50:13Z</time>
      </trkpt>
      <trkpt lat="48.67486" lon="1.87095">
        <ele>162</ele>
        <time>2018-08-18T11:50:18Z</time>
      </trkpt>
      <trkpt lat="48.67491" lon="1.87096">
        <ele>162</ele>
        <time>2018-08-18T11:50:22Z</time>
      </trkpt>
      <trkpt lat="48.67498" lon="1.87096">
        <ele>162</ele>
        <time>2018-08-18T11:50:26Z</time>
      </trkpt>
      <trkpt lat="48.67504" lon="1.87097">
        <ele>162</ele>
        <time>2018-08-18T11:50:30Z</time>
      </trkpt>
      <trkpt lat="48.67511" lon="1.87099">
        <ele>162</ele>
        <time>2018-08-18T11:50:35Z</time>
      </trkpt>
      <trkpt lat="48.67517" lon="1.871">
        <ele>162</ele>
        <time>2018-08-18T11:50:40Z</time>
      </trkpt>
      <trkpt lat="48.67527" lon="1.87102">
        <ele>162</ele>
        <time>2018-08-18T11:50:45Z</time>
      </trkpt>
      <trkpt lat="48.67534" lon="1.87103">
        <ele>162</ele>
        <time>2018-08-18T11:50:50Z</time>
      </trkpt>
      <trkpt lat="48.67542" lon="1.87105">
        <ele>162</ele>
        <time>2018-08-18T11:50:55Z</time>
      </trkpt>
      <trkpt lat="48.67551" lon="1.87108">
        <ele>162</ele>
        <time>2018-08-18T11:51:00Z</time>
      </trkpt>
      <trkpt lat="48.67559" lon="1.87109">
        <ele>162</ele>
        <time>2018-08-18T11:51:05Z</time>
      </trkpt>
      <trkpt lat="48.67566" lon="1.8711">
        <ele>163</ele>
        <time>2018-08-18T11:51:10Z</time>
      </trkpt>
      <trkpt lat="48.67573" lon="1.87113">
        <ele>164</ele>
        <time>2018-08-18T11:51:15Z</time>
      </trkpt>
      <trkpt lat="48.6758" lon="1.87115">
        <ele>164</ele>
        <time>2018-08-18T11:51:20Z</time>
      </trkpt>
      <trkpt lat="48.67588" lon="1.87119">
        <ele>164</ele>
        <time>2018-08-18T11:51:25Z</time>
      </trkpt>
      <trkpt lat="48.67596" lon="1.87121">
        <ele>164</ele>
        <time>2018-08-18T11:51:30Z</time>
      </trkpt>
      <trkpt lat="48.67604" lon="1.87125">
        <ele>164</ele>
        <time>2018-08-18T11:51:35Z</time>
      </trkpt>
      <trkpt lat="48.67612" lon="1.87129">
        <ele>164</ele>
        <time>2018-08-18T11:51:40Z</time>
      </trkpt>
      <trkpt lat="48.67619" lon="1.87131">
        <ele>164</ele>
        <time>2018-08-18T11:51:45Z</time>
      </trkpt>
      <trkpt lat="48.67627" lon="1.87134">
        <ele>164</ele>
        <time>2018-08-18T11:51:50Z</time>
      </trkpt>
      <trkpt lat="48.67634" lon="1.87136">
        <ele>164</ele>
        <time>2018-08-18T11:51:55Z</time>
      </trkpt>
      <trkpt lat="48.67642" lon="1.87139">
        <ele>164</ele>
        <time>2018-08-18T11:52:00Z</time>
      </trkpt>
      <trkpt lat="48.67651" lon="1.87142">
        <ele>164</ele>
        <time>2018-08-18T11:52:05Z</time>
      </trkpt>
      <trkpt lat="48.67659" lon="1.87144">
        <ele>164</ele>
        <time>2018-08-18T11:52:10Z</time>
      </trkpt>
      <trkpt lat="48.67668" lon="1.87146">
        <ele>164</ele>
        <time>2018-08-18T11:52:15Z</time>
      </trkpt>
      <trkpt lat="48.67675" lon="1.87146">
        <ele>164</ele>
        <time>2018-08-18T11:52:20Z</time>
      </trkpt>
      <trkpt lat="48.67683" lon="1.87147">
        <ele>164</ele>
        <time>2018-08-18T11:52:25Z</time>
      </trkpt>
      <trkpt lat="48.67691" lon="1.87146">
        <ele>164</ele>
        <time>2018-08-18T11:52:30Z</time>
      </trkpt>
      <trkpt lat="48.67699" lon="1.87145">
        <ele>164</ele>
        <time>2018-08-18T11:52:35Z</time>
      </trkpt>
      <trkpt lat="48.67707" lon="1.87145">
        <ele>164</ele>
        <time>2018-08-18T11:52:40Z</time>
      </trkpt>
      <trkpt lat="48.67716" lon="1.87143">
        <ele>163</ele>
        <time>2018-08-18T11:52:45Z</time>
      </trkpt>
      <trkpt lat="48.67724" lon="1.87144">
        <ele>163</ele>
        <time>2018-08-18T11:52:50Z</time>
      </trkpt>
      <trkpt lat="48.67732" lon="1.87146">
        <ele>163</ele>
        <time>2018-08-18T11:52:55Z</time>
      </trkpt>
      <trkpt lat="48.67739" lon="1.87146">
        <ele>163</ele>
        <time>2018-08-18T11:53:00Z</time>
      </trkpt>
      <trkpt lat="48.67741" lon="1.87137">
        <ele>163</ele>
        <time>2018-08-18T11:53:05Z</time>
      </trkpt>
      <trkpt lat="48.67742" lon="1.87126">
        <ele>163</ele>
        <time>2018-08-18T11:53:10Z</time>
      </trkpt>
      <trkpt lat="48.6774" lon="1.87116">
        <ele>163</ele>
        <time>2018-08-18T11:53:16Z</time>
      </trkpt>
      <trkpt lat="48.67738" lon="1.8711">
        <ele>164</ele>
        <time>2018-08-18T11:53:22Z</time>
      </trkpt>
      <trkpt lat="48.67736" lon="1.87099">
        <ele>164</ele>
        <time>2018-08-18T11:53:27Z</time>
      </trkpt>
      <trkpt lat="48.67732" lon="1.87088">
        <ele>165</ele>
        <time>2018-08-18T11:53:32Z</time>
      </trkpt>
      <trkpt lat="48.67727" lon="1.87078">
        <ele>166</ele>
        <time>2018-08-18T11:53:37Z</time>
      </trkpt>
      <trkpt lat="48.67724" lon="1.87067">
        <ele>166</ele>
        <time>2018-08-18T11:53:42Z</time>
      </trkpt>
      <trkpt lat="48.67721" lon="1.87056">
        <ele>166</ele>
        <time>2018-08-18T11:53:47Z</time>
      </trkpt>
      <trkpt lat="48.67721" lon="1.87043">
        <ele>166</ele>
        <time>2018-08-18T11:53:52Z</time>
      </trkpt>
      <trkpt lat="48.67722" lon="1.87031">
        <ele>166</ele>
        <time>2018-08-18T11:53:57Z</time>
      </trkpt>
      <trkpt lat="48.67724" lon="1.8702">
        <ele>166</ele>
        <time>2018-08-18T11:54:02Z</time>
      </trkpt>
      <trkpt lat="48.67725" lon="1.87009">
        <ele>166</ele>
        <time>2018-08-18T11:54:07Z</time>
      </trkpt>
      <trkpt lat="48.67726" lon="1.86998">
        <ele>166</ele>
        <time>2018-08-18T11:54:13Z</time>
      </trkpt>
      <trkpt lat="48.67728" lon="1.86987">
        <ele>166</ele>
        <time>2018-08-18T11:54:18Z</time>
      </trkpt>
      <trkpt lat="48.67728" lon="1.86972">
        <ele>166</ele>
        <time>2018-08-18T11:54:23Z</time>
      </trkpt>
      <trkpt lat="48.67731" lon="1.86954">
        <ele>166</ele>
        <time>2018-08-18T11:54:28Z</time>
      </trkpt>
      <trkpt lat="48.67732" lon="1.86942">
        <ele>166</ele>
        <time>2018-08-18T11:54:33Z</time>
      </trkpt>
      <trkpt lat="48.67732" lon="1.86931">
        <ele>166</ele>
        <time>2018-08-18T11:54:38Z</time>
      </trkpt>
      <trkpt lat="48.67733" lon="1.86922">
        <ele>166</ele>
        <time>2018-08-18T11:54:43Z</time>
      </trkpt>
      <trkpt lat="48.67733" lon="1.86913">
        <ele>166</ele>
        <time>2018-08-18T11:54:48Z</time>
      </trkpt>
      <trkpt lat="48.67733" lon="1.86902">
        <ele>166</ele>
        <time>2018-08-18T11:54:53Z</time>
      </trkpt>
      <trkpt lat="48.67734" lon="1.86892">
        <ele>166</ele>
        <time>2018-08-18T11:54:58Z</time>
      </trkpt>
      <trkpt lat="48.67735" lon="1.86882">
        <ele>166</ele>
        <time>2018-08-18T11:55:03Z</time>
      </trkpt>
      <trkpt lat="48.67736" lon="1.86873">
        <ele>166</ele>
        <time>2018-08-18T11:55:07Z</time>
      </trkpt>
      <trkpt lat="48.67738" lon="1.86864">
        <ele>166</ele>
        <time>2018-08-18T11:55:11Z</time>
      </trkpt>
      <trkpt lat="48.6774" lon="1.86855">
        <ele>166</ele>
        <time>2018-08-18T11:55:15Z</time>
      </trkpt>
      <trkpt lat="48.67741" lon="1.86845">
        <ele>166</ele>
        <time>2018-08-18T11:55:19Z</time>
      </trkpt>
      <trkpt lat="48.67742" lon="1.86835">
        <ele>166</ele>
        <time>2018-08-18T11:55:23Z</time>
      </trkpt>
      <trkpt lat="48.67744" lon="1.86824">
        <ele>166</ele>
        <time>2018-08-18T11:55:28Z</time>
      </trkpt>
      <trkpt lat="48.67744" lon="1.86814">
        <ele>166</ele>
        <time>2018-08-18T11:55:32Z</time>
      </trkpt>
      <trkpt lat="48.67744" lon="1.86803">
        <ele>166</ele>
        <time>2018-08-18T11:55:36Z</time>
      </trkpt>
      <trkpt lat="48.67745" lon="1.86794">
        <ele>166</ele>
        <time>2018-08-18T11:55:40Z</time>
      </trkpt>
      <trkpt lat="48.67746" lon="1.86785">
        <ele>166</ele>
        <time>2018-08-18T11:55:44Z</time>
      </trkpt>
      <trkpt lat="48.67748" lon="1.86776">
        <ele>166</ele>
        <time>2018-08-18T11:55:48Z</time>
      </trkpt>
      <trkpt lat="48.67749" lon="1.86765">
        <ele>166</ele>
        <time>2018-08-18T11:55:53Z</time>
      </trkpt>
      <trkpt lat="48.6775" lon="1.86756">
        <ele>166</ele>
        <time>2018-08-18T11:55:58Z</time>
      </trkpt>
      <trkpt lat="48.67751" lon="1.86748">
        <ele>166</ele>
        <time>2018-08-18T11:56:02Z</time>
      </trkpt>
      <trkpt lat="48.67752" lon="1.86739">
        <ele>166</ele>
        <time>2018-08-18T11:56:06Z</time>
      </trkpt>
      <trkpt lat="48.67752" lon="1.8673">
        <ele>166</ele>
        <time>2018-08-18T11:56:10Z</time>
      </trkpt>
      <trkpt lat="48.67753" lon="1.86722">
        <ele>166</ele>
        <time>2018-08-18T11:56:14Z</time>
      </trkpt>
      <trkpt lat="48.67753" lon="1.86712">
        <ele>166</ele>
        <time>2018-08-18T11:56:18Z</time>
      </trkpt>
      <trkpt lat="48.67754" lon="1.86703">
        <ele>166</ele>
        <time>2018-08-18T11:56:22Z</time>
      </trkpt>
      <trkpt lat="48.67754" lon="1.86694">
        <ele>166</ele>
        <time>2018-08-18T11:56:26Z</time>
      </trkpt>
      <trkpt lat="48.67754" lon="1.86684">
        <ele>166</ele>
        <time>2018-08-18T11:56:30Z</time>
      </trkpt>
      <trkpt lat="48.67755" lon="1.86675">
        <ele>166</ele>
        <time>2018-08-18T11:56:34Z</time>
      </trkpt>
      <trkpt lat="48.67756" lon="1.86666">
        <ele>166</ele>
        <time>2018-08-18T11:56:38Z</time>
      </trkpt>
      <trkpt lat="48.67757" lon="1.86657">
        <ele>166</ele>
        <time>2018-08-18T11:56:42Z</time>
      </trkpt>
      <trkpt lat="48.67758" lon="1.86648">
        <ele>166</ele>
        <time>2018-08-18T11:56:46Z</time>
      </trkpt>
      <trkpt lat="48.67758" lon="1.8664">
        <ele>166</ele>
        <time>2018-08-18T11:56:50Z</time>
      </trkpt>
      <trkpt lat="48.67759" lon="1.86632">
        <ele>166</ele>
        <time>2018-08-18T11:56:54Z</time>
      </trkpt>
      <trkpt lat="48.67759" lon="1.86624">
        <ele>166</ele>
        <time>2018-08-18T11:56:58Z</time>
      </trkpt>
      <trkpt lat="48.67762" lon="1.86615">
        <ele>166</ele>
        <time>2018-08-18T11:57:02Z</time>
      </trkpt>
      <trkpt lat="48.67764" lon="1.86606">
        <ele>166</ele>
        <time>2018-08-18T11:57:06Z</time>
      </trkpt>
      <trkpt lat="48.67766" lon="1.86596">
        <ele>166</ele>
        <time>2018-08-18T11:57:10Z</time>
      </trkpt>
      <trkpt lat="48.67766" lon="1.86587">
        <ele>166</ele>
        <time>2018-08-18T11:57:14Z</time>
      </trkpt>
      <trkpt lat="48.67763" lon="1.86577">
        <ele>166</ele>
        <time>2018-08-18T11:57:18Z</time>
      </trkpt>
      <trkpt lat="48.67759" lon="1.86568">
        <ele>166</ele>
        <time>2018-08-18T11:57:22Z</time>
      </trkpt>
      <trkpt lat="48.67758" lon="1.8656">
        <ele>166</ele>
        <time>2018-08-18T11:57:26Z</time>
      </trkpt>
      <trkpt lat="48.67758" lon="1.86552">
        <ele>166</ele>
        <time>2018-08-18T11:57:30Z</time>
      </trkpt>
      <trkpt lat="48.67759" lon="1.86544">
        <ele>166</ele>
        <time>2018-08-18T11:57:34Z</time>
      </trkpt>
      <trkpt lat="48.6776" lon="1.86537">
        <ele>166</ele>
        <time>2018-08-18T11:57:38Z</time>
      </trkpt>
      <trkpt lat="48.67761" lon="1.86529">
        <ele>165</ele>
        <time>2018-08-18T11:57:42Z</time>
      </trkpt>
      <trkpt lat="48.67762" lon="1.8652">
        <ele>164</ele>
        <time>2018-08-18T11:57:46Z</time>
      </trkpt>
      <trkpt lat="48.67762" lon="1.86507">
        <ele>164</ele>
        <time>2018-08-18T11:57:50Z</time>
      </trkpt>
      <trkpt lat="48.6776" lon="1.86495">
        <ele>164</ele>
        <time>2018-08-18T11:57:54Z</time>
      </trkpt>
      <trkpt lat="48.67761" lon="1.86487">
        <ele>164</ele>
        <time>2018-08-18T11:57:58Z</time>
      </trkpt>
      <trkpt lat="48.67762" lon="1.86476">
        <ele>164</ele>
        <time>2018-08-18T11:58:02Z</time>
      </trkpt>
      <trkpt lat="48.67762" lon="1.86468">
        <ele>164</ele>
        <time>2018-08-18T11:58:06Z</time>
      </trkpt>
      <trkpt lat="48.67764" lon="1.8646">
        <ele>164</ele>
        <time>2018-08-18T11:58:10Z</time>
      </trkpt>
      <trkpt lat="48.67765" lon="1.86451">
        <ele>164</ele>
        <time>2018-08-18T11:58:14Z</time>
      </trkpt>
      <trkpt lat="48.67766" lon="1.86443">
        <ele>162</ele>
        <time>2018-08-18T11:58:18Z</time>
      </trkpt>
      <trkpt lat="48.67768" lon="1.86435">
        <ele>161</ele>
        <time>2018-08-18T11:58:22Z</time>
      </trkpt>
      <trkpt lat="48.67769" lon="1.86427">
        <ele>160</ele>
        <time>2018-08-18T11:58:26Z</time>
      </trkpt>
      <trkpt lat="48.67771" lon="1.86419">
        <ele>158</ele>
        <time>2018-08-18T11:58:30Z</time>
      </trkpt>
      <trkpt lat="48.67772" lon="1.86409">
        <ele>158</ele>
        <time>2018-08-18T11:58:34Z</time>
      </trkpt>
      <trkpt lat="48.6777" lon="1.86399">
        <ele>158</ele>
        <time>2018-08-18T11:58:38Z</time>
      </trkpt>
      <trkpt lat="48.67769" lon="1.86388">
        <ele>158</ele>
        <time>2018-08-18T11:58:42Z</time>
      </trkpt>
      <trkpt lat="48.67768" lon="1.86377">
        <ele>159</ele>
        <time>2018-08-18T11:58:46Z</time>
      </trkpt>
      <trkpt lat="48.67769" lon="1.86368">
        <ele>160</ele>
        <time>2018-08-18T11:58:50Z</time>
      </trkpt>
      <trkpt lat="48.6777" lon="1.86359">
        <ele>160</ele>
        <time>2018-08-18T11:58:54Z</time>
      </trkpt>
      <trkpt lat="48.6777" lon="1.86348">
        <ele>160</ele>
        <time>2018-08-18T11:58:58Z</time>
      </trkpt>
      <trkpt lat="48.6777" lon="1.86338">
        <ele>161</ele>
        <time>2018-08-18T11:59:02Z</time>
      </trkpt>
      <trkpt lat="48.6777" lon="1.86328">
        <ele>163</ele>
        <time>2018-08-18T11:59:06Z</time>
      </trkpt>
      <trkpt lat="48.6777" lon="1.86318">
        <ele>164</ele>
        <time>2018-08-18T11:59:10Z</time>
      </trkpt>
      <trkpt lat="48.6777" lon="1.86309">
        <ele>165</ele>
        <time>2018-08-18T11:59:14Z</time>
      </trkpt>
      <trkpt lat="48.6777" lon="1.86299">
        <ele>165</ele>
        <time>2018-08-18T11:59:18Z</time>
      </trkpt>
      <trkpt lat="48.6777" lon="1.86289">
        <ele>165</ele>
        <time>2018-08-18T11:59:22Z</time>
      </trkpt>
      <trkpt lat="48.67771" lon="1.8628">
        <ele>166</ele>
        <time>2018-08-18T11:59:26Z</time>
      </trkpt>
      <trkpt lat="48.67771" lon="1.86271">
        <ele>166</ele>
        <time>2018-08-18T11:59:30Z</time>
      </trkpt>
      <trkpt lat="48.6777" lon="1.86262">
        <ele>166</ele>
        <time>2018-08-18T11:59:34Z</time>
      </trkpt>
      <trkpt lat="48.67771" lon="1.86253">
        <ele>166</ele>
        <time>2018-08-18T11:59:38Z</time>
      </trkpt>
      <trkpt lat="48.67771" lon="1.86243">
        <ele>166</ele>
        <time>2018-08-18T11:59:42Z</time>
      </trkpt>
      <trkpt lat="48.67773" lon="1.86235">
        <ele>166</ele>
        <time>2018-08-18T11:59:46Z</time>
      </trkpt>
      <trkpt lat="48.67774" lon="1.86226">
        <ele>166</ele>
        <time>2018-08-18T11:59:50Z</time>
      </trkpt>
      <trkpt lat="48.67775" lon="1.86216">
        <ele>166</ele>
        <time>2018-08-18T11:59:54Z</time>
      </trkpt>
      <trkpt lat="48.67775" lon="1.86207">
        <ele>166</ele>
        <time>2018-08-18T11:59:58Z</time>
      </trkpt>
      <trkpt lat="48.67775" lon="1.86196">
        <ele>166</ele>
        <time>2018-08-18T12:00:02Z</time>
      </trkpt>
      <trkpt lat="48.67776" lon="1.86186">
        <ele>166</ele>
        <time>2018-08-18T12:00:06Z</time>
      </trkpt>
      <trkpt lat="48.67777" lon="1.86177">
        <ele>166</ele>
        <time>2018-08-18T12:00:10Z</time>
      </trkpt>
      <trkpt lat="48.67777" lon="1.86168">
        <ele>166</ele>
        <time>2018-08-18T12:00:14Z</time>
      </trkpt>
      <trkpt lat="48.67777" lon="1.8616">
        <ele>166</ele>
        <time>2018-08-18T12:00:18Z</time>
      </trkpt>
      <trkpt lat="48.67777" lon="1.8615">
        <ele>166</ele>
        <time>2018-08-18T12:00:22Z</time>
      </trkpt>
      <trkpt lat="48.67777" lon="1.8614">
        <ele>166</ele>
        <time>2018-08-18T12:00:26Z</time>
      </trkpt>
      <trkpt lat="48.67777" lon="1.86131">
        <ele>166</ele>
        <time>2018-08-18T12:00:30Z</time>
      </trkpt>
      <trkpt lat="48.67778" lon="1.86122">
        <ele>166</ele>
        <time>2018-08-18T12:00:34Z</time>
      </trkpt>
      <trkpt lat="48.67778" lon="1.86112">
        <ele>166</ele>
        <time>2018-08-18T12:00:38Z</time>
      </trkpt>
      <trkpt lat="48.67779" lon="1.86103">
        <ele>166</ele>
        <time>2018-08-18T12:00:42Z</time>
      </trkpt>
      <trkpt lat="48.6778" lon="1.86094">
        <ele>166</ele>
        <time>2018-08-18T12:00:46Z</time>
      </trkpt>
      <trkpt lat="48.67781" lon="1.86084">
        <ele>166</ele>
        <time>2018-08-18T12:00:50Z</time>
      </trkpt>
      <trkpt lat="48.67781" lon="1.86074">
        <ele>166</ele>
        <time>2018-08-18T12:00:54Z</time>
      </trkpt>
      <trkpt lat="48.67782" lon="1.86064">
        <ele>166</ele>
        <time>2018-08-18T12:00:58Z</time>
      </trkpt>
      <trkpt lat="48.67782" lon="1.86054">
        <ele>168</ele>
        <time>2018-08-18T12:01:02Z</time>
      </trkpt>
      <trkpt lat="48.67783" lon="1.86042">
        <ele>168</ele>
        <time>2018-08-18T12:01:07Z</time>
      </trkpt>
      <trkpt lat="48.67783" lon="1.86033">
        <ele>168</ele>
        <time>2018-08-18T12:01:11Z</time>
      </trkpt>
      <trkpt lat="48.67784" lon="1.86023">
        <ele>168</ele>
        <time>2018-08-18T12:01:15Z</time>
      </trkpt>
      <trkpt lat="48.67785" lon="1.86011">
        <ele>168</ele>
        <time>2018-08-18T12:01:20Z</time>
      </trkpt>
      <trkpt lat="48.67785" lon="1.86002">
        <ele>168</ele>
        <time>2018-08-18T12:01:24Z</time>
      </trkpt>
      <trkpt lat="48.67786" lon="1.85992">
        <ele>168</ele>
        <time>2018-08-18T12:01:28Z</time>
      </trkpt>
      <trkpt lat="48.67786" lon="1.85982">
        <ele>168</ele>
        <time>2018-08-18T12:01:32Z</time>
      </trkpt>
      <trkpt lat="48.67787" lon="1.85973">
        <ele>168</ele>
        <time>2018-08-18T12:01:36Z</time>
      </trkpt>
      <trkpt lat="48.67788" lon="1.85963">
        <ele>168</ele>
        <time>2018-08-18T12:01:40Z</time>
      </trkpt>
      <trkpt lat="48.67788" lon="1.85954">
        <ele>168</ele>
        <time>2018-08-18T12:01:44Z</time>
      </trkpt>
      <trkpt lat="48.67788" lon="1.85944">
        <ele>168</ele>
        <time>2018-08-18T12:01:48Z</time>
      </trkpt>
      <trkpt lat="48.67789" lon="1.85935">
        <ele>168</ele>
        <time>2018-08-18T12:01:52Z</time>
      </trkpt>
      <trkpt lat="48.67789" lon="1.85926">
        <ele>168</ele>
        <time>2018-08-18T12:01:56Z</time>
      </trkpt>
      <trkpt lat="48.67789" lon="1.85918">
        <ele>168</ele>
        <time>2018-08-18T12:02:00Z</time>
      </trkpt>
      <trkpt lat="48.6779" lon="1.85907">
        <ele>168</ele>
        <time>2018-08-18T12:02:04Z</time>
      </trkpt>
      <trkpt lat="48.6779" lon="1.85897">
        <ele>168</ele>
        <time>2018-08-18T12:02:08Z</time>
      </trkpt>
      <trkpt lat="48.67791" lon="1.85888">
        <ele>168</ele>
        <time>2018-08-18T12:02:12Z</time>
      </trkpt>
      <trkpt lat="48.67791" lon="1.85879">
        <ele>168</ele>
        <time>2018-08-18T12:02:16Z</time>
      </trkpt>
      <trkpt lat="48.67791" lon="1.8587">
        <ele>168</ele>
        <time>2018-08-18T12:02:20Z</time>
      </trkpt>
      <trkpt lat="48.6779" lon="1.85861">
        <ele>168</ele>
        <time>2018-08-18T12:02:24Z</time>
      </trkpt>
      <trkpt lat="48.67784" lon="1.85852">
        <ele>168</ele>
        <time>2018-08-18T12:02:29Z</time>
      </trkpt>
      <trkpt lat="48.67776" lon="1.85847">
        <ele>168</ele>
        <time>2018-08-18T12:02:34Z</time>
      </trkpt>
      <trkpt lat="48.6777" lon="1.85844">
        <ele>168</ele>
        <time>2018-08-18T12:02:38Z</time>
      </trkpt>
      <trkpt lat="48.67767" lon="1.85842">
        <ele>169</ele>
        <time>2018-08-18T12:02:54Z</time>
      </trkpt>
      <trkpt lat="48.67765" lon="1.85841">
        <ele>172</ele>
        <time>2018-08-18T12:03:12Z</time>
      </trkpt>
      <trkpt lat="48.67761" lon="1.85839">
        <ele>173</ele>
        <time>2018-08-18T12:03:17Z</time>
      </trkpt>
      <trkpt lat="48.67755" lon="1.85837">
        <ele>173</ele>
        <time>2018-08-18T12:03:21Z</time>
      </trkpt>
      <trkpt lat="48.67749" lon="1.85835">
        <ele>173</ele>
        <time>2018-08-18T12:03:25Z</time>
      </trkpt>
      <trkpt lat="48.67743" lon="1.85832">
        <ele>173</ele>
        <time>2018-08-18T12:03:29Z</time>
      </trkpt>
      <trkpt lat="48.67737" lon="1.85829">
        <ele>173</ele>
        <time>2018-08-18T12:03:33Z</time>
      </trkpt>
      <trkpt lat="48.6773" lon="1.85827">
        <ele>173</ele>
        <time>2018-08-18T12:03:37Z</time>
      </trkpt>
      <trkpt lat="48.67724" lon="1.85825">
        <ele>173</ele>
        <time>2018-08-18T12:03:41Z</time>
      </trkpt>
      <trkpt lat="48.67718" lon="1.85822">
        <ele>173</ele>
        <time>2018-08-18T12:03:45Z</time>
      </trkpt>
      <trkpt lat="48.67712" lon="1.85819">
        <ele>173</ele>
        <time>2018-08-18T12:03:49Z</time>
      </trkpt>
      <trkpt lat="48.67706" lon="1.85816">
        <ele>173</ele>
        <time>2018-08-18T12:03:53Z</time>
      </trkpt>
      <trkpt lat="48.67701" lon="1.85814">
        <ele>173</ele>
        <time>2018-08-18T12:03:57Z</time>
      </trkpt>
      <trkpt lat="48.67695" lon="1.85813">
        <ele>173</ele>
        <time>2018-08-18T12:04:01Z</time>
      </trkpt>
      <trkpt lat="48.67689" lon="1.8581">
        <ele>173</ele>
        <time>2018-08-18T12:04:05Z</time>
      </trkpt>
      <trkpt lat="48.67683" lon="1.85808">
        <ele>173</ele>
        <time>2018-08-18T12:04:09Z</time>
      </trkpt>
      <trkpt lat="48.67675" lon="1.85804">
        <ele>173</ele>
        <time>2018-08-18T12:04:14Z</time>
      </trkpt>
      <trkpt lat="48.67668" lon="1.85801">
        <ele>173</ele>
        <time>2018-08-18T12:04:19Z</time>
      </trkpt>
      <trkpt lat="48.67661" lon="1.85797">
        <ele>173</ele>
        <time>2018-08-18T12:04:24Z</time>
      </trkpt>
      <trkpt lat="48.67655" lon="1.85794">
        <ele>173</ele>
        <time>2018-08-18T12:04:28Z</time>
      </trkpt>
      <trkpt lat="48.67649" lon="1.85792">
        <ele>173</ele>
        <time>2018-08-18T12:04:32Z</time>
      </trkpt>
      <trkpt lat="48.67643" lon="1.85789">
        <ele>173</ele>
        <time>2018-08-18T12:04:36Z</time>
      </trkpt>
      <trkpt lat="48.67637" lon="1.85788">
        <ele>173</ele>
        <time>2018-08-18T12:04:40Z</time>
      </trkpt>
      <trkpt lat="48.67631" lon="1.85785">
        <ele>173</ele>
        <time>2018-08-18T12:04:44Z</time>
      </trkpt>
      <trkpt lat="48.67625" lon="1.85783">
        <ele>173</ele>
        <time>2018-08-18T12:04:48Z</time>
      </trkpt>
      <trkpt lat="48.67619" lon="1.85779">
        <ele>173</ele>
        <time>2018-08-18T12:04:52Z</time>
      </trkpt>
      <trkpt lat="48.67614" lon="1.85777">
        <ele>173</ele>
        <time>2018-08-18T12:04:56Z</time>
      </trkpt>
      <trkpt lat="48.67608" lon="1.85774">
        <ele>173</ele>
        <time>2018-08-18T12:05:00Z</time>
      </trkpt>
      <trkpt lat="48.67602" lon="1.85771">
        <ele>173</ele>
        <time>2018-08-18T12:05:04Z</time>
      </trkpt>
      <trkpt lat="48.67597" lon="1.85769">
        <ele>173</ele>
        <time>2018-08-18T12:05:08Z</time>
      </trkpt>
      <trkpt lat="48.67591" lon="1.85767">
        <ele>173</ele>
        <time>2018-08-18T12:05:12Z</time>
      </trkpt>
      <trkpt lat="48.67585" lon="1.85763">
        <ele>173</ele>
        <time>2018-08-18T12:05:16Z</time>
      </trkpt>
      <trkpt lat="48.6758" lon="1.8576">
        <ele>173</ele>
        <time>2018-08-18T12:05:20Z</time>
      </trkpt>
      <trkpt lat="48.67573" lon="1.85758">
        <ele>173</ele>
        <time>2018-08-18T12:05:24Z</time>
      </trkpt>
      <trkpt lat="48.67567" lon="1.85755">
        <ele>173</ele>
        <time>2018-08-18T12:05:28Z</time>
      </trkpt>
      <trkpt lat="48.67561" lon="1.85752">
        <ele>173</ele>
        <time>2018-08-18T12:05:32Z</time>
      </trkpt>
      <trkpt lat="48.67555" lon="1.85749">
        <ele>173</ele>
        <time>2018-08-18T12:05:36Z</time>
      </trkpt>
      <trkpt lat="48.67549" lon="1.85746">
        <ele>173</ele>
        <time>2018-08-18T12:05:40Z</time>
      </trkpt>
      <trkpt lat="48.67543" lon="1.85743">
        <ele>173</ele>
        <time>2018-08-18T12:05:44Z</time>
      </trkpt>
      <trkpt lat="48.67536" lon="1.8574">
        <ele>173</ele>
        <time>2018-08-18T12:05:48Z</time>
      </trkpt>
      <trkpt lat="48.6753" lon="1.85737">
        <ele>173</ele>
        <time>2018-08-18T12:05:52Z</time>
      </trkpt>
      <trkpt lat="48.67524" lon="1.85734">
        <ele>173</ele>
        <time>2018-08-18T12:05:56Z</time>
      </trkpt>
      <trkpt lat="48.67518" lon="1.85732">
        <ele>173</ele>
        <time>2018-08-18T12:06:00Z</time>
      </trkpt>
      <trkpt lat="48.67512" lon="1.85729">
        <ele>173</ele>
        <time>2018-08-18T12:06:04Z</time>
      </trkpt>
      <trkpt lat="48.67506" lon="1.85726">
        <ele>173</ele>
        <time>2018-08-18T12:06:08Z</time>
      </trkpt>
      <trkpt lat="48.675" lon="1.85723">
        <ele>173</ele>
        <time>2018-08-18T12:06:12Z</time>
      </trkpt>
      <trkpt lat="48.67494" lon="1.85721">
        <ele>173</ele>
        <time>2018-08-18T12:06:16Z</time>
      </trkpt>
      <trkpt lat="48.67487" lon="1.85718">
        <ele>173</ele>
        <time>2018-08-18T12:06:20Z</time>
      </trkpt>
      <trkpt lat="48.67481" lon="1.85715">
        <ele>173</ele>
        <time>2018-08-18T12:06:24Z</time>
      </trkpt>
      <trkpt lat="48.67475" lon="1.85712">
        <ele>173</ele>
        <time>2018-08-18T12:06:28Z</time>
      </trkpt>
      <trkpt lat="48.67469" lon="1.85709">
        <ele>173</ele>
        <time>2018-08-18T12:06:32Z</time>
      </trkpt>
      <trkpt lat="48.67463" lon="1.85707">
        <ele>173</ele>
        <time>2018-08-18T12:06:36Z</time>
      </trkpt>
      <trkpt lat="48.67458" lon="1.85704">
        <ele>173</ele>
        <time>2018-08-18T12:06:40Z</time>
      </trkpt>
      <trkpt lat="48.67453" lon="1.85699">
        <ele>173</ele>
        <time>2018-08-18T12:06:44Z</time>
      </trkpt>
      <trkpt lat="48.6745" lon="1.85691">
        <ele>173</ele>
        <time>2018-08-18T12:06:48Z</time>
      </trkpt>
      <trkpt lat="48.67449" lon="1.85682">
        <ele>173</ele>
        <time>2018-08-18T12:06:52Z</time>
      </trkpt>
      <trkpt lat="48.67449" lon="1.85672">
        <ele>173</ele>
        <time>2018-08-18T12:06:56Z</time>
      </trkpt>
      <trkpt lat="48.67451" lon="1.85662">
        <ele>173</ele>
        <time>2018-08-18T12:07:00Z</time>
      </trkpt>
      <trkpt lat="48.67452" lon="1.85653">
        <ele>173</ele>
        <time>2018-08-18T12:07:04Z</time>
      </trkpt>
      <trkpt lat="48.67453" lon="1.85643">
        <ele>173</ele>
        <time>2018-08-18T12:07:08Z</time>
      </trkpt>
      <trkpt lat="48.67453" lon="1.85634">
        <ele>172</ele>
        <time>2018-08-18T12:07:12Z</time>
      </trkpt>
      <trkpt lat="48.67454" lon="1.85624">
        <ele>172</ele>
        <time>2018-08-18T12:07:16Z</time>
      </trkpt>
      <trkpt lat="48.67455" lon="1.85615">
        <ele>172</ele>
        <time>2018-08-18T12:07:20Z</time>
      </trkpt>
      <trkpt lat="48.67455" lon="1.85606">
        <ele>172</ele>
        <time>2018-08-18T12:07:24Z</time>
      </trkpt>
      <trkpt lat="48.67455" lon="1.85596">
        <ele>172</ele>
        <time>2018-08-18T12:07:28Z</time>
      </trkpt>
      <trkpt lat="48.67456" lon="1.85586">
        <ele>172</ele>
        <time>2018-08-18T12:07:32Z</time>
      </trkpt>
      <trkpt lat="48.67456" lon="1.85576">
        <ele>172</ele>
        <time>2018-08-18T12:07:36Z</time>
      </trkpt>
      <trkpt lat="48.67457" lon="1.85567">
        <ele>172</ele>
        <time>2018-08-18T12:07:40Z</time>
      </trkpt>
      <trkpt lat="48.67458" lon="1.85557">
        <ele>172</ele>
        <time>2018-08-18T12:07:44Z</time>
      </trkpt>
      <trkpt lat="48.67458" lon="1.85547">
        <ele>172</ele>
        <time>2018-08-18T12:07:48Z</time>
      </trkpt>
      <trkpt lat="48.6746" lon="1.85538">
        <ele>172</ele>
        <time>2018-08-18T12:07:52Z</time>
      </trkpt>
      <trkpt lat="48.6746" lon="1.85529">
        <ele>172</ele>
        <time>2018-08-18T12:07:56Z</time>
      </trkpt>
      <trkpt lat="48.67461" lon="1.85519">
        <ele>172</ele>
        <time>2018-08-18T12:08:00Z</time>
      </trkpt>
      <trkpt lat="48.67461" lon="1.8551">
        <ele>172</ele>
        <time>2018-08-18T12:08:04Z</time>
      </trkpt>
      <trkpt lat="48.67462" lon="1.855">
        <ele>172</ele>
        <time>2018-08-18T12:08:08Z</time>
      </trkpt>
      <trkpt lat="48.67463" lon="1.85491">
        <ele>172</ele>
        <time>2018-08-18T12:08:12Z</time>
      </trkpt>
      <trkpt lat="48.67464" lon="1.85482">
        <ele>172</ele>
        <time>2018-08-18T12:08:16Z</time>
      </trkpt>
      <trkpt lat="48.67464" lon="1.85473">
        <ele>172</ele>
        <time>2018-08-18T12:08:20Z</time>
      </trkpt>
      <trkpt lat="48.67464" lon="1.85464">
        <ele>172</ele>
        <time>2018-08-18T12:08:24Z</time>
      </trkpt>
      <trkpt lat="48.67464" lon="1.85456">
        <ele>172</ele>
        <time>2018-08-18T12:08:28Z</time>
      </trkpt>
      <trkpt lat="48.67466" lon="1.85447">
        <ele>172</ele>
        <time>2018-08-18T12:08:32Z</time>
      </trkpt>
      <trkpt lat="48.67466" lon="1.85437">
        <ele>171</ele>
        <time>2018-08-18T12:08:36Z</time>
      </trkpt>
      <trkpt lat="48.67466" lon="1.85427">
        <ele>171</ele>
        <time>2018-08-18T12:08:40Z</time>
      </trkpt>
      <trkpt lat="48.67467" lon="1.85417">
        <ele>171</ele>
        <time>2018-08-18T12:08:44Z</time>
      </trkpt>
      <trkpt lat="48.67467" lon="1.85407">
        <ele>171</ele>
        <time>2018-08-18T12:08:48Z</time>
      </trkpt>
      <trkpt lat="48.67467" lon="1.85397">
        <ele>171</ele>
        <time>2018-08-18T12:08:52Z</time>
      </trkpt>
      <trkpt lat="48.67468" lon="1.85387">
        <ele>171</ele>
        <time>2018-08-18T12:08:56Z</time>
      </trkpt>
      <trkpt lat="48.67468" lon="1.85378">
        <ele>171</ele>
        <time>2018-08-18T12:09:00Z</time>
      </trkpt>
      <trkpt lat="48.67469" lon="1.85368">
        <ele>171</ele>
        <time>2018-08-18T12:09:04Z</time>
      </trkpt>
      <trkpt lat="48.67469" lon="1.85359">
        <ele>171</ele>
        <time>2018-08-18T12:09:08Z</time>
      </trkpt>
      <trkpt lat="48.6747" lon="1.85351">
        <ele>171</ele>
        <time>2018-08-18T12:09:12Z</time>
      </trkpt>
      <trkpt lat="48.6747" lon="1.85341">
        <ele>171</ele>
        <time>2018-08-18T12:09:16Z</time>
      </trkpt>
      <trkpt lat="48.67471" lon="1.85331">
        <ele>171</ele>
        <time>2018-08-18T12:09:20Z</time>
      </trkpt>
      <trkpt lat="48.67471" lon="1.85322">
        <ele>171</ele>
        <time>2018-08-18T12:09:24Z</time>
      </trkpt>
      <trkpt lat="48.67472" lon="1.85313">
        <ele>171</ele>
        <time>2018-08-18T12:09:28Z</time>
      </trkpt>
      <trkpt lat="48.67473" lon="1.85304">
        <ele>171</ele>
        <time>2018-08-18T12:09:32Z</time>
      </trkpt>
      <trkpt lat="48.67473" lon="1.85294">
        <ele>171</ele>
        <time>2018-08-18T12:09:36Z</time>
      </trkpt>
      <trkpt lat="48.67474" lon="1.85285">
        <ele>171</ele>
        <time>2018-08-18T12:09:40Z</time>
      </trkpt>
      <trkpt lat="48.67474" lon="1.85276">
        <ele>171</ele>
        <time>2018-08-18T12:09:44Z</time>
      </trkpt>
      <trkpt lat="48.67475" lon="1.85266">
        <ele>171</ele>
        <time>2018-08-18T12:09:48Z</time>
      </trkpt>
      <trkpt lat="48.67476" lon="1.85257">
        <ele>171</ele>
        <time>2018-08-18T12:09:52Z</time>
      </trkpt>
      <trkpt lat="48.67476" lon="1.85247">
        <ele>171</ele>
        <time>2018-08-18T12:09:56Z</time>
      </trkpt>
      <trkpt lat="48.67476" lon="1.85238">
        <ele>171</ele>
        <time>2018-08-18T12:10:00Z</time>
      </trkpt>
      <trkpt lat="48.67477" lon="1.85229">
        <ele>171</ele>
        <time>2018-08-18T12:10:04Z</time>
      </trkpt>
      <trkpt lat="48.67477" lon="1.85219">
        <ele>171</ele>
        <time>2018-08-18T12:10:08Z</time>
      </trkpt>
      <trkpt lat="48.67478" lon="1.8521">
        <ele>171</ele>
        <time>2018-08-18T12:10:12Z</time>
      </trkpt>
      <trkpt lat="48.67478" lon="1.852">
        <ele>170</ele>
        <time>2018-08-18T12:10:16Z</time>
      </trkpt>
      <trkpt lat="48.67479" lon="1.85191">
        <ele>170</ele>
        <time>2018-08-18T12:10:20Z</time>
      </trkpt>
      <trkpt lat="48.67478" lon="1.85183">
        <ele>170</ele>
        <time>2018-08-18T12:10:24Z</time>
      </trkpt>
      <trkpt lat="48.67478" lon="1.85175">
        <ele>170</ele>
        <time>2018-08-18T12:10:28Z</time>
      </trkpt>
      <trkpt lat="48.67479" lon="1.85166">
        <ele>170</ele>
        <time>2018-08-18T12:10:32Z</time>
      </trkpt>
      <trkpt lat="48.67479" lon="1.85163">
        <ele>170</ele>
        <time>2018-08-18T12:10:36Z</time>
      </trkpt>
      <trkpt lat="48.67479" lon="1.85156">
        <ele>170</ele>
        <time>2018-08-18T12:10:40Z</time>
      </trkpt>
      <trkpt lat="48.67479" lon="1.85147">
        <ele>170</ele>
        <time>2018-08-18T12:10:44Z</time>
      </trkpt>
      <trkpt lat="48.67479" lon="1.85137">
        <ele>170</ele>
        <time>2018-08-18T12:10:48Z</time>
      </trkpt>
      <trkpt lat="48.6748" lon="1.85129">
        <ele>170</ele>
        <time>2018-08-18T12:10:52Z</time>
      </trkpt>
      <trkpt lat="48.6748" lon="1.85124">
        <ele>170</ele>
        <time>2018-08-18T12:11:05Z</time>
      </trkpt>
      <trkpt lat="48.67481" lon="1.85117">
        <ele>170</ele>
        <time>2018-08-18T12:11:09Z</time>
      </trkpt>
      <trkpt lat="48.67482" lon="1.85109">
        <ele>169</ele>
        <time>2018-08-18T12:11:13Z</time>
      </trkpt>
      <trkpt lat="48.67482" lon="1.851">
        <ele>169</ele>
        <time>2018-08-18T12:11:17Z</time>
      </trkpt>
      <trkpt lat="48.67483" lon="1.85091">
        <ele>169</ele>
        <time>2018-08-18T12:11:21Z</time>
      </trkpt>
      <trkpt lat="48.67484" lon="1.85083">
        <ele>169</ele>
        <time>2018-08-18T12:11:25Z</time>
      </trkpt>
      <trkpt lat="48.67485" lon="1.85074">
        <ele>169</ele>
        <time>2018-08-18T12:11:29Z</time>
      </trkpt>
      <trkpt lat="48.67485" lon="1.85067">
        <ele>168</ele>
        <time>2018-08-18T12:11:33Z</time>
      </trkpt>
      <trkpt lat="48.67486" lon="1.85059">
        <ele>167</ele>
        <time>2018-08-18T12:11:38Z</time>
      </trkpt>
      <trkpt lat="48.67487" lon="1.85055">
        <ele>167</ele>
        <time>2018-08-18T12:11:43Z</time>
      </trkpt>
      <trkpt lat="48.67487" lon="1.85053">
        <ele>167</ele>
        <time>2018-08-18T12:11:47Z</time>
      </trkpt>
      <trkpt lat="48.67486" lon="1.85049">
        <ele>167</ele>
        <time>2018-08-18T12:11:52Z</time>
      </trkpt>
      <trkpt lat="48.67486" lon="1.85047">
        <ele>167</ele>
        <time>2018-08-18T12:11:56Z</time>
      </trkpt>
      <trkpt lat="48.67486" lon="1.85039">
        <ele>167</ele>
        <time>2018-08-18T12:12:01Z</time>
      </trkpt>
      <trkpt lat="48.67486" lon="1.85029">
        <ele>167</ele>
        <time>2018-08-18T12:12:07Z</time>
      </trkpt>
      <trkpt lat="48.6749" lon="1.85016">
        <ele>164</ele>
        <time>2018-08-18T12:12:11Z</time>
      </trkpt>
      <trkpt lat="48.67487" lon="1.85007">
        <ele>161</ele>
        <time>2018-08-18T12:12:16Z</time>
      </trkpt>
      <trkpt lat="48.67489" lon="1.85008">
        <ele>160</ele>
        <time>2018-08-18T12:12:31Z</time>
      </trkpt>
      <trkpt lat="48.6749" lon="1.85006">
        <ele>161</ele>
        <time>2018-08-18T12:12:39Z</time>
      </trkpt>
      <trkpt lat="48.67489" lon="1.85001">
        <ele>163</ele>
        <time>2018-08-18T12:12:43Z</time>
      </trkpt>
      <trkpt lat="48.6749" lon="1.84995">
        <ele>164</ele>
        <time>2018-08-18T12:12:47Z</time>
      </trkpt>
      <trkpt lat="48.6749" lon="1.8499">
        <ele>164</ele>
        <time>2018-08-18T12:12:51Z</time>
      </trkpt>
      <trkpt lat="48.6749" lon="1.84983">
        <ele>164</ele>
        <time>2018-08-18T12:12:56Z</time>
      </trkpt>
      <trkpt lat="48.67492" lon="1.84974">
        <ele>164</ele>
        <time>2018-08-18T12:13:01Z</time>
      </trkpt>
      <trkpt lat="48.67492" lon="1.84967">
        <ele>164</ele>
        <time>2018-08-18T12:13:05Z</time>
      </trkpt>
      <trkpt lat="48.67493" lon="1.84961">
        <ele>164</ele>
        <time>2018-08-18T12:13:09Z</time>
      </trkpt>
      <trkpt lat="48.67493" lon="1.84952">
        <ele>164</ele>
        <time>2018-08-18T12:13:13Z</time>
      </trkpt>
      <trkpt lat="48.67493" lon="1.84944">
        <ele>165</ele>
        <time>2018-08-18T12:13:17Z</time>
      </trkpt>
      <trkpt lat="48.67493" lon="1.84934">
        <ele>166</ele>
        <time>2018-08-18T12:13:21Z</time>
      </trkpt>
      <trkpt lat="48.67493" lon="1.84925">
        <ele>167</ele>
        <time>2018-08-18T12:13:25Z</time>
      </trkpt>
      <trkpt lat="48.67494" lon="1.84918">
        <ele>167</ele>
        <time>2018-08-18T12:13:29Z</time>
      </trkpt>
      <trkpt lat="48.67495" lon="1.8491">
        <ele>167</ele>
        <time>2018-08-18T12:13:33Z</time>
      </trkpt>
      <trkpt lat="48.67494" lon="1.84902">
        <ele>168</ele>
        <time>2018-08-18T12:13:37Z</time>
      </trkpt>
      <trkpt lat="48.67494" lon="1.84892">
        <ele>168</ele>
        <time>2018-08-18T12:13:42Z</time>
      </trkpt>
      <trkpt lat="48.67494" lon="1.84883">
        <ele>168</ele>
        <time>2018-08-18T12:13:46Z</time>
      </trkpt>
      <trkpt lat="48.67496" lon="1.84875">
        <ele>169</ele>
        <time>2018-08-18T12:13:50Z</time>
      </trkpt>
      <trkpt lat="48.67497" lon="1.84866">
        <ele>170</ele>
        <time>2018-08-18T12:13:54Z</time>
      </trkpt>
      <trkpt lat="48.67497" lon="1.84856">
        <ele>170</ele>
        <time>2018-08-18T12:13:58Z</time>
      </trkpt>
      <trkpt lat="48.67498" lon="1.84848">
        <ele>171</ele>
        <time>2018-08-18T12:14:02Z</time>
      </trkpt>
      <trkpt lat="48.67498" lon="1.8484">
        <ele>171</ele>
        <time>2018-08-18T12:14:06Z</time>
      </trkpt>
      <trkpt lat="48.67499" lon="1.84831">
        <ele>171</ele>
        <time>2018-08-18T12:14:10Z</time>
      </trkpt>
      <trkpt lat="48.67499" lon="1.84823">
        <ele>171</ele>
        <time>2018-08-18T12:14:14Z</time>
      </trkpt>
      <trkpt lat="48.67499" lon="1.84814">
        <ele>171</ele>
        <time>2018-08-18T12:14:18Z</time>
      </trkpt>
      <trkpt lat="48.675" lon="1.84804">
        <ele>172</ele>
        <time>2018-08-18T12:14:22Z</time>
      </trkpt>
      <trkpt lat="48.675" lon="1.84796">
        <ele>172</ele>
        <time>2018-08-18T12:14:26Z</time>
      </trkpt>
      <trkpt lat="48.67501" lon="1.84786">
        <ele>172</ele>
        <time>2018-08-18T12:14:30Z</time>
      </trkpt>
      <trkpt lat="48.67501" lon="1.84777">
        <ele>172</ele>
        <time>2018-08-18T12:14:34Z</time>
      </trkpt>
      <trkpt lat="48.675" lon="1.84768">
        <ele>172</ele>
        <time>2018-08-18T12:14:38Z</time>
      </trkpt>
      <trkpt lat="48.675" lon="1.84759">
        <ele>172</ele>
        <time>2018-08-18T12:14:42Z</time>
      </trkpt>
      <trkpt lat="48.67501" lon="1.84751">
        <ele>172</ele>
        <time>2018-08-18T12:14:46Z</time>
      </trkpt>
      <trkpt lat="48.67502" lon="1.84742">
        <ele>172</ele>
        <time>2018-08-18T12:14:50Z</time>
      </trkpt>
      <trkpt lat="48.67503" lon="1.84734">
        <ele>172</ele>
        <time>2018-08-18T12:14:54Z</time>
      </trkpt>
      <trkpt lat="48.67503" lon="1.84725">
        <ele>172</ele>
        <time>2018-08-18T12:14:58Z</time>
      </trkpt>
      <trkpt lat="48.67504" lon="1.84716">
        <ele>172</ele>
        <time>2018-08-18T12:15:02Z</time>
      </trkpt>
      <trkpt lat="48.67505" lon="1.84706">
        <ele>172</ele>
        <time>2018-08-18T12:15:06Z</time>
      </trkpt>
      <trkpt lat="48.67506" lon="1.84698">
        <ele>172</ele>
        <time>2018-08-18T12:15:10Z</time>
      </trkpt>
      <trkpt lat="48.67506" lon="1.84689">
        <ele>172</ele>
        <time>2018-08-18T12:15:14Z</time>
      </trkpt>
      <trkpt lat="48.67506" lon="1.8468">
        <ele>172</ele>
        <time>2018-08-18T12:15:18Z</time>
      </trkpt>
      <trkpt lat="48.67507" lon="1.84671">
        <ele>172</ele>
        <time>2018-08-18T12:15:22Z</time>
      </trkpt>
      <trkpt lat="48.67511" lon="1.84666">
        <ele>172</ele>
        <time>2018-08-18T12:15:26Z</time>
      </trkpt>
      <trkpt lat="48.67516" lon="1.84666">
        <ele>172</ele>
        <time>2018-08-18T12:15:30Z</time>
      </trkpt>
      <trkpt lat="48.67522" lon="1.84667">
        <ele>172</ele>
        <time>2018-08-18T12:15:34Z</time>
      </trkpt>
      <trkpt lat="48.67529" lon="1.8467">
        <ele>172</ele>
        <time>2018-08-18T12:15:38Z</time>
      </trkpt>
      <trkpt lat="48.67535" lon="1.84673">
        <ele>172</ele>
        <time>2018-08-18T12:15:42Z</time>
      </trkpt>
      <trkpt lat="48.67541" lon="1.84676">
        <ele>172</ele>
        <time>2018-08-18T12:15:46Z</time>
      </trkpt>
      <trkpt lat="48.67547" lon="1.84679">
        <ele>172</ele>
        <time>2018-08-18T12:15:50Z</time>
      </trkpt>
      <trkpt lat="48.67553" lon="1.84682">
        <ele>172</ele>
        <time>2018-08-18T12:15:54Z</time>
      </trkpt>
      <trkpt lat="48.67559" lon="1.84685">
        <ele>172</ele>
        <time>2018-08-18T12:15:58Z</time>
      </trkpt>
      <trkpt lat="48.67564" lon="1.84688">
        <ele>172</ele>
        <time>2018-08-18T12:16:02Z</time>
      </trkpt>
      <trkpt lat="48.6757" lon="1.84691">
        <ele>172</ele>
        <time>2018-08-18T12:16:06Z</time>
      </trkpt>
      <trkpt lat="48.67576" lon="1.84693">
        <ele>172</ele>
        <time>2018-08-18T12:16:10Z</time>
      </trkpt>
      <trkpt lat="48.67582" lon="1.84696">
        <ele>172</ele>
        <time>2018-08-18T12:16:14Z</time>
      </trkpt>
      <trkpt lat="48.67588" lon="1.84698">
        <ele>172</ele>
        <time>2018-08-18T12:16:18Z</time>
      </trkpt>
      <trkpt lat="48.67594" lon="1.84701">
        <ele>172</ele>
        <time>2018-08-18T12:16:22Z</time>
      </trkpt>
      <trkpt lat="48.676" lon="1.84705">
        <ele>172</ele>
        <time>2018-08-18T12:16:26Z</time>
      </trkpt>
      <trkpt lat="48.67606" lon="1.84707">
        <ele>172</ele>
        <time>2018-08-18T12:16:30Z</time>
      </trkpt>
      <trkpt lat="48.67612" lon="1.8471">
        <ele>172</ele>
        <time>2018-08-18T12:16:34Z</time>
      </trkpt>
      <trkpt lat="48.67617" lon="1.84712">
        <ele>172</ele>
        <time>2018-08-18T12:16:38Z</time>
      </trkpt>
      <trkpt lat="48.67622" lon="1.84715">
        <ele>172</ele>
        <time>2018-08-18T12:16:42Z</time>
      </trkpt>
      <trkpt lat="48.67628" lon="1.84718">
        <ele>172</ele>
        <time>2018-08-18T12:16:46Z</time>
      </trkpt>
      <trkpt lat="48.67634" lon="1.84721">
        <ele>171</ele>
        <time>2018-08-18T12:16:50Z</time>
      </trkpt>
      <trkpt lat="48.67641" lon="1.84724">
        <ele>171</ele>
        <time>2018-08-18T12:16:54Z</time>
      </trkpt>
      <trkpt lat="48.67646" lon="1.84727">
        <ele>170</ele>
        <time>2018-08-18T12:16:58Z</time>
      </trkpt>
      <trkpt lat="48.67653" lon="1.84731">
        <ele>170</ele>
        <time>2018-08-18T12:17:02Z</time>
      </trkpt>
      <trkpt lat="48.67658" lon="1.84734">
        <ele>170</ele>
        <time>2018-08-18T12:17:06Z</time>
      </trkpt>
      <trkpt lat="48.67664" lon="1.84736">
        <ele>170</ele>
        <time>2018-08-18T12:17:10Z</time>
      </trkpt>
      <trkpt lat="48.6767" lon="1.84739">
        <ele>170</ele>
        <time>2018-08-18T12:17:14Z</time>
      </trkpt>
      <trkpt lat="48.67675" lon="1.84742">
        <ele>170</ele>
        <time>2018-08-18T12:17:18Z</time>
      </trkpt>
      <trkpt lat="48.67681" lon="1.84745">
        <ele>170</ele>
        <time>2018-08-18T12:17:22Z</time>
      </trkpt>
      <trkpt lat="48.67687" lon="1.84748">
        <ele>170</ele>
        <time>2018-08-18T12:17:26Z</time>
      </trkpt>
      <trkpt lat="48.67693" lon="1.84751">
        <ele>170</ele>
        <time>2018-08-18T12:17:30Z</time>
      </trkpt>
      <trkpt lat="48.67699" lon="1.84754">
        <ele>170</ele>
        <time>2018-08-18T12:17:34Z</time>
      </trkpt>
      <trkpt lat="48.67705" lon="1.84757">
        <ele>170</ele>
        <time>2018-08-18T12:17:38Z</time>
      </trkpt>
      <trkpt lat="48.67711" lon="1.8476">
        <ele>170</ele>
        <time>2018-08-18T12:17:42Z</time>
      </trkpt>
      <trkpt lat="48.67717" lon="1.84763">
        <ele>170</ele>
        <time>2018-08-18T12:17:46Z</time>
      </trkpt>
      <trkpt lat="48.67723" lon="1.84766">
        <ele>170</ele>
        <time>2018-08-18T12:17:50Z</time>
      </trkpt>
      <trkpt lat="48.67729" lon="1.84769">
        <ele>170</ele>
        <time>2018-08-18T12:17:54Z</time>
      </trkpt>
      <trkpt lat="48.67734" lon="1.84773">
        <ele>170</ele>
        <time>2018-08-18T12:17:58Z</time>
      </trkpt>
      <trkpt lat="48.6774" lon="1.84777">
        <ele>170</ele>
        <time>2018-08-18T12:18:02Z</time>
      </trkpt>
      <trkpt lat="48.67746" lon="1.84779">
        <ele>170</ele>
        <time>2018-08-18T12:18:06Z</time>
      </trkpt>
      <trkpt lat="48.67751" lon="1.8478">
        <ele>170</ele>
        <time>2018-08-18T12:18:10Z</time>
      </trkpt>
      <trkpt lat="48.67757" lon="1.84782">
        <ele>170</ele>
        <time>2018-08-18T12:18:14Z</time>
      </trkpt>
      <trkpt lat="48.67764" lon="1.84786">
        <ele>170</ele>
        <time>2018-08-18T12:18:18Z</time>
      </trkpt>
      <trkpt lat="48.6777" lon="1.84789">
        <ele>170</ele>
        <time>2018-08-18T12:18:22Z</time>
      </trkpt>
      <trkpt lat="48.67776" lon="1.84792">
        <ele>170</ele>
        <time>2018-08-18T12:18:26Z</time>
      </trkpt>
      <trkpt lat="48.67781" lon="1.84795">
        <ele>170</ele>
        <time>2018-08-18T12:18:30Z</time>
      </trkpt>
      <trkpt lat="48.67786" lon="1.84797">
        <ele>170</ele>
        <time>2018-08-18T12:18:34Z</time>
      </trkpt>
      <trkpt lat="48.67792" lon="1.848">
        <ele>170</ele>
        <time>2018-08-18T12:18:38Z</time>
      </trkpt>
      <trkpt lat="48.67797" lon="1.84802">
        <ele>170</ele>
        <time>2018-08-18T12:18:42Z</time>
      </trkpt>
      <trkpt lat="48.67803" lon="1.84806">
        <ele>170</ele>
        <time>2018-08-18T12:18:46Z</time>
      </trkpt>
      <trkpt lat="48.67809" lon="1.84808">
        <ele>170</ele>
        <time>2018-08-18T12:18:50Z</time>
      </trkpt>
      <trkpt lat="48.67814" lon="1.84811">
        <ele>170</ele>
        <time>2018-08-18T12:18:54Z</time>
      </trkpt>
      <trkpt lat="48.67821" lon="1.84815">
        <ele>170</ele>
        <time>2018-08-18T12:18:59Z</time>
      </trkpt>
      <trkpt lat="48.67826" lon="1.84818">
        <ele>170</ele>
        <time>2018-08-18T12:19:03Z</time>
      </trkpt>
      <trkpt lat="48.67832" lon="1.8482">
        <ele>170</ele>
        <time>2018-08-18T12:19:07Z</time>
      </trkpt>
      <trkpt lat="48.67838" lon="1.84823">
        <ele>170</ele>
        <time>2018-08-18T12:19:11Z</time>
      </trkpt>
      <trkpt lat="48.67844" lon="1.84826">
        <ele>170</ele>
        <time>2018-08-18T12:19:15Z</time>
      </trkpt>
      <trkpt lat="48.6785" lon="1.84829">
        <ele>170</ele>
        <time>2018-08-18T12:19:19Z</time>
      </trkpt>
      <trkpt lat="48.67856" lon="1.84831">
        <ele>170</ele>
        <time>2018-08-18T12:19:24Z</time>
      </trkpt>
      <trkpt lat="48.67857" lon="1.84824">
        <ele>170</ele>
        <time>2018-08-18T12:19:28Z</time>
      </trkpt>
      <trkpt lat="48.67861" lon="1.84816">
        <ele>170</ele>
        <time>2018-08-18T12:19:33Z</time>
      </trkpt>
      <trkpt lat="48.67864" lon="1.84813">
        <ele>170</ele>
        <time>2018-08-18T12:19:40Z</time>
      </trkpt>
      <trkpt lat="48.67864" lon="1.84811">
        <ele>170</ele>
        <time>2018-08-18T12:19:45Z</time>
      </trkpt>
      <trkpt lat="48.67865" lon="1.84806">
        <ele>170</ele>
        <time>2018-08-18T12:19:50Z</time>
      </trkpt>
      <trkpt lat="48.67869" lon="1.84801">
        <ele>171</ele>
        <time>2018-08-18T12:19:54Z</time>
      </trkpt>
      <trkpt lat="48.67873" lon="1.84794">
        <ele>171</ele>
        <time>2018-08-18T12:19:58Z</time>
      </trkpt>
      <trkpt lat="48.67876" lon="1.84788">
        <ele>171</ele>
        <time>2018-08-18T12:20:02Z</time>
      </trkpt>
      <trkpt lat="48.6788" lon="1.84783">
        <ele>171</ele>
        <time>2018-08-18T12:20:06Z</time>
      </trkpt>
      <trkpt lat="48.67885" lon="1.84778">
        <ele>171</ele>
        <time>2018-08-18T12:20:10Z</time>
      </trkpt>
      <trkpt lat="48.67891" lon="1.84773">
        <ele>171</ele>
        <time>2018-08-18T12:20:15Z</time>
      </trkpt>
      <trkpt lat="48.67894" lon="1.84767">
        <ele>171</ele>
        <time>2018-08-18T12:20:19Z</time>
      </trkpt>
      <trkpt lat="48.67897" lon="1.84759">
        <ele>171</ele>
        <time>2018-08-18T12:20:23Z</time>
      </trkpt>
      <trkpt lat="48.67901" lon="1.84753">
        <ele>171</ele>
        <time>2018-08-18T12:20:27Z</time>
      </trkpt>
      <trkpt lat="48.67905" lon="1.84747">
        <ele>171</ele>
        <time>2018-08-18T12:20:31Z</time>
      </trkpt>
      <trkpt lat="48.67909" lon="1.84742">
        <ele>171</ele>
        <time>2018-08-18T12:20:35Z</time>
      </trkpt>
      <trkpt lat="48.67913" lon="1.84736">
        <ele>169</ele>
        <time>2018-08-18T12:20:39Z</time>
      </trkpt>
      <trkpt lat="48.67916" lon="1.84728">
        <ele>168</ele>
        <time>2018-08-18T12:20:43Z</time>
      </trkpt>
      <trkpt lat="48.6792" lon="1.84717">
        <ele>168</ele>
        <time>2018-08-18T12:20:47Z</time>
      </trkpt>
      <trkpt lat="48.67924" lon="1.84711">
        <ele>168</ele>
        <time>2018-08-18T12:20:52Z</time>
      </trkpt>
      <trkpt lat="48.67928" lon="1.84705">
        <ele>168</ele>
        <time>2018-08-18T12:20:56Z</time>
      </trkpt>
      <trkpt lat="48.67934" lon="1.84698">
        <ele>168</ele>
        <time>2018-08-18T12:21:00Z</time>
      </trkpt>
      <trkpt lat="48.67938" lon="1.84689">
        <ele>168</ele>
        <time>2018-08-18T12:21:04Z</time>
      </trkpt>
      <trkpt lat="48.67941" lon="1.84682">
        <ele>168</ele>
        <time>2018-08-18T12:21:08Z</time>
      </trkpt>
      <trkpt lat="48.67946" lon="1.84677">
        <ele>168</ele>
        <time>2018-08-18T12:21:12Z</time>
      </trkpt>
      <trkpt lat="48.6795" lon="1.8467">
        <ele>168</ele>
        <time>2018-08-18T12:21:16Z</time>
      </trkpt>
      <trkpt lat="48.67955" lon="1.84666">
        <ele>168</ele>
        <time>2018-08-18T12:21:20Z</time>
      </trkpt>
      <trkpt lat="48.67959" lon="1.8466">
        <ele>168</ele>
        <time>2018-08-18T12:21:24Z</time>
      </trkpt>
      <trkpt lat="48.67963" lon="1.84654">
        <ele>168</ele>
        <time>2018-08-18T12:21:28Z</time>
      </trkpt>
      <trkpt lat="48.67967" lon="1.8465">
        <ele>167</ele>
        <time>2018-08-18T12:21:32Z</time>
      </trkpt>
      <trkpt lat="48.67973" lon="1.84644">
        <ele>164</ele>
        <time>2018-08-18T12:21:37Z</time>
      </trkpt>
      <trkpt lat="48.67977" lon="1.84638">
        <ele>163</ele>
        <time>2018-08-18T12:21:41Z</time>
      </trkpt>
      <trkpt lat="48.67981" lon="1.84631">
        <ele>161</ele>
        <time>2018-08-18T12:21:45Z</time>
      </trkpt>
      <trkpt lat="48.67984" lon="1.84625">
        <ele>160</ele>
        <time>2018-08-18T12:21:49Z</time>
      </trkpt>
      <trkpt lat="48.67988" lon="1.84617">
        <ele>159</ele>
        <time>2018-08-18T12:21:53Z</time>
      </trkpt>
      <trkpt lat="48.67992" lon="1.84609">
        <ele>159</ele>
        <time>2018-08-18T12:21:57Z</time>
      </trkpt>
      <trkpt lat="48.67997" lon="1.84602">
        <ele>159</ele>
        <time>2018-08-18T12:22:01Z</time>
      </trkpt>
      <trkpt lat="48.68" lon="1.84594">
        <ele>159</ele>
        <time>2018-08-18T12:22:05Z</time>
      </trkpt>
      <trkpt lat="48.68004" lon="1.84586">
        <ele>159</ele>
        <time>2018-08-18T12:22:09Z</time>
      </trkpt>
      <trkpt lat="48.68008" lon="1.84578">
        <ele>159</ele>
        <time>2018-08-18T12:22:13Z</time>
      </trkpt>
      <trkpt lat="48.68013" lon="1.84571">
        <ele>159</ele>
        <time>2018-08-18T12:22:18Z</time>
      </trkpt>
      <trkpt lat="48.68017" lon="1.84565">
        <ele>159</ele>
        <time>2018-08-18T12:22:22Z</time>
      </trkpt>
      <trkpt lat="48.68021" lon="1.84559">
        <ele>159</ele>
        <time>2018-08-18T12:22:26Z</time>
      </trkpt>
      <trkpt lat="48.68025" lon="1.84551">
        <ele>159</ele>
        <time>2018-08-18T12:22:30Z</time>
      </trkpt>
      <trkpt lat="48.68029" lon="1.84545">
        <ele>159</ele>
        <time>2018-08-18T12:22:34Z</time>
      </trkpt>
      <trkpt lat="48.68034" lon="1.84537">
        <ele>159</ele>
        <time>2018-08-18T12:22:39Z</time>
      </trkpt>
      <trkpt lat="48.68037" lon="1.84528">
        <ele>159</ele>
        <time>2018-08-18T12:22:43Z</time>
      </trkpt>
      <trkpt lat="48.68041" lon="1.84519">
        <ele>160</ele>
        <time>2018-08-18T12:22:47Z</time>
      </trkpt>
      <trkpt lat="48.68045" lon="1.84513">
        <ele>161</ele>
        <time>2018-08-18T12:22:51Z</time>
      </trkpt>
      <trkpt lat="48.6805" lon="1.84506">
        <ele>161</ele>
        <time>2018-08-18T12:22:56Z</time>
      </trkpt>
      <trkpt lat="48.68053" lon="1.84498">
        <ele>161</ele>
        <time>2018-08-18T12:23:00Z</time>
      </trkpt>
      <trkpt lat="48.68058" lon="1.84491">
        <ele>161</ele>
        <time>2018-08-18T12:23:04Z</time>
      </trkpt>
      <trkpt lat="48.68062" lon="1.84486">
        <ele>161</ele>
        <time>2018-08-18T12:23:08Z</time>
      </trkpt>
      <trkpt lat="48.68067" lon="1.84482">
        <ele>161</ele>
        <time>2018-08-18T12:23:12Z</time>
      </trkpt>
      <trkpt lat="48.68072" lon="1.84476">
        <ele>161</ele>
        <time>2018-08-18T12:23:17Z</time>
      </trkpt>
      <trkpt lat="48.68075" lon="1.8447">
        <ele>161</ele>
        <time>2018-08-18T12:23:21Z</time>
      </trkpt>
      <trkpt lat="48.68079" lon="1.84462">
        <ele>161</ele>
        <time>2018-08-18T12:23:25Z</time>
      </trkpt>
      <trkpt lat="48.68081" lon="1.84452">
        <ele>161</ele>
        <time>2018-08-18T12:23:29Z</time>
      </trkpt>
      <trkpt lat="48.68083" lon="1.84443">
        <ele>161</ele>
        <time>2018-08-18T12:23:33Z</time>
      </trkpt>
      <trkpt lat="48.68088" lon="1.84436">
        <ele>161</ele>
        <time>2018-08-18T12:23:38Z</time>
      </trkpt>
      <trkpt lat="48.68093" lon="1.84432">
        <ele>161</ele>
        <time>2018-08-18T12:23:42Z</time>
      </trkpt>
      <trkpt lat="48.68097" lon="1.84427">
        <ele>161</ele>
        <time>2018-08-18T12:23:46Z</time>
      </trkpt>
      <trkpt lat="48.681" lon="1.84418">
        <ele>161</ele>
        <time>2018-08-18T12:23:50Z</time>
      </trkpt>
      <trkpt lat="48.68104" lon="1.84412">
        <ele>161</ele>
        <time>2018-08-18T12:23:54Z</time>
      </trkpt>
      <trkpt lat="48.68109" lon="1.84404">
        <ele>161</ele>
        <time>2018-08-18T12:23:59Z</time>
      </trkpt>
      <trkpt lat="48.68113" lon="1.84398">
        <ele>161</ele>
        <time>2018-08-18T12:24:03Z</time>
      </trkpt>
      <trkpt lat="48.68117" lon="1.8439">
        <ele>161</ele>
        <time>2018-08-18T12:24:07Z</time>
      </trkpt>
      <trkpt lat="48.68121" lon="1.84384">
        <ele>161</ele>
        <time>2018-08-18T12:24:11Z</time>
      </trkpt>
      <trkpt lat="48.68125" lon="1.84379">
        <ele>161</ele>
        <time>2018-08-18T12:24:15Z</time>
      </trkpt>
      <trkpt lat="48.68129" lon="1.84372">
        <ele>161</ele>
        <time>2018-08-18T12:24:19Z</time>
      </trkpt>
      <trkpt lat="48.68134" lon="1.84365">
        <ele>163</ele>
        <time>2018-08-18T12:24:24Z</time>
      </trkpt>
      <trkpt lat="48.68137" lon="1.8436">
        <ele>163</ele>
        <time>2018-08-18T12:24:28Z</time>
      </trkpt>
      <trkpt lat="48.68141" lon="1.84353">
        <ele>164</ele>
        <time>2018-08-18T12:24:32Z</time>
      </trkpt>
      <trkpt lat="48.68146" lon="1.84345">
        <ele>165</ele>
        <time>2018-08-18T12:24:37Z</time>
      </trkpt>
      <trkpt lat="48.68149" lon="1.84338">
        <ele>165</ele>
        <time>2018-08-18T12:24:41Z</time>
      </trkpt>
      <trkpt lat="48.68153" lon="1.84332">
        <ele>165</ele>
        <time>2018-08-18T12:24:45Z</time>
      </trkpt>
      <trkpt lat="48.68156" lon="1.84326">
        <ele>165</ele>
        <time>2018-08-18T12:24:49Z</time>
      </trkpt>
      <trkpt lat="48.6816" lon="1.8432">
        <ele>165</ele>
        <time>2018-08-18T12:24:53Z</time>
      </trkpt>
      <trkpt lat="48.68163" lon="1.84315">
        <ele>165</ele>
        <time>2018-08-18T12:24:57Z</time>
      </trkpt>
      <trkpt lat="48.68166" lon="1.84309">
        <ele>165</ele>
        <time>2018-08-18T12:25:01Z</time>
      </trkpt>
      <trkpt lat="48.68169" lon="1.843">
        <ele>165</ele>
        <time>2018-08-18T12:25:05Z</time>
      </trkpt>
      <trkpt lat="48.68174" lon="1.84291">
        <ele>165</ele>
        <time>2018-08-18T12:25:10Z</time>
      </trkpt>
      <trkpt lat="48.68178" lon="1.84283">
        <ele>166</ele>
        <time>2018-08-18T12:25:14Z</time>
      </trkpt>
      <trkpt lat="48.68181" lon="1.84276">
        <ele>167</ele>
        <time>2018-08-18T12:25:18Z</time>
      </trkpt>
      <trkpt lat="48.68184" lon="1.84268">
        <ele>167</ele>
        <time>2018-08-18T12:25:22Z</time>
      </trkpt>
      <trkpt lat="48.68185" lon="1.84261">
        <ele>167</ele>
        <time>2018-08-18T12:25:26Z</time>
      </trkpt>
      <trkpt lat="48.68185" lon="1.84253">
        <ele>167</ele>
        <time>2018-08-18T12:25:30Z</time>
      </trkpt>
      <trkpt lat="48.68184" lon="1.84245">
        <ele>168</ele>
        <time>2018-08-18T12:25:35Z</time>
      </trkpt>
      <trkpt lat="48.68181" lon="1.84239">
        <ele>168</ele>
        <time>2018-08-18T12:25:39Z</time>
      </trkpt>
      <trkpt lat="48.68176" lon="1.84235">
        <ele>169</ele>
        <time>2018-08-18T12:25:43Z</time>
      </trkpt>
      <trkpt lat="48.6817" lon="1.84234">
        <ele>169</ele>
        <time>2018-08-18T12:25:47Z</time>
      </trkpt>
      <trkpt lat="48.68165" lon="1.84234">
        <ele>170</ele>
        <time>2018-08-18T12:25:51Z</time>
      </trkpt>
      <trkpt lat="48.6816" lon="1.84234">
        <ele>170</ele>
        <time>2018-08-18T12:25:55Z</time>
      </trkpt>
      <trkpt lat="48.68154" lon="1.84234">
        <ele>171</ele>
        <time>2018-08-18T12:25:59Z</time>
      </trkpt>
      <trkpt lat="48.68148" lon="1.84235">
        <ele>171</ele>
        <time>2018-08-18T12:26:03Z</time>
      </trkpt>
      <trkpt lat="48.68144" lon="1.84235">
        <ele>171</ele>
        <time>2018-08-18T12:26:07Z</time>
      </trkpt>
      <trkpt lat="48.68138" lon="1.84236">
        <ele>171</ele>
        <time>2018-08-18T12:26:11Z</time>
      </trkpt>
      <trkpt lat="48.68132" lon="1.84236">
        <ele>172</ele>
        <time>2018-08-18T12:26:15Z</time>
      </trkpt>
      <trkpt lat="48.68127" lon="1.84237">
        <ele>172</ele>
        <time>2018-08-18T12:26:19Z</time>
      </trkpt>
      <trkpt lat="48.68122" lon="1.84238">
        <ele>173</ele>
        <time>2018-08-18T12:26:23Z</time>
      </trkpt>
      <trkpt lat="48.68116" lon="1.84238">
        <ele>173</ele>
        <time>2018-08-18T12:26:27Z</time>
      </trkpt>
      <trkpt lat="48.68111" lon="1.84239">
        <ele>174</ele>
        <time>2018-08-18T12:26:31Z</time>
      </trkpt>
      <trkpt lat="48.68105" lon="1.84239">
        <ele>174</ele>
        <time>2018-08-18T12:26:35Z</time>
      </trkpt>
      <trkpt lat="48.681" lon="1.8424">
        <ele>174</ele>
        <time>2018-08-18T12:26:39Z</time>
      </trkpt>
      <trkpt lat="48.68095" lon="1.84241">
        <ele>175</ele>
        <time>2018-08-18T12:26:43Z</time>
      </trkpt>
      <trkpt lat="48.68089" lon="1.84241">
        <ele>175</ele>
        <time>2018-08-18T12:26:47Z</time>
      </trkpt>
      <trkpt lat="48.68083" lon="1.84242">
        <ele>176</ele>
        <time>2018-08-18T12:26:51Z</time>
      </trkpt>
      <trkpt lat="48.68078" lon="1.84242">
        <ele>177</ele>
        <time>2018-08-18T12:26:55Z</time>
      </trkpt>
      <trkpt lat="48.68073" lon="1.8424">
        <ele>178</ele>
        <time>2018-08-18T12:26:59Z</time>
      </trkpt>
      <trkpt lat="48.68067" lon="1.84238">
        <ele>179</ele>
        <time>2018-08-18T12:27:03Z</time>
      </trkpt>
      <trkpt lat="48.68062" lon="1.84234">
        <ele>179</ele>
        <time>2018-08-18T12:27:07Z</time>
      </trkpt>
      <trkpt lat="48.68057" lon="1.84227">
        <ele>180</ele>
        <time>2018-08-18T12:27:12Z</time>
      </trkpt>
      <trkpt lat="48.68053" lon="1.8422">
        <ele>181</ele>
        <time>2018-08-18T12:27:16Z</time>
      </trkpt>
      <trkpt lat="48.68051" lon="1.84212">
        <ele>181</ele>
        <time>2018-08-18T12:27:20Z</time>
      </trkpt>
      <trkpt lat="48.68049" lon="1.84204">
        <ele>182</ele>
        <time>2018-08-18T12:27:24Z</time>
      </trkpt>
      <trkpt lat="48.68048" lon="1.84196">
        <ele>183</ele>
        <time>2018-08-18T12:27:28Z</time>
      </trkpt>
      <trkpt lat="48.68047" lon="1.84189">
        <ele>184</ele>
        <time>2018-08-18T12:27:32Z</time>
      </trkpt>
      <trkpt lat="48.68046" lon="1.84181">
        <ele>184</ele>
        <time>2018-08-18T12:27:36Z</time>
      </trkpt>
      <trkpt lat="48.68045" lon="1.84174">
        <ele>184</ele>
        <time>2018-08-18T12:27:40Z</time>
      </trkpt>
      <trkpt lat="48.68044" lon="1.84165">
        <ele>184</ele>
        <time>2018-08-18T12:27:44Z</time>
      </trkpt>
      <trkpt lat="48.68043" lon="1.84155">
        <ele>185</ele>
        <time>2018-08-18T12:27:48Z</time>
      </trkpt>
      <trkpt lat="48.68042" lon="1.84147">
        <ele>186</ele>
        <time>2018-08-18T12:27:52Z</time>
      </trkpt>
      <trkpt lat="48.68041" lon="1.84139">
        <ele>186</ele>
        <time>2018-08-18T12:27:56Z</time>
      </trkpt>
      <trkpt lat="48.68039" lon="1.84131">
        <ele>186</ele>
        <time>2018-08-18T12:28:00Z</time>
      </trkpt>
      <trkpt lat="48.68038" lon="1.84124">
        <ele>187</ele>
        <time>2018-08-18T12:28:04Z</time>
      </trkpt>
      <trkpt lat="48.68037" lon="1.84116">
        <ele>187</ele>
        <time>2018-08-18T12:28:08Z</time>
      </trkpt>
      <trkpt lat="48.68036" lon="1.84109">
        <ele>188</ele>
        <time>2018-08-18T12:28:12Z</time>
      </trkpt>
      <trkpt lat="48.68034" lon="1.841">
        <ele>188</ele>
        <time>2018-08-18T12:28:16Z</time>
      </trkpt>
      <trkpt lat="48.68033" lon="1.84092">
        <ele>188</ele>
        <time>2018-08-18T12:28:20Z</time>
      </trkpt>
      <trkpt lat="48.68031" lon="1.84084">
        <ele>188</ele>
        <time>2018-08-18T12:28:24Z</time>
      </trkpt>
      <trkpt lat="48.68028" lon="1.84077">
        <ele>188</ele>
        <time>2018-08-18T12:28:28Z</time>
      </trkpt>
      <trkpt lat="48.68026" lon="1.84069">
        <ele>189</ele>
        <time>2018-08-18T12:28:32Z</time>
      </trkpt>
      <trkpt lat="48.68022" lon="1.84061">
        <ele>189</ele>
        <time>2018-08-18T12:28:37Z</time>
      </trkpt>
      <trkpt lat="48.68018" lon="1.84058">
        <ele>189</ele>
        <time>2018-08-18T12:28:41Z</time>
      </trkpt>
      <trkpt lat="48.68014" lon="1.84054">
        <ele>189</ele>
        <time>2018-08-18T12:28:45Z</time>
      </trkpt>
      <trkpt lat="48.6801" lon="1.84052">
        <ele>189</ele>
        <time>2018-08-18T12:28:49Z</time>
      </trkpt>
      <trkpt lat="48.68005" lon="1.84051">
        <ele>189</ele>
        <time>2018-08-18T12:28:53Z</time>
      </trkpt>
      <trkpt lat="48.68" lon="1.84051">
        <ele>189</ele>
        <time>2018-08-18T12:28:57Z</time>
      </trkpt>
      <trkpt lat="48.67994" lon="1.84052">
        <ele>189</ele>
        <time>2018-08-18T12:29:01Z</time>
      </trkpt>
      <trkpt lat="48.67989" lon="1.84052">
        <ele>189</ele>
        <time>2018-08-18T12:29:05Z</time>
      </trkpt>
      <trkpt lat="48.67984" lon="1.84054">
        <ele>189</ele>
        <time>2018-08-18T12:29:09Z</time>
      </trkpt>
      <trkpt lat="48.67979" lon="1.84056">
        <ele>187</ele>
        <time>2018-08-18T12:29:13Z</time>
      </trkpt>
      <trkpt lat="48.67974" lon="1.84057">
        <ele>186</ele>
        <time>2018-08-18T12:29:17Z</time>
      </trkpt>
      <trkpt lat="48.67969" lon="1.8406">
        <ele>185</ele>
        <time>2018-08-18T12:29:21Z</time>
      </trkpt>
      <trkpt lat="48.67963" lon="1.84063">
        <ele>184</ele>
        <time>2018-08-18T12:29:25Z</time>
      </trkpt>
      <trkpt lat="48.67959" lon="1.84066">
        <ele>184</ele>
        <time>2018-08-18T12:29:29Z</time>
      </trkpt>
      <trkpt lat="48.67953" lon="1.84068">
        <ele>183</ele>
        <time>2018-08-18T12:29:33Z</time>
      </trkpt>
      <trkpt lat="48.67948" lon="1.8407">
        <ele>183</ele>
        <time>2018-08-18T12:29:37Z</time>
      </trkpt>
      <trkpt lat="48.67942" lon="1.84073">
        <ele>182</ele>
        <time>2018-08-18T12:29:41Z</time>
      </trkpt>
      <trkpt lat="48.67938" lon="1.84075">
        <ele>182</ele>
        <time>2018-08-18T12:29:45Z</time>
      </trkpt>
      <trkpt lat="48.67933" lon="1.84078">
        <ele>181</ele>
        <time>2018-08-18T12:29:49Z</time>
      </trkpt>
      <trkpt lat="48.67928" lon="1.8408">
        <ele>180</ele>
        <time>2018-08-18T12:29:53Z</time>
      </trkpt>
      <trkpt lat="48.67922" lon="1.84081">
        <ele>179</ele>
        <time>2018-08-18T12:29:57Z</time>
      </trkpt>
      <trkpt lat="48.67917" lon="1.84083">
        <ele>179</ele>
        <time>2018-08-18T12:30:01Z</time>
      </trkpt>
      <trkpt lat="48.67911" lon="1.84085">
        <ele>178</ele>
        <time>2018-08-18T12:30:05Z</time>
      </trkpt>
      <trkpt lat="48.67906" lon="1.84086">
        <ele>178</ele>
        <time>2018-08-18T12:30:09Z</time>
      </trkpt>
      <trkpt lat="48.67901" lon="1.84088">
        <ele>177</ele>
        <time>2018-08-18T12:30:13Z</time>
      </trkpt>
      <trkpt lat="48.67895" lon="1.84088">
        <ele>177</ele>
        <time>2018-08-18T12:30:17Z</time>
      </trkpt>
      <trkpt lat="48.67889" lon="1.84089">
        <ele>177</ele>
        <time>2018-08-18T12:30:21Z</time>
      </trkpt>
      <trkpt lat="48.67884" lon="1.84085">
        <ele>176</ele>
        <time>2018-08-18T12:30:26Z</time>
      </trkpt>
      <trkpt lat="48.67887" lon="1.84082">
        <ele>175</ele>
        <time>2018-08-18T12:30:31Z</time>
      </trkpt>
      <trkpt lat="48.6789" lon="1.84083">
        <ele>174</ele>
        <time>2018-08-18T12:30:35Z</time>
      </trkpt>
      <trkpt lat="48.67891" lon="1.84082">
        <ele>174</ele>
        <time>2018-08-18T12:30:41Z</time>
      </trkpt>
      <trkpt lat="48.67892" lon="1.84079">
        <ele>174</ele>
        <time>2018-08-18T12:30:46Z</time>
      </trkpt>
      <trkpt lat="48.67893" lon="1.84074">
        <ele>173</ele>
        <time>2018-08-18T12:30:50Z</time>
      </trkpt>
      <trkpt lat="48.67893" lon="1.84069">
        <ele>172</ele>
        <time>2018-08-18T12:30:54Z</time>
      </trkpt>
      <trkpt lat="48.67894" lon="1.84061">
        <ele>172</ele>
        <time>2018-08-18T12:30:58Z</time>
      </trkpt>
      <trkpt lat="48.67895" lon="1.84055">
        <ele>172</ele>
        <time>2018-08-18T12:31:02Z</time>
      </trkpt>
      <trkpt lat="48.67896" lon="1.84046">
        <ele>172</ele>
        <time>2018-08-18T12:31:06Z</time>
      </trkpt>
      <trkpt lat="48.67896" lon="1.84039">
        <ele>172</ele>
        <time>2018-08-18T12:31:10Z</time>
      </trkpt>
      <trkpt lat="48.67898" lon="1.8403">
        <ele>172</ele>
        <time>2018-08-18T12:31:15Z</time>
      </trkpt>
      <trkpt lat="48.67898" lon="1.84022">
        <ele>171</ele>
        <time>2018-08-18T12:31:19Z</time>
      </trkpt>
      <trkpt lat="48.67898" lon="1.84013">
        <ele>171</ele>
        <time>2018-08-18T12:31:23Z</time>
      </trkpt>
      <trkpt lat="48.67898" lon="1.84005">
        <ele>171</ele>
        <time>2018-08-18T12:31:27Z</time>
      </trkpt>
      <trkpt lat="48.67896" lon="1.83998">
        <ele>171</ele>
        <time>2018-08-18T12:31:31Z</time>
      </trkpt>
      <trkpt lat="48.67894" lon="1.8399">
        <ele>172</ele>
        <time>2018-08-18T12:31:35Z</time>
      </trkpt>
      <trkpt lat="48.67893" lon="1.83985">
        <ele>172</ele>
        <time>2018-08-18T12:31:39Z</time>
      </trkpt>
      <trkpt lat="48.67892" lon="1.83984">
        <ele>173</ele>
        <time>2018-08-18T12:31:46Z</time>
      </trkpt>
      <trkpt lat="48.67892" lon="1.83982">
        <ele>173</ele>
        <time>2018-08-18T12:31:52Z</time>
      </trkpt>
      <trkpt lat="48.67891" lon="1.83982">
        <ele>173</ele>
        <time>2018-08-18T12:32:03Z</time>
      </trkpt>
      <trkpt lat="48.67891" lon="1.83984">
        <ele>173</ele>
        <time>2018-08-18T12:32:25Z</time>
      </trkpt>
      <trkpt lat="48.67891" lon="1.83983">
        <ele>173</ele>
        <time>2018-08-18T12:32:30Z</time>
      </trkpt>
      <trkpt lat="48.6789" lon="1.83982">
        <ele>173</ele>
        <time>2018-08-18T12:32:35Z</time>
      </trkpt>
      <trkpt lat="48.67891" lon="1.83982">
        <ele>173</ele>
        <time>2018-08-18T12:32:44Z</time>
      </trkpt>
      <trkpt lat="48.67892" lon="1.8398">
        <ele>173</ele>
        <time>2018-08-18T12:32:57Z</time>
      </trkpt>
      <trkpt lat="48.67893" lon="1.83982">
        <ele>173</ele>
        <time>2018-08-18T12:33:18Z</time>
      </trkpt>
      <trkpt lat="48.67891" lon="1.83982">
        <ele>173</ele>
        <time>2018-08-18T12:33:35Z</time>
      </trkpt>
      <trkpt lat="48.6789" lon="1.83982">
        <ele>172</ele>
        <time>2018-08-18T12:34:05Z</time>
      </trkpt>
      <trkpt lat="48.67889" lon="1.83982">
        <ele>171</ele>
        <time>2018-08-18T12:34:17Z</time>
      </trkpt>
      <trkpt lat="48.6789" lon="1.83981">
        <ele>170</ele>
        <time>2018-08-18T12:34:39Z</time>
      </trkpt>
      <trkpt lat="48.6789" lon="1.8398">
        <ele>170</ele>
        <time>2018-08-18T12:34:50Z</time>
      </trkpt>
      <trkpt lat="48.67888" lon="1.83978">
        <ele>170</ele>
        <time>2018-08-18T12:35:00Z</time>
      </trkpt>
      <trkpt lat="48.67886" lon="1.83973">
        <ele>170</ele>
        <time>2018-08-18T12:35:05Z</time>
      </trkpt>
      <trkpt lat="48.67884" lon="1.83969">
        <ele>170</ele>
        <time>2018-08-18T12:35:09Z</time>
      </trkpt>
      <trkpt lat="48.67881" lon="1.83965">
        <ele>170</ele>
        <time>2018-08-18T12:35:13Z</time>
      </trkpt>
      <trkpt lat="48.67879" lon="1.83961">
        <ele>170</ele>
        <time>2018-08-18T12:35:17Z</time>
      </trkpt>
      <trkpt lat="48.67876" lon="1.83956">
        <ele>170</ele>
        <time>2018-08-18T12:35:21Z</time>
      </trkpt>
      <trkpt lat="48.67873" lon="1.83952">
        <ele>170</ele>
        <time>2018-08-18T12:35:25Z</time>
      </trkpt>
      <trkpt lat="48.6787" lon="1.83947">
        <ele>170</ele>
        <time>2018-08-18T12:35:29Z</time>
      </trkpt>
      <trkpt lat="48.67867" lon="1.83942">
        <ele>170</ele>
        <time>2018-08-18T12:35:33Z</time>
      </trkpt>
      <trkpt lat="48.67864" lon="1.83937">
        <ele>170</ele>
        <time>2018-08-18T12:35:37Z</time>
      </trkpt>
      <trkpt lat="48.67859" lon="1.83931">
        <ele>170</ele>
        <time>2018-08-18T12:35:42Z</time>
      </trkpt>
      <trkpt lat="48.67855" lon="1.83926">
        <ele>170</ele>
        <time>2018-08-18T12:35:46Z</time>
      </trkpt>
      <trkpt lat="48.67851" lon="1.83921">
        <ele>170</ele>
        <time>2018-08-18T12:35:50Z</time>
      </trkpt>
      <trkpt lat="48.67847" lon="1.83916">
        <ele>170</ele>
        <time>2018-08-18T12:35:54Z</time>
      </trkpt>
      <trkpt lat="48.67842" lon="1.83909">
        <ele>170</ele>
        <time>2018-08-18T12:35:59Z</time>
      </trkpt>
      <trkpt lat="48.67839" lon="1.83905">
        <ele>170</ele>
        <time>2018-08-18T12:36:03Z</time>
      </trkpt>
      <trkpt lat="48.67835" lon="1.839">
        <ele>169</ele>
        <time>2018-08-18T12:36:07Z</time>
      </trkpt>
      <trkpt lat="48.67831" lon="1.83895">
        <ele>169</ele>
        <time>2018-08-18T12:36:11Z</time>
      </trkpt>
      <trkpt lat="48.67826" lon="1.83888">
        <ele>169</ele>
        <time>2018-08-18T12:36:15Z</time>
      </trkpt>
      <trkpt lat="48.67822" lon="1.83881">
        <ele>169</ele>
        <time>2018-08-18T12:36:19Z</time>
      </trkpt>
      <trkpt lat="48.67817" lon="1.83873">
        <ele>169</ele>
        <time>2018-08-18T12:36:24Z</time>
      </trkpt>
      <trkpt lat="48.67812" lon="1.83867">
        <ele>169</ele>
        <time>2018-08-18T12:36:28Z</time>
      </trkpt>
      <trkpt lat="48.67808" lon="1.83861">
        <ele>169</ele>
        <time>2018-08-18T12:36:32Z</time>
      </trkpt>
      <trkpt lat="48.67803" lon="1.83855">
        <ele>169</ele>
        <time>2018-08-18T12:36:36Z</time>
      </trkpt>
      <trkpt lat="48.67799" lon="1.83848">
        <ele>169</ele>
        <time>2018-08-18T12:36:40Z</time>
      </trkpt>
      <trkpt lat="48.67795" lon="1.8384">
        <ele>169</ele>
        <time>2018-08-18T12:36:45Z</time>
      </trkpt>
      <trkpt lat="48.67793" lon="1.83832">
        <ele>169</ele>
        <time>2018-08-18T12:36:49Z</time>
      </trkpt>
      <trkpt lat="48.67791" lon="1.83824">
        <ele>169</ele>
        <time>2018-08-18T12:36:53Z</time>
      </trkpt>
      <trkpt lat="48.6779" lon="1.83816">
        <ele>169</ele>
        <time>2018-08-18T12:36:57Z</time>
      </trkpt>
      <trkpt lat="48.67789" lon="1.83808">
        <ele>169</ele>
        <time>2018-08-18T12:37:01Z</time>
      </trkpt>
      <trkpt lat="48.67788" lon="1.838">
        <ele>169</ele>
        <time>2018-08-18T12:37:05Z</time>
      </trkpt>
      <trkpt lat="48.67788" lon="1.83792">
        <ele>167</ele>
        <time>2018-08-18T12:37:09Z</time>
      </trkpt>
      <trkpt lat="48.67786" lon="1.83783">
        <ele>167</ele>
        <time>2018-08-18T12:37:13Z</time>
      </trkpt>
      <trkpt lat="48.67785" lon="1.83774">
        <ele>167</ele>
        <time>2018-08-18T12:37:17Z</time>
      </trkpt>
      <trkpt lat="48.67784" lon="1.83766">
        <ele>167</ele>
        <time>2018-08-18T12:37:21Z</time>
      </trkpt>
      <trkpt lat="48.67783" lon="1.83758">
        <ele>167</ele>
        <time>2018-08-18T12:37:25Z</time>
      </trkpt>
      <trkpt lat="48.67782" lon="1.8375">
        <ele>167</ele>
        <time>2018-08-18T12:37:29Z</time>
      </trkpt>
      <trkpt lat="48.67781" lon="1.83742">
        <ele>167</ele>
        <time>2018-08-18T12:37:33Z</time>
      </trkpt>
      <trkpt lat="48.6778" lon="1.83732">
        <ele>167</ele>
        <time>2018-08-18T12:37:37Z</time>
      </trkpt>
      <trkpt lat="48.67778" lon="1.83723">
        <ele>167</ele>
        <time>2018-08-18T12:37:41Z</time>
      </trkpt>
      <trkpt lat="48.67777" lon="1.83714">
        <ele>167</ele>
        <time>2018-08-18T12:37:45Z</time>
      </trkpt>
      <trkpt lat="48.67777" lon="1.83705">
        <ele>167</ele>
        <time>2018-08-18T12:37:49Z</time>
      </trkpt>
      <trkpt lat="48.67776" lon="1.83696">
        <ele>167</ele>
        <time>2018-08-18T12:37:53Z</time>
      </trkpt>
      <trkpt lat="48.67775" lon="1.83688">
        <ele>167</ele>
        <time>2018-08-18T12:37:57Z</time>
      </trkpt>
      <trkpt lat="48.67775" lon="1.8368">
        <ele>166</ele>
        <time>2018-08-18T12:38:01Z</time>
      </trkpt>
      <trkpt lat="48.67775" lon="1.83671">
        <ele>165</ele>
        <time>2018-08-18T12:38:05Z</time>
      </trkpt>
      <trkpt lat="48.67772" lon="1.83661">
        <ele>165</ele>
        <time>2018-08-18T12:38:09Z</time>
      </trkpt>
      <trkpt lat="48.67771" lon="1.83651">
        <ele>165</ele>
        <time>2018-08-18T12:38:13Z</time>
      </trkpt>
      <trkpt lat="48.67771" lon="1.83644">
        <ele>165</ele>
        <time>2018-08-18T12:38:17Z</time>
      </trkpt>
      <trkpt lat="48.67769" lon="1.83635">
        <ele>165</ele>
        <time>2018-08-18T12:38:21Z</time>
      </trkpt>
      <trkpt lat="48.67769" lon="1.83625">
        <ele>166</ele>
        <time>2018-08-18T12:38:25Z</time>
      </trkpt>
      <trkpt lat="48.67768" lon="1.83617">
        <ele>166</ele>
        <time>2018-08-18T12:38:29Z</time>
      </trkpt>
      <trkpt lat="48.67767" lon="1.83607">
        <ele>166</ele>
        <time>2018-08-18T12:38:33Z</time>
      </trkpt>
      <trkpt lat="48.67765" lon="1.83597">
        <ele>166</ele>
        <time>2018-08-18T12:38:37Z</time>
      </trkpt>
      <trkpt lat="48.67762" lon="1.83588">
        <ele>166</ele>
        <time>2018-08-18T12:38:41Z</time>
      </trkpt>
      <trkpt lat="48.67761" lon="1.8358">
        <ele>166</ele>
        <time>2018-08-18T12:38:45Z</time>
      </trkpt>
      <trkpt lat="48.6776" lon="1.83573">
        <ele>166</ele>
        <time>2018-08-18T12:38:49Z</time>
      </trkpt>
      <trkpt lat="48.67759" lon="1.83566">
        <ele>166</ele>
        <time>2018-08-18T12:38:53Z</time>
      </trkpt>
      <trkpt lat="48.67759" lon="1.83557">
        <ele>166</ele>
        <time>2018-08-18T12:38:57Z</time>
      </trkpt>
      <trkpt lat="48.67758" lon="1.83548">
        <ele>166</ele>
        <time>2018-08-18T12:39:01Z</time>
      </trkpt>
      <trkpt lat="48.67757" lon="1.83541">
        <ele>166</ele>
        <time>2018-08-18T12:39:05Z</time>
      </trkpt>
      <trkpt lat="48.67754" lon="1.8353">
        <ele>166</ele>
        <time>2018-08-18T12:39:09Z</time>
      </trkpt>
      <trkpt lat="48.67752" lon="1.8352">
        <ele>166</ele>
        <time>2018-08-18T12:39:13Z</time>
      </trkpt>
      <trkpt lat="48.67751" lon="1.83512">
        <ele>166</ele>
        <time>2018-08-18T12:39:17Z</time>
      </trkpt>
      <trkpt lat="48.67752" lon="1.83504">
        <ele>166</ele>
        <time>2018-08-18T12:39:21Z</time>
      </trkpt>
      <trkpt lat="48.67751" lon="1.83496">
        <ele>166</ele>
        <time>2018-08-18T12:39:25Z</time>
      </trkpt>
      <trkpt lat="48.6775" lon="1.83486">
        <ele>166</ele>
        <time>2018-08-18T12:39:29Z</time>
      </trkpt>
      <trkpt lat="48.67749" lon="1.83475">
        <ele>166</ele>
        <time>2018-08-18T12:39:33Z</time>
      </trkpt>
      <trkpt lat="48.67748" lon="1.83466">
        <ele>166</ele>
        <time>2018-08-18T12:39:37Z</time>
      </trkpt>
      <trkpt lat="48.67747" lon="1.83456">
        <ele>166</ele>
        <time>2018-08-18T12:39:42Z</time>
      </trkpt>
      <trkpt lat="48.67747" lon="1.83449">
        <ele>164</ele>
        <time>2018-08-18T12:39:46Z</time>
      </trkpt>
      <trkpt lat="48.67746" lon="1.83439">
        <ele>164</ele>
        <time>2018-08-18T12:39:50Z</time>
      </trkpt>
      <trkpt lat="48.67745" lon="1.8343">
        <ele>164</ele>
        <time>2018-08-18T12:39:54Z</time>
      </trkpt>
      <trkpt lat="48.67744" lon="1.83422">
        <ele>164</ele>
        <time>2018-08-18T12:39:59Z</time>
      </trkpt>
      <trkpt lat="48.67742" lon="1.83412">
        <ele>164</ele>
        <time>2018-08-18T12:40:03Z</time>
      </trkpt>
      <trkpt lat="48.6774" lon="1.834">
        <ele>164</ele>
        <time>2018-08-18T12:40:07Z</time>
      </trkpt>
      <trkpt lat="48.67738" lon="1.83391">
        <ele>164</ele>
        <time>2018-08-18T12:40:11Z</time>
      </trkpt>
      <trkpt lat="48.67739" lon="1.83382">
        <ele>164</ele>
        <time>2018-08-18T12:40:15Z</time>
      </trkpt>
      <trkpt lat="48.67738" lon="1.83373">
        <ele>164</ele>
        <time>2018-08-18T12:40:19Z</time>
      </trkpt>
      <trkpt lat="48.67739" lon="1.83367">
        <ele>164</ele>
        <time>2018-08-18T12:40:23Z</time>
      </trkpt>
      <trkpt lat="48.67739" lon="1.83359">
        <ele>161</ele>
        <time>2018-08-18T12:40:27Z</time>
      </trkpt>
      <trkpt lat="48.67739" lon="1.83352">
        <ele>158</ele>
        <time>2018-08-18T12:40:31Z</time>
      </trkpt>
      <trkpt lat="48.6774" lon="1.83345">
        <ele>155</ele>
        <time>2018-08-18T12:40:35Z</time>
      </trkpt>
      <trkpt lat="48.67739" lon="1.83339">
        <ele>153</ele>
        <time>2018-08-18T12:40:39Z</time>
      </trkpt>
      <trkpt lat="48.67739" lon="1.83329">
        <ele>152</ele>
        <time>2018-08-18T12:40:43Z</time>
      </trkpt>
      <trkpt lat="48.67736" lon="1.83315">
        <ele>151</ele>
        <time>2018-08-18T12:40:47Z</time>
      </trkpt>
      <trkpt lat="48.67733" lon="1.83301">
        <ele>152</ele>
        <time>2018-08-18T12:40:51Z</time>
      </trkpt>
      <trkpt lat="48.6773" lon="1.8329">
        <ele>155</ele>
        <time>2018-08-18T12:40:55Z</time>
      </trkpt>
      <trkpt lat="48.67729" lon="1.83279">
        <ele>157</ele>
        <time>2018-08-18T12:40:59Z</time>
      </trkpt>
      <trkpt lat="48.67728" lon="1.83269">
        <ele>158</ele>
        <time>2018-08-18T12:41:03Z</time>
      </trkpt>
      <trkpt lat="48.67727" lon="1.83259">
        <ele>158</ele>
        <time>2018-08-18T12:41:07Z</time>
      </trkpt>
      <trkpt lat="48.67726" lon="1.83249">
        <ele>160</ele>
        <time>2018-08-18T12:41:11Z</time>
      </trkpt>
      <trkpt lat="48.67725" lon="1.83241">
        <ele>162</ele>
        <time>2018-08-18T12:41:15Z</time>
      </trkpt>
      <trkpt lat="48.67725" lon="1.83232">
        <ele>163</ele>
        <time>2018-08-18T12:41:19Z</time>
      </trkpt>
      <trkpt lat="48.67724" lon="1.83224">
        <ele>163</ele>
        <time>2018-08-18T12:41:23Z</time>
      </trkpt>
      <trkpt lat="48.67722" lon="1.83213">
        <ele>163</ele>
        <time>2018-08-18T12:41:27Z</time>
      </trkpt>
      <trkpt lat="48.67721" lon="1.83202">
        <ele>164</ele>
        <time>2018-08-18T12:41:31Z</time>
      </trkpt>
      <trkpt lat="48.67719" lon="1.83193">
        <ele>165</ele>
        <time>2018-08-18T12:41:35Z</time>
      </trkpt>
      <trkpt lat="48.67717" lon="1.83183">
        <ele>166</ele>
        <time>2018-08-18T12:41:39Z</time>
      </trkpt>
      <trkpt lat="48.67717" lon="1.83174">
        <ele>167</ele>
        <time>2018-08-18T12:41:43Z</time>
      </trkpt>
      <trkpt lat="48.67716" lon="1.83164">
        <ele>167</ele>
        <time>2018-08-18T12:41:47Z</time>
      </trkpt>
      <trkpt lat="48.67714" lon="1.83155">
        <ele>167</ele>
        <time>2018-08-18T12:41:51Z</time>
      </trkpt>
      <trkpt lat="48.67713" lon="1.83146">
        <ele>167</ele>
        <time>2018-08-18T12:41:55Z</time>
      </trkpt>
      <trkpt lat="48.67712" lon="1.83137">
        <ele>167</ele>
        <time>2018-08-18T12:41:59Z</time>
      </trkpt>
      <trkpt lat="48.67711" lon="1.83129">
        <ele>167</ele>
        <time>2018-08-18T12:42:03Z</time>
      </trkpt>
      <trkpt lat="48.67711" lon="1.83121">
        <ele>167</ele>
        <time>2018-08-18T12:42:07Z</time>
      </trkpt>
      <trkpt lat="48.6771" lon="1.83112">
        <ele>167</ele>
        <time>2018-08-18T12:42:11Z</time>
      </trkpt>
      <trkpt lat="48.6771" lon="1.83104">
        <ele>167</ele>
        <time>2018-08-18T12:42:15Z</time>
      </trkpt>
      <trkpt lat="48.67709" lon="1.83095">
        <ele>167</ele>
        <time>2018-08-18T12:42:19Z</time>
      </trkpt>
      <trkpt lat="48.67707" lon="1.83087">
        <ele>167</ele>
        <time>2018-08-18T12:42:23Z</time>
      </trkpt>
      <trkpt lat="48.67707" lon="1.83078">
        <ele>167</ele>
        <time>2018-08-18T12:42:27Z</time>
      </trkpt>
      <trkpt lat="48.67707" lon="1.83072">
        <ele>167</ele>
        <time>2018-08-18T12:42:31Z</time>
      </trkpt>
      <trkpt lat="48.67706" lon="1.83062">
        <ele>167</ele>
        <time>2018-08-18T12:42:35Z</time>
      </trkpt>
      <trkpt lat="48.67704" lon="1.83054">
        <ele>166</ele>
        <time>2018-08-18T12:42:39Z</time>
      </trkpt>
      <trkpt lat="48.67704" lon="1.83047">
        <ele>165</ele>
        <time>2018-08-18T12:42:43Z</time>
      </trkpt>
      <trkpt lat="48.67704" lon="1.8304">
        <ele>164</ele>
        <time>2018-08-18T12:42:47Z</time>
      </trkpt>
      <trkpt lat="48.67703" lon="1.83031">
        <ele>162</ele>
        <time>2018-08-18T12:42:51Z</time>
      </trkpt>
      <trkpt lat="48.67702" lon="1.83022">
        <ele>162</ele>
        <time>2018-08-18T12:42:55Z</time>
      </trkpt>
      <trkpt lat="48.67701" lon="1.83014">
        <ele>162</ele>
        <time>2018-08-18T12:42:59Z</time>
      </trkpt>
      <trkpt lat="48.67701" lon="1.83006">
        <ele>161</ele>
        <time>2018-08-18T12:43:03Z</time>
      </trkpt>
      <trkpt lat="48.67699" lon="1.82996">
        <ele>160</ele>
        <time>2018-08-18T12:43:07Z</time>
      </trkpt>
      <trkpt lat="48.67698" lon="1.82985">
        <ele>160</ele>
        <time>2018-08-18T12:43:11Z</time>
      </trkpt>
      <trkpt lat="48.67697" lon="1.82976">
        <ele>160</ele>
        <time>2018-08-18T12:43:15Z</time>
      </trkpt>
      <trkpt lat="48.67696" lon="1.82968">
        <ele>160</ele>
        <time>2018-08-18T12:43:19Z</time>
      </trkpt>
      <trkpt lat="48.67696" lon="1.8296">
        <ele>160</ele>
        <time>2018-08-18T12:43:23Z</time>
      </trkpt>
      <trkpt lat="48.67696" lon="1.82952">
        <ele>160</ele>
        <time>2018-08-18T12:43:27Z</time>
      </trkpt>
      <trkpt lat="48.67695" lon="1.82945">
        <ele>159</ele>
        <time>2018-08-18T12:43:31Z</time>
      </trkpt>
      <trkpt lat="48.67693" lon="1.82936">
        <ele>158</ele>
        <time>2018-08-18T12:43:35Z</time>
      </trkpt>
      <trkpt lat="48.67692" lon="1.82927">
        <ele>158</ele>
        <time>2018-08-18T12:43:39Z</time>
      </trkpt>
      <trkpt lat="48.6769" lon="1.82917">
        <ele>156</ele>
        <time>2018-08-18T12:43:43Z</time>
      </trkpt>
      <trkpt lat="48.6769" lon="1.8291">
        <ele>154</ele>
        <time>2018-08-18T12:43:47Z</time>
      </trkpt>
      <trkpt lat="48.67688" lon="1.82899">
        <ele>153</ele>
        <time>2018-08-18T12:43:51Z</time>
      </trkpt>
      <trkpt lat="48.67685" lon="1.82885">
        <ele>153</ele>
        <time>2018-08-18T12:43:55Z</time>
      </trkpt>
      <trkpt lat="48.67683" lon="1.82874">
        <ele>153</ele>
        <time>2018-08-18T12:43:59Z</time>
      </trkpt>
      <trkpt lat="48.67681" lon="1.82863">
        <ele>154</ele>
        <time>2018-08-18T12:44:03Z</time>
      </trkpt>
      <trkpt lat="48.67681" lon="1.82855">
        <ele>155</ele>
        <time>2018-08-18T12:44:07Z</time>
      </trkpt>
      <trkpt lat="48.6768" lon="1.82846">
        <ele>155</ele>
        <time>2018-08-18T12:44:11Z</time>
      </trkpt>
      <trkpt lat="48.6768" lon="1.82837">
        <ele>156</ele>
        <time>2018-08-18T12:44:16Z</time>
      </trkpt>
      <trkpt lat="48.67678" lon="1.82832">
        <ele>159</ele>
        <time>2018-08-18T12:44:20Z</time>
      </trkpt>
      <trkpt lat="48.67677" lon="1.82831">
        <ele>161</ele>
        <time>2018-08-18T12:44:25Z</time>
      </trkpt>
      <trkpt lat="48.67676" lon="1.82829">
        <ele>163</ele>
        <time>2018-08-18T12:44:30Z</time>
      </trkpt>
      <trkpt lat="48.67677" lon="1.82827">
        <ele>167</ele>
        <time>2018-08-18T12:44:49Z</time>
      </trkpt>
      <trkpt lat="48.67677" lon="1.82825">
        <ele>167</ele>
        <time>2018-08-18T12:44:56Z</time>
      </trkpt>
      <trkpt lat="48.67675" lon="1.82815">
        <ele>167</ele>
        <time>2018-08-18T12:45:00Z</time>
      </trkpt>
      <trkpt lat="48.67675" lon="1.82808">
        <ele>167</ele>
        <time>2018-08-18T12:45:04Z</time>
      </trkpt>
      <trkpt lat="48.67675" lon="1.82801">
        <ele>167</ele>
        <time>2018-08-18T12:45:08Z</time>
      </trkpt>
      <trkpt lat="48.67674" lon="1.82794">
        <ele>165</ele>
        <time>2018-08-18T12:45:13Z</time>
      </trkpt>
      <trkpt lat="48.67673" lon="1.82786">
        <ele>164</ele>
        <time>2018-08-18T12:45:17Z</time>
      </trkpt>
      <trkpt lat="48.67673" lon="1.82778">
        <ele>163</ele>
        <time>2018-08-18T12:45:21Z</time>
      </trkpt>
      <trkpt lat="48.67672" lon="1.82769">
        <ele>163</ele>
        <time>2018-08-18T12:45:25Z</time>
      </trkpt>
      <trkpt lat="48.67671" lon="1.82761">
        <ele>163</ele>
        <time>2018-08-18T12:45:29Z</time>
      </trkpt>
      <trkpt lat="48.6767" lon="1.82752">
        <ele>162</ele>
        <time>2018-08-18T12:45:33Z</time>
      </trkpt>
      <trkpt lat="48.67669" lon="1.82743">
        <ele>162</ele>
        <time>2018-08-18T12:45:37Z</time>
      </trkpt>
      <trkpt lat="48.67668" lon="1.82733">
        <ele>162</ele>
        <time>2018-08-18T12:45:41Z</time>
      </trkpt>
      <trkpt lat="48.67666" lon="1.82723">
        <ele>162</ele>
        <time>2018-08-18T12:45:45Z</time>
      </trkpt>
      <trkpt lat="48.67665" lon="1.82713">
        <ele>162</ele>
        <time>2018-08-18T12:45:49Z</time>
      </trkpt>
      <trkpt lat="48.67664" lon="1.82705">
        <ele>162</ele>
        <time>2018-08-18T12:45:53Z</time>
      </trkpt>
      <trkpt lat="48.67662" lon="1.82696">
        <ele>162</ele>
        <time>2018-08-18T12:45:57Z</time>
      </trkpt>
      <trkpt lat="48.67662" lon="1.82688">
        <ele>162</ele>
        <time>2018-08-18T12:46:01Z</time>
      </trkpt>
      <trkpt lat="48.67662" lon="1.82681">
        <ele>162</ele>
        <time>2018-08-18T12:46:05Z</time>
      </trkpt>
      <trkpt lat="48.67661" lon="1.82674">
        <ele>162</ele>
        <time>2018-08-18T12:46:09Z</time>
      </trkpt>
      <trkpt lat="48.6766" lon="1.82667">
        <ele>160</ele>
        <time>2018-08-18T12:46:13Z</time>
      </trkpt>
      <trkpt lat="48.6766" lon="1.82659">
        <ele>159</ele>
        <time>2018-08-18T12:46:17Z</time>
      </trkpt>
      <trkpt lat="48.67657" lon="1.82643">
        <ele>159</ele>
        <time>2018-08-18T12:46:22Z</time>
      </trkpt>
      <trkpt lat="48.67655" lon="1.82632">
        <ele>159</ele>
        <time>2018-08-18T12:46:26Z</time>
      </trkpt>
      <trkpt lat="48.67654" lon="1.82624">
        <ele>159</ele>
        <time>2018-08-18T12:46:30Z</time>
      </trkpt>
      <trkpt lat="48.67653" lon="1.82615">
        <ele>159</ele>
        <time>2018-08-18T12:46:34Z</time>
      </trkpt>
      <trkpt lat="48.67651" lon="1.82605">
        <ele>159</ele>
        <time>2018-08-18T12:46:38Z</time>
      </trkpt>
      <trkpt lat="48.6765" lon="1.82595">
        <ele>159</ele>
        <time>2018-08-18T12:46:42Z</time>
      </trkpt>
      <trkpt lat="48.67649" lon="1.82587">
        <ele>159</ele>
        <time>2018-08-18T12:46:46Z</time>
      </trkpt>
      <trkpt lat="48.67648" lon="1.82578">
        <ele>159</ele>
        <time>2018-08-18T12:46:50Z</time>
      </trkpt>
      <trkpt lat="48.67648" lon="1.82569">
        <ele>159</ele>
        <time>2018-08-18T12:46:55Z</time>
      </trkpt>
      <trkpt lat="48.67647" lon="1.82562">
        <ele>159</ele>
        <time>2018-08-18T12:46:59Z</time>
      </trkpt>
      <trkpt lat="48.67646" lon="1.82553">
        <ele>159</ele>
        <time>2018-08-18T12:47:03Z</time>
      </trkpt>
      <trkpt lat="48.67646" lon="1.82546">
        <ele>160</ele>
        <time>2018-08-18T12:47:07Z</time>
      </trkpt>
      <trkpt lat="48.67645" lon="1.82538">
        <ele>160</ele>
        <time>2018-08-18T12:47:11Z</time>
      </trkpt>
      <trkpt lat="48.67644" lon="1.82531">
        <ele>160</ele>
        <time>2018-08-18T12:47:15Z</time>
      </trkpt>
      <trkpt lat="48.67644" lon="1.82523">
        <ele>160</ele>
        <time>2018-08-18T12:47:19Z</time>
      </trkpt>
      <trkpt lat="48.67644" lon="1.82518">
        <ele>160</ele>
        <time>2018-08-18T12:47:23Z</time>
      </trkpt>
      <trkpt lat="48.67644" lon="1.82514">
        <ele>159</ele>
        <time>2018-08-18T12:47:27Z</time>
      </trkpt>
      <trkpt lat="48.67644" lon="1.82507">
        <ele>156</ele>
        <time>2018-08-18T12:47:31Z</time>
      </trkpt>
      <trkpt lat="48.6764" lon="1.82496">
        <ele>154</ele>
        <time>2018-08-18T12:47:35Z</time>
      </trkpt>
      <trkpt lat="48.67639" lon="1.82485">
        <ele>154</ele>
        <time>2018-08-18T12:47:39Z</time>
      </trkpt>
      <trkpt lat="48.67639" lon="1.82477">
        <ele>154</ele>
        <time>2018-08-18T12:47:43Z</time>
      </trkpt>
      <trkpt lat="48.67638" lon="1.82468">
        <ele>153</ele>
        <time>2018-08-18T12:47:47Z</time>
      </trkpt>
      <trkpt lat="48.67638" lon="1.8246">
        <ele>152</ele>
        <time>2018-08-18T12:47:51Z</time>
      </trkpt>
      <trkpt lat="48.67638" lon="1.82452">
        <ele>150</ele>
        <time>2018-08-18T12:47:55Z</time>
      </trkpt>
      <trkpt lat="48.67638" lon="1.82443">
        <ele>148</ele>
        <time>2018-08-18T12:47:59Z</time>
      </trkpt>
      <trkpt lat="48.67638" lon="1.82432">
        <ele>148</ele>
        <time>2018-08-18T12:48:03Z</time>
      </trkpt>
      <trkpt lat="48.67637" lon="1.82422">
        <ele>148</ele>
        <time>2018-08-18T12:48:07Z</time>
      </trkpt>
      <trkpt lat="48.67635" lon="1.8241">
        <ele>148</ele>
        <time>2018-08-18T12:48:11Z</time>
      </trkpt>
      <trkpt lat="48.67634" lon="1.82402">
        <ele>148</ele>
        <time>2018-08-18T12:48:15Z</time>
      </trkpt>
      <trkpt lat="48.67633" lon="1.82394">
        <ele>148</ele>
        <time>2018-08-18T12:48:19Z</time>
      </trkpt>
      <trkpt lat="48.67629" lon="1.8238">
        <ele>148</ele>
        <time>2018-08-18T12:48:23Z</time>
      </trkpt>
      <trkpt lat="48.67627" lon="1.82369">
        <ele>149</ele>
        <time>2018-08-18T12:48:27Z</time>
      </trkpt>
      <trkpt lat="48.67625" lon="1.82359">
        <ele>150</ele>
        <time>2018-08-18T12:48:31Z</time>
      </trkpt>
      <trkpt lat="48.67624" lon="1.82351">
        <ele>151</ele>
        <time>2018-08-18T12:48:35Z</time>
      </trkpt>
      <trkpt lat="48.67624" lon="1.82345">
        <ele>151</ele>
        <time>2018-08-18T12:48:39Z</time>
      </trkpt>
      <trkpt lat="48.67623" lon="1.82337">
        <ele>151</ele>
        <time>2018-08-18T12:48:43Z</time>
      </trkpt>
      <trkpt lat="48.67623" lon="1.8233">
        <ele>151</ele>
        <time>2018-08-18T12:48:47Z</time>
      </trkpt>
      <trkpt lat="48.67621" lon="1.82319">
        <ele>151</ele>
        <time>2018-08-18T12:48:51Z</time>
      </trkpt>
      <trkpt lat="48.67619" lon="1.82309">
        <ele>153</ele>
        <time>2018-08-18T12:48:55Z</time>
      </trkpt>
      <trkpt lat="48.67618" lon="1.82301">
        <ele>154</ele>
        <time>2018-08-18T12:48:59Z</time>
      </trkpt>
      <trkpt lat="48.67617" lon="1.82294">
        <ele>155</ele>
        <time>2018-08-18T12:49:03Z</time>
      </trkpt>
      <trkpt lat="48.67616" lon="1.82286">
        <ele>156</ele>
        <time>2018-08-18T12:49:07Z</time>
      </trkpt>
      <trkpt lat="48.67617" lon="1.82278">
        <ele>157</ele>
        <time>2018-08-18T12:49:12Z</time>
      </trkpt>
      <trkpt lat="48.67617" lon="1.82271">
        <ele>157</ele>
        <time>2018-08-18T12:49:16Z</time>
      </trkpt>
      <trkpt lat="48.67617" lon="1.82263">
        <ele>157</ele>
        <time>2018-08-18T12:49:20Z</time>
      </trkpt>
      <trkpt lat="48.67615" lon="1.82255">
        <ele>157</ele>
        <time>2018-08-18T12:49:24Z</time>
      </trkpt>
      <trkpt lat="48.67613" lon="1.82244">
        <ele>157</ele>
        <time>2018-08-18T12:49:28Z</time>
      </trkpt>
      <trkpt lat="48.67613" lon="1.82235">
        <ele>157</ele>
        <time>2018-08-18T12:49:33Z</time>
      </trkpt>
      <trkpt lat="48.67612" lon="1.82228">
        <ele>157</ele>
        <time>2018-08-18T12:49:37Z</time>
      </trkpt>
      <trkpt lat="48.6761" lon="1.8222">
        <ele>157</ele>
        <time>2018-08-18T12:49:41Z</time>
      </trkpt>
      <trkpt lat="48.67609" lon="1.82212">
        <ele>157</ele>
        <time>2018-08-18T12:49:45Z</time>
      </trkpt>
      <trkpt lat="48.67611" lon="1.8221">
        <ele>157</ele>
        <time>2018-08-18T12:49:49Z</time>
      </trkpt>
      <trkpt lat="48.67615" lon="1.8221">
        <ele>157</ele>
        <time>2018-08-18T12:49:53Z</time>
      </trkpt>
      <trkpt lat="48.6762" lon="1.82207">
        <ele>157</ele>
        <time>2018-08-18T12:49:57Z</time>
      </trkpt>
      <trkpt lat="48.67627" lon="1.82203">
        <ele>157</ele>
        <time>2018-08-18T12:50:02Z</time>
      </trkpt>
      <trkpt lat="48.67632" lon="1.82199">
        <ele>157</ele>
        <time>2018-08-18T12:50:06Z</time>
      </trkpt>
      <trkpt lat="48.67637" lon="1.82195">
        <ele>157</ele>
        <time>2018-08-18T12:50:10Z</time>
      </trkpt>
      <trkpt lat="48.67642" lon="1.82191">
        <ele>156</ele>
        <time>2018-08-18T12:50:14Z</time>
      </trkpt>
      <trkpt lat="48.67648" lon="1.82188">
        <ele>155</ele>
        <time>2018-08-18T12:50:18Z</time>
      </trkpt>
      <trkpt lat="48.67653" lon="1.82184">
        <ele>154</ele>
        <time>2018-08-18T12:50:23Z</time>
      </trkpt>
      <trkpt lat="48.67656" lon="1.82178">
        <ele>154</ele>
        <time>2018-08-18T12:50:27Z</time>
      </trkpt>
      <trkpt lat="48.67659" lon="1.8217">
        <ele>153</ele>
        <time>2018-08-18T12:50:32Z</time>
      </trkpt>
      <trkpt lat="48.67659" lon="1.82163">
        <ele>153</ele>
        <time>2018-08-18T12:50:36Z</time>
      </trkpt>
      <trkpt lat="48.67663" lon="1.82156">
        <ele>152</ele>
        <time>2018-08-18T12:50:41Z</time>
      </trkpt>
      <trkpt lat="48.67667" lon="1.82153">
        <ele>152</ele>
        <time>2018-08-18T12:50:45Z</time>
      </trkpt>
      <trkpt lat="48.67667" lon="1.82144">
        <ele>152</ele>
        <time>2018-08-18T12:50:49Z</time>
      </trkpt>
      <trkpt lat="48.67669" lon="1.82135">
        <ele>152</ele>
        <time>2018-08-18T12:50:53Z</time>
      </trkpt>
      <trkpt lat="48.6767" lon="1.82128">
        <ele>152</ele>
        <time>2018-08-18T12:50:57Z</time>
      </trkpt>
      <trkpt lat="48.67669" lon="1.82115">
        <ele>152</ele>
        <time>2018-08-18T12:51:01Z</time>
      </trkpt>
      <trkpt lat="48.67671" lon="1.82108">
        <ele>155</ele>
        <time>2018-08-18T12:51:05Z</time>
      </trkpt>
      <trkpt lat="48.67674" lon="1.82101">
        <ele>156</ele>
        <time>2018-08-18T12:51:09Z</time>
      </trkpt>
      <trkpt lat="48.67677" lon="1.82093">
        <ele>156</ele>
        <time>2018-08-18T12:51:13Z</time>
      </trkpt>
      <trkpt lat="48.67679" lon="1.82087">
        <ele>156</ele>
        <time>2018-08-18T12:51:17Z</time>
      </trkpt>
      <trkpt lat="48.67681" lon="1.82079">
        <ele>156</ele>
        <time>2018-08-18T12:51:21Z</time>
      </trkpt>
      <trkpt lat="48.6768" lon="1.8207">
        <ele>157</ele>
        <time>2018-08-18T12:51:25Z</time>
      </trkpt>
      <trkpt lat="48.67677" lon="1.82061">
        <ele>158</ele>
        <time>2018-08-18T12:51:29Z</time>
      </trkpt>
      <trkpt lat="48.67675" lon="1.82054">
        <ele>159</ele>
        <time>2018-08-18T12:51:33Z</time>
      </trkpt>
      <trkpt lat="48.6768" lon="1.82047">
        <ele>159</ele>
        <time>2018-08-18T12:51:38Z</time>
      </trkpt>
      <trkpt lat="48.67683" lon="1.8204">
        <ele>159</ele>
        <time>2018-08-18T12:51:42Z</time>
      </trkpt>
      <trkpt lat="48.67682" lon="1.8203">
        <ele>159</ele>
        <time>2018-08-18T12:51:46Z</time>
      </trkpt>
      <trkpt lat="48.67683" lon="1.82022">
        <ele>159</ele>
        <time>2018-08-18T12:51:50Z</time>
      </trkpt>
      <trkpt lat="48.67684" lon="1.82015">
        <ele>159</ele>
        <time>2018-08-18T12:51:54Z</time>
      </trkpt>
      <trkpt lat="48.67684" lon="1.82006">
        <ele>159</ele>
        <time>2018-08-18T12:51:58Z</time>
      </trkpt>
      <trkpt lat="48.67682" lon="1.81996">
        <ele>159</ele>
        <time>2018-08-18T12:52:02Z</time>
      </trkpt>
      <trkpt lat="48.6768" lon="1.81988">
        <ele>159</ele>
        <time>2018-08-18T12:52:06Z</time>
      </trkpt>
      <trkpt lat="48.67679" lon="1.8198">
        <ele>159</ele>
        <time>2018-08-18T12:52:10Z</time>
      </trkpt>
      <trkpt lat="48.67679" lon="1.81972">
        <ele>159</ele>
        <time>2018-08-18T12:52:14Z</time>
      </trkpt>
      <trkpt lat="48.67679" lon="1.81964">
        <ele>159</ele>
        <time>2018-08-18T12:52:18Z</time>
      </trkpt>
      <trkpt lat="48.67678" lon="1.81956">
        <ele>159</ele>
        <time>2018-08-18T12:52:22Z</time>
      </trkpt>
      <trkpt lat="48.67678" lon="1.81949">
        <ele>159</ele>
        <time>2018-08-18T12:52:26Z</time>
      </trkpt>
      <trkpt lat="48.67677" lon="1.8194">
        <ele>159</ele>
        <time>2018-08-18T12:52:30Z</time>
      </trkpt>
      <trkpt lat="48.67678" lon="1.81933">
        <ele>159</ele>
        <time>2018-08-18T12:52:34Z</time>
      </trkpt>
      <trkpt lat="48.6768" lon="1.81926">
        <ele>159</ele>
        <time>2018-08-18T12:52:38Z</time>
      </trkpt>
      <trkpt lat="48.67681" lon="1.81918">
        <ele>157</ele>
        <time>2018-08-18T12:52:42Z</time>
      </trkpt>
      <trkpt lat="48.67681" lon="1.81909">
        <ele>157</ele>
        <time>2018-08-18T12:52:46Z</time>
      </trkpt>
      <trkpt lat="48.67682" lon="1.819">
        <ele>157</ele>
        <time>2018-08-18T12:52:50Z</time>
      </trkpt>
      <trkpt lat="48.67683" lon="1.81892">
        <ele>156</ele>
        <time>2018-08-18T12:52:55Z</time>
      </trkpt>
      <trkpt lat="48.67686" lon="1.81885">
        <ele>153</ele>
        <time>2018-08-18T12:53:00Z</time>
      </trkpt>
      <trkpt lat="48.67689" lon="1.81878">
        <ele>150</ele>
        <time>2018-08-18T12:53:05Z</time>
      </trkpt>
      <trkpt lat="48.67693" lon="1.81872">
        <ele>148</ele>
        <time>2018-08-18T12:53:10Z</time>
      </trkpt>
      <trkpt lat="48.67694" lon="1.81866">
        <ele>145</ele>
        <time>2018-08-18T12:53:14Z</time>
      </trkpt>
      <trkpt lat="48.67695" lon="1.81855">
        <ele>144</ele>
        <time>2018-08-18T12:53:18Z</time>
      </trkpt>
      <trkpt lat="48.67695" lon="1.81846">
        <ele>144</ele>
        <time>2018-08-18T12:53:22Z</time>
      </trkpt>
      <trkpt lat="48.67695" lon="1.81837">
        <ele>144</ele>
        <time>2018-08-18T12:53:26Z</time>
      </trkpt>
      <trkpt lat="48.67694" lon="1.81828">
        <ele>144</ele>
        <time>2018-08-18T12:53:30Z</time>
      </trkpt>
      <trkpt lat="48.6769" lon="1.81815">
        <ele>144</ele>
        <time>2018-08-18T12:53:34Z</time>
      </trkpt>
      <trkpt lat="48.67688" lon="1.81807">
        <ele>145</ele>
        <time>2018-08-18T12:53:38Z</time>
      </trkpt>
      <trkpt lat="48.67686" lon="1.81799">
        <ele>146</ele>
        <time>2018-08-18T12:53:42Z</time>
      </trkpt>
      <trkpt lat="48.67683" lon="1.8179">
        <ele>148</ele>
        <time>2018-08-18T12:53:46Z</time>
      </trkpt>
      <trkpt lat="48.67682" lon="1.81782">
        <ele>149</ele>
        <time>2018-08-18T12:53:50Z</time>
      </trkpt>
      <trkpt lat="48.67681" lon="1.81773">
        <ele>149</ele>
        <time>2018-08-18T12:53:54Z</time>
      </trkpt>
      <trkpt lat="48.67678" lon="1.81764">
        <ele>152</ele>
        <time>2018-08-18T12:53:58Z</time>
      </trkpt>
      <trkpt lat="48.67677" lon="1.81755">
        <ele>154</ele>
        <time>2018-08-18T12:54:02Z</time>
      </trkpt>
      <trkpt lat="48.67678" lon="1.81745">
        <ele>154</ele>
        <time>2018-08-18T12:54:07Z</time>
      </trkpt>
      <trkpt lat="48.67679" lon="1.81737">
        <ele>154</ele>
        <time>2018-08-18T12:54:11Z</time>
      </trkpt>
      <trkpt lat="48.6768" lon="1.81727">
        <ele>154</ele>
        <time>2018-08-18T12:54:16Z</time>
      </trkpt>
      <trkpt lat="48.67681" lon="1.81718">
        <ele>154</ele>
        <time>2018-08-18T12:54:20Z</time>
      </trkpt>
      <trkpt lat="48.67681" lon="1.81711">
        <ele>153</ele>
        <time>2018-08-18T12:54:24Z</time>
      </trkpt>
      <trkpt lat="48.67682" lon="1.81702">
        <ele>152</ele>
        <time>2018-08-18T12:54:28Z</time>
      </trkpt>
      <trkpt lat="48.67682" lon="1.81694">
        <ele>152</ele>
        <time>2018-08-18T12:54:32Z</time>
      </trkpt>
      <trkpt lat="48.67682" lon="1.81685">
        <ele>152</ele>
        <time>2018-08-18T12:54:36Z</time>
      </trkpt>
      <trkpt lat="48.67681" lon="1.81676">
        <ele>151</ele>
        <time>2018-08-18T12:54:40Z</time>
      </trkpt>
      <trkpt lat="48.67679" lon="1.81667">
        <ele>151</ele>
        <time>2018-08-18T12:54:44Z</time>
      </trkpt>
      <trkpt lat="48.67678" lon="1.81657">
        <ele>151</ele>
        <time>2018-08-18T12:54:48Z</time>
      </trkpt>
      <trkpt lat="48.67676" lon="1.81645">
        <ele>151</ele>
        <time>2018-08-18T12:54:53Z</time>
      </trkpt>
      <trkpt lat="48.67674" lon="1.81636">
        <ele>154</ele>
        <time>2018-08-18T12:54:57Z</time>
      </trkpt>
      <trkpt lat="48.67674" lon="1.81626">
        <ele>154</ele>
        <time>2018-08-18T12:55:02Z</time>
      </trkpt>
      <trkpt lat="48.67674" lon="1.81618">
        <ele>154</ele>
        <time>2018-08-18T12:55:06Z</time>
      </trkpt>
      <trkpt lat="48.67675" lon="1.81611">
        <ele>154</ele>
        <time>2018-08-18T12:55:10Z</time>
      </trkpt>
      <trkpt lat="48.67675" lon="1.81604">
        <ele>154</ele>
        <time>2018-08-18T12:55:14Z</time>
      </trkpt>
      <trkpt lat="48.67674" lon="1.81597">
        <ele>154</ele>
        <time>2018-08-18T12:55:18Z</time>
      </trkpt>
      <trkpt lat="48.67672" lon="1.81587">
        <ele>153</ele>
        <time>2018-08-18T12:55:22Z</time>
      </trkpt>
      <trkpt lat="48.6767" lon="1.81578">
        <ele>153</ele>
        <time>2018-08-18T12:55:26Z</time>
      </trkpt>
      <trkpt lat="48.67671" lon="1.8157">
        <ele>153</ele>
        <time>2018-08-18T12:55:30Z</time>
      </trkpt>
      <trkpt lat="48.67672" lon="1.81561">
        <ele>153</ele>
        <time>2018-08-18T12:55:34Z</time>
      </trkpt>
      <trkpt lat="48.67673" lon="1.81554">
        <ele>153</ele>
        <time>2018-08-18T12:55:38Z</time>
      </trkpt>
      <trkpt lat="48.67675" lon="1.81546">
        <ele>152</ele>
        <time>2018-08-18T12:55:42Z</time>
      </trkpt>
      <trkpt lat="48.67673" lon="1.81534">
        <ele>151</ele>
        <time>2018-08-18T12:55:46Z</time>
      </trkpt>
      <trkpt lat="48.67672" lon="1.81525">
        <ele>151</ele>
        <time>2018-08-18T12:55:50Z</time>
      </trkpt>
      <trkpt lat="48.67673" lon="1.81517">
        <ele>151</ele>
        <time>2018-08-18T12:55:54Z</time>
      </trkpt>
      <trkpt lat="48.67675" lon="1.81508">
        <ele>151</ele>
        <time>2018-08-18T12:55:59Z</time>
      </trkpt>
      <trkpt lat="48.67675" lon="1.81498">
        <ele>151</ele>
        <time>2018-08-18T12:56:04Z</time>
      </trkpt>
      <trkpt lat="48.67675" lon="1.81488">
        <ele>151</ele>
        <time>2018-08-18T12:56:08Z</time>
      </trkpt>
      <trkpt lat="48.67676" lon="1.81481">
        <ele>151</ele>
        <time>2018-08-18T12:56:12Z</time>
      </trkpt>
      <trkpt lat="48.67677" lon="1.81473">
        <ele>151</ele>
        <time>2018-08-18T12:56:16Z</time>
      </trkpt>
      <trkpt lat="48.67678" lon="1.81464">
        <ele>151</ele>
        <time>2018-08-18T12:56:21Z</time>
      </trkpt>
      <trkpt lat="48.67679" lon="1.81452">
        <ele>151</ele>
        <time>2018-08-18T12:56:27Z</time>
      </trkpt>
      <trkpt lat="48.6768" lon="1.81442">
        <ele>151</ele>
        <time>2018-08-18T12:56:32Z</time>
      </trkpt>
      <trkpt lat="48.67682" lon="1.81434">
        <ele>151</ele>
        <time>2018-08-18T12:56:36Z</time>
      </trkpt>
      <trkpt lat="48.67686" lon="1.81427">
        <ele>150</ele>
        <time>2018-08-18T12:56:41Z</time>
      </trkpt>
      <trkpt lat="48.67691" lon="1.8142">
        <ele>149</ele>
        <time>2018-08-18T12:56:45Z</time>
      </trkpt>
      <trkpt lat="48.67695" lon="1.81412">
        <ele>148</ele>
        <time>2018-08-18T12:56:50Z</time>
      </trkpt>
      <trkpt lat="48.67697" lon="1.81402">
        <ele>148</ele>
        <time>2018-08-18T12:56:54Z</time>
      </trkpt>
      <trkpt lat="48.677" lon="1.81395">
        <ele>148</ele>
        <time>2018-08-18T12:56:58Z</time>
      </trkpt>
      <trkpt lat="48.67701" lon="1.81384">
        <ele>148</ele>
        <time>2018-08-18T12:57:04Z</time>
      </trkpt>
      <trkpt lat="48.67703" lon="1.81376">
        <ele>148</ele>
        <time>2018-08-18T12:57:08Z</time>
      </trkpt>
      <trkpt lat="48.67705" lon="1.81366">
        <ele>148</ele>
        <time>2018-08-18T12:57:12Z</time>
      </trkpt>
      <trkpt lat="48.67706" lon="1.81357">
        <ele>150</ele>
        <time>2018-08-18T12:57:16Z</time>
      </trkpt>
      <trkpt lat="48.67708" lon="1.8135">
        <ele>150</ele>
        <time>2018-08-18T12:57:20Z</time>
      </trkpt>
      <trkpt lat="48.6771" lon="1.81342">
        <ele>151</ele>
        <time>2018-08-18T12:57:24Z</time>
      </trkpt>
      <trkpt lat="48.67711" lon="1.81334">
        <ele>152</ele>
        <time>2018-08-18T12:57:28Z</time>
      </trkpt>
      <trkpt lat="48.67713" lon="1.81327">
        <ele>153</ele>
        <time>2018-08-18T12:57:32Z</time>
      </trkpt>
      <trkpt lat="48.67716" lon="1.81317">
        <ele>153</ele>
        <time>2018-08-18T12:57:38Z</time>
      </trkpt>
      <trkpt lat="48.6772" lon="1.81305">
        <ele>153</ele>
        <time>2018-08-18T12:57:44Z</time>
      </trkpt>
      <trkpt lat="48.67724" lon="1.81302">
        <ele>155</ele>
        <time>2018-08-18T12:57:50Z</time>
      </trkpt>
      <trkpt lat="48.6773" lon="1.81301">
        <ele>156</ele>
        <time>2018-08-18T12:57:55Z</time>
      </trkpt>
      <trkpt lat="48.67733" lon="1.81305">
        <ele>157</ele>
        <time>2018-08-18T12:57:59Z</time>
      </trkpt>
      <trkpt lat="48.67737" lon="1.81309">
        <ele>158</ele>
        <time>2018-08-18T12:58:05Z</time>
      </trkpt>
      <trkpt lat="48.67738" lon="1.8131">
        <ele>158</ele>
        <time>2018-08-18T12:58:10Z</time>
      </trkpt>
      <trkpt lat="48.6774" lon="1.81309">
        <ele>159</ele>
        <time>2018-08-18T12:58:17Z</time>
      </trkpt>
      <trkpt lat="48.67742" lon="1.81308">
        <ele>159</ele>
        <time>2018-08-18T12:58:26Z</time>
      </trkpt>
      <trkpt lat="48.67744" lon="1.81308">
        <ele>160</ele>
        <time>2018-08-18T12:58:34Z</time>
      </trkpt>
      <trkpt lat="48.67746" lon="1.81309">
        <ele>163</ele>
        <time>2018-08-18T12:59:06Z</time>
      </trkpt>
      <trkpt lat="48.67745" lon="1.81307">
        <ele>163</ele>
        <time>2018-08-18T12:59:19Z</time>
      </trkpt>
      <trkpt lat="48.67744" lon="1.81307">
        <ele>163</ele>
        <time>2018-08-18T12:59:32Z</time>
      </trkpt>
      <trkpt lat="48.67743" lon="1.81305">
        <ele>163</ele>
        <time>2018-08-18T12:59:46Z</time>
      </trkpt>
      <trkpt lat="48.67743" lon="1.81306">
        <ele>163</ele>
        <time>2018-08-18T12:59:55Z</time>
      </trkpt>
      <trkpt lat="48.67743" lon="1.81308">
        <ele>163</ele>
        <time>2018-08-18T13:00:15Z</time>
      </trkpt>
      <trkpt lat="48.67744" lon="1.81309">
        <ele>163</ele>
        <time>2018-08-18T13:00:38Z</time>
      </trkpt>
      <trkpt lat="48.67746" lon="1.81309">
        <ele>163</ele>
        <time>2018-08-18T13:00:50Z</time>
      </trkpt>
      <trkpt lat="48.67746" lon="1.81307">
        <ele>165</ele>
        <time>2018-08-18T13:01:06Z</time>
      </trkpt>
      <trkpt lat="48.67745" lon="1.81306">
        <ele>165</ele>
        <time>2018-08-18T13:01:10Z</time>
      </trkpt>
      <trkpt lat="48.67744" lon="1.81307">
        <ele>166</ele>
        <time>2018-08-18T13:01:14Z</time>
      </trkpt>
      <trkpt lat="48.67743" lon="1.81309">
        <ele>166</ele>
        <time>2018-08-18T13:01:24Z</time>
      </trkpt>
      <trkpt lat="48.67741" lon="1.81309">
        <ele>166</ele>
        <time>2018-08-18T13:01:39Z</time>
      </trkpt>
      <trkpt lat="48.67736" lon="1.81306">
        <ele>166</ele>
        <time>2018-08-18T13:01:45Z</time>
      </trkpt>
      <trkpt lat="48.67733" lon="1.81298">
        <ele>166</ele>
        <time>2018-08-18T13:01:51Z</time>
      </trkpt>
      <trkpt lat="48.67736" lon="1.81293">
        <ele>166</ele>
        <time>2018-08-18T13:01:57Z</time>
      </trkpt>
      <trkpt lat="48.6774" lon="1.81289">
        <ele>166</ele>
        <time>2018-08-18T13:02:03Z</time>
      </trkpt>
      <trkpt lat="48.67742" lon="1.81281">
        <ele>166</ele>
        <time>2018-08-18T13:02:09Z</time>
      </trkpt>
      <trkpt lat="48.67744" lon="1.81279">
        <ele>166</ele>
        <time>2018-08-18T13:02:24Z</time>
      </trkpt>
      <trkpt lat="48.67745" lon="1.81277">
        <ele>166</ele>
        <time>2018-08-18T13:02:44Z</time>
      </trkpt>
      <trkpt lat="48.67743" lon="1.81278">
        <ele>166</ele>
        <time>2018-08-18T13:03:09Z</time>
      </trkpt>
      <trkpt lat="48.67741" lon="1.81272">
        <ele>166</ele>
        <time>2018-08-18T13:03:14Z</time>
      </trkpt>
      <trkpt lat="48.67741" lon="1.81266">
        <ele>166</ele>
        <time>2018-08-18T13:03:18Z</time>
      </trkpt>
      <trkpt lat="48.67742" lon="1.81259">
        <ele>167</ele>
        <time>2018-08-18T13:03:23Z</time>
      </trkpt>
      <trkpt lat="48.67741" lon="1.81255">
        <ele>168</ele>
        <time>2018-08-18T13:03:34Z</time>
      </trkpt>
      <trkpt lat="48.6774" lon="1.81253">
        <ele>169</ele>
        <time>2018-08-18T13:03:38Z</time>
      </trkpt>
      <trkpt lat="48.67742" lon="1.81248">
        <ele>169</ele>
        <time>2018-08-18T13:03:42Z</time>
      </trkpt>
      <trkpt lat="48.67745" lon="1.81244">
        <ele>169</ele>
        <time>2018-08-18T13:03:46Z</time>
      </trkpt>
      <trkpt lat="48.67748" lon="1.81239">
        <ele>169</ele>
        <time>2018-08-18T13:03:50Z</time>
      </trkpt>
      <trkpt lat="48.67752" lon="1.81235">
        <ele>169</ele>
        <time>2018-08-18T13:03:54Z</time>
      </trkpt>
      <trkpt lat="48.67755" lon="1.81227">
        <ele>168</ele>
        <time>2018-08-18T13:03:59Z</time>
      </trkpt>
      <trkpt lat="48.67759" lon="1.81221">
        <ele>168</ele>
        <time>2018-08-18T13:04:04Z</time>
      </trkpt>
      <trkpt lat="48.67762" lon="1.81215">
        <ele>168</ele>
        <time>2018-08-18T13:04:08Z</time>
      </trkpt>
      <trkpt lat="48.67767" lon="1.81208">
        <ele>167</ele>
        <time>2018-08-18T13:04:13Z</time>
      </trkpt>
      <trkpt lat="48.67773" lon="1.81201">
        <ele>166</ele>
        <time>2018-08-18T13:04:19Z</time>
      </trkpt>
      <trkpt lat="48.67779" lon="1.81197">
        <ele>164</ele>
        <time>2018-08-18T13:04:24Z</time>
      </trkpt>
      <trkpt lat="48.67784" lon="1.81194">
        <ele>162</ele>
        <time>2018-08-18T13:04:28Z</time>
      </trkpt>
      <trkpt lat="48.67789" lon="1.81189">
        <ele>162</ele>
        <time>2018-08-18T13:04:33Z</time>
      </trkpt>
      <trkpt lat="48.67793" lon="1.81185">
        <ele>162</ele>
        <time>2018-08-18T13:04:37Z</time>
      </trkpt>
      <trkpt lat="48.67798" lon="1.8118">
        <ele>162</ele>
        <time>2018-08-18T13:04:41Z</time>
      </trkpt>
      <trkpt lat="48.67802" lon="1.81174">
        <ele>162</ele>
        <time>2018-08-18T13:04:46Z</time>
      </trkpt>
      <trkpt lat="48.67806" lon="1.81169">
        <ele>162</ele>
        <time>2018-08-18T13:04:50Z</time>
      </trkpt>
      <trkpt lat="48.67811" lon="1.81164">
        <ele>160</ele>
        <time>2018-08-18T13:04:54Z</time>
      </trkpt>
      <trkpt lat="48.67815" lon="1.8116">
        <ele>158</ele>
        <time>2018-08-18T13:04:58Z</time>
      </trkpt>
      <trkpt lat="48.6782" lon="1.81156">
        <ele>157</ele>
        <time>2018-08-18T13:05:03Z</time>
      </trkpt>
      <trkpt lat="48.67826" lon="1.81152">
        <ele>157</ele>
        <time>2018-08-18T13:05:08Z</time>
      </trkpt>
      <trkpt lat="48.67832" lon="1.81145">
        <ele>157</ele>
        <time>2018-08-18T13:05:13Z</time>
      </trkpt>
      <trkpt lat="48.67837" lon="1.81141">
        <ele>157</ele>
        <time>2018-08-18T13:05:17Z</time>
      </trkpt>
      <trkpt lat="48.67842" lon="1.81139">
        <ele>157</ele>
        <time>2018-08-18T13:05:22Z</time>
      </trkpt>
      <trkpt lat="48.67849" lon="1.81139">
        <ele>157</ele>
        <time>2018-08-18T13:05:28Z</time>
      </trkpt>
      <trkpt lat="48.67854" lon="1.8114">
        <ele>158</ele>
        <time>2018-08-18T13:05:33Z</time>
      </trkpt>
      <trkpt lat="48.67861" lon="1.81139">
        <ele>158</ele>
        <time>2018-08-18T13:05:38Z</time>
      </trkpt>
      <trkpt lat="48.67865" lon="1.8113">
        <ele>158</ele>
        <time>2018-08-18T13:05:43Z</time>
      </trkpt>
      <trkpt lat="48.67865" lon="1.8112">
        <ele>158</ele>
        <time>2018-08-18T13:05:48Z</time>
      </trkpt>
      <trkpt lat="48.67866" lon="1.81113">
        <ele>158</ele>
        <time>2018-08-18T13:05:52Z</time>
      </trkpt>
      <trkpt lat="48.67868" lon="1.81106">
        <ele>158</ele>
        <time>2018-08-18T13:05:56Z</time>
      </trkpt>
      <trkpt lat="48.67868" lon="1.81098">
        <ele>158</ele>
        <time>2018-08-18T13:06:00Z</time>
      </trkpt>
      <trkpt lat="48.67868" lon="1.81089">
        <ele>158</ele>
        <time>2018-08-18T13:06:05Z</time>
      </trkpt>
      <trkpt lat="48.67868" lon="1.8108">
        <ele>158</ele>
        <time>2018-08-18T13:06:10Z</time>
      </trkpt>
      <trkpt lat="48.67868" lon="1.81071">
        <ele>156</ele>
        <time>2018-08-18T13:06:15Z</time>
      </trkpt>
      <trkpt lat="48.67872" lon="1.81064">
        <ele>155</ele>
        <time>2018-08-18T13:06:20Z</time>
      </trkpt>
      <trkpt lat="48.67873" lon="1.81052">
        <ele>155</ele>
        <time>2018-08-18T13:06:25Z</time>
      </trkpt>
      <trkpt lat="48.67873" lon="1.8104">
        <ele>155</ele>
        <time>2018-08-18T13:06:30Z</time>
      </trkpt>
      <trkpt lat="48.67875" lon="1.8103">
        <ele>155</ele>
        <time>2018-08-18T13:06:35Z</time>
      </trkpt>
      <trkpt lat="48.67877" lon="1.8102">
        <ele>155</ele>
        <time>2018-08-18T13:06:41Z</time>
      </trkpt>
      <trkpt lat="48.67881" lon="1.81011">
        <ele>155</ele>
        <time>2018-08-18T13:06:47Z</time>
      </trkpt>
      <trkpt lat="48.67883" lon="1.81005">
        <ele>155</ele>
        <time>2018-08-18T13:06:52Z</time>
      </trkpt>
      <trkpt lat="48.67879" lon="1.80994">
        <ele>155</ele>
        <time>2018-08-18T13:06:57Z</time>
      </trkpt>
      <trkpt lat="48.67874" lon="1.80987">
        <ele>155</ele>
        <time>2018-08-18T13:07:02Z</time>
      </trkpt>
      <trkpt lat="48.67873" lon="1.8098">
        <ele>153</ele>
        <time>2018-08-18T13:07:06Z</time>
      </trkpt>
      <trkpt lat="48.67869" lon="1.8097">
        <ele>153</ele>
        <time>2018-08-18T13:07:10Z</time>
      </trkpt>
      <trkpt lat="48.67867" lon="1.80964">
        <ele>153</ele>
        <time>2018-08-18T13:07:14Z</time>
      </trkpt>
      <trkpt lat="48.67866" lon="1.80951">
        <ele>153</ele>
        <time>2018-08-18T13:07:19Z</time>
      </trkpt>
      <trkpt lat="48.67867" lon="1.80927">
        <ele>153</ele>
        <time>2018-08-18T13:07:24Z</time>
      </trkpt>
      <trkpt lat="48.6787" lon="1.809">
        <ele>154</ele>
        <time>2018-08-18T13:07:29Z</time>
      </trkpt>
      <trkpt lat="48.67877" lon="1.80875">
        <ele>154</ele>
        <time>2018-08-18T13:07:34Z</time>
      </trkpt>
      <trkpt lat="48.67884" lon="1.8085">
        <ele>154</ele>
        <time>2018-08-18T13:07:39Z</time>
      </trkpt>
      <trkpt lat="48.67891" lon="1.80825">
        <ele>154</ele>
        <time>2018-08-18T13:07:44Z</time>
      </trkpt>
      <trkpt lat="48.67898" lon="1.80801">
        <ele>154</ele>
        <time>2018-08-18T13:07:49Z</time>
      </trkpt>
      <trkpt lat="48.67905" lon="1.80778">
        <ele>154</ele>
        <time>2018-08-18T13:07:54Z</time>
      </trkpt>
      <trkpt lat="48.67911" lon="1.80754">
        <ele>154</ele>
        <time>2018-08-18T13:07:59Z</time>
      </trkpt>
      <trkpt lat="48.67918" lon="1.80733">
        <ele>154</ele>
        <time>2018-08-18T13:08:04Z</time>
      </trkpt>
      <trkpt lat="48.67929" lon="1.80718">
        <ele>154</ele>
        <time>2018-08-18T13:08:09Z</time>
      </trkpt>
      <trkpt lat="48.67941" lon="1.807">
        <ele>154</ele>
        <time>2018-08-18T13:08:14Z</time>
      </trkpt>
      <trkpt lat="48.67951" lon="1.80684">
        <ele>154</ele>
        <time>2018-08-18T13:08:19Z</time>
      </trkpt>
      <trkpt lat="48.6796" lon="1.80672">
        <ele>154</ele>
        <time>2018-08-18T13:08:24Z</time>
      </trkpt>
      <trkpt lat="48.67971" lon="1.80657">
        <ele>154</ele>
        <time>2018-08-18T13:08:29Z</time>
      </trkpt>
      <trkpt lat="48.67982" lon="1.80641">
        <ele>154</ele>
        <time>2018-08-18T13:08:34Z</time>
      </trkpt>
      <trkpt lat="48.67993" lon="1.80625">
        <ele>153</ele>
        <time>2018-08-18T13:08:39Z</time>
      </trkpt>
      <trkpt lat="48.68004" lon="1.8061">
        <ele>153</ele>
        <time>2018-08-18T13:08:44Z</time>
      </trkpt>
      <trkpt lat="48.68018" lon="1.80598">
        <ele>152</ele>
        <time>2018-08-18T13:08:49Z</time>
      </trkpt>
      <trkpt lat="48.68031" lon="1.80583">
        <ele>154</ele>
        <time>2018-08-18T13:08:54Z</time>
      </trkpt>
      <trkpt lat="48.68044" lon="1.80567">
        <ele>154</ele>
        <time>2018-08-18T13:08:59Z</time>
      </trkpt>
      <trkpt lat="48.68058" lon="1.80556">
        <ele>154</ele>
        <time>2018-08-18T13:09:04Z</time>
      </trkpt>
      <trkpt lat="48.68069" lon="1.80546">
        <ele>154</ele>
        <time>2018-08-18T13:09:09Z</time>
      </trkpt>
      <trkpt lat="48.68081" lon="1.80534">
        <ele>154</ele>
        <time>2018-08-18T13:09:14Z</time>
      </trkpt>
      <trkpt lat="48.68091" lon="1.80517">
        <ele>154</ele>
        <time>2018-08-18T13:09:19Z</time>
      </trkpt>
      <trkpt lat="48.68105" lon="1.80504">
        <ele>154</ele>
        <time>2018-08-18T13:09:24Z</time>
      </trkpt>
      <trkpt lat="48.68126" lon="1.80491">
        <ele>154</ele>
        <time>2018-08-18T13:09:29Z</time>
      </trkpt>
      <trkpt lat="48.68152" lon="1.80477">
        <ele>155</ele>
        <time>2018-08-18T13:09:34Z</time>
      </trkpt>
      <trkpt lat="48.68175" lon="1.80466">
        <ele>157</ele>
        <time>2018-08-18T13:09:38Z</time>
      </trkpt>
      <trkpt lat="48.68203" lon="1.80451">
        <ele>158</ele>
        <time>2018-08-18T13:09:42Z</time>
      </trkpt>
      <trkpt lat="48.68235" lon="1.80435">
        <ele>159</ele>
        <time>2018-08-18T13:09:46Z</time>
      </trkpt>
      <trkpt lat="48.68266" lon="1.80418">
        <ele>161</ele>
        <time>2018-08-18T13:09:50Z</time>
      </trkpt>
      <trkpt lat="48.68298" lon="1.80404">
        <ele>163</ele>
        <time>2018-08-18T13:09:54Z</time>
      </trkpt>
      <trkpt lat="48.68339" lon="1.80387">
        <ele>164</ele>
        <time>2018-08-18T13:09:59Z</time>
      </trkpt>
      <trkpt lat="48.6837" lon="1.80373">
        <ele>167</ele>
        <time>2018-08-18T13:10:03Z</time>
      </trkpt>
      <trkpt lat="48.68397" lon="1.80361">
        <ele>167</ele>
        <time>2018-08-18T13:10:07Z</time>
      </trkpt>
      <trkpt lat="48.68424" lon="1.80347">
        <ele>168</ele>
        <time>2018-08-18T13:10:11Z</time>
      </trkpt>
      <trkpt lat="48.68451" lon="1.80336">
        <ele>168</ele>
        <time>2018-08-18T13:10:15Z</time>
      </trkpt>
      <trkpt lat="48.68476" lon="1.80325">
        <ele>168</ele>
        <time>2018-08-18T13:10:19Z</time>
      </trkpt>
      <trkpt lat="48.68504" lon="1.80312">
        <ele>168</ele>
        <time>2018-08-18T13:10:23Z</time>
      </trkpt>
      <trkpt lat="48.68532" lon="1.80299">
        <ele>168</ele>
        <time>2018-08-18T13:10:27Z</time>
      </trkpt>
      <trkpt lat="48.68556" lon="1.80287">
        <ele>168</ele>
        <time>2018-08-18T13:10:31Z</time>
      </trkpt>
      <trkpt lat="48.68577" lon="1.80276">
        <ele>168</ele>
        <time>2018-08-18T13:10:35Z</time>
      </trkpt>
      <trkpt lat="48.68598" lon="1.80264">
        <ele>168</ele>
        <time>2018-08-18T13:10:39Z</time>
      </trkpt>
      <trkpt lat="48.6863" lon="1.80252">
        <ele>168</ele>
        <time>2018-08-18T13:10:44Z</time>
      </trkpt>
      <trkpt lat="48.68683" lon="1.80229">
        <ele>168</ele>
        <time>2018-08-18T13:10:49Z</time>
      </trkpt>
      <trkpt lat="48.6873" lon="1.80209">
        <ele>168</ele>
        <time>2018-08-18T13:10:53Z</time>
      </trkpt>
      <trkpt lat="48.68781" lon="1.80186">
        <ele>168</ele>
        <time>2018-08-18T13:10:57Z</time>
      </trkpt>
      <trkpt lat="48.68828" lon="1.80164">
        <ele>168</ele>
        <time>2018-08-18T13:11:01Z</time>
      </trkpt>
      <trkpt lat="48.68873" lon="1.80145">
        <ele>168</ele>
        <time>2018-08-18T13:11:05Z</time>
      </trkpt>
      <trkpt lat="48.68916" lon="1.80126">
        <ele>168</ele>
        <time>2018-08-18T13:11:09Z</time>
      </trkpt>
      <trkpt lat="48.68955" lon="1.80107">
        <ele>166</ele>
        <time>2018-08-18T13:11:13Z</time>
      </trkpt>
      <trkpt lat="48.68993" lon="1.80092">
        <ele>165</ele>
        <time>2018-08-18T13:11:17Z</time>
      </trkpt>
      <trkpt lat="48.69029" lon="1.80075">
        <ele>164</ele>
        <time>2018-08-18T13:11:21Z</time>
      </trkpt>
      <trkpt lat="48.69067" lon="1.80057">
        <ele>163</ele>
        <time>2018-08-18T13:11:25Z</time>
      </trkpt>
      <trkpt lat="48.69111" lon="1.80037">
        <ele>162</ele>
        <time>2018-08-18T13:11:29Z</time>
      </trkpt>
      <trkpt lat="48.69151" lon="1.80017">
        <ele>162</ele>
        <time>2018-08-18T13:11:33Z</time>
      </trkpt>
      <trkpt lat="48.69189" lon="1.80001">
        <ele>162</ele>
        <time>2018-08-18T13:11:37Z</time>
      </trkpt>
      <trkpt lat="48.69222" lon="1.79986">
        <ele>162</ele>
        <time>2018-08-18T13:11:41Z</time>
      </trkpt>
      <trkpt lat="48.69253" lon="1.7997">
        <ele>162</ele>
        <time>2018-08-18T13:11:45Z</time>
      </trkpt>
      <trkpt lat="48.69282" lon="1.79956">
        <ele>162</ele>
        <time>2018-08-18T13:11:49Z</time>
      </trkpt>
      <trkpt lat="48.69313" lon="1.79943">
        <ele>162</ele>
        <time>2018-08-18T13:11:53Z</time>
      </trkpt>
      <trkpt lat="48.69344" lon="1.7993">
        <ele>164</ele>
        <time>2018-08-18T13:11:57Z</time>
      </trkpt>
      <trkpt lat="48.69371" lon="1.79918">
        <ele>166</ele>
        <time>2018-08-18T13:12:01Z</time>
      </trkpt>
      <trkpt lat="48.69395" lon="1.79906">
        <ele>167</ele>
        <time>2018-08-18T13:12:05Z</time>
      </trkpt>
      <trkpt lat="48.69417" lon="1.79894">
        <ele>168</ele>
        <time>2018-08-18T13:12:09Z</time>
      </trkpt>
      <trkpt lat="48.69439" lon="1.79885">
        <ele>168</ele>
        <time>2018-08-18T13:12:13Z</time>
      </trkpt>
      <trkpt lat="48.6946" lon="1.79876">
        <ele>168</ele>
        <time>2018-08-18T13:12:17Z</time>
      </trkpt>
      <trkpt lat="48.69477" lon="1.79867">
        <ele>168</ele>
        <time>2018-08-18T13:12:21Z</time>
      </trkpt>
      <trkpt lat="48.69494" lon="1.79859">
        <ele>168</ele>
        <time>2018-08-18T13:12:25Z</time>
      </trkpt>
      <trkpt lat="48.69511" lon="1.79851">
        <ele>168</ele>
        <time>2018-08-18T13:12:29Z</time>
      </trkpt>
      <trkpt lat="48.69526" lon="1.79844">
        <ele>168</ele>
        <time>2018-08-18T13:12:33Z</time>
      </trkpt>
      <trkpt lat="48.69538" lon="1.79838">
        <ele>167</ele>
        <time>2018-08-18T13:12:37Z</time>
      </trkpt>
      <trkpt lat="48.69545" lon="1.79833">
        <ele>167</ele>
        <time>2018-08-18T13:12:41Z</time>
      </trkpt>
      <trkpt lat="48.69551" lon="1.79829">
        <ele>167</ele>
        <time>2018-08-18T13:12:45Z</time>
      </trkpt>
      <trkpt lat="48.69557" lon="1.79826">
        <ele>167</ele>
        <time>2018-08-18T13:12:49Z</time>
      </trkpt>
      <trkpt lat="48.69563" lon="1.79823">
        <ele>167</ele>
        <time>2018-08-18T13:12:53Z</time>
      </trkpt>
      <trkpt lat="48.6957" lon="1.79822">
        <ele>167</ele>
        <time>2018-08-18T13:12:57Z</time>
      </trkpt>
      <trkpt lat="48.69575" lon="1.79819">
        <ele>168</ele>
        <time>2018-08-18T13:13:01Z</time>
      </trkpt>
      <trkpt lat="48.69581" lon="1.79816">
        <ele>169</ele>
        <time>2018-08-18T13:13:05Z</time>
      </trkpt>
      <trkpt lat="48.69587" lon="1.79812">
        <ele>169</ele>
        <time>2018-08-18T13:13:09Z</time>
      </trkpt>
      <trkpt lat="48.69593" lon="1.7981">
        <ele>169</ele>
        <time>2018-08-18T13:13:13Z</time>
      </trkpt>
      <trkpt lat="48.69599" lon="1.79807">
        <ele>169</ele>
        <time>2018-08-18T13:13:17Z</time>
      </trkpt>
      <trkpt lat="48.69605" lon="1.79804">
        <ele>169</ele>
        <time>2018-08-18T13:13:21Z</time>
      </trkpt>
      <trkpt lat="48.69611" lon="1.79801">
        <ele>169</ele>
        <time>2018-08-18T13:13:25Z</time>
      </trkpt>
      <trkpt lat="48.69618" lon="1.79797">
        <ele>169</ele>
        <time>2018-08-18T13:13:29Z</time>
      </trkpt>
      <trkpt lat="48.69624" lon="1.79794">
        <ele>169</ele>
        <time>2018-08-18T13:13:33Z</time>
      </trkpt>
      <trkpt lat="48.6963" lon="1.79792">
        <ele>169</ele>
        <time>2018-08-18T13:13:37Z</time>
      </trkpt>
      <trkpt lat="48.69636" lon="1.7979">
        <ele>169</ele>
        <time>2018-08-18T13:13:41Z</time>
      </trkpt>
      <trkpt lat="48.69642" lon="1.79789">
        <ele>169</ele>
        <time>2018-08-18T13:13:45Z</time>
      </trkpt>
      <trkpt lat="48.69647" lon="1.79786">
        <ele>169</ele>
        <time>2018-08-18T13:13:49Z</time>
      </trkpt>
      <trkpt lat="48.69652" lon="1.79783">
        <ele>169</ele>
        <time>2018-08-18T13:13:53Z</time>
      </trkpt>
      <trkpt lat="48.69658" lon="1.7978">
        <ele>169</ele>
        <time>2018-08-18T13:13:57Z</time>
      </trkpt>
      <trkpt lat="48.69664" lon="1.79777">
        <ele>169</ele>
        <time>2018-08-18T13:14:01Z</time>
      </trkpt>
      <trkpt lat="48.69669" lon="1.79773">
        <ele>169</ele>
        <time>2018-08-18T13:14:05Z</time>
      </trkpt>
      <trkpt lat="48.69675" lon="1.7977">
        <ele>169</ele>
        <time>2018-08-18T13:14:09Z</time>
      </trkpt>
      <trkpt lat="48.6968" lon="1.79768">
        <ele>169</ele>
        <time>2018-08-18T13:14:13Z</time>
      </trkpt>
      <trkpt lat="48.69686" lon="1.79767">
        <ele>169</ele>
        <time>2018-08-18T13:14:17Z</time>
      </trkpt>
      <trkpt lat="48.69692" lon="1.79764">
        <ele>169</ele>
        <time>2018-08-18T13:14:21Z</time>
      </trkpt>
      <trkpt lat="48.69697" lon="1.79761">
        <ele>169</ele>
        <time>2018-08-18T13:14:25Z</time>
      </trkpt>
      <trkpt lat="48.69701" lon="1.7976">
        <ele>169</ele>
        <time>2018-08-18T13:14:29Z</time>
      </trkpt>
      <trkpt lat="48.69705" lon="1.79757">
        <ele>169</ele>
        <time>2018-08-18T13:14:33Z</time>
      </trkpt>
      <trkpt lat="48.6971" lon="1.79754">
        <ele>169</ele>
        <time>2018-08-18T13:14:37Z</time>
      </trkpt>
      <trkpt lat="48.69715" lon="1.79752">
        <ele>169</ele>
        <time>2018-08-18T13:14:41Z</time>
      </trkpt>
      <trkpt lat="48.6972" lon="1.79751">
        <ele>169</ele>
        <time>2018-08-18T13:14:49Z</time>
      </trkpt>
      <trkpt lat="48.69721" lon="1.79752">
        <ele>169</ele>
        <time>2018-08-18T13:14:54Z</time>
      </trkpt>
      <trkpt lat="48.69722" lon="1.79752">
        <ele>169</ele>
        <time>2018-08-18T13:14:58Z</time>
      </trkpt>
      <trkpt lat="48.69725" lon="1.79749">
        <ele>170</ele>
        <time>2018-08-18T13:15:06Z</time>
      </trkpt>
      <trkpt lat="48.69725" lon="1.79747">
        <ele>171</ele>
        <time>2018-08-18T13:15:12Z</time>
      </trkpt>
      <trkpt lat="48.69727" lon="1.79744">
        <ele>171</ele>
        <time>2018-08-18T13:15:18Z</time>
      </trkpt>
      <trkpt lat="48.69728" lon="1.79743">
        <ele>171</ele>
        <time>2018-08-18T13:15:22Z</time>
      </trkpt>
      <trkpt lat="48.6973" lon="1.79742">
        <ele>171</ele>
        <time>2018-08-18T13:15:26Z</time>
      </trkpt>
      <trkpt lat="48.6973" lon="1.79743">
        <ele>171</ele>
        <time>2018-08-18T13:15:39Z</time>
      </trkpt>
      <trkpt lat="48.69729" lon="1.79742">
        <ele>171</ele>
        <time>2018-08-18T13:15:49Z</time>
      </trkpt>
      <trkpt lat="48.69726" lon="1.79742">
        <ele>171</ele>
        <time>2018-08-18T13:15:53Z</time>
      </trkpt>
      <trkpt lat="48.69727" lon="1.79744">
        <ele>171</ele>
        <time>2018-08-18T13:16:14Z</time>
      </trkpt>
      <trkpt lat="48.69726" lon="1.79746">
        <ele>171</ele>
        <time>2018-08-18T13:16:24Z</time>
      </trkpt>
      <trkpt lat="48.69728" lon="1.79747">
        <ele>171</ele>
        <time>2018-08-18T13:16:28Z</time>
      </trkpt>
      <trkpt lat="48.69735" lon="1.79744">
        <ele>171</ele>
        <time>2018-08-18T13:16:32Z</time>
      </trkpt>
      <trkpt lat="48.69747" lon="1.79736">
        <ele>171</ele>
        <time>2018-08-18T13:16:36Z</time>
      </trkpt>
      <trkpt lat="48.69758" lon="1.79726">
        <ele>171</ele>
        <time>2018-08-18T13:16:40Z</time>
      </trkpt>
      <trkpt lat="48.69769" lon="1.79717">
        <ele>171</ele>
        <time>2018-08-18T13:16:44Z</time>
      </trkpt>
      <trkpt lat="48.6978" lon="1.79707">
        <ele>171</ele>
        <time>2018-08-18T13:16:48Z</time>
      </trkpt>
      <trkpt lat="48.69791" lon="1.79696">
        <ele>171</ele>
        <time>2018-08-18T13:16:52Z</time>
      </trkpt>
      <trkpt lat="48.69803" lon="1.79685">
        <ele>171</ele>
        <time>2018-08-18T13:16:56Z</time>
      </trkpt>
      <trkpt lat="48.69814" lon="1.79675">
        <ele>171</ele>
        <time>2018-08-18T13:17:00Z</time>
      </trkpt>
      <trkpt lat="48.69826" lon="1.79664">
        <ele>171</ele>
        <time>2018-08-18T13:17:04Z</time>
      </trkpt>
      <trkpt lat="48.69837" lon="1.79655">
        <ele>171</ele>
        <time>2018-08-18T13:17:08Z</time>
      </trkpt>
      <trkpt lat="48.69847" lon="1.79646">
        <ele>171</ele>
        <time>2018-08-18T13:17:12Z</time>
      </trkpt>
      <trkpt lat="48.69858" lon="1.79635">
        <ele>171</ele>
        <time>2018-08-18T13:17:16Z</time>
      </trkpt>
      <trkpt lat="48.6987" lon="1.79625">
        <ele>171</ele>
        <time>2018-08-18T13:17:20Z</time>
      </trkpt>
      <trkpt lat="48.69881" lon="1.79616">
        <ele>171</ele>
        <time>2018-08-18T13:17:24Z</time>
      </trkpt>
      <trkpt lat="48.69893" lon="1.79604">
        <ele>171</ele>
        <time>2018-08-18T13:17:28Z</time>
      </trkpt>
      <trkpt lat="48.69904" lon="1.79594">
        <ele>171</ele>
        <time>2018-08-18T13:17:32Z</time>
      </trkpt>
      <trkpt lat="48.69915" lon="1.79585">
        <ele>171</ele>
        <time>2018-08-18T13:17:36Z</time>
      </trkpt>
      <trkpt lat="48.69927" lon="1.79575">
        <ele>171</ele>
        <time>2018-08-18T13:17:40Z</time>
      </trkpt>
      <trkpt lat="48.69939" lon="1.79566">
        <ele>170</ele>
        <time>2018-08-18T13:17:44Z</time>
      </trkpt>
      <trkpt lat="48.69951" lon="1.79555">
        <ele>168</ele>
        <time>2018-08-18T13:17:48Z</time>
      </trkpt>
      <trkpt lat="48.69964" lon="1.79543">
        <ele>168</ele>
        <time>2018-08-18T13:17:52Z</time>
      </trkpt>
      <trkpt lat="48.69973" lon="1.7953">
        <ele>168</ele>
        <time>2018-08-18T13:17:56Z</time>
      </trkpt>
      <trkpt lat="48.69984" lon="1.7952">
        <ele>168</ele>
        <time>2018-08-18T13:18:00Z</time>
      </trkpt>
      <trkpt lat="48.69995" lon="1.79512">
        <ele>167</ele>
        <time>2018-08-18T13:18:04Z</time>
      </trkpt>
      <trkpt lat="48.70007" lon="1.795">
        <ele>166</ele>
        <time>2018-08-18T13:18:08Z</time>
      </trkpt>
      <trkpt lat="48.70018" lon="1.79488">
        <ele>166</ele>
        <time>2018-08-18T13:18:12Z</time>
      </trkpt>
      <trkpt lat="48.70029" lon="1.79476">
        <ele>166</ele>
        <time>2018-08-18T13:18:16Z</time>
      </trkpt>
      <trkpt lat="48.7004" lon="1.79464">
        <ele>168</ele>
        <time>2018-08-18T13:18:20Z</time>
      </trkpt>
      <trkpt lat="48.7005" lon="1.79455">
        <ele>168</ele>
        <time>2018-08-18T13:18:24Z</time>
      </trkpt>
      <trkpt lat="48.70062" lon="1.79445">
        <ele>168</ele>
        <time>2018-08-18T13:18:28Z</time>
      </trkpt>
      <trkpt lat="48.70075" lon="1.79434">
        <ele>168</ele>
        <time>2018-08-18T13:18:32Z</time>
      </trkpt>
      <trkpt lat="48.70086" lon="1.79423">
        <ele>168</ele>
        <time>2018-08-18T13:18:36Z</time>
      </trkpt>
      <trkpt lat="48.70097" lon="1.79412">
        <ele>168</ele>
        <time>2018-08-18T13:18:40Z</time>
      </trkpt>
      <trkpt lat="48.70108" lon="1.79399">
        <ele>168</ele>
        <time>2018-08-18T13:18:44Z</time>
      </trkpt>
      <trkpt lat="48.7012" lon="1.79388">
        <ele>168</ele>
        <time>2018-08-18T13:18:48Z</time>
      </trkpt>
      <trkpt lat="48.70132" lon="1.79377">
        <ele>169</ele>
        <time>2018-08-18T13:18:52Z</time>
      </trkpt>
      <trkpt lat="48.70146" lon="1.79366">
        <ele>169</ele>
        <time>2018-08-18T13:18:56Z</time>
      </trkpt>
      <trkpt lat="48.70159" lon="1.79355">
        <ele>169</ele>
        <time>2018-08-18T13:19:00Z</time>
      </trkpt>
      <trkpt lat="48.70172" lon="1.79345">
        <ele>169</ele>
        <time>2018-08-18T13:19:04Z</time>
      </trkpt>
      <trkpt lat="48.70186" lon="1.79334">
        <ele>169</ele>
        <time>2018-08-18T13:19:08Z</time>
      </trkpt>
      <trkpt lat="48.70198" lon="1.79323">
        <ele>168</ele>
        <time>2018-08-18T13:19:12Z</time>
      </trkpt>
      <trkpt lat="48.70211" lon="1.79312">
        <ele>166</ele>
        <time>2018-08-18T13:19:16Z</time>
      </trkpt>
      <trkpt lat="48.70223" lon="1.79304">
        <ele>164</ele>
        <time>2018-08-18T13:19:20Z</time>
      </trkpt>
      <trkpt lat="48.70235" lon="1.79293">
        <ele>163</ele>
        <time>2018-08-18T13:19:24Z</time>
      </trkpt>
      <trkpt lat="48.70248" lon="1.79282">
        <ele>163</ele>
        <time>2018-08-18T13:19:28Z</time>
      </trkpt>
      <trkpt lat="48.70261" lon="1.79272">
        <ele>161</ele>
        <time>2018-08-18T13:19:32Z</time>
      </trkpt>
      <trkpt lat="48.70273" lon="1.79261">
        <ele>160</ele>
        <time>2018-08-18T13:19:36Z</time>
      </trkpt>
      <trkpt lat="48.70285" lon="1.79248">
        <ele>160</ele>
        <time>2018-08-18T13:19:40Z</time>
      </trkpt>
      <trkpt lat="48.70298" lon="1.79238">
        <ele>160</ele>
        <time>2018-08-18T13:19:44Z</time>
      </trkpt>
      <trkpt lat="48.70309" lon="1.79227">
        <ele>158</ele>
        <time>2018-08-18T13:19:48Z</time>
      </trkpt>
      <trkpt lat="48.7032" lon="1.79218">
        <ele>157</ele>
        <time>2018-08-18T13:19:52Z</time>
      </trkpt>
      <trkpt lat="48.70334" lon="1.79205">
        <ele>157</ele>
        <time>2018-08-18T13:19:56Z</time>
      </trkpt>
      <trkpt lat="48.70346" lon="1.79195">
        <ele>157</ele>
        <time>2018-08-18T13:20:00Z</time>
      </trkpt>
      <trkpt lat="48.70359" lon="1.79182">
        <ele>156</ele>
        <time>2018-08-18T13:20:04Z</time>
      </trkpt>
      <trkpt lat="48.70373" lon="1.79167">
        <ele>156</ele>
        <time>2018-08-18T13:20:08Z</time>
      </trkpt>
      <trkpt lat="48.70386" lon="1.79155">
        <ele>156</ele>
        <time>2018-08-18T13:20:12Z</time>
      </trkpt>
      <trkpt lat="48.704" lon="1.79141">
        <ele>159</ele>
        <time>2018-08-18T13:20:16Z</time>
      </trkpt>
      <trkpt lat="48.7041" lon="1.79133">
        <ele>160</ele>
        <time>2018-08-18T13:20:20Z</time>
      </trkpt>
      <trkpt lat="48.70419" lon="1.79125">
        <ele>160</ele>
        <time>2018-08-18T13:20:24Z</time>
      </trkpt>
      <trkpt lat="48.70432" lon="1.79116">
        <ele>160</ele>
        <time>2018-08-18T13:20:28Z</time>
      </trkpt>
      <trkpt lat="48.70443" lon="1.79107">
        <ele>160</ele>
        <time>2018-08-18T13:20:32Z</time>
      </trkpt>
      <trkpt lat="48.70456" lon="1.79099">
        <ele>160</ele>
        <time>2018-08-18T13:20:36Z</time>
      </trkpt>
      <trkpt lat="48.70472" lon="1.7908">
        <ele>160</ele>
        <time>2018-08-18T13:20:40Z</time>
      </trkpt>
      <trkpt lat="48.70484" lon="1.79067">
        <ele>161</ele>
        <time>2018-08-18T13:20:44Z</time>
      </trkpt>
      <trkpt lat="48.70495" lon="1.79058">
        <ele>161</ele>
        <time>2018-08-18T13:20:48Z</time>
      </trkpt>
      <trkpt lat="48.70507" lon="1.79048">
        <ele>161</ele>
        <time>2018-08-18T13:20:52Z</time>
      </trkpt>
      <trkpt lat="48.70518" lon="1.79035">
        <ele>161</ele>
        <time>2018-08-18T13:20:56Z</time>
      </trkpt>
      <trkpt lat="48.70527" lon="1.79025">
        <ele>161</ele>
        <time>2018-08-18T13:21:00Z</time>
      </trkpt>
      <trkpt lat="48.70541" lon="1.79014">
        <ele>161</ele>
        <time>2018-08-18T13:21:04Z</time>
      </trkpt>
      <trkpt lat="48.70553" lon="1.79002">
        <ele>161</ele>
        <time>2018-08-18T13:21:08Z</time>
      </trkpt>
      <trkpt lat="48.70565" lon="1.78993">
        <ele>161</ele>
        <time>2018-08-18T13:21:12Z</time>
      </trkpt>
      <trkpt lat="48.70575" lon="1.78983">
        <ele>159</ele>
        <time>2018-08-18T13:21:16Z</time>
      </trkpt>
      <trkpt lat="48.70586" lon="1.78974">
        <ele>159</ele>
        <time>2018-08-18T13:21:20Z</time>
      </trkpt>
      <trkpt lat="48.70596" lon="1.78964">
        <ele>158</ele>
        <time>2018-08-18T13:21:24Z</time>
      </trkpt>
      <trkpt lat="48.70608" lon="1.78952">
        <ele>158</ele>
        <time>2018-08-18T13:21:28Z</time>
      </trkpt>
      <trkpt lat="48.70619" lon="1.7894">
        <ele>158</ele>
        <time>2018-08-18T13:21:32Z</time>
      </trkpt>
      <trkpt lat="48.70631" lon="1.7893">
        <ele>158</ele>
        <time>2018-08-18T13:21:36Z</time>
      </trkpt>
      <trkpt lat="48.70643" lon="1.78923">
        <ele>157</ele>
        <time>2018-08-18T13:21:40Z</time>
      </trkpt>
      <trkpt lat="48.70655" lon="1.78911">
        <ele>157</ele>
        <time>2018-08-18T13:21:44Z</time>
      </trkpt>
      <trkpt lat="48.70667" lon="1.78902">
        <ele>157</ele>
        <time>2018-08-18T13:21:48Z</time>
      </trkpt>
      <trkpt lat="48.70679" lon="1.78892">
        <ele>156</ele>
        <time>2018-08-18T13:21:52Z</time>
      </trkpt>
      <trkpt lat="48.70689" lon="1.78876">
        <ele>154</ele>
        <time>2018-08-18T13:21:56Z</time>
      </trkpt>
      <trkpt lat="48.707" lon="1.78853">
        <ele>154</ele>
        <time>2018-08-18T13:22:00Z</time>
      </trkpt>
      <trkpt lat="48.7071" lon="1.7883">
        <ele>158</ele>
        <time>2018-08-18T13:22:04Z</time>
      </trkpt>
      <trkpt lat="48.70717" lon="1.78811">
        <ele>161</ele>
        <time>2018-08-18T13:22:08Z</time>
      </trkpt>
      <trkpt lat="48.70726" lon="1.7879">
        <ele>163</ele>
        <time>2018-08-18T13:22:12Z</time>
      </trkpt>
      <trkpt lat="48.70734" lon="1.78772">
        <ele>165</ele>
        <time>2018-08-18T13:22:16Z</time>
      </trkpt>
      <trkpt lat="48.70742" lon="1.78753">
        <ele>165</ele>
        <time>2018-08-18T13:22:20Z</time>
      </trkpt>
      <trkpt lat="48.7075" lon="1.78736">
        <ele>168</ele>
        <time>2018-08-18T13:22:24Z</time>
      </trkpt>
      <trkpt lat="48.7076" lon="1.78717">
        <ele>169</ele>
        <time>2018-08-18T13:22:28Z</time>
      </trkpt>
      <trkpt lat="48.70768" lon="1.78702">
        <ele>169</ele>
        <time>2018-08-18T13:22:32Z</time>
      </trkpt>
      <trkpt lat="48.70773" lon="1.78693">
        <ele>170</ele>
        <time>2018-08-18T13:22:36Z</time>
      </trkpt>
      <trkpt lat="48.70776" lon="1.78685">
        <ele>170</ele>
        <time>2018-08-18T13:22:40Z</time>
      </trkpt>
      <trkpt lat="48.7078" lon="1.78678">
        <ele>170</ele>
        <time>2018-08-18T13:22:44Z</time>
      </trkpt>
      <trkpt lat="48.70783" lon="1.78671">
        <ele>170</ele>
        <time>2018-08-18T13:22:48Z</time>
      </trkpt>
      <trkpt lat="48.70786" lon="1.78666">
        <ele>170</ele>
        <time>2018-08-18T13:22:52Z</time>
      </trkpt>
      <trkpt lat="48.70789" lon="1.78661">
        <ele>170</ele>
        <time>2018-08-18T13:22:56Z</time>
      </trkpt>
      <trkpt lat="48.70792" lon="1.78654">
        <ele>170</ele>
        <time>2018-08-18T13:23:00Z</time>
      </trkpt>
      <trkpt lat="48.70795" lon="1.78648">
        <ele>170</ele>
        <time>2018-08-18T13:23:04Z</time>
      </trkpt>
      <trkpt lat="48.70797" lon="1.7864">
        <ele>170</ele>
        <time>2018-08-18T13:23:08Z</time>
      </trkpt>
      <trkpt lat="48.70797" lon="1.78631">
        <ele>170</ele>
        <time>2018-08-18T13:23:12Z</time>
      </trkpt>
      <trkpt lat="48.70795" lon="1.78622">
        <ele>170</ele>
        <time>2018-08-18T13:23:17Z</time>
      </trkpt>
      <trkpt lat="48.7079" lon="1.78616">
        <ele>170</ele>
        <time>2018-08-18T13:23:22Z</time>
      </trkpt>
      <trkpt lat="48.70785" lon="1.78616">
        <ele>170</ele>
        <time>2018-08-18T13:23:27Z</time>
      </trkpt>
      <trkpt lat="48.70783" lon="1.78613">
        <ele>170</ele>
        <time>2018-08-18T13:23:35Z</time>
      </trkpt>
      <trkpt lat="48.70781" lon="1.78614">
        <ele>170</ele>
        <time>2018-08-18T13:23:44Z</time>
      </trkpt>
      <trkpt lat="48.7078" lon="1.78614">
        <ele>170</ele>
        <time>2018-08-18T13:23:53Z</time>
      </trkpt>
      <trkpt lat="48.70777" lon="1.78615">
        <ele>170</ele>
        <time>2018-08-18T13:23:57Z</time>
      </trkpt>
      <trkpt lat="48.70776" lon="1.78616">
        <ele>170</ele>
        <time>2018-08-18T13:24:02Z</time>
      </trkpt>
      <trkpt lat="48.70777" lon="1.78618">
        <ele>170</ele>
        <time>2018-08-18T13:24:15Z</time>
      </trkpt>
      <trkpt lat="48.70779" lon="1.78618">
        <ele>170</ele>
        <time>2018-08-18T13:24:20Z</time>
      </trkpt>
      <trkpt lat="48.70781" lon="1.78616">
        <ele>170</ele>
        <time>2018-08-18T13:24:24Z</time>
      </trkpt>
      <trkpt lat="48.70779" lon="1.78615">
        <ele>170</ele>
        <time>2018-08-18T13:24:52Z</time>
      </trkpt>
      <trkpt lat="48.70778" lon="1.78615">
        <ele>170</ele>
        <time>2018-08-18T13:25:06Z</time>
      </trkpt>
      <trkpt lat="48.70779" lon="1.78613">
        <ele>170</ele>
        <time>2018-08-18T13:25:25Z</time>
      </trkpt>
      <trkpt lat="48.70782" lon="1.7861">
        <ele>170</ele>
        <time>2018-08-18T13:25:29Z</time>
      </trkpt>
      <trkpt lat="48.70785" lon="1.78611">
        <ele>170</ele>
        <time>2018-08-18T13:25:37Z</time>
      </trkpt>
      <trkpt lat="48.70787" lon="1.78612">
        <ele>170</ele>
        <time>2018-08-18T13:25:42Z</time>
      </trkpt>
      <trkpt lat="48.70788" lon="1.78613">
        <ele>170</ele>
        <time>2018-08-18T13:25:46Z</time>
      </trkpt>
      <trkpt lat="48.70789" lon="1.78614">
        <ele>170</ele>
        <time>2018-08-18T13:26:16Z</time>
      </trkpt>
      <trkpt lat="48.70792" lon="1.78613">
        <ele>170</ele>
        <time>2018-08-18T13:26:20Z</time>
      </trkpt>
      <trkpt lat="48.70797" lon="1.7861">
        <ele>170</ele>
        <time>2018-08-18T13:26:24Z</time>
      </trkpt>
      <trkpt lat="48.70801" lon="1.78605">
        <ele>170</ele>
        <time>2018-08-18T13:26:28Z</time>
      </trkpt>
      <trkpt lat="48.70806" lon="1.78599">
        <ele>170</ele>
        <time>2018-08-18T13:26:33Z</time>
      </trkpt>
      <trkpt lat="48.7081" lon="1.78597">
        <ele>170</ele>
        <time>2018-08-18T13:26:37Z</time>
      </trkpt>
      <trkpt lat="48.70815" lon="1.78596">
        <ele>170</ele>
        <time>2018-08-18T13:26:42Z</time>
      </trkpt>
      <trkpt lat="48.70818" lon="1.78595">
        <ele>170</ele>
        <time>2018-08-18T13:26:46Z</time>
      </trkpt>
      <trkpt lat="48.70822" lon="1.78592">
        <ele>170</ele>
        <time>2018-08-18T13:26:50Z</time>
      </trkpt>
      <trkpt lat="48.70825" lon="1.78588">
        <ele>170</ele>
        <time>2018-08-18T13:26:54Z</time>
      </trkpt>
      <trkpt lat="48.70828" lon="1.78582">
        <ele>170</ele>
        <time>2018-08-18T13:26:58Z</time>
      </trkpt>
      <trkpt lat="48.70831" lon="1.78575">
        <ele>170</ele>
        <time>2018-08-18T13:27:03Z</time>
      </trkpt>
      <trkpt lat="48.70834" lon="1.7857">
        <ele>169</ele>
        <time>2018-08-18T13:27:07Z</time>
      </trkpt>
      <trkpt lat="48.70836" lon="1.78564">
        <ele>167</ele>
        <time>2018-08-18T13:27:11Z</time>
      </trkpt>
      <trkpt lat="48.70839" lon="1.78558">
        <ele>166</ele>
        <time>2018-08-18T13:27:15Z</time>
      </trkpt>
      <trkpt lat="48.70841" lon="1.7855">
        <ele>164</ele>
        <time>2018-08-18T13:27:20Z</time>
      </trkpt>
      <trkpt lat="48.70844" lon="1.78545">
        <ele>162</ele>
        <time>2018-08-18T13:27:24Z</time>
      </trkpt>
      <trkpt lat="48.70846" lon="1.7854">
        <ele>160</ele>
        <time>2018-08-18T13:27:28Z</time>
      </trkpt>
      <trkpt lat="48.7085" lon="1.78532">
        <ele>160</ele>
        <time>2018-08-18T13:27:32Z</time>
      </trkpt>
      <trkpt lat="48.70852" lon="1.78526">
        <ele>160</ele>
        <time>2018-08-18T13:27:36Z</time>
      </trkpt>
      <trkpt lat="48.70855" lon="1.78522">
        <ele>159</ele>
        <time>2018-08-18T13:27:40Z</time>
      </trkpt>
      <trkpt lat="48.7086" lon="1.78514">
        <ele>159</ele>
        <time>2018-08-18T13:27:44Z</time>
      </trkpt>
      <trkpt lat="48.70865" lon="1.78507">
        <ele>159</ele>
        <time>2018-08-18T13:27:48Z</time>
      </trkpt>
      <trkpt lat="48.70867" lon="1.78499">
        <ele>159</ele>
        <time>2018-08-18T13:27:52Z</time>
      </trkpt>
      <trkpt lat="48.7087" lon="1.78491">
        <ele>159</ele>
        <time>2018-08-18T13:27:57Z</time>
      </trkpt>
      <trkpt lat="48.70873" lon="1.78483">
        <ele>159</ele>
        <time>2018-08-18T13:28:02Z</time>
      </trkpt>
      <trkpt lat="48.70877" lon="1.78478">
        <ele>159</ele>
        <time>2018-08-18T13:28:06Z</time>
      </trkpt>
      <trkpt lat="48.70879" lon="1.78473">
        <ele>157</ele>
        <time>2018-08-18T13:28:10Z</time>
      </trkpt>
      <trkpt lat="48.70884" lon="1.78466">
        <ele>156</ele>
        <time>2018-08-18T13:28:14Z</time>
      </trkpt>
      <trkpt lat="48.70887" lon="1.78458">
        <ele>156</ele>
        <time>2018-08-18T13:28:19Z</time>
      </trkpt>
      <trkpt lat="48.7089" lon="1.78451">
        <ele>156</ele>
        <time>2018-08-18T13:28:23Z</time>
      </trkpt>
      <trkpt lat="48.70893" lon="1.78444">
        <ele>153</ele>
        <time>2018-08-18T13:28:28Z</time>
      </trkpt>
      <trkpt lat="48.70896" lon="1.78437">
        <ele>152</ele>
        <time>2018-08-18T13:28:32Z</time>
      </trkpt>
      <trkpt lat="48.70899" lon="1.78431">
        <ele>151</ele>
        <time>2018-08-18T13:28:36Z</time>
      </trkpt>
      <trkpt lat="48.70905" lon="1.78422">
        <ele>149</ele>
        <time>2018-08-18T13:28:41Z</time>
      </trkpt>
      <trkpt lat="48.70912" lon="1.78408">
        <ele>149</ele>
        <time>2018-08-18T13:28:45Z</time>
      </trkpt>
      <trkpt lat="48.70916" lon="1.78399">
        <ele>152</ele>
        <time>2018-08-18T13:28:49Z</time>
      </trkpt>
      <trkpt lat="48.7092" lon="1.78391">
        <ele>152</ele>
        <time>2018-08-18T13:28:54Z</time>
      </trkpt>
      <trkpt lat="48.70924" lon="1.78385">
        <ele>152</ele>
        <time>2018-08-18T13:28:59Z</time>
      </trkpt>
      <trkpt lat="48.7093" lon="1.78374">
        <ele>152</ele>
        <time>2018-08-18T13:29:03Z</time>
      </trkpt>
      <trkpt lat="48.70932" lon="1.78369">
        <ele>152</ele>
        <time>2018-08-18T13:29:07Z</time>
      </trkpt>
      <trkpt lat="48.70935" lon="1.78362">
        <ele>152</ele>
        <time>2018-08-18T13:29:11Z</time>
      </trkpt>
      <trkpt lat="48.70938" lon="1.78355">
        <ele>152</ele>
        <time>2018-08-18T13:29:15Z</time>
      </trkpt>
      <trkpt lat="48.70941" lon="1.78347">
        <ele>152</ele>
        <time>2018-08-18T13:29:19Z</time>
      </trkpt>
      <trkpt lat="48.70947" lon="1.78337">
        <ele>152</ele>
        <time>2018-08-18T13:29:23Z</time>
      </trkpt>
      <trkpt lat="48.7095" lon="1.78331">
        <ele>152</ele>
        <time>2018-08-18T13:29:27Z</time>
      </trkpt>
      <trkpt lat="48.70955" lon="1.78324">
        <ele>152</ele>
        <time>2018-08-18T13:29:31Z</time>
      </trkpt>
      <trkpt lat="48.70958" lon="1.78317">
        <ele>152</ele>
        <time>2018-08-18T13:29:37Z</time>
      </trkpt>
      <trkpt lat="48.7096" lon="1.78313">
        <ele>152</ele>
        <time>2018-08-18T13:29:41Z</time>
      </trkpt>
      <trkpt lat="48.70969" lon="1.78293">
        <ele>152</ele>
        <time>2018-08-18T13:29:45Z</time>
      </trkpt>
      <trkpt lat="48.70976" lon="1.78279">
        <ele>153</ele>
        <time>2018-08-18T13:29:49Z</time>
      </trkpt>
      <trkpt lat="48.70982" lon="1.78269">
        <ele>153</ele>
        <time>2018-08-18T13:29:53Z</time>
      </trkpt>
      <trkpt lat="48.70987" lon="1.78258">
        <ele>153</ele>
        <time>2018-08-18T13:29:58Z</time>
      </trkpt>
      <trkpt lat="48.70991" lon="1.78251">
        <ele>153</ele>
        <time>2018-08-18T13:30:02Z</time>
      </trkpt>
      <trkpt lat="48.70995" lon="1.78245">
        <ele>153</ele>
        <time>2018-08-18T13:30:06Z</time>
      </trkpt>
      <trkpt lat="48.71001" lon="1.78241">
        <ele>153</ele>
        <time>2018-08-18T13:30:10Z</time>
      </trkpt>
      <trkpt lat="48.71006" lon="1.78239">
        <ele>153</ele>
        <time>2018-08-18T13:30:14Z</time>
      </trkpt>
      <trkpt lat="48.71011" lon="1.78239">
        <ele>153</ele>
        <time>2018-08-18T13:30:18Z</time>
      </trkpt>
      <trkpt lat="48.71016" lon="1.7824">
        <ele>153</ele>
        <time>2018-08-18T13:30:23Z</time>
      </trkpt>
      <trkpt lat="48.71021" lon="1.78237">
        <ele>153</ele>
        <time>2018-08-18T13:30:27Z</time>
      </trkpt>
      <trkpt lat="48.71028" lon="1.78233">
        <ele>153</ele>
        <time>2018-08-18T13:30:32Z</time>
      </trkpt>
      <trkpt lat="48.71035" lon="1.78232">
        <ele>153</ele>
        <time>2018-08-18T13:30:37Z</time>
      </trkpt>
      <trkpt lat="48.71042" lon="1.7823">
        <ele>153</ele>
        <time>2018-08-18T13:30:41Z</time>
      </trkpt>
      <trkpt lat="48.71047" lon="1.78229">
        <ele>153</ele>
        <time>2018-08-18T13:30:45Z</time>
      </trkpt>
      <trkpt lat="48.71054" lon="1.78224">
        <ele>154</ele>
        <time>2018-08-18T13:30:49Z</time>
      </trkpt>
      <trkpt lat="48.71059" lon="1.7822">
        <ele>154</ele>
        <time>2018-08-18T13:30:54Z</time>
      </trkpt>
      <trkpt lat="48.71064" lon="1.78216">
        <ele>154</ele>
        <time>2018-08-18T13:30:58Z</time>
      </trkpt>
      <trkpt lat="48.71068" lon="1.78213">
        <ele>154</ele>
        <time>2018-08-18T13:31:02Z</time>
      </trkpt>
      <trkpt lat="48.71071" lon="1.78207">
        <ele>154</ele>
        <time>2018-08-18T13:31:06Z</time>
      </trkpt>
      <trkpt lat="48.71075" lon="1.78202">
        <ele>151</ele>
        <time>2018-08-18T13:31:10Z</time>
      </trkpt>
      <trkpt lat="48.71079" lon="1.78195">
        <ele>151</ele>
        <time>2018-08-18T13:31:14Z</time>
      </trkpt>
      <trkpt lat="48.71083" lon="1.78187">
        <ele>151</ele>
        <time>2018-08-18T13:31:18Z</time>
      </trkpt>
      <trkpt lat="48.71087" lon="1.78178">
        <ele>151</ele>
        <time>2018-08-18T13:31:22Z</time>
      </trkpt>
      <trkpt lat="48.7109" lon="1.7817">
        <ele>151</ele>
        <time>2018-08-18T13:31:26Z</time>
      </trkpt>
      <trkpt lat="48.71092" lon="1.78161">
        <ele>151</ele>
        <time>2018-08-18T13:31:30Z</time>
      </trkpt>
      <trkpt lat="48.71094" lon="1.78155">
        <ele>151</ele>
        <time>2018-08-18T13:31:34Z</time>
      </trkpt>
      <trkpt lat="48.71097" lon="1.78148">
        <ele>151</ele>
        <time>2018-08-18T13:31:38Z</time>
      </trkpt>
      <trkpt lat="48.711" lon="1.7814">
        <ele>152</ele>
        <time>2018-08-18T13:31:42Z</time>
      </trkpt>
      <trkpt lat="48.71103" lon="1.78132">
        <ele>152</ele>
        <time>2018-08-18T13:31:46Z</time>
      </trkpt>
      <trkpt lat="48.71106" lon="1.78125">
        <ele>153</ele>
        <time>2018-08-18T13:31:50Z</time>
      </trkpt>
      <trkpt lat="48.71108" lon="1.78117">
        <ele>153</ele>
        <time>2018-08-18T13:31:54Z</time>
      </trkpt>
      <trkpt lat="48.7111" lon="1.78109">
        <ele>153</ele>
        <time>2018-08-18T13:31:58Z</time>
      </trkpt>
      <trkpt lat="48.71112" lon="1.781">
        <ele>153</ele>
        <time>2018-08-18T13:32:02Z</time>
      </trkpt>
      <trkpt lat="48.71114" lon="1.78091">
        <ele>154</ele>
        <time>2018-08-18T13:32:06Z</time>
      </trkpt>
      <trkpt lat="48.71114" lon="1.78081">
        <ele>155</ele>
        <time>2018-08-18T13:32:10Z</time>
      </trkpt>
      <trkpt lat="48.71116" lon="1.78074">
        <ele>155</ele>
        <time>2018-08-18T13:32:14Z</time>
      </trkpt>
      <trkpt lat="48.71118" lon="1.78064">
        <ele>155</ele>
        <time>2018-08-18T13:32:18Z</time>
      </trkpt>
      <trkpt lat="48.71121" lon="1.78054">
        <ele>155</ele>
        <time>2018-08-18T13:32:22Z</time>
      </trkpt>
      <trkpt lat="48.71124" lon="1.78044">
        <ele>155</ele>
        <time>2018-08-18T13:32:26Z</time>
      </trkpt>
      <trkpt lat="48.71125" lon="1.78034">
        <ele>155</ele>
        <time>2018-08-18T13:32:30Z</time>
      </trkpt>
      <trkpt lat="48.71126" lon="1.78026">
        <ele>155</ele>
        <time>2018-08-18T13:32:34Z</time>
      </trkpt>
      <trkpt lat="48.71128" lon="1.78017">
        <ele>155</ele>
        <time>2018-08-18T13:32:38Z</time>
      </trkpt>
      <trkpt lat="48.7113" lon="1.78007">
        <ele>155</ele>
        <time>2018-08-18T13:32:42Z</time>
      </trkpt>
      <trkpt lat="48.71132" lon="1.77998">
        <ele>155</ele>
        <time>2018-08-18T13:32:46Z</time>
      </trkpt>
      <trkpt lat="48.71134" lon="1.7799">
        <ele>155</ele>
        <time>2018-08-18T13:32:50Z</time>
      </trkpt>
      <trkpt lat="48.71137" lon="1.7798">
        <ele>155</ele>
        <time>2018-08-18T13:32:54Z</time>
      </trkpt>
      <trkpt lat="48.7114" lon="1.77972">
        <ele>155</ele>
        <time>2018-08-18T13:32:58Z</time>
      </trkpt>
      <trkpt lat="48.71141" lon="1.77964">
        <ele>155</ele>
        <time>2018-08-18T13:33:02Z</time>
      </trkpt>
      <trkpt lat="48.71142" lon="1.77958">
        <ele>155</ele>
        <time>2018-08-18T13:33:06Z</time>
      </trkpt>
      <trkpt lat="48.7114" lon="1.7795">
        <ele>155</ele>
        <time>2018-08-18T13:33:10Z</time>
      </trkpt>
      <trkpt lat="48.71137" lon="1.77943">
        <ele>155</ele>
        <time>2018-08-18T13:33:14Z</time>
      </trkpt>
      <trkpt lat="48.71134" lon="1.77936">
        <ele>155</ele>
        <time>2018-08-18T13:33:18Z</time>
      </trkpt>
      <trkpt lat="48.71132" lon="1.77928">
        <ele>155</ele>
        <time>2018-08-18T13:33:22Z</time>
      </trkpt>
      <trkpt lat="48.7113" lon="1.77919">
        <ele>155</ele>
        <time>2018-08-18T13:33:26Z</time>
      </trkpt>
      <trkpt lat="48.71128" lon="1.7791">
        <ele>155</ele>
        <time>2018-08-18T13:33:30Z</time>
      </trkpt>
      <trkpt lat="48.71125" lon="1.77901">
        <ele>155</ele>
        <time>2018-08-18T13:33:34Z</time>
      </trkpt>
      <trkpt lat="48.71124" lon="1.77892">
        <ele>155</ele>
        <time>2018-08-18T13:33:38Z</time>
      </trkpt>
      <trkpt lat="48.71121" lon="1.77884">
        <ele>155</ele>
        <time>2018-08-18T13:33:42Z</time>
      </trkpt>
      <trkpt lat="48.71118" lon="1.77875">
        <ele>155</ele>
        <time>2018-08-18T13:33:46Z</time>
      </trkpt>
      <trkpt lat="48.71116" lon="1.77867">
        <ele>155</ele>
        <time>2018-08-18T13:33:50Z</time>
      </trkpt>
      <trkpt lat="48.71113" lon="1.77855">
        <ele>155</ele>
        <time>2018-08-18T13:33:55Z</time>
      </trkpt>
      <trkpt lat="48.7111" lon="1.77846">
        <ele>155</ele>
        <time>2018-08-18T13:33:59Z</time>
      </trkpt>
      <trkpt lat="48.71109" lon="1.77837">
        <ele>155</ele>
        <time>2018-08-18T13:34:03Z</time>
      </trkpt>
      <trkpt lat="48.71109" lon="1.77828">
        <ele>155</ele>
        <time>2018-08-18T13:34:07Z</time>
      </trkpt>
      <trkpt lat="48.71108" lon="1.77819">
        <ele>155</ele>
        <time>2018-08-18T13:34:11Z</time>
      </trkpt>
      <trkpt lat="48.71107" lon="1.77809">
        <ele>155</ele>
        <time>2018-08-18T13:34:15Z</time>
      </trkpt>
      <trkpt lat="48.71105" lon="1.778">
        <ele>155</ele>
        <time>2018-08-18T13:34:19Z</time>
      </trkpt>
      <trkpt lat="48.71103" lon="1.77791">
        <ele>155</ele>
        <time>2018-08-18T13:34:23Z</time>
      </trkpt>
      <trkpt lat="48.71101" lon="1.77782">
        <ele>155</ele>
        <time>2018-08-18T13:34:27Z</time>
      </trkpt>
      <trkpt lat="48.71098" lon="1.77773">
        <ele>155</ele>
        <time>2018-08-18T13:34:31Z</time>
      </trkpt>
      <trkpt lat="48.71093" lon="1.77762">
        <ele>155</ele>
        <time>2018-08-18T13:34:36Z</time>
      </trkpt>
      <trkpt lat="48.7109" lon="1.77754">
        <ele>155</ele>
        <time>2018-08-18T13:34:40Z</time>
      </trkpt>
      <trkpt lat="48.71088" lon="1.77745">
        <ele>155</ele>
        <time>2018-08-18T13:34:44Z</time>
      </trkpt>
      <trkpt lat="48.71084" lon="1.77738">
        <ele>155</ele>
        <time>2018-08-18T13:34:48Z</time>
      </trkpt>
      <trkpt lat="48.7108" lon="1.7773">
        <ele>155</ele>
        <time>2018-08-18T13:34:52Z</time>
      </trkpt>
      <trkpt lat="48.71077" lon="1.77722">
        <ele>155</ele>
        <time>2018-08-18T13:34:56Z</time>
      </trkpt>
      <trkpt lat="48.71074" lon="1.77713">
        <ele>155</ele>
        <time>2018-08-18T13:35:00Z</time>
      </trkpt>
      <trkpt lat="48.7107" lon="1.77706">
        <ele>155</ele>
        <time>2018-08-18T13:35:04Z</time>
      </trkpt>
      <trkpt lat="48.71067" lon="1.77699">
        <ele>155</ele>
        <time>2018-08-18T13:35:08Z</time>
      </trkpt>
      <trkpt lat="48.71064" lon="1.77691">
        <ele>155</ele>
        <time>2018-08-18T13:35:12Z</time>
      </trkpt>
      <trkpt lat="48.71061" lon="1.77684">
        <ele>155</ele>
        <time>2018-08-18T13:35:16Z</time>
      </trkpt>
      <trkpt lat="48.71056" lon="1.77675">
        <ele>155</ele>
        <time>2018-08-18T13:35:21Z</time>
      </trkpt>
      <trkpt lat="48.71053" lon="1.77668">
        <ele>155</ele>
        <time>2018-08-18T13:35:25Z</time>
      </trkpt>
      <trkpt lat="48.71049" lon="1.7766">
        <ele>155</ele>
        <time>2018-08-18T13:35:29Z</time>
      </trkpt>
      <trkpt lat="48.71046" lon="1.77652">
        <ele>155</ele>
        <time>2018-08-18T13:35:33Z</time>
      </trkpt>
      <trkpt lat="48.71043" lon="1.77645">
        <ele>155</ele>
        <time>2018-08-18T13:35:37Z</time>
      </trkpt>
      <trkpt lat="48.7104" lon="1.77637">
        <ele>155</ele>
        <time>2018-08-18T13:35:41Z</time>
      </trkpt>
      <trkpt lat="48.71035" lon="1.77627">
        <ele>155</ele>
        <time>2018-08-18T13:35:46Z</time>
      </trkpt>
      <trkpt lat="48.71032" lon="1.77619">
        <ele>155</ele>
        <time>2018-08-18T13:35:50Z</time>
      </trkpt>
      <trkpt lat="48.71028" lon="1.77611">
        <ele>155</ele>
        <time>2018-08-18T13:35:54Z</time>
      </trkpt>
      <trkpt lat="48.71026" lon="1.77602">
        <ele>155</ele>
        <time>2018-08-18T13:35:58Z</time>
      </trkpt>
      <trkpt lat="48.71022" lon="1.77594">
        <ele>156</ele>
        <time>2018-08-18T13:36:02Z</time>
      </trkpt>
      <trkpt lat="48.71019" lon="1.77586">
        <ele>156</ele>
        <time>2018-08-18T13:36:06Z</time>
      </trkpt>
      <trkpt lat="48.71016" lon="1.77576">
        <ele>156</ele>
        <time>2018-08-18T13:36:11Z</time>
      </trkpt>
      <trkpt lat="48.71012" lon="1.77566">
        <ele>156</ele>
        <time>2018-08-18T13:36:16Z</time>
      </trkpt>
      <trkpt lat="48.71009" lon="1.77559">
        <ele>157</ele>
        <time>2018-08-18T13:36:20Z</time>
      </trkpt>
      <trkpt lat="48.71005" lon="1.77551">
        <ele>158</ele>
        <time>2018-08-18T13:36:24Z</time>
      </trkpt>
      <trkpt lat="48.71003" lon="1.77544">
        <ele>158</ele>
        <time>2018-08-18T13:36:28Z</time>
      </trkpt>
      <trkpt lat="48.71" lon="1.77537">
        <ele>158</ele>
        <time>2018-08-18T13:36:32Z</time>
      </trkpt>
      <trkpt lat="48.70997" lon="1.77529">
        <ele>158</ele>
        <time>2018-08-18T13:36:36Z</time>
      </trkpt>
      <trkpt lat="48.70995" lon="1.77523">
        <ele>158</ele>
        <time>2018-08-18T13:36:40Z</time>
      </trkpt>
      <trkpt lat="48.70991" lon="1.77516">
        <ele>158</ele>
        <time>2018-08-18T13:36:44Z</time>
      </trkpt>
      <trkpt lat="48.70987" lon="1.77507">
        <ele>158</ele>
        <time>2018-08-18T13:36:49Z</time>
      </trkpt>
      <trkpt lat="48.70983" lon="1.77499">
        <ele>159</ele>
        <time>2018-08-18T13:36:53Z</time>
      </trkpt>
      <trkpt lat="48.70979" lon="1.77492">
        <ele>159</ele>
        <time>2018-08-18T13:36:57Z</time>
      </trkpt>
      <trkpt lat="48.70974" lon="1.77482">
        <ele>160</ele>
        <time>2018-08-18T13:37:03Z</time>
      </trkpt>
      <trkpt lat="48.70971" lon="1.77474">
        <ele>160</ele>
        <time>2018-08-18T13:37:07Z</time>
      </trkpt>
      <trkpt lat="48.70968" lon="1.77467">
        <ele>161</ele>
        <time>2018-08-18T13:37:11Z</time>
      </trkpt>
      <trkpt lat="48.70964" lon="1.7746">
        <ele>161</ele>
        <time>2018-08-18T13:37:15Z</time>
      </trkpt>
      <trkpt lat="48.7096" lon="1.77451">
        <ele>161</ele>
        <time>2018-08-18T13:37:20Z</time>
      </trkpt>
      <trkpt lat="48.70957" lon="1.77444">
        <ele>161</ele>
        <time>2018-08-18T13:37:25Z</time>
      </trkpt>
      <trkpt lat="48.70956" lon="1.77439">
        <ele>161</ele>
        <time>2018-08-18T13:37:29Z</time>
      </trkpt>
      <trkpt lat="48.70952" lon="1.77433">
        <ele>161</ele>
        <time>2018-08-18T13:37:33Z</time>
      </trkpt>
      <trkpt lat="48.70948" lon="1.77426">
        <ele>161</ele>
        <time>2018-08-18T13:37:37Z</time>
      </trkpt>
      <trkpt lat="48.70944" lon="1.77416">
        <ele>161</ele>
        <time>2018-08-18T13:37:42Z</time>
      </trkpt>
      <trkpt lat="48.70941" lon="1.77409">
        <ele>161</ele>
        <time>2018-08-18T13:37:46Z</time>
      </trkpt>
      <trkpt lat="48.70936" lon="1.77401">
        <ele>161</ele>
        <time>2018-08-18T13:37:51Z</time>
      </trkpt>
      <trkpt lat="48.70933" lon="1.77395">
        <ele>162</ele>
        <time>2018-08-18T13:37:55Z</time>
      </trkpt>
      <trkpt lat="48.70928" lon="1.77386">
        <ele>162</ele>
        <time>2018-08-18T13:38:00Z</time>
      </trkpt>
      <trkpt lat="48.70924" lon="1.7738">
        <ele>162</ele>
        <time>2018-08-18T13:38:04Z</time>
      </trkpt>
      <trkpt lat="48.7092" lon="1.77373">
        <ele>162</ele>
        <time>2018-08-18T13:38:08Z</time>
      </trkpt>
      <trkpt lat="48.70916" lon="1.77366">
        <ele>162</ele>
        <time>2018-08-18T13:38:12Z</time>
      </trkpt>
      <trkpt lat="48.70912" lon="1.77359">
        <ele>163</ele>
        <time>2018-08-18T13:38:16Z</time>
      </trkpt>
      <trkpt lat="48.70908" lon="1.7735">
        <ele>163</ele>
        <time>2018-08-18T13:38:21Z</time>
      </trkpt>
      <trkpt lat="48.70905" lon="1.77343">
        <ele>163</ele>
        <time>2018-08-18T13:38:25Z</time>
      </trkpt>
      <trkpt lat="48.70902" lon="1.77335">
        <ele>163</ele>
        <time>2018-08-18T13:38:29Z</time>
      </trkpt>
      <trkpt lat="48.70899" lon="1.77327">
        <ele>163</ele>
        <time>2018-08-18T13:38:33Z</time>
      </trkpt>
      <trkpt lat="48.70895" lon="1.77317">
        <ele>163</ele>
        <time>2018-08-18T13:38:38Z</time>
      </trkpt>
      <trkpt lat="48.70892" lon="1.77307">
        <ele>163</ele>
        <time>2018-08-18T13:38:43Z</time>
      </trkpt>
      <trkpt lat="48.70889" lon="1.77297">
        <ele>163</ele>
        <time>2018-08-18T13:38:48Z</time>
      </trkpt>
      <trkpt lat="48.70887" lon="1.77289">
        <ele>163</ele>
        <time>2018-08-18T13:38:52Z</time>
      </trkpt>
      <trkpt lat="48.70884" lon="1.77281">
        <ele>163</ele>
        <time>2018-08-18T13:38:56Z</time>
      </trkpt>
      <trkpt lat="48.70882" lon="1.77273">
        <ele>163</ele>
        <time>2018-08-18T13:39:00Z</time>
      </trkpt>
      <trkpt lat="48.70879" lon="1.77265">
        <ele>163</ele>
        <time>2018-08-18T13:39:04Z</time>
      </trkpt>
      <trkpt lat="48.70874" lon="1.77257">
        <ele>163</ele>
        <time>2018-08-18T13:39:09Z</time>
      </trkpt>
      <trkpt lat="48.70869" lon="1.77255">
        <ele>163</ele>
        <time>2018-08-18T13:39:13Z</time>
      </trkpt>
      <trkpt lat="48.70864" lon="1.77253">
        <ele>163</ele>
        <time>2018-08-18T13:39:18Z</time>
      </trkpt>
      <trkpt lat="48.70857" lon="1.77252">
        <ele>163</ele>
        <time>2018-08-18T13:39:23Z</time>
      </trkpt>
      <trkpt lat="48.7085" lon="1.77252">
        <ele>163</ele>
        <time>2018-08-18T13:39:27Z</time>
      </trkpt>
      <trkpt lat="48.70845" lon="1.77252">
        <ele>163</ele>
        <time>2018-08-18T13:39:31Z</time>
      </trkpt>
      <trkpt lat="48.7084" lon="1.7725">
        <ele>163</ele>
        <time>2018-08-18T13:39:35Z</time>
      </trkpt>
      <trkpt lat="48.70835" lon="1.7725">
        <ele>163</ele>
        <time>2018-08-18T13:39:39Z</time>
      </trkpt>
      <trkpt lat="48.70828" lon="1.77249">
        <ele>163</ele>
        <time>2018-08-18T13:39:44Z</time>
      </trkpt>
      <trkpt lat="48.70823" lon="1.77248">
        <ele>163</ele>
        <time>2018-08-18T13:39:48Z</time>
      </trkpt>
      <trkpt lat="48.70816" lon="1.77249">
        <ele>163</ele>
        <time>2018-08-18T13:39:52Z</time>
      </trkpt>
      <trkpt lat="48.7081" lon="1.77249">
        <ele>163</ele>
        <time>2018-08-18T13:39:56Z</time>
      </trkpt>
      <trkpt lat="48.70804" lon="1.77251">
        <ele>163</ele>
        <time>2018-08-18T13:40:00Z</time>
      </trkpt>
      <trkpt lat="48.70798" lon="1.77252">
        <ele>163</ele>
        <time>2018-08-18T13:40:04Z</time>
      </trkpt>
      <trkpt lat="48.70791" lon="1.77251">
        <ele>163</ele>
        <time>2018-08-18T13:40:08Z</time>
      </trkpt>
      <trkpt lat="48.70784" lon="1.77252">
        <ele>163</ele>
        <time>2018-08-18T13:40:12Z</time>
      </trkpt>
      <trkpt lat="48.70778" lon="1.77252">
        <ele>163</ele>
        <time>2018-08-18T13:40:16Z</time>
      </trkpt>
      <trkpt lat="48.70773" lon="1.77253">
        <ele>163</ele>
        <time>2018-08-18T13:40:20Z</time>
      </trkpt>
      <trkpt lat="48.70766" lon="1.77253">
        <ele>163</ele>
        <time>2018-08-18T13:40:25Z</time>
      </trkpt>
      <trkpt lat="48.70759" lon="1.77254">
        <ele>163</ele>
        <time>2018-08-18T13:40:29Z</time>
      </trkpt>
      <trkpt lat="48.70752" lon="1.77255">
        <ele>163</ele>
        <time>2018-08-18T13:40:33Z</time>
      </trkpt>
      <trkpt lat="48.70747" lon="1.77256">
        <ele>163</ele>
        <time>2018-08-18T13:40:37Z</time>
      </trkpt>
      <trkpt lat="48.70741" lon="1.77258">
        <ele>163</ele>
        <time>2018-08-18T13:40:41Z</time>
      </trkpt>
      <trkpt lat="48.70736" lon="1.77259">
        <ele>163</ele>
        <time>2018-08-18T13:40:45Z</time>
      </trkpt>
      <trkpt lat="48.70731" lon="1.77258">
        <ele>163</ele>
        <time>2018-08-18T13:40:49Z</time>
      </trkpt>
      <trkpt lat="48.70724" lon="1.77257">
        <ele>163</ele>
        <time>2018-08-18T13:40:54Z</time>
      </trkpt>
      <trkpt lat="48.70717" lon="1.7726">
        <ele>163</ele>
        <time>2018-08-18T13:40:58Z</time>
      </trkpt>
      <trkpt lat="48.7071" lon="1.77259">
        <ele>163</ele>
        <time>2018-08-18T13:41:02Z</time>
      </trkpt>
      <trkpt lat="48.70704" lon="1.77259">
        <ele>163</ele>
        <time>2018-08-18T13:41:06Z</time>
      </trkpt>
      <trkpt lat="48.70699" lon="1.7726">
        <ele>163</ele>
        <time>2018-08-18T13:41:10Z</time>
      </trkpt>
      <trkpt lat="48.70693" lon="1.77258">
        <ele>163</ele>
        <time>2018-08-18T13:41:14Z</time>
      </trkpt>
      <trkpt lat="48.70686" lon="1.77259">
        <ele>163</ele>
        <time>2018-08-18T13:41:18Z</time>
      </trkpt>
      <trkpt lat="48.7068" lon="1.77258">
        <ele>163</ele>
        <time>2018-08-18T13:41:22Z</time>
      </trkpt>
      <trkpt lat="48.70674" lon="1.77257">
        <ele>163</ele>
        <time>2018-08-18T13:41:26Z</time>
      </trkpt>
      <trkpt lat="48.70669" lon="1.77256">
        <ele>163</ele>
        <time>2018-08-18T13:41:30Z</time>
      </trkpt>
      <trkpt lat="48.70664" lon="1.77254">
        <ele>163</ele>
        <time>2018-08-18T13:41:35Z</time>
      </trkpt>
      <trkpt lat="48.70659" lon="1.77255">
        <ele>163</ele>
        <time>2018-08-18T13:41:44Z</time>
      </trkpt>
      <trkpt lat="48.7066" lon="1.77255">
        <ele>163</ele>
        <time>2018-08-18T13:41:58Z</time>
      </trkpt>
      <trkpt lat="48.70664" lon="1.77256">
        <ele>163</ele>
        <time>2018-08-18T13:42:02Z</time>
      </trkpt>
      <trkpt lat="48.70668" lon="1.77257">
        <ele>163</ele>
        <time>2018-08-18T13:42:06Z</time>
      </trkpt>
      <trkpt lat="48.70674" lon="1.77258">
        <ele>163</ele>
        <time>2018-08-18T13:42:11Z</time>
      </trkpt>
      <trkpt lat="48.7068" lon="1.77259">
        <ele>163</ele>
        <time>2018-08-18T13:42:16Z</time>
      </trkpt>
      <trkpt lat="48.70684" lon="1.7726">
        <ele>163</ele>
        <time>2018-08-18T13:42:20Z</time>
      </trkpt>
      <trkpt lat="48.70688" lon="1.77261">
        <ele>162</ele>
        <time>2018-08-18T13:42:24Z</time>
      </trkpt>
      <trkpt lat="48.70695" lon="1.77261">
        <ele>162</ele>
        <time>2018-08-18T13:42:29Z</time>
      </trkpt>
      <trkpt lat="48.70701" lon="1.7726">
        <ele>162</ele>
        <time>2018-08-18T13:42:33Z</time>
      </trkpt>
      <trkpt lat="48.70706" lon="1.77261">
        <ele>162</ele>
        <time>2018-08-18T13:42:37Z</time>
      </trkpt>
      <trkpt lat="48.70712" lon="1.77261">
        <ele>162</ele>
        <time>2018-08-18T13:42:41Z</time>
      </trkpt>
      <trkpt lat="48.70718" lon="1.7726">
        <ele>162</ele>
        <time>2018-08-18T13:42:45Z</time>
      </trkpt>
      <trkpt lat="48.70725" lon="1.7726">
        <ele>162</ele>
        <time>2018-08-18T13:42:50Z</time>
      </trkpt>
      <trkpt lat="48.70732" lon="1.77259">
        <ele>162</ele>
        <time>2018-08-18T13:42:55Z</time>
      </trkpt>
      <trkpt lat="48.70739" lon="1.77258">
        <ele>162</ele>
        <time>2018-08-18T13:43:00Z</time>
      </trkpt>
      <trkpt lat="48.70745" lon="1.77256">
        <ele>162</ele>
        <time>2018-08-18T13:43:04Z</time>
      </trkpt>
      <trkpt lat="48.7075" lon="1.77255">
        <ele>162</ele>
        <time>2018-08-18T13:43:09Z</time>
      </trkpt>
      <trkpt lat="48.70755" lon="1.77253">
        <ele>162</ele>
        <time>2018-08-18T13:43:13Z</time>
      </trkpt>
      <trkpt lat="48.7076" lon="1.77252">
        <ele>162</ele>
        <time>2018-08-18T13:43:17Z</time>
      </trkpt>
      <trkpt lat="48.70766" lon="1.77252">
        <ele>161</ele>
        <time>2018-08-18T13:43:21Z</time>
      </trkpt>
      <trkpt lat="48.70771" lon="1.77253">
        <ele>160</ele>
        <time>2018-08-18T13:43:26Z</time>
      </trkpt>
      <trkpt lat="48.70778" lon="1.77254">
        <ele>159</ele>
        <time>2018-08-18T13:43:32Z</time>
      </trkpt>
      <trkpt lat="48.70784" lon="1.77254">
        <ele>159</ele>
        <time>2018-08-18T13:43:36Z</time>
      </trkpt>
      <trkpt lat="48.70789" lon="1.77253">
        <ele>158</ele>
        <time>2018-08-18T13:43:40Z</time>
      </trkpt>
      <trkpt lat="48.70795" lon="1.77253">
        <ele>158</ele>
        <time>2018-08-18T13:43:44Z</time>
      </trkpt>
      <trkpt lat="48.70802" lon="1.77252">
        <ele>158</ele>
        <time>2018-08-18T13:43:48Z</time>
      </trkpt>
      <trkpt lat="48.70808" lon="1.77252">
        <ele>158</ele>
        <time>2018-08-18T13:43:53Z</time>
      </trkpt>
      <trkpt lat="48.70814" lon="1.77252">
        <ele>158</ele>
        <time>2018-08-18T13:43:57Z</time>
      </trkpt>
      <trkpt lat="48.70818" lon="1.77253">
        <ele>158</ele>
        <time>2018-08-18T13:44:01Z</time>
      </trkpt>
      <trkpt lat="48.70826" lon="1.77253">
        <ele>158</ele>
        <time>2018-08-18T13:44:06Z</time>
      </trkpt>
      <trkpt lat="48.70831" lon="1.77253">
        <ele>158</ele>
        <time>2018-08-18T13:44:10Z</time>
      </trkpt>
      <trkpt lat="48.70836" lon="1.77255">
        <ele>158</ele>
        <time>2018-08-18T13:44:14Z</time>
      </trkpt>
      <trkpt lat="48.70845" lon="1.77256">
        <ele>156</ele>
        <time>2018-08-18T13:44:19Z</time>
      </trkpt>
      <trkpt lat="48.70855" lon="1.77253">
        <ele>156</ele>
        <time>2018-08-18T13:44:24Z</time>
      </trkpt>
      <trkpt lat="48.70861" lon="1.77254">
        <ele>156</ele>
        <time>2018-08-18T13:44:28Z</time>
      </trkpt>
      <trkpt lat="48.70866" lon="1.77254">
        <ele>156</ele>
        <time>2018-08-18T13:44:32Z</time>
      </trkpt>
      <trkpt lat="48.70872" lon="1.77252">
        <ele>156</ele>
        <time>2018-08-18T13:44:36Z</time>
      </trkpt>
      <trkpt lat="48.70875" lon="1.77251">
        <ele>158</ele>
        <time>2018-08-18T13:44:42Z</time>
      </trkpt>
      <trkpt lat="48.70877" lon="1.77256">
        <ele>159</ele>
        <time>2018-08-18T13:44:46Z</time>
      </trkpt>
      <trkpt lat="48.70879" lon="1.77264">
        <ele>159</ele>
        <time>2018-08-18T13:44:50Z</time>
      </trkpt>
      <trkpt lat="48.70882" lon="1.77272">
        <ele>159</ele>
        <time>2018-08-18T13:44:54Z</time>
      </trkpt>
      <trkpt lat="48.70884" lon="1.7728">
        <ele>159</ele>
        <time>2018-08-18T13:44:58Z</time>
      </trkpt>
      <trkpt lat="48.70886" lon="1.77289">
        <ele>159</ele>
        <time>2018-08-18T13:45:02Z</time>
      </trkpt>
      <trkpt lat="48.7089" lon="1.77297">
        <ele>159</ele>
        <time>2018-08-18T13:45:06Z</time>
      </trkpt>
      <trkpt lat="48.70892" lon="1.77305">
        <ele>159</ele>
        <time>2018-08-18T13:45:10Z</time>
      </trkpt>
      <trkpt lat="48.70894" lon="1.77314">
        <ele>156</ele>
        <time>2018-08-18T13:45:15Z</time>
      </trkpt>
      <trkpt lat="48.70897" lon="1.77322">
        <ele>155</ele>
        <time>2018-08-18T13:45:19Z</time>
      </trkpt>
      <trkpt lat="48.709" lon="1.7733">
        <ele>154</ele>
        <time>2018-08-18T13:45:23Z</time>
      </trkpt>
      <trkpt lat="48.70903" lon="1.77337">
        <ele>153</ele>
        <time>2018-08-18T13:45:27Z</time>
      </trkpt>
      <trkpt lat="48.70906" lon="1.77344">
        <ele>152</ele>
        <time>2018-08-18T13:45:31Z</time>
      </trkpt>
      <trkpt lat="48.7091" lon="1.7735">
        <ele>151</ele>
        <time>2018-08-18T13:45:35Z</time>
      </trkpt>
      <trkpt lat="48.70915" lon="1.77358">
        <ele>150</ele>
        <time>2018-08-18T13:45:40Z</time>
      </trkpt>
      <trkpt lat="48.70918" lon="1.77365">
        <ele>150</ele>
        <time>2018-08-18T13:45:44Z</time>
      </trkpt>
      <trkpt lat="48.70921" lon="1.77372">
        <ele>150</ele>
        <time>2018-08-18T13:45:48Z</time>
      </trkpt>
      <trkpt lat="48.70924" lon="1.7738">
        <ele>150</ele>
        <time>2018-08-18T13:45:52Z</time>
      </trkpt>
      <trkpt lat="48.70928" lon="1.77387">
        <ele>149</ele>
        <time>2018-08-18T13:45:57Z</time>
      </trkpt>
      <trkpt lat="48.70931" lon="1.77393">
        <ele>148</ele>
        <time>2018-08-18T13:46:01Z</time>
      </trkpt>
      <trkpt lat="48.70935" lon="1.774">
        <ele>147</ele>
        <time>2018-08-18T13:46:05Z</time>
      </trkpt>
      <trkpt lat="48.7094" lon="1.77408">
        <ele>147</ele>
        <time>2018-08-18T13:46:09Z</time>
      </trkpt>
      <trkpt lat="48.70944" lon="1.77415">
        <ele>147</ele>
        <time>2018-08-18T13:46:13Z</time>
      </trkpt>
      <trkpt lat="48.70949" lon="1.77422">
        <ele>147</ele>
        <time>2018-08-18T13:46:17Z</time>
      </trkpt>
      <trkpt lat="48.70953" lon="1.7743">
        <ele>147</ele>
        <time>2018-08-18T13:46:21Z</time>
      </trkpt>
      <trkpt lat="48.70956" lon="1.77436">
        <ele>147</ele>
        <time>2018-08-18T13:46:25Z</time>
      </trkpt>
      <trkpt lat="48.70959" lon="1.77444">
        <ele>147</ele>
        <time>2018-08-18T13:46:30Z</time>
      </trkpt>
      <trkpt lat="48.70962" lon="1.77451">
        <ele>147</ele>
        <time>2018-08-18T13:46:34Z</time>
      </trkpt>
      <trkpt lat="48.70966" lon="1.77458">
        <ele>147</ele>
        <time>2018-08-18T13:46:38Z</time>
      </trkpt>
      <trkpt lat="48.70969" lon="1.77465">
        <ele>147</ele>
        <time>2018-08-18T13:46:42Z</time>
      </trkpt>
      <trkpt lat="48.70972" lon="1.77472">
        <ele>147</ele>
        <time>2018-08-18T13:46:46Z</time>
      </trkpt>
      <trkpt lat="48.70977" lon="1.77479">
        <ele>147</ele>
        <time>2018-08-18T13:46:50Z</time>
      </trkpt>
      <trkpt lat="48.70981" lon="1.77487">
        <ele>147</ele>
        <time>2018-08-18T13:46:54Z</time>
      </trkpt>
      <trkpt lat="48.70984" lon="1.77494">
        <ele>147</ele>
        <time>2018-08-18T13:46:58Z</time>
      </trkpt>
      <trkpt lat="48.70987" lon="1.77501">
        <ele>147</ele>
        <time>2018-08-18T13:47:02Z</time>
      </trkpt>
      <trkpt lat="48.7099" lon="1.77508">
        <ele>147</ele>
        <time>2018-08-18T13:47:06Z</time>
      </trkpt>
      <trkpt lat="48.70993" lon="1.77515">
        <ele>147</ele>
        <time>2018-08-18T13:47:10Z</time>
      </trkpt>
      <trkpt lat="48.70996" lon="1.77522">
        <ele>147</ele>
        <time>2018-08-18T13:47:14Z</time>
      </trkpt>
      <trkpt lat="48.71" lon="1.77531">
        <ele>147</ele>
        <time>2018-08-18T13:47:19Z</time>
      </trkpt>
      <trkpt lat="48.71002" lon="1.77539">
        <ele>147</ele>
        <time>2018-08-18T13:47:23Z</time>
      </trkpt>
      <trkpt lat="48.71003" lon="1.77546">
        <ele>147</ele>
        <time>2018-08-18T13:47:27Z</time>
      </trkpt>
      <trkpt lat="48.71007" lon="1.77554">
        <ele>147</ele>
        <time>2018-08-18T13:47:31Z</time>
      </trkpt>
      <trkpt lat="48.7101" lon="1.77562">
        <ele>147</ele>
        <time>2018-08-18T13:47:35Z</time>
      </trkpt>
      <trkpt lat="48.71013" lon="1.7757">
        <ele>147</ele>
        <time>2018-08-18T13:47:39Z</time>
      </trkpt>
      <trkpt lat="48.71015" lon="1.77578">
        <ele>147</ele>
        <time>2018-08-18T13:47:43Z</time>
      </trkpt>
      <trkpt lat="48.71018" lon="1.77585">
        <ele>147</ele>
        <time>2018-08-18T13:47:47Z</time>
      </trkpt>
      <trkpt lat="48.71022" lon="1.77593">
        <ele>147</ele>
        <time>2018-08-18T13:47:51Z</time>
      </trkpt>
      <trkpt lat="48.71025" lon="1.77601">
        <ele>147</ele>
        <time>2018-08-18T13:47:55Z</time>
      </trkpt>
      <trkpt lat="48.71028" lon="1.7761">
        <ele>147</ele>
        <time>2018-08-18T13:47:59Z</time>
      </trkpt>
      <trkpt lat="48.71031" lon="1.77617">
        <ele>147</ele>
        <time>2018-08-18T13:48:03Z</time>
      </trkpt>
      <trkpt lat="48.71034" lon="1.77624">
        <ele>146</ele>
        <time>2018-08-18T13:48:07Z</time>
      </trkpt>
      <trkpt lat="48.71037" lon="1.77631">
        <ele>145</ele>
        <time>2018-08-18T13:48:11Z</time>
      </trkpt>
      <trkpt lat="48.71039" lon="1.77639">
        <ele>145</ele>
        <time>2018-08-18T13:48:15Z</time>
      </trkpt>
      <trkpt lat="48.71042" lon="1.77647">
        <ele>145</ele>
        <time>2018-08-18T13:48:19Z</time>
      </trkpt>
      <trkpt lat="48.71044" lon="1.77655">
        <ele>145</ele>
        <time>2018-08-18T13:48:23Z</time>
      </trkpt>
      <trkpt lat="48.71047" lon="1.77663">
        <ele>145</ele>
        <time>2018-08-18T13:48:27Z</time>
      </trkpt>
      <trkpt lat="48.7105" lon="1.7767">
        <ele>145</ele>
        <time>2018-08-18T13:48:31Z</time>
      </trkpt>
      <trkpt lat="48.71053" lon="1.77677">
        <ele>144</ele>
        <time>2018-08-18T13:48:35Z</time>
      </trkpt>
      <trkpt lat="48.71056" lon="1.77684">
        <ele>144</ele>
        <time>2018-08-18T13:48:39Z</time>
      </trkpt>
      <trkpt lat="48.71062" lon="1.7769">
        <ele>144</ele>
        <time>2018-08-18T13:48:43Z</time>
      </trkpt>
      <trkpt lat="48.71065" lon="1.77695">
        <ele>144</ele>
        <time>2018-08-18T13:48:47Z</time>
      </trkpt>
      <trkpt lat="48.71069" lon="1.77694">
        <ele>144</ele>
        <time>2018-08-18T13:48:51Z</time>
      </trkpt>
      <trkpt lat="48.71074" lon="1.77693">
        <ele>144</ele>
        <time>2018-08-18T13:48:55Z</time>
      </trkpt>
      <trkpt lat="48.71081" lon="1.77693">
        <ele>144</ele>
        <time>2018-08-18T13:48:59Z</time>
      </trkpt>
      <trkpt lat="48.71088" lon="1.77692">
        <ele>145</ele>
        <time>2018-08-18T13:49:03Z</time>
      </trkpt>
      <trkpt lat="48.71094" lon="1.77691">
        <ele>148</ele>
        <time>2018-08-18T13:49:07Z</time>
      </trkpt>
      <trkpt lat="48.71099" lon="1.77691">
        <ele>150</ele>
        <time>2018-08-18T13:49:11Z</time>
      </trkpt>
      <trkpt lat="48.71105" lon="1.7769">
        <ele>151</ele>
        <time>2018-08-18T13:49:15Z</time>
      </trkpt>
      <trkpt lat="48.71111" lon="1.77687">
        <ele>152</ele>
        <time>2018-08-18T13:49:20Z</time>
      </trkpt>
      <trkpt lat="48.71117" lon="1.77688">
        <ele>152</ele>
        <time>2018-08-18T13:49:24Z</time>
      </trkpt>
      <trkpt lat="48.71121" lon="1.77687">
        <ele>152</ele>
        <time>2018-08-18T13:49:28Z</time>
      </trkpt>
      <trkpt lat="48.71126" lon="1.77686">
        <ele>152</ele>
        <time>2018-08-18T13:49:32Z</time>
      </trkpt>
      <trkpt lat="48.71132" lon="1.77685">
        <ele>152</ele>
        <time>2018-08-18T13:49:36Z</time>
      </trkpt>
      <trkpt lat="48.71139" lon="1.77682">
        <ele>152</ele>
        <time>2018-08-18T13:49:41Z</time>
      </trkpt>
      <trkpt lat="48.71145" lon="1.7768">
        <ele>152</ele>
        <time>2018-08-18T13:49:45Z</time>
      </trkpt>
      <trkpt lat="48.7115" lon="1.77677">
        <ele>152</ele>
        <time>2018-08-18T13:49:49Z</time>
      </trkpt>
      <trkpt lat="48.71156" lon="1.77677">
        <ele>152</ele>
        <time>2018-08-18T13:49:53Z</time>
      </trkpt>
      <trkpt lat="48.71162" lon="1.77675">
        <ele>152</ele>
        <time>2018-08-18T13:49:57Z</time>
      </trkpt>
      <trkpt lat="48.71169" lon="1.77674">
        <ele>152</ele>
        <time>2018-08-18T13:50:02Z</time>
      </trkpt>
      <trkpt lat="48.71176" lon="1.77673">
        <ele>152</ele>
        <time>2018-08-18T13:50:07Z</time>
      </trkpt>
      <trkpt lat="48.71182" lon="1.77673">
        <ele>152</ele>
        <time>2018-08-18T13:50:11Z</time>
      </trkpt>
      <trkpt lat="48.71188" lon="1.77675">
        <ele>152</ele>
        <time>2018-08-18T13:50:15Z</time>
      </trkpt>
      <trkpt lat="48.71192" lon="1.77675">
        <ele>152</ele>
        <time>2018-08-18T13:50:19Z</time>
      </trkpt>
      <trkpt lat="48.71197" lon="1.77674">
        <ele>152</ele>
        <time>2018-08-18T13:50:23Z</time>
      </trkpt>
      <trkpt lat="48.71203" lon="1.77673">
        <ele>153</ele>
        <time>2018-08-18T13:50:27Z</time>
      </trkpt>
      <trkpt lat="48.71209" lon="1.77673">
        <ele>156</ele>
        <time>2018-08-18T13:50:31Z</time>
      </trkpt>
      <trkpt lat="48.71216" lon="1.77672">
        <ele>156</ele>
        <time>2018-08-18T13:50:35Z</time>
      </trkpt>
      <trkpt lat="48.71221" lon="1.77668">
        <ele>156</ele>
        <time>2018-08-18T13:50:39Z</time>
      </trkpt>
      <trkpt lat="48.71227" lon="1.77665">
        <ele>156</ele>
        <time>2018-08-18T13:50:44Z</time>
      </trkpt>
      <trkpt lat="48.71232" lon="1.77664">
        <ele>156</ele>
        <time>2018-08-18T13:50:48Z</time>
      </trkpt>
      <trkpt lat="48.71238" lon="1.77658">
        <ele>153</ele>
        <time>2018-08-18T13:50:53Z</time>
      </trkpt>
      <trkpt lat="48.71242" lon="1.77653">
        <ele>152</ele>
        <time>2018-08-18T13:50:57Z</time>
      </trkpt>
      <trkpt lat="48.71247" lon="1.77649">
        <ele>151</ele>
        <time>2018-08-18T13:51:01Z</time>
      </trkpt>
      <trkpt lat="48.71253" lon="1.77643">
        <ele>150</ele>
        <time>2018-08-18T13:51:05Z</time>
      </trkpt>
      <trkpt lat="48.71258" lon="1.77639">
        <ele>150</ele>
        <time>2018-08-18T13:51:09Z</time>
      </trkpt>
      <trkpt lat="48.71264" lon="1.77639">
        <ele>150</ele>
        <time>2018-08-18T13:51:13Z</time>
      </trkpt>
      <trkpt lat="48.7127" lon="1.77639">
        <ele>150</ele>
        <time>2018-08-18T13:51:17Z</time>
      </trkpt>
      <trkpt lat="48.71276" lon="1.77639">
        <ele>150</ele>
        <time>2018-08-18T13:51:21Z</time>
      </trkpt>
      <trkpt lat="48.71281" lon="1.7764">
        <ele>150</ele>
        <time>2018-08-18T13:51:25Z</time>
      </trkpt>
      <trkpt lat="48.71286" lon="1.7764">
        <ele>150</ele>
        <time>2018-08-18T13:51:29Z</time>
      </trkpt>
      <trkpt lat="48.71291" lon="1.77638">
        <ele>150</ele>
        <time>2018-08-18T13:51:33Z</time>
      </trkpt>
      <trkpt lat="48.71296" lon="1.77634">
        <ele>150</ele>
        <time>2018-08-18T13:51:37Z</time>
      </trkpt>
      <trkpt lat="48.71302" lon="1.7763">
        <ele>150</ele>
        <time>2018-08-18T13:51:41Z</time>
      </trkpt>
      <trkpt lat="48.71307" lon="1.77625">
        <ele>150</ele>
        <time>2018-08-18T13:51:45Z</time>
      </trkpt>
      <trkpt lat="48.71312" lon="1.77621">
        <ele>150</ele>
        <time>2018-08-18T13:51:49Z</time>
      </trkpt>
      <trkpt lat="48.71315" lon="1.77618">
        <ele>150</ele>
        <time>2018-08-18T13:51:53Z</time>
      </trkpt>
      <trkpt lat="48.71321" lon="1.77612">
        <ele>150</ele>
        <time>2018-08-18T13:51:57Z</time>
      </trkpt>
      <trkpt lat="48.71327" lon="1.77607">
        <ele>150</ele>
        <time>2018-08-18T13:52:01Z</time>
      </trkpt>
      <trkpt lat="48.71333" lon="1.77601">
        <ele>150</ele>
        <time>2018-08-18T13:52:05Z</time>
      </trkpt>
      <trkpt lat="48.71339" lon="1.77595">
        <ele>150</ele>
        <time>2018-08-18T13:52:10Z</time>
      </trkpt>
      <trkpt lat="48.71344" lon="1.7759">
        <ele>150</ele>
        <time>2018-08-18T13:52:14Z</time>
      </trkpt>
      <trkpt lat="48.71349" lon="1.77586">
        <ele>150</ele>
        <time>2018-08-18T13:52:18Z</time>
      </trkpt>
      <trkpt lat="48.71355" lon="1.77581">
        <ele>150</ele>
        <time>2018-08-18T13:52:22Z</time>
      </trkpt>
      <trkpt lat="48.71359" lon="1.77576">
        <ele>150</ele>
        <time>2018-08-18T13:52:26Z</time>
      </trkpt>
      <trkpt lat="48.71363" lon="1.77572">
        <ele>150</ele>
        <time>2018-08-18T13:52:30Z</time>
      </trkpt>
      <trkpt lat="48.71369" lon="1.77568">
        <ele>150</ele>
        <time>2018-08-18T13:52:34Z</time>
      </trkpt>
      <trkpt lat="48.71374" lon="1.77562">
        <ele>150</ele>
        <time>2018-08-18T13:52:38Z</time>
      </trkpt>
      <trkpt lat="48.71379" lon="1.77557">
        <ele>150</ele>
        <time>2018-08-18T13:52:42Z</time>
      </trkpt>
      <trkpt lat="48.71384" lon="1.77552">
        <ele>150</ele>
        <time>2018-08-18T13:52:46Z</time>
      </trkpt>
      <trkpt lat="48.7139" lon="1.77549">
        <ele>150</ele>
        <time>2018-08-18T13:52:51Z</time>
      </trkpt>
      <trkpt lat="48.71395" lon="1.77539">
        <ele>149</ele>
        <time>2018-08-18T13:52:55Z</time>
      </trkpt>
      <trkpt lat="48.71401" lon="1.77532">
        <ele>149</ele>
        <time>2018-08-18T13:52:59Z</time>
      </trkpt>
      <trkpt lat="48.71406" lon="1.77526">
        <ele>149</ele>
        <time>2018-08-18T13:53:03Z</time>
      </trkpt>
      <trkpt lat="48.7141" lon="1.77519">
        <ele>149</ele>
        <time>2018-08-18T13:53:08Z</time>
      </trkpt>
      <trkpt lat="48.71415" lon="1.77511">
        <ele>149</ele>
        <time>2018-08-18T13:53:12Z</time>
      </trkpt>
      <trkpt lat="48.7142" lon="1.77506">
        <ele>149</ele>
        <time>2018-08-18T13:53:16Z</time>
      </trkpt>
      <trkpt lat="48.71424" lon="1.775">
        <ele>149</ele>
        <time>2018-08-18T13:53:20Z</time>
      </trkpt>
      <trkpt lat="48.71429" lon="1.77492">
        <ele>149</ele>
        <time>2018-08-18T13:53:25Z</time>
      </trkpt>
      <trkpt lat="48.71435" lon="1.7749">
        <ele>148</ele>
        <time>2018-08-18T13:53:29Z</time>
      </trkpt>
      <trkpt lat="48.71441" lon="1.77489">
        <ele>148</ele>
        <time>2018-08-18T13:53:33Z</time>
      </trkpt>
      <trkpt lat="48.71447" lon="1.77486">
        <ele>148</ele>
        <time>2018-08-18T13:53:37Z</time>
      </trkpt>
      <trkpt lat="48.71453" lon="1.77484">
        <ele>148</ele>
        <time>2018-08-18T13:53:41Z</time>
      </trkpt>
      <trkpt lat="48.71458" lon="1.77482">
        <ele>148</ele>
        <time>2018-08-18T13:53:45Z</time>
      </trkpt>
      <trkpt lat="48.71462" lon="1.77482">
        <ele>148</ele>
        <time>2018-08-18T13:53:49Z</time>
      </trkpt>
      <trkpt lat="48.71466" lon="1.77481">
        <ele>148</ele>
        <time>2018-08-18T13:53:53Z</time>
      </trkpt>
      <trkpt lat="48.71472" lon="1.77479">
        <ele>147</ele>
        <time>2018-08-18T13:53:58Z</time>
      </trkpt>
      <trkpt lat="48.71477" lon="1.77476">
        <ele>146</ele>
        <time>2018-08-18T13:54:02Z</time>
      </trkpt>
      <trkpt lat="48.71483" lon="1.77474">
        <ele>145</ele>
        <time>2018-08-18T13:54:06Z</time>
      </trkpt>
      <trkpt lat="48.7149" lon="1.77471">
        <ele>145</ele>
        <time>2018-08-18T13:54:10Z</time>
      </trkpt>
      <trkpt lat="48.71495" lon="1.77467">
        <ele>145</ele>
        <time>2018-08-18T13:54:14Z</time>
      </trkpt>
      <trkpt lat="48.71502" lon="1.77461">
        <ele>145</ele>
        <time>2018-08-18T13:54:18Z</time>
      </trkpt>
      <trkpt lat="48.71508" lon="1.77455">
        <ele>145</ele>
        <time>2018-08-18T13:54:22Z</time>
      </trkpt>
      <trkpt lat="48.71514" lon="1.77452">
        <ele>145</ele>
        <time>2018-08-18T13:54:26Z</time>
      </trkpt>
      <trkpt lat="48.7152" lon="1.77449">
        <ele>145</ele>
        <time>2018-08-18T13:54:30Z</time>
      </trkpt>
      <trkpt lat="48.71525" lon="1.77444">
        <ele>145</ele>
        <time>2018-08-18T13:54:34Z</time>
      </trkpt>
      <trkpt lat="48.71531" lon="1.77442">
        <ele>145</ele>
        <time>2018-08-18T13:54:38Z</time>
      </trkpt>
      <trkpt lat="48.71537" lon="1.7744">
        <ele>145</ele>
        <time>2018-08-18T13:54:42Z</time>
      </trkpt>
      <trkpt lat="48.71543" lon="1.77439">
        <ele>145</ele>
        <time>2018-08-18T13:54:47Z</time>
      </trkpt>
      <trkpt lat="48.71548" lon="1.7744">
        <ele>145</ele>
        <time>2018-08-18T13:54:51Z</time>
      </trkpt>
      <trkpt lat="48.71554" lon="1.77441">
        <ele>145</ele>
        <time>2018-08-18T13:54:55Z</time>
      </trkpt>
      <trkpt lat="48.71561" lon="1.77443">
        <ele>145</ele>
        <time>2018-08-18T13:54:59Z</time>
      </trkpt>
      <trkpt lat="48.71567" lon="1.77442">
        <ele>145</ele>
        <time>2018-08-18T13:55:04Z</time>
      </trkpt>
      <trkpt lat="48.71573" lon="1.77443">
        <ele>145</ele>
        <time>2018-08-18T13:55:08Z</time>
      </trkpt>
      <trkpt lat="48.71579" lon="1.77442">
        <ele>145</ele>
        <time>2018-08-18T13:55:12Z</time>
      </trkpt>
      <trkpt lat="48.71585" lon="1.77442">
        <ele>144</ele>
        <time>2018-08-18T13:55:16Z</time>
      </trkpt>
      <trkpt lat="48.71592" lon="1.77442">
        <ele>143</ele>
        <time>2018-08-18T13:55:20Z</time>
      </trkpt>
      <trkpt lat="48.71599" lon="1.77442">
        <ele>143</ele>
        <time>2018-08-18T13:55:25Z</time>
      </trkpt>
      <trkpt lat="48.71604" lon="1.77442">
        <ele>143</ele>
        <time>2018-08-18T13:55:29Z</time>
      </trkpt>
      <trkpt lat="48.71609" lon="1.77444">
        <ele>142</ele>
        <time>2018-08-18T13:55:33Z</time>
      </trkpt>
      <trkpt lat="48.71614" lon="1.77445">
        <ele>141</ele>
        <time>2018-08-18T13:55:37Z</time>
      </trkpt>
      <trkpt lat="48.71621" lon="1.77446">
        <ele>141</ele>
        <time>2018-08-18T13:55:41Z</time>
      </trkpt>
      <trkpt lat="48.71627" lon="1.77448">
        <ele>141</ele>
        <time>2018-08-18T13:55:45Z</time>
      </trkpt>
      <trkpt lat="48.71632" lon="1.77451">
        <ele>141</ele>
        <time>2018-08-18T13:55:49Z</time>
      </trkpt>
      <trkpt lat="48.71639" lon="1.77454">
        <ele>141</ele>
        <time>2018-08-18T13:55:53Z</time>
      </trkpt>
      <trkpt lat="48.71647" lon="1.77456">
        <ele>140</ele>
        <time>2018-08-18T13:55:57Z</time>
      </trkpt>
      <trkpt lat="48.71653" lon="1.77459">
        <ele>140</ele>
        <time>2018-08-18T13:56:01Z</time>
      </trkpt>
      <trkpt lat="48.71658" lon="1.77464">
        <ele>139</ele>
        <time>2018-08-18T13:56:05Z</time>
      </trkpt>
      <trkpt lat="48.71661" lon="1.77469">
        <ele>136</ele>
        <time>2018-08-18T13:56:09Z</time>
      </trkpt>
      <trkpt lat="48.71665" lon="1.77474">
        <ele>134</ele>
        <time>2018-08-18T13:56:13Z</time>
      </trkpt>
      <trkpt lat="48.71671" lon="1.77478">
        <ele>134</ele>
        <time>2018-08-18T13:56:17Z</time>
      </trkpt>
      <trkpt lat="48.71678" lon="1.77481">
        <ele>134</ele>
        <time>2018-08-18T13:56:21Z</time>
      </trkpt>
      <trkpt lat="48.71684" lon="1.77483">
        <ele>134</ele>
        <time>2018-08-18T13:56:25Z</time>
      </trkpt>
      <trkpt lat="48.7169" lon="1.77484">
        <ele>134</ele>
        <time>2018-08-18T13:56:29Z</time>
      </trkpt>
      <trkpt lat="48.71699" lon="1.77483">
        <ele>134</ele>
        <time>2018-08-18T13:56:33Z</time>
      </trkpt>
      <trkpt lat="48.71706" lon="1.77481">
        <ele>134</ele>
        <time>2018-08-18T13:56:37Z</time>
      </trkpt>
      <trkpt lat="48.71712" lon="1.77477">
        <ele>134</ele>
        <time>2018-08-18T13:56:41Z</time>
      </trkpt>
      <trkpt lat="48.71718" lon="1.77475">
        <ele>135</ele>
        <time>2018-08-18T13:56:45Z</time>
      </trkpt>
      <trkpt lat="48.71724" lon="1.77474">
        <ele>135</ele>
        <time>2018-08-18T13:56:49Z</time>
      </trkpt>
      <trkpt lat="48.7173" lon="1.77476">
        <ele>135</ele>
        <time>2018-08-18T13:56:53Z</time>
      </trkpt>
      <trkpt lat="48.71735" lon="1.7748">
        <ele>135</ele>
        <time>2018-08-18T13:56:57Z</time>
      </trkpt>
      <trkpt lat="48.71741" lon="1.77484">
        <ele>135</ele>
        <time>2018-08-18T13:57:01Z</time>
      </trkpt>
      <trkpt lat="48.71746" lon="1.77486">
        <ele>135</ele>
        <time>2018-08-18T13:57:05Z</time>
      </trkpt>
      <trkpt lat="48.71753" lon="1.77484">
        <ele>134</ele>
        <time>2018-08-18T13:57:09Z</time>
      </trkpt>
      <trkpt lat="48.7176" lon="1.77481">
        <ele>134</ele>
        <time>2018-08-18T13:57:13Z</time>
      </trkpt>
      <trkpt lat="48.71765" lon="1.77477">
        <ele>134</ele>
        <time>2018-08-18T13:57:17Z</time>
      </trkpt>
      <trkpt lat="48.71768" lon="1.77472">
        <ele>134</ele>
        <time>2018-08-18T13:57:21Z</time>
      </trkpt>
      <trkpt lat="48.71773" lon="1.77466">
        <ele>134</ele>
        <time>2018-08-18T13:57:25Z</time>
      </trkpt>
      <trkpt lat="48.71778" lon="1.77465">
        <ele>134</ele>
        <time>2018-08-18T13:57:30Z</time>
      </trkpt>
      <trkpt lat="48.71783" lon="1.77465">
        <ele>134</ele>
        <time>2018-08-18T13:57:34Z</time>
      </trkpt>
      <trkpt lat="48.71787" lon="1.77464">
        <ele>134</ele>
        <time>2018-08-18T13:57:38Z</time>
      </trkpt>
      <trkpt lat="48.71792" lon="1.77458">
        <ele>136</ele>
        <time>2018-08-18T13:57:43Z</time>
      </trkpt>
      <trkpt lat="48.71792" lon="1.77451">
        <ele>137</ele>
        <time>2018-08-18T13:57:47Z</time>
      </trkpt>
      <trkpt lat="48.71795" lon="1.77445">
        <ele>137</ele>
        <time>2018-08-18T13:57:51Z</time>
      </trkpt>
      <trkpt lat="48.71799" lon="1.77439">
        <ele>137</ele>
        <time>2018-08-18T13:57:55Z</time>
      </trkpt>
      <trkpt lat="48.71805" lon="1.77433">
        <ele>137</ele>
        <time>2018-08-18T13:57:59Z</time>
      </trkpt>
      <trkpt lat="48.71811" lon="1.77429">
        <ele>137</ele>
        <time>2018-08-18T13:58:03Z</time>
      </trkpt>
      <trkpt lat="48.71817" lon="1.77426">
        <ele>137</ele>
        <time>2018-08-18T13:58:07Z</time>
      </trkpt>
      <trkpt lat="48.71823" lon="1.77421">
        <ele>137</ele>
        <time>2018-08-18T13:58:11Z</time>
      </trkpt>
      <trkpt lat="48.71829" lon="1.77418">
        <ele>137</ele>
        <time>2018-08-18T13:58:15Z</time>
      </trkpt>
      <trkpt lat="48.71834" lon="1.77417">
        <ele>136</ele>
        <time>2018-08-18T13:58:19Z</time>
      </trkpt>
      <trkpt lat="48.7184" lon="1.77414">
        <ele>135</ele>
        <time>2018-08-18T13:58:23Z</time>
      </trkpt>
      <trkpt lat="48.71847" lon="1.77408">
        <ele>135</ele>
        <time>2018-08-18T13:58:28Z</time>
      </trkpt>
      <trkpt lat="48.71852" lon="1.77405">
        <ele>134</ele>
        <time>2018-08-18T13:58:32Z</time>
      </trkpt>
      <trkpt lat="48.71858" lon="1.77402">
        <ele>133</ele>
        <time>2018-08-18T13:58:36Z</time>
      </trkpt>
      <trkpt lat="48.71864" lon="1.77401">
        <ele>133</ele>
        <time>2018-08-18T13:58:40Z</time>
      </trkpt>
      <trkpt lat="48.71869" lon="1.774">
        <ele>133</ele>
        <time>2018-08-18T13:58:44Z</time>
      </trkpt>
      <trkpt lat="48.71875" lon="1.77398">
        <ele>133</ele>
        <time>2018-08-18T13:58:48Z</time>
      </trkpt>
      <trkpt lat="48.71881" lon="1.77398">
        <ele>133</ele>
        <time>2018-08-18T13:58:52Z</time>
      </trkpt>
      <trkpt lat="48.71887" lon="1.77401">
        <ele>133</ele>
        <time>2018-08-18T13:58:57Z</time>
      </trkpt>
      <trkpt lat="48.71892" lon="1.77403">
        <ele>133</ele>
        <time>2018-08-18T13:59:01Z</time>
      </trkpt>
      <trkpt lat="48.71898" lon="1.77408">
        <ele>133</ele>
        <time>2018-08-18T13:59:06Z</time>
      </trkpt>
      <trkpt lat="48.71903" lon="1.77411">
        <ele>133</ele>
        <time>2018-08-18T13:59:11Z</time>
      </trkpt>
      <trkpt lat="48.71909" lon="1.77414">
        <ele>132</ele>
        <time>2018-08-18T13:59:15Z</time>
      </trkpt>
      <trkpt lat="48.71914" lon="1.77419">
        <ele>129</ele>
        <time>2018-08-18T13:59:19Z</time>
      </trkpt>
      <trkpt lat="48.71919" lon="1.77423">
        <ele>128</ele>
        <time>2018-08-18T13:59:23Z</time>
      </trkpt>
      <trkpt lat="48.71925" lon="1.77426">
        <ele>127</ele>
        <time>2018-08-18T13:59:27Z</time>
      </trkpt>
      <trkpt lat="48.71932" lon="1.7743">
        <ele>127</ele>
        <time>2018-08-18T13:59:31Z</time>
      </trkpt>
      <trkpt lat="48.71938" lon="1.77434">
        <ele>127</ele>
        <time>2018-08-18T13:59:35Z</time>
      </trkpt>
      <trkpt lat="48.71942" lon="1.77441">
        <ele>127</ele>
        <time>2018-08-18T13:59:40Z</time>
      </trkpt>
      <trkpt lat="48.71948" lon="1.77445">
        <ele>127</ele>
        <time>2018-08-18T13:59:44Z</time>
      </trkpt>
      <trkpt lat="48.71953" lon="1.77453">
        <ele>127</ele>
        <time>2018-08-18T13:59:49Z</time>
      </trkpt>
      <trkpt lat="48.7196" lon="1.77459">
        <ele>127</ele>
        <time>2018-08-18T13:59:53Z</time>
      </trkpt>
      <trkpt lat="48.71965" lon="1.77465">
        <ele>127</ele>
        <time>2018-08-18T13:59:57Z</time>
      </trkpt>
      <trkpt lat="48.71969" lon="1.77472">
        <ele>127</ele>
        <time>2018-08-18T14:00:01Z</time>
      </trkpt>
      <trkpt lat="48.71972" lon="1.77478">
        <ele>127</ele>
        <time>2018-08-18T14:00:05Z</time>
      </trkpt>
      <trkpt lat="48.71977" lon="1.77483">
        <ele>127</ele>
        <time>2018-08-18T14:00:09Z</time>
      </trkpt>
      <trkpt lat="48.7198" lon="1.7749">
        <ele>127</ele>
        <time>2018-08-18T14:00:13Z</time>
      </trkpt>
      <trkpt lat="48.71986" lon="1.77497">
        <ele>127</ele>
        <time>2018-08-18T14:00:18Z</time>
      </trkpt>
      <trkpt lat="48.71991" lon="1.77503">
        <ele>127</ele>
        <time>2018-08-18T14:00:22Z</time>
      </trkpt>
      <trkpt lat="48.71994" lon="1.77511">
        <ele>127</ele>
        <time>2018-08-18T14:00:26Z</time>
      </trkpt>
      <trkpt lat="48.71999" lon="1.77517">
        <ele>127</ele>
        <time>2018-08-18T14:00:30Z</time>
      </trkpt>
      <trkpt lat="48.72003" lon="1.77522">
        <ele>127</ele>
        <time>2018-08-18T14:00:34Z</time>
      </trkpt>
      <trkpt lat="48.72009" lon="1.77526">
        <ele>127</ele>
        <time>2018-08-18T14:00:38Z</time>
      </trkpt>
      <trkpt lat="48.72013" lon="1.77532">
        <ele>128</ele>
        <time>2018-08-18T14:00:42Z</time>
      </trkpt>
      <trkpt lat="48.72018" lon="1.77537">
        <ele>129</ele>
        <time>2018-08-18T14:00:46Z</time>
      </trkpt>
      <trkpt lat="48.72022" lon="1.77541">
        <ele>131</ele>
        <time>2018-08-18T14:00:50Z</time>
      </trkpt>
      <trkpt lat="48.72029" lon="1.77544">
        <ele>131</ele>
        <time>2018-08-18T14:00:55Z</time>
      </trkpt>
      <trkpt lat="48.72035" lon="1.77546">
        <ele>131</ele>
        <time>2018-08-18T14:00:59Z</time>
      </trkpt>
      <trkpt lat="48.7204" lon="1.77546">
        <ele>131</ele>
        <time>2018-08-18T14:01:03Z</time>
      </trkpt>
      <trkpt lat="48.72046" lon="1.77546">
        <ele>131</ele>
        <time>2018-08-18T14:01:07Z</time>
      </trkpt>
      <trkpt lat="48.72052" lon="1.77545">
        <ele>131</ele>
        <time>2018-08-18T14:01:11Z</time>
      </trkpt>
      <trkpt lat="48.72058" lon="1.77544">
        <ele>131</ele>
        <time>2018-08-18T14:01:15Z</time>
      </trkpt>
      <trkpt lat="48.72064" lon="1.77543">
        <ele>132</ele>
        <time>2018-08-18T14:01:19Z</time>
      </trkpt>
      <trkpt lat="48.72072" lon="1.77545">
        <ele>133</ele>
        <time>2018-08-18T14:01:23Z</time>
      </trkpt>
      <trkpt lat="48.72079" lon="1.77547">
        <ele>134</ele>
        <time>2018-08-18T14:01:27Z</time>
      </trkpt>
      <trkpt lat="48.72085" lon="1.77551">
        <ele>135</ele>
        <time>2018-08-18T14:01:32Z</time>
      </trkpt>
      <trkpt lat="48.72093" lon="1.77554">
        <ele>135</ele>
        <time>2018-08-18T14:01:36Z</time>
      </trkpt>
      <trkpt lat="48.72099" lon="1.77558">
        <ele>135</ele>
        <time>2018-08-18T14:01:40Z</time>
      </trkpt>
      <trkpt lat="48.72105" lon="1.7756">
        <ele>135</ele>
        <time>2018-08-18T14:01:44Z</time>
      </trkpt>
      <trkpt lat="48.72112" lon="1.77563">
        <ele>135</ele>
        <time>2018-08-18T14:01:48Z</time>
      </trkpt>
      <trkpt lat="48.72118" lon="1.77567">
        <ele>137</ele>
        <time>2018-08-18T14:01:53Z</time>
      </trkpt>
      <trkpt lat="48.72125" lon="1.7757">
        <ele>137</ele>
        <time>2018-08-18T14:01:57Z</time>
      </trkpt>
      <trkpt lat="48.7213" lon="1.77572">
        <ele>137</ele>
        <time>2018-08-18T14:02:01Z</time>
      </trkpt>
      <trkpt lat="48.72135" lon="1.77567">
        <ele>137</ele>
        <time>2018-08-18T14:02:05Z</time>
      </trkpt>
      <trkpt lat="48.72139" lon="1.77562">
        <ele>137</ele>
        <time>2018-08-18T14:02:09Z</time>
      </trkpt>
      <trkpt lat="48.72145" lon="1.77556">
        <ele>137</ele>
        <time>2018-08-18T14:02:13Z</time>
      </trkpt>
      <trkpt lat="48.7215" lon="1.77549">
        <ele>139</ele>
        <time>2018-08-18T14:02:17Z</time>
      </trkpt>
      <trkpt lat="48.72154" lon="1.77542">
        <ele>140</ele>
        <time>2018-08-18T14:02:21Z</time>
      </trkpt>
      <trkpt lat="48.72157" lon="1.77535">
        <ele>141</ele>
        <time>2018-08-18T14:02:25Z</time>
      </trkpt>
      <trkpt lat="48.72157" lon="1.77528">
        <ele>142</ele>
        <time>2018-08-18T14:02:29Z</time>
      </trkpt>
      <trkpt lat="48.72159" lon="1.77521">
        <ele>143</ele>
        <time>2018-08-18T14:02:33Z</time>
      </trkpt>
      <trkpt lat="48.72161" lon="1.77512">
        <ele>144</ele>
        <time>2018-08-18T14:02:37Z</time>
      </trkpt>
      <trkpt lat="48.72161" lon="1.77504">
        <ele>146</ele>
        <time>2018-08-18T14:02:41Z</time>
      </trkpt>
      <trkpt lat="48.72162" lon="1.77495">
        <ele>149</ele>
        <time>2018-08-18T14:02:45Z</time>
      </trkpt>
      <trkpt lat="48.72164" lon="1.77486">
        <ele>150</ele>
        <time>2018-08-18T14:02:49Z</time>
      </trkpt>
      <trkpt lat="48.72167" lon="1.77478">
        <ele>152</ele>
        <time>2018-08-18T14:02:54Z</time>
      </trkpt>
      <trkpt lat="48.7217" lon="1.7747">
        <ele>152</ele>
        <time>2018-08-18T14:02:58Z</time>
      </trkpt>
      <trkpt lat="48.72173" lon="1.77463">
        <ele>152</ele>
        <time>2018-08-18T14:03:02Z</time>
      </trkpt>
      <trkpt lat="48.72175" lon="1.77454">
        <ele>152</ele>
        <time>2018-08-18T14:03:07Z</time>
      </trkpt>
      <trkpt lat="48.72178" lon="1.77447">
        <ele>152</ele>
        <time>2018-08-18T14:03:11Z</time>
      </trkpt>
      <trkpt lat="48.72181" lon="1.77439">
        <ele>152</ele>
        <time>2018-08-18T14:03:16Z</time>
      </trkpt>
      <trkpt lat="48.72181" lon="1.7743">
        <ele>153</ele>
        <time>2018-08-18T14:03:20Z</time>
      </trkpt>
      <trkpt lat="48.72183" lon="1.77423">
        <ele>153</ele>
        <time>2018-08-18T14:03:24Z</time>
      </trkpt>
      <trkpt lat="48.72183" lon="1.77414">
        <ele>154</ele>
        <time>2018-08-18T14:03:28Z</time>
      </trkpt>
      <trkpt lat="48.72183" lon="1.77404">
        <ele>154</ele>
        <time>2018-08-18T14:03:32Z</time>
      </trkpt>
      <trkpt lat="48.72183" lon="1.77396">
        <ele>155</ele>
        <time>2018-08-18T14:03:36Z</time>
      </trkpt>
      <trkpt lat="48.72182" lon="1.77386">
        <ele>155</ele>
        <time>2018-08-18T14:03:40Z</time>
      </trkpt>
      <trkpt lat="48.72181" lon="1.77376">
        <ele>155</ele>
        <time>2018-08-18T14:03:44Z</time>
      </trkpt>
      <trkpt lat="48.72181" lon="1.77368">
        <ele>155</ele>
        <time>2018-08-18T14:03:48Z</time>
      </trkpt>
      <trkpt lat="48.72182" lon="1.77359">
        <ele>155</ele>
        <time>2018-08-18T14:03:52Z</time>
      </trkpt>
      <trkpt lat="48.72184" lon="1.77349">
        <ele>155</ele>
        <time>2018-08-18T14:03:56Z</time>
      </trkpt>
      <trkpt lat="48.72187" lon="1.7734">
        <ele>155</ele>
        <time>2018-08-18T14:04:00Z</time>
      </trkpt>
      <trkpt lat="48.72187" lon="1.7733">
        <ele>157</ele>
        <time>2018-08-18T14:04:04Z</time>
      </trkpt>
      <trkpt lat="48.72189" lon="1.77321">
        <ele>158</ele>
        <time>2018-08-18T14:04:08Z</time>
      </trkpt>
      <trkpt lat="48.72191" lon="1.77312">
        <ele>159</ele>
        <time>2018-08-18T14:04:12Z</time>
      </trkpt>
      <trkpt lat="48.72194" lon="1.77303">
        <ele>159</ele>
        <time>2018-08-18T14:04:16Z</time>
      </trkpt>
      <trkpt lat="48.72197" lon="1.77295">
        <ele>159</ele>
        <time>2018-08-18T14:04:20Z</time>
      </trkpt>
      <trkpt lat="48.72199" lon="1.77289">
        <ele>159</ele>
        <time>2018-08-18T14:04:24Z</time>
      </trkpt>
      <trkpt lat="48.72203" lon="1.77281">
        <ele>159</ele>
        <time>2018-08-18T14:04:28Z</time>
      </trkpt>
      <trkpt lat="48.72205" lon="1.77273">
        <ele>159</ele>
        <time>2018-08-18T14:04:32Z</time>
      </trkpt>
      <trkpt lat="48.72206" lon="1.77265">
        <ele>159</ele>
        <time>2018-08-18T14:04:36Z</time>
      </trkpt>
      <trkpt lat="48.72209" lon="1.77257">
        <ele>159</ele>
        <time>2018-08-18T14:04:40Z</time>
      </trkpt>
      <trkpt lat="48.72212" lon="1.77248">
        <ele>159</ele>
        <time>2018-08-18T14:04:44Z</time>
      </trkpt>
      <trkpt lat="48.72216" lon="1.7724">
        <ele>159</ele>
        <time>2018-08-18T14:04:48Z</time>
      </trkpt>
      <trkpt lat="48.72218" lon="1.77232">
        <ele>159</ele>
        <time>2018-08-18T14:04:52Z</time>
      </trkpt>
      <trkpt lat="48.7222" lon="1.77222">
        <ele>159</ele>
        <time>2018-08-18T14:04:56Z</time>
      </trkpt>
      <trkpt lat="48.72221" lon="1.77213">
        <ele>159</ele>
        <time>2018-08-18T14:05:00Z</time>
      </trkpt>
      <trkpt lat="48.72224" lon="1.77204">
        <ele>159</ele>
        <time>2018-08-18T14:05:04Z</time>
      </trkpt>
      <trkpt lat="48.72226" lon="1.77196">
        <ele>159</ele>
        <time>2018-08-18T14:05:08Z</time>
      </trkpt>
      <trkpt lat="48.72229" lon="1.77188">
        <ele>159</ele>
        <time>2018-08-18T14:05:12Z</time>
      </trkpt>
      <trkpt lat="48.72232" lon="1.7718">
        <ele>159</ele>
        <time>2018-08-18T14:05:16Z</time>
      </trkpt>
      <trkpt lat="48.72234" lon="1.77171">
        <ele>159</ele>
        <time>2018-08-18T14:05:20Z</time>
      </trkpt>
      <trkpt lat="48.72237" lon="1.77162">
        <ele>159</ele>
        <time>2018-08-18T14:05:24Z</time>
      </trkpt>
      <trkpt lat="48.72241" lon="1.77153">
        <ele>159</ele>
        <time>2018-08-18T14:05:29Z</time>
      </trkpt>
      <trkpt lat="48.72244" lon="1.77145">
        <ele>159</ele>
        <time>2018-08-18T14:05:33Z</time>
      </trkpt>
      <trkpt lat="48.72246" lon="1.77135">
        <ele>159</ele>
        <time>2018-08-18T14:05:37Z</time>
      </trkpt>
      <trkpt lat="48.72249" lon="1.77125">
        <ele>159</ele>
        <time>2018-08-18T14:05:41Z</time>
      </trkpt>
      <trkpt lat="48.72252" lon="1.77118">
        <ele>159</ele>
        <time>2018-08-18T14:05:45Z</time>
      </trkpt>
      <trkpt lat="48.72255" lon="1.77111">
        <ele>159</ele>
        <time>2018-08-18T14:05:49Z</time>
      </trkpt>
      <trkpt lat="48.72257" lon="1.77102">
        <ele>158</ele>
        <time>2018-08-18T14:05:53Z</time>
      </trkpt>
      <trkpt lat="48.72256" lon="1.77093">
        <ele>158</ele>
        <time>2018-08-18T14:05:57Z</time>
      </trkpt>
      <trkpt lat="48.72258" lon="1.77086">
        <ele>158</ele>
        <time>2018-08-18T14:06:01Z</time>
      </trkpt>
      <trkpt lat="48.72258" lon="1.77075">
        <ele>158</ele>
        <time>2018-08-18T14:06:06Z</time>
      </trkpt>
      <trkpt lat="48.7226" lon="1.77063">
        <ele>160</ele>
        <time>2018-08-18T14:06:10Z</time>
      </trkpt>
      <trkpt lat="48.72261" lon="1.77054">
        <ele>160</ele>
        <time>2018-08-18T14:06:14Z</time>
      </trkpt>
      <trkpt lat="48.72261" lon="1.77044">
        <ele>160</ele>
        <time>2018-08-18T14:06:18Z</time>
      </trkpt>
      <trkpt lat="48.72262" lon="1.77036">
        <ele>160</ele>
        <time>2018-08-18T14:06:22Z</time>
      </trkpt>
      <trkpt lat="48.72264" lon="1.77026">
        <ele>160</ele>
        <time>2018-08-18T14:06:26Z</time>
      </trkpt>
      <trkpt lat="48.72267" lon="1.77017">
        <ele>160</ele>
        <time>2018-08-18T14:06:30Z</time>
      </trkpt>
      <trkpt lat="48.72271" lon="1.77008">
        <ele>160</ele>
        <time>2018-08-18T14:06:34Z</time>
      </trkpt>
      <trkpt lat="48.72275" lon="1.77">
        <ele>160</ele>
        <time>2018-08-18T14:06:39Z</time>
      </trkpt>
      <trkpt lat="48.72279" lon="1.76997">
        <ele>160</ele>
        <time>2018-08-18T14:06:43Z</time>
      </trkpt>
      <trkpt lat="48.72284" lon="1.76992">
        <ele>160</ele>
        <time>2018-08-18T14:06:47Z</time>
      </trkpt>
      <trkpt lat="48.72289" lon="1.76986">
        <ele>160</ele>
        <time>2018-08-18T14:06:51Z</time>
      </trkpt>
      <trkpt lat="48.72298" lon="1.76981">
        <ele>160</ele>
        <time>2018-08-18T14:06:56Z</time>
      </trkpt>
      <trkpt lat="48.72303" lon="1.76977">
        <ele>160</ele>
        <time>2018-08-18T14:07:00Z</time>
      </trkpt>
      <trkpt lat="48.72309" lon="1.76973">
        <ele>160</ele>
        <time>2018-08-18T14:07:04Z</time>
      </trkpt>
      <trkpt lat="48.72315" lon="1.7697">
        <ele>160</ele>
        <time>2018-08-18T14:07:08Z</time>
      </trkpt>
      <trkpt lat="48.7232" lon="1.76965">
        <ele>160</ele>
        <time>2018-08-18T14:07:12Z</time>
      </trkpt>
      <trkpt lat="48.72324" lon="1.76961">
        <ele>160</ele>
        <time>2018-08-18T14:07:16Z</time>
      </trkpt>
      <trkpt lat="48.72325" lon="1.76956">
        <ele>160</ele>
        <time>2018-08-18T14:07:22Z</time>
      </trkpt>
      <trkpt lat="48.72324" lon="1.76953">
        <ele>161</ele>
        <time>2018-08-18T14:07:27Z</time>
      </trkpt>
      <trkpt lat="48.72317" lon="1.76955">
        <ele>161</ele>
        <time>2018-08-18T14:07:32Z</time>
      </trkpt>
      <trkpt lat="48.72311" lon="1.76957">
        <ele>161</ele>
        <time>2018-08-18T14:07:37Z</time>
      </trkpt>
      <trkpt lat="48.72305" lon="1.76956">
        <ele>161</ele>
        <time>2018-08-18T14:07:42Z</time>
      </trkpt>
      <trkpt lat="48.72302" lon="1.76958">
        <ele>159</ele>
        <time>2018-08-18T14:07:52Z</time>
      </trkpt>
      <trkpt lat="48.72301" lon="1.76956">
        <ele>159</ele>
        <time>2018-08-18T14:08:02Z</time>
      </trkpt>
      <trkpt lat="48.72302" lon="1.76954">
        <ele>159</ele>
        <time>2018-08-18T14:08:07Z</time>
      </trkpt>
      <trkpt lat="48.72305" lon="1.76952">
        <ele>159</ele>
        <time>2018-08-18T14:08:11Z</time>
      </trkpt>
      <trkpt lat="48.7231" lon="1.76952">
        <ele>159</ele>
        <time>2018-08-18T14:08:16Z</time>
      </trkpt>
      <trkpt lat="48.72314" lon="1.76952">
        <ele>159</ele>
        <time>2018-08-18T14:08:20Z</time>
      </trkpt>
      <trkpt lat="48.7232" lon="1.76951">
        <ele>159</ele>
        <time>2018-08-18T14:08:24Z</time>
      </trkpt>
      <trkpt lat="48.72324" lon="1.7695">
        <ele>159</ele>
        <time>2018-08-18T14:08:28Z</time>
      </trkpt>
      <trkpt lat="48.7233" lon="1.76951">
        <ele>159</ele>
        <time>2018-08-18T14:08:33Z</time>
      </trkpt>
      <trkpt lat="48.72338" lon="1.76947">
        <ele>159</ele>
        <time>2018-08-18T14:08:39Z</time>
      </trkpt>
      <trkpt lat="48.72346" lon="1.76941">
        <ele>159</ele>
        <time>2018-08-18T14:08:44Z</time>
      </trkpt>
      <trkpt lat="48.72353" lon="1.76937">
        <ele>159</ele>
        <time>2018-08-18T14:08:49Z</time>
      </trkpt>
      <trkpt lat="48.7236" lon="1.76932">
        <ele>159</ele>
        <time>2018-08-18T14:08:54Z</time>
      </trkpt>
      <trkpt lat="48.72368" lon="1.76929">
        <ele>159</ele>
        <time>2018-08-18T14:08:59Z</time>
      </trkpt>
      <trkpt lat="48.72374" lon="1.76929">
        <ele>159</ele>
        <time>2018-08-18T14:09:04Z</time>
      </trkpt>
      <trkpt lat="48.72378" lon="1.76931">
        <ele>159</ele>
        <time>2018-08-18T14:09:08Z</time>
      </trkpt>
      <trkpt lat="48.72383" lon="1.76932">
        <ele>159</ele>
        <time>2018-08-18T14:09:12Z</time>
      </trkpt>
      <trkpt lat="48.7239" lon="1.76933">
        <ele>159</ele>
        <time>2018-08-18T14:09:16Z</time>
      </trkpt>
      <trkpt lat="48.72397" lon="1.76932">
        <ele>159</ele>
        <time>2018-08-18T14:09:20Z</time>
      </trkpt>
      <trkpt lat="48.72401" lon="1.76934">
        <ele>159</ele>
        <time>2018-08-18T14:09:24Z</time>
      </trkpt>
      <trkpt lat="48.7241" lon="1.76935">
        <ele>158</ele>
        <time>2018-08-18T14:09:29Z</time>
      </trkpt>
      <trkpt lat="48.72417" lon="1.76937">
        <ele>158</ele>
        <time>2018-08-18T14:09:35Z</time>
      </trkpt>
      <trkpt lat="48.72423" lon="1.76938">
        <ele>158</ele>
        <time>2018-08-18T14:09:39Z</time>
      </trkpt>
      <trkpt lat="48.7243" lon="1.7694">
        <ele>158</ele>
        <time>2018-08-18T14:09:44Z</time>
      </trkpt>
      <trkpt lat="48.72435" lon="1.76941">
        <ele>158</ele>
        <time>2018-08-18T14:09:48Z</time>
      </trkpt>
      <trkpt lat="48.72442" lon="1.76941">
        <ele>158</ele>
        <time>2018-08-18T14:09:52Z</time>
      </trkpt>
      <trkpt lat="48.72448" lon="1.7694">
        <ele>158</ele>
        <time>2018-08-18T14:09:56Z</time>
      </trkpt>
      <trkpt lat="48.72455" lon="1.76942">
        <ele>158</ele>
        <time>2018-08-18T14:10:01Z</time>
      </trkpt>
      <trkpt lat="48.72461" lon="1.76948">
        <ele>158</ele>
        <time>2018-08-18T14:10:06Z</time>
      </trkpt>
      <trkpt lat="48.72467" lon="1.76953">
        <ele>158</ele>
        <time>2018-08-18T14:10:11Z</time>
      </trkpt>
      <trkpt lat="48.72474" lon="1.76958">
        <ele>158</ele>
        <time>2018-08-18T14:10:16Z</time>
      </trkpt>
      <trkpt lat="48.7248" lon="1.76964">
        <ele>158</ele>
        <time>2018-08-18T14:10:21Z</time>
      </trkpt>
      <trkpt lat="48.72488" lon="1.76969">
        <ele>158</ele>
        <time>2018-08-18T14:10:27Z</time>
      </trkpt>
      <trkpt lat="48.72494" lon="1.76971">
        <ele>158</ele>
        <time>2018-08-18T14:10:31Z</time>
      </trkpt>
      <trkpt lat="48.725" lon="1.76976">
        <ele>158</ele>
        <time>2018-08-18T14:10:35Z</time>
      </trkpt>
      <trkpt lat="48.72506" lon="1.76976">
        <ele>158</ele>
        <time>2018-08-18T14:10:40Z</time>
      </trkpt>
      <trkpt lat="48.72506" lon="1.7697">
        <ele>158</ele>
        <time>2018-08-18T14:10:45Z</time>
      </trkpt>
      <trkpt lat="48.72503" lon="1.76965">
        <ele>158</ele>
        <time>2018-08-18T14:10:49Z</time>
      </trkpt>
      <trkpt lat="48.72498" lon="1.76962">
        <ele>161</ele>
        <time>2018-08-18T14:10:54Z</time>
      </trkpt>
      <trkpt lat="48.72494" lon="1.76956">
        <ele>163</ele>
        <time>2018-08-18T14:10:58Z</time>
      </trkpt>
      <trkpt lat="48.72493" lon="1.76948">
        <ele>163</ele>
        <time>2018-08-18T14:11:02Z</time>
      </trkpt>
      <trkpt lat="48.72491" lon="1.76941">
        <ele>163</ele>
        <time>2018-08-18T14:11:06Z</time>
      </trkpt>
      <trkpt lat="48.72489" lon="1.76933">
        <ele>163</ele>
        <time>2018-08-18T14:11:10Z</time>
      </trkpt>
      <trkpt lat="48.72491" lon="1.76924">
        <ele>163</ele>
        <time>2018-08-18T14:11:14Z</time>
      </trkpt>
      <trkpt lat="48.72493" lon="1.7691">
        <ele>163</ele>
        <time>2018-08-18T14:11:19Z</time>
      </trkpt>
      <trkpt lat="48.72498" lon="1.76902">
        <ele>161</ele>
        <time>2018-08-18T14:11:24Z</time>
      </trkpt>
      <trkpt lat="48.72503" lon="1.76893">
        <ele>158</ele>
        <time>2018-08-18T14:11:29Z</time>
      </trkpt>
      <trkpt lat="48.72506" lon="1.76883">
        <ele>155</ele>
        <time>2018-08-18T14:11:34Z</time>
      </trkpt>
      <trkpt lat="48.72508" lon="1.76876">
        <ele>153</ele>
        <time>2018-08-18T14:11:38Z</time>
      </trkpt>
      <trkpt lat="48.72508" lon="1.76868">
        <ele>151</ele>
        <time>2018-08-18T14:11:42Z</time>
      </trkpt>
      <trkpt lat="48.72507" lon="1.76861">
        <ele>150</ele>
        <time>2018-08-18T14:11:46Z</time>
      </trkpt>
      <trkpt lat="48.72505" lon="1.76854">
        <ele>149</ele>
        <time>2018-08-18T14:11:50Z</time>
      </trkpt>
      <trkpt lat="48.72504" lon="1.76844">
        <ele>149</ele>
        <time>2018-08-18T14:11:54Z</time>
      </trkpt>
      <trkpt lat="48.72501" lon="1.7683">
        <ele>149</ele>
        <time>2018-08-18T14:11:59Z</time>
      </trkpt>
      <trkpt lat="48.72498" lon="1.76819">
        <ele>149</ele>
        <time>2018-08-18T14:12:04Z</time>
      </trkpt>
      <trkpt lat="48.72496" lon="1.76809">
        <ele>149</ele>
        <time>2018-08-18T14:12:09Z</time>
      </trkpt>
      <trkpt lat="48.72494" lon="1.768">
        <ele>149</ele>
        <time>2018-08-18T14:12:14Z</time>
      </trkpt>
      <trkpt lat="48.72492" lon="1.76792">
        <ele>149</ele>
        <time>2018-08-18T14:12:18Z</time>
      </trkpt>
      <trkpt lat="48.7249" lon="1.76784">
        <ele>149</ele>
        <time>2018-08-18T14:12:22Z</time>
      </trkpt>
      <trkpt lat="48.72488" lon="1.76776">
        <ele>149</ele>
        <time>2018-08-18T14:12:26Z</time>
      </trkpt>
      <trkpt lat="48.72487" lon="1.76768">
        <ele>149</ele>
        <time>2018-08-18T14:12:30Z</time>
      </trkpt>
      <trkpt lat="48.72485" lon="1.76761">
        <ele>149</ele>
        <time>2018-08-18T14:12:34Z</time>
      </trkpt>
      <trkpt lat="48.72483" lon="1.76754">
        <ele>149</ele>
        <time>2018-08-18T14:12:38Z</time>
      </trkpt>
      <trkpt lat="48.7248" lon="1.76747">
        <ele>149</ele>
        <time>2018-08-18T14:12:42Z</time>
      </trkpt>
      <trkpt lat="48.72478" lon="1.76739">
        <ele>149</ele>
        <time>2018-08-18T14:12:46Z</time>
      </trkpt>
      <trkpt lat="48.72476" lon="1.76732">
        <ele>148</ele>
        <time>2018-08-18T14:12:50Z</time>
      </trkpt>
      <trkpt lat="48.72474" lon="1.76724">
        <ele>148</ele>
        <time>2018-08-18T14:12:54Z</time>
      </trkpt>
      <trkpt lat="48.72473" lon="1.76716">
        <ele>147</ele>
        <time>2018-08-18T14:12:58Z</time>
      </trkpt>
      <trkpt lat="48.72472" lon="1.76708">
        <ele>147</ele>
        <time>2018-08-18T14:13:02Z</time>
      </trkpt>
      <trkpt lat="48.72471" lon="1.767">
        <ele>146</ele>
        <time>2018-08-18T14:13:06Z</time>
      </trkpt>
      <trkpt lat="48.72471" lon="1.76692">
        <ele>146</ele>
        <time>2018-08-18T14:13:10Z</time>
      </trkpt>
      <trkpt lat="48.7247" lon="1.76684">
        <ele>146</ele>
        <time>2018-08-18T14:13:14Z</time>
      </trkpt>
      <trkpt lat="48.72469" lon="1.76676">
        <ele>146</ele>
        <time>2018-08-18T14:13:18Z</time>
      </trkpt>
      <trkpt lat="48.72467" lon="1.76667">
        <ele>146</ele>
        <time>2018-08-18T14:13:22Z</time>
      </trkpt>
      <trkpt lat="48.72465" lon="1.76658">
        <ele>145</ele>
        <time>2018-08-18T14:13:26Z</time>
      </trkpt>
      <trkpt lat="48.72463" lon="1.76652">
        <ele>145</ele>
        <time>2018-08-18T14:13:35Z</time>
      </trkpt>
      <trkpt lat="48.72461" lon="1.76652">
        <ele>145</ele>
        <time>2018-08-18T14:13:40Z</time>
      </trkpt>
      <trkpt lat="48.72455" lon="1.76649">
        <ele>145</ele>
        <time>2018-08-18T14:13:44Z</time>
      </trkpt>
      <trkpt lat="48.7245" lon="1.76651">
        <ele>144</ele>
        <time>2018-08-18T14:13:48Z</time>
      </trkpt>
      <trkpt lat="48.72445" lon="1.76653">
        <ele>144</ele>
        <time>2018-08-18T14:13:52Z</time>
      </trkpt>
      <trkpt lat="48.72439" lon="1.76651">
        <ele>143</ele>
        <time>2018-08-18T14:13:57Z</time>
      </trkpt>
      <trkpt lat="48.72437" lon="1.76643">
        <ele>142</ele>
        <time>2018-08-18T14:14:01Z</time>
      </trkpt>
      <trkpt lat="48.72436" lon="1.76636">
        <ele>142</ele>
        <time>2018-08-18T14:14:05Z</time>
      </trkpt>
      <trkpt lat="48.72435" lon="1.76629">
        <ele>141</ele>
        <time>2018-08-18T14:14:09Z</time>
      </trkpt>
      <trkpt lat="48.72434" lon="1.76621">
        <ele>140</ele>
        <time>2018-08-18T14:14:13Z</time>
      </trkpt>
      <trkpt lat="48.72433" lon="1.76613">
        <ele>139</ele>
        <time>2018-08-18T14:14:17Z</time>
      </trkpt>
      <trkpt lat="48.72433" lon="1.76605">
        <ele>139</ele>
        <time>2018-08-18T14:14:21Z</time>
      </trkpt>
      <trkpt lat="48.72432" lon="1.76597">
        <ele>139</ele>
        <time>2018-08-18T14:14:25Z</time>
      </trkpt>
      <trkpt lat="48.72432" lon="1.76588">
        <ele>138</ele>
        <time>2018-08-18T14:14:29Z</time>
      </trkpt>
      <trkpt lat="48.72432" lon="1.76579">
        <ele>138</ele>
        <time>2018-08-18T14:14:33Z</time>
      </trkpt>
      <trkpt lat="48.72431" lon="1.76571">
        <ele>138</ele>
        <time>2018-08-18T14:14:37Z</time>
      </trkpt>
      <trkpt lat="48.72431" lon="1.76562">
        <ele>137</ele>
        <time>2018-08-18T14:14:41Z</time>
      </trkpt>
      <trkpt lat="48.72431" lon="1.76554">
        <ele>137</ele>
        <time>2018-08-18T14:14:45Z</time>
      </trkpt>
      <trkpt lat="48.7243" lon="1.76545">
        <ele>137</ele>
        <time>2018-08-18T14:14:49Z</time>
      </trkpt>
      <trkpt lat="48.72431" lon="1.76536">
        <ele>137</ele>
        <time>2018-08-18T14:14:53Z</time>
      </trkpt>
      <trkpt lat="48.72431" lon="1.76528">
        <ele>137</ele>
        <time>2018-08-18T14:14:57Z</time>
      </trkpt>
      <trkpt lat="48.72432" lon="1.76519">
        <ele>136</ele>
        <time>2018-08-18T14:15:01Z</time>
      </trkpt>
      <trkpt lat="48.72431" lon="1.7651">
        <ele>135</ele>
        <time>2018-08-18T14:15:05Z</time>
      </trkpt>
      <trkpt lat="48.72431" lon="1.76499">
        <ele>135</ele>
        <time>2018-08-18T14:15:10Z</time>
      </trkpt>
      <trkpt lat="48.72431" lon="1.76489">
        <ele>135</ele>
        <time>2018-08-18T14:15:14Z</time>
      </trkpt>
      <trkpt lat="48.72431" lon="1.7648">
        <ele>135</ele>
        <time>2018-08-18T14:15:18Z</time>
      </trkpt>
      <trkpt lat="48.72431" lon="1.7647">
        <ele>134</ele>
        <time>2018-08-18T14:15:22Z</time>
      </trkpt>
      <trkpt lat="48.72431" lon="1.76459">
        <ele>134</ele>
        <time>2018-08-18T14:15:26Z</time>
      </trkpt>
      <trkpt lat="48.7243" lon="1.7645">
        <ele>134</ele>
        <time>2018-08-18T14:15:30Z</time>
      </trkpt>
      <trkpt lat="48.7243" lon="1.76441">
        <ele>134</ele>
        <time>2018-08-18T14:15:34Z</time>
      </trkpt>
      <trkpt lat="48.7243" lon="1.76434">
        <ele>134</ele>
        <time>2018-08-18T14:15:38Z</time>
      </trkpt>
      <trkpt lat="48.72429" lon="1.76425">
        <ele>133</ele>
        <time>2018-08-18T14:15:42Z</time>
      </trkpt>
      <trkpt lat="48.72429" lon="1.76416">
        <ele>133</ele>
        <time>2018-08-18T14:15:46Z</time>
      </trkpt>
      <trkpt lat="48.72429" lon="1.76407">
        <ele>132</ele>
        <time>2018-08-18T14:15:50Z</time>
      </trkpt>
      <trkpt lat="48.72429" lon="1.76397">
        <ele>132</ele>
        <time>2018-08-18T14:15:54Z</time>
      </trkpt>
      <trkpt lat="48.7243" lon="1.76388">
        <ele>132</ele>
        <time>2018-08-18T14:15:58Z</time>
      </trkpt>
      <trkpt lat="48.7243" lon="1.76379">
        <ele>132</ele>
        <time>2018-08-18T14:16:02Z</time>
      </trkpt>
      <trkpt lat="48.7243" lon="1.76369">
        <ele>132</ele>
        <time>2018-08-18T14:16:06Z</time>
      </trkpt>
      <trkpt lat="48.72432" lon="1.7636">
        <ele>132</ele>
        <time>2018-08-18T14:16:10Z</time>
      </trkpt>
      <trkpt lat="48.72433" lon="1.7635">
        <ele>132</ele>
        <time>2018-08-18T14:16:14Z</time>
      </trkpt>
      <trkpt lat="48.72436" lon="1.76342">
        <ele>131</ele>
        <time>2018-08-18T14:16:18Z</time>
      </trkpt>
      <trkpt lat="48.72439" lon="1.76334">
        <ele>130</ele>
        <time>2018-08-18T14:16:22Z</time>
      </trkpt>
      <trkpt lat="48.72442" lon="1.76326">
        <ele>130</ele>
        <time>2018-08-18T14:16:26Z</time>
      </trkpt>
      <trkpt lat="48.72447" lon="1.76319">
        <ele>130</ele>
        <time>2018-08-18T14:16:30Z</time>
      </trkpt>
      <trkpt lat="48.72451" lon="1.76311">
        <ele>130</ele>
        <time>2018-08-18T14:16:34Z</time>
      </trkpt>
      <trkpt lat="48.72455" lon="1.76304">
        <ele>130</ele>
        <time>2018-08-18T14:16:38Z</time>
      </trkpt>
      <trkpt lat="48.72459" lon="1.76298">
        <ele>130</ele>
        <time>2018-08-18T14:16:42Z</time>
      </trkpt>
      <trkpt lat="48.72464" lon="1.76293">
        <ele>130</ele>
        <time>2018-08-18T14:16:46Z</time>
      </trkpt>
      <trkpt lat="48.72469" lon="1.76288">
        <ele>130</ele>
        <time>2018-08-18T14:16:50Z</time>
      </trkpt>
      <trkpt lat="48.72474" lon="1.76283">
        <ele>130</ele>
        <time>2018-08-18T14:16:54Z</time>
      </trkpt>
      <trkpt lat="48.7248" lon="1.76278">
        <ele>130</ele>
        <time>2018-08-18T14:16:58Z</time>
      </trkpt>
      <trkpt lat="48.72485" lon="1.76273">
        <ele>130</ele>
        <time>2018-08-18T14:17:02Z</time>
      </trkpt>
      <trkpt lat="48.72491" lon="1.76267">
        <ele>130</ele>
        <time>2018-08-18T14:17:06Z</time>
      </trkpt>
      <trkpt lat="48.72496" lon="1.76262">
        <ele>130</ele>
        <time>2018-08-18T14:17:10Z</time>
      </trkpt>
      <trkpt lat="48.72502" lon="1.76258">
        <ele>130</ele>
        <time>2018-08-18T14:17:14Z</time>
      </trkpt>
      <trkpt lat="48.72508" lon="1.76257">
        <ele>130</ele>
        <time>2018-08-18T14:17:18Z</time>
      </trkpt>
      <trkpt lat="48.72512" lon="1.76257">
        <ele>130</ele>
        <time>2018-08-18T14:17:46Z</time>
      </trkpt>
      <trkpt lat="48.72516" lon="1.76257">
        <ele>130</ele>
        <time>2018-08-18T14:17:50Z</time>
      </trkpt>
      <trkpt lat="48.72521" lon="1.76259">
        <ele>130</ele>
        <time>2018-08-18T14:17:54Z</time>
      </trkpt>
      <trkpt lat="48.72525" lon="1.7626">
        <ele>130</ele>
        <time>2018-08-18T14:17:58Z</time>
      </trkpt>
      <trkpt lat="48.7253" lon="1.76262">
        <ele>130</ele>
        <time>2018-08-18T14:18:02Z</time>
      </trkpt>
      <trkpt lat="48.72535" lon="1.76264">
        <ele>130</ele>
        <time>2018-08-18T14:18:06Z</time>
      </trkpt>
      <trkpt lat="48.7254" lon="1.76265">
        <ele>130</ele>
        <time>2018-08-18T14:18:11Z</time>
      </trkpt>
      <trkpt lat="48.72545" lon="1.76266">
        <ele>130</ele>
        <time>2018-08-18T14:18:15Z</time>
      </trkpt>
      <trkpt lat="48.72549" lon="1.76267">
        <ele>130</ele>
        <time>2018-08-18T14:18:19Z</time>
      </trkpt>
      <trkpt lat="48.72553" lon="1.7627">
        <ele>130</ele>
        <time>2018-08-18T14:18:23Z</time>
      </trkpt>
      <trkpt lat="48.72557" lon="1.76271">
        <ele>130</ele>
        <time>2018-08-18T14:18:27Z</time>
      </trkpt>
      <trkpt lat="48.72562" lon="1.76272">
        <ele>130</ele>
        <time>2018-08-18T14:18:31Z</time>
      </trkpt>
      <trkpt lat="48.72567" lon="1.76274">
        <ele>130</ele>
        <time>2018-08-18T14:18:35Z</time>
      </trkpt>
      <trkpt lat="48.72572" lon="1.76276">
        <ele>130</ele>
        <time>2018-08-18T14:18:39Z</time>
      </trkpt>
      <trkpt lat="48.72577" lon="1.76278">
        <ele>130</ele>
        <time>2018-08-18T14:18:43Z</time>
      </trkpt>
      <trkpt lat="48.72581" lon="1.76281">
        <ele>130</ele>
        <time>2018-08-18T14:18:47Z</time>
      </trkpt>
      <trkpt lat="48.72587" lon="1.76283">
        <ele>130</ele>
        <time>2018-08-18T14:18:51Z</time>
      </trkpt>
      <trkpt lat="48.72593" lon="1.76286">
        <ele>130</ele>
        <time>2018-08-18T14:18:55Z</time>
      </trkpt>
      <trkpt lat="48.72598" lon="1.76287">
        <ele>130</ele>
        <time>2018-08-18T14:18:59Z</time>
      </trkpt>
      <trkpt lat="48.72604" lon="1.76287">
        <ele>130</ele>
        <time>2018-08-18T14:19:03Z</time>
      </trkpt>
      <trkpt lat="48.72609" lon="1.76288">
        <ele>130</ele>
        <time>2018-08-18T14:19:07Z</time>
      </trkpt>
      <trkpt lat="48.72616" lon="1.76287">
        <ele>132</ele>
        <time>2018-08-18T14:19:11Z</time>
      </trkpt>
      <trkpt lat="48.72623" lon="1.76288">
        <ele>133</ele>
        <time>2018-08-18T14:19:16Z</time>
      </trkpt>
      <trkpt lat="48.72628" lon="1.76287">
        <ele>133</ele>
        <time>2018-08-18T14:19:21Z</time>
      </trkpt>
      <trkpt lat="48.72633" lon="1.76288">
        <ele>133</ele>
        <time>2018-08-18T14:19:25Z</time>
      </trkpt>
      <trkpt lat="48.72638" lon="1.76287">
        <ele>133</ele>
        <time>2018-08-18T14:19:29Z</time>
      </trkpt>
      <trkpt lat="48.72644" lon="1.76287">
        <ele>133</ele>
        <time>2018-08-18T14:19:33Z</time>
      </trkpt>
      <trkpt lat="48.7265" lon="1.76287">
        <ele>133</ele>
        <time>2018-08-18T14:19:37Z</time>
      </trkpt>
      <trkpt lat="48.72656" lon="1.76286">
        <ele>133</ele>
        <time>2018-08-18T14:19:41Z</time>
      </trkpt>
      <trkpt lat="48.7266" lon="1.76286">
        <ele>133</ele>
        <time>2018-08-18T14:19:45Z</time>
      </trkpt>
      <trkpt lat="48.72665" lon="1.76286">
        <ele>133</ele>
        <time>2018-08-18T14:19:49Z</time>
      </trkpt>
      <trkpt lat="48.72673" lon="1.76287">
        <ele>133</ele>
        <time>2018-08-18T14:19:53Z</time>
      </trkpt>
      <trkpt lat="48.72678" lon="1.76287">
        <ele>133</ele>
        <time>2018-08-18T14:19:57Z</time>
      </trkpt>
      <trkpt lat="48.72684" lon="1.76287">
        <ele>133</ele>
        <time>2018-08-18T14:20:01Z</time>
      </trkpt>
      <trkpt lat="48.7269" lon="1.76284">
        <ele>133</ele>
        <time>2018-08-18T14:20:06Z</time>
      </trkpt>
      <trkpt lat="48.72695" lon="1.76281">
        <ele>135</ele>
        <time>2018-08-18T14:20:10Z</time>
      </trkpt>
      <trkpt lat="48.72701" lon="1.76279">
        <ele>138</ele>
        <time>2018-08-18T14:20:14Z</time>
      </trkpt>
      <trkpt lat="48.72707" lon="1.76276">
        <ele>141</ele>
        <time>2018-08-18T14:20:18Z</time>
      </trkpt>
      <trkpt lat="48.72712" lon="1.76273">
        <ele>144</ele>
        <time>2018-08-18T14:20:23Z</time>
      </trkpt>
      <trkpt lat="48.72718" lon="1.76268">
        <ele>146</ele>
        <time>2018-08-18T14:20:28Z</time>
      </trkpt>
      <trkpt lat="48.72723" lon="1.76265">
        <ele>148</ele>
        <time>2018-08-18T14:20:32Z</time>
      </trkpt>
      <trkpt lat="48.72729" lon="1.76264">
        <ele>150</ele>
        <time>2018-08-18T14:20:36Z</time>
      </trkpt>
      <trkpt lat="48.72736" lon="1.76263">
        <ele>151</ele>
        <time>2018-08-18T14:20:40Z</time>
      </trkpt>
      <trkpt lat="48.72741" lon="1.76262">
        <ele>151</ele>
        <time>2018-08-18T14:20:44Z</time>
      </trkpt>
      <trkpt lat="48.72746" lon="1.76259">
        <ele>151</ele>
        <time>2018-08-18T14:20:48Z</time>
      </trkpt>
      <trkpt lat="48.72752" lon="1.76257">
        <ele>151</ele>
        <time>2018-08-18T14:20:53Z</time>
      </trkpt>
      <trkpt lat="48.72757" lon="1.76251">
        <ele>149</ele>
        <time>2018-08-18T14:20:57Z</time>
      </trkpt>
      <trkpt lat="48.72761" lon="1.76245">
        <ele>148</ele>
        <time>2018-08-18T14:21:01Z</time>
      </trkpt>
      <trkpt lat="48.72765" lon="1.76238">
        <ele>148</ele>
        <time>2018-08-18T14:21:05Z</time>
      </trkpt>
      <trkpt lat="48.7277" lon="1.76233">
        <ele>148</ele>
        <time>2018-08-18T14:21:09Z</time>
      </trkpt>
      <trkpt lat="48.72774" lon="1.76227">
        <ele>148</ele>
        <time>2018-08-18T14:21:13Z</time>
      </trkpt>
      <trkpt lat="48.72779" lon="1.76222">
        <ele>148</ele>
        <time>2018-08-18T14:21:17Z</time>
      </trkpt>
      <trkpt lat="48.72783" lon="1.76215">
        <ele>148</ele>
        <time>2018-08-18T14:21:21Z</time>
      </trkpt>
      <trkpt lat="48.72788" lon="1.76209">
        <ele>147</ele>
        <time>2018-08-18T14:21:25Z</time>
      </trkpt>
      <trkpt lat="48.72792" lon="1.76201">
        <ele>145</ele>
        <time>2018-08-18T14:21:30Z</time>
      </trkpt>
      <trkpt lat="48.72796" lon="1.76194">
        <ele>143</ele>
        <time>2018-08-18T14:21:34Z</time>
      </trkpt>
      <trkpt lat="48.72799" lon="1.76186">
        <ele>142</ele>
        <time>2018-08-18T14:21:38Z</time>
      </trkpt>
      <trkpt lat="48.72803" lon="1.76179">
        <ele>142</ele>
        <time>2018-08-18T14:21:42Z</time>
      </trkpt>
      <trkpt lat="48.72807" lon="1.76171">
        <ele>142</ele>
        <time>2018-08-18T14:21:46Z</time>
      </trkpt>
      <trkpt lat="48.72811" lon="1.76164">
        <ele>142</ele>
        <time>2018-08-18T14:21:50Z</time>
      </trkpt>
      <trkpt lat="48.72815" lon="1.76158">
        <ele>142</ele>
        <time>2018-08-18T14:21:54Z</time>
      </trkpt>
      <trkpt lat="48.72818" lon="1.76153">
        <ele>142</ele>
        <time>2018-08-18T14:21:58Z</time>
      </trkpt>
      <trkpt lat="48.72823" lon="1.76148">
        <ele>142</ele>
        <time>2018-08-18T14:22:02Z</time>
      </trkpt>
      <trkpt lat="48.72826" lon="1.76144">
        <ele>142</ele>
        <time>2018-08-18T14:22:06Z</time>
      </trkpt>
      <trkpt lat="48.72831" lon="1.76138">
        <ele>142</ele>
        <time>2018-08-18T14:22:10Z</time>
      </trkpt>
      <trkpt lat="48.72835" lon="1.76132">
        <ele>142</ele>
        <time>2018-08-18T14:22:14Z</time>
      </trkpt>
      <trkpt lat="48.7284" lon="1.76129">
        <ele>142</ele>
        <time>2018-08-18T14:22:18Z</time>
      </trkpt>
      <trkpt lat="48.72845" lon="1.76125">
        <ele>142</ele>
        <time>2018-08-18T14:22:22Z</time>
      </trkpt>
      <trkpt lat="48.7285" lon="1.76121">
        <ele>142</ele>
        <time>2018-08-18T14:22:26Z</time>
      </trkpt>
      <trkpt lat="48.72855" lon="1.76117">
        <ele>142</ele>
        <time>2018-08-18T14:22:30Z</time>
      </trkpt>
      <trkpt lat="48.7286" lon="1.76114">
        <ele>142</ele>
        <time>2018-08-18T14:22:34Z</time>
      </trkpt>
      <trkpt lat="48.72865" lon="1.7611">
        <ele>142</ele>
        <time>2018-08-18T14:22:38Z</time>
      </trkpt>
      <trkpt lat="48.7287" lon="1.76107">
        <ele>142</ele>
        <time>2018-08-18T14:22:42Z</time>
      </trkpt>
      <trkpt lat="48.72875" lon="1.76102">
        <ele>142</ele>
        <time>2018-08-18T14:22:46Z</time>
      </trkpt>
      <trkpt lat="48.72879" lon="1.76099">
        <ele>142</ele>
        <time>2018-08-18T14:22:50Z</time>
      </trkpt>
      <trkpt lat="48.72884" lon="1.76094">
        <ele>142</ele>
        <time>2018-08-18T14:22:54Z</time>
      </trkpt>
      <trkpt lat="48.72889" lon="1.76091">
        <ele>142</ele>
        <time>2018-08-18T14:22:58Z</time>
      </trkpt>
      <trkpt lat="48.72894" lon="1.76087">
        <ele>143</ele>
        <time>2018-08-18T14:23:02Z</time>
      </trkpt>
      <trkpt lat="48.72899" lon="1.76083">
        <ele>143</ele>
        <time>2018-08-18T14:23:06Z</time>
      </trkpt>
      <trkpt lat="48.72903" lon="1.76079">
        <ele>144</ele>
        <time>2018-08-18T14:23:10Z</time>
      </trkpt>
      <trkpt lat="48.72909" lon="1.76074">
        <ele>144</ele>
        <time>2018-08-18T14:23:15Z</time>
      </trkpt>
      <trkpt lat="48.72914" lon="1.76069">
        <ele>144</ele>
        <time>2018-08-18T14:23:19Z</time>
      </trkpt>
      <trkpt lat="48.72919" lon="1.76064">
        <ele>145</ele>
        <time>2018-08-18T14:23:24Z</time>
      </trkpt>
      <trkpt lat="48.72924" lon="1.76061">
        <ele>145</ele>
        <time>2018-08-18T14:23:28Z</time>
      </trkpt>
      <trkpt lat="48.72928" lon="1.76056">
        <ele>146</ele>
        <time>2018-08-18T14:23:32Z</time>
      </trkpt>
      <trkpt lat="48.72932" lon="1.76053">
        <ele>148</ele>
        <time>2018-08-18T14:23:36Z</time>
      </trkpt>
      <trkpt lat="48.72937" lon="1.76048">
        <ele>149</ele>
        <time>2018-08-18T14:23:41Z</time>
      </trkpt>
      <trkpt lat="48.72943" lon="1.76045">
        <ele>150</ele>
        <time>2018-08-18T14:23:45Z</time>
      </trkpt>
      <trkpt lat="48.72949" lon="1.76041">
        <ele>151</ele>
        <time>2018-08-18T14:23:49Z</time>
      </trkpt>
      <trkpt lat="48.72955" lon="1.76036">
        <ele>154</ele>
        <time>2018-08-18T14:23:55Z</time>
      </trkpt>
      <trkpt lat="48.72958" lon="1.76032">
        <ele>154</ele>
        <time>2018-08-18T14:24:00Z</time>
      </trkpt>
      <trkpt lat="48.72961" lon="1.76029">
        <ele>154</ele>
        <time>2018-08-18T14:24:04Z</time>
      </trkpt>
      <trkpt lat="48.72963" lon="1.76026">
        <ele>154</ele>
        <time>2018-08-18T14:24:08Z</time>
      </trkpt>
      <trkpt lat="48.72965" lon="1.7602">
        <ele>154</ele>
        <time>2018-08-18T14:24:12Z</time>
      </trkpt>
      <trkpt lat="48.72968" lon="1.76018">
        <ele>155</ele>
        <time>2018-08-18T14:24:16Z</time>
      </trkpt>
      <trkpt lat="48.72971" lon="1.76016">
        <ele>155</ele>
        <time>2018-08-18T14:24:20Z</time>
      </trkpt>
      <trkpt lat="48.72973" lon="1.76012">
        <ele>155</ele>
        <time>2018-08-18T14:24:24Z</time>
      </trkpt>
      <trkpt lat="48.72978" lon="1.76006">
        <ele>156</ele>
        <time>2018-08-18T14:24:29Z</time>
      </trkpt>
      <trkpt lat="48.72982" lon="1.76003">
        <ele>157</ele>
        <time>2018-08-18T14:24:33Z</time>
      </trkpt>
      <trkpt lat="48.72987" lon="1.75999">
        <ele>158</ele>
        <time>2018-08-18T14:24:37Z</time>
      </trkpt>
      <trkpt lat="48.72992" lon="1.75994">
        <ele>159</ele>
        <time>2018-08-18T14:24:41Z</time>
      </trkpt>
      <trkpt lat="48.72996" lon="1.7599">
        <ele>160</ele>
        <time>2018-08-18T14:24:45Z</time>
      </trkpt>
      <trkpt lat="48.73001" lon="1.75987">
        <ele>161</ele>
        <time>2018-08-18T14:24:49Z</time>
      </trkpt>
      <trkpt lat="48.73005" lon="1.75984">
        <ele>162</ele>
        <time>2018-08-18T14:24:53Z</time>
      </trkpt>
      <trkpt lat="48.73006" lon="1.75981">
        <ele>164</ele>
        <time>2018-08-18T14:25:13Z</time>
      </trkpt>
      <trkpt lat="48.73006" lon="1.75977">
        <ele>164</ele>
        <time>2018-08-18T14:25:18Z</time>
      </trkpt>
      <trkpt lat="48.73008" lon="1.75976">
        <ele>164</ele>
        <time>2018-08-18T14:25:24Z</time>
      </trkpt>
      <trkpt lat="48.73013" lon="1.75975">
        <ele>164</ele>
        <time>2018-08-18T14:25:28Z</time>
      </trkpt>
      <trkpt lat="48.73018" lon="1.75971">
        <ele>165</ele>
        <time>2018-08-18T14:25:33Z</time>
      </trkpt>
      <trkpt lat="48.73021" lon="1.75967">
        <ele>165</ele>
        <time>2018-08-18T14:25:38Z</time>
      </trkpt>
      <trkpt lat="48.73025" lon="1.75964">
        <ele>165</ele>
        <time>2018-08-18T14:25:43Z</time>
      </trkpt>
      <trkpt lat="48.73027" lon="1.75959">
        <ele>165</ele>
        <time>2018-08-18T14:25:47Z</time>
      </trkpt>
      <trkpt lat="48.73032" lon="1.75956">
        <ele>165</ele>
        <time>2018-08-18T14:25:51Z</time>
      </trkpt>
      <trkpt lat="48.73035" lon="1.75953">
        <ele>166</ele>
        <time>2018-08-18T14:25:55Z</time>
      </trkpt>
      <trkpt lat="48.73042" lon="1.75951">
        <ele>166</ele>
        <time>2018-08-18T14:26:00Z</time>
      </trkpt>
      <trkpt lat="48.73047" lon="1.75946">
        <ele>166</ele>
        <time>2018-08-18T14:26:04Z</time>
      </trkpt>
      <trkpt lat="48.73052" lon="1.75941">
        <ele>166</ele>
        <time>2018-08-18T14:26:09Z</time>
      </trkpt>
      <trkpt lat="48.73058" lon="1.75938">
        <ele>166</ele>
        <time>2018-08-18T14:26:14Z</time>
      </trkpt>
      <trkpt lat="48.73062" lon="1.75934">
        <ele>168</ele>
        <time>2018-08-18T14:26:19Z</time>
      </trkpt>
      <trkpt lat="48.73066" lon="1.7593">
        <ele>168</ele>
        <time>2018-08-18T14:26:23Z</time>
      </trkpt>
      <trkpt lat="48.73068" lon="1.75926">
        <ele>168</ele>
        <time>2018-08-18T14:26:27Z</time>
      </trkpt>
      <trkpt lat="48.73072" lon="1.75924">
        <ele>168</ele>
        <time>2018-08-18T14:26:31Z</time>
      </trkpt>
      <trkpt lat="48.73075" lon="1.75922">
        <ele>168</ele>
        <time>2018-08-18T14:26:35Z</time>
      </trkpt>
      <trkpt lat="48.73079" lon="1.75918">
        <ele>168</ele>
        <time>2018-08-18T14:26:39Z</time>
      </trkpt>
      <trkpt lat="48.73085" lon="1.75916">
        <ele>169</ele>
        <time>2018-08-18T14:26:43Z</time>
      </trkpt>
      <trkpt lat="48.73088" lon="1.75912">
        <ele>170</ele>
        <time>2018-08-18T14:26:47Z</time>
      </trkpt>
      <trkpt lat="48.73092" lon="1.75909">
        <ele>170</ele>
        <time>2018-08-18T14:26:51Z</time>
      </trkpt>
      <trkpt lat="48.73097" lon="1.75905">
        <ele>170</ele>
        <time>2018-08-18T14:26:55Z</time>
      </trkpt>
      <trkpt lat="48.73102" lon="1.75902">
        <ele>170</ele>
        <time>2018-08-18T14:26:59Z</time>
      </trkpt>
      <trkpt lat="48.73106" lon="1.759">
        <ele>170</ele>
        <time>2018-08-18T14:27:03Z</time>
      </trkpt>
      <trkpt lat="48.73111" lon="1.75896">
        <ele>170</ele>
        <time>2018-08-18T14:27:07Z</time>
      </trkpt>
      <trkpt lat="48.73115" lon="1.75891">
        <ele>170</ele>
        <time>2018-08-18T14:27:12Z</time>
      </trkpt>
      <trkpt lat="48.7312" lon="1.75885">
        <ele>171</ele>
        <time>2018-08-18T14:27:17Z</time>
      </trkpt>
      <trkpt lat="48.73124" lon="1.75883">
        <ele>171</ele>
        <time>2018-08-18T14:27:21Z</time>
      </trkpt>
      <trkpt lat="48.73128" lon="1.75879">
        <ele>171</ele>
        <time>2018-08-18T14:27:25Z</time>
      </trkpt>
      <trkpt lat="48.73134" lon="1.75876">
        <ele>171</ele>
        <time>2018-08-18T14:27:30Z</time>
      </trkpt>
      <trkpt lat="48.73138" lon="1.75875">
        <ele>171</ele>
        <time>2018-08-18T14:27:34Z</time>
      </trkpt>
      <trkpt lat="48.73141" lon="1.75872">
        <ele>171</ele>
        <time>2018-08-18T14:27:38Z</time>
      </trkpt>
      <trkpt lat="48.73145" lon="1.75869">
        <ele>171</ele>
        <time>2018-08-18T14:27:42Z</time>
      </trkpt>
      <trkpt lat="48.7315" lon="1.75867">
        <ele>171</ele>
        <time>2018-08-18T14:27:47Z</time>
      </trkpt>
      <trkpt lat="48.73154" lon="1.75864">
        <ele>171</ele>
        <time>2018-08-18T14:27:51Z</time>
      </trkpt>
      <trkpt lat="48.7316" lon="1.7586">
        <ele>171</ele>
        <time>2018-08-18T14:27:56Z</time>
      </trkpt>
      <trkpt lat="48.73163" lon="1.75858">
        <ele>170</ele>
        <time>2018-08-18T14:28:00Z</time>
      </trkpt>
      <trkpt lat="48.73167" lon="1.75856">
        <ele>168</ele>
        <time>2018-08-18T14:28:05Z</time>
      </trkpt>
      <trkpt lat="48.73171" lon="1.75857">
        <ele>167</ele>
        <time>2018-08-18T14:28:10Z</time>
      </trkpt>
      <trkpt lat="48.73174" lon="1.75864">
        <ele>167</ele>
        <time>2018-08-18T14:28:15Z</time>
      </trkpt>
      <trkpt lat="48.73173" lon="1.75868">
        <ele>167</ele>
        <time>2018-08-18T14:28:19Z</time>
      </trkpt>
      <trkpt lat="48.73171" lon="1.7587">
        <ele>167</ele>
        <time>2018-08-18T14:28:23Z</time>
      </trkpt>
      <trkpt lat="48.73167" lon="1.75873">
        <ele>167</ele>
        <time>2018-08-18T14:28:27Z</time>
      </trkpt>
      <trkpt lat="48.73164" lon="1.75876">
        <ele>167</ele>
        <time>2018-08-18T14:28:31Z</time>
      </trkpt>
      <trkpt lat="48.73163" lon="1.75882">
        <ele>167</ele>
        <time>2018-08-18T14:28:35Z</time>
      </trkpt>
      <trkpt lat="48.73159" lon="1.7589">
        <ele>167</ele>
        <time>2018-08-18T14:28:39Z</time>
      </trkpt>
      <trkpt lat="48.73159" lon="1.75899">
        <ele>167</ele>
        <time>2018-08-18T14:28:44Z</time>
      </trkpt>
      <trkpt lat="48.73163" lon="1.75906">
        <ele>167</ele>
        <time>2018-08-18T14:28:49Z</time>
      </trkpt>
      <trkpt lat="48.73167" lon="1.75909">
        <ele>167</ele>
        <time>2018-08-18T14:28:53Z</time>
      </trkpt>
      <trkpt lat="48.73171" lon="1.75913">
        <ele>167</ele>
        <time>2018-08-18T14:28:57Z</time>
      </trkpt>
      <trkpt lat="48.73174" lon="1.75917">
        <ele>167</ele>
        <time>2018-08-18T14:29:01Z</time>
      </trkpt>
      <trkpt lat="48.73177" lon="1.75921">
        <ele>167</ele>
        <time>2018-08-18T14:29:05Z</time>
      </trkpt>
      <trkpt lat="48.73181" lon="1.75923">
        <ele>167</ele>
        <time>2018-08-18T14:29:09Z</time>
      </trkpt>
      <trkpt lat="48.73185" lon="1.75925">
        <ele>167</ele>
        <time>2018-08-18T14:29:13Z</time>
      </trkpt>
      <trkpt lat="48.73188" lon="1.7593">
        <ele>167</ele>
        <time>2018-08-18T14:29:17Z</time>
      </trkpt>
      <trkpt lat="48.73193" lon="1.75937">
        <ele>167</ele>
        <time>2018-08-18T14:29:22Z</time>
      </trkpt>
      <trkpt lat="48.73196" lon="1.75943">
        <ele>167</ele>
        <time>2018-08-18T14:29:27Z</time>
      </trkpt>
      <trkpt lat="48.732" lon="1.75944">
        <ele>165</ele>
        <time>2018-08-18T14:29:31Z</time>
      </trkpt>
      <trkpt lat="48.73203" lon="1.75938">
        <ele>164</ele>
        <time>2018-08-18T14:29:35Z</time>
      </trkpt>
      <trkpt lat="48.73208" lon="1.7593">
        <ele>163</ele>
        <time>2018-08-18T14:29:40Z</time>
      </trkpt>
      <trkpt lat="48.73214" lon="1.75925">
        <ele>163</ele>
        <time>2018-08-18T14:29:44Z</time>
      </trkpt>
      <trkpt lat="48.73219" lon="1.75921">
        <ele>163</ele>
        <time>2018-08-18T14:29:48Z</time>
      </trkpt>
      <trkpt lat="48.73223" lon="1.75921">
        <ele>163</ele>
        <time>2018-08-18T14:29:52Z</time>
      </trkpt>
      <trkpt lat="48.73227" lon="1.75924">
        <ele>163</ele>
        <time>2018-08-18T14:29:56Z</time>
      </trkpt>
      <trkpt lat="48.7323" lon="1.75927">
        <ele>163</ele>
        <time>2018-08-18T14:30:00Z</time>
      </trkpt>
      <trkpt lat="48.73233" lon="1.75931">
        <ele>163</ele>
        <time>2018-08-18T14:30:04Z</time>
      </trkpt>
      <trkpt lat="48.73238" lon="1.75937">
        <ele>163</ele>
        <time>2018-08-18T14:30:09Z</time>
      </trkpt>
      <trkpt lat="48.73241" lon="1.75942">
        <ele>163</ele>
        <time>2018-08-18T14:30:13Z</time>
      </trkpt>
      <trkpt lat="48.73244" lon="1.75944">
        <ele>163</ele>
        <time>2018-08-18T14:30:17Z</time>
      </trkpt>
      <trkpt lat="48.73247" lon="1.75949">
        <ele>163</ele>
        <time>2018-08-18T14:30:21Z</time>
      </trkpt>
      <trkpt lat="48.73251" lon="1.75954">
        <ele>163</ele>
        <time>2018-08-18T14:30:25Z</time>
      </trkpt>
      <trkpt lat="48.73254" lon="1.75959">
        <ele>163</ele>
        <time>2018-08-18T14:30:29Z</time>
      </trkpt>
      <trkpt lat="48.73257" lon="1.75964">
        <ele>163</ele>
        <time>2018-08-18T14:30:33Z</time>
      </trkpt>
      <trkpt lat="48.7326" lon="1.75969">
        <ele>163</ele>
        <time>2018-08-18T14:30:37Z</time>
      </trkpt>
      <trkpt lat="48.73263" lon="1.75977">
        <ele>163</ele>
        <time>2018-08-18T14:30:41Z</time>
      </trkpt>
      <trkpt lat="48.73265" lon="1.75982">
        <ele>163</ele>
        <time>2018-08-18T14:30:45Z</time>
      </trkpt>
      <trkpt lat="48.73267" lon="1.75988">
        <ele>163</ele>
        <time>2018-08-18T14:30:49Z</time>
      </trkpt>
      <trkpt lat="48.73269" lon="1.75995">
        <ele>163</ele>
        <time>2018-08-18T14:30:54Z</time>
      </trkpt>
      <trkpt lat="48.73269" lon="1.76001">
        <ele>163</ele>
        <time>2018-08-18T14:30:58Z</time>
      </trkpt>
      <trkpt lat="48.7327" lon="1.76005">
        <ele>163</ele>
        <time>2018-08-18T14:31:02Z</time>
      </trkpt>
      <trkpt lat="48.7327" lon="1.76007">
        <ele>165</ele>
        <time>2018-08-18T14:31:08Z</time>
      </trkpt>
      <trkpt lat="48.73268" lon="1.76011">
        <ele>166</ele>
        <time>2018-08-18T14:31:13Z</time>
      </trkpt>
      <trkpt lat="48.73265" lon="1.76016">
        <ele>166</ele>
        <time>2018-08-18T14:31:17Z</time>
      </trkpt>
      <trkpt lat="48.73262" lon="1.7602">
        <ele>167</ele>
        <time>2018-08-18T14:31:21Z</time>
      </trkpt>
      <trkpt lat="48.73262" lon="1.76027">
        <ele>167</ele>
        <time>2018-08-18T14:31:25Z</time>
      </trkpt>
      <trkpt lat="48.73266" lon="1.76031">
        <ele>167</ele>
        <time>2018-08-18T14:31:29Z</time>
      </trkpt>
      <trkpt lat="48.7327" lon="1.76032">
        <ele>167</ele>
        <time>2018-08-18T14:31:34Z</time>
      </trkpt>
      <trkpt lat="48.73272" lon="1.76031">
        <ele>167</ele>
        <time>2018-08-18T14:31:39Z</time>
      </trkpt>
      <trkpt lat="48.73274" lon="1.76031">
        <ele>170</ele>
        <time>2018-08-18T14:31:54Z</time>
      </trkpt>
      <trkpt lat="48.73277" lon="1.76036">
        <ele>170</ele>
        <time>2018-08-18T14:31:58Z</time>
      </trkpt>
      <trkpt lat="48.73278" lon="1.76043">
        <ele>170</ele>
        <time>2018-08-18T14:32:03Z</time>
      </trkpt>
      <trkpt lat="48.73277" lon="1.76045">
        <ele>171</ele>
        <time>2018-08-18T14:32:11Z</time>
      </trkpt>
      <trkpt lat="48.73276" lon="1.7605">
        <ele>172</ele>
        <time>2018-08-18T14:32:15Z</time>
      </trkpt>
      <trkpt lat="48.73274" lon="1.76053">
        <ele>172</ele>
        <time>2018-08-18T14:32:19Z</time>
      </trkpt>
      <trkpt lat="48.73272" lon="1.76059">
        <ele>172</ele>
        <time>2018-08-18T14:32:23Z</time>
      </trkpt>
      <trkpt lat="48.7327" lon="1.76063">
        <ele>171</ele>
        <time>2018-08-18T14:32:28Z</time>
      </trkpt>
      <trkpt lat="48.73272" lon="1.7606">
        <ele>171</ele>
        <time>2018-08-18T14:32:37Z</time>
      </trkpt>
      <trkpt lat="48.73274" lon="1.76055">
        <ele>171</ele>
        <time>2018-08-18T14:32:41Z</time>
      </trkpt>
      <trkpt lat="48.73277" lon="1.76051">
        <ele>171</ele>
        <time>2018-08-18T14:32:45Z</time>
      </trkpt>
      <trkpt lat="48.73278" lon="1.76045">
        <ele>171</ele>
        <time>2018-08-18T14:32:49Z</time>
      </trkpt>
      <trkpt lat="48.73275" lon="1.76039">
        <ele>171</ele>
        <time>2018-08-18T14:32:54Z</time>
      </trkpt>
      <trkpt lat="48.73274" lon="1.76036">
        <ele>171</ele>
        <time>2018-08-18T14:33:00Z</time>
      </trkpt>
      <trkpt lat="48.73275" lon="1.76033">
        <ele>175</ele>
        <time>2018-08-18T14:33:11Z</time>
      </trkpt>
      <trkpt lat="48.73275" lon="1.76035">
        <ele>175</ele>
        <time>2018-08-18T14:33:18Z</time>
      </trkpt>
      <trkpt lat="48.73274" lon="1.76035">
        <ele>176</ele>
        <time>2018-08-18T14:33:37Z</time>
      </trkpt>
      <trkpt lat="48.73275" lon="1.76035">
        <ele>176</ele>
        <time>2018-08-18T14:34:19Z</time>
      </trkpt>
      <trkpt lat="48.73277" lon="1.76041">
        <ele>176</ele>
        <time>2018-08-18T14:34:23Z</time>
      </trkpt>
      <trkpt lat="48.73278" lon="1.76044">
        <ele>176</ele>
        <time>2018-08-18T14:34:28Z</time>
      </trkpt>
      <trkpt lat="48.73279" lon="1.76044">
        <ele>176</ele>
        <time>2018-08-18T14:34:32Z</time>
      </trkpt>
      <trkpt lat="48.73281" lon="1.76045">
        <ele>177</ele>
        <time>2018-08-18T14:34:40Z</time>
      </trkpt>
      <trkpt lat="48.73279" lon="1.76041">
        <ele>177</ele>
        <time>2018-08-18T14:34:45Z</time>
      </trkpt>
      <trkpt lat="48.73277" lon="1.76036">
        <ele>177</ele>
        <time>2018-08-18T14:34:49Z</time>
      </trkpt>
      <trkpt lat="48.73276" lon="1.76035">
        <ele>177</ele>
        <time>2018-08-18T14:34:59Z</time>
      </trkpt>
      <trkpt lat="48.73275" lon="1.76034">
        <ele>177</ele>
        <time>2018-08-18T14:35:03Z</time>
      </trkpt>
      <trkpt lat="48.73273" lon="1.76034">
        <ele>177</ele>
        <time>2018-08-18T14:35:07Z</time>
      </trkpt>
      <trkpt lat="48.73274" lon="1.76034">
        <ele>177</ele>
        <time>2018-08-18T14:35:19Z</time>
      </trkpt>
      <trkpt lat="48.73273" lon="1.76032">
        <ele>177</ele>
        <time>2018-08-18T14:35:27Z</time>
      </trkpt>
      <trkpt lat="48.73274" lon="1.76034">
        <ele>177</ele>
        <time>2018-08-18T14:35:35Z</time>
      </trkpt>
      <trkpt lat="48.73273" lon="1.76032">
        <ele>177</ele>
        <time>2018-08-18T14:35:59Z</time>
      </trkpt>
      <trkpt lat="48.73274" lon="1.76032">
        <ele>177</ele>
        <time>2018-08-18T14:36:04Z</time>
      </trkpt>
      <trkpt lat="48.73275" lon="1.76033">
        <ele>177</ele>
        <time>2018-08-18T14:36:09Z</time>
      </trkpt>
      <trkpt lat="48.73275" lon="1.76032">
        <ele>177</ele>
        <time>2018-08-18T14:36:23Z</time>
      </trkpt>
      <trkpt lat="48.73276" lon="1.76033">
        <ele>177</ele>
        <time>2018-08-18T14:36:32Z</time>
      </trkpt>
      <trkpt lat="48.73277" lon="1.76035">
        <ele>177</ele>
        <time>2018-08-18T14:36:43Z</time>
      </trkpt>
      <trkpt lat="48.73276" lon="1.76032">
        <ele>176</ele>
        <time>2018-08-18T14:36:57Z</time>
      </trkpt>
      <trkpt lat="48.73274" lon="1.7603">
        <ele>176</ele>
        <time>2018-08-18T14:37:02Z</time>
      </trkpt>
      <trkpt lat="48.73275" lon="1.76031">
        <ele>176</ele>
        <time>2018-08-18T14:37:07Z</time>
      </trkpt>
      <trkpt lat="48.73278" lon="1.76034">
        <ele>176</ele>
        <time>2018-08-18T14:37:13Z</time>
      </trkpt>
      <trkpt lat="48.73276" lon="1.76033">
        <ele>176</ele>
        <time>2018-08-18T14:37:19Z</time>
      </trkpt>
      <trkpt lat="48.73276" lon="1.76035">
        <ele>176</ele>
        <time>2018-08-18T14:37:26Z</time>
      </trkpt>
      <trkpt lat="48.73278" lon="1.76039">
        <ele>176</ele>
        <time>2018-08-18T14:37:30Z</time>
      </trkpt>
      <trkpt lat="48.7328" lon="1.76043">
        <ele>176</ele>
        <time>2018-08-18T14:37:35Z</time>
      </trkpt>
      <trkpt lat="48.73279" lon="1.76047">
        <ele>176</ele>
        <time>2018-08-18T14:37:42Z</time>
      </trkpt>
      <trkpt lat="48.73279" lon="1.76046">
        <ele>176</ele>
        <time>2018-08-18T14:37:47Z</time>
      </trkpt>
      <trkpt lat="48.73278" lon="1.76042">
        <ele>176</ele>
        <time>2018-08-18T14:37:52Z</time>
      </trkpt>
      <trkpt lat="48.73276" lon="1.76037">
        <ele>176</ele>
        <time>2018-08-18T14:37:58Z</time>
      </trkpt>
      <trkpt lat="48.73278" lon="1.7604">
        <ele>177</ele>
        <time>2018-08-18T14:38:02Z</time>
      </trkpt>
      <trkpt lat="48.73279" lon="1.76044">
        <ele>177</ele>
        <time>2018-08-18T14:38:06Z</time>
      </trkpt>
      <trkpt lat="48.73279" lon="1.76044">
        <ele>177</ele>
        <time>2018-08-18T14:38:18Z</time>
      </trkpt>
      <trkpt lat="48.73278" lon="1.76038">
        <ele>177</ele>
        <time>2018-08-18T14:38:23Z</time>
      </trkpt>
      <trkpt lat="48.73278" lon="1.76039">
        <ele>177</ele>
        <time>2018-08-18T14:38:33Z</time>
      </trkpt>
      <trkpt lat="48.73279" lon="1.76045">
        <ele>177</ele>
        <time>2018-08-18T14:38:37Z</time>
      </trkpt>
      <trkpt lat="48.73278" lon="1.76043">
        <ele>177</ele>
        <time>2018-08-18T14:38:42Z</time>
      </trkpt>
      <trkpt lat="48.73278" lon="1.76039">
        <ele>177</ele>
        <time>2018-08-18T14:38:46Z</time>
      </trkpt>
      <trkpt lat="48.73276" lon="1.76036">
        <ele>177</ele>
        <time>2018-08-18T14:38:53Z</time>
      </trkpt>
      <trkpt lat="48.73277" lon="1.7604">
        <ele>177</ele>
        <time>2018-08-18T14:38:58Z</time>
      </trkpt>
      <trkpt lat="48.73279" lon="1.76044">
        <ele>177</ele>
        <time>2018-08-18T14:39:08Z</time>
      </trkpt>
      <trkpt lat="48.73276" lon="1.76049">
        <ele>177</ele>
        <time>2018-08-18T14:39:14Z</time>
      </trkpt>
      <trkpt lat="48.73273" lon="1.76053">
        <ele>176</ele>
        <time>2018-08-18T14:39:19Z</time>
      </trkpt>
      <trkpt lat="48.73271" lon="1.76057">
        <ele>176</ele>
        <time>2018-08-18T14:39:23Z</time>
      </trkpt>
      <trkpt lat="48.73266" lon="1.76063">
        <ele>176</ele>
        <time>2018-08-18T14:39:28Z</time>
      </trkpt>
      <trkpt lat="48.73265" lon="1.76063">
        <ele>176</ele>
        <time>2018-08-18T14:39:33Z</time>
      </trkpt>
      <trkpt lat="48.73264" lon="1.76063">
        <ele>176</ele>
        <time>2018-08-18T14:39:39Z</time>
      </trkpt>
      <trkpt lat="48.73265" lon="1.76063">
        <ele>176</ele>
        <time>2018-08-18T14:39:46Z</time>
      </trkpt>
      <trkpt lat="48.73263" lon="1.76065">
        <ele>176</ele>
        <time>2018-08-18T14:39:52Z</time>
      </trkpt>
      <trkpt lat="48.73262" lon="1.76067">
        <ele>176</ele>
        <time>2018-08-18T14:40:03Z</time>
      </trkpt>
      <trkpt lat="48.73262" lon="1.76065">
        <ele>176</ele>
        <time>2018-08-18T14:40:09Z</time>
      </trkpt>
      <trkpt lat="48.73262" lon="1.76065">
        <ele>176</ele>
        <time>2018-08-18T14:40:16Z</time>
      </trkpt>
      <trkpt lat="48.73262" lon="1.76067">
        <ele>176</ele>
        <time>2018-08-18T14:40:40Z</time>
      </trkpt>
      <trkpt lat="48.73262" lon="1.76069">
        <ele>179</ele>
        <time>2018-08-18T14:40:46Z</time>
      </trkpt>
      <trkpt lat="48.7326" lon="1.76066">
        <ele>179</ele>
        <time>2018-08-18T14:40:51Z</time>
      </trkpt>
      <trkpt lat="48.7326" lon="1.76064">
        <ele>179</ele>
        <time>2018-08-18T14:41:05Z</time>
      </trkpt>
      <trkpt lat="48.7326" lon="1.76064">
        <ele>180</ele>
        <time>2018-08-18T14:41:10Z</time>
      </trkpt>
      <trkpt lat="48.73258" lon="1.76065">
        <ele>182</ele>
        <time>2018-08-18T14:41:14Z</time>
      </trkpt>
      <trkpt lat="48.73259" lon="1.76062">
        <ele>182</ele>
        <time>2018-08-18T14:41:19Z</time>
      </trkpt>
      <trkpt lat="48.73263" lon="1.76068">
        <ele>181</ele>
        <time>2018-08-18T14:41:24Z</time>
      </trkpt>
      <trkpt lat="48.73263" lon="1.7607">
        <ele>177</ele>
        <time>2018-08-18T14:41:34Z</time>
      </trkpt>
      <trkpt lat="48.73262" lon="1.76068">
        <ele>176</ele>
        <time>2018-08-18T14:41:38Z</time>
      </trkpt>
      <trkpt lat="48.73259" lon="1.76062">
        <ele>176</ele>
        <time>2018-08-18T14:41:44Z</time>
      </trkpt>
      <trkpt lat="48.7326" lon="1.76064">
        <ele>176</ele>
        <time>2018-08-18T14:41:58Z</time>
      </trkpt>
      <trkpt lat="48.73261" lon="1.76063">
        <ele>178</ele>
        <time>2018-08-18T14:42:09Z</time>
      </trkpt>
      <trkpt lat="48.73262" lon="1.76065">
        <ele>178</ele>
        <time>2018-08-18T14:42:13Z</time>
      </trkpt>
      <trkpt lat="48.73262" lon="1.76067">
        <ele>178</ele>
        <time>2018-08-18T14:42:21Z</time>
      </trkpt>
      <trkpt lat="48.73263" lon="1.7607">
        <ele>178</ele>
        <time>2018-08-18T14:42:36Z</time>
      </trkpt>
      <trkpt lat="48.73263" lon="1.7607">
        <ele>178</ele>
        <time>2018-08-18T14:42:43Z</time>
      </trkpt>
      <trkpt lat="48.73263" lon="1.76069">
        <ele>183</ele>
        <time>2018-08-18T14:42:51Z</time>
      </trkpt>
      <trkpt lat="48.73264" lon="1.76072">
        <ele>183</ele>
        <time>2018-08-18T14:42:55Z</time>
      </trkpt>
      <trkpt lat="48.73265" lon="1.76073">
        <ele>184</ele>
        <time>2018-08-18T14:43:01Z</time>
      </trkpt>
      <trkpt lat="48.73262" lon="1.7607">
        <ele>188</ele>
        <time>2018-08-18T14:43:07Z</time>
      </trkpt>
      <trkpt lat="48.73262" lon="1.76071">
        <ele>187</ele>
        <time>2018-08-18T14:43:17Z</time>
      </trkpt>
      <trkpt lat="48.73266" lon="1.76072">
        <ele>183</ele>
        <time>2018-08-18T14:43:21Z</time>
      </trkpt>
      <trkpt lat="48.73269" lon="1.76076">
        <ele>181</ele>
        <time>2018-08-18T14:43:26Z</time>
      </trkpt>
      <trkpt lat="48.73272" lon="1.76079">
        <ele>180</ele>
        <time>2018-08-18T14:43:30Z</time>
      </trkpt>
      <trkpt lat="48.73275" lon="1.76081">
        <ele>180</ele>
        <time>2018-08-18T14:43:35Z</time>
      </trkpt>
      <trkpt lat="48.73276" lon="1.76085">
        <ele>175</ele>
        <time>2018-08-18T14:43:40Z</time>
      </trkpt>
      <trkpt lat="48.73274" lon="1.76083">
        <ele>166</ele>
        <time>2018-08-18T14:43:49Z</time>
      </trkpt>
      <trkpt lat="48.7327" lon="1.76079">
        <ele>162</ele>
        <time>2018-08-18T14:43:55Z</time>
      </trkpt>
      <trkpt lat="48.73269" lon="1.76078">
        <ele>164</ele>
        <time>2018-08-18T14:44:02Z</time>
      </trkpt>
      <trkpt lat="48.73271" lon="1.76078">
        <ele>168</ele>
        <time>2018-08-18T14:44:06Z</time>
      </trkpt>
      <trkpt lat="48.73272" lon="1.7608">
        <ele>169</ele>
        <time>2018-08-18T14:44:12Z</time>
      </trkpt>
      <trkpt lat="48.7327" lon="1.76077">
        <ele>173</ele>
        <time>2018-08-18T14:44:17Z</time>
      </trkpt>
      <trkpt lat="48.73266" lon="1.76073">
        <ele>176</ele>
        <time>2018-08-18T14:44:21Z</time>
      </trkpt>
      <trkpt lat="48.73267" lon="1.76071">
        <ele>177</ele>
        <time>2018-08-18T14:44:27Z</time>
      </trkpt>
      <trkpt lat="48.73267" lon="1.76071">
        <ele>177</ele>
        <time>2018-08-18T14:44:41Z</time>
      </trkpt>
      <trkpt lat="48.73266" lon="1.76069">
        <ele>176</ele>
        <time>2018-08-18T14:44:47Z</time>
      </trkpt>
      <trkpt lat="48.73265" lon="1.76068">
        <ele>175</ele>
        <time>2018-08-18T14:44:52Z</time>
      </trkpt>
      <trkpt lat="48.73264" lon="1.76066">
        <ele>175</ele>
        <time>2018-08-18T14:44:56Z</time>
      </trkpt>
      <trkpt lat="48.73263" lon="1.76065">
        <ele>175</ele>
        <time>2018-08-18T14:45:06Z</time>
      </trkpt>
      <trkpt lat="48.73263" lon="1.76067">
        <ele>176</ele>
        <time>2018-08-18T14:45:10Z</time>
      </trkpt>
      <trkpt lat="48.73262" lon="1.76066">
        <ele>179</ele>
        <time>2018-08-18T14:45:19Z</time>
      </trkpt>
      <trkpt lat="48.73261" lon="1.76065">
        <ele>180</ele>
        <time>2018-08-18T14:45:30Z</time>
      </trkpt>
      <trkpt lat="48.73259" lon="1.76064">
        <ele>181</ele>
        <time>2018-08-18T14:45:37Z</time>
      </trkpt>
      <trkpt lat="48.73259" lon="1.76065">
        <ele>181</ele>
        <time>2018-08-18T14:45:53Z</time>
      </trkpt>
      <trkpt lat="48.73261" lon="1.76068">
        <ele>181</ele>
        <time>2018-08-18T14:45:59Z</time>
      </trkpt>
      <trkpt lat="48.73261" lon="1.76069">
        <ele>181</ele>
        <time>2018-08-18T14:46:16Z</time>
      </trkpt>
      <trkpt lat="48.73262" lon="1.7607">
        <ele>180</ele>
        <time>2018-08-18T14:46:30Z</time>
      </trkpt>
      <trkpt lat="48.7326" lon="1.76068">
        <ele>178</ele>
        <time>2018-08-18T14:46:34Z</time>
      </trkpt>
      <trkpt lat="48.73259" lon="1.76066">
        <ele>170</ele>
        <time>2018-08-18T14:46:47Z</time>
      </trkpt>
      <trkpt lat="48.73273" lon="1.76073">
        <ele>158</ele>
        <time>2018-08-18T14:47:58Z</time>
      </trkpt>
      <trkpt lat="48.73272" lon="1.7606">
        <ele>158</ele>
        <time>2018-08-18T14:48:41Z</time>
      </trkpt>
      <trkpt lat="48.73262" lon="1.76062">
        <ele>168</ele>
        <time>2018-08-18T14:48:47Z</time>
      </trkpt>
      <trkpt lat="48.73263" lon="1.76064">
        <ele>178</ele>
        <time>2018-08-18T14:48:57Z</time>
      </trkpt>
      <trkpt lat="48.73262" lon="1.76066">
        <ele>183</ele>
        <time>2018-08-18T14:49:03Z</time>
      </trkpt>
      <trkpt lat="48.73259" lon="1.76064">
        <ele>186</ele>
        <time>2018-08-18T14:49:08Z</time>
      </trkpt>
      <trkpt lat="48.73258" lon="1.76063">
        <ele>188</ele>
        <time>2018-08-18T14:49:12Z</time>
      </trkpt>
      <trkpt lat="48.73259" lon="1.76061">
        <ele>190</ele>
        <time>2018-08-18T14:49:17Z</time>
      </trkpt>
      <trkpt lat="48.73261" lon="1.76063">
        <ele>191</ele>
        <time>2018-08-18T14:49:21Z</time>
      </trkpt>
      <trkpt lat="48.73263" lon="1.76067">
        <ele>191</ele>
        <time>2018-08-18T14:49:26Z</time>
      </trkpt>
      <trkpt lat="48.73262" lon="1.76066">
        <ele>191</ele>
        <time>2018-08-18T14:49:30Z</time>
      </trkpt>
      <trkpt lat="48.73266" lon="1.76065">
        <ele>191</ele>
        <time>2018-08-18T14:49:34Z</time>
      </trkpt>
      <trkpt lat="48.73267" lon="1.76061">
        <ele>188</ele>
        <time>2018-08-18T14:49:38Z</time>
      </trkpt>
      <trkpt lat="48.7327" lon="1.76058">
        <ele>186</ele>
        <time>2018-08-18T14:49:42Z</time>
      </trkpt>
      <trkpt lat="48.73272" lon="1.76053">
        <ele>183</ele>
        <time>2018-08-18T14:49:46Z</time>
      </trkpt>
      <trkpt lat="48.73274" lon="1.7605">
        <ele>181</ele>
        <time>2018-08-18T14:49:50Z</time>
      </trkpt>
      <trkpt lat="48.73277" lon="1.76045">
        <ele>178</ele>
        <time>2018-08-18T14:49:55Z</time>
      </trkpt>
      <trkpt lat="48.73277" lon="1.76038">
        <ele>178</ele>
        <time>2018-08-18T14:50:01Z</time>
      </trkpt>
      <trkpt lat="48.73277" lon="1.76035">
        <ele>178</ele>
        <time>2018-08-18T14:50:08Z</time>
      </trkpt>
      <trkpt lat="48.73277" lon="1.76034">
        <ele>178</ele>
        <time>2018-08-18T14:50:20Z</time>
      </trkpt>
      <trkpt lat="48.73278" lon="1.76034">
        <ele>178</ele>
        <time>2018-08-18T14:50:36Z</time>
      </trkpt>
      <trkpt lat="48.73279" lon="1.76033">
        <ele>178</ele>
        <time>2018-08-18T14:50:40Z</time>
      </trkpt>
      <trkpt lat="48.73278" lon="1.76033">
        <ele>178</ele>
        <time>2018-08-18T14:50:50Z</time>
      </trkpt>
      <trkpt lat="48.73277" lon="1.76035">
        <ele>179</ele>
        <time>2018-08-18T14:50:59Z</time>
      </trkpt>
      <trkpt lat="48.73277" lon="1.76037">
        <ele>179</ele>
        <time>2018-08-18T14:51:03Z</time>
      </trkpt>
      <trkpt lat="48.73278" lon="1.76035">
        <ele>176</ele>
        <time>2018-08-18T14:51:19Z</time>
      </trkpt>
      <trkpt lat="48.73278" lon="1.76033">
        <ele>176</ele>
        <time>2018-08-18T14:51:30Z</time>
      </trkpt>
      <trkpt lat="48.73277" lon="1.76032">
        <ele>176</ele>
        <time>2018-08-18T14:51:34Z</time>
      </trkpt>
      <trkpt lat="48.73277" lon="1.7603">
        <ele>176</ele>
        <time>2018-08-18T14:51:48Z</time>
      </trkpt>
      <trkpt lat="48.73277" lon="1.76032">
        <ele>176</ele>
        <time>2018-08-18T14:51:56Z</time>
      </trkpt>
      <trkpt lat="48.73277" lon="1.76034">
        <ele>176</ele>
        <time>2018-08-18T14:52:06Z</time>
      </trkpt>
      <trkpt lat="48.73275" lon="1.76033">
        <ele>176</ele>
        <time>2018-08-18T14:52:11Z</time>
      </trkpt>
      <trkpt lat="48.73274" lon="1.76031">
        <ele>176</ele>
        <time>2018-08-18T14:52:16Z</time>
      </trkpt>
      <trkpt lat="48.73273" lon="1.7603">
        <ele>176</ele>
        <time>2018-08-18T14:52:28Z</time>
      </trkpt>
      <trkpt lat="48.73272" lon="1.76029">
        <ele>178</ele>
        <time>2018-08-18T14:52:33Z</time>
      </trkpt>
      <trkpt lat="48.73271" lon="1.76027">
        <ele>179</ele>
        <time>2018-08-18T14:52:38Z</time>
      </trkpt>
      <trkpt lat="48.73273" lon="1.7603">
        <ele>179</ele>
        <time>2018-08-18T14:52:48Z</time>
      </trkpt>
      <trkpt lat="48.73275" lon="1.7603">
        <ele>179</ele>
        <time>2018-08-18T14:52:53Z</time>
      </trkpt>
      <trkpt lat="48.73275" lon="1.76033">
        <ele>179</ele>
        <time>2018-08-18T14:52:57Z</time>
      </trkpt>
      <trkpt lat="48.73276" lon="1.76035">
        <ele>179</ele>
        <time>2018-08-18T14:53:01Z</time>
      </trkpt>
      <trkpt lat="48.73278" lon="1.76041">
        <ele>179</ele>
        <time>2018-08-18T14:53:06Z</time>
      </trkpt>
      <trkpt lat="48.7328" lon="1.76048">
        <ele>179</ele>
        <time>2018-08-18T14:53:12Z</time>
      </trkpt>
      <trkpt lat="48.73279" lon="1.76048">
        <ele>179</ele>
        <time>2018-08-18T14:53:26Z</time>
      </trkpt>
      <trkpt lat="48.73278" lon="1.76046">
        <ele>179</ele>
        <time>2018-08-18T14:53:35Z</time>
      </trkpt>
      <trkpt lat="48.73277" lon="1.76046">
        <ele>179</ele>
        <time>2018-08-18T14:53:42Z</time>
      </trkpt>
      <trkpt lat="48.73276" lon="1.76044">
        <ele>180</ele>
        <time>2018-08-18T14:53:47Z</time>
      </trkpt>
      <trkpt lat="48.73275" lon="1.76044">
        <ele>180</ele>
        <time>2018-08-18T14:53:56Z</time>
      </trkpt>
      <trkpt lat="48.73275" lon="1.76046">
        <ele>180</ele>
        <time>2018-08-18T14:54:08Z</time>
      </trkpt>
      <trkpt lat="48.73276" lon="1.76048">
        <ele>179</ele>
        <time>2018-08-18T14:54:13Z</time>
      </trkpt>
      <trkpt lat="48.73279" lon="1.76048">
        <ele>177</ele>
        <time>2018-08-18T14:54:18Z</time>
      </trkpt>
      <trkpt lat="48.7328" lon="1.76049">
        <ele>176</ele>
        <time>2018-08-18T14:54:22Z</time>
      </trkpt>
      <trkpt lat="48.7328" lon="1.76049">
        <ele>176</ele>
        <time>2018-08-18T14:54:49Z</time>
      </trkpt>
      <trkpt lat="48.7328" lon="1.76044">
        <ele>175</ele>
        <time>2018-08-18T14:54:55Z</time>
      </trkpt>
      <trkpt lat="48.73279" lon="1.7604">
        <ele>174</ele>
        <time>2018-08-18T14:54:59Z</time>
      </trkpt>
      <trkpt lat="48.73278" lon="1.7604">
        <ele>174</ele>
        <time>2018-08-18T14:55:03Z</time>
      </trkpt>
      <trkpt lat="48.73276" lon="1.76039">
        <ele>174</ele>
        <time>2018-08-18T14:55:07Z</time>
      </trkpt>
      <trkpt lat="48.73275" lon="1.76038">
        <ele>174</ele>
        <time>2018-08-18T14:55:12Z</time>
      </trkpt>
    </trkseg>
  </trk>
  <trk>
    <name><![CDATA[20190310165800-neRU6]]></name>
    <trkseg>
      <trkpt lat="48.73275" lon="1.76029">
        <ele>185</ele>
        <time>2018-08-19T06:42:52Z</time>
      </trkpt>
      <trkpt lat="48.73272" lon="1.75986">
        <ele>183</ele>
        <time>2018-08-19T06:43:30Z</time>
      </trkpt>
      <trkpt lat="48.7327" lon="1.7598">
        <ele>182</ele>
        <time>2018-08-19T06:43:34Z</time>
      </trkpt>
      <trkpt lat="48.73265" lon="1.75974">
        <ele>182</ele>
        <time>2018-08-19T06:43:38Z</time>
      </trkpt>
      <trkpt lat="48.73263" lon="1.75967">
        <ele>182</ele>
        <time>2018-08-19T06:43:42Z</time>
      </trkpt>
      <trkpt lat="48.73259" lon="1.7596">
        <ele>182</ele>
        <time>2018-08-19T06:43:46Z</time>
      </trkpt>
      <trkpt lat="48.73257" lon="1.75955">
        <ele>182</ele>
        <time>2018-08-19T06:43:50Z</time>
      </trkpt>
      <trkpt lat="48.73256" lon="1.75951">
        <ele>182</ele>
        <time>2018-08-19T06:43:54Z</time>
      </trkpt>
      <trkpt lat="48.73252" lon="1.75948">
        <ele>182</ele>
        <time>2018-08-19T06:43:58Z</time>
      </trkpt>
      <trkpt lat="48.73249" lon="1.75943">
        <ele>182</ele>
        <time>2018-08-19T06:44:02Z</time>
      </trkpt>
      <trkpt lat="48.73246" lon="1.75938">
        <ele>182</ele>
        <time>2018-08-19T06:44:06Z</time>
      </trkpt>
      <trkpt lat="48.73244" lon="1.75932">
        <ele>182</ele>
        <time>2018-08-19T06:44:11Z</time>
      </trkpt>
      <trkpt lat="48.73241" lon="1.75925">
        <ele>182</ele>
        <time>2018-08-19T06:44:16Z</time>
      </trkpt>
      <trkpt lat="48.73237" lon="1.7592">
        <ele>182</ele>
        <time>2018-08-19T06:44:20Z</time>
      </trkpt>
      <trkpt lat="48.73231" lon="1.7592">
        <ele>182</ele>
        <time>2018-08-19T06:44:24Z</time>
      </trkpt>
      <trkpt lat="48.73225" lon="1.75924">
        <ele>182</ele>
        <time>2018-08-19T06:44:28Z</time>
      </trkpt>
      <trkpt lat="48.73221" lon="1.75929">
        <ele>182</ele>
        <time>2018-08-19T06:44:32Z</time>
      </trkpt>
      <trkpt lat="48.73217" lon="1.75935">
        <ele>182</ele>
        <time>2018-08-19T06:44:36Z</time>
      </trkpt>
      <trkpt lat="48.73214" lon="1.7594">
        <ele>183</ele>
        <time>2018-08-19T06:44:40Z</time>
      </trkpt>
      <trkpt lat="48.73215" lon="1.75943">
        <ele>184</ele>
        <time>2018-08-19T06:44:45Z</time>
      </trkpt>
      <trkpt lat="48.73215" lon="1.75946">
        <ele>184</ele>
        <time>2018-08-19T06:44:52Z</time>
      </trkpt>
      <trkpt lat="48.73209" lon="1.75945">
        <ele>184</ele>
        <time>2018-08-19T06:44:56Z</time>
      </trkpt>
      <trkpt lat="48.73204" lon="1.75943">
        <ele>184</ele>
        <time>2018-08-19T06:45:00Z</time>
      </trkpt>
      <trkpt lat="48.73199" lon="1.7594">
        <ele>184</ele>
        <time>2018-08-19T06:45:04Z</time>
      </trkpt>
      <trkpt lat="48.73195" lon="1.75937">
        <ele>184</ele>
        <time>2018-08-19T06:45:08Z</time>
      </trkpt>
      <trkpt lat="48.73189" lon="1.75933">
        <ele>184</ele>
        <time>2018-08-19T06:45:12Z</time>
      </trkpt>
      <trkpt lat="48.73181" lon="1.75928">
        <ele>184</ele>
        <time>2018-08-19T06:45:16Z</time>
      </trkpt>
      <trkpt lat="48.73174" lon="1.75924">
        <ele>186</ele>
        <time>2018-08-19T06:45:20Z</time>
      </trkpt>
      <trkpt lat="48.73168" lon="1.75919">
        <ele>189</ele>
        <time>2018-08-19T06:45:24Z</time>
      </trkpt>
      <trkpt lat="48.73165" lon="1.75914">
        <ele>191</ele>
        <time>2018-08-19T06:45:30Z</time>
      </trkpt>
      <trkpt lat="48.73159" lon="1.75909">
        <ele>191</ele>
        <time>2018-08-19T06:45:34Z</time>
      </trkpt>
      <trkpt lat="48.73154" lon="1.75906">
        <ele>191</ele>
        <time>2018-08-19T06:45:38Z</time>
      </trkpt>
      <trkpt lat="48.73153" lon="1.75901">
        <ele>191</ele>
        <time>2018-08-19T06:45:43Z</time>
      </trkpt>
      <trkpt lat="48.73154" lon="1.75892">
        <ele>191</ele>
        <time>2018-08-19T06:45:47Z</time>
      </trkpt>
      <trkpt lat="48.73159" lon="1.75886">
        <ele>191</ele>
        <time>2018-08-19T06:45:51Z</time>
      </trkpt>
      <trkpt lat="48.73164" lon="1.75879">
        <ele>189</ele>
        <time>2018-08-19T06:45:55Z</time>
      </trkpt>
      <trkpt lat="48.73166" lon="1.75873">
        <ele>187</ele>
        <time>2018-08-19T06:45:59Z</time>
      </trkpt>
      <trkpt lat="48.7317" lon="1.75868">
        <ele>186</ele>
        <time>2018-08-19T06:46:03Z</time>
      </trkpt>
      <trkpt lat="48.73177" lon="1.75863">
        <ele>186</ele>
        <time>2018-08-19T06:46:08Z</time>
      </trkpt>
      <trkpt lat="48.73179" lon="1.75856">
        <ele>185</ele>
        <time>2018-08-19T06:46:12Z</time>
      </trkpt>
      <trkpt lat="48.7318" lon="1.75849">
        <ele>184</ele>
        <time>2018-08-19T06:46:16Z</time>
      </trkpt>
      <trkpt lat="48.73184" lon="1.75841">
        <ele>184</ele>
        <time>2018-08-19T06:46:21Z</time>
      </trkpt>
      <trkpt lat="48.7319" lon="1.75835">
        <ele>184</ele>
        <time>2018-08-19T06:46:26Z</time>
      </trkpt>
      <trkpt lat="48.73194" lon="1.7583">
        <ele>181</ele>
        <time>2018-08-19T06:46:30Z</time>
      </trkpt>
      <trkpt lat="48.732" lon="1.75826">
        <ele>181</ele>
        <time>2018-08-19T06:46:34Z</time>
      </trkpt>
      <trkpt lat="48.73204" lon="1.75822">
        <ele>181</ele>
        <time>2018-08-19T06:46:38Z</time>
      </trkpt>
      <trkpt lat="48.73208" lon="1.7582">
        <ele>181</ele>
        <time>2018-08-19T06:46:42Z</time>
      </trkpt>
      <trkpt lat="48.73212" lon="1.75817">
        <ele>181</ele>
        <time>2018-08-19T06:46:46Z</time>
      </trkpt>
      <trkpt lat="48.73214" lon="1.75813">
        <ele>179</ele>
        <time>2018-08-19T06:46:50Z</time>
      </trkpt>
      <trkpt lat="48.73219" lon="1.75811">
        <ele>179</ele>
        <time>2018-08-19T06:46:54Z</time>
      </trkpt>
      <trkpt lat="48.73223" lon="1.75809">
        <ele>179</ele>
        <time>2018-08-19T06:46:58Z</time>
      </trkpt>
      <trkpt lat="48.73229" lon="1.75805">
        <ele>179</ele>
        <time>2018-08-19T06:47:02Z</time>
      </trkpt>
      <trkpt lat="48.73235" lon="1.75803">
        <ele>179</ele>
        <time>2018-08-19T06:47:06Z</time>
      </trkpt>
      <trkpt lat="48.73242" lon="1.75797">
        <ele>179</ele>
        <time>2018-08-19T06:47:11Z</time>
      </trkpt>
      <trkpt lat="48.73246" lon="1.75792">
        <ele>179</ele>
        <time>2018-08-19T06:47:15Z</time>
      </trkpt>
      <trkpt lat="48.73251" lon="1.75788">
        <ele>180</ele>
        <time>2018-08-19T06:47:19Z</time>
      </trkpt>
      <trkpt lat="48.73257" lon="1.75783">
        <ele>181</ele>
        <time>2018-08-19T06:47:23Z</time>
      </trkpt>
      <trkpt lat="48.73262" lon="1.75781">
        <ele>181</ele>
        <time>2018-08-19T06:47:27Z</time>
      </trkpt>
      <trkpt lat="48.7327" lon="1.75774">
        <ele>181</ele>
        <time>2018-08-19T06:47:33Z</time>
      </trkpt>
      <trkpt lat="48.73276" lon="1.7577">
        <ele>181</ele>
        <time>2018-08-19T06:47:37Z</time>
      </trkpt>
      <trkpt lat="48.73277" lon="1.75767">
        <ele>182</ele>
        <time>2018-08-19T06:47:41Z</time>
      </trkpt>
      <trkpt lat="48.73278" lon="1.75763">
        <ele>185</ele>
        <time>2018-08-19T06:47:45Z</time>
      </trkpt>
      <trkpt lat="48.73279" lon="1.75759">
        <ele>189</ele>
        <time>2018-08-19T06:47:49Z</time>
      </trkpt>
      <trkpt lat="48.7328" lon="1.75754">
        <ele>193</ele>
        <time>2018-08-19T06:47:53Z</time>
      </trkpt>
      <trkpt lat="48.73287" lon="1.7575">
        <ele>194</ele>
        <time>2018-08-19T06:47:57Z</time>
      </trkpt>
      <trkpt lat="48.73292" lon="1.75745">
        <ele>194</ele>
        <time>2018-08-19T06:48:02Z</time>
      </trkpt>
      <trkpt lat="48.73301" lon="1.75743">
        <ele>192</ele>
        <time>2018-08-19T06:48:06Z</time>
      </trkpt>
      <trkpt lat="48.7331" lon="1.75739">
        <ele>188</ele>
        <time>2018-08-19T06:48:10Z</time>
      </trkpt>
      <trkpt lat="48.73317" lon="1.75734">
        <ele>183</ele>
        <time>2018-08-19T06:48:15Z</time>
      </trkpt>
      <trkpt lat="48.73323" lon="1.75729">
        <ele>181</ele>
        <time>2018-08-19T06:48:19Z</time>
      </trkpt>
      <trkpt lat="48.73329" lon="1.75726">
        <ele>180</ele>
        <time>2018-08-19T06:48:23Z</time>
      </trkpt>
      <trkpt lat="48.73333" lon="1.75725">
        <ele>180</ele>
        <time>2018-08-19T06:48:27Z</time>
      </trkpt>
      <trkpt lat="48.73337" lon="1.75723">
        <ele>180</ele>
        <time>2018-08-19T06:48:31Z</time>
      </trkpt>
      <trkpt lat="48.73342" lon="1.75722">
        <ele>180</ele>
        <time>2018-08-19T06:48:36Z</time>
      </trkpt>
      <trkpt lat="48.73349" lon="1.75719">
        <ele>180</ele>
        <time>2018-08-19T06:48:40Z</time>
      </trkpt>
      <trkpt lat="48.73353" lon="1.75714">
        <ele>180</ele>
        <time>2018-08-19T06:48:44Z</time>
      </trkpt>
      <trkpt lat="48.73358" lon="1.7571">
        <ele>180</ele>
        <time>2018-08-19T06:48:48Z</time>
      </trkpt>
      <trkpt lat="48.73363" lon="1.75705">
        <ele>181</ele>
        <time>2018-08-19T06:48:53Z</time>
      </trkpt>
      <trkpt lat="48.73367" lon="1.75701">
        <ele>183</ele>
        <time>2018-08-19T06:48:57Z</time>
      </trkpt>
      <trkpt lat="48.73368" lon="1.75698">
        <ele>185</ele>
        <time>2018-08-19T06:49:01Z</time>
      </trkpt>
      <trkpt lat="48.73371" lon="1.75697">
        <ele>186</ele>
        <time>2018-08-19T06:49:05Z</time>
      </trkpt>
      <trkpt lat="48.73377" lon="1.75695">
        <ele>187</ele>
        <time>2018-08-19T06:49:09Z</time>
      </trkpt>
      <trkpt lat="48.7338" lon="1.75691">
        <ele>187</ele>
        <time>2018-08-19T06:49:13Z</time>
      </trkpt>
      <trkpt lat="48.73387" lon="1.75688">
        <ele>187</ele>
        <time>2018-08-19T06:49:19Z</time>
      </trkpt>
      <trkpt lat="48.73391" lon="1.75683">
        <ele>187</ele>
        <time>2018-08-19T06:49:24Z</time>
      </trkpt>
      <trkpt lat="48.73397" lon="1.7568">
        <ele>187</ele>
        <time>2018-08-19T06:49:28Z</time>
      </trkpt>
      <trkpt lat="48.73405" lon="1.75676">
        <ele>187</ele>
        <time>2018-08-19T06:49:32Z</time>
      </trkpt>
      <trkpt lat="48.73407" lon="1.75671">
        <ele>187</ele>
        <time>2018-08-19T06:49:36Z</time>
      </trkpt>
      <trkpt lat="48.73409" lon="1.75667">
        <ele>187</ele>
        <time>2018-08-19T06:49:40Z</time>
      </trkpt>
      <trkpt lat="48.73417" lon="1.75663">
        <ele>187</ele>
        <time>2018-08-19T06:49:44Z</time>
      </trkpt>
      <trkpt lat="48.73423" lon="1.7566">
        <ele>187</ele>
        <time>2018-08-19T06:49:48Z</time>
      </trkpt>
      <trkpt lat="48.73426" lon="1.75658">
        <ele>187</ele>
        <time>2018-08-19T06:49:52Z</time>
      </trkpt>
      <trkpt lat="48.73433" lon="1.75656">
        <ele>184</ele>
        <time>2018-08-19T06:49:56Z</time>
      </trkpt>
      <trkpt lat="48.73438" lon="1.75653">
        <ele>183</ele>
        <time>2018-08-19T06:50:00Z</time>
      </trkpt>
      <trkpt lat="48.73444" lon="1.75649">
        <ele>182</ele>
        <time>2018-08-19T06:50:04Z</time>
      </trkpt>
      <trkpt lat="48.73449" lon="1.75645">
        <ele>181</ele>
        <time>2018-08-19T06:50:08Z</time>
      </trkpt>
      <trkpt lat="48.73454" lon="1.7564">
        <ele>181</ele>
        <time>2018-08-19T06:50:12Z</time>
      </trkpt>
      <trkpt lat="48.73461" lon="1.75637">
        <ele>181</ele>
        <time>2018-08-19T06:50:16Z</time>
      </trkpt>
      <trkpt lat="48.73466" lon="1.75632">
        <ele>181</ele>
        <time>2018-08-19T06:50:20Z</time>
      </trkpt>
      <trkpt lat="48.73469" lon="1.75625">
        <ele>181</ele>
        <time>2018-08-19T06:50:25Z</time>
      </trkpt>
      <trkpt lat="48.73475" lon="1.75621">
        <ele>183</ele>
        <time>2018-08-19T06:50:29Z</time>
      </trkpt>
      <trkpt lat="48.7348" lon="1.75616">
        <ele>187</ele>
        <time>2018-08-19T06:50:36Z</time>
      </trkpt>
      <trkpt lat="48.73485" lon="1.75615">
        <ele>190</ele>
        <time>2018-08-19T06:50:41Z</time>
      </trkpt>
      <trkpt lat="48.73491" lon="1.75614">
        <ele>190</ele>
        <time>2018-08-19T06:50:45Z</time>
      </trkpt>
      <trkpt lat="48.73499" lon="1.75608">
        <ele>190</ele>
        <time>2018-08-19T06:50:51Z</time>
      </trkpt>
      <trkpt lat="48.73503" lon="1.75601">
        <ele>190</ele>
        <time>2018-08-19T06:50:56Z</time>
      </trkpt>
      <trkpt lat="48.73508" lon="1.75597">
        <ele>187</ele>
        <time>2018-08-19T06:51:00Z</time>
      </trkpt>
      <trkpt lat="48.73512" lon="1.75592">
        <ele>184</ele>
        <time>2018-08-19T06:51:05Z</time>
      </trkpt>
      <trkpt lat="48.73515" lon="1.75588">
        <ele>182</ele>
        <time>2018-08-19T06:51:10Z</time>
      </trkpt>
      <trkpt lat="48.73519" lon="1.75583">
        <ele>182</ele>
        <time>2018-08-19T06:51:14Z</time>
      </trkpt>
      <trkpt lat="48.73526" lon="1.75578">
        <ele>182</ele>
        <time>2018-08-19T06:51:18Z</time>
      </trkpt>
      <trkpt lat="48.73531" lon="1.75574">
        <ele>182</ele>
        <time>2018-08-19T06:51:22Z</time>
      </trkpt>
      <trkpt lat="48.73535" lon="1.75574">
        <ele>182</ele>
        <time>2018-08-19T06:51:26Z</time>
      </trkpt>
      <trkpt lat="48.73541" lon="1.75573">
        <ele>182</ele>
        <time>2018-08-19T06:51:31Z</time>
      </trkpt>
      <trkpt lat="48.73546" lon="1.75569">
        <ele>182</ele>
        <time>2018-08-19T06:51:35Z</time>
      </trkpt>
      <trkpt lat="48.73551" lon="1.75566">
        <ele>181</ele>
        <time>2018-08-19T06:51:40Z</time>
      </trkpt>
      <trkpt lat="48.73555" lon="1.75562">
        <ele>179</ele>
        <time>2018-08-19T06:51:44Z</time>
      </trkpt>
      <trkpt lat="48.73558" lon="1.75561">
        <ele>179</ele>
        <time>2018-08-19T06:51:48Z</time>
      </trkpt>
      <trkpt lat="48.73562" lon="1.75557">
        <ele>179</ele>
        <time>2018-08-19T06:51:52Z</time>
      </trkpt>
      <trkpt lat="48.73566" lon="1.75555">
        <ele>179</ele>
        <time>2018-08-19T06:51:56Z</time>
      </trkpt>
      <trkpt lat="48.73571" lon="1.75551">
        <ele>179</ele>
        <time>2018-08-19T06:52:00Z</time>
      </trkpt>
      <trkpt lat="48.73576" lon="1.75548">
        <ele>178</ele>
        <time>2018-08-19T06:52:05Z</time>
      </trkpt>
      <trkpt lat="48.73581" lon="1.75545">
        <ele>177</ele>
        <time>2018-08-19T06:52:09Z</time>
      </trkpt>
      <trkpt lat="48.73587" lon="1.75543">
        <ele>177</ele>
        <time>2018-08-19T06:52:13Z</time>
      </trkpt>
      <trkpt lat="48.73592" lon="1.75541">
        <ele>177</ele>
        <time>2018-08-19T06:52:17Z</time>
      </trkpt>
      <trkpt lat="48.73599" lon="1.75539">
        <ele>176</ele>
        <time>2018-08-19T06:52:21Z</time>
      </trkpt>
      <trkpt lat="48.73603" lon="1.75538">
        <ele>176</ele>
        <time>2018-08-19T06:52:25Z</time>
      </trkpt>
      <trkpt lat="48.73609" lon="1.75537">
        <ele>176</ele>
        <time>2018-08-19T06:52:30Z</time>
      </trkpt>
      <trkpt lat="48.73614" lon="1.75535">
        <ele>176</ele>
        <time>2018-08-19T06:52:34Z</time>
      </trkpt>
      <trkpt lat="48.7362" lon="1.75532">
        <ele>176</ele>
        <time>2018-08-19T06:52:39Z</time>
      </trkpt>
      <trkpt lat="48.73628" lon="1.7553">
        <ele>176</ele>
        <time>2018-08-19T06:52:44Z</time>
      </trkpt>
      <trkpt lat="48.73634" lon="1.75529">
        <ele>178</ele>
        <time>2018-08-19T06:52:48Z</time>
      </trkpt>
      <trkpt lat="48.7364" lon="1.75529">
        <ele>179</ele>
        <time>2018-08-19T06:52:52Z</time>
      </trkpt>
      <trkpt lat="48.73645" lon="1.75529">
        <ele>179</ele>
        <time>2018-08-19T06:52:56Z</time>
      </trkpt>
      <trkpt lat="48.73651" lon="1.75529">
        <ele>179</ele>
        <time>2018-08-19T06:53:00Z</time>
      </trkpt>
      <trkpt lat="48.73657" lon="1.75528">
        <ele>179</ele>
        <time>2018-08-19T06:53:04Z</time>
      </trkpt>
      <trkpt lat="48.73662" lon="1.75529">
        <ele>179</ele>
        <time>2018-08-19T06:53:09Z</time>
      </trkpt>
      <trkpt lat="48.73668" lon="1.7553">
        <ele>179</ele>
        <time>2018-08-19T06:53:14Z</time>
      </trkpt>
      <trkpt lat="48.73673" lon="1.75534">
        <ele>178</ele>
        <time>2018-08-19T06:53:19Z</time>
      </trkpt>
      <trkpt lat="48.73677" lon="1.75536">
        <ele>178</ele>
        <time>2018-08-19T06:53:23Z</time>
      </trkpt>
      <trkpt lat="48.73684" lon="1.75537">
        <ele>178</ele>
        <time>2018-08-19T06:53:27Z</time>
      </trkpt>
      <trkpt lat="48.7369" lon="1.75539">
        <ele>178</ele>
        <time>2018-08-19T06:53:31Z</time>
      </trkpt>
      <trkpt lat="48.73697" lon="1.7554">
        <ele>179</ele>
        <time>2018-08-19T06:53:35Z</time>
      </trkpt>
      <trkpt lat="48.73703" lon="1.75543">
        <ele>181</ele>
        <time>2018-08-19T06:53:39Z</time>
      </trkpt>
      <trkpt lat="48.73708" lon="1.75546">
        <ele>181</ele>
        <time>2018-08-19T06:53:44Z</time>
      </trkpt>
      <trkpt lat="48.73714" lon="1.75547">
        <ele>181</ele>
        <time>2018-08-19T06:53:48Z</time>
      </trkpt>
      <trkpt lat="48.73717" lon="1.75545">
        <ele>181</ele>
        <time>2018-08-19T06:53:52Z</time>
      </trkpt>
      <trkpt lat="48.7372" lon="1.75543">
        <ele>181</ele>
        <time>2018-08-19T06:53:56Z</time>
      </trkpt>
      <trkpt lat="48.73724" lon="1.75542">
        <ele>181</ele>
        <time>2018-08-19T06:54:00Z</time>
      </trkpt>
      <trkpt lat="48.73727" lon="1.75544">
        <ele>181</ele>
        <time>2018-08-19T06:54:04Z</time>
      </trkpt>
      <trkpt lat="48.73732" lon="1.75548">
        <ele>180</ele>
        <time>2018-08-19T06:54:08Z</time>
      </trkpt>
      <trkpt lat="48.73737" lon="1.75551">
        <ele>179</ele>
        <time>2018-08-19T06:54:12Z</time>
      </trkpt>
      <trkpt lat="48.73743" lon="1.75555">
        <ele>177</ele>
        <time>2018-08-19T06:54:17Z</time>
      </trkpt>
      <trkpt lat="48.73748" lon="1.75556">
        <ele>177</ele>
        <time>2018-08-19T06:54:21Z</time>
      </trkpt>
      <trkpt lat="48.73751" lon="1.75557">
        <ele>177</ele>
        <time>2018-08-19T06:54:25Z</time>
      </trkpt>
      <trkpt lat="48.73757" lon="1.75558">
        <ele>177</ele>
        <time>2018-08-19T06:54:29Z</time>
      </trkpt>
      <trkpt lat="48.7376" lon="1.75559">
        <ele>177</ele>
        <time>2018-08-19T06:54:34Z</time>
      </trkpt>
      <trkpt lat="48.73766" lon="1.75559">
        <ele>177</ele>
        <time>2018-08-19T06:54:39Z</time>
      </trkpt>
      <trkpt lat="48.73769" lon="1.75559">
        <ele>177</ele>
        <time>2018-08-19T06:54:43Z</time>
      </trkpt>
      <trkpt lat="48.73771" lon="1.75559">
        <ele>178</ele>
        <time>2018-08-19T06:54:48Z</time>
      </trkpt>
      <trkpt lat="48.73774" lon="1.75559">
        <ele>178</ele>
        <time>2018-08-19T06:54:52Z</time>
      </trkpt>
      <trkpt lat="48.73777" lon="1.75561">
        <ele>180</ele>
        <time>2018-08-19T06:54:57Z</time>
      </trkpt>
      <trkpt lat="48.73777" lon="1.75564">
        <ele>181</ele>
        <time>2018-08-19T06:55:03Z</time>
      </trkpt>
      <trkpt lat="48.73775" lon="1.75567">
        <ele>185</ele>
        <time>2018-08-19T06:55:12Z</time>
      </trkpt>
      <trkpt lat="48.73772" lon="1.75568">
        <ele>186</ele>
        <time>2018-08-19T06:55:16Z</time>
      </trkpt>
      <trkpt lat="48.7377" lon="1.75568">
        <ele>187</ele>
        <time>2018-08-19T06:55:21Z</time>
      </trkpt>
      <trkpt lat="48.73768" lon="1.75568">
        <ele>187</ele>
        <time>2018-08-19T06:55:25Z</time>
      </trkpt>
      <trkpt lat="48.73768" lon="1.75565">
        <ele>188</ele>
        <time>2018-08-19T06:55:36Z</time>
      </trkpt>
      <trkpt lat="48.73769" lon="1.75566">
        <ele>188</ele>
        <time>2018-08-19T06:55:46Z</time>
      </trkpt>
      <trkpt lat="48.7377" lon="1.75569">
        <ele>188</ele>
        <time>2018-08-19T06:55:57Z</time>
      </trkpt>
      <trkpt lat="48.73771" lon="1.7557">
        <ele>188</ele>
        <time>2018-08-19T06:56:05Z</time>
      </trkpt>
      <trkpt lat="48.73773" lon="1.75571">
        <ele>188</ele>
        <time>2018-08-19T06:56:09Z</time>
      </trkpt>
      <trkpt lat="48.73776" lon="1.75569">
        <ele>188</ele>
        <time>2018-08-19T06:56:15Z</time>
      </trkpt>
      <trkpt lat="48.73778" lon="1.75568">
        <ele>186</ele>
        <time>2018-08-19T06:56:19Z</time>
      </trkpt>
      <trkpt lat="48.73781" lon="1.75568">
        <ele>185</ele>
        <time>2018-08-19T06:56:27Z</time>
      </trkpt>
      <trkpt lat="48.73783" lon="1.75565">
        <ele>185</ele>
        <time>2018-08-19T06:56:33Z</time>
      </trkpt>
      <trkpt lat="48.73782" lon="1.75565">
        <ele>185</ele>
        <time>2018-08-19T06:56:37Z</time>
      </trkpt>
      <trkpt lat="48.73779" lon="1.75567">
        <ele>185</ele>
        <time>2018-08-19T06:56:41Z</time>
      </trkpt>
      <trkpt lat="48.7378" lon="1.75568">
        <ele>185</ele>
        <time>2018-08-19T06:56:49Z</time>
      </trkpt>
      <trkpt lat="48.73785" lon="1.75569">
        <ele>185</ele>
        <time>2018-08-19T06:56:54Z</time>
      </trkpt>
      <trkpt lat="48.73784" lon="1.75573">
        <ele>185</ele>
        <time>2018-08-19T06:56:59Z</time>
      </trkpt>
      <trkpt lat="48.73782" lon="1.75574">
        <ele>185</ele>
        <time>2018-08-19T06:57:04Z</time>
      </trkpt>
      <trkpt lat="48.73781" lon="1.75572">
        <ele>185</ele>
        <time>2018-08-19T06:57:10Z</time>
      </trkpt>
      <trkpt lat="48.7378" lon="1.7557">
        <ele>185</ele>
        <time>2018-08-19T06:57:15Z</time>
      </trkpt>
      <trkpt lat="48.73781" lon="1.75568">
        <ele>185</ele>
        <time>2018-08-19T06:57:19Z</time>
      </trkpt>
      <trkpt lat="48.73785" lon="1.75571">
        <ele>185</ele>
        <time>2018-08-19T06:57:23Z</time>
      </trkpt>
      <trkpt lat="48.73789" lon="1.75573">
        <ele>184</ele>
        <time>2018-08-19T06:57:27Z</time>
      </trkpt>
      <trkpt lat="48.73793" lon="1.75575">
        <ele>184</ele>
        <time>2018-08-19T06:57:32Z</time>
      </trkpt>
      <trkpt lat="48.73798" lon="1.75575">
        <ele>184</ele>
        <time>2018-08-19T06:57:37Z</time>
      </trkpt>
      <trkpt lat="48.73802" lon="1.75577">
        <ele>183</ele>
        <time>2018-08-19T06:57:41Z</time>
      </trkpt>
      <trkpt lat="48.73807" lon="1.75577">
        <ele>183</ele>
        <time>2018-08-19T06:57:45Z</time>
      </trkpt>
      <trkpt lat="48.73813" lon="1.75577">
        <ele>183</ele>
        <time>2018-08-19T06:57:50Z</time>
      </trkpt>
      <trkpt lat="48.73817" lon="1.75578">
        <ele>183</ele>
        <time>2018-08-19T06:57:54Z</time>
      </trkpt>
      <trkpt lat="48.7382" lon="1.75579">
        <ele>183</ele>
        <time>2018-08-19T06:57:58Z</time>
      </trkpt>
      <trkpt lat="48.73824" lon="1.7558">
        <ele>183</ele>
        <time>2018-08-19T06:58:02Z</time>
      </trkpt>
      <trkpt lat="48.73829" lon="1.75583">
        <ele>183</ele>
        <time>2018-08-19T06:58:07Z</time>
      </trkpt>
      <trkpt lat="48.73833" lon="1.75585">
        <ele>183</ele>
        <time>2018-08-19T06:58:11Z</time>
      </trkpt>
      <trkpt lat="48.73839" lon="1.75587">
        <ele>183</ele>
        <time>2018-08-19T06:58:15Z</time>
      </trkpt>
      <trkpt lat="48.73844" lon="1.75589">
        <ele>183</ele>
        <time>2018-08-19T06:58:19Z</time>
      </trkpt>
      <trkpt lat="48.73852" lon="1.75592">
        <ele>182</ele>
        <time>2018-08-19T06:58:24Z</time>
      </trkpt>
      <trkpt lat="48.73856" lon="1.75596">
        <ele>180</ele>
        <time>2018-08-19T06:58:28Z</time>
      </trkpt>
      <trkpt lat="48.73861" lon="1.75597">
        <ele>179</ele>
        <time>2018-08-19T06:58:32Z</time>
      </trkpt>
      <trkpt lat="48.73865" lon="1.75599">
        <ele>177</ele>
        <time>2018-08-19T06:58:36Z</time>
      </trkpt>
      <trkpt lat="48.7387" lon="1.756">
        <ele>177</ele>
        <time>2018-08-19T06:58:40Z</time>
      </trkpt>
      <trkpt lat="48.73875" lon="1.75601">
        <ele>177</ele>
        <time>2018-08-19T06:58:45Z</time>
      </trkpt>
      <trkpt lat="48.73881" lon="1.75603">
        <ele>177</ele>
        <time>2018-08-19T06:58:49Z</time>
      </trkpt>
      <trkpt lat="48.73888" lon="1.75603">
        <ele>177</ele>
        <time>2018-08-19T06:58:53Z</time>
      </trkpt>
      <trkpt lat="48.73895" lon="1.75604">
        <ele>177</ele>
        <time>2018-08-19T06:58:57Z</time>
      </trkpt>
      <trkpt lat="48.739" lon="1.75606">
        <ele>178</ele>
        <time>2018-08-19T06:59:01Z</time>
      </trkpt>
      <trkpt lat="48.73905" lon="1.75608">
        <ele>178</ele>
        <time>2018-08-19T06:59:05Z</time>
      </trkpt>
      <trkpt lat="48.7391" lon="1.7561">
        <ele>178</ele>
        <time>2018-08-19T06:59:09Z</time>
      </trkpt>
      <trkpt lat="48.73916" lon="1.75612">
        <ele>178</ele>
        <time>2018-08-19T06:59:13Z</time>
      </trkpt>
      <trkpt lat="48.73922" lon="1.75614">
        <ele>178</ele>
        <time>2018-08-19T06:59:17Z</time>
      </trkpt>
      <trkpt lat="48.73927" lon="1.75615">
        <ele>178</ele>
        <time>2018-08-19T06:59:21Z</time>
      </trkpt>
      <trkpt lat="48.73934" lon="1.75617">
        <ele>178</ele>
        <time>2018-08-19T06:59:25Z</time>
      </trkpt>
      <trkpt lat="48.7394" lon="1.75621">
        <ele>178</ele>
        <time>2018-08-19T06:59:29Z</time>
      </trkpt>
      <trkpt lat="48.73947" lon="1.75627">
        <ele>178</ele>
        <time>2018-08-19T06:59:33Z</time>
      </trkpt>
      <trkpt lat="48.73954" lon="1.75632">
        <ele>178</ele>
        <time>2018-08-19T06:59:37Z</time>
      </trkpt>
      <trkpt lat="48.73958" lon="1.75641">
        <ele>178</ele>
        <time>2018-08-19T06:59:41Z</time>
      </trkpt>
      <trkpt lat="48.73958" lon="1.75652">
        <ele>178</ele>
        <time>2018-08-19T06:59:45Z</time>
      </trkpt>
      <trkpt lat="48.73956" lon="1.75662">
        <ele>178</ele>
        <time>2018-08-19T06:59:49Z</time>
      </trkpt>
      <trkpt lat="48.73955" lon="1.75671">
        <ele>178</ele>
        <time>2018-08-19T06:59:53Z</time>
      </trkpt>
      <trkpt lat="48.73952" lon="1.75681">
        <ele>178</ele>
        <time>2018-08-19T06:59:57Z</time>
      </trkpt>
      <trkpt lat="48.7395" lon="1.7569">
        <ele>178</ele>
        <time>2018-08-19T07:00:01Z</time>
      </trkpt>
      <trkpt lat="48.73948" lon="1.75698">
        <ele>178</ele>
        <time>2018-08-19T07:00:05Z</time>
      </trkpt>
      <trkpt lat="48.73946" lon="1.75708">
        <ele>178</ele>
        <time>2018-08-19T07:00:09Z</time>
      </trkpt>
      <trkpt lat="48.73943" lon="1.75717">
        <ele>178</ele>
        <time>2018-08-19T07:00:13Z</time>
      </trkpt>
      <trkpt lat="48.73941" lon="1.75725">
        <ele>178</ele>
        <time>2018-08-19T07:00:17Z</time>
      </trkpt>
      <trkpt lat="48.73938" lon="1.75733">
        <ele>178</ele>
        <time>2018-08-19T07:00:21Z</time>
      </trkpt>
      <trkpt lat="48.73935" lon="1.75743">
        <ele>177</ele>
        <time>2018-08-19T07:00:25Z</time>
      </trkpt>
      <trkpt lat="48.73935" lon="1.75752">
        <ele>177</ele>
        <time>2018-08-19T07:00:29Z</time>
      </trkpt>
      <trkpt lat="48.73932" lon="1.75761">
        <ele>177</ele>
        <time>2018-08-19T07:00:33Z</time>
      </trkpt>
      <trkpt lat="48.73931" lon="1.7577">
        <ele>177</ele>
        <time>2018-08-19T07:00:37Z</time>
      </trkpt>
      <trkpt lat="48.7393" lon="1.75779">
        <ele>177</ele>
        <time>2018-08-19T07:00:41Z</time>
      </trkpt>
      <trkpt lat="48.73929" lon="1.75788">
        <ele>177</ele>
        <time>2018-08-19T07:00:45Z</time>
      </trkpt>
      <trkpt lat="48.73927" lon="1.75798">
        <ele>177</ele>
        <time>2018-08-19T07:00:49Z</time>
      </trkpt>
      <trkpt lat="48.73925" lon="1.75807">
        <ele>177</ele>
        <time>2018-08-19T07:00:53Z</time>
      </trkpt>
      <trkpt lat="48.73923" lon="1.75815">
        <ele>177</ele>
        <time>2018-08-19T07:00:57Z</time>
      </trkpt>
      <trkpt lat="48.73921" lon="1.75824">
        <ele>177</ele>
        <time>2018-08-19T07:01:01Z</time>
      </trkpt>
      <trkpt lat="48.7392" lon="1.75833">
        <ele>177</ele>
        <time>2018-08-19T07:01:05Z</time>
      </trkpt>
      <trkpt lat="48.73917" lon="1.75843">
        <ele>177</ele>
        <time>2018-08-19T07:01:09Z</time>
      </trkpt>
      <trkpt lat="48.73914" lon="1.75852">
        <ele>177</ele>
        <time>2018-08-19T07:01:13Z</time>
      </trkpt>
      <trkpt lat="48.73912" lon="1.75861">
        <ele>177</ele>
        <time>2018-08-19T07:01:17Z</time>
      </trkpt>
      <trkpt lat="48.7391" lon="1.75871">
        <ele>177</ele>
        <time>2018-08-19T07:01:21Z</time>
      </trkpt>
      <trkpt lat="48.73909" lon="1.7588">
        <ele>177</ele>
        <time>2018-08-19T07:01:25Z</time>
      </trkpt>
      <trkpt lat="48.73911" lon="1.7589">
        <ele>177</ele>
        <time>2018-08-19T07:01:29Z</time>
      </trkpt>
      <trkpt lat="48.73909" lon="1.75897">
        <ele>177</ele>
        <time>2018-08-19T07:01:33Z</time>
      </trkpt>
      <trkpt lat="48.73908" lon="1.75906">
        <ele>177</ele>
        <time>2018-08-19T07:01:37Z</time>
      </trkpt>
      <trkpt lat="48.73906" lon="1.75914">
        <ele>177</ele>
        <time>2018-08-19T07:01:41Z</time>
      </trkpt>
      <trkpt lat="48.73905" lon="1.75924">
        <ele>177</ele>
        <time>2018-08-19T07:01:45Z</time>
      </trkpt>
      <trkpt lat="48.73903" lon="1.75934">
        <ele>180</ele>
        <time>2018-08-19T07:01:49Z</time>
      </trkpt>
      <trkpt lat="48.739" lon="1.75942">
        <ele>180</ele>
        <time>2018-08-19T07:01:53Z</time>
      </trkpt>
      <trkpt lat="48.73898" lon="1.7595">
        <ele>180</ele>
        <time>2018-08-19T07:01:57Z</time>
      </trkpt>
      <trkpt lat="48.73898" lon="1.75958">
        <ele>180</ele>
        <time>2018-08-19T07:02:01Z</time>
      </trkpt>
      <trkpt lat="48.73897" lon="1.75967">
        <ele>180</ele>
        <time>2018-08-19T07:02:05Z</time>
      </trkpt>
      <trkpt lat="48.73897" lon="1.75976">
        <ele>180</ele>
        <time>2018-08-19T07:02:09Z</time>
      </trkpt>
      <trkpt lat="48.73897" lon="1.75984">
        <ele>180</ele>
        <time>2018-08-19T07:02:13Z</time>
      </trkpt>
      <trkpt lat="48.73893" lon="1.75993">
        <ele>181</ele>
        <time>2018-08-19T07:02:17Z</time>
      </trkpt>
      <trkpt lat="48.73892" lon="1.76001">
        <ele>181</ele>
        <time>2018-08-19T07:02:21Z</time>
      </trkpt>
      <trkpt lat="48.73892" lon="1.76009">
        <ele>182</ele>
        <time>2018-08-19T07:02:25Z</time>
      </trkpt>
      <trkpt lat="48.73892" lon="1.76019">
        <ele>182</ele>
        <time>2018-08-19T07:02:29Z</time>
      </trkpt>
      <trkpt lat="48.73892" lon="1.76029">
        <ele>184</ele>
        <time>2018-08-19T07:02:33Z</time>
      </trkpt>
      <trkpt lat="48.73887" lon="1.76039">
        <ele>186</ele>
        <time>2018-08-19T07:02:38Z</time>
      </trkpt>
      <trkpt lat="48.73885" lon="1.76047">
        <ele>186</ele>
        <time>2018-08-19T07:02:42Z</time>
      </trkpt>
      <trkpt lat="48.73882" lon="1.76055">
        <ele>186</ele>
        <time>2018-08-19T07:02:46Z</time>
      </trkpt>
      <trkpt lat="48.7388" lon="1.76063">
        <ele>186</ele>
        <time>2018-08-19T07:02:50Z</time>
      </trkpt>
      <trkpt lat="48.73878" lon="1.76072">
        <ele>186</ele>
        <time>2018-08-19T07:02:54Z</time>
      </trkpt>
      <trkpt lat="48.73876" lon="1.76081">
        <ele>186</ele>
        <time>2018-08-19T07:02:58Z</time>
      </trkpt>
      <trkpt lat="48.73874" lon="1.7609">
        <ele>186</ele>
        <time>2018-08-19T07:03:02Z</time>
      </trkpt>
      <trkpt lat="48.73872" lon="1.761">
        <ele>186</ele>
        <time>2018-08-19T07:03:06Z</time>
      </trkpt>
      <trkpt lat="48.73871" lon="1.76109">
        <ele>186</ele>
        <time>2018-08-19T07:03:10Z</time>
      </trkpt>
      <trkpt lat="48.73868" lon="1.76117">
        <ele>185</ele>
        <time>2018-08-19T07:03:14Z</time>
      </trkpt>
      <trkpt lat="48.73867" lon="1.76127">
        <ele>185</ele>
        <time>2018-08-19T07:03:18Z</time>
      </trkpt>
      <trkpt lat="48.73865" lon="1.76136">
        <ele>185</ele>
        <time>2018-08-19T07:03:22Z</time>
      </trkpt>
      <trkpt lat="48.73863" lon="1.76144">
        <ele>185</ele>
        <time>2018-08-19T07:03:26Z</time>
      </trkpt>
      <trkpt lat="48.73861" lon="1.76154">
        <ele>184</ele>
        <time>2018-08-19T07:03:30Z</time>
      </trkpt>
      <trkpt lat="48.73859" lon="1.76162">
        <ele>184</ele>
        <time>2018-08-19T07:03:34Z</time>
      </trkpt>
      <trkpt lat="48.73857" lon="1.7617">
        <ele>184</ele>
        <time>2018-08-19T07:03:38Z</time>
      </trkpt>
      <trkpt lat="48.73854" lon="1.76184">
        <ele>184</ele>
        <time>2018-08-19T07:03:42Z</time>
      </trkpt>
      <trkpt lat="48.73853" lon="1.76194">
        <ele>184</ele>
        <time>2018-08-19T07:03:46Z</time>
      </trkpt>
      <trkpt lat="48.73851" lon="1.76204">
        <ele>184</ele>
        <time>2018-08-19T07:03:51Z</time>
      </trkpt>
      <trkpt lat="48.7385" lon="1.76212">
        <ele>184</ele>
        <time>2018-08-19T07:03:55Z</time>
      </trkpt>
      <trkpt lat="48.73847" lon="1.76225">
        <ele>184</ele>
        <time>2018-08-19T07:03:59Z</time>
      </trkpt>
      <trkpt lat="48.73845" lon="1.76232">
        <ele>184</ele>
        <time>2018-08-19T07:04:04Z</time>
      </trkpt>
      <trkpt lat="48.73842" lon="1.7624">
        <ele>183</ele>
        <time>2018-08-19T07:04:08Z</time>
      </trkpt>
      <trkpt lat="48.7384" lon="1.76247">
        <ele>183</ele>
        <time>2018-08-19T07:04:12Z</time>
      </trkpt>
      <trkpt lat="48.73838" lon="1.76256">
        <ele>183</ele>
        <time>2018-08-19T07:04:16Z</time>
      </trkpt>
      <trkpt lat="48.73837" lon="1.76267">
        <ele>183</ele>
        <time>2018-08-19T07:04:22Z</time>
      </trkpt>
      <trkpt lat="48.73835" lon="1.76275">
        <ele>183</ele>
        <time>2018-08-19T07:04:27Z</time>
      </trkpt>
      <trkpt lat="48.73834" lon="1.76284">
        <ele>183</ele>
        <time>2018-08-19T07:04:31Z</time>
      </trkpt>
      <trkpt lat="48.73831" lon="1.76295">
        <ele>183</ele>
        <time>2018-08-19T07:04:35Z</time>
      </trkpt>
      <trkpt lat="48.73829" lon="1.76306">
        <ele>183</ele>
        <time>2018-08-19T07:04:39Z</time>
      </trkpt>
      <trkpt lat="48.73825" lon="1.76317">
        <ele>182</ele>
        <time>2018-08-19T07:04:44Z</time>
      </trkpt>
      <trkpt lat="48.73822" lon="1.76327">
        <ele>179</ele>
        <time>2018-08-19T07:04:49Z</time>
      </trkpt>
      <trkpt lat="48.7382" lon="1.76335">
        <ele>179</ele>
        <time>2018-08-19T07:04:53Z</time>
      </trkpt>
      <trkpt lat="48.73818" lon="1.76344">
        <ele>179</ele>
        <time>2018-08-19T07:04:57Z</time>
      </trkpt>
      <trkpt lat="48.73816" lon="1.76353">
        <ele>178</ele>
        <time>2018-08-19T07:05:01Z</time>
      </trkpt>
      <trkpt lat="48.73815" lon="1.76361">
        <ele>178</ele>
        <time>2018-08-19T07:05:05Z</time>
      </trkpt>
      <trkpt lat="48.73817" lon="1.76364">
        <ele>178</ele>
        <time>2018-08-19T07:05:11Z</time>
      </trkpt>
      <trkpt lat="48.7382" lon="1.76371">
        <ele>178</ele>
        <time>2018-08-19T07:05:16Z</time>
      </trkpt>
      <trkpt lat="48.73823" lon="1.76379">
        <ele>178</ele>
        <time>2018-08-19T07:05:21Z</time>
      </trkpt>
      <trkpt lat="48.73828" lon="1.76385">
        <ele>178</ele>
        <time>2018-08-19T07:05:25Z</time>
      </trkpt>
      <trkpt lat="48.73833" lon="1.76386">
        <ele>178</ele>
        <time>2018-08-19T07:05:29Z</time>
      </trkpt>
      <trkpt lat="48.73841" lon="1.76386">
        <ele>178</ele>
        <time>2018-08-19T07:05:33Z</time>
      </trkpt>
      <trkpt lat="48.73845" lon="1.76385">
        <ele>178</ele>
        <time>2018-08-19T07:05:37Z</time>
      </trkpt>
      <trkpt lat="48.73851" lon="1.76384">
        <ele>178</ele>
        <time>2018-08-19T07:05:42Z</time>
      </trkpt>
      <trkpt lat="48.73858" lon="1.76382">
        <ele>177</ele>
        <time>2018-08-19T07:05:46Z</time>
      </trkpt>
      <trkpt lat="48.73866" lon="1.76381">
        <ele>177</ele>
        <time>2018-08-19T07:05:50Z</time>
      </trkpt>
      <trkpt lat="48.73872" lon="1.7638">
        <ele>177</ele>
        <time>2018-08-19T07:05:54Z</time>
      </trkpt>
      <trkpt lat="48.73879" lon="1.76378">
        <ele>177</ele>
        <time>2018-08-19T07:05:58Z</time>
      </trkpt>
      <trkpt lat="48.73883" lon="1.76377">
        <ele>177</ele>
        <time>2018-08-19T07:06:03Z</time>
      </trkpt>
      <trkpt lat="48.73891" lon="1.76374">
        <ele>177</ele>
        <time>2018-08-19T07:06:08Z</time>
      </trkpt>
      <trkpt lat="48.73898" lon="1.76373">
        <ele>177</ele>
        <time>2018-08-19T07:06:13Z</time>
      </trkpt>
      <trkpt lat="48.73905" lon="1.76371">
        <ele>177</ele>
        <time>2018-08-19T07:06:18Z</time>
      </trkpt>
      <trkpt lat="48.73912" lon="1.76369">
        <ele>176</ele>
        <time>2018-08-19T07:06:23Z</time>
      </trkpt>
      <trkpt lat="48.73919" lon="1.76368">
        <ele>176</ele>
        <time>2018-08-19T07:06:28Z</time>
      </trkpt>
      <trkpt lat="48.73926" lon="1.76367">
        <ele>174</ele>
        <time>2018-08-19T07:06:33Z</time>
      </trkpt>
      <trkpt lat="48.73933" lon="1.76366">
        <ele>174</ele>
        <time>2018-08-19T07:06:38Z</time>
      </trkpt>
      <trkpt lat="48.73939" lon="1.76363">
        <ele>174</ele>
        <time>2018-08-19T07:06:43Z</time>
      </trkpt>
      <trkpt lat="48.73946" lon="1.76361">
        <ele>174</ele>
        <time>2018-08-19T07:06:48Z</time>
      </trkpt>
      <trkpt lat="48.73954" lon="1.76359">
        <ele>174</ele>
        <time>2018-08-19T07:06:53Z</time>
      </trkpt>
      <trkpt lat="48.73961" lon="1.76358">
        <ele>174</ele>
        <time>2018-08-19T07:06:57Z</time>
      </trkpt>
      <trkpt lat="48.73967" lon="1.76357">
        <ele>174</ele>
        <time>2018-08-19T07:07:01Z</time>
      </trkpt>
      <trkpt lat="48.73974" lon="1.76357">
        <ele>174</ele>
        <time>2018-08-19T07:07:05Z</time>
      </trkpt>
      <trkpt lat="48.73979" lon="1.76358">
        <ele>174</ele>
        <time>2018-08-19T07:07:09Z</time>
      </trkpt>
      <trkpt lat="48.73985" lon="1.76357">
        <ele>174</ele>
        <time>2018-08-19T07:07:13Z</time>
      </trkpt>
      <trkpt lat="48.7399" lon="1.76355">
        <ele>174</ele>
        <time>2018-08-19T07:07:18Z</time>
      </trkpt>
      <trkpt lat="48.73997" lon="1.76354">
        <ele>174</ele>
        <time>2018-08-19T07:07:23Z</time>
      </trkpt>
      <trkpt lat="48.74004" lon="1.76353">
        <ele>174</ele>
        <time>2018-08-19T07:07:28Z</time>
      </trkpt>
      <trkpt lat="48.74011" lon="1.76349">
        <ele>174</ele>
        <time>2018-08-19T07:07:33Z</time>
      </trkpt>
      <trkpt lat="48.74018" lon="1.76346">
        <ele>174</ele>
        <time>2018-08-19T07:07:38Z</time>
      </trkpt>
      <trkpt lat="48.74026" lon="1.76342">
        <ele>174</ele>
        <time>2018-08-19T07:07:43Z</time>
      </trkpt>
      <trkpt lat="48.74033" lon="1.76338">
        <ele>174</ele>
        <time>2018-08-19T07:07:48Z</time>
      </trkpt>
      <trkpt lat="48.74041" lon="1.76334">
        <ele>174</ele>
        <time>2018-08-19T07:07:54Z</time>
      </trkpt>
      <trkpt lat="48.74052" lon="1.76335">
        <ele>176</ele>
        <time>2018-08-19T07:07:59Z</time>
      </trkpt>
      <trkpt lat="48.7406" lon="1.76336">
        <ele>176</ele>
        <time>2018-08-19T07:08:04Z</time>
      </trkpt>
      <trkpt lat="48.7407" lon="1.76335">
        <ele>176</ele>
        <time>2018-08-19T07:08:09Z</time>
      </trkpt>
      <trkpt lat="48.74077" lon="1.76336">
        <ele>176</ele>
        <time>2018-08-19T07:08:13Z</time>
      </trkpt>
      <trkpt lat="48.74081" lon="1.76336">
        <ele>176</ele>
        <time>2018-08-19T07:08:17Z</time>
      </trkpt>
      <trkpt lat="48.74087" lon="1.76338">
        <ele>176</ele>
        <time>2018-08-19T07:08:22Z</time>
      </trkpt>
      <trkpt lat="48.74092" lon="1.7634">
        <ele>176</ele>
        <time>2018-08-19T07:08:26Z</time>
      </trkpt>
      <trkpt lat="48.74098" lon="1.76341">
        <ele>176</ele>
        <time>2018-08-19T07:08:31Z</time>
      </trkpt>
      <trkpt lat="48.74105" lon="1.76342">
        <ele>173</ele>
        <time>2018-08-19T07:08:36Z</time>
      </trkpt>
      <trkpt lat="48.74111" lon="1.76344">
        <ele>169</ele>
        <time>2018-08-19T07:08:40Z</time>
      </trkpt>
      <trkpt lat="48.74117" lon="1.76344">
        <ele>168</ele>
        <time>2018-08-19T07:08:44Z</time>
      </trkpt>
      <trkpt lat="48.74123" lon="1.76345">
        <ele>168</ele>
        <time>2018-08-19T07:08:48Z</time>
      </trkpt>
      <trkpt lat="48.74129" lon="1.76345">
        <ele>168</ele>
        <time>2018-08-19T07:08:52Z</time>
      </trkpt>
      <trkpt lat="48.74135" lon="1.76346">
        <ele>168</ele>
        <time>2018-08-19T07:08:56Z</time>
      </trkpt>
      <trkpt lat="48.74141" lon="1.76346">
        <ele>167</ele>
        <time>2018-08-19T07:09:01Z</time>
      </trkpt>
      <trkpt lat="48.74147" lon="1.76349">
        <ele>167</ele>
        <time>2018-08-19T07:09:05Z</time>
      </trkpt>
      <trkpt lat="48.74151" lon="1.76348">
        <ele>167</ele>
        <time>2018-08-19T07:09:11Z</time>
      </trkpt>
      <trkpt lat="48.74154" lon="1.76348">
        <ele>167</ele>
        <time>2018-08-19T07:09:16Z</time>
      </trkpt>
      <trkpt lat="48.74159" lon="1.7635">
        <ele>167</ele>
        <time>2018-08-19T07:09:21Z</time>
      </trkpt>
      <trkpt lat="48.74166" lon="1.76352">
        <ele>167</ele>
        <time>2018-08-19T07:09:26Z</time>
      </trkpt>
      <trkpt lat="48.74169" lon="1.76352">
        <ele>167</ele>
        <time>2018-08-19T07:09:30Z</time>
      </trkpt>
      <trkpt lat="48.74172" lon="1.76353">
        <ele>167</ele>
        <time>2018-08-19T07:09:34Z</time>
      </trkpt>
      <trkpt lat="48.74173" lon="1.76355">
        <ele>167</ele>
        <time>2018-08-19T07:09:39Z</time>
      </trkpt>
      <trkpt lat="48.74176" lon="1.76354">
        <ele>167</ele>
        <time>2018-08-19T07:09:45Z</time>
      </trkpt>
      <trkpt lat="48.7418" lon="1.76357">
        <ele>165</ele>
        <time>2018-08-19T07:09:51Z</time>
      </trkpt>
      <trkpt lat="48.74184" lon="1.76359">
        <ele>163</ele>
        <time>2018-08-19T07:09:56Z</time>
      </trkpt>
      <trkpt lat="48.74189" lon="1.7636">
        <ele>161</ele>
        <time>2018-08-19T07:10:02Z</time>
      </trkpt>
      <trkpt lat="48.74194" lon="1.76362">
        <ele>160</ele>
        <time>2018-08-19T07:10:07Z</time>
      </trkpt>
      <trkpt lat="48.74198" lon="1.76363">
        <ele>160</ele>
        <time>2018-08-19T07:10:12Z</time>
      </trkpt>
      <trkpt lat="48.74205" lon="1.76363">
        <ele>160</ele>
        <time>2018-08-19T07:10:16Z</time>
      </trkpt>
      <trkpt lat="48.74209" lon="1.76365">
        <ele>160</ele>
        <time>2018-08-19T07:10:20Z</time>
      </trkpt>
      <trkpt lat="48.74215" lon="1.76366">
        <ele>160</ele>
        <time>2018-08-19T07:10:25Z</time>
      </trkpt>
      <trkpt lat="48.74224" lon="1.76367">
        <ele>160</ele>
        <time>2018-08-19T07:10:29Z</time>
      </trkpt>
      <trkpt lat="48.74228" lon="1.76369">
        <ele>162</ele>
        <time>2018-08-19T07:10:34Z</time>
      </trkpt>
      <trkpt lat="48.74229" lon="1.76373">
        <ele>164</ele>
        <time>2018-08-19T07:10:40Z</time>
      </trkpt>
      <trkpt lat="48.74226" lon="1.76382">
        <ele>164</ele>
        <time>2018-08-19T07:10:44Z</time>
      </trkpt>
      <trkpt lat="48.74223" lon="1.7639">
        <ele>164</ele>
        <time>2018-08-19T07:10:48Z</time>
      </trkpt>
      <trkpt lat="48.74218" lon="1.76401">
        <ele>164</ele>
        <time>2018-08-19T07:10:52Z</time>
      </trkpt>
      <trkpt lat="48.74216" lon="1.7641">
        <ele>164</ele>
        <time>2018-08-19T07:10:56Z</time>
      </trkpt>
      <trkpt lat="48.74214" lon="1.76421">
        <ele>161</ele>
        <time>2018-08-19T07:11:00Z</time>
      </trkpt>
      <trkpt lat="48.74213" lon="1.76431">
        <ele>161</ele>
        <time>2018-08-19T07:11:04Z</time>
      </trkpt>
      <trkpt lat="48.74214" lon="1.7644">
        <ele>161</ele>
        <time>2018-08-19T07:11:08Z</time>
      </trkpt>
      <trkpt lat="48.74216" lon="1.76448">
        <ele>161</ele>
        <time>2018-08-19T07:11:12Z</time>
      </trkpt>
      <trkpt lat="48.74217" lon="1.76456">
        <ele>161</ele>
        <time>2018-08-19T07:11:16Z</time>
      </trkpt>
      <trkpt lat="48.74221" lon="1.76465">
        <ele>161</ele>
        <time>2018-08-19T07:11:20Z</time>
      </trkpt>
      <trkpt lat="48.74225" lon="1.76474">
        <ele>161</ele>
        <time>2018-08-19T07:11:25Z</time>
      </trkpt>
      <trkpt lat="48.74227" lon="1.76481">
        <ele>161</ele>
        <time>2018-08-19T07:11:29Z</time>
      </trkpt>
      <trkpt lat="48.7423" lon="1.76486">
        <ele>161</ele>
        <time>2018-08-19T07:11:33Z</time>
      </trkpt>
      <trkpt lat="48.74234" lon="1.76494">
        <ele>160</ele>
        <time>2018-08-19T07:11:37Z</time>
      </trkpt>
      <trkpt lat="48.74237" lon="1.76502">
        <ele>160</ele>
        <time>2018-08-19T07:11:41Z</time>
      </trkpt>
      <trkpt lat="48.7424" lon="1.7651">
        <ele>160</ele>
        <time>2018-08-19T07:11:45Z</time>
      </trkpt>
      <trkpt lat="48.74241" lon="1.76519">
        <ele>159</ele>
        <time>2018-08-19T07:11:49Z</time>
      </trkpt>
      <trkpt lat="48.74244" lon="1.76529">
        <ele>159</ele>
        <time>2018-08-19T07:11:53Z</time>
      </trkpt>
      <trkpt lat="48.74244" lon="1.76537">
        <ele>159</ele>
        <time>2018-08-19T07:11:57Z</time>
      </trkpt>
      <trkpt lat="48.74244" lon="1.76546">
        <ele>158</ele>
        <time>2018-08-19T07:12:01Z</time>
      </trkpt>
      <trkpt lat="48.74243" lon="1.76555">
        <ele>158</ele>
        <time>2018-08-19T07:12:05Z</time>
      </trkpt>
      <trkpt lat="48.74242" lon="1.76564">
        <ele>157</ele>
        <time>2018-08-19T07:12:09Z</time>
      </trkpt>
      <trkpt lat="48.74239" lon="1.76572">
        <ele>156</ele>
        <time>2018-08-19T07:12:13Z</time>
      </trkpt>
      <trkpt lat="48.74239" lon="1.7658">
        <ele>155</ele>
        <time>2018-08-19T07:12:17Z</time>
      </trkpt>
      <trkpt lat="48.74238" lon="1.76589">
        <ele>154</ele>
        <time>2018-08-19T07:12:22Z</time>
      </trkpt>
      <trkpt lat="48.74237" lon="1.766">
        <ele>153</ele>
        <time>2018-08-19T07:12:27Z</time>
      </trkpt>
      <trkpt lat="48.74234" lon="1.7661">
        <ele>153</ele>
        <time>2018-08-19T07:12:32Z</time>
      </trkpt>
      <trkpt lat="48.74231" lon="1.76619">
        <ele>152</ele>
        <time>2018-08-19T07:12:36Z</time>
      </trkpt>
      <trkpt lat="48.7423" lon="1.76627">
        <ele>152</ele>
        <time>2018-08-19T07:12:40Z</time>
      </trkpt>
      <trkpt lat="48.74229" lon="1.76635">
        <ele>152</ele>
        <time>2018-08-19T07:12:44Z</time>
      </trkpt>
      <trkpt lat="48.74226" lon="1.76643">
        <ele>152</ele>
        <time>2018-08-19T07:12:48Z</time>
      </trkpt>
      <trkpt lat="48.74225" lon="1.76652">
        <ele>152</ele>
        <time>2018-08-19T07:12:52Z</time>
      </trkpt>
      <trkpt lat="48.74222" lon="1.76662">
        <ele>151</ele>
        <time>2018-08-19T07:12:56Z</time>
      </trkpt>
      <trkpt lat="48.7422" lon="1.76671">
        <ele>151</ele>
        <time>2018-08-19T07:13:00Z</time>
      </trkpt>
      <trkpt lat="48.74219" lon="1.7668">
        <ele>151</ele>
        <time>2018-08-19T07:13:04Z</time>
      </trkpt>
      <trkpt lat="48.74217" lon="1.76689">
        <ele>151</ele>
        <time>2018-08-19T07:13:08Z</time>
      </trkpt>
      <trkpt lat="48.74216" lon="1.76697">
        <ele>151</ele>
        <time>2018-08-19T07:13:12Z</time>
      </trkpt>
      <trkpt lat="48.74214" lon="1.76706">
        <ele>150</ele>
        <time>2018-08-19T07:13:16Z</time>
      </trkpt>
      <trkpt lat="48.74212" lon="1.76715">
        <ele>150</ele>
        <time>2018-08-19T07:13:20Z</time>
      </trkpt>
      <trkpt lat="48.7421" lon="1.76724">
        <ele>149</ele>
        <time>2018-08-19T07:13:24Z</time>
      </trkpt>
      <trkpt lat="48.74209" lon="1.76732">
        <ele>149</ele>
        <time>2018-08-19T07:13:28Z</time>
      </trkpt>
      <trkpt lat="48.74207" lon="1.76741">
        <ele>148</ele>
        <time>2018-08-19T07:13:32Z</time>
      </trkpt>
      <trkpt lat="48.74205" lon="1.7675">
        <ele>148</ele>
        <time>2018-08-19T07:13:36Z</time>
      </trkpt>
      <trkpt lat="48.74203" lon="1.76759">
        <ele>148</ele>
        <time>2018-08-19T07:13:40Z</time>
      </trkpt>
      <trkpt lat="48.74202" lon="1.76768">
        <ele>148</ele>
        <time>2018-08-19T07:13:44Z</time>
      </trkpt>
      <trkpt lat="48.742" lon="1.76776">
        <ele>148</ele>
        <time>2018-08-19T07:13:48Z</time>
      </trkpt>
      <trkpt lat="48.74201" lon="1.76782">
        <ele>148</ele>
        <time>2018-08-19T07:13:53Z</time>
      </trkpt>
      <trkpt lat="48.74206" lon="1.76784">
        <ele>148</ele>
        <time>2018-08-19T07:13:57Z</time>
      </trkpt>
      <trkpt lat="48.74209" lon="1.76791">
        <ele>148</ele>
        <time>2018-08-19T07:14:01Z</time>
      </trkpt>
      <trkpt lat="48.74209" lon="1.76799">
        <ele>148</ele>
        <time>2018-08-19T07:14:05Z</time>
      </trkpt>
      <trkpt lat="48.74209" lon="1.76806">
        <ele>148</ele>
        <time>2018-08-19T07:14:09Z</time>
      </trkpt>
      <trkpt lat="48.74213" lon="1.76814">
        <ele>148</ele>
        <time>2018-08-19T07:14:13Z</time>
      </trkpt>
      <trkpt lat="48.74216" lon="1.76822">
        <ele>148</ele>
        <time>2018-08-19T07:14:17Z</time>
      </trkpt>
      <trkpt lat="48.74217" lon="1.76832">
        <ele>149</ele>
        <time>2018-08-19T07:14:21Z</time>
      </trkpt>
      <trkpt lat="48.74218" lon="1.76841">
        <ele>149</ele>
        <time>2018-08-19T07:14:25Z</time>
      </trkpt>
      <trkpt lat="48.7422" lon="1.76851">
        <ele>150</ele>
        <time>2018-08-19T07:14:29Z</time>
      </trkpt>
      <trkpt lat="48.74223" lon="1.7686">
        <ele>152</ele>
        <time>2018-08-19T07:14:33Z</time>
      </trkpt>
      <trkpt lat="48.74225" lon="1.76871">
        <ele>154</ele>
        <time>2018-08-19T07:14:37Z</time>
      </trkpt>
      <trkpt lat="48.74225" lon="1.7688">
        <ele>155</ele>
        <time>2018-08-19T07:14:41Z</time>
      </trkpt>
      <trkpt lat="48.74225" lon="1.76886">
        <ele>155</ele>
        <time>2018-08-19T07:14:45Z</time>
      </trkpt>
      <trkpt lat="48.74225" lon="1.76896">
        <ele>155</ele>
        <time>2018-08-19T07:14:49Z</time>
      </trkpt>
      <trkpt lat="48.74229" lon="1.76906">
        <ele>155</ele>
        <time>2018-08-19T07:14:53Z</time>
      </trkpt>
      <trkpt lat="48.74229" lon="1.76915">
        <ele>155</ele>
        <time>2018-08-19T07:14:57Z</time>
      </trkpt>
      <trkpt lat="48.74232" lon="1.76925">
        <ele>155</ele>
        <time>2018-08-19T07:15:01Z</time>
      </trkpt>
      <trkpt lat="48.74234" lon="1.76935">
        <ele>155</ele>
        <time>2018-08-19T07:15:05Z</time>
      </trkpt>
      <trkpt lat="48.74234" lon="1.76945">
        <ele>155</ele>
        <time>2018-08-19T07:15:09Z</time>
      </trkpt>
      <trkpt lat="48.74234" lon="1.76955">
        <ele>155</ele>
        <time>2018-08-19T07:15:13Z</time>
      </trkpt>
      <trkpt lat="48.74235" lon="1.76964">
        <ele>155</ele>
        <time>2018-08-19T07:15:17Z</time>
      </trkpt>
      <trkpt lat="48.74233" lon="1.76974">
        <ele>153</ele>
        <time>2018-08-19T07:15:22Z</time>
      </trkpt>
      <trkpt lat="48.74228" lon="1.76986">
        <ele>148</ele>
        <time>2018-08-19T07:15:26Z</time>
      </trkpt>
      <trkpt lat="48.74225" lon="1.76996">
        <ele>144</ele>
        <time>2018-08-19T07:15:30Z</time>
      </trkpt>
      <trkpt lat="48.74222" lon="1.77006">
        <ele>142</ele>
        <time>2018-08-19T07:15:34Z</time>
      </trkpt>
      <trkpt lat="48.74219" lon="1.77015">
        <ele>139</ele>
        <time>2018-08-19T07:15:38Z</time>
      </trkpt>
      <trkpt lat="48.74218" lon="1.77026">
        <ele>137</ele>
        <time>2018-08-19T07:15:42Z</time>
      </trkpt>
      <trkpt lat="48.74215" lon="1.77034">
        <ele>135</ele>
        <time>2018-08-19T07:15:46Z</time>
      </trkpt>
      <trkpt lat="48.74211" lon="1.77042">
        <ele>135</ele>
        <time>2018-08-19T07:15:50Z</time>
      </trkpt>
      <trkpt lat="48.74209" lon="1.7705">
        <ele>133</ele>
        <time>2018-08-19T07:15:54Z</time>
      </trkpt>
      <trkpt lat="48.74204" lon="1.77058">
        <ele>133</ele>
        <time>2018-08-19T07:15:58Z</time>
      </trkpt>
      <trkpt lat="48.742" lon="1.77066">
        <ele>134</ele>
        <time>2018-08-19T07:16:02Z</time>
      </trkpt>
      <trkpt lat="48.74196" lon="1.77074">
        <ele>136</ele>
        <time>2018-08-19T07:16:06Z</time>
      </trkpt>
      <trkpt lat="48.74192" lon="1.77082">
        <ele>138</ele>
        <time>2018-08-19T07:16:10Z</time>
      </trkpt>
      <trkpt lat="48.74188" lon="1.7709">
        <ele>139</ele>
        <time>2018-08-19T07:16:14Z</time>
      </trkpt>
      <trkpt lat="48.74182" lon="1.77097">
        <ele>141</ele>
        <time>2018-08-19T07:16:18Z</time>
      </trkpt>
      <trkpt lat="48.74178" lon="1.77104">
        <ele>144</ele>
        <time>2018-08-19T07:16:22Z</time>
      </trkpt>
      <trkpt lat="48.74175" lon="1.77109">
        <ele>144</ele>
        <time>2018-08-19T07:16:26Z</time>
      </trkpt>
      <trkpt lat="48.74169" lon="1.77117">
        <ele>144</ele>
        <time>2018-08-19T07:16:31Z</time>
      </trkpt>
      <trkpt lat="48.74164" lon="1.77123">
        <ele>145</ele>
        <time>2018-08-19T07:16:35Z</time>
      </trkpt>
      <trkpt lat="48.74159" lon="1.77128">
        <ele>147</ele>
        <time>2018-08-19T07:16:39Z</time>
      </trkpt>
      <trkpt lat="48.74154" lon="1.77131">
        <ele>149</ele>
        <time>2018-08-19T07:16:43Z</time>
      </trkpt>
      <trkpt lat="48.74147" lon="1.77136">
        <ele>150</ele>
        <time>2018-08-19T07:16:47Z</time>
      </trkpt>
      <trkpt lat="48.74143" lon="1.7714">
        <ele>151</ele>
        <time>2018-08-19T07:16:51Z</time>
      </trkpt>
      <trkpt lat="48.74138" lon="1.77146">
        <ele>151</ele>
        <time>2018-08-19T07:16:55Z</time>
      </trkpt>
      <trkpt lat="48.74132" lon="1.77152">
        <ele>151</ele>
        <time>2018-08-19T07:16:59Z</time>
      </trkpt>
      <trkpt lat="48.74128" lon="1.77157">
        <ele>151</ele>
        <time>2018-08-19T07:17:03Z</time>
      </trkpt>
      <trkpt lat="48.74123" lon="1.77164">
        <ele>151</ele>
        <time>2018-08-19T07:17:08Z</time>
      </trkpt>
      <trkpt lat="48.74119" lon="1.7717">
        <ele>151</ele>
        <time>2018-08-19T07:17:12Z</time>
      </trkpt>
      <trkpt lat="48.74115" lon="1.77177">
        <ele>151</ele>
        <time>2018-08-19T07:17:16Z</time>
      </trkpt>
      <trkpt lat="48.74112" lon="1.77184">
        <ele>151</ele>
        <time>2018-08-19T07:17:20Z</time>
      </trkpt>
      <trkpt lat="48.74108" lon="1.77191">
        <ele>151</ele>
        <time>2018-08-19T07:17:24Z</time>
      </trkpt>
      <trkpt lat="48.74104" lon="1.772">
        <ele>151</ele>
        <time>2018-08-19T07:17:28Z</time>
      </trkpt>
      <trkpt lat="48.74101" lon="1.77208">
        <ele>151</ele>
        <time>2018-08-19T07:17:32Z</time>
      </trkpt>
      <trkpt lat="48.74098" lon="1.77216">
        <ele>151</ele>
        <time>2018-08-19T07:17:36Z</time>
      </trkpt>
      <trkpt lat="48.74097" lon="1.77224">
        <ele>151</ele>
        <time>2018-08-19T07:17:40Z</time>
      </trkpt>
      <trkpt lat="48.74097" lon="1.77233">
        <ele>151</ele>
        <time>2018-08-19T07:17:44Z</time>
      </trkpt>
      <trkpt lat="48.74093" lon="1.77241">
        <ele>151</ele>
        <time>2018-08-19T07:17:48Z</time>
      </trkpt>
      <trkpt lat="48.7409" lon="1.7725">
        <ele>151</ele>
        <time>2018-08-19T07:17:52Z</time>
      </trkpt>
      <trkpt lat="48.74088" lon="1.77258">
        <ele>151</ele>
        <time>2018-08-19T07:17:56Z</time>
      </trkpt>
      <trkpt lat="48.74085" lon="1.77266">
        <ele>151</ele>
        <time>2018-08-19T07:18:00Z</time>
      </trkpt>
      <trkpt lat="48.74083" lon="1.77274">
        <ele>151</ele>
        <time>2018-08-19T07:18:04Z</time>
      </trkpt>
      <trkpt lat="48.74081" lon="1.77281">
        <ele>151</ele>
        <time>2018-08-19T07:18:08Z</time>
      </trkpt>
      <trkpt lat="48.74078" lon="1.77289">
        <ele>151</ele>
        <time>2018-08-19T07:18:12Z</time>
      </trkpt>
      <trkpt lat="48.74075" lon="1.77298">
        <ele>151</ele>
        <time>2018-08-19T07:18:16Z</time>
      </trkpt>
      <trkpt lat="48.74071" lon="1.77305">
        <ele>152</ele>
        <time>2018-08-19T07:18:20Z</time>
      </trkpt>
      <trkpt lat="48.74065" lon="1.77306">
        <ele>153</ele>
        <time>2018-08-19T07:18:25Z</time>
      </trkpt>
      <trkpt lat="48.74058" lon="1.77299">
        <ele>155</ele>
        <time>2018-08-19T07:18:30Z</time>
      </trkpt>
      <trkpt lat="48.74054" lon="1.77294">
        <ele>155</ele>
        <time>2018-08-19T07:18:34Z</time>
      </trkpt>
      <trkpt lat="48.74048" lon="1.77291">
        <ele>156</ele>
        <time>2018-08-19T07:18:38Z</time>
      </trkpt>
      <trkpt lat="48.74044" lon="1.77288">
        <ele>156</ele>
        <time>2018-08-19T07:18:42Z</time>
      </trkpt>
      <trkpt lat="48.7404" lon="1.77287">
        <ele>157</ele>
        <time>2018-08-19T07:18:46Z</time>
      </trkpt>
      <trkpt lat="48.74034" lon="1.77288">
        <ele>158</ele>
        <time>2018-08-19T07:18:51Z</time>
      </trkpt>
      <trkpt lat="48.74029" lon="1.77286">
        <ele>159</ele>
        <time>2018-08-19T07:18:55Z</time>
      </trkpt>
      <trkpt lat="48.74022" lon="1.77286">
        <ele>159</ele>
        <time>2018-08-19T07:18:59Z</time>
      </trkpt>
      <trkpt lat="48.74016" lon="1.77286">
        <ele>159</ele>
        <time>2018-08-19T07:19:03Z</time>
      </trkpt>
      <trkpt lat="48.74009" lon="1.77288">
        <ele>160</ele>
        <time>2018-08-19T07:19:08Z</time>
      </trkpt>
      <trkpt lat="48.74001" lon="1.7729">
        <ele>160</ele>
        <time>2018-08-19T07:19:12Z</time>
      </trkpt>
      <trkpt lat="48.73997" lon="1.7729">
        <ele>160</ele>
        <time>2018-08-19T07:19:17Z</time>
      </trkpt>
      <trkpt lat="48.73992" lon="1.77293">
        <ele>160</ele>
        <time>2018-08-19T07:19:21Z</time>
      </trkpt>
      <trkpt lat="48.73986" lon="1.77294">
        <ele>160</ele>
        <time>2018-08-19T07:19:25Z</time>
      </trkpt>
      <trkpt lat="48.7398" lon="1.77298">
        <ele>160</ele>
        <time>2018-08-19T07:19:29Z</time>
      </trkpt>
      <trkpt lat="48.73975" lon="1.77302">
        <ele>161</ele>
        <time>2018-08-19T07:19:33Z</time>
      </trkpt>
      <trkpt lat="48.73969" lon="1.77303">
        <ele>161</ele>
        <time>2018-08-19T07:19:37Z</time>
      </trkpt>
      <trkpt lat="48.73964" lon="1.77306">
        <ele>162</ele>
        <time>2018-08-19T07:19:41Z</time>
      </trkpt>
      <trkpt lat="48.73959" lon="1.77308">
        <ele>162</ele>
        <time>2018-08-19T07:19:45Z</time>
      </trkpt>
      <trkpt lat="48.73956" lon="1.77309">
        <ele>162</ele>
        <time>2018-08-19T07:19:49Z</time>
      </trkpt>
      <trkpt lat="48.73954" lon="1.7731">
        <ele>161</ele>
        <time>2018-08-19T07:19:53Z</time>
      </trkpt>
      <trkpt lat="48.73949" lon="1.77311">
        <ele>159</ele>
        <time>2018-08-19T07:19:57Z</time>
      </trkpt>
      <trkpt lat="48.73943" lon="1.77315">
        <ele>159</ele>
        <time>2018-08-19T07:20:01Z</time>
      </trkpt>
      <trkpt lat="48.73935" lon="1.77318">
        <ele>159</ele>
        <time>2018-08-19T07:20:05Z</time>
      </trkpt>
      <trkpt lat="48.73929" lon="1.77319">
        <ele>159</ele>
        <time>2018-08-19T07:20:09Z</time>
      </trkpt>
      <trkpt lat="48.73924" lon="1.77319">
        <ele>159</ele>
        <time>2018-08-19T07:20:13Z</time>
      </trkpt>
      <trkpt lat="48.73917" lon="1.77321">
        <ele>159</ele>
        <time>2018-08-19T07:20:17Z</time>
      </trkpt>
      <trkpt lat="48.73912" lon="1.77325">
        <ele>158</ele>
        <time>2018-08-19T07:20:21Z</time>
      </trkpt>
      <trkpt lat="48.73908" lon="1.77328">
        <ele>156</ele>
        <time>2018-08-19T07:20:26Z</time>
      </trkpt>
      <trkpt lat="48.73901" lon="1.77332">
        <ele>156</ele>
        <time>2018-08-19T07:20:30Z</time>
      </trkpt>
      <trkpt lat="48.73894" lon="1.77337">
        <ele>156</ele>
        <time>2018-08-19T07:20:34Z</time>
      </trkpt>
      <trkpt lat="48.73887" lon="1.77339">
        <ele>156</ele>
        <time>2018-08-19T07:20:38Z</time>
      </trkpt>
      <trkpt lat="48.7388" lon="1.77341">
        <ele>156</ele>
        <time>2018-08-19T07:20:42Z</time>
      </trkpt>
      <trkpt lat="48.73875" lon="1.77344">
        <ele>156</ele>
        <time>2018-08-19T07:20:47Z</time>
      </trkpt>
      <trkpt lat="48.73869" lon="1.77347">
        <ele>156</ele>
        <time>2018-08-19T07:20:53Z</time>
      </trkpt>
      <trkpt lat="48.73863" lon="1.77349">
        <ele>156</ele>
        <time>2018-08-19T07:20:57Z</time>
      </trkpt>
      <trkpt lat="48.73859" lon="1.7735">
        <ele>155</ele>
        <time>2018-08-19T07:21:01Z</time>
      </trkpt>
      <trkpt lat="48.73855" lon="1.77352">
        <ele>154</ele>
        <time>2018-08-19T07:21:05Z</time>
      </trkpt>
      <trkpt lat="48.7385" lon="1.77353">
        <ele>154</ele>
        <time>2018-08-19T07:21:09Z</time>
      </trkpt>
      <trkpt lat="48.73843" lon="1.77356">
        <ele>154</ele>
        <time>2018-08-19T07:21:13Z</time>
      </trkpt>
      <trkpt lat="48.73836" lon="1.7736">
        <ele>154</ele>
        <time>2018-08-19T07:21:17Z</time>
      </trkpt>
      <trkpt lat="48.73831" lon="1.77365">
        <ele>154</ele>
        <time>2018-08-19T07:21:21Z</time>
      </trkpt>
      <trkpt lat="48.73827" lon="1.7737">
        <ele>154</ele>
        <time>2018-08-19T07:21:25Z</time>
      </trkpt>
      <trkpt lat="48.73826" lon="1.77372">
        <ele>154</ele>
        <time>2018-08-19T07:21:30Z</time>
      </trkpt>
      <trkpt lat="48.73827" lon="1.77373">
        <ele>154</ele>
        <time>2018-08-19T07:21:40Z</time>
      </trkpt>
      <trkpt lat="48.73828" lon="1.77375">
        <ele>154</ele>
        <time>2018-08-19T07:21:45Z</time>
      </trkpt>
      <trkpt lat="48.73828" lon="1.7738">
        <ele>154</ele>
        <time>2018-08-19T07:21:49Z</time>
      </trkpt>
      <trkpt lat="48.73829" lon="1.77384">
        <ele>154</ele>
        <time>2018-08-19T07:21:53Z</time>
      </trkpt>
      <trkpt lat="48.73833" lon="1.77389">
        <ele>154</ele>
        <time>2018-08-19T07:21:57Z</time>
      </trkpt>
      <trkpt lat="48.73838" lon="1.77394">
        <ele>154</ele>
        <time>2018-08-19T07:22:01Z</time>
      </trkpt>
      <trkpt lat="48.73843" lon="1.77398">
        <ele>154</ele>
        <time>2018-08-19T07:22:05Z</time>
      </trkpt>
      <trkpt lat="48.7385" lon="1.77402">
        <ele>155</ele>
        <time>2018-08-19T07:22:09Z</time>
      </trkpt>
      <trkpt lat="48.73856" lon="1.77406">
        <ele>159</ele>
        <time>2018-08-19T07:22:13Z</time>
      </trkpt>
      <trkpt lat="48.7386" lon="1.77414">
        <ele>163</ele>
        <time>2018-08-19T07:22:18Z</time>
      </trkpt>
      <trkpt lat="48.7386" lon="1.77422">
        <ele>164</ele>
        <time>2018-08-19T07:22:22Z</time>
      </trkpt>
      <trkpt lat="48.7386" lon="1.77429">
        <ele>164</ele>
        <time>2018-08-19T07:22:28Z</time>
      </trkpt>
      <trkpt lat="48.7386" lon="1.77434">
        <ele>164</ele>
        <time>2018-08-19T07:22:33Z</time>
      </trkpt>
      <trkpt lat="48.73858" lon="1.7744">
        <ele>164</ele>
        <time>2018-08-19T07:22:38Z</time>
      </trkpt>
      <trkpt lat="48.73856" lon="1.77437">
        <ele>164</ele>
        <time>2018-08-19T07:22:43Z</time>
      </trkpt>
      <trkpt lat="48.73852" lon="1.77428">
        <ele>164</ele>
        <time>2018-08-19T07:22:47Z</time>
      </trkpt>
      <trkpt lat="48.73848" lon="1.7742">
        <ele>164</ele>
        <time>2018-08-19T07:22:51Z</time>
      </trkpt>
      <trkpt lat="48.73843" lon="1.77413">
        <ele>164</ele>
        <time>2018-08-19T07:22:55Z</time>
      </trkpt>
      <trkpt lat="48.73838" lon="1.77408">
        <ele>164</ele>
        <time>2018-08-19T07:22:59Z</time>
      </trkpt>
      <trkpt lat="48.73832" lon="1.77402">
        <ele>164</ele>
        <time>2018-08-19T07:23:03Z</time>
      </trkpt>
      <trkpt lat="48.73827" lon="1.77397">
        <ele>164</ele>
        <time>2018-08-19T07:23:07Z</time>
      </trkpt>
      <trkpt lat="48.73822" lon="1.77392">
        <ele>164</ele>
        <time>2018-08-19T07:23:12Z</time>
      </trkpt>
      <trkpt lat="48.73816" lon="1.77396">
        <ele>164</ele>
        <time>2018-08-19T07:23:17Z</time>
      </trkpt>
      <trkpt lat="48.73813" lon="1.77401">
        <ele>163</ele>
        <time>2018-08-19T07:23:22Z</time>
      </trkpt>
      <trkpt lat="48.73809" lon="1.77411">
        <ele>163</ele>
        <time>2018-08-19T07:23:26Z</time>
      </trkpt>
      <trkpt lat="48.73806" lon="1.77419">
        <ele>163</ele>
        <time>2018-08-19T07:23:30Z</time>
      </trkpt>
      <trkpt lat="48.73804" lon="1.77428">
        <ele>162</ele>
        <time>2018-08-19T07:23:34Z</time>
      </trkpt>
      <trkpt lat="48.73801" lon="1.77436">
        <ele>160</ele>
        <time>2018-08-19T07:23:38Z</time>
      </trkpt>
      <trkpt lat="48.73799" lon="1.77442">
        <ele>160</ele>
        <time>2018-08-19T07:23:42Z</time>
      </trkpt>
      <trkpt lat="48.73799" lon="1.77447">
        <ele>160</ele>
        <time>2018-08-19T07:23:46Z</time>
      </trkpt>
      <trkpt lat="48.73798" lon="1.77452">
        <ele>160</ele>
        <time>2018-08-19T07:23:51Z</time>
      </trkpt>
      <trkpt lat="48.73799" lon="1.7746">
        <ele>160</ele>
        <time>2018-08-19T07:23:55Z</time>
      </trkpt>
      <trkpt lat="48.738" lon="1.7747">
        <ele>160</ele>
        <time>2018-08-19T07:23:59Z</time>
      </trkpt>
      <trkpt lat="48.73801" lon="1.77478">
        <ele>160</ele>
        <time>2018-08-19T07:24:04Z</time>
      </trkpt>
      <trkpt lat="48.73804" lon="1.77478">
        <ele>160</ele>
        <time>2018-08-19T07:24:10Z</time>
      </trkpt>
      <trkpt lat="48.73805" lon="1.7748">
        <ele>160</ele>
        <time>2018-08-19T07:24:15Z</time>
      </trkpt>
      <trkpt lat="48.73805" lon="1.77483">
        <ele>159</ele>
        <time>2018-08-19T07:24:30Z</time>
      </trkpt>
      <trkpt lat="48.73805" lon="1.77485">
        <ele>158</ele>
        <time>2018-08-19T07:24:48Z</time>
      </trkpt>
      <trkpt lat="48.73806" lon="1.77486">
        <ele>158</ele>
        <time>2018-08-19T07:24:53Z</time>
      </trkpt>
      <trkpt lat="48.73808" lon="1.77488">
        <ele>158</ele>
        <time>2018-08-19T07:25:03Z</time>
      </trkpt>
      <trkpt lat="48.73809" lon="1.77488">
        <ele>156</ele>
        <time>2018-08-19T07:25:07Z</time>
      </trkpt>
      <trkpt lat="48.73809" lon="1.77492">
        <ele>156</ele>
        <time>2018-08-19T07:25:12Z</time>
      </trkpt>
      <trkpt lat="48.73811" lon="1.77491">
        <ele>156</ele>
        <time>2018-08-19T07:25:30Z</time>
      </trkpt>
      <trkpt lat="48.7381" lon="1.7749">
        <ele>155</ele>
        <time>2018-08-19T07:25:48Z</time>
      </trkpt>
      <trkpt lat="48.73809" lon="1.77489">
        <ele>155</ele>
        <time>2018-08-19T07:25:52Z</time>
      </trkpt>
      <trkpt lat="48.73806" lon="1.77488">
        <ele>155</ele>
        <time>2018-08-19T07:25:57Z</time>
      </trkpt>
      <trkpt lat="48.73803" lon="1.7749">
        <ele>155</ele>
        <time>2018-08-19T07:26:01Z</time>
      </trkpt>
      <trkpt lat="48.73802" lon="1.77497">
        <ele>155</ele>
        <time>2018-08-19T07:26:06Z</time>
      </trkpt>
      <trkpt lat="48.73799" lon="1.775">
        <ele>155</ele>
        <time>2018-08-19T07:26:10Z</time>
      </trkpt>
      <trkpt lat="48.73795" lon="1.77493">
        <ele>155</ele>
        <time>2018-08-19T07:26:14Z</time>
      </trkpt>
      <trkpt lat="48.73792" lon="1.77485">
        <ele>155</ele>
        <time>2018-08-19T07:26:18Z</time>
      </trkpt>
      <trkpt lat="48.73791" lon="1.77477">
        <ele>155</ele>
        <time>2018-08-19T07:26:22Z</time>
      </trkpt>
      <trkpt lat="48.73791" lon="1.77468">
        <ele>155</ele>
        <time>2018-08-19T07:26:26Z</time>
      </trkpt>
      <trkpt lat="48.73792" lon="1.77459">
        <ele>155</ele>
        <time>2018-08-19T07:26:30Z</time>
      </trkpt>
      <trkpt lat="48.73794" lon="1.77452">
        <ele>154</ele>
        <time>2018-08-19T07:26:34Z</time>
      </trkpt>
      <trkpt lat="48.73798" lon="1.77444">
        <ele>154</ele>
        <time>2018-08-19T07:26:38Z</time>
      </trkpt>
      <trkpt lat="48.73801" lon="1.77434">
        <ele>154</ele>
        <time>2018-08-19T07:26:42Z</time>
      </trkpt>
      <trkpt lat="48.73805" lon="1.77426">
        <ele>153</ele>
        <time>2018-08-19T07:26:46Z</time>
      </trkpt>
      <trkpt lat="48.73807" lon="1.77417">
        <ele>153</ele>
        <time>2018-08-19T07:26:50Z</time>
      </trkpt>
      <trkpt lat="48.7381" lon="1.7741">
        <ele>153</ele>
        <time>2018-08-19T07:26:54Z</time>
      </trkpt>
      <trkpt lat="48.73813" lon="1.77402">
        <ele>153</ele>
        <time>2018-08-19T07:26:58Z</time>
      </trkpt>
      <trkpt lat="48.73816" lon="1.77393">
        <ele>153</ele>
        <time>2018-08-19T07:27:02Z</time>
      </trkpt>
      <trkpt lat="48.73821" lon="1.77388">
        <ele>153</ele>
        <time>2018-08-19T07:27:06Z</time>
      </trkpt>
      <trkpt lat="48.73826" lon="1.77386">
        <ele>153</ele>
        <time>2018-08-19T07:27:10Z</time>
      </trkpt>
      <trkpt lat="48.73832" lon="1.77388">
        <ele>153</ele>
        <time>2018-08-19T07:27:14Z</time>
      </trkpt>
      <trkpt lat="48.73837" lon="1.77392">
        <ele>153</ele>
        <time>2018-08-19T07:27:18Z</time>
      </trkpt>
      <trkpt lat="48.73841" lon="1.77395">
        <ele>154</ele>
        <time>2018-08-19T07:27:22Z</time>
      </trkpt>
      <trkpt lat="48.73846" lon="1.77397">
        <ele>156</ele>
        <time>2018-08-19T07:27:26Z</time>
      </trkpt>
      <trkpt lat="48.73851" lon="1.77403">
        <ele>160</ele>
        <time>2018-08-19T07:27:31Z</time>
      </trkpt>
      <trkpt lat="48.73854" lon="1.77411">
        <ele>162</ele>
        <time>2018-08-19T07:27:36Z</time>
      </trkpt>
      <trkpt lat="48.73856" lon="1.77418">
        <ele>163</ele>
        <time>2018-08-19T07:27:40Z</time>
      </trkpt>
      <trkpt lat="48.73858" lon="1.77426">
        <ele>163</ele>
        <time>2018-08-19T07:27:44Z</time>
      </trkpt>
      <trkpt lat="48.7386" lon="1.77433">
        <ele>163</ele>
        <time>2018-08-19T07:27:48Z</time>
      </trkpt>
      <trkpt lat="48.73864" lon="1.77435">
        <ele>163</ele>
        <time>2018-08-19T07:27:52Z</time>
      </trkpt>
      <trkpt lat="48.73869" lon="1.77437">
        <ele>163</ele>
        <time>2018-08-19T07:27:56Z</time>
      </trkpt>
      <trkpt lat="48.73873" lon="1.77442">
        <ele>163</ele>
        <time>2018-08-19T07:28:00Z</time>
      </trkpt>
      <trkpt lat="48.73877" lon="1.7745">
        <ele>164</ele>
        <time>2018-08-19T07:28:05Z</time>
      </trkpt>
      <trkpt lat="48.7388" lon="1.77457">
        <ele>165</ele>
        <time>2018-08-19T07:28:09Z</time>
      </trkpt>
      <trkpt lat="48.73885" lon="1.77463">
        <ele>166</ele>
        <time>2018-08-19T07:28:14Z</time>
      </trkpt>
      <trkpt lat="48.73892" lon="1.77471">
        <ele>171</ele>
        <time>2018-08-19T07:28:18Z</time>
      </trkpt>
      <trkpt lat="48.73895" lon="1.77477">
        <ele>171</ele>
        <time>2018-08-19T07:28:22Z</time>
      </trkpt>
      <trkpt lat="48.73898" lon="1.77484">
        <ele>171</ele>
        <time>2018-08-19T07:28:26Z</time>
      </trkpt>
      <trkpt lat="48.73903" lon="1.77489">
        <ele>173</ele>
        <time>2018-08-19T07:28:31Z</time>
      </trkpt>
      <trkpt lat="48.73911" lon="1.77493">
        <ele>176</ele>
        <time>2018-08-19T07:28:35Z</time>
      </trkpt>
      <trkpt lat="48.73915" lon="1.77494">
        <ele>180</ele>
        <time>2018-08-19T07:28:39Z</time>
      </trkpt>
      <trkpt lat="48.73917" lon="1.77499">
        <ele>183</ele>
        <time>2018-08-19T07:28:44Z</time>
      </trkpt>
      <trkpt lat="48.73911" lon="1.77498">
        <ele>183</ele>
        <time>2018-08-19T07:28:48Z</time>
      </trkpt>
      <trkpt lat="48.73906" lon="1.77496">
        <ele>183</ele>
        <time>2018-08-19T07:28:52Z</time>
      </trkpt>
      <trkpt lat="48.73902" lon="1.77495">
        <ele>183</ele>
        <time>2018-08-19T07:28:56Z</time>
      </trkpt>
      <trkpt lat="48.73896" lon="1.77493">
        <ele>181</ele>
        <time>2018-08-19T07:29:00Z</time>
      </trkpt>
      <trkpt lat="48.73889" lon="1.77497">
        <ele>176</ele>
        <time>2018-08-19T07:29:05Z</time>
      </trkpt>
      <trkpt lat="48.73886" lon="1.77503">
        <ele>172</ele>
        <time>2018-08-19T07:29:09Z</time>
      </trkpt>
      <trkpt lat="48.73882" lon="1.77511">
        <ele>167</ele>
        <time>2018-08-19T07:29:14Z</time>
      </trkpt>
      <trkpt lat="48.7388" lon="1.77516">
        <ele>163</ele>
        <time>2018-08-19T07:29:18Z</time>
      </trkpt>
      <trkpt lat="48.7388" lon="1.77522">
        <ele>161</ele>
        <time>2018-08-19T07:29:22Z</time>
      </trkpt>
      <trkpt lat="48.73877" lon="1.77531">
        <ele>161</ele>
        <time>2018-08-19T07:29:26Z</time>
      </trkpt>
      <trkpt lat="48.73875" lon="1.7754">
        <ele>159</ele>
        <time>2018-08-19T07:29:30Z</time>
      </trkpt>
      <trkpt lat="48.73873" lon="1.77547">
        <ele>157</ele>
        <time>2018-08-19T07:29:34Z</time>
      </trkpt>
      <trkpt lat="48.73872" lon="1.77554">
        <ele>157</ele>
        <time>2018-08-19T07:29:38Z</time>
      </trkpt>
      <trkpt lat="48.73869" lon="1.77559">
        <ele>157</ele>
        <time>2018-08-19T07:29:42Z</time>
      </trkpt>
      <trkpt lat="48.73868" lon="1.77567">
        <ele>157</ele>
        <time>2018-08-19T07:29:46Z</time>
      </trkpt>
      <trkpt lat="48.73866" lon="1.77575">
        <ele>157</ele>
        <time>2018-08-19T07:29:50Z</time>
      </trkpt>
      <trkpt lat="48.73864" lon="1.77583">
        <ele>157</ele>
        <time>2018-08-19T07:29:55Z</time>
      </trkpt>
      <trkpt lat="48.73864" lon="1.77591">
        <ele>157</ele>
        <time>2018-08-19T07:29:59Z</time>
      </trkpt>
      <trkpt lat="48.73863" lon="1.77598">
        <ele>157</ele>
        <time>2018-08-19T07:30:03Z</time>
      </trkpt>
      <trkpt lat="48.7386" lon="1.77605">
        <ele>157</ele>
        <time>2018-08-19T07:30:07Z</time>
      </trkpt>
      <trkpt lat="48.73857" lon="1.77611">
        <ele>157</ele>
        <time>2018-08-19T07:30:11Z</time>
      </trkpt>
      <trkpt lat="48.73854" lon="1.77618">
        <ele>157</ele>
        <time>2018-08-19T07:30:16Z</time>
      </trkpt>
      <trkpt lat="48.7385" lon="1.77623">
        <ele>157</ele>
        <time>2018-08-19T07:30:20Z</time>
      </trkpt>
      <trkpt lat="48.73848" lon="1.77628">
        <ele>157</ele>
        <time>2018-08-19T07:30:24Z</time>
      </trkpt>
      <trkpt lat="48.73849" lon="1.77635">
        <ele>157</ele>
        <time>2018-08-19T07:30:28Z</time>
      </trkpt>
      <trkpt lat="48.7385" lon="1.77641">
        <ele>157</ele>
        <time>2018-08-19T07:30:32Z</time>
      </trkpt>
      <trkpt lat="48.73851" lon="1.77648">
        <ele>157</ele>
        <time>2018-08-19T07:30:36Z</time>
      </trkpt>
      <trkpt lat="48.7385" lon="1.77656">
        <ele>157</ele>
        <time>2018-08-19T07:30:40Z</time>
      </trkpt>
      <trkpt lat="48.73848" lon="1.77664">
        <ele>157</ele>
        <time>2018-08-19T07:30:44Z</time>
      </trkpt>
      <trkpt lat="48.73847" lon="1.77672">
        <ele>157</ele>
        <time>2018-08-19T07:30:48Z</time>
      </trkpt>
      <trkpt lat="48.73845" lon="1.77681">
        <ele>157</ele>
        <time>2018-08-19T07:30:52Z</time>
      </trkpt>
      <trkpt lat="48.73843" lon="1.7769">
        <ele>157</ele>
        <time>2018-08-19T07:30:56Z</time>
      </trkpt>
      <trkpt lat="48.73842" lon="1.77698">
        <ele>157</ele>
        <time>2018-08-19T07:31:00Z</time>
      </trkpt>
      <trkpt lat="48.7384" lon="1.77706">
        <ele>157</ele>
        <time>2018-08-19T07:31:04Z</time>
      </trkpt>
      <trkpt lat="48.73838" lon="1.77715">
        <ele>157</ele>
        <time>2018-08-19T07:31:08Z</time>
      </trkpt>
      <trkpt lat="48.73836" lon="1.77724">
        <ele>157</ele>
        <time>2018-08-19T07:31:12Z</time>
      </trkpt>
      <trkpt lat="48.73834" lon="1.77732">
        <ele>157</ele>
        <time>2018-08-19T07:31:16Z</time>
      </trkpt>
      <trkpt lat="48.73832" lon="1.77741">
        <ele>157</ele>
        <time>2018-08-19T07:31:20Z</time>
      </trkpt>
      <trkpt lat="48.73832" lon="1.77749">
        <ele>158</ele>
        <time>2018-08-19T07:31:24Z</time>
      </trkpt>
      <trkpt lat="48.7383" lon="1.77758">
        <ele>158</ele>
        <time>2018-08-19T07:31:28Z</time>
      </trkpt>
      <trkpt lat="48.7383" lon="1.77767">
        <ele>158</ele>
        <time>2018-08-19T07:31:32Z</time>
      </trkpt>
      <trkpt lat="48.73829" lon="1.77776">
        <ele>159</ele>
        <time>2018-08-19T07:31:36Z</time>
      </trkpt>
      <trkpt lat="48.73828" lon="1.77784">
        <ele>159</ele>
        <time>2018-08-19T07:31:40Z</time>
      </trkpt>
      <trkpt lat="48.73827" lon="1.77793">
        <ele>159</ele>
        <time>2018-08-19T07:31:44Z</time>
      </trkpt>
      <trkpt lat="48.73826" lon="1.77802">
        <ele>160</ele>
        <time>2018-08-19T07:31:48Z</time>
      </trkpt>
      <trkpt lat="48.73826" lon="1.7781">
        <ele>160</ele>
        <time>2018-08-19T07:31:52Z</time>
      </trkpt>
      <trkpt lat="48.73825" lon="1.77818">
        <ele>160</ele>
        <time>2018-08-19T07:31:56Z</time>
      </trkpt>
      <trkpt lat="48.73823" lon="1.77825">
        <ele>160</ele>
        <time>2018-08-19T07:32:00Z</time>
      </trkpt>
      <trkpt lat="48.73822" lon="1.77834">
        <ele>161</ele>
        <time>2018-08-19T07:32:04Z</time>
      </trkpt>
      <trkpt lat="48.73822" lon="1.77843">
        <ele>161</ele>
        <time>2018-08-19T07:32:08Z</time>
      </trkpt>
      <trkpt lat="48.73823" lon="1.77852">
        <ele>162</ele>
        <time>2018-08-19T07:32:12Z</time>
      </trkpt>
      <trkpt lat="48.73824" lon="1.7786">
        <ele>162</ele>
        <time>2018-08-19T07:32:16Z</time>
      </trkpt>
      <trkpt lat="48.73824" lon="1.77868">
        <ele>163</ele>
        <time>2018-08-19T07:32:20Z</time>
      </trkpt>
      <trkpt lat="48.73825" lon="1.77876">
        <ele>163</ele>
        <time>2018-08-19T07:32:24Z</time>
      </trkpt>
      <trkpt lat="48.73826" lon="1.77885">
        <ele>163</ele>
        <time>2018-08-19T07:32:28Z</time>
      </trkpt>
      <trkpt lat="48.73823" lon="1.77893">
        <ele>164</ele>
        <time>2018-08-19T07:32:32Z</time>
      </trkpt>
      <trkpt lat="48.73821" lon="1.77901">
        <ele>164</ele>
        <time>2018-08-19T07:32:36Z</time>
      </trkpt>
      <trkpt lat="48.73818" lon="1.77909">
        <ele>165</ele>
        <time>2018-08-19T07:32:40Z</time>
      </trkpt>
      <trkpt lat="48.73815" lon="1.77918">
        <ele>166</ele>
        <time>2018-08-19T07:32:44Z</time>
      </trkpt>
      <trkpt lat="48.73812" lon="1.77924">
        <ele>166</ele>
        <time>2018-08-19T07:32:48Z</time>
      </trkpt>
      <trkpt lat="48.73808" lon="1.77929">
        <ele>166</ele>
        <time>2018-08-19T07:32:52Z</time>
      </trkpt>
      <trkpt lat="48.73803" lon="1.77936">
        <ele>166</ele>
        <time>2018-08-19T07:32:57Z</time>
      </trkpt>
      <trkpt lat="48.738" lon="1.77944">
        <ele>166</ele>
        <time>2018-08-19T07:33:01Z</time>
      </trkpt>
      <trkpt lat="48.73797" lon="1.77952">
        <ele>166</ele>
        <time>2018-08-19T07:33:05Z</time>
      </trkpt>
      <trkpt lat="48.73794" lon="1.7796">
        <ele>166</ele>
        <time>2018-08-19T07:33:09Z</time>
      </trkpt>
      <trkpt lat="48.73792" lon="1.77969">
        <ele>166</ele>
        <time>2018-08-19T07:33:13Z</time>
      </trkpt>
      <trkpt lat="48.7379" lon="1.77978">
        <ele>166</ele>
        <time>2018-08-19T07:33:17Z</time>
      </trkpt>
      <trkpt lat="48.73789" lon="1.77986">
        <ele>166</ele>
        <time>2018-08-19T07:33:21Z</time>
      </trkpt>
      <trkpt lat="48.73786" lon="1.77994">
        <ele>166</ele>
        <time>2018-08-19T07:33:25Z</time>
      </trkpt>
      <trkpt lat="48.73784" lon="1.78003">
        <ele>166</ele>
        <time>2018-08-19T07:33:29Z</time>
      </trkpt>
      <trkpt lat="48.73782" lon="1.78011">
        <ele>166</ele>
        <time>2018-08-19T07:33:33Z</time>
      </trkpt>
      <trkpt lat="48.73781" lon="1.78019">
        <ele>166</ele>
        <time>2018-08-19T07:33:37Z</time>
      </trkpt>
      <trkpt lat="48.73779" lon="1.78026">
        <ele>166</ele>
        <time>2018-08-19T07:33:41Z</time>
      </trkpt>
      <trkpt lat="48.73778" lon="1.78034">
        <ele>166</ele>
        <time>2018-08-19T07:33:45Z</time>
      </trkpt>
      <trkpt lat="48.73776" lon="1.78042">
        <ele>166</ele>
        <time>2018-08-19T07:33:49Z</time>
      </trkpt>
      <trkpt lat="48.73774" lon="1.7805">
        <ele>166</ele>
        <time>2018-08-19T07:33:53Z</time>
      </trkpt>
      <trkpt lat="48.73773" lon="1.78058">
        <ele>166</ele>
        <time>2018-08-19T07:33:57Z</time>
      </trkpt>
      <trkpt lat="48.73772" lon="1.78067">
        <ele>166</ele>
        <time>2018-08-19T07:34:01Z</time>
      </trkpt>
      <trkpt lat="48.73772" lon="1.78075">
        <ele>166</ele>
        <time>2018-08-19T07:34:05Z</time>
      </trkpt>
      <trkpt lat="48.73772" lon="1.78084">
        <ele>166</ele>
        <time>2018-08-19T07:34:09Z</time>
      </trkpt>
      <trkpt lat="48.73771" lon="1.78093">
        <ele>166</ele>
        <time>2018-08-19T07:34:13Z</time>
      </trkpt>
      <trkpt lat="48.73769" lon="1.78102">
        <ele>166</ele>
        <time>2018-08-19T07:34:17Z</time>
      </trkpt>
      <trkpt lat="48.73768" lon="1.78111">
        <ele>167</ele>
        <time>2018-08-19T07:34:21Z</time>
      </trkpt>
      <trkpt lat="48.73767" lon="1.78119">
        <ele>168</ele>
        <time>2018-08-19T07:34:25Z</time>
      </trkpt>
      <trkpt lat="48.73765" lon="1.78127">
        <ele>168</ele>
        <time>2018-08-19T07:34:29Z</time>
      </trkpt>
      <trkpt lat="48.73763" lon="1.78134">
        <ele>168</ele>
        <time>2018-08-19T07:34:33Z</time>
      </trkpt>
      <trkpt lat="48.73761" lon="1.78141">
        <ele>168</ele>
        <time>2018-08-19T07:34:37Z</time>
      </trkpt>
      <trkpt lat="48.73758" lon="1.78149">
        <ele>168</ele>
        <time>2018-08-19T07:34:41Z</time>
      </trkpt>
      <trkpt lat="48.73758" lon="1.78157">
        <ele>168</ele>
        <time>2018-08-19T07:34:45Z</time>
      </trkpt>
      <trkpt lat="48.73757" lon="1.78166">
        <ele>168</ele>
        <time>2018-08-19T07:34:49Z</time>
      </trkpt>
      <trkpt lat="48.73756" lon="1.78174">
        <ele>168</ele>
        <time>2018-08-19T07:34:53Z</time>
      </trkpt>
      <trkpt lat="48.73758" lon="1.78181">
        <ele>168</ele>
        <time>2018-08-19T07:34:57Z</time>
      </trkpt>
      <trkpt lat="48.73757" lon="1.78188">
        <ele>169</ele>
        <time>2018-08-19T07:35:01Z</time>
      </trkpt>
      <trkpt lat="48.73758" lon="1.78197">
        <ele>170</ele>
        <time>2018-08-19T07:35:05Z</time>
      </trkpt>
      <trkpt lat="48.73757" lon="1.78205">
        <ele>171</ele>
        <time>2018-08-19T07:35:09Z</time>
      </trkpt>
      <trkpt lat="48.73758" lon="1.78213">
        <ele>172</ele>
        <time>2018-08-19T07:35:13Z</time>
      </trkpt>
      <trkpt lat="48.7376" lon="1.78221">
        <ele>172</ele>
        <time>2018-08-19T07:35:17Z</time>
      </trkpt>
      <trkpt lat="48.7376" lon="1.7823">
        <ele>172</ele>
        <time>2018-08-19T07:35:21Z</time>
      </trkpt>
      <trkpt lat="48.73759" lon="1.78239">
        <ele>172</ele>
        <time>2018-08-19T07:35:25Z</time>
      </trkpt>
      <trkpt lat="48.73758" lon="1.78249">
        <ele>172</ele>
        <time>2018-08-19T07:35:29Z</time>
      </trkpt>
      <trkpt lat="48.73755" lon="1.78257">
        <ele>172</ele>
        <time>2018-08-19T07:35:33Z</time>
      </trkpt>
      <trkpt lat="48.73751" lon="1.78264">
        <ele>172</ele>
        <time>2018-08-19T07:35:37Z</time>
      </trkpt>
      <trkpt lat="48.73747" lon="1.78271">
        <ele>172</ele>
        <time>2018-08-19T07:35:41Z</time>
      </trkpt>
      <trkpt lat="48.73744" lon="1.7828">
        <ele>172</ele>
        <time>2018-08-19T07:35:45Z</time>
      </trkpt>
      <trkpt lat="48.73741" lon="1.78287">
        <ele>172</ele>
        <time>2018-08-19T07:35:49Z</time>
      </trkpt>
      <trkpt lat="48.7374" lon="1.78296">
        <ele>172</ele>
        <time>2018-08-19T07:35:53Z</time>
      </trkpt>
      <trkpt lat="48.73738" lon="1.78304">
        <ele>172</ele>
        <time>2018-08-19T07:35:57Z</time>
      </trkpt>
      <trkpt lat="48.73737" lon="1.78313">
        <ele>172</ele>
        <time>2018-08-19T07:36:01Z</time>
      </trkpt>
      <trkpt lat="48.73736" lon="1.78321">
        <ele>172</ele>
        <time>2018-08-19T07:36:05Z</time>
      </trkpt>
      <trkpt lat="48.73734" lon="1.7833">
        <ele>172</ele>
        <time>2018-08-19T07:36:09Z</time>
      </trkpt>
      <trkpt lat="48.73732" lon="1.78339">
        <ele>172</ele>
        <time>2018-08-19T07:36:13Z</time>
      </trkpt>
      <trkpt lat="48.73731" lon="1.78348">
        <ele>172</ele>
        <time>2018-08-19T07:36:17Z</time>
      </trkpt>
      <trkpt lat="48.73729" lon="1.78356">
        <ele>172</ele>
        <time>2018-08-19T07:36:21Z</time>
      </trkpt>
      <trkpt lat="48.73728" lon="1.78365">
        <ele>172</ele>
        <time>2018-08-19T07:36:25Z</time>
      </trkpt>
      <trkpt lat="48.73727" lon="1.78374">
        <ele>172</ele>
        <time>2018-08-19T07:36:29Z</time>
      </trkpt>
      <trkpt lat="48.73726" lon="1.78383">
        <ele>172</ele>
        <time>2018-08-19T07:36:33Z</time>
      </trkpt>
      <trkpt lat="48.73724" lon="1.78392">
        <ele>172</ele>
        <time>2018-08-19T07:36:37Z</time>
      </trkpt>
      <trkpt lat="48.73723" lon="1.78401">
        <ele>172</ele>
        <time>2018-08-19T07:36:41Z</time>
      </trkpt>
      <trkpt lat="48.73721" lon="1.7841">
        <ele>172</ele>
        <time>2018-08-19T07:36:45Z</time>
      </trkpt>
      <trkpt lat="48.7372" lon="1.78419">
        <ele>172</ele>
        <time>2018-08-19T07:36:49Z</time>
      </trkpt>
      <trkpt lat="48.73719" lon="1.78427">
        <ele>172</ele>
        <time>2018-08-19T07:36:53Z</time>
      </trkpt>
      <trkpt lat="48.73717" lon="1.78435">
        <ele>172</ele>
        <time>2018-08-19T07:36:57Z</time>
      </trkpt>
      <trkpt lat="48.73715" lon="1.78444">
        <ele>172</ele>
        <time>2018-08-19T07:37:01Z</time>
      </trkpt>
      <trkpt lat="48.73713" lon="1.78453">
        <ele>172</ele>
        <time>2018-08-19T07:37:05Z</time>
      </trkpt>
      <trkpt lat="48.73711" lon="1.78461">
        <ele>172</ele>
        <time>2018-08-19T07:37:09Z</time>
      </trkpt>
      <trkpt lat="48.7371" lon="1.7847">
        <ele>172</ele>
        <time>2018-08-19T07:37:13Z</time>
      </trkpt>
      <trkpt lat="48.73708" lon="1.78479">
        <ele>172</ele>
        <time>2018-08-19T07:37:17Z</time>
      </trkpt>
      <trkpt lat="48.73707" lon="1.78488">
        <ele>172</ele>
        <time>2018-08-19T07:37:21Z</time>
      </trkpt>
      <trkpt lat="48.73705" lon="1.78497">
        <ele>172</ele>
        <time>2018-08-19T07:37:25Z</time>
      </trkpt>
      <trkpt lat="48.73703" lon="1.78507">
        <ele>172</ele>
        <time>2018-08-19T07:37:29Z</time>
      </trkpt>
      <trkpt lat="48.737" lon="1.78516">
        <ele>172</ele>
        <time>2018-08-19T07:37:33Z</time>
      </trkpt>
      <trkpt lat="48.73698" lon="1.78525">
        <ele>172</ele>
        <time>2018-08-19T07:37:37Z</time>
      </trkpt>
      <trkpt lat="48.73696" lon="1.78535">
        <ele>172</ele>
        <time>2018-08-19T07:37:41Z</time>
      </trkpt>
      <trkpt lat="48.73694" lon="1.78544">
        <ele>172</ele>
        <time>2018-08-19T07:37:45Z</time>
      </trkpt>
      <trkpt lat="48.73692" lon="1.78553">
        <ele>172</ele>
        <time>2018-08-19T07:37:49Z</time>
      </trkpt>
      <trkpt lat="48.7369" lon="1.78561">
        <ele>172</ele>
        <time>2018-08-19T07:37:53Z</time>
      </trkpt>
      <trkpt lat="48.73689" lon="1.7857">
        <ele>172</ele>
        <time>2018-08-19T07:37:57Z</time>
      </trkpt>
      <trkpt lat="48.73687" lon="1.78579">
        <ele>172</ele>
        <time>2018-08-19T07:38:01Z</time>
      </trkpt>
      <trkpt lat="48.73686" lon="1.78588">
        <ele>172</ele>
        <time>2018-08-19T07:38:05Z</time>
      </trkpt>
      <trkpt lat="48.73684" lon="1.78597">
        <ele>172</ele>
        <time>2018-08-19T07:38:09Z</time>
      </trkpt>
      <trkpt lat="48.73683" lon="1.78606">
        <ele>172</ele>
        <time>2018-08-19T07:38:13Z</time>
      </trkpt>
      <trkpt lat="48.73681" lon="1.78616">
        <ele>172</ele>
        <time>2018-08-19T07:38:17Z</time>
      </trkpt>
      <trkpt lat="48.73679" lon="1.78625">
        <ele>172</ele>
        <time>2018-08-19T07:38:21Z</time>
      </trkpt>
      <trkpt lat="48.73677" lon="1.78633">
        <ele>172</ele>
        <time>2018-08-19T07:38:25Z</time>
      </trkpt>
      <trkpt lat="48.73675" lon="1.78642">
        <ele>172</ele>
        <time>2018-08-19T07:38:29Z</time>
      </trkpt>
      <trkpt lat="48.73673" lon="1.78651">
        <ele>172</ele>
        <time>2018-08-19T07:38:33Z</time>
      </trkpt>
      <trkpt lat="48.73671" lon="1.78659">
        <ele>172</ele>
        <time>2018-08-19T07:38:37Z</time>
      </trkpt>
      <trkpt lat="48.73668" lon="1.78667">
        <ele>172</ele>
        <time>2018-08-19T07:38:41Z</time>
      </trkpt>
      <trkpt lat="48.73666" lon="1.78676">
        <ele>172</ele>
        <time>2018-08-19T07:38:45Z</time>
      </trkpt>
      <trkpt lat="48.73663" lon="1.78684">
        <ele>172</ele>
        <time>2018-08-19T07:38:49Z</time>
      </trkpt>
      <trkpt lat="48.73661" lon="1.78692">
        <ele>173</ele>
        <time>2018-08-19T07:38:53Z</time>
      </trkpt>
      <trkpt lat="48.73659" lon="1.787">
        <ele>173</ele>
        <time>2018-08-19T07:38:57Z</time>
      </trkpt>
      <trkpt lat="48.73658" lon="1.7871">
        <ele>173</ele>
        <time>2018-08-19T07:39:01Z</time>
      </trkpt>
      <trkpt lat="48.73657" lon="1.78719">
        <ele>174</ele>
        <time>2018-08-19T07:39:05Z</time>
      </trkpt>
      <trkpt lat="48.73656" lon="1.78728">
        <ele>174</ele>
        <time>2018-08-19T07:39:09Z</time>
      </trkpt>
      <trkpt lat="48.73654" lon="1.78737">
        <ele>174</ele>
        <time>2018-08-19T07:39:13Z</time>
      </trkpt>
      <trkpt lat="48.73653" lon="1.78745">
        <ele>174</ele>
        <time>2018-08-19T07:39:17Z</time>
      </trkpt>
      <trkpt lat="48.73651" lon="1.78755">
        <ele>174</ele>
        <time>2018-08-19T07:39:21Z</time>
      </trkpt>
      <trkpt lat="48.73649" lon="1.78764">
        <ele>174</ele>
        <time>2018-08-19T07:39:25Z</time>
      </trkpt>
      <trkpt lat="48.73648" lon="1.78773">
        <ele>174</ele>
        <time>2018-08-19T07:39:29Z</time>
      </trkpt>
      <trkpt lat="48.73645" lon="1.78782">
        <ele>174</ele>
        <time>2018-08-19T07:39:33Z</time>
      </trkpt>
      <trkpt lat="48.73644" lon="1.78791">
        <ele>174</ele>
        <time>2018-08-19T07:39:37Z</time>
      </trkpt>
      <trkpt lat="48.73642" lon="1.78799">
        <ele>174</ele>
        <time>2018-08-19T07:39:41Z</time>
      </trkpt>
      <trkpt lat="48.7364" lon="1.78808">
        <ele>174</ele>
        <time>2018-08-19T07:39:45Z</time>
      </trkpt>
      <trkpt lat="48.73638" lon="1.78816">
        <ele>174</ele>
        <time>2018-08-19T07:39:49Z</time>
      </trkpt>
      <trkpt lat="48.73636" lon="1.78825">
        <ele>174</ele>
        <time>2018-08-19T07:39:53Z</time>
      </trkpt>
      <trkpt lat="48.73634" lon="1.78834">
        <ele>174</ele>
        <time>2018-08-19T07:39:57Z</time>
      </trkpt>
      <trkpt lat="48.73632" lon="1.78842">
        <ele>174</ele>
        <time>2018-08-19T07:40:01Z</time>
      </trkpt>
      <trkpt lat="48.7363" lon="1.78851">
        <ele>174</ele>
        <time>2018-08-19T07:40:05Z</time>
      </trkpt>
      <trkpt lat="48.73628" lon="1.78858">
        <ele>174</ele>
        <time>2018-08-19T07:40:09Z</time>
      </trkpt>
      <trkpt lat="48.73626" lon="1.78867">
        <ele>174</ele>
        <time>2018-08-19T07:40:13Z</time>
      </trkpt>
      <trkpt lat="48.73624" lon="1.78875">
        <ele>175</ele>
        <time>2018-08-19T07:40:17Z</time>
      </trkpt>
      <trkpt lat="48.73623" lon="1.78882">
        <ele>175</ele>
        <time>2018-08-19T07:40:21Z</time>
      </trkpt>
      <trkpt lat="48.73621" lon="1.7889">
        <ele>175</ele>
        <time>2018-08-19T07:40:25Z</time>
      </trkpt>
      <trkpt lat="48.73619" lon="1.78897">
        <ele>175</ele>
        <time>2018-08-19T07:40:29Z</time>
      </trkpt>
      <trkpt lat="48.73617" lon="1.78906">
        <ele>175</ele>
        <time>2018-08-19T07:40:33Z</time>
      </trkpt>
      <trkpt lat="48.73616" lon="1.78915">
        <ele>175</ele>
        <time>2018-08-19T07:40:37Z</time>
      </trkpt>
      <trkpt lat="48.73615" lon="1.78924">
        <ele>175</ele>
        <time>2018-08-19T07:40:41Z</time>
      </trkpt>
      <trkpt lat="48.73613" lon="1.78933">
        <ele>175</ele>
        <time>2018-08-19T07:40:45Z</time>
      </trkpt>
      <trkpt lat="48.73611" lon="1.78941">
        <ele>175</ele>
        <time>2018-08-19T07:40:49Z</time>
      </trkpt>
      <trkpt lat="48.73609" lon="1.7895">
        <ele>175</ele>
        <time>2018-08-19T07:40:53Z</time>
      </trkpt>
      <trkpt lat="48.73608" lon="1.78959">
        <ele>175</ele>
        <time>2018-08-19T07:40:57Z</time>
      </trkpt>
      <trkpt lat="48.73607" lon="1.78968">
        <ele>175</ele>
        <time>2018-08-19T07:41:01Z</time>
      </trkpt>
      <trkpt lat="48.73605" lon="1.78975">
        <ele>175</ele>
        <time>2018-08-19T07:41:05Z</time>
      </trkpt>
      <trkpt lat="48.73604" lon="1.78983">
        <ele>175</ele>
        <time>2018-08-19T07:41:09Z</time>
      </trkpt>
      <trkpt lat="48.73603" lon="1.78992">
        <ele>175</ele>
        <time>2018-08-19T07:41:13Z</time>
      </trkpt>
      <trkpt lat="48.73602" lon="1.79002">
        <ele>176</ele>
        <time>2018-08-19T07:41:17Z</time>
      </trkpt>
      <trkpt lat="48.73601" lon="1.79012">
        <ele>179</ele>
        <time>2018-08-19T07:41:21Z</time>
      </trkpt>
      <trkpt lat="48.73601" lon="1.79021">
        <ele>180</ele>
        <time>2018-08-19T07:41:25Z</time>
      </trkpt>
      <trkpt lat="48.736" lon="1.79031">
        <ele>181</ele>
        <time>2018-08-19T07:41:29Z</time>
      </trkpt>
      <trkpt lat="48.73599" lon="1.7904">
        <ele>181</ele>
        <time>2018-08-19T07:41:33Z</time>
      </trkpt>
      <trkpt lat="48.73599" lon="1.79048">
        <ele>181</ele>
        <time>2018-08-19T07:41:37Z</time>
      </trkpt>
      <trkpt lat="48.73597" lon="1.79057">
        <ele>181</ele>
        <time>2018-08-19T07:41:41Z</time>
      </trkpt>
      <trkpt lat="48.73594" lon="1.79064">
        <ele>181</ele>
        <time>2018-08-19T07:41:45Z</time>
      </trkpt>
      <trkpt lat="48.73593" lon="1.79074">
        <ele>181</ele>
        <time>2018-08-19T07:41:49Z</time>
      </trkpt>
      <trkpt lat="48.73592" lon="1.79083">
        <ele>181</ele>
        <time>2018-08-19T07:41:53Z</time>
      </trkpt>
      <trkpt lat="48.73591" lon="1.7909">
        <ele>181</ele>
        <time>2018-08-19T07:41:57Z</time>
      </trkpt>
      <trkpt lat="48.73589" lon="1.79099">
        <ele>181</ele>
        <time>2018-08-19T07:42:01Z</time>
      </trkpt>
      <trkpt lat="48.73587" lon="1.79107">
        <ele>181</ele>
        <time>2018-08-19T07:42:05Z</time>
      </trkpt>
      <trkpt lat="48.73586" lon="1.79114">
        <ele>181</ele>
        <time>2018-08-19T07:42:09Z</time>
      </trkpt>
      <trkpt lat="48.73585" lon="1.79123">
        <ele>179</ele>
        <time>2018-08-19T07:42:13Z</time>
      </trkpt>
      <trkpt lat="48.73583" lon="1.79131">
        <ele>177</ele>
        <time>2018-08-19T07:42:17Z</time>
      </trkpt>
      <trkpt lat="48.73581" lon="1.79139">
        <ele>176</ele>
        <time>2018-08-19T07:42:21Z</time>
      </trkpt>
      <trkpt lat="48.73577" lon="1.79148">
        <ele>176</ele>
        <time>2018-08-19T07:42:25Z</time>
      </trkpt>
      <trkpt lat="48.73575" lon="1.79156">
        <ele>176</ele>
        <time>2018-08-19T07:42:29Z</time>
      </trkpt>
      <trkpt lat="48.73574" lon="1.79165">
        <ele>175</ele>
        <time>2018-08-19T07:42:33Z</time>
      </trkpt>
      <trkpt lat="48.73573" lon="1.79172">
        <ele>174</ele>
        <time>2018-08-19T07:42:37Z</time>
      </trkpt>
      <trkpt lat="48.73571" lon="1.7918">
        <ele>173</ele>
        <time>2018-08-19T07:42:41Z</time>
      </trkpt>
      <trkpt lat="48.7357" lon="1.79189">
        <ele>173</ele>
        <time>2018-08-19T07:42:45Z</time>
      </trkpt>
      <trkpt lat="48.73568" lon="1.79198">
        <ele>173</ele>
        <time>2018-08-19T07:42:49Z</time>
      </trkpt>
      <trkpt lat="48.73565" lon="1.79209">
        <ele>173</ele>
        <time>2018-08-19T07:42:53Z</time>
      </trkpt>
      <trkpt lat="48.73563" lon="1.79217">
        <ele>173</ele>
        <time>2018-08-19T07:42:57Z</time>
      </trkpt>
      <trkpt lat="48.7356" lon="1.79226">
        <ele>173</ele>
        <time>2018-08-19T07:43:01Z</time>
      </trkpt>
      <trkpt lat="48.73557" lon="1.79235">
        <ele>173</ele>
        <time>2018-08-19T07:43:05Z</time>
      </trkpt>
      <trkpt lat="48.73554" lon="1.79244">
        <ele>173</ele>
        <time>2018-08-19T07:43:09Z</time>
      </trkpt>
      <trkpt lat="48.73552" lon="1.79254">
        <ele>173</ele>
        <time>2018-08-19T07:43:13Z</time>
      </trkpt>
      <trkpt lat="48.7355" lon="1.79263">
        <ele>173</ele>
        <time>2018-08-19T07:43:17Z</time>
      </trkpt>
      <trkpt lat="48.73547" lon="1.79271">
        <ele>174</ele>
        <time>2018-08-19T07:43:21Z</time>
      </trkpt>
      <trkpt lat="48.73545" lon="1.79278">
        <ele>175</ele>
        <time>2018-08-19T07:43:25Z</time>
      </trkpt>
      <trkpt lat="48.73544" lon="1.79287">
        <ele>175</ele>
        <time>2018-08-19T07:43:29Z</time>
      </trkpt>
      <trkpt lat="48.73543" lon="1.79296">
        <ele>175</ele>
        <time>2018-08-19T07:43:33Z</time>
      </trkpt>
      <trkpt lat="48.73542" lon="1.79305">
        <ele>175</ele>
        <time>2018-08-19T07:43:37Z</time>
      </trkpt>
      <trkpt lat="48.73539" lon="1.79315">
        <ele>175</ele>
        <time>2018-08-19T07:43:41Z</time>
      </trkpt>
      <trkpt lat="48.73538" lon="1.79324">
        <ele>175</ele>
        <time>2018-08-19T07:43:45Z</time>
      </trkpt>
      <trkpt lat="48.73536" lon="1.79333">
        <ele>175</ele>
        <time>2018-08-19T07:43:49Z</time>
      </trkpt>
      <trkpt lat="48.73534" lon="1.79342">
        <ele>175</ele>
        <time>2018-08-19T07:43:53Z</time>
      </trkpt>
      <trkpt lat="48.73533" lon="1.79351">
        <ele>175</ele>
        <time>2018-08-19T07:43:57Z</time>
      </trkpt>
      <trkpt lat="48.73532" lon="1.79359">
        <ele>175</ele>
        <time>2018-08-19T07:44:01Z</time>
      </trkpt>
      <trkpt lat="48.73528" lon="1.79367">
        <ele>175</ele>
        <time>2018-08-19T07:44:05Z</time>
      </trkpt>
      <trkpt lat="48.73528" lon="1.79375">
        <ele>175</ele>
        <time>2018-08-19T07:44:09Z</time>
      </trkpt>
      <trkpt lat="48.73529" lon="1.79384">
        <ele>175</ele>
        <time>2018-08-19T07:44:13Z</time>
      </trkpt>
      <trkpt lat="48.7353" lon="1.79392">
        <ele>175</ele>
        <time>2018-08-19T07:44:17Z</time>
      </trkpt>
      <trkpt lat="48.73529" lon="1.79402">
        <ele>177</ele>
        <time>2018-08-19T07:44:21Z</time>
      </trkpt>
      <trkpt lat="48.7353" lon="1.79411">
        <ele>179</ele>
        <time>2018-08-19T07:44:25Z</time>
      </trkpt>
      <trkpt lat="48.7353" lon="1.7942">
        <ele>181</ele>
        <time>2018-08-19T07:44:29Z</time>
      </trkpt>
      <trkpt lat="48.73531" lon="1.79428">
        <ele>182</ele>
        <time>2018-08-19T07:44:33Z</time>
      </trkpt>
      <trkpt lat="48.73531" lon="1.79438">
        <ele>183</ele>
        <time>2018-08-19T07:44:37Z</time>
      </trkpt>
      <trkpt lat="48.73532" lon="1.79446">
        <ele>183</ele>
        <time>2018-08-19T07:44:42Z</time>
      </trkpt>
      <trkpt lat="48.73537" lon="1.79453">
        <ele>183</ele>
        <time>2018-08-19T07:44:46Z</time>
      </trkpt>
      <trkpt lat="48.73542" lon="1.79459">
        <ele>183</ele>
        <time>2018-08-19T07:44:50Z</time>
      </trkpt>
      <trkpt lat="48.73546" lon="1.79465">
        <ele>183</ele>
        <time>2018-08-19T07:44:54Z</time>
      </trkpt>
      <trkpt lat="48.73551" lon="1.79475">
        <ele>183</ele>
        <time>2018-08-19T07:44:59Z</time>
      </trkpt>
      <trkpt lat="48.73554" lon="1.79488">
        <ele>183</ele>
        <time>2018-08-19T07:45:03Z</time>
      </trkpt>
      <trkpt lat="48.73558" lon="1.79502">
        <ele>183</ele>
        <time>2018-08-19T07:45:07Z</time>
      </trkpt>
      <trkpt lat="48.73563" lon="1.79521">
        <ele>183</ele>
        <time>2018-08-19T07:45:11Z</time>
      </trkpt>
      <trkpt lat="48.73569" lon="1.79541">
        <ele>182</ele>
        <time>2018-08-19T07:45:16Z</time>
      </trkpt>
      <trkpt lat="48.73573" lon="1.79557">
        <ele>180</ele>
        <time>2018-08-19T07:45:20Z</time>
      </trkpt>
      <trkpt lat="48.73578" lon="1.79575">
        <ele>179</ele>
        <time>2018-08-19T07:45:24Z</time>
      </trkpt>
      <trkpt lat="48.73584" lon="1.79592">
        <ele>177</ele>
        <time>2018-08-19T07:45:28Z</time>
      </trkpt>
      <trkpt lat="48.73589" lon="1.79607">
        <ele>176</ele>
        <time>2018-08-19T07:45:32Z</time>
      </trkpt>
      <trkpt lat="48.73595" lon="1.79626">
        <ele>174</ele>
        <time>2018-08-19T07:45:36Z</time>
      </trkpt>
      <trkpt lat="48.73601" lon="1.79648">
        <ele>174</ele>
        <time>2018-08-19T07:45:40Z</time>
      </trkpt>
      <trkpt lat="48.73609" lon="1.79668">
        <ele>175</ele>
        <time>2018-08-19T07:45:44Z</time>
      </trkpt>
      <trkpt lat="48.73615" lon="1.79688">
        <ele>176</ele>
        <time>2018-08-19T07:45:48Z</time>
      </trkpt>
      <trkpt lat="48.73625" lon="1.79705">
        <ele>177</ele>
        <time>2018-08-19T07:45:52Z</time>
      </trkpt>
      <trkpt lat="48.73634" lon="1.79721">
        <ele>177</ele>
        <time>2018-08-19T07:45:56Z</time>
      </trkpt>
      <trkpt lat="48.73643" lon="1.79738">
        <ele>177</ele>
        <time>2018-08-19T07:46:00Z</time>
      </trkpt>
      <trkpt lat="48.7365" lon="1.79755">
        <ele>177</ele>
        <time>2018-08-19T07:46:04Z</time>
      </trkpt>
      <trkpt lat="48.73655" lon="1.7977">
        <ele>177</ele>
        <time>2018-08-19T07:46:08Z</time>
      </trkpt>
      <trkpt lat="48.73663" lon="1.79787">
        <ele>177</ele>
        <time>2018-08-19T07:46:12Z</time>
      </trkpt>
      <trkpt lat="48.73669" lon="1.79801">
        <ele>177</ele>
        <time>2018-08-19T07:46:16Z</time>
      </trkpt>
      <trkpt lat="48.73679" lon="1.79819">
        <ele>177</ele>
        <time>2018-08-19T07:46:20Z</time>
      </trkpt>
      <trkpt lat="48.73687" lon="1.79835">
        <ele>177</ele>
        <time>2018-08-19T07:46:24Z</time>
      </trkpt>
      <trkpt lat="48.73698" lon="1.79856">
        <ele>175</ele>
        <time>2018-08-19T07:46:29Z</time>
      </trkpt>
      <trkpt lat="48.73705" lon="1.79872">
        <ele>173</ele>
        <time>2018-08-19T07:46:33Z</time>
      </trkpt>
      <trkpt lat="48.73709" lon="1.79888">
        <ele>173</ele>
        <time>2018-08-19T07:46:37Z</time>
      </trkpt>
      <trkpt lat="48.73716" lon="1.79902">
        <ele>173</ele>
        <time>2018-08-19T07:46:41Z</time>
      </trkpt>
      <trkpt lat="48.73724" lon="1.79916">
        <ele>175</ele>
        <time>2018-08-19T07:46:45Z</time>
      </trkpt>
      <trkpt lat="48.73734" lon="1.79929">
        <ele>178</ele>
        <time>2018-08-19T07:46:49Z</time>
      </trkpt>
      <trkpt lat="48.73744" lon="1.79943">
        <ele>181</ele>
        <time>2018-08-19T07:46:53Z</time>
      </trkpt>
      <trkpt lat="48.73752" lon="1.79957">
        <ele>184</ele>
        <time>2018-08-19T07:46:57Z</time>
      </trkpt>
      <trkpt lat="48.7376" lon="1.79977">
        <ele>187</ele>
        <time>2018-08-19T07:47:02Z</time>
      </trkpt>
      <trkpt lat="48.73769" lon="1.79995">
        <ele>189</ele>
        <time>2018-08-19T07:47:07Z</time>
      </trkpt>
      <trkpt lat="48.73776" lon="1.80011">
        <ele>190</ele>
        <time>2018-08-19T07:47:11Z</time>
      </trkpt>
      <trkpt lat="48.73786" lon="1.80028">
        <ele>191</ele>
        <time>2018-08-19T07:47:15Z</time>
      </trkpt>
      <trkpt lat="48.73796" lon="1.80045">
        <ele>191</ele>
        <time>2018-08-19T07:47:19Z</time>
      </trkpt>
      <trkpt lat="48.73805" lon="1.80059">
        <ele>191</ele>
        <time>2018-08-19T07:47:23Z</time>
      </trkpt>
      <trkpt lat="48.73814" lon="1.80075">
        <ele>191</ele>
        <time>2018-08-19T07:47:27Z</time>
      </trkpt>
      <trkpt lat="48.73822" lon="1.80089">
        <ele>191</ele>
        <time>2018-08-19T07:47:31Z</time>
      </trkpt>
      <trkpt lat="48.73831" lon="1.80101">
        <ele>191</ele>
        <time>2018-08-19T07:47:35Z</time>
      </trkpt>
      <trkpt lat="48.73838" lon="1.80117">
        <ele>189</ele>
        <time>2018-08-19T07:47:39Z</time>
      </trkpt>
      <trkpt lat="48.73843" lon="1.80133">
        <ele>186</ele>
        <time>2018-08-19T07:47:43Z</time>
      </trkpt>
      <trkpt lat="48.73852" lon="1.80148">
        <ele>185</ele>
        <time>2018-08-19T07:47:47Z</time>
      </trkpt>
      <trkpt lat="48.73859" lon="1.80166">
        <ele>185</ele>
        <time>2018-08-19T07:47:51Z</time>
      </trkpt>
      <trkpt lat="48.73868" lon="1.80187">
        <ele>182</ele>
        <time>2018-08-19T07:47:56Z</time>
      </trkpt>
      <trkpt lat="48.73875" lon="1.80205">
        <ele>179</ele>
        <time>2018-08-19T07:48:00Z</time>
      </trkpt>
      <trkpt lat="48.73879" lon="1.80224">
        <ele>175</ele>
        <time>2018-08-19T07:48:04Z</time>
      </trkpt>
      <trkpt lat="48.73881" lon="1.80243">
        <ele>174</ele>
        <time>2018-08-19T07:48:08Z</time>
      </trkpt>
      <trkpt lat="48.73885" lon="1.80261">
        <ele>173</ele>
        <time>2018-08-19T07:48:12Z</time>
      </trkpt>
      <trkpt lat="48.73888" lon="1.80279">
        <ele>173</ele>
        <time>2018-08-19T07:48:16Z</time>
      </trkpt>
      <trkpt lat="48.73892" lon="1.80297">
        <ele>173</ele>
        <time>2018-08-19T07:48:20Z</time>
      </trkpt>
      <trkpt lat="48.73894" lon="1.80306">
        <ele>173</ele>
        <time>2018-08-19T07:48:24Z</time>
      </trkpt>
      <trkpt lat="48.73896" lon="1.80311">
        <ele>176</ele>
        <time>2018-08-19T07:48:28Z</time>
      </trkpt>
      <trkpt lat="48.73899" lon="1.80318">
        <ele>181</ele>
        <time>2018-08-19T07:48:33Z</time>
      </trkpt>
      <trkpt lat="48.73902" lon="1.80321">
        <ele>186</ele>
        <time>2018-08-19T07:48:38Z</time>
      </trkpt>
      <trkpt lat="48.73905" lon="1.80322">
        <ele>188</ele>
        <time>2018-08-19T07:48:44Z</time>
      </trkpt>
      <trkpt lat="48.73903" lon="1.80322">
        <ele>188</ele>
        <time>2018-08-19T07:48:51Z</time>
      </trkpt>
      <trkpt lat="48.73901" lon="1.80326">
        <ele>188</ele>
        <time>2018-08-19T07:48:55Z</time>
      </trkpt>
      <trkpt lat="48.73895" lon="1.80331">
        <ele>188</ele>
        <time>2018-08-19T07:48:59Z</time>
      </trkpt>
      <trkpt lat="48.73891" lon="1.80339">
        <ele>188</ele>
        <time>2018-08-19T07:49:03Z</time>
      </trkpt>
      <trkpt lat="48.73883" lon="1.8035">
        <ele>188</ele>
        <time>2018-08-19T07:49:07Z</time>
      </trkpt>
      <trkpt lat="48.73874" lon="1.80363">
        <ele>188</ele>
        <time>2018-08-19T07:49:11Z</time>
      </trkpt>
      <trkpt lat="48.73863" lon="1.80381">
        <ele>186</ele>
        <time>2018-08-19T07:49:16Z</time>
      </trkpt>
      <trkpt lat="48.73854" lon="1.80396">
        <ele>185</ele>
        <time>2018-08-19T07:49:20Z</time>
      </trkpt>
      <trkpt lat="48.73846" lon="1.80408">
        <ele>185</ele>
        <time>2018-08-19T07:49:24Z</time>
      </trkpt>
      <trkpt lat="48.73839" lon="1.80421">
        <ele>185</ele>
        <time>2018-08-19T07:49:28Z</time>
      </trkpt>
      <trkpt lat="48.7383" lon="1.80436">
        <ele>185</ele>
        <time>2018-08-19T07:49:32Z</time>
      </trkpt>
      <trkpt lat="48.73823" lon="1.8045">
        <ele>185</ele>
        <time>2018-08-19T07:49:36Z</time>
      </trkpt>
      <trkpt lat="48.73813" lon="1.80466">
        <ele>185</ele>
        <time>2018-08-19T07:49:40Z</time>
      </trkpt>
      <trkpt lat="48.73803" lon="1.80482">
        <ele>185</ele>
        <time>2018-08-19T07:49:44Z</time>
      </trkpt>
      <trkpt lat="48.73793" lon="1.80498">
        <ele>185</ele>
        <time>2018-08-19T07:49:48Z</time>
      </trkpt>
      <trkpt lat="48.73784" lon="1.80516">
        <ele>185</ele>
        <time>2018-08-19T07:49:52Z</time>
      </trkpt>
      <trkpt lat="48.73774" lon="1.80532">
        <ele>185</ele>
        <time>2018-08-19T07:49:56Z</time>
      </trkpt>
      <trkpt lat="48.73766" lon="1.80547">
        <ele>185</ele>
        <time>2018-08-19T07:50:00Z</time>
      </trkpt>
      <trkpt lat="48.73754" lon="1.80567">
        <ele>185</ele>
        <time>2018-08-19T07:50:05Z</time>
      </trkpt>
      <trkpt lat="48.73744" lon="1.80582">
        <ele>187</ele>
        <time>2018-08-19T07:50:10Z</time>
      </trkpt>
      <trkpt lat="48.73734" lon="1.80599">
        <ele>189</ele>
        <time>2018-08-19T07:50:14Z</time>
      </trkpt>
      <trkpt lat="48.73724" lon="1.80615">
        <ele>190</ele>
        <time>2018-08-19T07:50:19Z</time>
      </trkpt>
      <trkpt lat="48.73715" lon="1.80632">
        <ele>190</ele>
        <time>2018-08-19T07:50:23Z</time>
      </trkpt>
      <trkpt lat="48.73708" lon="1.80647">
        <ele>190</ele>
        <time>2018-08-19T07:50:27Z</time>
      </trkpt>
      <trkpt lat="48.73699" lon="1.8066">
        <ele>190</ele>
        <time>2018-08-19T07:50:31Z</time>
      </trkpt>
      <trkpt lat="48.73687" lon="1.80684">
        <ele>188</ele>
        <time>2018-08-19T07:50:36Z</time>
      </trkpt>
      <trkpt lat="48.73678" lon="1.807">
        <ele>188</ele>
        <time>2018-08-19T07:50:40Z</time>
      </trkpt>
      <trkpt lat="48.73669" lon="1.80717">
        <ele>188</ele>
        <time>2018-08-19T07:50:44Z</time>
      </trkpt>
      <trkpt lat="48.73658" lon="1.80736">
        <ele>188</ele>
        <time>2018-08-19T07:50:48Z</time>
      </trkpt>
      <trkpt lat="48.73648" lon="1.80757">
        <ele>188</ele>
        <time>2018-08-19T07:50:53Z</time>
      </trkpt>
      <trkpt lat="48.73637" lon="1.80774">
        <ele>188</ele>
        <time>2018-08-19T07:50:58Z</time>
      </trkpt>
      <trkpt lat="48.73626" lon="1.80789">
        <ele>187</ele>
        <time>2018-08-19T07:51:03Z</time>
      </trkpt>
      <trkpt lat="48.73621" lon="1.80797">
        <ele>186</ele>
        <time>2018-08-19T07:51:07Z</time>
      </trkpt>
      <trkpt lat="48.73615" lon="1.80807">
        <ele>184</ele>
        <time>2018-08-19T07:51:12Z</time>
      </trkpt>
      <trkpt lat="48.73609" lon="1.80815">
        <ele>182</ele>
        <time>2018-08-19T07:51:17Z</time>
      </trkpt>
      <trkpt lat="48.73604" lon="1.80823">
        <ele>181</ele>
        <time>2018-08-19T07:51:21Z</time>
      </trkpt>
      <trkpt lat="48.73599" lon="1.8083">
        <ele>180</ele>
        <time>2018-08-19T07:51:25Z</time>
      </trkpt>
      <trkpt lat="48.73596" lon="1.80838">
        <ele>180</ele>
        <time>2018-08-19T07:51:29Z</time>
      </trkpt>
      <trkpt lat="48.73595" lon="1.80846">
        <ele>180</ele>
        <time>2018-08-19T07:51:33Z</time>
      </trkpt>
      <trkpt lat="48.73593" lon="1.80855">
        <ele>180</ele>
        <time>2018-08-19T07:51:37Z</time>
      </trkpt>
      <trkpt lat="48.73587" lon="1.80861">
        <ele>180</ele>
        <time>2018-08-19T07:51:42Z</time>
      </trkpt>
      <trkpt lat="48.73583" lon="1.80856">
        <ele>179</ele>
        <time>2018-08-19T07:51:46Z</time>
      </trkpt>
      <trkpt lat="48.73582" lon="1.80852">
        <ele>177</ele>
        <time>2018-08-19T07:51:52Z</time>
      </trkpt>
      <trkpt lat="48.7358" lon="1.80851">
        <ele>178</ele>
        <time>2018-08-19T07:52:00Z</time>
      </trkpt>
      <trkpt lat="48.73583" lon="1.80851">
        <ele>182</ele>
        <time>2018-08-19T07:52:06Z</time>
      </trkpt>
      <trkpt lat="48.73588" lon="1.80848">
        <ele>183</ele>
        <time>2018-08-19T07:52:11Z</time>
      </trkpt>
      <trkpt lat="48.73586" lon="1.80841">
        <ele>183</ele>
        <time>2018-08-19T07:52:17Z</time>
      </trkpt>
      <trkpt lat="48.73585" lon="1.80839">
        <ele>183</ele>
        <time>2018-08-19T07:52:29Z</time>
      </trkpt>
      <trkpt lat="48.73585" lon="1.80837">
        <ele>180</ele>
        <time>2018-08-19T07:52:47Z</time>
      </trkpt>
      <trkpt lat="48.73584" lon="1.80839">
        <ele>183</ele>
        <time>2018-08-19T07:53:20Z</time>
      </trkpt>
      <trkpt lat="48.73582" lon="1.8084">
        <ele>188</ele>
        <time>2018-08-19T07:53:34Z</time>
      </trkpt>
      <trkpt lat="48.73581" lon="1.80842">
        <ele>188</ele>
        <time>2018-08-19T07:53:41Z</time>
      </trkpt>
      <trkpt lat="48.7358" lon="1.80842">
        <ele>190</ele>
        <time>2018-08-19T07:53:56Z</time>
      </trkpt>
      <trkpt lat="48.73583" lon="1.8084">
        <ele>184</ele>
        <time>2018-08-19T07:54:04Z</time>
      </trkpt>
      <trkpt lat="48.73582" lon="1.80838">
        <ele>182</ele>
        <time>2018-08-19T07:54:22Z</time>
      </trkpt>
      <trkpt lat="48.73582" lon="1.8084">
        <ele>182</ele>
        <time>2018-08-19T07:54:32Z</time>
      </trkpt>
      <trkpt lat="48.73583" lon="1.80838">
        <ele>182</ele>
        <time>2018-08-19T07:54:38Z</time>
      </trkpt>
      <trkpt lat="48.73582" lon="1.8083">
        <ele>182</ele>
        <time>2018-08-19T07:54:43Z</time>
      </trkpt>
      <trkpt lat="48.73583" lon="1.80822">
        <ele>181</ele>
        <time>2018-08-19T07:54:48Z</time>
      </trkpt>
      <trkpt lat="48.73584" lon="1.80812">
        <ele>179</ele>
        <time>2018-08-19T07:54:53Z</time>
      </trkpt>
      <trkpt lat="48.7358" lon="1.80808">
        <ele>178</ele>
        <time>2018-08-19T07:54:58Z</time>
      </trkpt>
      <trkpt lat="48.73579" lon="1.80805">
        <ele>178</ele>
        <time>2018-08-19T07:55:07Z</time>
      </trkpt>
      <trkpt lat="48.73576" lon="1.80803">
        <ele>178</ele>
        <time>2018-08-19T07:55:11Z</time>
      </trkpt>
      <trkpt lat="48.73572" lon="1.80801">
        <ele>178</ele>
        <time>2018-08-19T07:55:15Z</time>
      </trkpt>
      <trkpt lat="48.73568" lon="1.80799">
        <ele>184</ele>
        <time>2018-08-19T07:55:23Z</time>
      </trkpt>
      <trkpt lat="48.73574" lon="1.80797">
        <ele>193</ele>
        <time>2018-08-19T07:55:28Z</time>
      </trkpt>
      <trkpt lat="48.7358" lon="1.80795">
        <ele>198</ele>
        <time>2018-08-19T07:55:33Z</time>
      </trkpt>
      <trkpt lat="48.73581" lon="1.80795">
        <ele>198</ele>
        <time>2018-08-19T07:55:37Z</time>
      </trkpt>
      <trkpt lat="48.73581" lon="1.80801">
        <ele>197</ele>
        <time>2018-08-19T07:55:43Z</time>
      </trkpt>
      <trkpt lat="48.73579" lon="1.80816">
        <ele>192</ele>
        <time>2018-08-19T07:55:48Z</time>
      </trkpt>
      <trkpt lat="48.73581" lon="1.80829">
        <ele>189</ele>
        <time>2018-08-19T07:55:53Z</time>
      </trkpt>
      <trkpt lat="48.73581" lon="1.80837">
        <ele>187</ele>
        <time>2018-08-19T07:55:57Z</time>
      </trkpt>
      <trkpt lat="48.73582" lon="1.80843">
        <ele>184</ele>
        <time>2018-08-19T07:56:09Z</time>
      </trkpt>
      <trkpt lat="48.73583" lon="1.80843">
        <ele>184</ele>
        <time>2018-08-19T07:56:47Z</time>
      </trkpt>
      <trkpt lat="48.73584" lon="1.80843">
        <ele>183</ele>
        <time>2018-08-19T07:56:56Z</time>
      </trkpt>
      <trkpt lat="48.73584" lon="1.80841">
        <ele>178</ele>
        <time>2018-08-19T07:57:17Z</time>
      </trkpt>
      <trkpt lat="48.73583" lon="1.80839">
        <ele>177</ele>
        <time>2018-08-19T07:57:22Z</time>
      </trkpt>
      <trkpt lat="48.73584" lon="1.80841">
        <ele>177</ele>
        <time>2018-08-19T07:57:32Z</time>
      </trkpt>
      <trkpt lat="48.73584" lon="1.80842">
        <ele>177</ele>
        <time>2018-08-19T07:57:44Z</time>
      </trkpt>
      <trkpt lat="48.73581" lon="1.80845">
        <ele>179</ele>
        <time>2018-08-19T07:57:49Z</time>
      </trkpt>
      <trkpt lat="48.73581" lon="1.80847">
        <ele>183</ele>
        <time>2018-08-19T07:57:53Z</time>
      </trkpt>
      <trkpt lat="48.73581" lon="1.80849">
        <ele>185</ele>
        <time>2018-08-19T07:57:59Z</time>
      </trkpt>
      <trkpt lat="48.73584" lon="1.80851">
        <ele>185</ele>
        <time>2018-08-19T07:58:04Z</time>
      </trkpt>
      <trkpt lat="48.73583" lon="1.80852">
        <ele>185</ele>
        <time>2018-08-19T07:58:09Z</time>
      </trkpt>
      <trkpt lat="48.73581" lon="1.8085">
        <ele>185</ele>
        <time>2018-08-19T07:58:18Z</time>
      </trkpt>
      <trkpt lat="48.73576" lon="1.80851">
        <ele>185</ele>
        <time>2018-08-19T07:58:22Z</time>
      </trkpt>
      <trkpt lat="48.73571" lon="1.80853">
        <ele>185</ele>
        <time>2018-08-19T07:58:26Z</time>
      </trkpt>
      <trkpt lat="48.73567" lon="1.80854">
        <ele>183</ele>
        <time>2018-08-19T07:58:30Z</time>
      </trkpt>
      <trkpt lat="48.73562" lon="1.80856">
        <ele>182</ele>
        <time>2018-08-19T07:58:34Z</time>
      </trkpt>
      <trkpt lat="48.73556" lon="1.80856">
        <ele>181</ele>
        <time>2018-08-19T07:58:38Z</time>
      </trkpt>
      <trkpt lat="48.73551" lon="1.80856">
        <ele>180</ele>
        <time>2018-08-19T07:58:42Z</time>
      </trkpt>
      <trkpt lat="48.73546" lon="1.80857">
        <ele>180</ele>
        <time>2018-08-19T07:58:46Z</time>
      </trkpt>
      <trkpt lat="48.7354" lon="1.80858">
        <ele>180</ele>
        <time>2018-08-19T07:58:50Z</time>
      </trkpt>
      <trkpt lat="48.73534" lon="1.80858">
        <ele>179</ele>
        <time>2018-08-19T07:58:54Z</time>
      </trkpt>
      <trkpt lat="48.73528" lon="1.8086">
        <ele>178</ele>
        <time>2018-08-19T07:58:58Z</time>
      </trkpt>
      <trkpt lat="48.73521" lon="1.80863">
        <ele>177</ele>
        <time>2018-08-19T07:59:02Z</time>
      </trkpt>
      <trkpt lat="48.73516" lon="1.80866">
        <ele>177</ele>
        <time>2018-08-19T07:59:06Z</time>
      </trkpt>
      <trkpt lat="48.73509" lon="1.80867">
        <ele>174</ele>
        <time>2018-08-19T07:59:10Z</time>
      </trkpt>
      <trkpt lat="48.73503" lon="1.80867">
        <ele>174</ele>
        <time>2018-08-19T07:59:14Z</time>
      </trkpt>
      <trkpt lat="48.73497" lon="1.80869">
        <ele>173</ele>
        <time>2018-08-19T07:59:18Z</time>
      </trkpt>
      <trkpt lat="48.7349" lon="1.80869">
        <ele>172</ele>
        <time>2018-08-19T07:59:22Z</time>
      </trkpt>
      <trkpt lat="48.73484" lon="1.8087">
        <ele>170</ele>
        <time>2018-08-19T07:59:26Z</time>
      </trkpt>
      <trkpt lat="48.73477" lon="1.80871">
        <ele>169</ele>
        <time>2018-08-19T07:59:30Z</time>
      </trkpt>
      <trkpt lat="48.73471" lon="1.80872">
        <ele>169</ele>
        <time>2018-08-19T07:59:34Z</time>
      </trkpt>
      <trkpt lat="48.73465" lon="1.80872">
        <ele>168</ele>
        <time>2018-08-19T07:59:38Z</time>
      </trkpt>
      <trkpt lat="48.73459" lon="1.80872">
        <ele>168</ele>
        <time>2018-08-19T07:59:42Z</time>
      </trkpt>
      <trkpt lat="48.73453" lon="1.80872">
        <ele>165</ele>
        <time>2018-08-19T07:59:46Z</time>
      </trkpt>
      <trkpt lat="48.73447" lon="1.80875">
        <ele>164</ele>
        <time>2018-08-19T07:59:50Z</time>
      </trkpt>
      <trkpt lat="48.73442" lon="1.80876">
        <ele>164</ele>
        <time>2018-08-19T07:59:54Z</time>
      </trkpt>
      <trkpt lat="48.73435" lon="1.80878">
        <ele>163</ele>
        <time>2018-08-19T07:59:58Z</time>
      </trkpt>
      <trkpt lat="48.73429" lon="1.8088">
        <ele>163</ele>
        <time>2018-08-19T08:00:02Z</time>
      </trkpt>
      <trkpt lat="48.73421" lon="1.80882">
        <ele>163</ele>
        <time>2018-08-19T08:00:06Z</time>
      </trkpt>
      <trkpt lat="48.73415" lon="1.80882">
        <ele>163</ele>
        <time>2018-08-19T08:00:10Z</time>
      </trkpt>
      <trkpt lat="48.73408" lon="1.80883">
        <ele>163</ele>
        <time>2018-08-19T08:00:14Z</time>
      </trkpt>
      <trkpt lat="48.73402" lon="1.80884">
        <ele>163</ele>
        <time>2018-08-19T08:00:18Z</time>
      </trkpt>
      <trkpt lat="48.73395" lon="1.80885">
        <ele>163</ele>
        <time>2018-08-19T08:00:22Z</time>
      </trkpt>
      <trkpt lat="48.73389" lon="1.80887">
        <ele>163</ele>
        <time>2018-08-19T08:00:26Z</time>
      </trkpt>
      <trkpt lat="48.73382" lon="1.80888">
        <ele>164</ele>
        <time>2018-08-19T08:00:30Z</time>
      </trkpt>
      <trkpt lat="48.73375" lon="1.8089">
        <ele>164</ele>
        <time>2018-08-19T08:00:34Z</time>
      </trkpt>
      <trkpt lat="48.73369" lon="1.8089">
        <ele>164</ele>
        <time>2018-08-19T08:00:38Z</time>
      </trkpt>
      <trkpt lat="48.73363" lon="1.80891">
        <ele>164</ele>
        <time>2018-08-19T08:00:42Z</time>
      </trkpt>
      <trkpt lat="48.73359" lon="1.80892">
        <ele>166</ele>
        <time>2018-08-19T08:00:46Z</time>
      </trkpt>
      <trkpt lat="48.73352" lon="1.80891">
        <ele>166</ele>
        <time>2018-08-19T08:00:50Z</time>
      </trkpt>
      <trkpt lat="48.73347" lon="1.80894">
        <ele>166</ele>
        <time>2018-08-19T08:00:54Z</time>
      </trkpt>
      <trkpt lat="48.7334" lon="1.80897">
        <ele>167</ele>
        <time>2018-08-19T08:00:58Z</time>
      </trkpt>
      <trkpt lat="48.73335" lon="1.80897">
        <ele>167</ele>
        <time>2018-08-19T08:01:02Z</time>
      </trkpt>
      <trkpt lat="48.73328" lon="1.80899">
        <ele>167</ele>
        <time>2018-08-19T08:01:06Z</time>
      </trkpt>
      <trkpt lat="48.73322" lon="1.80899">
        <ele>167</ele>
        <time>2018-08-19T08:01:10Z</time>
      </trkpt>
      <trkpt lat="48.73315" lon="1.80901">
        <ele>167</ele>
        <time>2018-08-19T08:01:14Z</time>
      </trkpt>
      <trkpt lat="48.73308" lon="1.80904">
        <ele>167</ele>
        <time>2018-08-19T08:01:18Z</time>
      </trkpt>
      <trkpt lat="48.73301" lon="1.80904">
        <ele>170</ele>
        <time>2018-08-19T08:01:22Z</time>
      </trkpt>
      <trkpt lat="48.73294" lon="1.80909">
        <ele>172</ele>
        <time>2018-08-19T08:01:26Z</time>
      </trkpt>
      <trkpt lat="48.73288" lon="1.80909">
        <ele>174</ele>
        <time>2018-08-19T08:01:30Z</time>
      </trkpt>
      <trkpt lat="48.73282" lon="1.80908">
        <ele>174</ele>
        <time>2018-08-19T08:01:34Z</time>
      </trkpt>
      <trkpt lat="48.73276" lon="1.80907">
        <ele>174</ele>
        <time>2018-08-19T08:01:38Z</time>
      </trkpt>
      <trkpt lat="48.73269" lon="1.80908">
        <ele>174</ele>
        <time>2018-08-19T08:01:42Z</time>
      </trkpt>
      <trkpt lat="48.73264" lon="1.80908">
        <ele>174</ele>
        <time>2018-08-19T08:01:46Z</time>
      </trkpt>
      <trkpt lat="48.73257" lon="1.80907">
        <ele>174</ele>
        <time>2018-08-19T08:01:50Z</time>
      </trkpt>
      <trkpt lat="48.73251" lon="1.8091">
        <ele>174</ele>
        <time>2018-08-19T08:01:54Z</time>
      </trkpt>
      <trkpt lat="48.73246" lon="1.80911">
        <ele>174</ele>
        <time>2018-08-19T08:01:58Z</time>
      </trkpt>
      <trkpt lat="48.73239" lon="1.8091">
        <ele>174</ele>
        <time>2018-08-19T08:02:02Z</time>
      </trkpt>
      <trkpt lat="48.73233" lon="1.8091">
        <ele>174</ele>
        <time>2018-08-19T08:02:06Z</time>
      </trkpt>
      <trkpt lat="48.73227" lon="1.80912">
        <ele>174</ele>
        <time>2018-08-19T08:02:10Z</time>
      </trkpt>
      <trkpt lat="48.73221" lon="1.80917">
        <ele>175</ele>
        <time>2018-08-19T08:02:14Z</time>
      </trkpt>
      <trkpt lat="48.73214" lon="1.80917">
        <ele>175</ele>
        <time>2018-08-19T08:02:18Z</time>
      </trkpt>
      <trkpt lat="48.73209" lon="1.80916">
        <ele>175</ele>
        <time>2018-08-19T08:02:22Z</time>
      </trkpt>
      <trkpt lat="48.73202" lon="1.80916">
        <ele>175</ele>
        <time>2018-08-19T08:02:26Z</time>
      </trkpt>
      <trkpt lat="48.73196" lon="1.80917">
        <ele>175</ele>
        <time>2018-08-19T08:02:30Z</time>
      </trkpt>
      <trkpt lat="48.73191" lon="1.80917">
        <ele>174</ele>
        <time>2018-08-19T08:02:34Z</time>
      </trkpt>
      <trkpt lat="48.73185" lon="1.80918">
        <ele>173</ele>
        <time>2018-08-19T08:02:38Z</time>
      </trkpt>
      <trkpt lat="48.7318" lon="1.80919">
        <ele>172</ele>
        <time>2018-08-19T08:02:42Z</time>
      </trkpt>
      <trkpt lat="48.73174" lon="1.80918">
        <ele>171</ele>
        <time>2018-08-19T08:02:46Z</time>
      </trkpt>
      <trkpt lat="48.73168" lon="1.80919">
        <ele>169</ele>
        <time>2018-08-19T08:02:50Z</time>
      </trkpt>
      <trkpt lat="48.73163" lon="1.80919">
        <ele>169</ele>
        <time>2018-08-19T08:02:54Z</time>
      </trkpt>
      <trkpt lat="48.73158" lon="1.80918">
        <ele>169</ele>
        <time>2018-08-19T08:02:58Z</time>
      </trkpt>
      <trkpt lat="48.73152" lon="1.8092">
        <ele>169</ele>
        <time>2018-08-19T08:03:02Z</time>
      </trkpt>
      <trkpt lat="48.73146" lon="1.8092">
        <ele>169</ele>
        <time>2018-08-19T08:03:06Z</time>
      </trkpt>
      <trkpt lat="48.73139" lon="1.80923">
        <ele>169</ele>
        <time>2018-08-19T08:03:10Z</time>
      </trkpt>
      <trkpt lat="48.73133" lon="1.80924">
        <ele>169</ele>
        <time>2018-08-19T08:03:14Z</time>
      </trkpt>
      <trkpt lat="48.73127" lon="1.80926">
        <ele>169</ele>
        <time>2018-08-19T08:03:18Z</time>
      </trkpt>
      <trkpt lat="48.73122" lon="1.80925">
        <ele>169</ele>
        <time>2018-08-19T08:03:22Z</time>
      </trkpt>
      <trkpt lat="48.73116" lon="1.80927">
        <ele>169</ele>
        <time>2018-08-19T08:03:26Z</time>
      </trkpt>
      <trkpt lat="48.73111" lon="1.8093">
        <ele>169</ele>
        <time>2018-08-19T08:03:30Z</time>
      </trkpt>
      <trkpt lat="48.73106" lon="1.80935">
        <ele>169</ele>
        <time>2018-08-19T08:03:34Z</time>
      </trkpt>
      <trkpt lat="48.731" lon="1.80936">
        <ele>170</ele>
        <time>2018-08-19T08:03:38Z</time>
      </trkpt>
      <trkpt lat="48.73093" lon="1.80938">
        <ele>170</ele>
        <time>2018-08-19T08:03:42Z</time>
      </trkpt>
      <trkpt lat="48.73087" lon="1.80941">
        <ele>170</ele>
        <time>2018-08-19T08:03:46Z</time>
      </trkpt>
      <trkpt lat="48.7308" lon="1.80945">
        <ele>170</ele>
        <time>2018-08-19T08:03:50Z</time>
      </trkpt>
      <trkpt lat="48.73075" lon="1.80946">
        <ele>171</ele>
        <time>2018-08-19T08:03:54Z</time>
      </trkpt>
      <trkpt lat="48.73068" lon="1.80947">
        <ele>171</ele>
        <time>2018-08-19T08:03:58Z</time>
      </trkpt>
      <trkpt lat="48.73063" lon="1.80948">
        <ele>172</ele>
        <time>2018-08-19T08:04:02Z</time>
      </trkpt>
      <trkpt lat="48.73056" lon="1.80948">
        <ele>173</ele>
        <time>2018-08-19T08:04:06Z</time>
      </trkpt>
      <trkpt lat="48.7305" lon="1.8095">
        <ele>173</ele>
        <time>2018-08-19T08:04:10Z</time>
      </trkpt>
      <trkpt lat="48.73044" lon="1.80952">
        <ele>173</ele>
        <time>2018-08-19T08:04:14Z</time>
      </trkpt>
      <trkpt lat="48.73039" lon="1.80954">
        <ele>173</ele>
        <time>2018-08-19T08:04:18Z</time>
      </trkpt>
      <trkpt lat="48.73034" lon="1.80954">
        <ele>173</ele>
        <time>2018-08-19T08:04:22Z</time>
      </trkpt>
      <trkpt lat="48.73029" lon="1.80956">
        <ele>173</ele>
        <time>2018-08-19T08:04:26Z</time>
      </trkpt>
      <trkpt lat="48.73023" lon="1.80957">
        <ele>173</ele>
        <time>2018-08-19T08:04:30Z</time>
      </trkpt>
      <trkpt lat="48.73018" lon="1.80959">
        <ele>173</ele>
        <time>2018-08-19T08:04:34Z</time>
      </trkpt>
      <trkpt lat="48.73012" lon="1.80963">
        <ele>174</ele>
        <time>2018-08-19T08:04:38Z</time>
      </trkpt>
      <trkpt lat="48.73006" lon="1.80963">
        <ele>174</ele>
        <time>2018-08-19T08:04:42Z</time>
      </trkpt>
      <trkpt lat="48.72999" lon="1.80965">
        <ele>174</ele>
        <time>2018-08-19T08:04:46Z</time>
      </trkpt>
      <trkpt lat="48.72993" lon="1.80966">
        <ele>172</ele>
        <time>2018-08-19T08:04:50Z</time>
      </trkpt>
      <trkpt lat="48.72986" lon="1.80969">
        <ele>171</ele>
        <time>2018-08-19T08:04:54Z</time>
      </trkpt>
      <trkpt lat="48.72981" lon="1.8097">
        <ele>171</ele>
        <time>2018-08-19T08:04:58Z</time>
      </trkpt>
      <trkpt lat="48.72976" lon="1.8097">
        <ele>171</ele>
        <time>2018-08-19T08:05:02Z</time>
      </trkpt>
      <trkpt lat="48.7297" lon="1.80972">
        <ele>171</ele>
        <time>2018-08-19T08:05:06Z</time>
      </trkpt>
      <trkpt lat="48.72965" lon="1.80975">
        <ele>171</ele>
        <time>2018-08-19T08:05:10Z</time>
      </trkpt>
      <trkpt lat="48.7296" lon="1.80978">
        <ele>171</ele>
        <time>2018-08-19T08:05:14Z</time>
      </trkpt>
      <trkpt lat="48.72954" lon="1.80979">
        <ele>171</ele>
        <time>2018-08-19T08:05:18Z</time>
      </trkpt>
      <trkpt lat="48.72949" lon="1.80981">
        <ele>170</ele>
        <time>2018-08-19T08:05:22Z</time>
      </trkpt>
      <trkpt lat="48.72942" lon="1.80983">
        <ele>169</ele>
        <time>2018-08-19T08:05:26Z</time>
      </trkpt>
      <trkpt lat="48.72936" lon="1.80986">
        <ele>169</ele>
        <time>2018-08-19T08:05:30Z</time>
      </trkpt>
      <trkpt lat="48.72929" lon="1.80989">
        <ele>169</ele>
        <time>2018-08-19T08:05:34Z</time>
      </trkpt>
      <trkpt lat="48.72923" lon="1.80992">
        <ele>169</ele>
        <time>2018-08-19T08:05:38Z</time>
      </trkpt>
      <trkpt lat="48.72916" lon="1.80993">
        <ele>169</ele>
        <time>2018-08-19T08:05:42Z</time>
      </trkpt>
      <trkpt lat="48.7291" lon="1.80996">
        <ele>171</ele>
        <time>2018-08-19T08:05:46Z</time>
      </trkpt>
      <trkpt lat="48.72903" lon="1.80995">
        <ele>171</ele>
        <time>2018-08-19T08:05:50Z</time>
      </trkpt>
      <trkpt lat="48.72898" lon="1.80997">
        <ele>171</ele>
        <time>2018-08-19T08:05:54Z</time>
      </trkpt>
      <trkpt lat="48.72891" lon="1.80999">
        <ele>171</ele>
        <time>2018-08-19T08:05:58Z</time>
      </trkpt>
      <trkpt lat="48.72885" lon="1.81001">
        <ele>170</ele>
        <time>2018-08-19T08:06:02Z</time>
      </trkpt>
      <trkpt lat="48.72879" lon="1.81002">
        <ele>168</ele>
        <time>2018-08-19T08:06:06Z</time>
      </trkpt>
      <trkpt lat="48.72873" lon="1.81003">
        <ele>168</ele>
        <time>2018-08-19T08:06:10Z</time>
      </trkpt>
      <trkpt lat="48.72868" lon="1.81005">
        <ele>168</ele>
        <time>2018-08-19T08:06:14Z</time>
      </trkpt>
      <trkpt lat="48.72862" lon="1.81008">
        <ele>168</ele>
        <time>2018-08-19T08:06:18Z</time>
      </trkpt>
      <trkpt lat="48.72855" lon="1.8101">
        <ele>169</ele>
        <time>2018-08-19T08:06:23Z</time>
      </trkpt>
      <trkpt lat="48.7285" lon="1.81013">
        <ele>173</ele>
        <time>2018-08-19T08:06:27Z</time>
      </trkpt>
      <trkpt lat="48.72843" lon="1.81015">
        <ele>177</ele>
        <time>2018-08-19T08:06:31Z</time>
      </trkpt>
      <trkpt lat="48.72836" lon="1.81017">
        <ele>177</ele>
        <time>2018-08-19T08:06:35Z</time>
      </trkpt>
      <trkpt lat="48.72829" lon="1.8102">
        <ele>177</ele>
        <time>2018-08-19T08:06:39Z</time>
      </trkpt>
      <trkpt lat="48.72822" lon="1.81024">
        <ele>178</ele>
        <time>2018-08-19T08:06:43Z</time>
      </trkpt>
      <trkpt lat="48.72814" lon="1.81027">
        <ele>180</ele>
        <time>2018-08-19T08:06:47Z</time>
      </trkpt>
      <trkpt lat="48.72808" lon="1.81027">
        <ele>181</ele>
        <time>2018-08-19T08:06:51Z</time>
      </trkpt>
      <trkpt lat="48.72802" lon="1.81028">
        <ele>180</ele>
        <time>2018-08-19T08:06:56Z</time>
      </trkpt>
      <trkpt lat="48.72797" lon="1.81028">
        <ele>176</ele>
        <time>2018-08-19T08:07:00Z</time>
      </trkpt>
      <trkpt lat="48.7279" lon="1.8103">
        <ele>173</ele>
        <time>2018-08-19T08:07:04Z</time>
      </trkpt>
      <trkpt lat="48.72784" lon="1.81034">
        <ele>172</ele>
        <time>2018-08-19T08:07:08Z</time>
      </trkpt>
      <trkpt lat="48.72777" lon="1.81035">
        <ele>172</ele>
        <time>2018-08-19T08:07:12Z</time>
      </trkpt>
      <trkpt lat="48.7277" lon="1.81037">
        <ele>169</ele>
        <time>2018-08-19T08:07:16Z</time>
      </trkpt>
      <trkpt lat="48.72764" lon="1.81038">
        <ele>169</ele>
        <time>2018-08-19T08:07:20Z</time>
      </trkpt>
      <trkpt lat="48.72759" lon="1.81039">
        <ele>169</ele>
        <time>2018-08-19T08:07:24Z</time>
      </trkpt>
      <trkpt lat="48.72752" lon="1.8104">
        <ele>168</ele>
        <time>2018-08-19T08:07:28Z</time>
      </trkpt>
      <trkpt lat="48.72745" lon="1.81042">
        <ele>168</ele>
        <time>2018-08-19T08:07:32Z</time>
      </trkpt>
      <trkpt lat="48.72739" lon="1.81045">
        <ele>168</ele>
        <time>2018-08-19T08:07:36Z</time>
      </trkpt>
      <trkpt lat="48.72733" lon="1.81046">
        <ele>168</ele>
        <time>2018-08-19T08:07:40Z</time>
      </trkpt>
      <trkpt lat="48.72726" lon="1.81048">
        <ele>168</ele>
        <time>2018-08-19T08:07:45Z</time>
      </trkpt>
      <trkpt lat="48.72719" lon="1.8105">
        <ele>168</ele>
        <time>2018-08-19T08:07:49Z</time>
      </trkpt>
      <trkpt lat="48.72712" lon="1.81054">
        <ele>166</ele>
        <time>2018-08-19T08:07:53Z</time>
      </trkpt>
      <trkpt lat="48.72707" lon="1.81056">
        <ele>166</ele>
        <time>2018-08-19T08:07:57Z</time>
      </trkpt>
      <trkpt lat="48.72701" lon="1.81057">
        <ele>166</ele>
        <time>2018-08-19T08:08:01Z</time>
      </trkpt>
      <trkpt lat="48.72694" lon="1.81059">
        <ele>166</ele>
        <time>2018-08-19T08:08:05Z</time>
      </trkpt>
      <trkpt lat="48.72687" lon="1.8106">
        <ele>166</ele>
        <time>2018-08-19T08:08:09Z</time>
      </trkpt>
      <trkpt lat="48.7268" lon="1.81058">
        <ele>166</ele>
        <time>2018-08-19T08:08:13Z</time>
      </trkpt>
      <trkpt lat="48.72674" lon="1.81055">
        <ele>166</ele>
        <time>2018-08-19T08:08:17Z</time>
      </trkpt>
      <trkpt lat="48.72669" lon="1.81049">
        <ele>166</ele>
        <time>2018-08-19T08:08:21Z</time>
      </trkpt>
      <trkpt lat="48.72665" lon="1.81043">
        <ele>165</ele>
        <time>2018-08-19T08:08:25Z</time>
      </trkpt>
      <trkpt lat="48.7266" lon="1.81036">
        <ele>163</ele>
        <time>2018-08-19T08:08:29Z</time>
      </trkpt>
      <trkpt lat="48.72654" lon="1.8103">
        <ele>160</ele>
        <time>2018-08-19T08:08:34Z</time>
      </trkpt>
      <trkpt lat="48.7265" lon="1.81023">
        <ele>159</ele>
        <time>2018-08-19T08:08:38Z</time>
      </trkpt>
      <trkpt lat="48.72646" lon="1.81017">
        <ele>158</ele>
        <time>2018-08-19T08:08:42Z</time>
      </trkpt>
      <trkpt lat="48.72641" lon="1.8101">
        <ele>158</ele>
        <time>2018-08-19T08:08:46Z</time>
      </trkpt>
      <trkpt lat="48.72637" lon="1.81004">
        <ele>159</ele>
        <time>2018-08-19T08:08:50Z</time>
      </trkpt>
      <trkpt lat="48.72632" lon="1.80998">
        <ele>159</ele>
        <time>2018-08-19T08:08:54Z</time>
      </trkpt>
      <trkpt lat="48.72628" lon="1.8099">
        <ele>159</ele>
        <time>2018-08-19T08:08:58Z</time>
      </trkpt>
      <trkpt lat="48.72627" lon="1.80982">
        <ele>159</ele>
        <time>2018-08-19T08:09:02Z</time>
      </trkpt>
      <trkpt lat="48.72623" lon="1.80975">
        <ele>159</ele>
        <time>2018-08-19T08:09:06Z</time>
      </trkpt>
      <trkpt lat="48.72619" lon="1.80968">
        <ele>159</ele>
        <time>2018-08-19T08:09:10Z</time>
      </trkpt>
      <trkpt lat="48.72615" lon="1.8096">
        <ele>159</ele>
        <time>2018-08-19T08:09:14Z</time>
      </trkpt>
      <trkpt lat="48.72611" lon="1.80951">
        <ele>159</ele>
        <time>2018-08-19T08:09:18Z</time>
      </trkpt>
      <trkpt lat="48.72607" lon="1.80943">
        <ele>159</ele>
        <time>2018-08-19T08:09:22Z</time>
      </trkpt>
      <trkpt lat="48.72603" lon="1.80936">
        <ele>160</ele>
        <time>2018-08-19T08:09:26Z</time>
      </trkpt>
      <trkpt lat="48.72598" lon="1.80929">
        <ele>161</ele>
        <time>2018-08-19T08:09:30Z</time>
      </trkpt>
      <trkpt lat="48.72594" lon="1.80923">
        <ele>162</ele>
        <time>2018-08-19T08:09:34Z</time>
      </trkpt>
      <trkpt lat="48.7259" lon="1.80916">
        <ele>162</ele>
        <time>2018-08-19T08:09:38Z</time>
      </trkpt>
      <trkpt lat="48.72585" lon="1.80909">
        <ele>162</ele>
        <time>2018-08-19T08:09:42Z</time>
      </trkpt>
      <trkpt lat="48.72581" lon="1.80902">
        <ele>162</ele>
        <time>2018-08-19T08:09:46Z</time>
      </trkpt>
      <trkpt lat="48.72577" lon="1.80896">
        <ele>162</ele>
        <time>2018-08-19T08:09:50Z</time>
      </trkpt>
      <trkpt lat="48.72573" lon="1.80889">
        <ele>162</ele>
        <time>2018-08-19T08:09:54Z</time>
      </trkpt>
      <trkpt lat="48.72568" lon="1.80882">
        <ele>162</ele>
        <time>2018-08-19T08:09:58Z</time>
      </trkpt>
      <trkpt lat="48.72564" lon="1.80876">
        <ele>162</ele>
        <time>2018-08-19T08:10:02Z</time>
      </trkpt>
      <trkpt lat="48.7256" lon="1.80869">
        <ele>162</ele>
        <time>2018-08-19T08:10:07Z</time>
      </trkpt>
      <trkpt lat="48.72557" lon="1.80864">
        <ele>162</ele>
        <time>2018-08-19T08:10:12Z</time>
      </trkpt>
      <trkpt lat="48.72555" lon="1.80861">
        <ele>162</ele>
        <time>2018-08-19T08:10:16Z</time>
      </trkpt>
      <trkpt lat="48.72551" lon="1.80854">
        <ele>162</ele>
        <time>2018-08-19T08:10:20Z</time>
      </trkpt>
      <trkpt lat="48.72546" lon="1.80847">
        <ele>162</ele>
        <time>2018-08-19T08:10:25Z</time>
      </trkpt>
      <trkpt lat="48.72545" lon="1.80843">
        <ele>162</ele>
        <time>2018-08-19T08:10:37Z</time>
      </trkpt>
      <trkpt lat="48.72542" lon="1.80839">
        <ele>163</ele>
        <time>2018-08-19T08:10:41Z</time>
      </trkpt>
      <trkpt lat="48.7254" lon="1.80833">
        <ele>163</ele>
        <time>2018-08-19T08:10:45Z</time>
      </trkpt>
      <trkpt lat="48.72538" lon="1.8083">
        <ele>163</ele>
        <time>2018-08-19T08:10:50Z</time>
      </trkpt>
      <trkpt lat="48.72537" lon="1.80829">
        <ele>164</ele>
        <time>2018-08-19T08:10:59Z</time>
      </trkpt>
      <trkpt lat="48.72535" lon="1.80825">
        <ele>164</ele>
        <time>2018-08-19T08:11:04Z</time>
      </trkpt>
      <trkpt lat="48.72532" lon="1.80819">
        <ele>164</ele>
        <time>2018-08-19T08:11:08Z</time>
      </trkpt>
      <trkpt lat="48.7253" lon="1.80817">
        <ele>164</ele>
        <time>2018-08-19T08:11:25Z</time>
      </trkpt>
      <trkpt lat="48.72525" lon="1.8081">
        <ele>164</ele>
        <time>2018-08-19T08:11:30Z</time>
      </trkpt>
      <trkpt lat="48.72522" lon="1.80803">
        <ele>164</ele>
        <time>2018-08-19T08:11:35Z</time>
      </trkpt>
      <trkpt lat="48.72524" lon="1.80806">
        <ele>164</ele>
        <time>2018-08-19T08:11:40Z</time>
      </trkpt>
      <trkpt lat="48.72524" lon="1.80807">
        <ele>164</ele>
        <time>2018-08-19T08:11:47Z</time>
      </trkpt>
      <trkpt lat="48.72524" lon="1.8081">
        <ele>164</ele>
        <time>2018-08-19T08:11:52Z</time>
      </trkpt>
      <trkpt lat="48.72528" lon="1.80813">
        <ele>164</ele>
        <time>2018-08-19T08:11:56Z</time>
      </trkpt>
      <trkpt lat="48.7253" lon="1.80815">
        <ele>165</ele>
        <time>2018-08-19T08:12:03Z</time>
      </trkpt>
      <trkpt lat="48.72529" lon="1.80818">
        <ele>165</ele>
        <time>2018-08-19T08:12:07Z</time>
      </trkpt>
      <trkpt lat="48.72527" lon="1.80815">
        <ele>165</ele>
        <time>2018-08-19T08:12:13Z</time>
      </trkpt>
      <trkpt lat="48.72529" lon="1.80818">
        <ele>165</ele>
        <time>2018-08-19T08:12:18Z</time>
      </trkpt>
      <trkpt lat="48.72529" lon="1.80817">
        <ele>165</ele>
        <time>2018-08-19T08:12:25Z</time>
      </trkpt>
      <trkpt lat="48.72529" lon="1.80815">
        <ele>165</ele>
        <time>2018-08-19T08:12:46Z</time>
      </trkpt>
      <trkpt lat="48.72526" lon="1.80812">
        <ele>165</ele>
        <time>2018-08-19T08:12:51Z</time>
      </trkpt>
      <trkpt lat="48.72525" lon="1.80809">
        <ele>165</ele>
        <time>2018-08-19T08:13:08Z</time>
      </trkpt>
      <trkpt lat="48.72527" lon="1.80808">
        <ele>165</ele>
        <time>2018-08-19T08:13:13Z</time>
      </trkpt>
      <trkpt lat="48.72527" lon="1.8081">
        <ele>168</ele>
        <time>2018-08-19T08:13:33Z</time>
      </trkpt>
      <trkpt lat="48.72523" lon="1.80808">
        <ele>168</ele>
        <time>2018-08-19T08:13:37Z</time>
      </trkpt>
      <trkpt lat="48.72519" lon="1.80801">
        <ele>168</ele>
        <time>2018-08-19T08:13:41Z</time>
      </trkpt>
      <trkpt lat="48.72514" lon="1.80795">
        <ele>168</ele>
        <time>2018-08-19T08:13:45Z</time>
      </trkpt>
      <trkpt lat="48.72511" lon="1.80788">
        <ele>168</ele>
        <time>2018-08-19T08:13:49Z</time>
      </trkpt>
      <trkpt lat="48.72507" lon="1.8078">
        <ele>168</ele>
        <time>2018-08-19T08:13:53Z</time>
      </trkpt>
      <trkpt lat="48.72504" lon="1.80773">
        <ele>168</ele>
        <time>2018-08-19T08:13:57Z</time>
      </trkpt>
      <trkpt lat="48.725" lon="1.80766">
        <ele>168</ele>
        <time>2018-08-19T08:14:01Z</time>
      </trkpt>
      <trkpt lat="48.72496" lon="1.80759">
        <ele>168</ele>
        <time>2018-08-19T08:14:05Z</time>
      </trkpt>
      <trkpt lat="48.72492" lon="1.80753">
        <ele>168</ele>
        <time>2018-08-19T08:14:09Z</time>
      </trkpt>
      <trkpt lat="48.72488" lon="1.80747">
        <ele>168</ele>
        <time>2018-08-19T08:14:13Z</time>
      </trkpt>
      <trkpt lat="48.72483" lon="1.80744">
        <ele>168</ele>
        <time>2018-08-19T08:14:17Z</time>
      </trkpt>
      <trkpt lat="48.72477" lon="1.80739">
        <ele>168</ele>
        <time>2018-08-19T08:14:21Z</time>
      </trkpt>
      <trkpt lat="48.72472" lon="1.80734">
        <ele>168</ele>
        <time>2018-08-19T08:14:25Z</time>
      </trkpt>
      <trkpt lat="48.72467" lon="1.80732">
        <ele>168</ele>
        <time>2018-08-19T08:14:30Z</time>
      </trkpt>
      <trkpt lat="48.7246" lon="1.80736">
        <ele>168</ele>
        <time>2018-08-19T08:14:35Z</time>
      </trkpt>
      <trkpt lat="48.72458" lon="1.80741">
        <ele>168</ele>
        <time>2018-08-19T08:14:39Z</time>
      </trkpt>
      <trkpt lat="48.72454" lon="1.80747">
        <ele>168</ele>
        <time>2018-08-19T08:14:43Z</time>
      </trkpt>
      <trkpt lat="48.7245" lon="1.80748">
        <ele>168</ele>
        <time>2018-08-19T08:14:47Z</time>
      </trkpt>
      <trkpt lat="48.72445" lon="1.80755">
        <ele>168</ele>
        <time>2018-08-19T08:14:51Z</time>
      </trkpt>
      <trkpt lat="48.72441" lon="1.80763">
        <ele>168</ele>
        <time>2018-08-19T08:14:55Z</time>
      </trkpt>
      <trkpt lat="48.72438" lon="1.80771">
        <ele>168</ele>
        <time>2018-08-19T08:14:59Z</time>
      </trkpt>
      <trkpt lat="48.72435" lon="1.80779">
        <ele>168</ele>
        <time>2018-08-19T08:15:03Z</time>
      </trkpt>
      <trkpt lat="48.72431" lon="1.80789">
        <ele>168</ele>
        <time>2018-08-19T08:15:08Z</time>
      </trkpt>
      <trkpt lat="48.72428" lon="1.80797">
        <ele>168</ele>
        <time>2018-08-19T08:15:12Z</time>
      </trkpt>
      <trkpt lat="48.72426" lon="1.80804">
        <ele>168</ele>
        <time>2018-08-19T08:15:16Z</time>
      </trkpt>
      <trkpt lat="48.72423" lon="1.80811">
        <ele>166</ele>
        <time>2018-08-19T08:15:20Z</time>
      </trkpt>
      <trkpt lat="48.7242" lon="1.80818">
        <ele>166</ele>
        <time>2018-08-19T08:15:24Z</time>
      </trkpt>
      <trkpt lat="48.72416" lon="1.80826">
        <ele>165</ele>
        <time>2018-08-19T08:15:28Z</time>
      </trkpt>
      <trkpt lat="48.72412" lon="1.80834">
        <ele>165</ele>
        <time>2018-08-19T08:15:32Z</time>
      </trkpt>
      <trkpt lat="48.72409" lon="1.80844">
        <ele>165</ele>
        <time>2018-08-19T08:15:36Z</time>
      </trkpt>
      <trkpt lat="48.72406" lon="1.80853">
        <ele>165</ele>
        <time>2018-08-19T08:15:40Z</time>
      </trkpt>
      <trkpt lat="48.72403" lon="1.8086">
        <ele>165</ele>
        <time>2018-08-19T08:15:44Z</time>
      </trkpt>
      <trkpt lat="48.724" lon="1.80868">
        <ele>165</ele>
        <time>2018-08-19T08:15:48Z</time>
      </trkpt>
      <trkpt lat="48.72398" lon="1.80877">
        <ele>165</ele>
        <time>2018-08-19T08:15:53Z</time>
      </trkpt>
      <trkpt lat="48.72394" lon="1.80886">
        <ele>165</ele>
        <time>2018-08-19T08:15:57Z</time>
      </trkpt>
      <trkpt lat="48.7239" lon="1.80895">
        <ele>165</ele>
        <time>2018-08-19T08:16:01Z</time>
      </trkpt>
      <trkpt lat="48.72386" lon="1.80902">
        <ele>165</ele>
        <time>2018-08-19T08:16:05Z</time>
      </trkpt>
      <trkpt lat="48.72383" lon="1.80909">
        <ele>165</ele>
        <time>2018-08-19T08:16:09Z</time>
      </trkpt>
      <trkpt lat="48.7238" lon="1.80918">
        <ele>165</ele>
        <time>2018-08-19T08:16:14Z</time>
      </trkpt>
      <trkpt lat="48.72378" lon="1.80927">
        <ele>165</ele>
        <time>2018-08-19T08:16:18Z</time>
      </trkpt>
      <trkpt lat="48.72375" lon="1.80935">
        <ele>165</ele>
        <time>2018-08-19T08:16:22Z</time>
      </trkpt>
      <trkpt lat="48.72371" lon="1.80946">
        <ele>166</ele>
        <time>2018-08-19T08:16:26Z</time>
      </trkpt>
      <trkpt lat="48.72368" lon="1.80954">
        <ele>166</ele>
        <time>2018-08-19T08:16:30Z</time>
      </trkpt>
      <trkpt lat="48.72366" lon="1.80962">
        <ele>168</ele>
        <time>2018-08-19T08:16:34Z</time>
      </trkpt>
      <trkpt lat="48.72362" lon="1.80971">
        <ele>168</ele>
        <time>2018-08-19T08:16:38Z</time>
      </trkpt>
      <trkpt lat="48.72359" lon="1.80979">
        <ele>168</ele>
        <time>2018-08-19T08:16:42Z</time>
      </trkpt>
      <trkpt lat="48.72358" lon="1.8099">
        <ele>170</ele>
        <time>2018-08-19T08:16:46Z</time>
      </trkpt>
      <trkpt lat="48.72355" lon="1.80999">
        <ele>170</ele>
        <time>2018-08-19T08:16:50Z</time>
      </trkpt>
      <trkpt lat="48.7235" lon="1.81008">
        <ele>171</ele>
        <time>2018-08-19T08:16:55Z</time>
      </trkpt>
      <trkpt lat="48.72347" lon="1.81015">
        <ele>171</ele>
        <time>2018-08-19T08:16:59Z</time>
      </trkpt>
      <trkpt lat="48.72345" lon="1.81024">
        <ele>171</ele>
        <time>2018-08-19T08:17:03Z</time>
      </trkpt>
      <trkpt lat="48.72344" lon="1.81034">
        <ele>172</ele>
        <time>2018-08-19T08:17:07Z</time>
      </trkpt>
      <trkpt lat="48.7234" lon="1.81042">
        <ele>172</ele>
        <time>2018-08-19T08:17:11Z</time>
      </trkpt>
      <trkpt lat="48.72337" lon="1.81051">
        <ele>172</ele>
        <time>2018-08-19T08:17:15Z</time>
      </trkpt>
      <trkpt lat="48.72333" lon="1.81059">
        <ele>172</ele>
        <time>2018-08-19T08:17:19Z</time>
      </trkpt>
      <trkpt lat="48.72328" lon="1.8107">
        <ele>172</ele>
        <time>2018-08-19T08:17:23Z</time>
      </trkpt>
      <trkpt lat="48.72326" lon="1.81078">
        <ele>172</ele>
        <time>2018-08-19T08:17:27Z</time>
      </trkpt>
      <trkpt lat="48.72321" lon="1.81088">
        <ele>173</ele>
        <time>2018-08-19T08:17:32Z</time>
      </trkpt>
      <trkpt lat="48.72319" lon="1.81097">
        <ele>173</ele>
        <time>2018-08-19T08:17:36Z</time>
      </trkpt>
      <trkpt lat="48.72315" lon="1.81106">
        <ele>173</ele>
        <time>2018-08-19T08:17:40Z</time>
      </trkpt>
      <trkpt lat="48.72313" lon="1.81114">
        <ele>173</ele>
        <time>2018-08-19T08:17:44Z</time>
      </trkpt>
      <trkpt lat="48.7231" lon="1.81122">
        <ele>173</ele>
        <time>2018-08-19T08:17:48Z</time>
      </trkpt>
      <trkpt lat="48.72308" lon="1.81129">
        <ele>173</ele>
        <time>2018-08-19T08:17:52Z</time>
      </trkpt>
      <trkpt lat="48.72307" lon="1.81136">
        <ele>173</ele>
        <time>2018-08-19T08:17:56Z</time>
      </trkpt>
      <trkpt lat="48.72304" lon="1.81145">
        <ele>173</ele>
        <time>2018-08-19T08:18:00Z</time>
      </trkpt>
      <trkpt lat="48.72302" lon="1.81154">
        <ele>173</ele>
        <time>2018-08-19T08:18:04Z</time>
      </trkpt>
      <trkpt lat="48.72301" lon="1.81164">
        <ele>173</ele>
        <time>2018-08-19T08:18:08Z</time>
      </trkpt>
      <trkpt lat="48.72298" lon="1.81171">
        <ele>173</ele>
        <time>2018-08-19T08:18:12Z</time>
      </trkpt>
      <trkpt lat="48.72294" lon="1.81179">
        <ele>173</ele>
        <time>2018-08-19T08:18:16Z</time>
      </trkpt>
      <trkpt lat="48.7229" lon="1.81188">
        <ele>173</ele>
        <time>2018-08-19T08:18:20Z</time>
      </trkpt>
      <trkpt lat="48.72287" lon="1.81196">
        <ele>173</ele>
        <time>2018-08-19T08:18:24Z</time>
      </trkpt>
      <trkpt lat="48.72285" lon="1.81205">
        <ele>173</ele>
        <time>2018-08-19T08:18:28Z</time>
      </trkpt>
      <trkpt lat="48.72283" lon="1.81212">
        <ele>173</ele>
        <time>2018-08-19T08:18:32Z</time>
      </trkpt>
      <trkpt lat="48.72281" lon="1.8122">
        <ele>173</ele>
        <time>2018-08-19T08:18:36Z</time>
      </trkpt>
      <trkpt lat="48.72278" lon="1.81228">
        <ele>173</ele>
        <time>2018-08-19T08:18:40Z</time>
      </trkpt>
      <trkpt lat="48.72277" lon="1.81234">
        <ele>172</ele>
        <time>2018-08-19T08:18:44Z</time>
      </trkpt>
      <trkpt lat="48.72276" lon="1.81241">
        <ele>172</ele>
        <time>2018-08-19T08:18:48Z</time>
      </trkpt>
      <trkpt lat="48.72274" lon="1.81252">
        <ele>172</ele>
        <time>2018-08-19T08:18:52Z</time>
      </trkpt>
      <trkpt lat="48.72274" lon="1.81262">
        <ele>172</ele>
        <time>2018-08-19T08:18:56Z</time>
      </trkpt>
      <trkpt lat="48.72273" lon="1.81269">
        <ele>173</ele>
        <time>2018-08-19T08:19:00Z</time>
      </trkpt>
      <trkpt lat="48.7227" lon="1.81274">
        <ele>173</ele>
        <time>2018-08-19T08:19:04Z</time>
      </trkpt>
      <trkpt lat="48.72267" lon="1.81285">
        <ele>173</ele>
        <time>2018-08-19T08:19:08Z</time>
      </trkpt>
      <trkpt lat="48.72266" lon="1.81297">
        <ele>173</ele>
        <time>2018-08-19T08:19:12Z</time>
      </trkpt>
      <trkpt lat="48.72264" lon="1.81306">
        <ele>173</ele>
        <time>2018-08-19T08:19:16Z</time>
      </trkpt>
      <trkpt lat="48.7226" lon="1.81315">
        <ele>173</ele>
        <time>2018-08-19T08:19:21Z</time>
      </trkpt>
      <trkpt lat="48.72256" lon="1.81323">
        <ele>173</ele>
        <time>2018-08-19T08:19:25Z</time>
      </trkpt>
      <trkpt lat="48.72253" lon="1.8133">
        <ele>171</ele>
        <time>2018-08-19T08:19:29Z</time>
      </trkpt>
      <trkpt lat="48.72251" lon="1.81339">
        <ele>169</ele>
        <time>2018-08-19T08:19:33Z</time>
      </trkpt>
      <trkpt lat="48.72247" lon="1.81349">
        <ele>169</ele>
        <time>2018-08-19T08:19:37Z</time>
      </trkpt>
      <trkpt lat="48.72245" lon="1.81356">
        <ele>169</ele>
        <time>2018-08-19T08:19:41Z</time>
      </trkpt>
      <trkpt lat="48.72242" lon="1.81364">
        <ele>169</ele>
        <time>2018-08-19T08:19:45Z</time>
      </trkpt>
      <trkpt lat="48.72239" lon="1.81373">
        <ele>169</ele>
        <time>2018-08-19T08:19:49Z</time>
      </trkpt>
      <trkpt lat="48.72236" lon="1.81384">
        <ele>169</ele>
        <time>2018-08-19T08:19:53Z</time>
      </trkpt>
      <trkpt lat="48.72234" lon="1.81393">
        <ele>169</ele>
        <time>2018-08-19T08:19:57Z</time>
      </trkpt>
      <trkpt lat="48.72231" lon="1.81402">
        <ele>169</ele>
        <time>2018-08-19T08:20:01Z</time>
      </trkpt>
      <trkpt lat="48.72229" lon="1.8141">
        <ele>169</ele>
        <time>2018-08-19T08:20:05Z</time>
      </trkpt>
      <trkpt lat="48.72225" lon="1.81415">
        <ele>169</ele>
        <time>2018-08-19T08:20:09Z</time>
      </trkpt>
      <trkpt lat="48.72221" lon="1.81423">
        <ele>169</ele>
        <time>2018-08-19T08:20:13Z</time>
      </trkpt>
      <trkpt lat="48.72218" lon="1.81431">
        <ele>169</ele>
        <time>2018-08-19T08:20:17Z</time>
      </trkpt>
      <trkpt lat="48.72215" lon="1.81439">
        <ele>169</ele>
        <time>2018-08-19T08:20:21Z</time>
      </trkpt>
      <trkpt lat="48.72212" lon="1.81447">
        <ele>169</ele>
        <time>2018-08-19T08:20:25Z</time>
      </trkpt>
      <trkpt lat="48.72209" lon="1.81455">
        <ele>169</ele>
        <time>2018-08-19T08:20:29Z</time>
      </trkpt>
      <trkpt lat="48.72206" lon="1.81463">
        <ele>168</ele>
        <time>2018-08-19T08:20:33Z</time>
      </trkpt>
      <trkpt lat="48.72203" lon="1.81473">
        <ele>168</ele>
        <time>2018-08-19T08:20:37Z</time>
      </trkpt>
      <trkpt lat="48.722" lon="1.81481">
        <ele>168</ele>
        <time>2018-08-19T08:20:41Z</time>
      </trkpt>
      <trkpt lat="48.72198" lon="1.81489">
        <ele>168</ele>
        <time>2018-08-19T08:20:45Z</time>
      </trkpt>
      <trkpt lat="48.72195" lon="1.81497">
        <ele>168</ele>
        <time>2018-08-19T08:20:49Z</time>
      </trkpt>
      <trkpt lat="48.72193" lon="1.81506">
        <ele>168</ele>
        <time>2018-08-19T08:20:53Z</time>
      </trkpt>
      <trkpt lat="48.7219" lon="1.81514">
        <ele>168</ele>
        <time>2018-08-19T08:20:57Z</time>
      </trkpt>
      <trkpt lat="48.72186" lon="1.81522">
        <ele>168</ele>
        <time>2018-08-19T08:21:01Z</time>
      </trkpt>
      <trkpt lat="48.72185" lon="1.81529">
        <ele>168</ele>
        <time>2018-08-19T08:21:05Z</time>
      </trkpt>
      <trkpt lat="48.72181" lon="1.8154">
        <ele>169</ele>
        <time>2018-08-19T08:21:09Z</time>
      </trkpt>
      <trkpt lat="48.72178" lon="1.81549">
        <ele>171</ele>
        <time>2018-08-19T08:21:13Z</time>
      </trkpt>
      <trkpt lat="48.72175" lon="1.81555">
        <ele>171</ele>
        <time>2018-08-19T08:21:17Z</time>
      </trkpt>
      <trkpt lat="48.72173" lon="1.81563">
        <ele>171</ele>
        <time>2018-08-19T08:21:21Z</time>
      </trkpt>
      <trkpt lat="48.7217" lon="1.81571">
        <ele>171</ele>
        <time>2018-08-19T08:21:26Z</time>
      </trkpt>
      <trkpt lat="48.72168" lon="1.81579">
        <ele>171</ele>
        <time>2018-08-19T08:21:30Z</time>
      </trkpt>
      <trkpt lat="48.72165" lon="1.81586">
        <ele>171</ele>
        <time>2018-08-19T08:21:34Z</time>
      </trkpt>
      <trkpt lat="48.72163" lon="1.81593">
        <ele>171</ele>
        <time>2018-08-19T08:21:38Z</time>
      </trkpt>
      <trkpt lat="48.7216" lon="1.81599">
        <ele>171</ele>
        <time>2018-08-19T08:21:42Z</time>
      </trkpt>
      <trkpt lat="48.72156" lon="1.81606">
        <ele>171</ele>
        <time>2018-08-19T08:21:47Z</time>
      </trkpt>
      <trkpt lat="48.72153" lon="1.81613">
        <ele>171</ele>
        <time>2018-08-19T08:21:51Z</time>
      </trkpt>
      <trkpt lat="48.7215" lon="1.8162">
        <ele>171</ele>
        <time>2018-08-19T08:21:55Z</time>
      </trkpt>
      <trkpt lat="48.7215" lon="1.81629">
        <ele>171</ele>
        <time>2018-08-19T08:22:00Z</time>
      </trkpt>
      <trkpt lat="48.72147" lon="1.81638">
        <ele>171</ele>
        <time>2018-08-19T08:22:04Z</time>
      </trkpt>
      <trkpt lat="48.72144" lon="1.81648">
        <ele>171</ele>
        <time>2018-08-19T08:22:08Z</time>
      </trkpt>
      <trkpt lat="48.72141" lon="1.81657">
        <ele>171</ele>
        <time>2018-08-19T08:22:12Z</time>
      </trkpt>
      <trkpt lat="48.72136" lon="1.81666">
        <ele>171</ele>
        <time>2018-08-19T08:22:17Z</time>
      </trkpt>
      <trkpt lat="48.7213" lon="1.81673">
        <ele>171</ele>
        <time>2018-08-19T08:22:22Z</time>
      </trkpt>
      <trkpt lat="48.72126" lon="1.81683">
        <ele>171</ele>
        <time>2018-08-19T08:22:27Z</time>
      </trkpt>
      <trkpt lat="48.72122" lon="1.81693">
        <ele>171</ele>
        <time>2018-08-19T08:22:31Z</time>
      </trkpt>
      <trkpt lat="48.72118" lon="1.81703">
        <ele>171</ele>
        <time>2018-08-19T08:22:35Z</time>
      </trkpt>
      <trkpt lat="48.72117" lon="1.81711">
        <ele>171</ele>
        <time>2018-08-19T08:22:39Z</time>
      </trkpt>
      <trkpt lat="48.72113" lon="1.8172">
        <ele>171</ele>
        <time>2018-08-19T08:22:43Z</time>
      </trkpt>
      <trkpt lat="48.7211" lon="1.81727">
        <ele>171</ele>
        <time>2018-08-19T08:22:47Z</time>
      </trkpt>
      <trkpt lat="48.72106" lon="1.81737">
        <ele>171</ele>
        <time>2018-08-19T08:22:51Z</time>
      </trkpt>
      <trkpt lat="48.72106" lon="1.81746">
        <ele>171</ele>
        <time>2018-08-19T08:22:55Z</time>
      </trkpt>
      <trkpt lat="48.72104" lon="1.81752">
        <ele>171</ele>
        <time>2018-08-19T08:22:59Z</time>
      </trkpt>
      <trkpt lat="48.721" lon="1.81763">
        <ele>171</ele>
        <time>2018-08-19T08:23:03Z</time>
      </trkpt>
      <trkpt lat="48.72096" lon="1.81775">
        <ele>171</ele>
        <time>2018-08-19T08:23:07Z</time>
      </trkpt>
      <trkpt lat="48.72092" lon="1.81785">
        <ele>171</ele>
        <time>2018-08-19T08:23:11Z</time>
      </trkpt>
      <trkpt lat="48.72087" lon="1.81793">
        <ele>171</ele>
        <time>2018-08-19T08:23:16Z</time>
      </trkpt>
      <trkpt lat="48.72084" lon="1.818">
        <ele>171</ele>
        <time>2018-08-19T08:23:20Z</time>
      </trkpt>
      <trkpt lat="48.7208" lon="1.8181">
        <ele>171</ele>
        <time>2018-08-19T08:23:24Z</time>
      </trkpt>
      <trkpt lat="48.72076" lon="1.81818">
        <ele>171</ele>
        <time>2018-08-19T08:23:28Z</time>
      </trkpt>
      <trkpt lat="48.72073" lon="1.81826">
        <ele>171</ele>
        <time>2018-08-19T08:23:33Z</time>
      </trkpt>
      <trkpt lat="48.7207" lon="1.81835">
        <ele>171</ele>
        <time>2018-08-19T08:23:37Z</time>
      </trkpt>
      <trkpt lat="48.72066" lon="1.81845">
        <ele>171</ele>
        <time>2018-08-19T08:23:41Z</time>
      </trkpt>
      <trkpt lat="48.72064" lon="1.81852">
        <ele>171</ele>
        <time>2018-08-19T08:23:45Z</time>
      </trkpt>
      <trkpt lat="48.72061" lon="1.81861">
        <ele>171</ele>
        <time>2018-08-19T08:23:50Z</time>
      </trkpt>
      <trkpt lat="48.72058" lon="1.81871">
        <ele>171</ele>
        <time>2018-08-19T08:23:54Z</time>
      </trkpt>
      <trkpt lat="48.72057" lon="1.81881">
        <ele>171</ele>
        <time>2018-08-19T08:23:58Z</time>
      </trkpt>
      <trkpt lat="48.72053" lon="1.81886">
        <ele>171</ele>
        <time>2018-08-19T08:24:02Z</time>
      </trkpt>
      <trkpt lat="48.72051" lon="1.81892">
        <ele>171</ele>
        <time>2018-08-19T08:24:06Z</time>
      </trkpt>
      <trkpt lat="48.72048" lon="1.81898">
        <ele>171</ele>
        <time>2018-08-19T08:24:10Z</time>
      </trkpt>
      <trkpt lat="48.72044" lon="1.81904">
        <ele>171</ele>
        <time>2018-08-19T08:24:14Z</time>
      </trkpt>
      <trkpt lat="48.72041" lon="1.81913">
        <ele>171</ele>
        <time>2018-08-19T08:24:18Z</time>
      </trkpt>
      <trkpt lat="48.72037" lon="1.81922">
        <ele>171</ele>
        <time>2018-08-19T08:24:22Z</time>
      </trkpt>
      <trkpt lat="48.72034" lon="1.8193">
        <ele>171</ele>
        <time>2018-08-19T08:24:26Z</time>
      </trkpt>
      <trkpt lat="48.7203" lon="1.8194">
        <ele>171</ele>
        <time>2018-08-19T08:24:30Z</time>
      </trkpt>
      <trkpt lat="48.72028" lon="1.81949">
        <ele>171</ele>
        <time>2018-08-19T08:24:34Z</time>
      </trkpt>
      <trkpt lat="48.72026" lon="1.81957">
        <ele>171</ele>
        <time>2018-08-19T08:24:38Z</time>
      </trkpt>
      <trkpt lat="48.72024" lon="1.81966">
        <ele>171</ele>
        <time>2018-08-19T08:24:42Z</time>
      </trkpt>
      <trkpt lat="48.72024" lon="1.81974">
        <ele>173</ele>
        <time>2018-08-19T08:24:46Z</time>
      </trkpt>
      <trkpt lat="48.72024" lon="1.81983">
        <ele>177</ele>
        <time>2018-08-19T08:24:50Z</time>
      </trkpt>
      <trkpt lat="48.7202" lon="1.81991">
        <ele>181</ele>
        <time>2018-08-19T08:24:54Z</time>
      </trkpt>
      <trkpt lat="48.72019" lon="1.82001">
        <ele>185</ele>
        <time>2018-08-19T08:24:58Z</time>
      </trkpt>
      <trkpt lat="48.72019" lon="1.82011">
        <ele>189</ele>
        <time>2018-08-19T08:25:02Z</time>
      </trkpt>
      <trkpt lat="48.72018" lon="1.82021">
        <ele>193</ele>
        <time>2018-08-19T08:25:06Z</time>
      </trkpt>
      <trkpt lat="48.72013" lon="1.82028">
        <ele>196</ele>
        <time>2018-08-19T08:25:10Z</time>
      </trkpt>
      <trkpt lat="48.72005" lon="1.82029">
        <ele>196</ele>
        <time>2018-08-19T08:25:14Z</time>
      </trkpt>
      <trkpt lat="48.71998" lon="1.82031">
        <ele>192</ele>
        <time>2018-08-19T08:25:18Z</time>
      </trkpt>
      <trkpt lat="48.71994" lon="1.82036">
        <ele>188</ele>
        <time>2018-08-19T08:25:22Z</time>
      </trkpt>
      <trkpt lat="48.71989" lon="1.82042">
        <ele>185</ele>
        <time>2018-08-19T08:25:26Z</time>
      </trkpt>
      <trkpt lat="48.71986" lon="1.8205">
        <ele>182</ele>
        <time>2018-08-19T08:25:30Z</time>
      </trkpt>
      <trkpt lat="48.71983" lon="1.82058">
        <ele>180</ele>
        <time>2018-08-19T08:25:34Z</time>
      </trkpt>
      <trkpt lat="48.71978" lon="1.82065">
        <ele>176</ele>
        <time>2018-08-19T08:25:38Z</time>
      </trkpt>
      <trkpt lat="48.71975" lon="1.82072">
        <ele>174</ele>
        <time>2018-08-19T08:25:42Z</time>
      </trkpt>
      <trkpt lat="48.71971" lon="1.8208">
        <ele>173</ele>
        <time>2018-08-19T08:25:46Z</time>
      </trkpt>
      <trkpt lat="48.71968" lon="1.8209">
        <ele>173</ele>
        <time>2018-08-19T08:25:51Z</time>
      </trkpt>
      <trkpt lat="48.71963" lon="1.82098">
        <ele>173</ele>
        <time>2018-08-19T08:25:55Z</time>
      </trkpt>
      <trkpt lat="48.7196" lon="1.82106">
        <ele>173</ele>
        <time>2018-08-19T08:25:59Z</time>
      </trkpt>
      <trkpt lat="48.71957" lon="1.82116">
        <ele>173</ele>
        <time>2018-08-19T08:26:03Z</time>
      </trkpt>
      <trkpt lat="48.71951" lon="1.82129">
        <ele>172</ele>
        <time>2018-08-19T08:26:07Z</time>
      </trkpt>
      <trkpt lat="48.71944" lon="1.82145">
        <ele>171</ele>
        <time>2018-08-19T08:26:11Z</time>
      </trkpt>
      <trkpt lat="48.71936" lon="1.82162">
        <ele>170</ele>
        <time>2018-08-19T08:26:15Z</time>
      </trkpt>
      <trkpt lat="48.71928" lon="1.82179">
        <ele>169</ele>
        <time>2018-08-19T08:26:19Z</time>
      </trkpt>
      <trkpt lat="48.7192" lon="1.82197">
        <ele>169</ele>
        <time>2018-08-19T08:26:23Z</time>
      </trkpt>
      <trkpt lat="48.71911" lon="1.82219">
        <ele>168</ele>
        <time>2018-08-19T08:26:27Z</time>
      </trkpt>
      <trkpt lat="48.71903" lon="1.82239">
        <ele>168</ele>
        <time>2018-08-19T08:26:31Z</time>
      </trkpt>
      <trkpt lat="48.71897" lon="1.82256">
        <ele>168</ele>
        <time>2018-08-19T08:26:35Z</time>
      </trkpt>
      <trkpt lat="48.71889" lon="1.82274">
        <ele>168</ele>
        <time>2018-08-19T08:26:39Z</time>
      </trkpt>
      <trkpt lat="48.71882" lon="1.82289">
        <ele>168</ele>
        <time>2018-08-19T08:26:43Z</time>
      </trkpt>
      <trkpt lat="48.71875" lon="1.82306">
        <ele>168</ele>
        <time>2018-08-19T08:26:47Z</time>
      </trkpt>
      <trkpt lat="48.71866" lon="1.82324">
        <ele>168</ele>
        <time>2018-08-19T08:26:51Z</time>
      </trkpt>
      <trkpt lat="48.71859" lon="1.82343">
        <ele>168</ele>
        <time>2018-08-19T08:26:55Z</time>
      </trkpt>
      <trkpt lat="48.71852" lon="1.82362">
        <ele>168</ele>
        <time>2018-08-19T08:26:59Z</time>
      </trkpt>
      <trkpt lat="48.71845" lon="1.8238">
        <ele>168</ele>
        <time>2018-08-19T08:27:03Z</time>
      </trkpt>
      <trkpt lat="48.71837" lon="1.82398">
        <ele>168</ele>
        <time>2018-08-19T08:27:07Z</time>
      </trkpt>
      <trkpt lat="48.7183" lon="1.82416">
        <ele>168</ele>
        <time>2018-08-19T08:27:11Z</time>
      </trkpt>
      <trkpt lat="48.71822" lon="1.82434">
        <ele>168</ele>
        <time>2018-08-19T08:27:15Z</time>
      </trkpt>
      <trkpt lat="48.71815" lon="1.82451">
        <ele>168</ele>
        <time>2018-08-19T08:27:19Z</time>
      </trkpt>
      <trkpt lat="48.71809" lon="1.82468">
        <ele>168</ele>
        <time>2018-08-19T08:27:23Z</time>
      </trkpt>
      <trkpt lat="48.71801" lon="1.82484">
        <ele>168</ele>
        <time>2018-08-19T08:27:27Z</time>
      </trkpt>
      <trkpt lat="48.71797" lon="1.82502">
        <ele>168</ele>
        <time>2018-08-19T08:27:31Z</time>
      </trkpt>
      <trkpt lat="48.71792" lon="1.82521">
        <ele>168</ele>
        <time>2018-08-19T08:27:35Z</time>
      </trkpt>
      <trkpt lat="48.71786" lon="1.82536">
        <ele>169</ele>
        <time>2018-08-19T08:27:39Z</time>
      </trkpt>
      <trkpt lat="48.7178" lon="1.82553">
        <ele>170</ele>
        <time>2018-08-19T08:27:43Z</time>
      </trkpt>
      <trkpt lat="48.71774" lon="1.82569">
        <ele>170</ele>
        <time>2018-08-19T08:27:47Z</time>
      </trkpt>
      <trkpt lat="48.71768" lon="1.82582">
        <ele>170</ele>
        <time>2018-08-19T08:27:52Z</time>
      </trkpt>
      <trkpt lat="48.71765" lon="1.82593">
        <ele>170</ele>
        <time>2018-08-19T08:27:56Z</time>
      </trkpt>
      <trkpt lat="48.71759" lon="1.82606">
        <ele>170</ele>
        <time>2018-08-19T08:28:00Z</time>
      </trkpt>
      <trkpt lat="48.71755" lon="1.82621">
        <ele>170</ele>
        <time>2018-08-19T08:28:04Z</time>
      </trkpt>
      <trkpt lat="48.7175" lon="1.82637">
        <ele>170</ele>
        <time>2018-08-19T08:28:08Z</time>
      </trkpt>
      <trkpt lat="48.71743" lon="1.82653">
        <ele>170</ele>
        <time>2018-08-19T08:28:12Z</time>
      </trkpt>
      <trkpt lat="48.71738" lon="1.82672">
        <ele>170</ele>
        <time>2018-08-19T08:28:16Z</time>
      </trkpt>
      <trkpt lat="48.71732" lon="1.82687">
        <ele>170</ele>
        <time>2018-08-19T08:28:20Z</time>
      </trkpt>
      <trkpt lat="48.71726" lon="1.82701">
        <ele>170</ele>
        <time>2018-08-19T08:28:24Z</time>
      </trkpt>
      <trkpt lat="48.71719" lon="1.82717">
        <ele>170</ele>
        <time>2018-08-19T08:28:28Z</time>
      </trkpt>
      <trkpt lat="48.71714" lon="1.82735">
        <ele>170</ele>
        <time>2018-08-19T08:28:32Z</time>
      </trkpt>
      <trkpt lat="48.71708" lon="1.82753">
        <ele>170</ele>
        <time>2018-08-19T08:28:36Z</time>
      </trkpt>
      <trkpt lat="48.71702" lon="1.82772">
        <ele>170</ele>
        <time>2018-08-19T08:28:40Z</time>
      </trkpt>
      <trkpt lat="48.71696" lon="1.82788">
        <ele>170</ele>
        <time>2018-08-19T08:28:44Z</time>
      </trkpt>
      <trkpt lat="48.7169" lon="1.82806">
        <ele>170</ele>
        <time>2018-08-19T08:28:48Z</time>
      </trkpt>
      <trkpt lat="48.71684" lon="1.82822">
        <ele>170</ele>
        <time>2018-08-19T08:28:52Z</time>
      </trkpt>
      <trkpt lat="48.71678" lon="1.82839">
        <ele>170</ele>
        <time>2018-08-19T08:28:56Z</time>
      </trkpt>
      <trkpt lat="48.71672" lon="1.82856">
        <ele>170</ele>
        <time>2018-08-19T08:29:00Z</time>
      </trkpt>
      <trkpt lat="48.71666" lon="1.82873">
        <ele>170</ele>
        <time>2018-08-19T08:29:04Z</time>
      </trkpt>
      <trkpt lat="48.7166" lon="1.82889">
        <ele>170</ele>
        <time>2018-08-19T08:29:08Z</time>
      </trkpt>
      <trkpt lat="48.71655" lon="1.82906">
        <ele>170</ele>
        <time>2018-08-19T08:29:12Z</time>
      </trkpt>
      <trkpt lat="48.71649" lon="1.82921">
        <ele>170</ele>
        <time>2018-08-19T08:29:16Z</time>
      </trkpt>
      <trkpt lat="48.71645" lon="1.8293">
        <ele>170</ele>
        <time>2018-08-19T08:29:20Z</time>
      </trkpt>
      <trkpt lat="48.71641" lon="1.82936">
        <ele>170</ele>
        <time>2018-08-19T08:29:24Z</time>
      </trkpt>
      <trkpt lat="48.71639" lon="1.82944">
        <ele>170</ele>
        <time>2018-08-19T08:29:28Z</time>
      </trkpt>
      <trkpt lat="48.71637" lon="1.82952">
        <ele>170</ele>
        <time>2018-08-19T08:29:32Z</time>
      </trkpt>
      <trkpt lat="48.71635" lon="1.82961">
        <ele>170</ele>
        <time>2018-08-19T08:29:36Z</time>
      </trkpt>
      <trkpt lat="48.71633" lon="1.8297">
        <ele>170</ele>
        <time>2018-08-19T08:29:40Z</time>
      </trkpt>
      <trkpt lat="48.7163" lon="1.82979">
        <ele>170</ele>
        <time>2018-08-19T08:29:44Z</time>
      </trkpt>
      <trkpt lat="48.71627" lon="1.82986">
        <ele>170</ele>
        <time>2018-08-19T08:29:48Z</time>
      </trkpt>
      <trkpt lat="48.71626" lon="1.82994">
        <ele>170</ele>
        <time>2018-08-19T08:29:52Z</time>
      </trkpt>
      <trkpt lat="48.7162" lon="1.83002">
        <ele>170</ele>
        <time>2018-08-19T08:29:56Z</time>
      </trkpt>
      <trkpt lat="48.71612" lon="1.83015">
        <ele>170</ele>
        <time>2018-08-19T08:30:00Z</time>
      </trkpt>
      <trkpt lat="48.71604" lon="1.8303">
        <ele>170</ele>
        <time>2018-08-19T08:30:04Z</time>
      </trkpt>
      <trkpt lat="48.71598" lon="1.83046">
        <ele>170</ele>
        <time>2018-08-19T08:30:08Z</time>
      </trkpt>
      <trkpt lat="48.7159" lon="1.83063">
        <ele>170</ele>
        <time>2018-08-19T08:30:12Z</time>
      </trkpt>
      <trkpt lat="48.71582" lon="1.83078">
        <ele>170</ele>
        <time>2018-08-19T08:30:16Z</time>
      </trkpt>
      <trkpt lat="48.71575" lon="1.83091">
        <ele>170</ele>
        <time>2018-08-19T08:30:20Z</time>
      </trkpt>
      <trkpt lat="48.71567" lon="1.83105">
        <ele>170</ele>
        <time>2018-08-19T08:30:24Z</time>
      </trkpt>
      <trkpt lat="48.71559" lon="1.83119">
        <ele>170</ele>
        <time>2018-08-19T08:30:28Z</time>
      </trkpt>
      <trkpt lat="48.7155" lon="1.83132">
        <ele>170</ele>
        <time>2018-08-19T08:30:32Z</time>
      </trkpt>
      <trkpt lat="48.71542" lon="1.83144">
        <ele>170</ele>
        <time>2018-08-19T08:30:36Z</time>
      </trkpt>
      <trkpt lat="48.71534" lon="1.83155">
        <ele>170</ele>
        <time>2018-08-19T08:30:40Z</time>
      </trkpt>
      <trkpt lat="48.71526" lon="1.83168">
        <ele>170</ele>
        <time>2018-08-19T08:30:44Z</time>
      </trkpt>
      <trkpt lat="48.71516" lon="1.83182">
        <ele>170</ele>
        <time>2018-08-19T08:30:48Z</time>
      </trkpt>
      <trkpt lat="48.71504" lon="1.83199">
        <ele>170</ele>
        <time>2018-08-19T08:30:52Z</time>
      </trkpt>
      <trkpt lat="48.71489" lon="1.83217">
        <ele>170</ele>
        <time>2018-08-19T08:30:56Z</time>
      </trkpt>
      <trkpt lat="48.71474" lon="1.83235">
        <ele>170</ele>
        <time>2018-08-19T08:31:00Z</time>
      </trkpt>
      <trkpt lat="48.71459" lon="1.83249">
        <ele>170</ele>
        <time>2018-08-19T08:31:04Z</time>
      </trkpt>
      <trkpt lat="48.71443" lon="1.83262">
        <ele>170</ele>
        <time>2018-08-19T08:31:08Z</time>
      </trkpt>
      <trkpt lat="48.71426" lon="1.83274">
        <ele>172</ele>
        <time>2018-08-19T08:31:12Z</time>
      </trkpt>
      <trkpt lat="48.71409" lon="1.83287">
        <ele>173</ele>
        <time>2018-08-19T08:31:16Z</time>
      </trkpt>
      <trkpt lat="48.71387" lon="1.83304">
        <ele>176</ele>
        <time>2018-08-19T08:31:20Z</time>
      </trkpt>
      <trkpt lat="48.71368" lon="1.83325">
        <ele>177</ele>
        <time>2018-08-19T08:31:24Z</time>
      </trkpt>
      <trkpt lat="48.71349" lon="1.83344">
        <ele>179</ele>
        <time>2018-08-19T08:31:28Z</time>
      </trkpt>
      <trkpt lat="48.71329" lon="1.83359">
        <ele>180</ele>
        <time>2018-08-19T08:31:32Z</time>
      </trkpt>
      <trkpt lat="48.71309" lon="1.83371">
        <ele>180</ele>
        <time>2018-08-19T08:31:36Z</time>
      </trkpt>
      <trkpt lat="48.71289" lon="1.8338">
        <ele>180</ele>
        <time>2018-08-19T08:31:40Z</time>
      </trkpt>
      <trkpt lat="48.7127" lon="1.8339">
        <ele>180</ele>
        <time>2018-08-19T08:31:44Z</time>
      </trkpt>
      <trkpt lat="48.7125" lon="1.83404">
        <ele>180</ele>
        <time>2018-08-19T08:31:48Z</time>
      </trkpt>
      <trkpt lat="48.71231" lon="1.83418">
        <ele>180</ele>
        <time>2018-08-19T08:31:52Z</time>
      </trkpt>
      <trkpt lat="48.71213" lon="1.83429">
        <ele>180</ele>
        <time>2018-08-19T08:31:56Z</time>
      </trkpt>
      <trkpt lat="48.71196" lon="1.8344">
        <ele>179</ele>
        <time>2018-08-19T08:32:00Z</time>
      </trkpt>
      <trkpt lat="48.71178" lon="1.83453">
        <ele>177</ele>
        <time>2018-08-19T08:32:04Z</time>
      </trkpt>
      <trkpt lat="48.71162" lon="1.83464">
        <ele>175</ele>
        <time>2018-08-19T08:32:08Z</time>
      </trkpt>
      <trkpt lat="48.71149" lon="1.83471">
        <ele>175</ele>
        <time>2018-08-19T08:32:12Z</time>
      </trkpt>
      <trkpt lat="48.71138" lon="1.83476">
        <ele>175</ele>
        <time>2018-08-19T08:32:16Z</time>
      </trkpt>
      <trkpt lat="48.71135" lon="1.83484">
        <ele>175</ele>
        <time>2018-08-19T08:32:21Z</time>
      </trkpt>
      <trkpt lat="48.71135" lon="1.83489">
        <ele>175</ele>
        <time>2018-08-19T08:32:26Z</time>
      </trkpt>
      <trkpt lat="48.71134" lon="1.83498">
        <ele>174</ele>
        <time>2018-08-19T08:32:30Z</time>
      </trkpt>
      <trkpt lat="48.71131" lon="1.83513">
        <ele>172</ele>
        <time>2018-08-19T08:32:34Z</time>
      </trkpt>
      <trkpt lat="48.71131" lon="1.83521">
        <ele>172</ele>
        <time>2018-08-19T08:32:42Z</time>
      </trkpt>
      <trkpt lat="48.71132" lon="1.83525">
        <ele>172</ele>
        <time>2018-08-19T08:32:52Z</time>
      </trkpt>
      <trkpt lat="48.71132" lon="1.83527">
        <ele>172</ele>
        <time>2018-08-19T08:32:56Z</time>
      </trkpt>
      <trkpt lat="48.7113" lon="1.83535">
        <ele>172</ele>
        <time>2018-08-19T08:33:00Z</time>
      </trkpt>
      <trkpt lat="48.71125" lon="1.83548">
        <ele>172</ele>
        <time>2018-08-19T08:33:04Z</time>
      </trkpt>
      <trkpt lat="48.7112" lon="1.83568">
        <ele>172</ele>
        <time>2018-08-19T08:33:08Z</time>
      </trkpt>
      <trkpt lat="48.71114" lon="1.83587">
        <ele>172</ele>
        <time>2018-08-19T08:33:12Z</time>
      </trkpt>
      <trkpt lat="48.7111" lon="1.83605">
        <ele>172</ele>
        <time>2018-08-19T08:33:16Z</time>
      </trkpt>
      <trkpt lat="48.71104" lon="1.83624">
        <ele>172</ele>
        <time>2018-08-19T08:33:20Z</time>
      </trkpt>
      <trkpt lat="48.71099" lon="1.83644">
        <ele>172</ele>
        <time>2018-08-19T08:33:24Z</time>
      </trkpt>
      <trkpt lat="48.71092" lon="1.83665">
        <ele>172</ele>
        <time>2018-08-19T08:33:28Z</time>
      </trkpt>
      <trkpt lat="48.71085" lon="1.83687">
        <ele>172</ele>
        <time>2018-08-19T08:33:32Z</time>
      </trkpt>
      <trkpt lat="48.71078" lon="1.8371">
        <ele>172</ele>
        <time>2018-08-19T08:33:36Z</time>
      </trkpt>
      <trkpt lat="48.71072" lon="1.83735">
        <ele>172</ele>
        <time>2018-08-19T08:33:40Z</time>
      </trkpt>
      <trkpt lat="48.71063" lon="1.83764">
        <ele>172</ele>
        <time>2018-08-19T08:33:44Z</time>
      </trkpt>
      <trkpt lat="48.71055" lon="1.83793">
        <ele>172</ele>
        <time>2018-08-19T08:33:48Z</time>
      </trkpt>
      <trkpt lat="48.71047" lon="1.83821">
        <ele>172</ele>
        <time>2018-08-19T08:33:52Z</time>
      </trkpt>
      <trkpt lat="48.71037" lon="1.83852">
        <ele>172</ele>
        <time>2018-08-19T08:33:56Z</time>
      </trkpt>
      <trkpt lat="48.71028" lon="1.83883">
        <ele>172</ele>
        <time>2018-08-19T08:34:00Z</time>
      </trkpt>
      <trkpt lat="48.71019" lon="1.8391">
        <ele>172</ele>
        <time>2018-08-19T08:34:04Z</time>
      </trkpt>
      <trkpt lat="48.7101" lon="1.8394">
        <ele>172</ele>
        <time>2018-08-19T08:34:08Z</time>
      </trkpt>
      <trkpt lat="48.71" lon="1.83971">
        <ele>172</ele>
        <time>2018-08-19T08:34:12Z</time>
      </trkpt>
      <trkpt lat="48.70991" lon="1.84001">
        <ele>172</ele>
        <time>2018-08-19T08:34:16Z</time>
      </trkpt>
      <trkpt lat="48.70981" lon="1.84031">
        <ele>172</ele>
        <time>2018-08-19T08:34:20Z</time>
      </trkpt>
      <trkpt lat="48.70971" lon="1.84062">
        <ele>172</ele>
        <time>2018-08-19T08:34:24Z</time>
      </trkpt>
      <trkpt lat="48.7096" lon="1.84092">
        <ele>172</ele>
        <time>2018-08-19T08:34:28Z</time>
      </trkpt>
      <trkpt lat="48.7095" lon="1.84122">
        <ele>172</ele>
        <time>2018-08-19T08:34:32Z</time>
      </trkpt>
      <trkpt lat="48.7094" lon="1.84151">
        <ele>172</ele>
        <time>2018-08-19T08:34:36Z</time>
      </trkpt>
      <trkpt lat="48.70931" lon="1.8418">
        <ele>172</ele>
        <time>2018-08-19T08:34:40Z</time>
      </trkpt>
      <trkpt lat="48.70921" lon="1.84209">
        <ele>172</ele>
        <time>2018-08-19T08:34:44Z</time>
      </trkpt>
      <trkpt lat="48.7091" lon="1.84239">
        <ele>172</ele>
        <time>2018-08-19T08:34:48Z</time>
      </trkpt>
      <trkpt lat="48.70899" lon="1.8427">
        <ele>172</ele>
        <time>2018-08-19T08:34:52Z</time>
      </trkpt>
      <trkpt lat="48.70889" lon="1.84301">
        <ele>172</ele>
        <time>2018-08-19T08:34:56Z</time>
      </trkpt>
      <trkpt lat="48.7088" lon="1.84335">
        <ele>172</ele>
        <time>2018-08-19T08:35:00Z</time>
      </trkpt>
      <trkpt lat="48.70871" lon="1.84367">
        <ele>172</ele>
        <time>2018-08-19T08:35:04Z</time>
      </trkpt>
      <trkpt lat="48.70863" lon="1.84399">
        <ele>172</ele>
        <time>2018-08-19T08:35:08Z</time>
      </trkpt>
      <trkpt lat="48.70855" lon="1.8443">
        <ele>172</ele>
        <time>2018-08-19T08:35:12Z</time>
      </trkpt>
      <trkpt lat="48.70845" lon="1.84462">
        <ele>172</ele>
        <time>2018-08-19T08:35:16Z</time>
      </trkpt>
      <trkpt lat="48.70836" lon="1.84495">
        <ele>172</ele>
        <time>2018-08-19T08:35:20Z</time>
      </trkpt>
      <trkpt lat="48.70828" lon="1.84526">
        <ele>172</ele>
        <time>2018-08-19T08:35:24Z</time>
      </trkpt>
      <trkpt lat="48.70818" lon="1.84557">
        <ele>172</ele>
        <time>2018-08-19T08:35:28Z</time>
      </trkpt>
      <trkpt lat="48.70809" lon="1.84589">
        <ele>172</ele>
        <time>2018-08-19T08:35:32Z</time>
      </trkpt>
      <trkpt lat="48.70798" lon="1.84621">
        <ele>172</ele>
        <time>2018-08-19T08:35:36Z</time>
      </trkpt>
      <trkpt lat="48.70788" lon="1.84653">
        <ele>172</ele>
        <time>2018-08-19T08:35:40Z</time>
      </trkpt>
      <trkpt lat="48.70777" lon="1.84685">
        <ele>172</ele>
        <time>2018-08-19T08:35:44Z</time>
      </trkpt>
      <trkpt lat="48.70766" lon="1.84716">
        <ele>172</ele>
        <time>2018-08-19T08:35:48Z</time>
      </trkpt>
      <trkpt lat="48.70755" lon="1.84748">
        <ele>172</ele>
        <time>2018-08-19T08:35:52Z</time>
      </trkpt>
      <trkpt lat="48.70745" lon="1.84782">
        <ele>172</ele>
        <time>2018-08-19T08:35:56Z</time>
      </trkpt>
      <trkpt lat="48.70736" lon="1.84815">
        <ele>172</ele>
        <time>2018-08-19T08:36:00Z</time>
      </trkpt>
      <trkpt lat="48.70725" lon="1.84847">
        <ele>172</ele>
        <time>2018-08-19T08:36:04Z</time>
      </trkpt>
      <trkpt lat="48.70716" lon="1.84878">
        <ele>172</ele>
        <time>2018-08-19T08:36:08Z</time>
      </trkpt>
      <trkpt lat="48.70706" lon="1.8491">
        <ele>172</ele>
        <time>2018-08-19T08:36:12Z</time>
      </trkpt>
      <trkpt lat="48.70696" lon="1.84941">
        <ele>172</ele>
        <time>2018-08-19T08:36:16Z</time>
      </trkpt>
      <trkpt lat="48.70687" lon="1.84974">
        <ele>172</ele>
        <time>2018-08-19T08:36:20Z</time>
      </trkpt>
      <trkpt lat="48.70678" lon="1.85007">
        <ele>172</ele>
        <time>2018-08-19T08:36:24Z</time>
      </trkpt>
      <trkpt lat="48.70668" lon="1.85039">
        <ele>172</ele>
        <time>2018-08-19T08:36:28Z</time>
      </trkpt>
      <trkpt lat="48.70659" lon="1.85069">
        <ele>172</ele>
        <time>2018-08-19T08:36:32Z</time>
      </trkpt>
      <trkpt lat="48.70651" lon="1.85097">
        <ele>172</ele>
        <time>2018-08-19T08:36:36Z</time>
      </trkpt>
      <trkpt lat="48.70642" lon="1.85125">
        <ele>172</ele>
        <time>2018-08-19T08:36:40Z</time>
      </trkpt>
      <trkpt lat="48.70635" lon="1.85148">
        <ele>172</ele>
        <time>2018-08-19T08:36:44Z</time>
      </trkpt>
      <trkpt lat="48.70628" lon="1.85169">
        <ele>171</ele>
        <time>2018-08-19T08:36:48Z</time>
      </trkpt>
      <trkpt lat="48.70623" lon="1.8519">
        <ele>171</ele>
        <time>2018-08-19T08:36:52Z</time>
      </trkpt>
      <trkpt lat="48.70617" lon="1.85209">
        <ele>170</ele>
        <time>2018-08-19T08:36:56Z</time>
      </trkpt>
      <trkpt lat="48.70609" lon="1.8523">
        <ele>170</ele>
        <time>2018-08-19T08:37:00Z</time>
      </trkpt>
      <trkpt lat="48.70604" lon="1.85248">
        <ele>170</ele>
        <time>2018-08-19T08:37:04Z</time>
      </trkpt>
      <trkpt lat="48.70597" lon="1.85269">
        <ele>170</ele>
        <time>2018-08-19T08:37:08Z</time>
      </trkpt>
      <trkpt lat="48.7059" lon="1.85289">
        <ele>170</ele>
        <time>2018-08-19T08:37:12Z</time>
      </trkpt>
      <trkpt lat="48.70585" lon="1.85307">
        <ele>170</ele>
        <time>2018-08-19T08:37:16Z</time>
      </trkpt>
      <trkpt lat="48.70581" lon="1.85321">
        <ele>170</ele>
        <time>2018-08-19T08:37:20Z</time>
      </trkpt>
      <trkpt lat="48.70578" lon="1.85329">
        <ele>170</ele>
        <time>2018-08-19T08:37:24Z</time>
      </trkpt>
      <trkpt lat="48.70575" lon="1.85339">
        <ele>170</ele>
        <time>2018-08-19T08:37:28Z</time>
      </trkpt>
      <trkpt lat="48.70573" lon="1.85347">
        <ele>171</ele>
        <time>2018-08-19T08:37:32Z</time>
      </trkpt>
      <trkpt lat="48.70572" lon="1.85354">
        <ele>171</ele>
        <time>2018-08-19T08:37:36Z</time>
      </trkpt>
      <trkpt lat="48.70573" lon="1.85362">
        <ele>171</ele>
        <time>2018-08-19T08:37:40Z</time>
      </trkpt>
      <trkpt lat="48.70576" lon="1.85369">
        <ele>171</ele>
        <time>2018-08-19T08:37:44Z</time>
      </trkpt>
      <trkpt lat="48.7058" lon="1.85374">
        <ele>171</ele>
        <time>2018-08-19T08:37:49Z</time>
      </trkpt>
      <trkpt lat="48.70586" lon="1.85381">
        <ele>172</ele>
        <time>2018-08-19T08:37:53Z</time>
      </trkpt>
      <trkpt lat="48.70591" lon="1.85386">
        <ele>173</ele>
        <time>2018-08-19T08:37:58Z</time>
      </trkpt>
      <trkpt lat="48.70594" lon="1.8539">
        <ele>173</ele>
        <time>2018-08-19T08:38:02Z</time>
      </trkpt>
      <trkpt lat="48.70598" lon="1.85395">
        <ele>173</ele>
        <time>2018-08-19T08:38:06Z</time>
      </trkpt>
      <trkpt lat="48.70603" lon="1.85399">
        <ele>173</ele>
        <time>2018-08-19T08:38:10Z</time>
      </trkpt>
      <trkpt lat="48.70609" lon="1.85406">
        <ele>172</ele>
        <time>2018-08-19T08:38:14Z</time>
      </trkpt>
      <trkpt lat="48.70616" lon="1.85414">
        <ele>171</ele>
        <time>2018-08-19T08:38:18Z</time>
      </trkpt>
      <trkpt lat="48.70625" lon="1.85424">
        <ele>169</ele>
        <time>2018-08-19T08:38:22Z</time>
      </trkpt>
      <trkpt lat="48.70635" lon="1.85435">
        <ele>169</ele>
        <time>2018-08-19T08:38:26Z</time>
      </trkpt>
      <trkpt lat="48.70646" lon="1.85446">
        <ele>169</ele>
        <time>2018-08-19T08:38:30Z</time>
      </trkpt>
      <trkpt lat="48.70656" lon="1.85457">
        <ele>169</ele>
        <time>2018-08-19T08:38:34Z</time>
      </trkpt>
      <trkpt lat="48.70667" lon="1.85469">
        <ele>169</ele>
        <time>2018-08-19T08:38:38Z</time>
      </trkpt>
      <trkpt lat="48.70678" lon="1.85481">
        <ele>169</ele>
        <time>2018-08-19T08:38:42Z</time>
      </trkpt>
      <trkpt lat="48.70688" lon="1.85493">
        <ele>169</ele>
        <time>2018-08-19T08:38:46Z</time>
      </trkpt>
      <trkpt lat="48.70697" lon="1.85504">
        <ele>169</ele>
        <time>2018-08-19T08:38:50Z</time>
      </trkpt>
      <trkpt lat="48.70704" lon="1.85511">
        <ele>169</ele>
        <time>2018-08-19T08:38:54Z</time>
      </trkpt>
      <trkpt lat="48.70708" lon="1.85515">
        <ele>169</ele>
        <time>2018-08-19T08:38:58Z</time>
      </trkpt>
      <trkpt lat="48.70712" lon="1.85519">
        <ele>169</ele>
        <time>2018-08-19T08:39:02Z</time>
      </trkpt>
      <trkpt lat="48.70715" lon="1.85523">
        <ele>169</ele>
        <time>2018-08-19T08:39:06Z</time>
      </trkpt>
      <trkpt lat="48.70715" lon="1.8553">
        <ele>169</ele>
        <time>2018-08-19T08:39:10Z</time>
      </trkpt>
      <trkpt lat="48.70711" lon="1.85537">
        <ele>169</ele>
        <time>2018-08-19T08:39:14Z</time>
      </trkpt>
      <trkpt lat="48.70706" lon="1.85542">
        <ele>169</ele>
        <time>2018-08-19T08:39:18Z</time>
      </trkpt>
      <trkpt lat="48.70701" lon="1.85548">
        <ele>169</ele>
        <time>2018-08-19T08:39:22Z</time>
      </trkpt>
      <trkpt lat="48.70696" lon="1.85554">
        <ele>169</ele>
        <time>2018-08-19T08:39:26Z</time>
      </trkpt>
      <trkpt lat="48.70691" lon="1.8556">
        <ele>169</ele>
        <time>2018-08-19T08:39:30Z</time>
      </trkpt>
      <trkpt lat="48.70686" lon="1.85565">
        <ele>169</ele>
        <time>2018-08-19T08:39:34Z</time>
      </trkpt>
      <trkpt lat="48.70681" lon="1.8557">
        <ele>169</ele>
        <time>2018-08-19T08:39:38Z</time>
      </trkpt>
      <trkpt lat="48.70676" lon="1.85576">
        <ele>169</ele>
        <time>2018-08-19T08:39:42Z</time>
      </trkpt>
      <trkpt lat="48.70671" lon="1.85581">
        <ele>169</ele>
        <time>2018-08-19T08:39:46Z</time>
      </trkpt>
      <trkpt lat="48.70666" lon="1.85588">
        <ele>169</ele>
        <time>2018-08-19T08:39:50Z</time>
      </trkpt>
      <trkpt lat="48.70661" lon="1.85594">
        <ele>169</ele>
        <time>2018-08-19T08:39:54Z</time>
      </trkpt>
      <trkpt lat="48.70656" lon="1.85601">
        <ele>170</ele>
        <time>2018-08-19T08:39:58Z</time>
      </trkpt>
      <trkpt lat="48.70651" lon="1.85607">
        <ele>172</ele>
        <time>2018-08-19T08:40:02Z</time>
      </trkpt>
      <trkpt lat="48.70644" lon="1.85614">
        <ele>172</ele>
        <time>2018-08-19T08:40:07Z</time>
      </trkpt>
      <trkpt lat="48.70638" lon="1.85621">
        <ele>172</ele>
        <time>2018-08-19T08:40:12Z</time>
      </trkpt>
      <trkpt lat="48.70634" lon="1.85627">
        <ele>172</ele>
        <time>2018-08-19T08:40:16Z</time>
      </trkpt>
      <trkpt lat="48.70629" lon="1.85631">
        <ele>172</ele>
        <time>2018-08-19T08:40:20Z</time>
      </trkpt>
      <trkpt lat="48.70625" lon="1.85637">
        <ele>172</ele>
        <time>2018-08-19T08:40:24Z</time>
      </trkpt>
      <trkpt lat="48.7062" lon="1.85644">
        <ele>172</ele>
        <time>2018-08-19T08:40:28Z</time>
      </trkpt>
      <trkpt lat="48.70615" lon="1.85652">
        <ele>173</ele>
        <time>2018-08-19T08:40:32Z</time>
      </trkpt>
      <trkpt lat="48.70609" lon="1.85658">
        <ele>173</ele>
        <time>2018-08-19T08:40:36Z</time>
      </trkpt>
      <trkpt lat="48.70604" lon="1.85663">
        <ele>173</ele>
        <time>2018-08-19T08:40:40Z</time>
      </trkpt>
      <trkpt lat="48.70599" lon="1.85669">
        <ele>173</ele>
        <time>2018-08-19T08:40:44Z</time>
      </trkpt>
      <trkpt lat="48.70594" lon="1.85675">
        <ele>173</ele>
        <time>2018-08-19T08:40:48Z</time>
      </trkpt>
      <trkpt lat="48.70589" lon="1.8568">
        <ele>173</ele>
        <time>2018-08-19T08:40:52Z</time>
      </trkpt>
      <trkpt lat="48.70583" lon="1.85686">
        <ele>173</ele>
        <time>2018-08-19T08:40:56Z</time>
      </trkpt>
      <trkpt lat="48.70578" lon="1.85692">
        <ele>173</ele>
        <time>2018-08-19T08:41:00Z</time>
      </trkpt>
      <trkpt lat="48.70573" lon="1.85697">
        <ele>173</ele>
        <time>2018-08-19T08:41:04Z</time>
      </trkpt>
      <trkpt lat="48.70567" lon="1.85702">
        <ele>173</ele>
        <time>2018-08-19T08:41:08Z</time>
      </trkpt>
      <trkpt lat="48.70562" lon="1.85707">
        <ele>173</ele>
        <time>2018-08-19T08:41:12Z</time>
      </trkpt>
      <trkpt lat="48.70556" lon="1.85712">
        <ele>173</ele>
        <time>2018-08-19T08:41:16Z</time>
      </trkpt>
      <trkpt lat="48.70551" lon="1.85718">
        <ele>173</ele>
        <time>2018-08-19T08:41:20Z</time>
      </trkpt>
      <trkpt lat="48.70546" lon="1.85724">
        <ele>173</ele>
        <time>2018-08-19T08:41:24Z</time>
      </trkpt>
      <trkpt lat="48.70541" lon="1.8573">
        <ele>173</ele>
        <time>2018-08-19T08:41:28Z</time>
      </trkpt>
      <trkpt lat="48.70535" lon="1.85736">
        <ele>173</ele>
        <time>2018-08-19T08:41:32Z</time>
      </trkpt>
      <trkpt lat="48.7053" lon="1.85742">
        <ele>173</ele>
        <time>2018-08-19T08:41:36Z</time>
      </trkpt>
      <trkpt lat="48.70525" lon="1.85749">
        <ele>173</ele>
        <time>2018-08-19T08:41:40Z</time>
      </trkpt>
      <trkpt lat="48.70519" lon="1.85755">
        <ele>173</ele>
        <time>2018-08-19T08:41:44Z</time>
      </trkpt>
      <trkpt lat="48.70514" lon="1.85761">
        <ele>173</ele>
        <time>2018-08-19T08:41:48Z</time>
      </trkpt>
      <trkpt lat="48.70509" lon="1.85766">
        <ele>173</ele>
        <time>2018-08-19T08:41:52Z</time>
      </trkpt>
      <trkpt lat="48.70504" lon="1.85771">
        <ele>173</ele>
        <time>2018-08-19T08:41:56Z</time>
      </trkpt>
      <trkpt lat="48.70499" lon="1.85777">
        <ele>173</ele>
        <time>2018-08-19T08:42:00Z</time>
      </trkpt>
      <trkpt lat="48.70495" lon="1.85784">
        <ele>173</ele>
        <time>2018-08-19T08:42:04Z</time>
      </trkpt>
      <trkpt lat="48.70489" lon="1.8579">
        <ele>173</ele>
        <time>2018-08-19T08:42:08Z</time>
      </trkpt>
      <trkpt lat="48.70484" lon="1.85796">
        <ele>173</ele>
        <time>2018-08-19T08:42:12Z</time>
      </trkpt>
      <trkpt lat="48.70478" lon="1.85802">
        <ele>173</ele>
        <time>2018-08-19T08:42:16Z</time>
      </trkpt>
      <trkpt lat="48.70473" lon="1.85809">
        <ele>173</ele>
        <time>2018-08-19T08:42:20Z</time>
      </trkpt>
      <trkpt lat="48.70468" lon="1.85815">
        <ele>173</ele>
        <time>2018-08-19T08:42:24Z</time>
      </trkpt>
      <trkpt lat="48.70461" lon="1.85823">
        <ele>173</ele>
        <time>2018-08-19T08:42:29Z</time>
      </trkpt>
      <trkpt lat="48.70455" lon="1.8583">
        <ele>173</ele>
        <time>2018-08-19T08:42:34Z</time>
      </trkpt>
      <trkpt lat="48.70449" lon="1.85837">
        <ele>173</ele>
        <time>2018-08-19T08:42:38Z</time>
      </trkpt>
      <trkpt lat="48.70444" lon="1.85843">
        <ele>173</ele>
        <time>2018-08-19T08:42:42Z</time>
      </trkpt>
      <trkpt lat="48.70439" lon="1.85849">
        <ele>173</ele>
        <time>2018-08-19T08:42:46Z</time>
      </trkpt>
      <trkpt lat="48.70434" lon="1.85853">
        <ele>173</ele>
        <time>2018-08-19T08:42:50Z</time>
      </trkpt>
      <trkpt lat="48.70428" lon="1.8586">
        <ele>173</ele>
        <time>2018-08-19T08:42:55Z</time>
      </trkpt>
      <trkpt lat="48.70422" lon="1.85868">
        <ele>173</ele>
        <time>2018-08-19T08:43:00Z</time>
      </trkpt>
      <trkpt lat="48.70418" lon="1.85874">
        <ele>173</ele>
        <time>2018-08-19T08:43:04Z</time>
      </trkpt>
      <trkpt lat="48.70413" lon="1.8588">
        <ele>173</ele>
        <time>2018-08-19T08:43:08Z</time>
      </trkpt>
      <trkpt lat="48.70408" lon="1.85886">
        <ele>173</ele>
        <time>2018-08-19T08:43:12Z</time>
      </trkpt>
      <trkpt lat="48.70403" lon="1.85892">
        <ele>173</ele>
        <time>2018-08-19T08:43:16Z</time>
      </trkpt>
      <trkpt lat="48.70398" lon="1.85897">
        <ele>173</ele>
        <time>2018-08-19T08:43:20Z</time>
      </trkpt>
      <trkpt lat="48.70393" lon="1.85903">
        <ele>173</ele>
        <time>2018-08-19T08:43:24Z</time>
      </trkpt>
      <trkpt lat="48.70389" lon="1.85909">
        <ele>173</ele>
        <time>2018-08-19T08:43:28Z</time>
      </trkpt>
      <trkpt lat="48.70384" lon="1.85915">
        <ele>173</ele>
        <time>2018-08-19T08:43:32Z</time>
      </trkpt>
      <trkpt lat="48.70379" lon="1.8592">
        <ele>173</ele>
        <time>2018-08-19T08:43:36Z</time>
      </trkpt>
      <trkpt lat="48.70374" lon="1.85927">
        <ele>173</ele>
        <time>2018-08-19T08:43:40Z</time>
      </trkpt>
      <trkpt lat="48.70369" lon="1.85934">
        <ele>173</ele>
        <time>2018-08-19T08:43:44Z</time>
      </trkpt>
      <trkpt lat="48.70364" lon="1.85939">
        <ele>173</ele>
        <time>2018-08-19T08:43:48Z</time>
      </trkpt>
      <trkpt lat="48.70359" lon="1.85945">
        <ele>173</ele>
        <time>2018-08-19T08:43:52Z</time>
      </trkpt>
      <trkpt lat="48.70354" lon="1.8595">
        <ele>173</ele>
        <time>2018-08-19T08:43:56Z</time>
      </trkpt>
      <trkpt lat="48.70349" lon="1.85955">
        <ele>173</ele>
        <time>2018-08-19T08:44:00Z</time>
      </trkpt>
      <trkpt lat="48.70344" lon="1.8596">
        <ele>173</ele>
        <time>2018-08-19T08:44:04Z</time>
      </trkpt>
      <trkpt lat="48.70338" lon="1.85967">
        <ele>173</ele>
        <time>2018-08-19T08:44:09Z</time>
      </trkpt>
      <trkpt lat="48.70334" lon="1.85973">
        <ele>173</ele>
        <time>2018-08-19T08:44:13Z</time>
      </trkpt>
      <trkpt lat="48.70329" lon="1.8598">
        <ele>173</ele>
        <time>2018-08-19T08:44:17Z</time>
      </trkpt>
      <trkpt lat="48.70324" lon="1.85986">
        <ele>173</ele>
        <time>2018-08-19T08:44:21Z</time>
      </trkpt>
      <trkpt lat="48.70318" lon="1.85992">
        <ele>174</ele>
        <time>2018-08-19T08:44:25Z</time>
      </trkpt>
      <trkpt lat="48.70312" lon="1.86">
        <ele>175</ele>
        <time>2018-08-19T08:44:30Z</time>
      </trkpt>
      <trkpt lat="48.70306" lon="1.86007">
        <ele>176</ele>
        <time>2018-08-19T08:44:35Z</time>
      </trkpt>
      <trkpt lat="48.70301" lon="1.86013">
        <ele>176</ele>
        <time>2018-08-19T08:44:39Z</time>
      </trkpt>
      <trkpt lat="48.70297" lon="1.86018">
        <ele>176</ele>
        <time>2018-08-19T08:44:43Z</time>
      </trkpt>
      <trkpt lat="48.7029" lon="1.86025">
        <ele>176</ele>
        <time>2018-08-19T08:44:48Z</time>
      </trkpt>
      <trkpt lat="48.70285" lon="1.86032">
        <ele>176</ele>
        <time>2018-08-19T08:44:52Z</time>
      </trkpt>
      <trkpt lat="48.70281" lon="1.86039">
        <ele>176</ele>
        <time>2018-08-19T08:44:56Z</time>
      </trkpt>
      <trkpt lat="48.70276" lon="1.86044">
        <ele>176</ele>
        <time>2018-08-19T08:45:00Z</time>
      </trkpt>
      <trkpt lat="48.70271" lon="1.8605">
        <ele>176</ele>
        <time>2018-08-19T08:45:04Z</time>
      </trkpt>
      <trkpt lat="48.70266" lon="1.86055">
        <ele>176</ele>
        <time>2018-08-19T08:45:08Z</time>
      </trkpt>
      <trkpt lat="48.7026" lon="1.86062">
        <ele>176</ele>
        <time>2018-08-19T08:45:13Z</time>
      </trkpt>
      <trkpt lat="48.70255" lon="1.86067">
        <ele>176</ele>
        <time>2018-08-19T08:45:17Z</time>
      </trkpt>
      <trkpt lat="48.7025" lon="1.86073">
        <ele>176</ele>
        <time>2018-08-19T08:45:21Z</time>
      </trkpt>
      <trkpt lat="48.70245" lon="1.86079">
        <ele>176</ele>
        <time>2018-08-19T08:45:25Z</time>
      </trkpt>
      <trkpt lat="48.7024" lon="1.86085">
        <ele>176</ele>
        <time>2018-08-19T08:45:29Z</time>
      </trkpt>
      <trkpt lat="48.70236" lon="1.86092">
        <ele>176</ele>
        <time>2018-08-19T08:45:33Z</time>
      </trkpt>
      <trkpt lat="48.70231" lon="1.86097">
        <ele>176</ele>
        <time>2018-08-19T08:45:37Z</time>
      </trkpt>
      <trkpt lat="48.70226" lon="1.86102">
        <ele>176</ele>
        <time>2018-08-19T08:45:41Z</time>
      </trkpt>
      <trkpt lat="48.70221" lon="1.86107">
        <ele>176</ele>
        <time>2018-08-19T08:45:45Z</time>
      </trkpt>
      <trkpt lat="48.70216" lon="1.86112">
        <ele>176</ele>
        <time>2018-08-19T08:45:49Z</time>
      </trkpt>
      <trkpt lat="48.70211" lon="1.86118">
        <ele>176</ele>
        <time>2018-08-19T08:45:53Z</time>
      </trkpt>
      <trkpt lat="48.70206" lon="1.86123">
        <ele>176</ele>
        <time>2018-08-19T08:45:57Z</time>
      </trkpt>
      <trkpt lat="48.702" lon="1.8613">
        <ele>176</ele>
        <time>2018-08-19T08:46:02Z</time>
      </trkpt>
      <trkpt lat="48.70194" lon="1.86136">
        <ele>176</ele>
        <time>2018-08-19T08:46:07Z</time>
      </trkpt>
      <trkpt lat="48.70188" lon="1.86143">
        <ele>176</ele>
        <time>2018-08-19T08:46:12Z</time>
      </trkpt>
      <trkpt lat="48.70182" lon="1.86149">
        <ele>176</ele>
        <time>2018-08-19T08:46:17Z</time>
      </trkpt>
      <trkpt lat="48.70175" lon="1.86155">
        <ele>176</ele>
        <time>2018-08-19T08:46:22Z</time>
      </trkpt>
      <trkpt lat="48.70168" lon="1.8616">
        <ele>176</ele>
        <time>2018-08-19T08:46:27Z</time>
      </trkpt>
      <trkpt lat="48.70162" lon="1.86166">
        <ele>175</ele>
        <time>2018-08-19T08:46:32Z</time>
      </trkpt>
      <trkpt lat="48.70155" lon="1.8617">
        <ele>175</ele>
        <time>2018-08-19T08:46:37Z</time>
      </trkpt>
      <trkpt lat="48.70148" lon="1.86172">
        <ele>175</ele>
        <time>2018-08-19T08:46:43Z</time>
      </trkpt>
      <trkpt lat="48.70147" lon="1.86171">
        <ele>174</ele>
        <time>2018-08-19T08:46:56Z</time>
      </trkpt>
      <trkpt lat="48.70139" lon="1.86171">
        <ele>174</ele>
        <time>2018-08-19T08:47:01Z</time>
      </trkpt>
      <trkpt lat="48.70132" lon="1.86171">
        <ele>174</ele>
        <time>2018-08-19T08:47:05Z</time>
      </trkpt>
      <trkpt lat="48.70126" lon="1.86174">
        <ele>174</ele>
        <time>2018-08-19T08:47:09Z</time>
      </trkpt>
      <trkpt lat="48.70121" lon="1.86179">
        <ele>174</ele>
        <time>2018-08-19T08:47:13Z</time>
      </trkpt>
      <trkpt lat="48.70117" lon="1.86185">
        <ele>174</ele>
        <time>2018-08-19T08:47:17Z</time>
      </trkpt>
      <trkpt lat="48.70113" lon="1.86194">
        <ele>174</ele>
        <time>2018-08-19T08:47:22Z</time>
      </trkpt>
      <trkpt lat="48.70108" lon="1.86201">
        <ele>174</ele>
        <time>2018-08-19T08:47:27Z</time>
      </trkpt>
      <trkpt lat="48.70104" lon="1.86206">
        <ele>173</ele>
        <time>2018-08-19T08:47:31Z</time>
      </trkpt>
      <trkpt lat="48.701" lon="1.8621">
        <ele>172</ele>
        <time>2018-08-19T08:47:35Z</time>
      </trkpt>
      <trkpt lat="48.70094" lon="1.86216">
        <ele>172</ele>
        <time>2018-08-19T08:47:40Z</time>
      </trkpt>
      <trkpt lat="48.70089" lon="1.86219">
        <ele>171</ele>
        <time>2018-08-19T08:47:44Z</time>
      </trkpt>
      <trkpt lat="48.70084" lon="1.86224">
        <ele>170</ele>
        <time>2018-08-19T08:47:48Z</time>
      </trkpt>
      <trkpt lat="48.70078" lon="1.86228">
        <ele>170</ele>
        <time>2018-08-19T08:47:52Z</time>
      </trkpt>
      <trkpt lat="48.70072" lon="1.86232">
        <ele>170</ele>
        <time>2018-08-19T08:47:56Z</time>
      </trkpt>
      <trkpt lat="48.70067" lon="1.86236">
        <ele>169</ele>
        <time>2018-08-19T08:48:00Z</time>
      </trkpt>
      <trkpt lat="48.70061" lon="1.86241">
        <ele>169</ele>
        <time>2018-08-19T08:48:04Z</time>
      </trkpt>
      <trkpt lat="48.70055" lon="1.86245">
        <ele>169</ele>
        <time>2018-08-19T08:48:08Z</time>
      </trkpt>
      <trkpt lat="48.7005" lon="1.8625">
        <ele>169</ele>
        <time>2018-08-19T08:48:12Z</time>
      </trkpt>
      <trkpt lat="48.70044" lon="1.86255">
        <ele>169</ele>
        <time>2018-08-19T08:48:17Z</time>
      </trkpt>
      <trkpt lat="48.70037" lon="1.86261">
        <ele>169</ele>
        <time>2018-08-19T08:48:22Z</time>
      </trkpt>
      <trkpt lat="48.70031" lon="1.86265">
        <ele>169</ele>
        <time>2018-08-19T08:48:26Z</time>
      </trkpt>
      <trkpt lat="48.70026" lon="1.86269">
        <ele>169</ele>
        <time>2018-08-19T08:48:30Z</time>
      </trkpt>
      <trkpt lat="48.7002" lon="1.86273">
        <ele>169</ele>
        <time>2018-08-19T08:48:34Z</time>
      </trkpt>
      <trkpt lat="48.70015" lon="1.86277">
        <ele>169</ele>
        <time>2018-08-19T08:48:38Z</time>
      </trkpt>
      <trkpt lat="48.70008" lon="1.86283">
        <ele>169</ele>
        <time>2018-08-19T08:48:43Z</time>
      </trkpt>
      <trkpt lat="48.70003" lon="1.86287">
        <ele>169</ele>
        <time>2018-08-19T08:48:47Z</time>
      </trkpt>
      <trkpt lat="48.69997" lon="1.86291">
        <ele>169</ele>
        <time>2018-08-19T08:48:51Z</time>
      </trkpt>
      <trkpt lat="48.69992" lon="1.86296">
        <ele>169</ele>
        <time>2018-08-19T08:48:55Z</time>
      </trkpt>
      <trkpt lat="48.69987" lon="1.863">
        <ele>169</ele>
        <time>2018-08-19T08:48:59Z</time>
      </trkpt>
      <trkpt lat="48.6998" lon="1.86305">
        <ele>169</ele>
        <time>2018-08-19T08:49:04Z</time>
      </trkpt>
      <trkpt lat="48.69975" lon="1.8631">
        <ele>169</ele>
        <time>2018-08-19T08:49:08Z</time>
      </trkpt>
      <trkpt lat="48.6997" lon="1.86315">
        <ele>169</ele>
        <time>2018-08-19T08:49:12Z</time>
      </trkpt>
      <trkpt lat="48.69965" lon="1.8632">
        <ele>169</ele>
        <time>2018-08-19T08:49:16Z</time>
      </trkpt>
      <trkpt lat="48.6996" lon="1.86325">
        <ele>169</ele>
        <time>2018-08-19T08:49:20Z</time>
      </trkpt>
      <trkpt lat="48.69954" lon="1.8633">
        <ele>169</ele>
        <time>2018-08-19T08:49:24Z</time>
      </trkpt>
      <trkpt lat="48.69949" lon="1.86334">
        <ele>169</ele>
        <time>2018-08-19T08:49:28Z</time>
      </trkpt>
      <trkpt lat="48.69944" lon="1.86339">
        <ele>169</ele>
        <time>2018-08-19T08:49:32Z</time>
      </trkpt>
      <trkpt lat="48.69937" lon="1.86343">
        <ele>169</ele>
        <time>2018-08-19T08:49:36Z</time>
      </trkpt>
      <trkpt lat="48.69932" lon="1.86348">
        <ele>169</ele>
        <time>2018-08-19T08:49:40Z</time>
      </trkpt>
      <trkpt lat="48.69926" lon="1.86352">
        <ele>169</ele>
        <time>2018-08-19T08:49:44Z</time>
      </trkpt>
      <trkpt lat="48.6992" lon="1.86354">
        <ele>169</ele>
        <time>2018-08-19T08:49:48Z</time>
      </trkpt>
      <trkpt lat="48.69913" lon="1.86358">
        <ele>169</ele>
        <time>2018-08-19T08:49:53Z</time>
      </trkpt>
      <trkpt lat="48.69908" lon="1.86362">
        <ele>169</ele>
        <time>2018-08-19T08:49:57Z</time>
      </trkpt>
      <trkpt lat="48.69903" lon="1.86367">
        <ele>169</ele>
        <time>2018-08-19T08:50:01Z</time>
      </trkpt>
      <trkpt lat="48.69897" lon="1.86373">
        <ele>169</ele>
        <time>2018-08-19T08:50:05Z</time>
      </trkpt>
      <trkpt lat="48.69892" lon="1.86378">
        <ele>169</ele>
        <time>2018-08-19T08:50:09Z</time>
      </trkpt>
      <trkpt lat="48.69887" lon="1.86383">
        <ele>169</ele>
        <time>2018-08-19T08:50:13Z</time>
      </trkpt>
      <trkpt lat="48.69882" lon="1.86389">
        <ele>169</ele>
        <time>2018-08-19T08:50:17Z</time>
      </trkpt>
      <trkpt lat="48.69877" lon="1.86393">
        <ele>169</ele>
        <time>2018-08-19T08:50:21Z</time>
      </trkpt>
      <trkpt lat="48.69873" lon="1.86397">
        <ele>169</ele>
        <time>2018-08-19T08:50:25Z</time>
      </trkpt>
      <trkpt lat="48.69867" lon="1.86403">
        <ele>169</ele>
        <time>2018-08-19T08:50:29Z</time>
      </trkpt>
      <trkpt lat="48.69861" lon="1.86407">
        <ele>169</ele>
        <time>2018-08-19T08:50:33Z</time>
      </trkpt>
      <trkpt lat="48.69856" lon="1.86411">
        <ele>169</ele>
        <time>2018-08-19T08:50:37Z</time>
      </trkpt>
      <trkpt lat="48.6985" lon="1.86415">
        <ele>169</ele>
        <time>2018-08-19T08:50:41Z</time>
      </trkpt>
      <trkpt lat="48.69844" lon="1.8642">
        <ele>169</ele>
        <time>2018-08-19T08:50:45Z</time>
      </trkpt>
      <trkpt lat="48.69838" lon="1.86424">
        <ele>169</ele>
        <time>2018-08-19T08:50:49Z</time>
      </trkpt>
      <trkpt lat="48.69832" lon="1.86428">
        <ele>169</ele>
        <time>2018-08-19T08:50:53Z</time>
      </trkpt>
      <trkpt lat="48.69826" lon="1.86431">
        <ele>169</ele>
        <time>2018-08-19T08:50:57Z</time>
      </trkpt>
      <trkpt lat="48.69821" lon="1.86437">
        <ele>169</ele>
        <time>2018-08-19T08:51:01Z</time>
      </trkpt>
      <trkpt lat="48.69816" lon="1.86443">
        <ele>169</ele>
        <time>2018-08-19T08:51:05Z</time>
      </trkpt>
      <trkpt lat="48.69811" lon="1.86448">
        <ele>169</ele>
        <time>2018-08-19T08:51:09Z</time>
      </trkpt>
      <trkpt lat="48.69805" lon="1.86453">
        <ele>169</ele>
        <time>2018-08-19T08:51:13Z</time>
      </trkpt>
      <trkpt lat="48.69799" lon="1.86458">
        <ele>169</ele>
        <time>2018-08-19T08:51:17Z</time>
      </trkpt>
      <trkpt lat="48.69793" lon="1.86463">
        <ele>169</ele>
        <time>2018-08-19T08:51:21Z</time>
      </trkpt>
      <trkpt lat="48.69788" lon="1.86467">
        <ele>169</ele>
        <time>2018-08-19T08:51:25Z</time>
      </trkpt>
      <trkpt lat="48.69783" lon="1.86472">
        <ele>169</ele>
        <time>2018-08-19T08:51:29Z</time>
      </trkpt>
      <trkpt lat="48.69778" lon="1.86477">
        <ele>169</ele>
        <time>2018-08-19T08:51:33Z</time>
      </trkpt>
      <trkpt lat="48.69772" lon="1.86482">
        <ele>169</ele>
        <time>2018-08-19T08:51:37Z</time>
      </trkpt>
      <trkpt lat="48.69767" lon="1.86486">
        <ele>169</ele>
        <time>2018-08-19T08:51:41Z</time>
      </trkpt>
      <trkpt lat="48.6976" lon="1.8649">
        <ele>169</ele>
        <time>2018-08-19T08:51:45Z</time>
      </trkpt>
      <trkpt lat="48.69755" lon="1.86497">
        <ele>169</ele>
        <time>2018-08-19T08:51:50Z</time>
      </trkpt>
      <trkpt lat="48.69751" lon="1.86503">
        <ele>169</ele>
        <time>2018-08-19T08:51:54Z</time>
      </trkpt>
      <trkpt lat="48.69744" lon="1.86505">
        <ele>169</ele>
        <time>2018-08-19T08:51:58Z</time>
      </trkpt>
      <trkpt lat="48.69738" lon="1.86508">
        <ele>169</ele>
        <time>2018-08-19T08:52:02Z</time>
      </trkpt>
      <trkpt lat="48.69732" lon="1.86513">
        <ele>169</ele>
        <time>2018-08-19T08:52:06Z</time>
      </trkpt>
      <trkpt lat="48.69727" lon="1.8652">
        <ele>169</ele>
        <time>2018-08-19T08:52:10Z</time>
      </trkpt>
      <trkpt lat="48.6972" lon="1.86526">
        <ele>169</ele>
        <time>2018-08-19T08:52:14Z</time>
      </trkpt>
      <trkpt lat="48.69714" lon="1.8653">
        <ele>169</ele>
        <time>2018-08-19T08:52:18Z</time>
      </trkpt>
      <trkpt lat="48.69709" lon="1.86533">
        <ele>169</ele>
        <time>2018-08-19T08:52:22Z</time>
      </trkpt>
      <trkpt lat="48.69704" lon="1.86536">
        <ele>169</ele>
        <time>2018-08-19T08:52:26Z</time>
      </trkpt>
      <trkpt lat="48.69696" lon="1.86537">
        <ele>169</ele>
        <time>2018-08-19T08:52:30Z</time>
      </trkpt>
      <trkpt lat="48.6969" lon="1.86532">
        <ele>169</ele>
        <time>2018-08-19T08:52:34Z</time>
      </trkpt>
      <trkpt lat="48.69684" lon="1.86528">
        <ele>169</ele>
        <time>2018-08-19T08:52:38Z</time>
      </trkpt>
      <trkpt lat="48.69678" lon="1.86523">
        <ele>169</ele>
        <time>2018-08-19T08:52:42Z</time>
      </trkpt>
      <trkpt lat="48.69671" lon="1.86517">
        <ele>169</ele>
        <time>2018-08-19T08:52:47Z</time>
      </trkpt>
      <trkpt lat="48.69665" lon="1.86512">
        <ele>169</ele>
        <time>2018-08-19T08:52:51Z</time>
      </trkpt>
      <trkpt lat="48.69659" lon="1.86508">
        <ele>169</ele>
        <time>2018-08-19T08:52:55Z</time>
      </trkpt>
      <trkpt lat="48.69653" lon="1.86504">
        <ele>169</ele>
        <time>2018-08-19T08:52:59Z</time>
      </trkpt>
      <trkpt lat="48.69646" lon="1.865">
        <ele>169</ele>
        <time>2018-08-19T08:53:04Z</time>
      </trkpt>
      <trkpt lat="48.6964" lon="1.86496">
        <ele>169</ele>
        <time>2018-08-19T08:53:08Z</time>
      </trkpt>
      <trkpt lat="48.69634" lon="1.86492">
        <ele>169</ele>
        <time>2018-08-19T08:53:12Z</time>
      </trkpt>
      <trkpt lat="48.69629" lon="1.86488">
        <ele>169</ele>
        <time>2018-08-19T08:53:16Z</time>
      </trkpt>
      <trkpt lat="48.69623" lon="1.86484">
        <ele>169</ele>
        <time>2018-08-19T08:53:20Z</time>
      </trkpt>
      <trkpt lat="48.69617" lon="1.86481">
        <ele>169</ele>
        <time>2018-08-19T08:53:24Z</time>
      </trkpt>
      <trkpt lat="48.69611" lon="1.86477">
        <ele>169</ele>
        <time>2018-08-19T08:53:28Z</time>
      </trkpt>
      <trkpt lat="48.69606" lon="1.86473">
        <ele>169</ele>
        <time>2018-08-19T08:53:32Z</time>
      </trkpt>
      <trkpt lat="48.69601" lon="1.86472">
        <ele>169</ele>
        <time>2018-08-19T08:53:38Z</time>
      </trkpt>
      <trkpt lat="48.69599" lon="1.86463">
        <ele>169</ele>
        <time>2018-08-19T08:53:43Z</time>
      </trkpt>
      <trkpt lat="48.696" lon="1.86454">
        <ele>169</ele>
        <time>2018-08-19T08:53:47Z</time>
      </trkpt>
      <trkpt lat="48.69603" lon="1.86447">
        <ele>169</ele>
        <time>2018-08-19T08:53:51Z</time>
      </trkpt>
      <trkpt lat="48.69605" lon="1.86438">
        <ele>169</ele>
        <time>2018-08-19T08:53:55Z</time>
      </trkpt>
      <trkpt lat="48.69607" lon="1.8643">
        <ele>169</ele>
        <time>2018-08-19T08:53:59Z</time>
      </trkpt>
      <trkpt lat="48.69609" lon="1.86421">
        <ele>169</ele>
        <time>2018-08-19T08:54:03Z</time>
      </trkpt>
      <trkpt lat="48.69611" lon="1.86412">
        <ele>169</ele>
        <time>2018-08-19T08:54:07Z</time>
      </trkpt>
      <trkpt lat="48.69613" lon="1.86403">
        <ele>169</ele>
        <time>2018-08-19T08:54:11Z</time>
      </trkpt>
      <trkpt lat="48.69615" lon="1.86394">
        <ele>169</ele>
        <time>2018-08-19T08:54:15Z</time>
      </trkpt>
      <trkpt lat="48.69616" lon="1.86385">
        <ele>169</ele>
        <time>2018-08-19T08:54:19Z</time>
      </trkpt>
      <trkpt lat="48.69616" lon="1.86375">
        <ele>169</ele>
        <time>2018-08-19T08:54:23Z</time>
      </trkpt>
      <trkpt lat="48.69614" lon="1.86367">
        <ele>169</ele>
        <time>2018-08-19T08:54:27Z</time>
      </trkpt>
      <trkpt lat="48.69614" lon="1.86358">
        <ele>169</ele>
        <time>2018-08-19T08:54:31Z</time>
      </trkpt>
      <trkpt lat="48.69613" lon="1.86352">
        <ele>169</ele>
        <time>2018-08-19T08:54:39Z</time>
      </trkpt>
      <trkpt lat="48.69614" lon="1.86345">
        <ele>169</ele>
        <time>2018-08-19T08:54:46Z</time>
      </trkpt>
      <trkpt lat="48.69619" lon="1.86338">
        <ele>169</ele>
        <time>2018-08-19T08:54:52Z</time>
      </trkpt>
      <trkpt lat="48.69622" lon="1.86331">
        <ele>169</ele>
        <time>2018-08-19T08:54:56Z</time>
      </trkpt>
      <trkpt lat="48.69626" lon="1.86322">
        <ele>169</ele>
        <time>2018-08-19T08:55:00Z</time>
      </trkpt>
      <trkpt lat="48.69631" lon="1.86315">
        <ele>170</ele>
        <time>2018-08-19T08:55:05Z</time>
      </trkpt>
      <trkpt lat="48.69635" lon="1.86308">
        <ele>170</ele>
        <time>2018-08-19T08:55:09Z</time>
      </trkpt>
      <trkpt lat="48.69638" lon="1.86301">
        <ele>170</ele>
        <time>2018-08-19T08:55:14Z</time>
      </trkpt>
      <trkpt lat="48.69636" lon="1.86294">
        <ele>170</ele>
        <time>2018-08-19T08:55:19Z</time>
      </trkpt>
      <trkpt lat="48.69636" lon="1.86292">
        <ele>170</ele>
        <time>2018-08-19T08:55:26Z</time>
      </trkpt>
      <trkpt lat="48.69635" lon="1.8629">
        <ele>170</ele>
        <time>2018-08-19T08:55:30Z</time>
      </trkpt>
      <trkpt lat="48.69636" lon="1.8629">
        <ele>170</ele>
        <time>2018-08-19T08:55:35Z</time>
      </trkpt>
      <trkpt lat="48.6964" lon="1.86293">
        <ele>170</ele>
        <time>2018-08-19T08:55:39Z</time>
      </trkpt>
      <trkpt lat="48.69647" lon="1.86285">
        <ele>170</ele>
        <time>2018-08-19T08:55:43Z</time>
      </trkpt>
      <trkpt lat="48.6965" lon="1.86274">
        <ele>170</ele>
        <time>2018-08-19T08:55:47Z</time>
      </trkpt>
      <trkpt lat="48.69651" lon="1.86265">
        <ele>170</ele>
        <time>2018-08-19T08:55:51Z</time>
      </trkpt>
      <trkpt lat="48.69648" lon="1.8626">
        <ele>170</ele>
        <time>2018-08-19T08:55:57Z</time>
      </trkpt>
      <trkpt lat="48.69645" lon="1.86257">
        <ele>170</ele>
        <time>2018-08-19T08:56:01Z</time>
      </trkpt>
      <trkpt lat="48.69642" lon="1.86255">
        <ele>170</ele>
        <time>2018-08-19T08:56:06Z</time>
      </trkpt>
      <trkpt lat="48.69638" lon="1.86255">
        <ele>170</ele>
        <time>2018-08-19T08:56:12Z</time>
      </trkpt>
      <trkpt lat="48.6964" lon="1.86255">
        <ele>167</ele>
        <time>2018-08-19T08:57:15Z</time>
      </trkpt>
      <trkpt lat="48.69641" lon="1.86256">
        <ele>167</ele>
        <time>2018-08-19T08:57:21Z</time>
      </trkpt>
      <trkpt lat="48.69642" lon="1.86257">
        <ele>167</ele>
        <time>2018-08-19T08:57:32Z</time>
      </trkpt>
      <trkpt lat="48.6964" lon="1.86258">
        <ele>167</ele>
        <time>2018-08-19T08:57:52Z</time>
      </trkpt>
      <trkpt lat="48.69642" lon="1.86257">
        <ele>167</ele>
        <time>2018-08-19T08:58:38Z</time>
      </trkpt>
      <trkpt lat="48.69643" lon="1.86257">
        <ele>167</ele>
        <time>2018-08-19T08:58:43Z</time>
      </trkpt>
      <trkpt lat="48.69644" lon="1.86258">
        <ele>167</ele>
        <time>2018-08-19T08:59:40Z</time>
      </trkpt>
      <trkpt lat="48.69647" lon="1.86259">
        <ele>167</ele>
        <time>2018-08-19T08:59:47Z</time>
      </trkpt>
      <trkpt lat="48.69649" lon="1.86259">
        <ele>167</ele>
        <time>2018-08-19T08:59:55Z</time>
      </trkpt>
      <trkpt lat="48.69652" lon="1.86261">
        <ele>168</ele>
        <time>2018-08-19T08:59:59Z</time>
      </trkpt>
      <trkpt lat="48.69655" lon="1.86268">
        <ele>168</ele>
        <time>2018-08-19T09:00:03Z</time>
      </trkpt>
      <trkpt lat="48.69654" lon="1.86276">
        <ele>168</ele>
        <time>2018-08-19T09:00:07Z</time>
      </trkpt>
      <trkpt lat="48.69652" lon="1.86283">
        <ele>168</ele>
        <time>2018-08-19T09:00:11Z</time>
      </trkpt>
      <trkpt lat="48.6965" lon="1.86291">
        <ele>168</ele>
        <time>2018-08-19T09:00:15Z</time>
      </trkpt>
      <trkpt lat="48.69647" lon="1.86299">
        <ele>168</ele>
        <time>2018-08-19T09:00:19Z</time>
      </trkpt>
      <trkpt lat="48.69645" lon="1.86307">
        <ele>168</ele>
        <time>2018-08-19T09:00:23Z</time>
      </trkpt>
      <trkpt lat="48.69641" lon="1.86316">
        <ele>168</ele>
        <time>2018-08-19T09:00:27Z</time>
      </trkpt>
      <trkpt lat="48.69639" lon="1.86323">
        <ele>168</ele>
        <time>2018-08-19T09:00:31Z</time>
      </trkpt>
      <trkpt lat="48.69637" lon="1.86331">
        <ele>168</ele>
        <time>2018-08-19T09:00:35Z</time>
      </trkpt>
      <trkpt lat="48.69634" lon="1.86339">
        <ele>168</ele>
        <time>2018-08-19T09:00:39Z</time>
      </trkpt>
      <trkpt lat="48.6963" lon="1.86346">
        <ele>168</ele>
        <time>2018-08-19T09:00:43Z</time>
      </trkpt>
      <trkpt lat="48.69628" lon="1.86354">
        <ele>168</ele>
        <time>2018-08-19T09:00:47Z</time>
      </trkpt>
      <trkpt lat="48.69627" lon="1.86362">
        <ele>168</ele>
        <time>2018-08-19T09:00:51Z</time>
      </trkpt>
      <trkpt lat="48.69626" lon="1.8637">
        <ele>168</ele>
        <time>2018-08-19T09:00:55Z</time>
      </trkpt>
      <trkpt lat="48.69624" lon="1.86378">
        <ele>168</ele>
        <time>2018-08-19T09:00:59Z</time>
      </trkpt>
      <trkpt lat="48.69621" lon="1.86386">
        <ele>168</ele>
        <time>2018-08-19T09:01:03Z</time>
      </trkpt>
      <trkpt lat="48.6962" lon="1.86395">
        <ele>168</ele>
        <time>2018-08-19T09:01:07Z</time>
      </trkpt>
      <trkpt lat="48.69617" lon="1.86404">
        <ele>168</ele>
        <time>2018-08-19T09:01:11Z</time>
      </trkpt>
      <trkpt lat="48.69614" lon="1.86412">
        <ele>168</ele>
        <time>2018-08-19T09:01:15Z</time>
      </trkpt>
      <trkpt lat="48.69612" lon="1.86422">
        <ele>168</ele>
        <time>2018-08-19T09:01:19Z</time>
      </trkpt>
      <trkpt lat="48.6961" lon="1.86431">
        <ele>168</ele>
        <time>2018-08-19T09:01:23Z</time>
      </trkpt>
      <trkpt lat="48.69608" lon="1.8644">
        <ele>168</ele>
        <time>2018-08-19T09:01:27Z</time>
      </trkpt>
      <trkpt lat="48.69605" lon="1.86448">
        <ele>168</ele>
        <time>2018-08-19T09:01:31Z</time>
      </trkpt>
      <trkpt lat="48.69602" lon="1.86456">
        <ele>168</ele>
        <time>2018-08-19T09:01:35Z</time>
      </trkpt>
      <trkpt lat="48.696" lon="1.86464">
        <ele>168</ele>
        <time>2018-08-19T09:01:39Z</time>
      </trkpt>
      <trkpt lat="48.69599" lon="1.86474">
        <ele>168</ele>
        <time>2018-08-19T09:01:43Z</time>
      </trkpt>
      <trkpt lat="48.69597" lon="1.86483">
        <ele>168</ele>
        <time>2018-08-19T09:01:47Z</time>
      </trkpt>
      <trkpt lat="48.69594" lon="1.8649">
        <ele>168</ele>
        <time>2018-08-19T09:01:51Z</time>
      </trkpt>
      <trkpt lat="48.69594" lon="1.86492">
        <ele>168</ele>
        <time>2018-08-19T09:02:03Z</time>
      </trkpt>
      <trkpt lat="48.69596" lon="1.86497">
        <ele>168</ele>
        <time>2018-08-19T09:02:08Z</time>
      </trkpt>
      <trkpt lat="48.69597" lon="1.86504">
        <ele>168</ele>
        <time>2018-08-19T09:02:12Z</time>
      </trkpt>
      <trkpt lat="48.69598" lon="1.86512">
        <ele>168</ele>
        <time>2018-08-19T09:02:16Z</time>
      </trkpt>
      <trkpt lat="48.69597" lon="1.86521">
        <ele>168</ele>
        <time>2018-08-19T09:02:20Z</time>
      </trkpt>
      <trkpt lat="48.69597" lon="1.86529">
        <ele>168</ele>
        <time>2018-08-19T09:02:24Z</time>
      </trkpt>
      <trkpt lat="48.69598" lon="1.86538">
        <ele>168</ele>
        <time>2018-08-19T09:02:28Z</time>
      </trkpt>
      <trkpt lat="48.696" lon="1.86547">
        <ele>168</ele>
        <time>2018-08-19T09:02:32Z</time>
      </trkpt>
      <trkpt lat="48.696" lon="1.86556">
        <ele>168</ele>
        <time>2018-08-19T09:02:36Z</time>
      </trkpt>
      <trkpt lat="48.696" lon="1.86565">
        <ele>168</ele>
        <time>2018-08-19T09:02:40Z</time>
      </trkpt>
      <trkpt lat="48.69602" lon="1.86574">
        <ele>168</ele>
        <time>2018-08-19T09:02:44Z</time>
      </trkpt>
      <trkpt lat="48.69604" lon="1.86584">
        <ele>168</ele>
        <time>2018-08-19T09:02:48Z</time>
      </trkpt>
      <trkpt lat="48.69606" lon="1.86591">
        <ele>168</ele>
        <time>2018-08-19T09:02:52Z</time>
      </trkpt>
      <trkpt lat="48.69609" lon="1.86598">
        <ele>168</ele>
        <time>2018-08-19T09:02:56Z</time>
      </trkpt>
      <trkpt lat="48.69609" lon="1.86607">
        <ele>168</ele>
        <time>2018-08-19T09:03:00Z</time>
      </trkpt>
      <trkpt lat="48.69605" lon="1.86614">
        <ele>168</ele>
        <time>2018-08-19T09:03:04Z</time>
      </trkpt>
      <trkpt lat="48.696" lon="1.86618">
        <ele>168</ele>
        <time>2018-08-19T09:03:08Z</time>
      </trkpt>
      <trkpt lat="48.69594" lon="1.86621">
        <ele>168</ele>
        <time>2018-08-19T09:03:12Z</time>
      </trkpt>
      <trkpt lat="48.69589" lon="1.86624">
        <ele>168</ele>
        <time>2018-08-19T09:03:16Z</time>
      </trkpt>
      <trkpt lat="48.69584" lon="1.86627">
        <ele>168</ele>
        <time>2018-08-19T09:03:20Z</time>
      </trkpt>
      <trkpt lat="48.69578" lon="1.86632">
        <ele>168</ele>
        <time>2018-08-19T09:03:24Z</time>
      </trkpt>
      <trkpt lat="48.69573" lon="1.86636">
        <ele>167</ele>
        <time>2018-08-19T09:03:28Z</time>
      </trkpt>
      <trkpt lat="48.69568" lon="1.8664">
        <ele>165</ele>
        <time>2018-08-19T09:03:32Z</time>
      </trkpt>
      <trkpt lat="48.69563" lon="1.86644">
        <ele>165</ele>
        <time>2018-08-19T09:03:37Z</time>
      </trkpt>
      <trkpt lat="48.69558" lon="1.86649">
        <ele>165</ele>
        <time>2018-08-19T09:03:41Z</time>
      </trkpt>
      <trkpt lat="48.69554" lon="1.86652">
        <ele>164</ele>
        <time>2018-08-19T09:03:45Z</time>
      </trkpt>
      <trkpt lat="48.6955" lon="1.86657">
        <ele>164</ele>
        <time>2018-08-19T09:03:50Z</time>
      </trkpt>
      <trkpt lat="48.69544" lon="1.86662">
        <ele>163</ele>
        <time>2018-08-19T09:03:54Z</time>
      </trkpt>
      <trkpt lat="48.69539" lon="1.86666">
        <ele>163</ele>
        <time>2018-08-19T09:03:58Z</time>
      </trkpt>
      <trkpt lat="48.69534" lon="1.8667">
        <ele>163</ele>
        <time>2018-08-19T09:04:02Z</time>
      </trkpt>
      <trkpt lat="48.69528" lon="1.86676">
        <ele>163</ele>
        <time>2018-08-19T09:04:06Z</time>
      </trkpt>
      <trkpt lat="48.69521" lon="1.86681">
        <ele>163</ele>
        <time>2018-08-19T09:04:10Z</time>
      </trkpt>
      <trkpt lat="48.69516" lon="1.86687">
        <ele>163</ele>
        <time>2018-08-19T09:04:14Z</time>
      </trkpt>
      <trkpt lat="48.69511" lon="1.8669">
        <ele>163</ele>
        <time>2018-08-19T09:04:18Z</time>
      </trkpt>
      <trkpt lat="48.69506" lon="1.86695">
        <ele>162</ele>
        <time>2018-08-19T09:04:22Z</time>
      </trkpt>
      <trkpt lat="48.695" lon="1.867">
        <ele>162</ele>
        <time>2018-08-19T09:04:27Z</time>
      </trkpt>
      <trkpt lat="48.69495" lon="1.86705">
        <ele>162</ele>
        <time>2018-08-19T09:04:31Z</time>
      </trkpt>
      <trkpt lat="48.6949" lon="1.86709">
        <ele>162</ele>
        <time>2018-08-19T09:04:35Z</time>
      </trkpt>
      <trkpt lat="48.69485" lon="1.86713">
        <ele>162</ele>
        <time>2018-08-19T09:04:39Z</time>
      </trkpt>
      <trkpt lat="48.6948" lon="1.86716">
        <ele>162</ele>
        <time>2018-08-19T09:04:43Z</time>
      </trkpt>
      <trkpt lat="48.69475" lon="1.86718">
        <ele>162</ele>
        <time>2018-08-19T09:04:47Z</time>
      </trkpt>
      <trkpt lat="48.69471" lon="1.8672">
        <ele>162</ele>
        <time>2018-08-19T09:04:51Z</time>
      </trkpt>
      <trkpt lat="48.69466" lon="1.86724">
        <ele>162</ele>
        <time>2018-08-19T09:04:55Z</time>
      </trkpt>
      <trkpt lat="48.69461" lon="1.86729">
        <ele>162</ele>
        <time>2018-08-19T09:04:59Z</time>
      </trkpt>
      <trkpt lat="48.69456" lon="1.86732">
        <ele>162</ele>
        <time>2018-08-19T09:05:03Z</time>
      </trkpt>
      <trkpt lat="48.6945" lon="1.86736">
        <ele>162</ele>
        <time>2018-08-19T09:05:07Z</time>
      </trkpt>
      <trkpt lat="48.69445" lon="1.86741">
        <ele>162</ele>
        <time>2018-08-19T09:05:11Z</time>
      </trkpt>
      <trkpt lat="48.69441" lon="1.86744">
        <ele>162</ele>
        <time>2018-08-19T09:05:15Z</time>
      </trkpt>
      <trkpt lat="48.69435" lon="1.86748">
        <ele>162</ele>
        <time>2018-08-19T09:05:20Z</time>
      </trkpt>
      <trkpt lat="48.69429" lon="1.86753">
        <ele>162</ele>
        <time>2018-08-19T09:05:24Z</time>
      </trkpt>
      <trkpt lat="48.69422" lon="1.86757">
        <ele>162</ele>
        <time>2018-08-19T09:05:28Z</time>
      </trkpt>
      <trkpt lat="48.69417" lon="1.86761">
        <ele>162</ele>
        <time>2018-08-19T09:05:32Z</time>
      </trkpt>
      <trkpt lat="48.69412" lon="1.86766">
        <ele>162</ele>
        <time>2018-08-19T09:05:36Z</time>
      </trkpt>
      <trkpt lat="48.69406" lon="1.86771">
        <ele>162</ele>
        <time>2018-08-19T09:05:40Z</time>
      </trkpt>
      <trkpt lat="48.69401" lon="1.86775">
        <ele>162</ele>
        <time>2018-08-19T09:05:44Z</time>
      </trkpt>
      <trkpt lat="48.69396" lon="1.8678">
        <ele>162</ele>
        <time>2018-08-19T09:05:48Z</time>
      </trkpt>
      <trkpt lat="48.6939" lon="1.86785">
        <ele>162</ele>
        <time>2018-08-19T09:05:52Z</time>
      </trkpt>
      <trkpt lat="48.69385" lon="1.86789">
        <ele>162</ele>
        <time>2018-08-19T09:05:56Z</time>
      </trkpt>
      <trkpt lat="48.6938" lon="1.86793">
        <ele>162</ele>
        <time>2018-08-19T09:06:00Z</time>
      </trkpt>
      <trkpt lat="48.69374" lon="1.86798">
        <ele>162</ele>
        <time>2018-08-19T09:06:04Z</time>
      </trkpt>
      <trkpt lat="48.69368" lon="1.86803">
        <ele>162</ele>
        <time>2018-08-19T09:06:08Z</time>
      </trkpt>
      <trkpt lat="48.69363" lon="1.86807">
        <ele>162</ele>
        <time>2018-08-19T09:06:12Z</time>
      </trkpt>
      <trkpt lat="48.69358" lon="1.8681">
        <ele>162</ele>
        <time>2018-08-19T09:06:16Z</time>
      </trkpt>
      <trkpt lat="48.69352" lon="1.86814">
        <ele>162</ele>
        <time>2018-08-19T09:06:20Z</time>
      </trkpt>
      <trkpt lat="48.69346" lon="1.86816">
        <ele>163</ele>
        <time>2018-08-19T09:06:24Z</time>
      </trkpt>
      <trkpt lat="48.69341" lon="1.86821">
        <ele>164</ele>
        <time>2018-08-19T09:06:29Z</time>
      </trkpt>
      <trkpt lat="48.69336" lon="1.86827">
        <ele>164</ele>
        <time>2018-08-19T09:06:33Z</time>
      </trkpt>
      <trkpt lat="48.69333" lon="1.86831">
        <ele>164</ele>
        <time>2018-08-19T09:06:37Z</time>
      </trkpt>
      <trkpt lat="48.69332" lon="1.86833">
        <ele>164</ele>
        <time>2018-08-19T09:06:44Z</time>
      </trkpt>
      <trkpt lat="48.69332" lon="1.86835">
        <ele>165</ele>
        <time>2018-08-19T09:06:49Z</time>
      </trkpt>
      <trkpt lat="48.69329" lon="1.86839">
        <ele>165</ele>
        <time>2018-08-19T09:06:53Z</time>
      </trkpt>
      <trkpt lat="48.69324" lon="1.86843">
        <ele>165</ele>
        <time>2018-08-19T09:06:57Z</time>
      </trkpt>
      <trkpt lat="48.69318" lon="1.86848">
        <ele>165</ele>
        <time>2018-08-19T09:07:01Z</time>
      </trkpt>
      <trkpt lat="48.69312" lon="1.86851">
        <ele>165</ele>
        <time>2018-08-19T09:07:05Z</time>
      </trkpt>
      <trkpt lat="48.69307" lon="1.86856">
        <ele>165</ele>
        <time>2018-08-19T09:07:09Z</time>
      </trkpt>
      <trkpt lat="48.69302" lon="1.86861">
        <ele>165</ele>
        <time>2018-08-19T09:07:13Z</time>
      </trkpt>
      <trkpt lat="48.69296" lon="1.86866">
        <ele>165</ele>
        <time>2018-08-19T09:07:17Z</time>
      </trkpt>
      <trkpt lat="48.6929" lon="1.86872">
        <ele>165</ele>
        <time>2018-08-19T09:07:21Z</time>
      </trkpt>
      <trkpt lat="48.69284" lon="1.86877">
        <ele>165</ele>
        <time>2018-08-19T09:07:25Z</time>
      </trkpt>
      <trkpt lat="48.69279" lon="1.8688">
        <ele>165</ele>
        <time>2018-08-19T09:07:29Z</time>
      </trkpt>
      <trkpt lat="48.69273" lon="1.86884">
        <ele>165</ele>
        <time>2018-08-19T09:07:33Z</time>
      </trkpt>
      <trkpt lat="48.69268" lon="1.86889">
        <ele>165</ele>
        <time>2018-08-19T09:07:37Z</time>
      </trkpt>
      <trkpt lat="48.69262" lon="1.86894">
        <ele>165</ele>
        <time>2018-08-19T09:07:41Z</time>
      </trkpt>
      <trkpt lat="48.69256" lon="1.86899">
        <ele>165</ele>
        <time>2018-08-19T09:07:45Z</time>
      </trkpt>
      <trkpt lat="48.6925" lon="1.86903">
        <ele>165</ele>
        <time>2018-08-19T09:07:49Z</time>
      </trkpt>
      <trkpt lat="48.69244" lon="1.86907">
        <ele>165</ele>
        <time>2018-08-19T09:07:53Z</time>
      </trkpt>
      <trkpt lat="48.69238" lon="1.86911">
        <ele>165</ele>
        <time>2018-08-19T09:07:57Z</time>
      </trkpt>
      <trkpt lat="48.69232" lon="1.86916">
        <ele>165</ele>
        <time>2018-08-19T09:08:01Z</time>
      </trkpt>
      <trkpt lat="48.69224" lon="1.86927">
        <ele>165</ele>
        <time>2018-08-19T09:08:05Z</time>
      </trkpt>
      <trkpt lat="48.69207" lon="1.8694">
        <ele>165</ele>
        <time>2018-08-19T09:08:09Z</time>
      </trkpt>
      <trkpt lat="48.69186" lon="1.86957">
        <ele>165</ele>
        <time>2018-08-19T09:08:13Z</time>
      </trkpt>
      <trkpt lat="48.69165" lon="1.86975">
        <ele>165</ele>
        <time>2018-08-19T09:08:17Z</time>
      </trkpt>
      <trkpt lat="48.69144" lon="1.86992">
        <ele>165</ele>
        <time>2018-08-19T09:08:21Z</time>
      </trkpt>
      <trkpt lat="48.69123" lon="1.87009">
        <ele>165</ele>
        <time>2018-08-19T09:08:25Z</time>
      </trkpt>
      <trkpt lat="48.69101" lon="1.87027">
        <ele>166</ele>
        <time>2018-08-19T09:08:29Z</time>
      </trkpt>
      <trkpt lat="48.69079" lon="1.87046">
        <ele>166</ele>
        <time>2018-08-19T09:08:33Z</time>
      </trkpt>
      <trkpt lat="48.69057" lon="1.87064">
        <ele>166</ele>
        <time>2018-08-19T09:08:37Z</time>
      </trkpt>
      <trkpt lat="48.69034" lon="1.87083">
        <ele>166</ele>
        <time>2018-08-19T09:08:41Z</time>
      </trkpt>
      <trkpt lat="48.6901" lon="1.87103">
        <ele>166</ele>
        <time>2018-08-19T09:08:45Z</time>
      </trkpt>
      <trkpt lat="48.68986" lon="1.87123">
        <ele>166</ele>
        <time>2018-08-19T09:08:49Z</time>
      </trkpt>
      <trkpt lat="48.68961" lon="1.87143">
        <ele>166</ele>
        <time>2018-08-19T09:08:53Z</time>
      </trkpt>
      <trkpt lat="48.68938" lon="1.87161">
        <ele>166</ele>
        <time>2018-08-19T09:08:57Z</time>
      </trkpt>
      <trkpt lat="48.68916" lon="1.87178">
        <ele>166</ele>
        <time>2018-08-19T09:09:01Z</time>
      </trkpt>
      <trkpt lat="48.68897" lon="1.87196">
        <ele>166</ele>
        <time>2018-08-19T09:09:05Z</time>
      </trkpt>
      <trkpt lat="48.6888" lon="1.87208">
        <ele>166</ele>
        <time>2018-08-19T09:09:09Z</time>
      </trkpt>
      <trkpt lat="48.68864" lon="1.87216">
        <ele>166</ele>
        <time>2018-08-19T09:09:13Z</time>
      </trkpt>
      <trkpt lat="48.6885" lon="1.87221">
        <ele>166</ele>
        <time>2018-08-19T09:09:17Z</time>
      </trkpt>
      <trkpt lat="48.68837" lon="1.87228">
        <ele>167</ele>
        <time>2018-08-19T09:09:21Z</time>
      </trkpt>
      <trkpt lat="48.68827" lon="1.87237">
        <ele>168</ele>
        <time>2018-08-19T09:09:25Z</time>
      </trkpt>
      <trkpt lat="48.68827" lon="1.87233">
        <ele>168</ele>
        <time>2018-08-19T09:09:30Z</time>
      </trkpt>
      <trkpt lat="48.68837" lon="1.87231">
        <ele>168</ele>
        <time>2018-08-19T09:09:34Z</time>
      </trkpt>
      <trkpt lat="48.68848" lon="1.87224">
        <ele>168</ele>
        <time>2018-08-19T09:09:38Z</time>
      </trkpt>
      <trkpt lat="48.68857" lon="1.87223">
        <ele>168</ele>
        <time>2018-08-19T09:09:42Z</time>
      </trkpt>
      <trkpt lat="48.6886" lon="1.87227">
        <ele>168</ele>
        <time>2018-08-19T09:09:49Z</time>
      </trkpt>
      <trkpt lat="48.68855" lon="1.87222">
        <ele>168</ele>
        <time>2018-08-19T09:09:53Z</time>
      </trkpt>
      <trkpt lat="48.68849" lon="1.87221">
        <ele>168</ele>
        <time>2018-08-19T09:09:57Z</time>
      </trkpt>
      <trkpt lat="48.68844" lon="1.87224">
        <ele>168</ele>
        <time>2018-08-19T09:10:01Z</time>
      </trkpt>
      <trkpt lat="48.68837" lon="1.87229">
        <ele>168</ele>
        <time>2018-08-19T09:10:05Z</time>
      </trkpt>
      <trkpt lat="48.68833" lon="1.87233">
        <ele>168</ele>
        <time>2018-08-19T09:10:09Z</time>
      </trkpt>
      <trkpt lat="48.68827" lon="1.87236">
        <ele>168</ele>
        <time>2018-08-19T09:10:13Z</time>
      </trkpt>
      <trkpt lat="48.68821" lon="1.87237">
        <ele>168</ele>
        <time>2018-08-19T09:10:17Z</time>
      </trkpt>
      <trkpt lat="48.68816" lon="1.8724">
        <ele>168</ele>
        <time>2018-08-19T09:10:21Z</time>
      </trkpt>
      <trkpt lat="48.68811" lon="1.87243">
        <ele>168</ele>
        <time>2018-08-19T09:10:25Z</time>
      </trkpt>
      <trkpt lat="48.68804" lon="1.87245">
        <ele>168</ele>
        <time>2018-08-19T09:10:29Z</time>
      </trkpt>
      <trkpt lat="48.68799" lon="1.87249">
        <ele>168</ele>
        <time>2018-08-19T09:10:33Z</time>
      </trkpt>
      <trkpt lat="48.68792" lon="1.87253">
        <ele>168</ele>
        <time>2018-08-19T09:10:37Z</time>
      </trkpt>
      <trkpt lat="48.68787" lon="1.87258">
        <ele>168</ele>
        <time>2018-08-19T09:10:41Z</time>
      </trkpt>
      <trkpt lat="48.6878" lon="1.87263">
        <ele>168</ele>
        <time>2018-08-19T09:10:45Z</time>
      </trkpt>
      <trkpt lat="48.68775" lon="1.87269">
        <ele>168</ele>
        <time>2018-08-19T09:10:49Z</time>
      </trkpt>
      <trkpt lat="48.68769" lon="1.87273">
        <ele>168</ele>
        <time>2018-08-19T09:10:53Z</time>
      </trkpt>
      <trkpt lat="48.68763" lon="1.87279">
        <ele>168</ele>
        <time>2018-08-19T09:10:57Z</time>
      </trkpt>
      <trkpt lat="48.68757" lon="1.87285">
        <ele>168</ele>
        <time>2018-08-19T09:11:01Z</time>
      </trkpt>
      <trkpt lat="48.6875" lon="1.8729">
        <ele>168</ele>
        <time>2018-08-19T09:11:05Z</time>
      </trkpt>
      <trkpt lat="48.68744" lon="1.87294">
        <ele>168</ele>
        <time>2018-08-19T09:11:09Z</time>
      </trkpt>
      <trkpt lat="48.68738" lon="1.87298">
        <ele>168</ele>
        <time>2018-08-19T09:11:13Z</time>
      </trkpt>
      <trkpt lat="48.68733" lon="1.87303">
        <ele>168</ele>
        <time>2018-08-19T09:11:17Z</time>
      </trkpt>
      <trkpt lat="48.68726" lon="1.87307">
        <ele>168</ele>
        <time>2018-08-19T09:11:21Z</time>
      </trkpt>
      <trkpt lat="48.68721" lon="1.87312">
        <ele>168</ele>
        <time>2018-08-19T09:11:25Z</time>
      </trkpt>
      <trkpt lat="48.68715" lon="1.87316">
        <ele>168</ele>
        <time>2018-08-19T09:11:29Z</time>
      </trkpt>
      <trkpt lat="48.68709" lon="1.87319">
        <ele>168</ele>
        <time>2018-08-19T09:11:33Z</time>
      </trkpt>
      <trkpt lat="48.68704" lon="1.87324">
        <ele>168</ele>
        <time>2018-08-19T09:11:37Z</time>
      </trkpt>
      <trkpt lat="48.68698" lon="1.87329">
        <ele>168</ele>
        <time>2018-08-19T09:11:41Z</time>
      </trkpt>
      <trkpt lat="48.68692" lon="1.87332">
        <ele>168</ele>
        <time>2018-08-19T09:11:45Z</time>
      </trkpt>
      <trkpt lat="48.68686" lon="1.87337">
        <ele>168</ele>
        <time>2018-08-19T09:11:49Z</time>
      </trkpt>
      <trkpt lat="48.6868" lon="1.87342">
        <ele>168</ele>
        <time>2018-08-19T09:11:53Z</time>
      </trkpt>
      <trkpt lat="48.68674" lon="1.87347">
        <ele>168</ele>
        <time>2018-08-19T09:11:57Z</time>
      </trkpt>
      <trkpt lat="48.68668" lon="1.87351">
        <ele>168</ele>
        <time>2018-08-19T09:12:01Z</time>
      </trkpt>
      <trkpt lat="48.68663" lon="1.87355">
        <ele>168</ele>
        <time>2018-08-19T09:12:05Z</time>
      </trkpt>
      <trkpt lat="48.68658" lon="1.87359">
        <ele>168</ele>
        <time>2018-08-19T09:12:09Z</time>
      </trkpt>
      <trkpt lat="48.68652" lon="1.87363">
        <ele>168</ele>
        <time>2018-08-19T09:12:13Z</time>
      </trkpt>
      <trkpt lat="48.68647" lon="1.87368">
        <ele>168</ele>
        <time>2018-08-19T09:12:17Z</time>
      </trkpt>
      <trkpt lat="48.6864" lon="1.87373">
        <ele>168</ele>
        <time>2018-08-19T09:12:21Z</time>
      </trkpt>
      <trkpt lat="48.68634" lon="1.87378">
        <ele>168</ele>
        <time>2018-08-19T09:12:25Z</time>
      </trkpt>
      <trkpt lat="48.68627" lon="1.87382">
        <ele>168</ele>
        <time>2018-08-19T09:12:29Z</time>
      </trkpt>
      <trkpt lat="48.68621" lon="1.87386">
        <ele>168</ele>
        <time>2018-08-19T09:12:33Z</time>
      </trkpt>
      <trkpt lat="48.68614" lon="1.8739">
        <ele>168</ele>
        <time>2018-08-19T09:12:37Z</time>
      </trkpt>
      <trkpt lat="48.68608" lon="1.87396">
        <ele>168</ele>
        <time>2018-08-19T09:12:41Z</time>
      </trkpt>
      <trkpt lat="48.68602" lon="1.87401">
        <ele>168</ele>
        <time>2018-08-19T09:12:45Z</time>
      </trkpt>
      <trkpt lat="48.68595" lon="1.87406">
        <ele>168</ele>
        <time>2018-08-19T09:12:49Z</time>
      </trkpt>
      <trkpt lat="48.68589" lon="1.87411">
        <ele>168</ele>
        <time>2018-08-19T09:12:53Z</time>
      </trkpt>
      <trkpt lat="48.68584" lon="1.87417">
        <ele>168</ele>
        <time>2018-08-19T09:12:57Z</time>
      </trkpt>
      <trkpt lat="48.68578" lon="1.87423">
        <ele>168</ele>
        <time>2018-08-19T09:13:01Z</time>
      </trkpt>
      <trkpt lat="48.68572" lon="1.87429">
        <ele>169</ele>
        <time>2018-08-19T09:13:05Z</time>
      </trkpt>
      <trkpt lat="48.68566" lon="1.87435">
        <ele>169</ele>
        <time>2018-08-19T09:13:09Z</time>
      </trkpt>
      <trkpt lat="48.6856" lon="1.8744">
        <ele>169</ele>
        <time>2018-08-19T09:13:13Z</time>
      </trkpt>
      <trkpt lat="48.68554" lon="1.87444">
        <ele>169</ele>
        <time>2018-08-19T09:13:17Z</time>
      </trkpt>
      <trkpt lat="48.68547" lon="1.87448">
        <ele>169</ele>
        <time>2018-08-19T09:13:21Z</time>
      </trkpt>
      <trkpt lat="48.68541" lon="1.87455">
        <ele>170</ele>
        <time>2018-08-19T09:13:25Z</time>
      </trkpt>
      <trkpt lat="48.68535" lon="1.8746">
        <ele>171</ele>
        <time>2018-08-19T09:13:29Z</time>
      </trkpt>
      <trkpt lat="48.68531" lon="1.87466">
        <ele>171</ele>
        <time>2018-08-19T09:13:35Z</time>
      </trkpt>
      <trkpt lat="48.68532" lon="1.87466">
        <ele>171</ele>
        <time>2018-08-19T09:13:42Z</time>
      </trkpt>
      <trkpt lat="48.68532" lon="1.87471">
        <ele>171</ele>
        <time>2018-08-19T09:13:47Z</time>
      </trkpt>
      <trkpt lat="48.68532" lon="1.87478">
        <ele>171</ele>
        <time>2018-08-19T09:13:51Z</time>
      </trkpt>
      <trkpt lat="48.68528" lon="1.87482">
        <ele>171</ele>
        <time>2018-08-19T09:13:55Z</time>
      </trkpt>
      <trkpt lat="48.68522" lon="1.87488">
        <ele>171</ele>
        <time>2018-08-19T09:13:59Z</time>
      </trkpt>
      <trkpt lat="48.68518" lon="1.87491">
        <ele>171</ele>
        <time>2018-08-19T09:14:03Z</time>
      </trkpt>
      <trkpt lat="48.68512" lon="1.87495">
        <ele>171</ele>
        <time>2018-08-19T09:14:07Z</time>
      </trkpt>
      <trkpt lat="48.68507" lon="1.87501">
        <ele>171</ele>
        <time>2018-08-19T09:14:11Z</time>
      </trkpt>
      <trkpt lat="48.68501" lon="1.87505">
        <ele>171</ele>
        <time>2018-08-19T09:14:15Z</time>
      </trkpt>
      <trkpt lat="48.68495" lon="1.87511">
        <ele>171</ele>
        <time>2018-08-19T09:14:19Z</time>
      </trkpt>
      <trkpt lat="48.68488" lon="1.87516">
        <ele>171</ele>
        <time>2018-08-19T09:14:23Z</time>
      </trkpt>
      <trkpt lat="48.68484" lon="1.87521">
        <ele>171</ele>
        <time>2018-08-19T09:14:27Z</time>
      </trkpt>
      <trkpt lat="48.68478" lon="1.87525">
        <ele>171</ele>
        <time>2018-08-19T09:14:31Z</time>
      </trkpt>
      <trkpt lat="48.68473" lon="1.87529">
        <ele>171</ele>
        <time>2018-08-19T09:14:35Z</time>
      </trkpt>
      <trkpt lat="48.68467" lon="1.87535">
        <ele>171</ele>
        <time>2018-08-19T09:14:39Z</time>
      </trkpt>
      <trkpt lat="48.68462" lon="1.8754">
        <ele>171</ele>
        <time>2018-08-19T09:14:43Z</time>
      </trkpt>
      <trkpt lat="48.68456" lon="1.87545">
        <ele>171</ele>
        <time>2018-08-19T09:14:47Z</time>
      </trkpt>
      <trkpt lat="48.68449" lon="1.87548">
        <ele>171</ele>
        <time>2018-08-19T09:14:51Z</time>
      </trkpt>
      <trkpt lat="48.68443" lon="1.87553">
        <ele>171</ele>
        <time>2018-08-19T09:14:55Z</time>
      </trkpt>
      <trkpt lat="48.68438" lon="1.87559">
        <ele>171</ele>
        <time>2018-08-19T09:14:59Z</time>
      </trkpt>
      <trkpt lat="48.68433" lon="1.87564">
        <ele>171</ele>
        <time>2018-08-19T09:15:03Z</time>
      </trkpt>
      <trkpt lat="48.6843" lon="1.87566">
        <ele>171</ele>
        <time>2018-08-19T09:15:09Z</time>
      </trkpt>
      <trkpt lat="48.68426" lon="1.87565">
        <ele>171</ele>
        <time>2018-08-19T09:15:13Z</time>
      </trkpt>
      <trkpt lat="48.6842" lon="1.87565">
        <ele>171</ele>
        <time>2018-08-19T09:15:17Z</time>
      </trkpt>
      <trkpt lat="48.68415" lon="1.87564">
        <ele>171</ele>
        <time>2018-08-19T09:15:21Z</time>
      </trkpt>
      <trkpt lat="48.68409" lon="1.87567">
        <ele>171</ele>
        <time>2018-08-19T09:15:25Z</time>
      </trkpt>
      <trkpt lat="48.68405" lon="1.87575">
        <ele>171</ele>
        <time>2018-08-19T09:15:29Z</time>
      </trkpt>
      <trkpt lat="48.68401" lon="1.87582">
        <ele>171</ele>
        <time>2018-08-19T09:15:33Z</time>
      </trkpt>
      <trkpt lat="48.68396" lon="1.87589">
        <ele>171</ele>
        <time>2018-08-19T09:15:37Z</time>
      </trkpt>
      <trkpt lat="48.68391" lon="1.87596">
        <ele>171</ele>
        <time>2018-08-19T09:15:41Z</time>
      </trkpt>
      <trkpt lat="48.68385" lon="1.87601">
        <ele>171</ele>
        <time>2018-08-19T09:15:45Z</time>
      </trkpt>
      <trkpt lat="48.68378" lon="1.87607">
        <ele>171</ele>
        <time>2018-08-19T09:15:49Z</time>
      </trkpt>
      <trkpt lat="48.68372" lon="1.87612">
        <ele>171</ele>
        <time>2018-08-19T09:15:53Z</time>
      </trkpt>
      <trkpt lat="48.68366" lon="1.87617">
        <ele>171</ele>
        <time>2018-08-19T09:15:57Z</time>
      </trkpt>
      <trkpt lat="48.6836" lon="1.87622">
        <ele>171</ele>
        <time>2018-08-19T09:16:01Z</time>
      </trkpt>
      <trkpt lat="48.68353" lon="1.87627">
        <ele>171</ele>
        <time>2018-08-19T09:16:05Z</time>
      </trkpt>
      <trkpt lat="48.68347" lon="1.87632">
        <ele>171</ele>
        <time>2018-08-19T09:16:09Z</time>
      </trkpt>
      <trkpt lat="48.68341" lon="1.87637">
        <ele>171</ele>
        <time>2018-08-19T09:16:13Z</time>
      </trkpt>
      <trkpt lat="48.68335" lon="1.87642">
        <ele>171</ele>
        <time>2018-08-19T09:16:17Z</time>
      </trkpt>
      <trkpt lat="48.68329" lon="1.87647">
        <ele>171</ele>
        <time>2018-08-19T09:16:21Z</time>
      </trkpt>
      <trkpt lat="48.68323" lon="1.87651">
        <ele>171</ele>
        <time>2018-08-19T09:16:25Z</time>
      </trkpt>
      <trkpt lat="48.68317" lon="1.87655">
        <ele>171</ele>
        <time>2018-08-19T09:16:29Z</time>
      </trkpt>
      <trkpt lat="48.68311" lon="1.87661">
        <ele>171</ele>
        <time>2018-08-19T09:16:33Z</time>
      </trkpt>
      <trkpt lat="48.68306" lon="1.8767">
        <ele>171</ele>
        <time>2018-08-19T09:16:37Z</time>
      </trkpt>
      <trkpt lat="48.68304" lon="1.87681">
        <ele>171</ele>
        <time>2018-08-19T09:16:41Z</time>
      </trkpt>
      <trkpt lat="48.68304" lon="1.87692">
        <ele>171</ele>
        <time>2018-08-19T09:16:45Z</time>
      </trkpt>
      <trkpt lat="48.68307" lon="1.87703">
        <ele>171</ele>
        <time>2018-08-19T09:16:49Z</time>
      </trkpt>
      <trkpt lat="48.6831" lon="1.87711">
        <ele>171</ele>
        <time>2018-08-19T09:16:53Z</time>
      </trkpt>
      <trkpt lat="48.68314" lon="1.87721">
        <ele>171</ele>
        <time>2018-08-19T09:16:57Z</time>
      </trkpt>
      <trkpt lat="48.68317" lon="1.8773">
        <ele>171</ele>
        <time>2018-08-19T09:17:01Z</time>
      </trkpt>
      <trkpt lat="48.6832" lon="1.87738">
        <ele>171</ele>
        <time>2018-08-19T09:17:05Z</time>
      </trkpt>
      <trkpt lat="48.68323" lon="1.87747">
        <ele>171</ele>
        <time>2018-08-19T09:17:09Z</time>
      </trkpt>
      <trkpt lat="48.68326" lon="1.87756">
        <ele>171</ele>
        <time>2018-08-19T09:17:13Z</time>
      </trkpt>
      <trkpt lat="48.68329" lon="1.87765">
        <ele>171</ele>
        <time>2018-08-19T09:17:17Z</time>
      </trkpt>
      <trkpt lat="48.68331" lon="1.87774">
        <ele>171</ele>
        <time>2018-08-19T09:17:21Z</time>
      </trkpt>
      <trkpt lat="48.68333" lon="1.8778">
        <ele>171</ele>
        <time>2018-08-19T09:17:28Z</time>
      </trkpt>
      <trkpt lat="48.68334" lon="1.87786">
        <ele>171</ele>
        <time>2018-08-19T09:17:32Z</time>
      </trkpt>
      <trkpt lat="48.68334" lon="1.87786">
        <ele>171</ele>
        <time>2018-08-19T09:17:44Z</time>
      </trkpt>
      <trkpt lat="48.68337" lon="1.87794">
        <ele>171</ele>
        <time>2018-08-19T09:17:48Z</time>
      </trkpt>
      <trkpt lat="48.68339" lon="1.87801">
        <ele>171</ele>
        <time>2018-08-19T09:17:52Z</time>
      </trkpt>
      <trkpt lat="48.68343" lon="1.87807">
        <ele>171</ele>
        <time>2018-08-19T09:17:56Z</time>
      </trkpt>
      <trkpt lat="48.68347" lon="1.87814">
        <ele>171</ele>
        <time>2018-08-19T09:18:00Z</time>
      </trkpt>
      <trkpt lat="48.68349" lon="1.87822">
        <ele>171</ele>
        <time>2018-08-19T09:18:04Z</time>
      </trkpt>
      <trkpt lat="48.68352" lon="1.87829">
        <ele>171</ele>
        <time>2018-08-19T09:18:08Z</time>
      </trkpt>
      <trkpt lat="48.68355" lon="1.87836">
        <ele>170</ele>
        <time>2018-08-19T09:18:12Z</time>
      </trkpt>
      <trkpt lat="48.68359" lon="1.87843">
        <ele>169</ele>
        <time>2018-08-19T09:18:16Z</time>
      </trkpt>
      <trkpt lat="48.68362" lon="1.87851">
        <ele>168</ele>
        <time>2018-08-19T09:18:20Z</time>
      </trkpt>
      <trkpt lat="48.68366" lon="1.8786">
        <ele>168</ele>
        <time>2018-08-19T09:18:24Z</time>
      </trkpt>
      <trkpt lat="48.68368" lon="1.87868">
        <ele>168</ele>
        <time>2018-08-19T09:18:28Z</time>
      </trkpt>
      <trkpt lat="48.68371" lon="1.87876">
        <ele>168</ele>
        <time>2018-08-19T09:18:32Z</time>
      </trkpt>
      <trkpt lat="48.68372" lon="1.87884">
        <ele>168</ele>
        <time>2018-08-19T09:18:36Z</time>
      </trkpt>
      <trkpt lat="48.68375" lon="1.87892">
        <ele>168</ele>
        <time>2018-08-19T09:18:40Z</time>
      </trkpt>
      <trkpt lat="48.68378" lon="1.87899">
        <ele>168</ele>
        <time>2018-08-19T09:18:44Z</time>
      </trkpt>
      <trkpt lat="48.68382" lon="1.87907">
        <ele>168</ele>
        <time>2018-08-19T09:18:48Z</time>
      </trkpt>
      <trkpt lat="48.68386" lon="1.87915">
        <ele>168</ele>
        <time>2018-08-19T09:18:52Z</time>
      </trkpt>
      <trkpt lat="48.68389" lon="1.87925">
        <ele>168</ele>
        <time>2018-08-19T09:18:56Z</time>
      </trkpt>
      <trkpt lat="48.68393" lon="1.87934">
        <ele>168</ele>
        <time>2018-08-19T09:19:00Z</time>
      </trkpt>
      <trkpt lat="48.68395" lon="1.87943">
        <ele>168</ele>
        <time>2018-08-19T09:19:04Z</time>
      </trkpt>
      <trkpt lat="48.68399" lon="1.87952">
        <ele>168</ele>
        <time>2018-08-19T09:19:08Z</time>
      </trkpt>
      <trkpt lat="48.68402" lon="1.8796">
        <ele>168</ele>
        <time>2018-08-19T09:19:12Z</time>
      </trkpt>
      <trkpt lat="48.68405" lon="1.87969">
        <ele>168</ele>
        <time>2018-08-19T09:19:16Z</time>
      </trkpt>
      <trkpt lat="48.68409" lon="1.87977">
        <ele>168</ele>
        <time>2018-08-19T09:19:20Z</time>
      </trkpt>
      <trkpt lat="48.68412" lon="1.87984">
        <ele>168</ele>
        <time>2018-08-19T09:19:24Z</time>
      </trkpt>
      <trkpt lat="48.68415" lon="1.87993">
        <ele>168</ele>
        <time>2018-08-19T09:19:28Z</time>
      </trkpt>
      <trkpt lat="48.68417" lon="1.88001">
        <ele>168</ele>
        <time>2018-08-19T09:19:32Z</time>
      </trkpt>
      <trkpt lat="48.68421" lon="1.8801">
        <ele>168</ele>
        <time>2018-08-19T09:19:36Z</time>
      </trkpt>
      <trkpt lat="48.68424" lon="1.88017">
        <ele>168</ele>
        <time>2018-08-19T09:19:40Z</time>
      </trkpt>
      <trkpt lat="48.68426" lon="1.88025">
        <ele>168</ele>
        <time>2018-08-19T09:19:44Z</time>
      </trkpt>
      <trkpt lat="48.68429" lon="1.88033">
        <ele>168</ele>
        <time>2018-08-19T09:19:48Z</time>
      </trkpt>
      <trkpt lat="48.68433" lon="1.88042">
        <ele>168</ele>
        <time>2018-08-19T09:19:53Z</time>
      </trkpt>
      <trkpt lat="48.68436" lon="1.88051">
        <ele>167</ele>
        <time>2018-08-19T09:19:57Z</time>
      </trkpt>
      <trkpt lat="48.68439" lon="1.8806">
        <ele>167</ele>
        <time>2018-08-19T09:20:01Z</time>
      </trkpt>
      <trkpt lat="48.68441" lon="1.88069">
        <ele>167</ele>
        <time>2018-08-19T09:20:05Z</time>
      </trkpt>
      <trkpt lat="48.68443" lon="1.88076">
        <ele>166</ele>
        <time>2018-08-19T09:20:09Z</time>
      </trkpt>
      <trkpt lat="48.68446" lon="1.88084">
        <ele>166</ele>
        <time>2018-08-19T09:20:13Z</time>
      </trkpt>
      <trkpt lat="48.68449" lon="1.88092">
        <ele>166</ele>
        <time>2018-08-19T09:20:17Z</time>
      </trkpt>
      <trkpt lat="48.68451" lon="1.881">
        <ele>166</ele>
        <time>2018-08-19T09:20:21Z</time>
      </trkpt>
      <trkpt lat="48.68455" lon="1.88109">
        <ele>166</ele>
        <time>2018-08-19T09:20:26Z</time>
      </trkpt>
      <trkpt lat="48.68457" lon="1.88119">
        <ele>166</ele>
        <time>2018-08-19T09:20:31Z</time>
      </trkpt>
      <trkpt lat="48.68461" lon="1.88128">
        <ele>166</ele>
        <time>2018-08-19T09:20:35Z</time>
      </trkpt>
      <trkpt lat="48.68464" lon="1.88138">
        <ele>166</ele>
        <time>2018-08-19T09:20:39Z</time>
      </trkpt>
      <trkpt lat="48.68467" lon="1.88145">
        <ele>166</ele>
        <time>2018-08-19T09:20:43Z</time>
      </trkpt>
      <trkpt lat="48.6847" lon="1.88153">
        <ele>166</ele>
        <time>2018-08-19T09:20:47Z</time>
      </trkpt>
      <trkpt lat="48.68475" lon="1.8816">
        <ele>166</ele>
        <time>2018-08-19T09:20:51Z</time>
      </trkpt>
      <trkpt lat="48.6848" lon="1.88169">
        <ele>166</ele>
        <time>2018-08-19T09:20:55Z</time>
      </trkpt>
      <trkpt lat="48.68483" lon="1.88178">
        <ele>166</ele>
        <time>2018-08-19T09:20:59Z</time>
      </trkpt>
      <trkpt lat="48.68485" lon="1.88187">
        <ele>168</ele>
        <time>2018-08-19T09:21:03Z</time>
      </trkpt>
      <trkpt lat="48.68486" lon="1.88196">
        <ele>169</ele>
        <time>2018-08-19T09:21:07Z</time>
      </trkpt>
      <trkpt lat="48.68488" lon="1.88205">
        <ele>169</ele>
        <time>2018-08-19T09:21:12Z</time>
      </trkpt>
      <trkpt lat="48.68492" lon="1.88213">
        <ele>169</ele>
        <time>2018-08-19T09:21:16Z</time>
      </trkpt>
      <trkpt lat="48.68497" lon="1.88222">
        <ele>169</ele>
        <time>2018-08-19T09:21:20Z</time>
      </trkpt>
      <trkpt lat="48.68499" lon="1.88232">
        <ele>170</ele>
        <time>2018-08-19T09:21:24Z</time>
      </trkpt>
      <trkpt lat="48.68501" lon="1.88239">
        <ele>171</ele>
        <time>2018-08-19T09:21:28Z</time>
      </trkpt>
      <trkpt lat="48.68503" lon="1.88249">
        <ele>171</ele>
        <time>2018-08-19T09:21:32Z</time>
      </trkpt>
      <trkpt lat="48.68506" lon="1.88256">
        <ele>171</ele>
        <time>2018-08-19T09:21:36Z</time>
      </trkpt>
      <trkpt lat="48.68509" lon="1.88263">
        <ele>171</ele>
        <time>2018-08-19T09:21:40Z</time>
      </trkpt>
      <trkpt lat="48.68512" lon="1.88269">
        <ele>171</ele>
        <time>2018-08-19T09:21:44Z</time>
      </trkpt>
      <trkpt lat="48.68515" lon="1.88276">
        <ele>172</ele>
        <time>2018-08-19T09:21:48Z</time>
      </trkpt>
      <trkpt lat="48.68517" lon="1.88286">
        <ele>173</ele>
        <time>2018-08-19T09:21:53Z</time>
      </trkpt>
      <trkpt lat="48.6852" lon="1.88293">
        <ele>175</ele>
        <time>2018-08-19T09:21:57Z</time>
      </trkpt>
      <trkpt lat="48.68523" lon="1.88303">
        <ele>175</ele>
        <time>2018-08-19T09:22:01Z</time>
      </trkpt>
      <trkpt lat="48.68527" lon="1.88311">
        <ele>175</ele>
        <time>2018-08-19T09:22:05Z</time>
      </trkpt>
      <trkpt lat="48.68531" lon="1.8832">
        <ele>175</ele>
        <time>2018-08-19T09:22:09Z</time>
      </trkpt>
      <trkpt lat="48.68535" lon="1.88329">
        <ele>175</ele>
        <time>2018-08-19T09:22:13Z</time>
      </trkpt>
      <trkpt lat="48.68538" lon="1.88338">
        <ele>175</ele>
        <time>2018-08-19T09:22:17Z</time>
      </trkpt>
      <trkpt lat="48.68541" lon="1.88348">
        <ele>175</ele>
        <time>2018-08-19T09:22:21Z</time>
      </trkpt>
      <trkpt lat="48.68544" lon="1.88357">
        <ele>174</ele>
        <time>2018-08-19T09:22:25Z</time>
      </trkpt>
      <trkpt lat="48.68545" lon="1.88367">
        <ele>173</ele>
        <time>2018-08-19T09:22:29Z</time>
      </trkpt>
      <trkpt lat="48.68547" lon="1.88376">
        <ele>173</ele>
        <time>2018-08-19T09:22:33Z</time>
      </trkpt>
      <trkpt lat="48.68549" lon="1.88385">
        <ele>172</ele>
        <time>2018-08-19T09:22:37Z</time>
      </trkpt>
      <trkpt lat="48.68553" lon="1.88393">
        <ele>172</ele>
        <time>2018-08-19T09:22:41Z</time>
      </trkpt>
      <trkpt lat="48.68556" lon="1.88403">
        <ele>172</ele>
        <time>2018-08-19T09:22:45Z</time>
      </trkpt>
      <trkpt lat="48.6856" lon="1.88414">
        <ele>172</ele>
        <time>2018-08-19T09:22:50Z</time>
      </trkpt>
      <trkpt lat="48.68562" lon="1.88423">
        <ele>172</ele>
        <time>2018-08-19T09:22:54Z</time>
      </trkpt>
      <trkpt lat="48.68565" lon="1.88432">
        <ele>172</ele>
        <time>2018-08-19T09:22:58Z</time>
      </trkpt>
      <trkpt lat="48.68567" lon="1.8844">
        <ele>172</ele>
        <time>2018-08-19T09:23:02Z</time>
      </trkpt>
      <trkpt lat="48.68569" lon="1.88448">
        <ele>172</ele>
        <time>2018-08-19T09:23:06Z</time>
      </trkpt>
      <trkpt lat="48.68572" lon="1.88457">
        <ele>172</ele>
        <time>2018-08-19T09:23:10Z</time>
      </trkpt>
      <trkpt lat="48.68576" lon="1.88464">
        <ele>172</ele>
        <time>2018-08-19T09:23:14Z</time>
      </trkpt>
      <trkpt lat="48.6858" lon="1.88472">
        <ele>172</ele>
        <time>2018-08-19T09:23:18Z</time>
      </trkpt>
      <trkpt lat="48.68583" lon="1.8848">
        <ele>172</ele>
        <time>2018-08-19T09:23:22Z</time>
      </trkpt>
      <trkpt lat="48.68585" lon="1.88489">
        <ele>172</ele>
        <time>2018-08-19T09:23:26Z</time>
      </trkpt>
      <trkpt lat="48.68586" lon="1.88497">
        <ele>172</ele>
        <time>2018-08-19T09:23:30Z</time>
      </trkpt>
      <trkpt lat="48.68588" lon="1.88507">
        <ele>173</ele>
        <time>2018-08-19T09:23:34Z</time>
      </trkpt>
      <trkpt lat="48.68589" lon="1.88517">
        <ele>175</ele>
        <time>2018-08-19T09:23:38Z</time>
      </trkpt>
      <trkpt lat="48.68593" lon="1.88526">
        <ele>175</ele>
        <time>2018-08-19T09:23:43Z</time>
      </trkpt>
      <trkpt lat="48.68595" lon="1.88534">
        <ele>175</ele>
        <time>2018-08-19T09:23:47Z</time>
      </trkpt>
      <trkpt lat="48.68599" lon="1.88538">
        <ele>175</ele>
        <time>2018-08-19T09:23:53Z</time>
      </trkpt>
      <trkpt lat="48.68598" lon="1.88547">
        <ele>176</ele>
        <time>2018-08-19T09:23:57Z</time>
      </trkpt>
      <trkpt lat="48.68599" lon="1.88559">
        <ele>176</ele>
        <time>2018-08-19T09:24:02Z</time>
      </trkpt>
      <trkpt lat="48.68599" lon="1.88568">
        <ele>176</ele>
        <time>2018-08-19T09:24:07Z</time>
      </trkpt>
      <trkpt lat="48.686" lon="1.88578">
        <ele>176</ele>
        <time>2018-08-19T09:24:11Z</time>
      </trkpt>
      <trkpt lat="48.68602" lon="1.88587">
        <ele>176</ele>
        <time>2018-08-19T09:24:15Z</time>
      </trkpt>
      <trkpt lat="48.68602" lon="1.88598">
        <ele>176</ele>
        <time>2018-08-19T09:24:19Z</time>
      </trkpt>
      <trkpt lat="48.68604" lon="1.88608">
        <ele>176</ele>
        <time>2018-08-19T09:24:23Z</time>
      </trkpt>
      <trkpt lat="48.68606" lon="1.88619">
        <ele>176</ele>
        <time>2018-08-19T09:24:27Z</time>
      </trkpt>
      <trkpt lat="48.68607" lon="1.88628">
        <ele>176</ele>
        <time>2018-08-19T09:24:31Z</time>
      </trkpt>
      <trkpt lat="48.68607" lon="1.88637">
        <ele>176</ele>
        <time>2018-08-19T09:24:35Z</time>
      </trkpt>
      <trkpt lat="48.68605" lon="1.88646">
        <ele>176</ele>
        <time>2018-08-19T09:24:39Z</time>
      </trkpt>
      <trkpt lat="48.68604" lon="1.88654">
        <ele>176</ele>
        <time>2018-08-19T09:24:43Z</time>
      </trkpt>
      <trkpt lat="48.68603" lon="1.88663">
        <ele>176</ele>
        <time>2018-08-19T09:24:47Z</time>
      </trkpt>
      <trkpt lat="48.68603" lon="1.88672">
        <ele>176</ele>
        <time>2018-08-19T09:24:51Z</time>
      </trkpt>
      <trkpt lat="48.68602" lon="1.8868">
        <ele>176</ele>
        <time>2018-08-19T09:24:55Z</time>
      </trkpt>
      <trkpt lat="48.68602" lon="1.8869">
        <ele>176</ele>
        <time>2018-08-19T09:24:59Z</time>
      </trkpt>
      <trkpt lat="48.68601" lon="1.887">
        <ele>176</ele>
        <time>2018-08-19T09:25:03Z</time>
      </trkpt>
      <trkpt lat="48.68601" lon="1.88709">
        <ele>176</ele>
        <time>2018-08-19T09:25:07Z</time>
      </trkpt>
      <trkpt lat="48.686" lon="1.8872">
        <ele>176</ele>
        <time>2018-08-19T09:25:11Z</time>
      </trkpt>
      <trkpt lat="48.68599" lon="1.88732">
        <ele>176</ele>
        <time>2018-08-19T09:25:15Z</time>
      </trkpt>
      <trkpt lat="48.68598" lon="1.88742">
        <ele>176</ele>
        <time>2018-08-19T09:25:20Z</time>
      </trkpt>
      <trkpt lat="48.68598" lon="1.8875">
        <ele>176</ele>
        <time>2018-08-19T09:25:24Z</time>
      </trkpt>
      <trkpt lat="48.68598" lon="1.88757">
        <ele>176</ele>
        <time>2018-08-19T09:25:28Z</time>
      </trkpt>
      <trkpt lat="48.68599" lon="1.88765">
        <ele>176</ele>
        <time>2018-08-19T09:25:32Z</time>
      </trkpt>
      <trkpt lat="48.68602" lon="1.88772">
        <ele>176</ele>
        <time>2018-08-19T09:25:36Z</time>
      </trkpt>
      <trkpt lat="48.68602" lon="1.88779">
        <ele>176</ele>
        <time>2018-08-19T09:25:40Z</time>
      </trkpt>
      <trkpt lat="48.686" lon="1.88781">
        <ele>176</ele>
        <time>2018-08-19T09:25:45Z</time>
      </trkpt>
      <trkpt lat="48.686" lon="1.88794">
        <ele>176</ele>
        <time>2018-08-19T09:25:49Z</time>
      </trkpt>
      <trkpt lat="48.68601" lon="1.88805">
        <ele>178</ele>
        <time>2018-08-19T09:25:53Z</time>
      </trkpt>
      <trkpt lat="48.68599" lon="1.88815">
        <ele>178</ele>
        <time>2018-08-19T09:25:58Z</time>
      </trkpt>
      <trkpt lat="48.686" lon="1.88819">
        <ele>178</ele>
        <time>2018-08-19T09:26:02Z</time>
      </trkpt>
      <trkpt lat="48.68602" lon="1.88828">
        <ele>178</ele>
        <time>2018-08-19T09:26:07Z</time>
      </trkpt>
      <trkpt lat="48.68601" lon="1.88837">
        <ele>178</ele>
        <time>2018-08-19T09:26:11Z</time>
      </trkpt>
      <trkpt lat="48.68601" lon="1.88845">
        <ele>179</ele>
        <time>2018-08-19T09:26:15Z</time>
      </trkpt>
      <trkpt lat="48.68599" lon="1.88854">
        <ele>179</ele>
        <time>2018-08-19T09:26:19Z</time>
      </trkpt>
      <trkpt lat="48.686" lon="1.88862">
        <ele>179</ele>
        <time>2018-08-19T09:26:23Z</time>
      </trkpt>
      <trkpt lat="48.686" lon="1.88871">
        <ele>179</ele>
        <time>2018-08-19T09:26:27Z</time>
      </trkpt>
      <trkpt lat="48.68602" lon="1.8888">
        <ele>179</ele>
        <time>2018-08-19T09:26:31Z</time>
      </trkpt>
      <trkpt lat="48.686" lon="1.88891">
        <ele>179</ele>
        <time>2018-08-19T09:26:36Z</time>
      </trkpt>
      <trkpt lat="48.68601" lon="1.88905">
        <ele>179</ele>
        <time>2018-08-19T09:26:41Z</time>
      </trkpt>
      <trkpt lat="48.68603" lon="1.88916">
        <ele>179</ele>
        <time>2018-08-19T09:26:46Z</time>
      </trkpt>
      <trkpt lat="48.68602" lon="1.88926">
        <ele>179</ele>
        <time>2018-08-19T09:26:50Z</time>
      </trkpt>
      <trkpt lat="48.686" lon="1.88938">
        <ele>179</ele>
        <time>2018-08-19T09:26:54Z</time>
      </trkpt>
      <trkpt lat="48.68601" lon="1.88945">
        <ele>179</ele>
        <time>2018-08-19T09:26:58Z</time>
      </trkpt>
      <trkpt lat="48.68602" lon="1.88954">
        <ele>179</ele>
        <time>2018-08-19T09:27:02Z</time>
      </trkpt>
      <trkpt lat="48.686" lon="1.88963">
        <ele>179</ele>
        <time>2018-08-19T09:27:06Z</time>
      </trkpt>
      <trkpt lat="48.68601" lon="1.88971">
        <ele>179</ele>
        <time>2018-08-19T09:27:10Z</time>
      </trkpt>
      <trkpt lat="48.68602" lon="1.8898">
        <ele>178</ele>
        <time>2018-08-19T09:27:14Z</time>
      </trkpt>
      <trkpt lat="48.68601" lon="1.88989">
        <ele>178</ele>
        <time>2018-08-19T09:27:18Z</time>
      </trkpt>
      <trkpt lat="48.68601" lon="1.89">
        <ele>178</ele>
        <time>2018-08-19T09:27:22Z</time>
      </trkpt>
      <trkpt lat="48.68599" lon="1.89013">
        <ele>178</ele>
        <time>2018-08-19T09:27:27Z</time>
      </trkpt>
      <trkpt lat="48.68598" lon="1.89023">
        <ele>177</ele>
        <time>2018-08-19T09:27:31Z</time>
      </trkpt>
      <trkpt lat="48.68597" lon="1.89032">
        <ele>177</ele>
        <time>2018-08-19T09:27:35Z</time>
      </trkpt>
      <trkpt lat="48.68597" lon="1.89041">
        <ele>177</ele>
        <time>2018-08-19T09:27:39Z</time>
      </trkpt>
      <trkpt lat="48.68597" lon="1.89049">
        <ele>177</ele>
        <time>2018-08-19T09:27:43Z</time>
      </trkpt>
      <trkpt lat="48.68598" lon="1.89061">
        <ele>177</ele>
        <time>2018-08-19T09:27:48Z</time>
      </trkpt>
      <trkpt lat="48.68599" lon="1.89074">
        <ele>177</ele>
        <time>2018-08-19T09:27:53Z</time>
      </trkpt>
      <trkpt lat="48.68598" lon="1.89083">
        <ele>176</ele>
        <time>2018-08-19T09:27:57Z</time>
      </trkpt>
      <trkpt lat="48.68599" lon="1.89092">
        <ele>176</ele>
        <time>2018-08-19T09:28:01Z</time>
      </trkpt>
      <trkpt lat="48.68599" lon="1.89106">
        <ele>176</ele>
        <time>2018-08-19T09:28:06Z</time>
      </trkpt>
      <trkpt lat="48.68599" lon="1.89117">
        <ele>176</ele>
        <time>2018-08-19T09:28:10Z</time>
      </trkpt>
      <trkpt lat="48.68599" lon="1.8913">
        <ele>176</ele>
        <time>2018-08-19T09:28:14Z</time>
      </trkpt>
      <trkpt lat="48.686" lon="1.89137">
        <ele>176</ele>
        <time>2018-08-19T09:28:18Z</time>
      </trkpt>
      <trkpt lat="48.68599" lon="1.89145">
        <ele>176</ele>
        <time>2018-08-19T09:28:22Z</time>
      </trkpt>
      <trkpt lat="48.68598" lon="1.89153">
        <ele>176</ele>
        <time>2018-08-19T09:28:26Z</time>
      </trkpt>
      <trkpt lat="48.68598" lon="1.89161">
        <ele>176</ele>
        <time>2018-08-19T09:28:30Z</time>
      </trkpt>
      <trkpt lat="48.68599" lon="1.89168">
        <ele>176</ele>
        <time>2018-08-19T09:28:34Z</time>
      </trkpt>
      <trkpt lat="48.68598" lon="1.89177">
        <ele>176</ele>
        <time>2018-08-19T09:28:38Z</time>
      </trkpt>
      <trkpt lat="48.68598" lon="1.89186">
        <ele>176</ele>
        <time>2018-08-19T09:28:42Z</time>
      </trkpt>
      <trkpt lat="48.68598" lon="1.89197">
        <ele>176</ele>
        <time>2018-08-19T09:28:46Z</time>
      </trkpt>
      <trkpt lat="48.68598" lon="1.89207">
        <ele>176</ele>
        <time>2018-08-19T09:28:50Z</time>
      </trkpt>
      <trkpt lat="48.68599" lon="1.89215">
        <ele>176</ele>
        <time>2018-08-19T09:28:54Z</time>
      </trkpt>
      <trkpt lat="48.68599" lon="1.89223">
        <ele>176</ele>
        <time>2018-08-19T09:28:58Z</time>
      </trkpt>
      <trkpt lat="48.686" lon="1.8923">
        <ele>176</ele>
        <time>2018-08-19T09:29:02Z</time>
      </trkpt>
      <trkpt lat="48.68599" lon="1.89241">
        <ele>176</ele>
        <time>2018-08-19T09:29:07Z</time>
      </trkpt>
      <trkpt lat="48.686" lon="1.89251">
        <ele>176</ele>
        <time>2018-08-19T09:29:11Z</time>
      </trkpt>
      <trkpt lat="48.68599" lon="1.89261">
        <ele>176</ele>
        <time>2018-08-19T09:29:15Z</time>
      </trkpt>
      <trkpt lat="48.686" lon="1.8927">
        <ele>176</ele>
        <time>2018-08-19T09:29:19Z</time>
      </trkpt>
      <trkpt lat="48.686" lon="1.8928">
        <ele>176</ele>
        <time>2018-08-19T09:29:23Z</time>
      </trkpt>
      <trkpt lat="48.68601" lon="1.89289">
        <ele>176</ele>
        <time>2018-08-19T09:29:27Z</time>
      </trkpt>
      <trkpt lat="48.68602" lon="1.89298">
        <ele>176</ele>
        <time>2018-08-19T09:29:31Z</time>
      </trkpt>
      <trkpt lat="48.68601" lon="1.89309">
        <ele>176</ele>
        <time>2018-08-19T09:29:35Z</time>
      </trkpt>
      <trkpt lat="48.68601" lon="1.89319">
        <ele>176</ele>
        <time>2018-08-19T09:29:39Z</time>
      </trkpt>
      <trkpt lat="48.686" lon="1.89326">
        <ele>176</ele>
        <time>2018-08-19T09:29:43Z</time>
      </trkpt>
      <trkpt lat="48.68599" lon="1.89335">
        <ele>176</ele>
        <time>2018-08-19T09:29:47Z</time>
      </trkpt>
      <trkpt lat="48.686" lon="1.89345">
        <ele>176</ele>
        <time>2018-08-19T09:29:51Z</time>
      </trkpt>
      <trkpt lat="48.686" lon="1.89354">
        <ele>176</ele>
        <time>2018-08-19T09:29:55Z</time>
      </trkpt>
      <trkpt lat="48.68599" lon="1.89363">
        <ele>176</ele>
        <time>2018-08-19T09:29:59Z</time>
      </trkpt>
      <trkpt lat="48.686" lon="1.89372">
        <ele>176</ele>
        <time>2018-08-19T09:30:03Z</time>
      </trkpt>
      <trkpt lat="48.68599" lon="1.89382">
        <ele>176</ele>
        <time>2018-08-19T09:30:07Z</time>
      </trkpt>
      <trkpt lat="48.68602" lon="1.89389">
        <ele>176</ele>
        <time>2018-08-19T09:30:11Z</time>
      </trkpt>
      <trkpt lat="48.68602" lon="1.89398">
        <ele>175</ele>
        <time>2018-08-19T09:30:15Z</time>
      </trkpt>
      <trkpt lat="48.68601" lon="1.89407">
        <ele>175</ele>
        <time>2018-08-19T09:30:19Z</time>
      </trkpt>
      <trkpt lat="48.68601" lon="1.89418">
        <ele>174</ele>
        <time>2018-08-19T09:30:23Z</time>
      </trkpt>
      <trkpt lat="48.68601" lon="1.89427">
        <ele>174</ele>
        <time>2018-08-19T09:30:27Z</time>
      </trkpt>
      <trkpt lat="48.686" lon="1.89436">
        <ele>174</ele>
        <time>2018-08-19T09:30:31Z</time>
      </trkpt>
      <trkpt lat="48.68599" lon="1.89445">
        <ele>174</ele>
        <time>2018-08-19T09:30:35Z</time>
      </trkpt>
      <trkpt lat="48.68599" lon="1.89454">
        <ele>174</ele>
        <time>2018-08-19T09:30:39Z</time>
      </trkpt>
      <trkpt lat="48.68598" lon="1.89463">
        <ele>174</ele>
        <time>2018-08-19T09:30:43Z</time>
      </trkpt>
      <trkpt lat="48.68597" lon="1.89472">
        <ele>174</ele>
        <time>2018-08-19T09:30:47Z</time>
      </trkpt>
      <trkpt lat="48.68597" lon="1.89484">
        <ele>174</ele>
        <time>2018-08-19T09:30:51Z</time>
      </trkpt>
      <trkpt lat="48.68599" lon="1.89493">
        <ele>178</ele>
        <time>2018-08-19T09:30:55Z</time>
      </trkpt>
      <trkpt lat="48.68599" lon="1.89506">
        <ele>180</ele>
        <time>2018-08-19T09:30:59Z</time>
      </trkpt>
      <trkpt lat="48.68602" lon="1.89517">
        <ele>182</ele>
        <time>2018-08-19T09:31:04Z</time>
      </trkpt>
      <trkpt lat="48.68603" lon="1.89525">
        <ele>182</ele>
        <time>2018-08-19T09:31:08Z</time>
      </trkpt>
      <trkpt lat="48.68601" lon="1.89536">
        <ele>182</ele>
        <time>2018-08-19T09:31:12Z</time>
      </trkpt>
      <trkpt lat="48.686" lon="1.89545">
        <ele>182</ele>
        <time>2018-08-19T09:31:16Z</time>
      </trkpt>
      <trkpt lat="48.68601" lon="1.89553">
        <ele>181</ele>
        <time>2018-08-19T09:31:20Z</time>
      </trkpt>
      <trkpt lat="48.68601" lon="1.89562">
        <ele>179</ele>
        <time>2018-08-19T09:31:24Z</time>
      </trkpt>
      <trkpt lat="48.686" lon="1.89571">
        <ele>178</ele>
        <time>2018-08-19T09:31:28Z</time>
      </trkpt>
      <trkpt lat="48.68599" lon="1.8958">
        <ele>178</ele>
        <time>2018-08-19T09:31:32Z</time>
      </trkpt>
      <trkpt lat="48.68598" lon="1.89589">
        <ele>178</ele>
        <time>2018-08-19T09:31:36Z</time>
      </trkpt>
      <trkpt lat="48.68599" lon="1.89598">
        <ele>178</ele>
        <time>2018-08-19T09:31:40Z</time>
      </trkpt>
      <trkpt lat="48.68599" lon="1.8961">
        <ele>178</ele>
        <time>2018-08-19T09:31:44Z</time>
      </trkpt>
      <trkpt lat="48.68598" lon="1.89623">
        <ele>178</ele>
        <time>2018-08-19T09:31:48Z</time>
      </trkpt>
      <trkpt lat="48.68599" lon="1.8963">
        <ele>179</ele>
        <time>2018-08-19T09:31:52Z</time>
      </trkpt>
      <trkpt lat="48.68599" lon="1.89638">
        <ele>179</ele>
        <time>2018-08-19T09:31:56Z</time>
      </trkpt>
      <trkpt lat="48.68598" lon="1.89647">
        <ele>179</ele>
        <time>2018-08-19T09:32:00Z</time>
      </trkpt>
      <trkpt lat="48.68599" lon="1.89655">
        <ele>179</ele>
        <time>2018-08-19T09:32:04Z</time>
      </trkpt>
      <trkpt lat="48.68599" lon="1.89663">
        <ele>179</ele>
        <time>2018-08-19T09:32:08Z</time>
      </trkpt>
      <trkpt lat="48.68599" lon="1.89672">
        <ele>179</ele>
        <time>2018-08-19T09:32:12Z</time>
      </trkpt>
      <trkpt lat="48.68597" lon="1.89681">
        <ele>179</ele>
        <time>2018-08-19T09:32:16Z</time>
      </trkpt>
      <trkpt lat="48.68597" lon="1.89689">
        <ele>179</ele>
        <time>2018-08-19T09:32:35Z</time>
      </trkpt>
      <trkpt lat="48.68598" lon="1.8969">
        <ele>179</ele>
        <time>2018-08-19T09:32:39Z</time>
      </trkpt>
      <trkpt lat="48.68598" lon="1.89692">
        <ele>179</ele>
        <time>2018-08-19T09:32:45Z</time>
      </trkpt>
      <trkpt lat="48.68599" lon="1.89692">
        <ele>179</ele>
        <time>2018-08-19T09:32:49Z</time>
      </trkpt>
      <trkpt lat="48.68601" lon="1.89693">
        <ele>179</ele>
        <time>2018-08-19T09:32:53Z</time>
      </trkpt>
      <trkpt lat="48.68604" lon="1.897">
        <ele>177</ele>
        <time>2018-08-19T09:32:58Z</time>
      </trkpt>
      <trkpt lat="48.68608" lon="1.89703">
        <ele>177</ele>
        <time>2018-08-19T09:33:02Z</time>
      </trkpt>
      <trkpt lat="48.68615" lon="1.8971">
        <ele>177</ele>
        <time>2018-08-19T09:33:07Z</time>
      </trkpt>
      <trkpt lat="48.68619" lon="1.89716">
        <ele>177</ele>
        <time>2018-08-19T09:33:11Z</time>
      </trkpt>
      <trkpt lat="48.68623" lon="1.89722">
        <ele>177</ele>
        <time>2018-08-19T09:33:15Z</time>
      </trkpt>
      <trkpt lat="48.68625" lon="1.8973">
        <ele>177</ele>
        <time>2018-08-19T09:33:19Z</time>
      </trkpt>
      <trkpt lat="48.68628" lon="1.89736">
        <ele>177</ele>
        <time>2018-08-19T09:33:23Z</time>
      </trkpt>
      <trkpt lat="48.68634" lon="1.89742">
        <ele>177</ele>
        <time>2018-08-19T09:33:27Z</time>
      </trkpt>
      <trkpt lat="48.68637" lon="1.89749">
        <ele>177</ele>
        <time>2018-08-19T09:33:31Z</time>
      </trkpt>
      <trkpt lat="48.68639" lon="1.89755">
        <ele>177</ele>
        <time>2018-08-19T09:33:35Z</time>
      </trkpt>
      <trkpt lat="48.68645" lon="1.89762">
        <ele>177</ele>
        <time>2018-08-19T09:33:39Z</time>
      </trkpt>
      <trkpt lat="48.68652" lon="1.89769">
        <ele>177</ele>
        <time>2018-08-19T09:33:43Z</time>
      </trkpt>
      <trkpt lat="48.68656" lon="1.89776">
        <ele>177</ele>
        <time>2018-08-19T09:33:47Z</time>
      </trkpt>
      <trkpt lat="48.68661" lon="1.89782">
        <ele>177</ele>
        <time>2018-08-19T09:33:51Z</time>
      </trkpt>
      <trkpt lat="48.68665" lon="1.89789">
        <ele>177</ele>
        <time>2018-08-19T09:33:55Z</time>
      </trkpt>
      <trkpt lat="48.6867" lon="1.89797">
        <ele>177</ele>
        <time>2018-08-19T09:33:59Z</time>
      </trkpt>
      <trkpt lat="48.68672" lon="1.89805">
        <ele>177</ele>
        <time>2018-08-19T09:34:03Z</time>
      </trkpt>
      <trkpt lat="48.68677" lon="1.89813">
        <ele>177</ele>
        <time>2018-08-19T09:34:08Z</time>
      </trkpt>
      <trkpt lat="48.68683" lon="1.89819">
        <ele>177</ele>
        <time>2018-08-19T09:34:12Z</time>
      </trkpt>
      <trkpt lat="48.68687" lon="1.89825">
        <ele>177</ele>
        <time>2018-08-19T09:34:16Z</time>
      </trkpt>
      <trkpt lat="48.68693" lon="1.89832">
        <ele>177</ele>
        <time>2018-08-19T09:34:20Z</time>
      </trkpt>
      <trkpt lat="48.68697" lon="1.89841">
        <ele>180</ele>
        <time>2018-08-19T09:34:25Z</time>
      </trkpt>
      <trkpt lat="48.68701" lon="1.89851">
        <ele>180</ele>
        <time>2018-08-19T09:34:29Z</time>
      </trkpt>
      <trkpt lat="48.68708" lon="1.89857">
        <ele>180</ele>
        <time>2018-08-19T09:34:33Z</time>
      </trkpt>
      <trkpt lat="48.6871" lon="1.89867">
        <ele>180</ele>
        <time>2018-08-19T09:34:37Z</time>
      </trkpt>
      <trkpt lat="48.68712" lon="1.89875">
        <ele>180</ele>
        <time>2018-08-19T09:34:41Z</time>
      </trkpt>
      <trkpt lat="48.68716" lon="1.89881">
        <ele>180</ele>
        <time>2018-08-19T09:34:45Z</time>
      </trkpt>
      <trkpt lat="48.68718" lon="1.89888">
        <ele>180</ele>
        <time>2018-08-19T09:34:49Z</time>
      </trkpt>
      <trkpt lat="48.68721" lon="1.89897">
        <ele>180</ele>
        <time>2018-08-19T09:34:53Z</time>
      </trkpt>
      <trkpt lat="48.68726" lon="1.89906">
        <ele>180</ele>
        <time>2018-08-19T09:34:57Z</time>
      </trkpt>
      <trkpt lat="48.68731" lon="1.89913">
        <ele>179</ele>
        <time>2018-08-19T09:35:01Z</time>
      </trkpt>
      <trkpt lat="48.68735" lon="1.8992">
        <ele>176</ele>
        <time>2018-08-19T09:35:05Z</time>
      </trkpt>
      <trkpt lat="48.68738" lon="1.89926">
        <ele>175</ele>
        <time>2018-08-19T09:35:09Z</time>
      </trkpt>
      <trkpt lat="48.68742" lon="1.89933">
        <ele>175</ele>
        <time>2018-08-19T09:35:13Z</time>
      </trkpt>
      <trkpt lat="48.68746" lon="1.89939">
        <ele>175</ele>
        <time>2018-08-19T09:35:17Z</time>
      </trkpt>
      <trkpt lat="48.68751" lon="1.89948">
        <ele>175</ele>
        <time>2018-08-19T09:35:22Z</time>
      </trkpt>
      <trkpt lat="48.68754" lon="1.89956">
        <ele>175</ele>
        <time>2018-08-19T09:35:26Z</time>
      </trkpt>
      <trkpt lat="48.6876" lon="1.89962">
        <ele>175</ele>
        <time>2018-08-19T09:35:30Z</time>
      </trkpt>
      <trkpt lat="48.68765" lon="1.89969">
        <ele>175</ele>
        <time>2018-08-19T09:35:34Z</time>
      </trkpt>
      <trkpt lat="48.6877" lon="1.89976">
        <ele>175</ele>
        <time>2018-08-19T09:35:38Z</time>
      </trkpt>
      <trkpt lat="48.68775" lon="1.89982">
        <ele>175</ele>
        <time>2018-08-19T09:35:42Z</time>
      </trkpt>
      <trkpt lat="48.68781" lon="1.8999">
        <ele>175</ele>
        <time>2018-08-19T09:35:46Z</time>
      </trkpt>
      <trkpt lat="48.68785" lon="1.89997">
        <ele>175</ele>
        <time>2018-08-19T09:35:50Z</time>
      </trkpt>
      <trkpt lat="48.6879" lon="1.90003">
        <ele>177</ele>
        <time>2018-08-19T09:35:55Z</time>
      </trkpt>
      <trkpt lat="48.68795" lon="1.90012">
        <ele>178</ele>
        <time>2018-08-19T09:36:00Z</time>
      </trkpt>
      <trkpt lat="48.68795" lon="1.9002">
        <ele>178</ele>
        <time>2018-08-19T09:36:04Z</time>
      </trkpt>
      <trkpt lat="48.68797" lon="1.90031">
        <ele>178</ele>
        <time>2018-08-19T09:36:09Z</time>
      </trkpt>
      <trkpt lat="48.68801" lon="1.90039">
        <ele>178</ele>
        <time>2018-08-19T09:36:14Z</time>
      </trkpt>
      <trkpt lat="48.68806" lon="1.90046">
        <ele>178</ele>
        <time>2018-08-19T09:36:18Z</time>
      </trkpt>
      <trkpt lat="48.68813" lon="1.90054">
        <ele>178</ele>
        <time>2018-08-19T09:36:22Z</time>
      </trkpt>
      <trkpt lat="48.68818" lon="1.90061">
        <ele>178</ele>
        <time>2018-08-19T09:36:26Z</time>
      </trkpt>
      <trkpt lat="48.68823" lon="1.90068">
        <ele>178</ele>
        <time>2018-08-19T09:36:30Z</time>
      </trkpt>
      <trkpt lat="48.68827" lon="1.90075">
        <ele>178</ele>
        <time>2018-08-19T09:36:34Z</time>
      </trkpt>
      <trkpt lat="48.6883" lon="1.90082">
        <ele>178</ele>
        <time>2018-08-19T09:36:39Z</time>
      </trkpt>
      <trkpt lat="48.68831" lon="1.90087">
        <ele>182</ele>
        <time>2018-08-19T09:36:43Z</time>
      </trkpt>
      <trkpt lat="48.68837" lon="1.90094">
        <ele>183</ele>
        <time>2018-08-19T09:36:47Z</time>
      </trkpt>
      <trkpt lat="48.68842" lon="1.90101">
        <ele>184</ele>
        <time>2018-08-19T09:36:51Z</time>
      </trkpt>
      <trkpt lat="48.68845" lon="1.90109">
        <ele>184</ele>
        <time>2018-08-19T09:36:55Z</time>
      </trkpt>
      <trkpt lat="48.68849" lon="1.90117">
        <ele>184</ele>
        <time>2018-08-19T09:36:59Z</time>
      </trkpt>
      <trkpt lat="48.68856" lon="1.90125">
        <ele>184</ele>
        <time>2018-08-19T09:37:03Z</time>
      </trkpt>
      <trkpt lat="48.68862" lon="1.90134">
        <ele>183</ele>
        <time>2018-08-19T09:37:07Z</time>
      </trkpt>
      <trkpt lat="48.68866" lon="1.90141">
        <ele>183</ele>
        <time>2018-08-19T09:37:13Z</time>
      </trkpt>
      <trkpt lat="48.6887" lon="1.90148">
        <ele>183</ele>
        <time>2018-08-19T09:37:17Z</time>
      </trkpt>
      <trkpt lat="48.68873" lon="1.90157">
        <ele>183</ele>
        <time>2018-08-19T09:37:21Z</time>
      </trkpt>
      <trkpt lat="48.68874" lon="1.90166">
        <ele>183</ele>
        <time>2018-08-19T09:37:25Z</time>
      </trkpt>
      <trkpt lat="48.68878" lon="1.90172">
        <ele>183</ele>
        <time>2018-08-19T09:37:29Z</time>
      </trkpt>
      <trkpt lat="48.68884" lon="1.90178">
        <ele>183</ele>
        <time>2018-08-19T09:37:33Z</time>
      </trkpt>
      <trkpt lat="48.68887" lon="1.90184">
        <ele>183</ele>
        <time>2018-08-19T09:37:37Z</time>
      </trkpt>
      <trkpt lat="48.68892" lon="1.90193">
        <ele>183</ele>
        <time>2018-08-19T09:37:42Z</time>
      </trkpt>
      <trkpt lat="48.68898" lon="1.902">
        <ele>183</ele>
        <time>2018-08-19T09:37:46Z</time>
      </trkpt>
      <trkpt lat="48.689" lon="1.90209">
        <ele>183</ele>
        <time>2018-08-19T09:37:50Z</time>
      </trkpt>
      <trkpt lat="48.689" lon="1.90218">
        <ele>182</ele>
        <time>2018-08-19T09:37:55Z</time>
      </trkpt>
      <trkpt lat="48.68899" lon="1.90219">
        <ele>180</ele>
        <time>2018-08-19T09:37:59Z</time>
      </trkpt>
      <trkpt lat="48.68901" lon="1.90224">
        <ele>179</ele>
        <time>2018-08-19T09:38:12Z</time>
      </trkpt>
      <trkpt lat="48.68906" lon="1.90227">
        <ele>179</ele>
        <time>2018-08-19T09:38:17Z</time>
      </trkpt>
      <trkpt lat="48.68911" lon="1.90231">
        <ele>179</ele>
        <time>2018-08-19T09:38:21Z</time>
      </trkpt>
      <trkpt lat="48.68916" lon="1.90235">
        <ele>177</ele>
        <time>2018-08-19T09:38:26Z</time>
      </trkpt>
      <trkpt lat="48.68921" lon="1.9024">
        <ele>176</ele>
        <time>2018-08-19T09:38:30Z</time>
      </trkpt>
      <trkpt lat="48.68929" lon="1.90244">
        <ele>175</ele>
        <time>2018-08-19T09:38:34Z</time>
      </trkpt>
      <trkpt lat="48.68936" lon="1.90248">
        <ele>175</ele>
        <time>2018-08-19T09:38:39Z</time>
      </trkpt>
      <trkpt lat="48.68942" lon="1.90251">
        <ele>175</ele>
        <time>2018-08-19T09:38:43Z</time>
      </trkpt>
      <trkpt lat="48.68948" lon="1.90254">
        <ele>175</ele>
        <time>2018-08-19T09:38:47Z</time>
      </trkpt>
      <trkpt lat="48.68955" lon="1.90259">
        <ele>175</ele>
        <time>2018-08-19T09:38:51Z</time>
      </trkpt>
      <trkpt lat="48.68961" lon="1.90265">
        <ele>175</ele>
        <time>2018-08-19T09:38:56Z</time>
      </trkpt>
      <trkpt lat="48.68968" lon="1.90269">
        <ele>175</ele>
        <time>2018-08-19T09:39:00Z</time>
      </trkpt>
      <trkpt lat="48.68973" lon="1.90273">
        <ele>175</ele>
        <time>2018-08-19T09:39:04Z</time>
      </trkpt>
      <trkpt lat="48.68978" lon="1.90273">
        <ele>175</ele>
        <time>2018-08-19T09:39:08Z</time>
      </trkpt>
      <trkpt lat="48.68985" lon="1.90277">
        <ele>175</ele>
        <time>2018-08-19T09:39:13Z</time>
      </trkpt>
      <trkpt lat="48.6899" lon="1.90283">
        <ele>175</ele>
        <time>2018-08-19T09:39:17Z</time>
      </trkpt>
      <trkpt lat="48.68997" lon="1.90287">
        <ele>175</ele>
        <time>2018-08-19T09:39:21Z</time>
      </trkpt>
      <trkpt lat="48.69004" lon="1.90292">
        <ele>175</ele>
        <time>2018-08-19T09:39:25Z</time>
      </trkpt>
      <trkpt lat="48.69009" lon="1.90297">
        <ele>175</ele>
        <time>2018-08-19T09:39:29Z</time>
      </trkpt>
      <trkpt lat="48.69016" lon="1.903">
        <ele>175</ele>
        <time>2018-08-19T09:39:33Z</time>
      </trkpt>
      <trkpt lat="48.69022" lon="1.90304">
        <ele>176</ele>
        <time>2018-08-19T09:39:37Z</time>
      </trkpt>
      <trkpt lat="48.69028" lon="1.90308">
        <ele>178</ele>
        <time>2018-08-19T09:39:41Z</time>
      </trkpt>
      <trkpt lat="48.69035" lon="1.90313">
        <ele>178</ele>
        <time>2018-08-19T09:39:45Z</time>
      </trkpt>
      <trkpt lat="48.69039" lon="1.90316">
        <ele>178</ele>
        <time>2018-08-19T09:39:49Z</time>
      </trkpt>
      <trkpt lat="48.69046" lon="1.9032">
        <ele>179</ele>
        <time>2018-08-19T09:39:53Z</time>
      </trkpt>
      <trkpt lat="48.69051" lon="1.90326">
        <ele>179</ele>
        <time>2018-08-19T09:39:57Z</time>
      </trkpt>
      <trkpt lat="48.69054" lon="1.90334">
        <ele>179</ele>
        <time>2018-08-19T09:40:01Z</time>
      </trkpt>
      <trkpt lat="48.69062" lon="1.90342">
        <ele>179</ele>
        <time>2018-08-19T09:40:05Z</time>
      </trkpt>
      <trkpt lat="48.69065" lon="1.9035">
        <ele>179</ele>
        <time>2018-08-19T09:40:09Z</time>
      </trkpt>
      <trkpt lat="48.69068" lon="1.90355">
        <ele>179</ele>
        <time>2018-08-19T09:40:13Z</time>
      </trkpt>
      <trkpt lat="48.69074" lon="1.9036">
        <ele>179</ele>
        <time>2018-08-19T09:40:17Z</time>
      </trkpt>
      <trkpt lat="48.69078" lon="1.90368">
        <ele>179</ele>
        <time>2018-08-19T09:40:21Z</time>
      </trkpt>
      <trkpt lat="48.69083" lon="1.90374">
        <ele>180</ele>
        <time>2018-08-19T09:40:25Z</time>
      </trkpt>
      <trkpt lat="48.69083" lon="1.90381">
        <ele>180</ele>
        <time>2018-08-19T09:40:29Z</time>
      </trkpt>
      <trkpt lat="48.69085" lon="1.90386">
        <ele>181</ele>
        <time>2018-08-19T09:40:33Z</time>
      </trkpt>
      <trkpt lat="48.69091" lon="1.90392">
        <ele>181</ele>
        <time>2018-08-19T09:40:37Z</time>
      </trkpt>
      <trkpt lat="48.69099" lon="1.90401">
        <ele>181</ele>
        <time>2018-08-19T09:40:41Z</time>
      </trkpt>
      <trkpt lat="48.69104" lon="1.90408">
        <ele>181</ele>
        <time>2018-08-19T09:40:45Z</time>
      </trkpt>
      <trkpt lat="48.69105" lon="1.90417">
        <ele>181</ele>
        <time>2018-08-19T09:40:50Z</time>
      </trkpt>
      <trkpt lat="48.69108" lon="1.90423">
        <ele>179</ele>
        <time>2018-08-19T09:40:54Z</time>
      </trkpt>
      <trkpt lat="48.69113" lon="1.9043">
        <ele>178</ele>
        <time>2018-08-19T09:40:59Z</time>
      </trkpt>
      <trkpt lat="48.69119" lon="1.90436">
        <ele>177</ele>
        <time>2018-08-19T09:41:03Z</time>
      </trkpt>
      <trkpt lat="48.69124" lon="1.9044">
        <ele>177</ele>
        <time>2018-08-19T09:41:07Z</time>
      </trkpt>
      <trkpt lat="48.69129" lon="1.90447">
        <ele>177</ele>
        <time>2018-08-19T09:41:12Z</time>
      </trkpt>
      <trkpt lat="48.69134" lon="1.90455">
        <ele>177</ele>
        <time>2018-08-19T09:41:16Z</time>
      </trkpt>
      <trkpt lat="48.69136" lon="1.90467">
        <ele>177</ele>
        <time>2018-08-19T09:41:20Z</time>
      </trkpt>
      <trkpt lat="48.69137" lon="1.90477">
        <ele>177</ele>
        <time>2018-08-19T09:41:24Z</time>
      </trkpt>
      <trkpt lat="48.69139" lon="1.90488">
        <ele>176</ele>
        <time>2018-08-19T09:41:28Z</time>
      </trkpt>
      <trkpt lat="48.6914" lon="1.90499">
        <ele>174</ele>
        <time>2018-08-19T09:41:32Z</time>
      </trkpt>
      <trkpt lat="48.6914" lon="1.9051">
        <ele>173</ele>
        <time>2018-08-19T09:41:36Z</time>
      </trkpt>
      <trkpt lat="48.69141" lon="1.9052">
        <ele>172</ele>
        <time>2018-08-19T09:41:40Z</time>
      </trkpt>
      <trkpt lat="48.6914" lon="1.90532">
        <ele>172</ele>
        <time>2018-08-19T09:41:44Z</time>
      </trkpt>
      <trkpt lat="48.6914" lon="1.90542">
        <ele>172</ele>
        <time>2018-08-19T09:41:48Z</time>
      </trkpt>
      <trkpt lat="48.6914" lon="1.90554">
        <ele>172</ele>
        <time>2018-08-19T09:41:52Z</time>
      </trkpt>
      <trkpt lat="48.6914" lon="1.90563">
        <ele>172</ele>
        <time>2018-08-19T09:41:56Z</time>
      </trkpt>
      <trkpt lat="48.69141" lon="1.9057">
        <ele>171</ele>
        <time>2018-08-19T09:42:00Z</time>
      </trkpt>
      <trkpt lat="48.69141" lon="1.90578">
        <ele>169</ele>
        <time>2018-08-19T09:42:04Z</time>
      </trkpt>
      <trkpt lat="48.69143" lon="1.90585">
        <ele>168</ele>
        <time>2018-08-19T09:42:08Z</time>
      </trkpt>
      <trkpt lat="48.69147" lon="1.90593">
        <ele>168</ele>
        <time>2018-08-19T09:42:12Z</time>
      </trkpt>
      <trkpt lat="48.6915" lon="1.90602">
        <ele>168</ele>
        <time>2018-08-19T09:42:16Z</time>
      </trkpt>
      <trkpt lat="48.69152" lon="1.90609">
        <ele>168</ele>
        <time>2018-08-19T09:42:20Z</time>
      </trkpt>
      <trkpt lat="48.69153" lon="1.90618">
        <ele>168</ele>
        <time>2018-08-19T09:42:24Z</time>
      </trkpt>
      <trkpt lat="48.69152" lon="1.90629">
        <ele>168</ele>
        <time>2018-08-19T09:42:28Z</time>
      </trkpt>
      <trkpt lat="48.69153" lon="1.90638">
        <ele>168</ele>
        <time>2018-08-19T09:42:32Z</time>
      </trkpt>
      <trkpt lat="48.69153" lon="1.90647">
        <ele>166</ele>
        <time>2018-08-19T09:42:36Z</time>
      </trkpt>
      <trkpt lat="48.69153" lon="1.90655">
        <ele>165</ele>
        <time>2018-08-19T09:42:40Z</time>
      </trkpt>
      <trkpt lat="48.69153" lon="1.90664">
        <ele>165</ele>
        <time>2018-08-19T09:42:44Z</time>
      </trkpt>
      <trkpt lat="48.69154" lon="1.90673">
        <ele>163</ele>
        <time>2018-08-19T09:42:48Z</time>
      </trkpt>
      <trkpt lat="48.69153" lon="1.90682">
        <ele>159</ele>
        <time>2018-08-19T09:42:52Z</time>
      </trkpt>
      <trkpt lat="48.69151" lon="1.9069">
        <ele>156</ele>
        <time>2018-08-19T09:42:56Z</time>
      </trkpt>
      <trkpt lat="48.69151" lon="1.90701">
        <ele>154</ele>
        <time>2018-08-19T09:43:00Z</time>
      </trkpt>
      <trkpt lat="48.69152" lon="1.90712">
        <ele>154</ele>
        <time>2018-08-19T09:43:04Z</time>
      </trkpt>
      <trkpt lat="48.69152" lon="1.90722">
        <ele>154</ele>
        <time>2018-08-19T09:43:08Z</time>
      </trkpt>
      <trkpt lat="48.69154" lon="1.90732">
        <ele>154</ele>
        <time>2018-08-19T09:43:12Z</time>
      </trkpt>
      <trkpt lat="48.69155" lon="1.90742">
        <ele>154</ele>
        <time>2018-08-19T09:43:16Z</time>
      </trkpt>
      <trkpt lat="48.69156" lon="1.90752">
        <ele>153</ele>
        <time>2018-08-19T09:43:20Z</time>
      </trkpt>
      <trkpt lat="48.69158" lon="1.90762">
        <ele>151</ele>
        <time>2018-08-19T09:43:24Z</time>
      </trkpt>
      <trkpt lat="48.6916" lon="1.90771">
        <ele>150</ele>
        <time>2018-08-19T09:43:28Z</time>
      </trkpt>
      <trkpt lat="48.69161" lon="1.9078">
        <ele>149</ele>
        <time>2018-08-19T09:43:32Z</time>
      </trkpt>
      <trkpt lat="48.69161" lon="1.90789">
        <ele>149</ele>
        <time>2018-08-19T09:43:36Z</time>
      </trkpt>
      <trkpt lat="48.69161" lon="1.90797">
        <ele>149</ele>
        <time>2018-08-19T09:43:40Z</time>
      </trkpt>
      <trkpt lat="48.69159" lon="1.90804">
        <ele>149</ele>
        <time>2018-08-19T09:43:44Z</time>
      </trkpt>
      <trkpt lat="48.69159" lon="1.90813">
        <ele>149</ele>
        <time>2018-08-19T09:43:48Z</time>
      </trkpt>
      <trkpt lat="48.69161" lon="1.90821">
        <ele>149</ele>
        <time>2018-08-19T09:43:52Z</time>
      </trkpt>
      <trkpt lat="48.69161" lon="1.9083">
        <ele>149</ele>
        <time>2018-08-19T09:43:56Z</time>
      </trkpt>
      <trkpt lat="48.69161" lon="1.90839">
        <ele>149</ele>
        <time>2018-08-19T09:44:00Z</time>
      </trkpt>
      <trkpt lat="48.69161" lon="1.90848">
        <ele>148</ele>
        <time>2018-08-19T09:44:04Z</time>
      </trkpt>
      <trkpt lat="48.69161" lon="1.90858">
        <ele>148</ele>
        <time>2018-08-19T09:44:08Z</time>
      </trkpt>
      <trkpt lat="48.69163" lon="1.90868">
        <ele>147</ele>
        <time>2018-08-19T09:44:12Z</time>
      </trkpt>
      <trkpt lat="48.69166" lon="1.90877">
        <ele>147</ele>
        <time>2018-08-19T09:44:16Z</time>
      </trkpt>
      <trkpt lat="48.6917" lon="1.90886">
        <ele>145</ele>
        <time>2018-08-19T09:44:20Z</time>
      </trkpt>
      <trkpt lat="48.69172" lon="1.90896">
        <ele>144</ele>
        <time>2018-08-19T09:44:24Z</time>
      </trkpt>
      <trkpt lat="48.69173" lon="1.90905">
        <ele>144</ele>
        <time>2018-08-19T09:44:28Z</time>
      </trkpt>
      <trkpt lat="48.69174" lon="1.90915">
        <ele>144</ele>
        <time>2018-08-19T09:44:32Z</time>
      </trkpt>
      <trkpt lat="48.69174" lon="1.90924">
        <ele>143</ele>
        <time>2018-08-19T09:44:36Z</time>
      </trkpt>
      <trkpt lat="48.69173" lon="1.90935">
        <ele>142</ele>
        <time>2018-08-19T09:44:40Z</time>
      </trkpt>
      <trkpt lat="48.69173" lon="1.90945">
        <ele>142</ele>
        <time>2018-08-19T09:44:44Z</time>
      </trkpt>
      <trkpt lat="48.69173" lon="1.90954">
        <ele>142</ele>
        <time>2018-08-19T09:44:48Z</time>
      </trkpt>
      <trkpt lat="48.69172" lon="1.90966">
        <ele>143</ele>
        <time>2018-08-19T09:44:52Z</time>
      </trkpt>
      <trkpt lat="48.69169" lon="1.90979">
        <ele>147</ele>
        <time>2018-08-19T09:44:56Z</time>
      </trkpt>
      <trkpt lat="48.69172" lon="1.90986">
        <ele>150</ele>
        <time>2018-08-19T09:45:00Z</time>
      </trkpt>
      <trkpt lat="48.69175" lon="1.90991">
        <ele>151</ele>
        <time>2018-08-19T09:45:04Z</time>
      </trkpt>
      <trkpt lat="48.69176" lon="1.90997">
        <ele>151</ele>
        <time>2018-08-19T09:45:10Z</time>
      </trkpt>
      <trkpt lat="48.69177" lon="1.90999">
        <ele>151</ele>
        <time>2018-08-19T09:45:16Z</time>
      </trkpt>
      <trkpt lat="48.69178" lon="1.91007">
        <ele>151</ele>
        <time>2018-08-19T09:45:20Z</time>
      </trkpt>
      <trkpt lat="48.69179" lon="1.91016">
        <ele>150</ele>
        <time>2018-08-19T09:45:24Z</time>
      </trkpt>
      <trkpt lat="48.69183" lon="1.91024">
        <ele>149</ele>
        <time>2018-08-19T09:45:28Z</time>
      </trkpt>
      <trkpt lat="48.69182" lon="1.91031">
        <ele>148</ele>
        <time>2018-08-19T09:45:32Z</time>
      </trkpt>
      <trkpt lat="48.69183" lon="1.91039">
        <ele>147</ele>
        <time>2018-08-19T09:45:36Z</time>
      </trkpt>
      <trkpt lat="48.69186" lon="1.91048">
        <ele>147</ele>
        <time>2018-08-19T09:45:40Z</time>
      </trkpt>
      <trkpt lat="48.69189" lon="1.91056">
        <ele>147</ele>
        <time>2018-08-19T09:45:44Z</time>
      </trkpt>
      <trkpt lat="48.69193" lon="1.91064">
        <ele>147</ele>
        <time>2018-08-19T09:45:48Z</time>
      </trkpt>
      <trkpt lat="48.69196" lon="1.91073">
        <ele>147</ele>
        <time>2018-08-19T09:45:52Z</time>
      </trkpt>
      <trkpt lat="48.692" lon="1.91081">
        <ele>147</ele>
        <time>2018-08-19T09:45:56Z</time>
      </trkpt>
      <trkpt lat="48.69204" lon="1.91088">
        <ele>146</ele>
        <time>2018-08-19T09:46:00Z</time>
      </trkpt>
      <trkpt lat="48.69206" lon="1.91097">
        <ele>145</ele>
        <time>2018-08-19T09:46:04Z</time>
      </trkpt>
      <trkpt lat="48.6921" lon="1.91104">
        <ele>144</ele>
        <time>2018-08-19T09:46:08Z</time>
      </trkpt>
      <trkpt lat="48.69211" lon="1.91113">
        <ele>143</ele>
        <time>2018-08-19T09:46:12Z</time>
      </trkpt>
      <trkpt lat="48.69214" lon="1.91121">
        <ele>143</ele>
        <time>2018-08-19T09:46:16Z</time>
      </trkpt>
      <trkpt lat="48.69218" lon="1.91128">
        <ele>143</ele>
        <time>2018-08-19T09:46:20Z</time>
      </trkpt>
      <trkpt lat="48.69222" lon="1.91135">
        <ele>143</ele>
        <time>2018-08-19T09:46:24Z</time>
      </trkpt>
      <trkpt lat="48.69225" lon="1.91144">
        <ele>143</ele>
        <time>2018-08-19T09:46:28Z</time>
      </trkpt>
      <trkpt lat="48.69228" lon="1.91154">
        <ele>143</ele>
        <time>2018-08-19T09:46:32Z</time>
      </trkpt>
      <trkpt lat="48.69235" lon="1.91163">
        <ele>142</ele>
        <time>2018-08-19T09:46:36Z</time>
      </trkpt>
      <trkpt lat="48.69237" lon="1.91171">
        <ele>141</ele>
        <time>2018-08-19T09:46:41Z</time>
      </trkpt>
      <trkpt lat="48.69239" lon="1.91178">
        <ele>141</ele>
        <time>2018-08-19T09:46:45Z</time>
      </trkpt>
      <trkpt lat="48.69244" lon="1.91187">
        <ele>141</ele>
        <time>2018-08-19T09:46:49Z</time>
      </trkpt>
      <trkpt lat="48.6925" lon="1.91193">
        <ele>141</ele>
        <time>2018-08-19T09:46:53Z</time>
      </trkpt>
      <trkpt lat="48.69254" lon="1.912">
        <ele>141</ele>
        <time>2018-08-19T09:46:57Z</time>
      </trkpt>
      <trkpt lat="48.69262" lon="1.91209">
        <ele>143</ele>
        <time>2018-08-19T09:47:01Z</time>
      </trkpt>
      <trkpt lat="48.69266" lon="1.91218">
        <ele>144</ele>
        <time>2018-08-19T09:47:05Z</time>
      </trkpt>
      <trkpt lat="48.69269" lon="1.91226">
        <ele>144</ele>
        <time>2018-08-19T09:47:09Z</time>
      </trkpt>
      <trkpt lat="48.69272" lon="1.91235">
        <ele>145</ele>
        <time>2018-08-19T09:47:13Z</time>
      </trkpt>
      <trkpt lat="48.69274" lon="1.91244">
        <ele>149</ele>
        <time>2018-08-19T09:47:17Z</time>
      </trkpt>
      <trkpt lat="48.69277" lon="1.91253">
        <ele>153</ele>
        <time>2018-08-19T09:47:21Z</time>
      </trkpt>
      <trkpt lat="48.69277" lon="1.91266">
        <ele>155</ele>
        <time>2018-08-19T09:47:25Z</time>
      </trkpt>
      <trkpt lat="48.69278" lon="1.91278">
        <ele>155</ele>
        <time>2018-08-19T09:47:29Z</time>
      </trkpt>
      <trkpt lat="48.6928" lon="1.91289">
        <ele>153</ele>
        <time>2018-08-19T09:47:33Z</time>
      </trkpt>
      <trkpt lat="48.69286" lon="1.91294">
        <ele>149</ele>
        <time>2018-08-19T09:47:37Z</time>
      </trkpt>
      <trkpt lat="48.69289" lon="1.91301">
        <ele>145</ele>
        <time>2018-08-19T09:47:41Z</time>
      </trkpt>
      <trkpt lat="48.69294" lon="1.91308">
        <ele>141</ele>
        <time>2018-08-19T09:47:45Z</time>
      </trkpt>
      <trkpt lat="48.69299" lon="1.91318">
        <ele>141</ele>
        <time>2018-08-19T09:47:49Z</time>
      </trkpt>
      <trkpt lat="48.69304" lon="1.91328">
        <ele>141</ele>
        <time>2018-08-19T09:47:53Z</time>
      </trkpt>
      <trkpt lat="48.69308" lon="1.91334">
        <ele>141</ele>
        <time>2018-08-19T09:47:57Z</time>
      </trkpt>
      <trkpt lat="48.69309" lon="1.91344">
        <ele>141</ele>
        <time>2018-08-19T09:48:01Z</time>
      </trkpt>
      <trkpt lat="48.69313" lon="1.91353">
        <ele>141</ele>
        <time>2018-08-19T09:48:05Z</time>
      </trkpt>
      <trkpt lat="48.69318" lon="1.91363">
        <ele>141</ele>
        <time>2018-08-19T09:48:09Z</time>
      </trkpt>
      <trkpt lat="48.69322" lon="1.91373">
        <ele>141</ele>
        <time>2018-08-19T09:48:13Z</time>
      </trkpt>
      <trkpt lat="48.69326" lon="1.91381">
        <ele>140</ele>
        <time>2018-08-19T09:48:17Z</time>
      </trkpt>
      <trkpt lat="48.69329" lon="1.91391">
        <ele>140</ele>
        <time>2018-08-19T09:48:21Z</time>
      </trkpt>
      <trkpt lat="48.69331" lon="1.91402">
        <ele>140</ele>
        <time>2018-08-19T09:48:25Z</time>
      </trkpt>
      <trkpt lat="48.69336" lon="1.9141">
        <ele>140</ele>
        <time>2018-08-19T09:48:29Z</time>
      </trkpt>
      <trkpt lat="48.69338" lon="1.91419">
        <ele>139</ele>
        <time>2018-08-19T09:48:33Z</time>
      </trkpt>
      <trkpt lat="48.69341" lon="1.91428">
        <ele>137</ele>
        <time>2018-08-19T09:48:37Z</time>
      </trkpt>
      <trkpt lat="48.69346" lon="1.91437">
        <ele>137</ele>
        <time>2018-08-19T09:48:41Z</time>
      </trkpt>
      <trkpt lat="48.69349" lon="1.91445">
        <ele>137</ele>
        <time>2018-08-19T09:48:45Z</time>
      </trkpt>
      <trkpt lat="48.69352" lon="1.91455">
        <ele>137</ele>
        <time>2018-08-19T09:48:49Z</time>
      </trkpt>
      <trkpt lat="48.69353" lon="1.91466">
        <ele>137</ele>
        <time>2018-08-19T09:48:53Z</time>
      </trkpt>
      <trkpt lat="48.69347" lon="1.91475">
        <ele>137</ele>
        <time>2018-08-19T09:48:57Z</time>
      </trkpt>
      <trkpt lat="48.69338" lon="1.9148">
        <ele>136</ele>
        <time>2018-08-19T09:49:02Z</time>
      </trkpt>
      <trkpt lat="48.69334" lon="1.91479">
        <ele>136</ele>
        <time>2018-08-19T09:49:08Z</time>
      </trkpt>
      <trkpt lat="48.6933" lon="1.91477">
        <ele>135</ele>
        <time>2018-08-19T09:49:13Z</time>
      </trkpt>
      <trkpt lat="48.69331" lon="1.91477">
        <ele>130</ele>
        <time>2018-08-19T09:49:20Z</time>
      </trkpt>
      <trkpt lat="48.6933" lon="1.91476">
        <ele>126</ele>
        <time>2018-08-19T09:49:25Z</time>
      </trkpt>
      <trkpt lat="48.69328" lon="1.91477">
        <ele>126</ele>
        <time>2018-08-19T09:49:29Z</time>
      </trkpt>
      <trkpt lat="48.69328" lon="1.9148">
        <ele>126</ele>
        <time>2018-08-19T09:49:33Z</time>
      </trkpt>
      <trkpt lat="48.69326" lon="1.91483">
        <ele>126</ele>
        <time>2018-08-19T09:49:37Z</time>
      </trkpt>
      <trkpt lat="48.69325" lon="1.91484">
        <ele>126</ele>
        <time>2018-08-19T09:49:41Z</time>
      </trkpt>
      <trkpt lat="48.69324" lon="1.91486">
        <ele>126</ele>
        <time>2018-08-19T09:49:45Z</time>
      </trkpt>
      <trkpt lat="48.69323" lon="1.91489">
        <ele>126</ele>
        <time>2018-08-19T09:49:56Z</time>
      </trkpt>
      <trkpt lat="48.69322" lon="1.9149">
        <ele>127</ele>
        <time>2018-08-19T09:50:02Z</time>
      </trkpt>
      <trkpt lat="48.69322" lon="1.91489">
        <ele>127</ele>
        <time>2018-08-19T09:50:11Z</time>
      </trkpt>
      <trkpt lat="48.69322" lon="1.91485">
        <ele>127</ele>
        <time>2018-08-19T09:50:18Z</time>
      </trkpt>
      <trkpt lat="48.69321" lon="1.91487">
        <ele>127</ele>
        <time>2018-08-19T09:50:23Z</time>
      </trkpt>
      <trkpt lat="48.69321" lon="1.91491">
        <ele>127</ele>
        <time>2018-08-19T09:50:30Z</time>
      </trkpt>
      <trkpt lat="48.69322" lon="1.91495">
        <ele>127</ele>
        <time>2018-08-19T09:50:37Z</time>
      </trkpt>
      <trkpt lat="48.69323" lon="1.91497">
        <ele>127</ele>
        <time>2018-08-19T09:50:45Z</time>
      </trkpt>
      <trkpt lat="48.69325" lon="1.91492">
        <ele>127</ele>
        <time>2018-08-19T09:50:49Z</time>
      </trkpt>
      <trkpt lat="48.69327" lon="1.91485">
        <ele>127</ele>
        <time>2018-08-19T09:50:53Z</time>
      </trkpt>
      <trkpt lat="48.69332" lon="1.91484">
        <ele>127</ele>
        <time>2018-08-19T09:50:58Z</time>
      </trkpt>
      <trkpt lat="48.69335" lon="1.91484">
        <ele>127</ele>
        <time>2018-08-19T09:51:02Z</time>
      </trkpt>
      <trkpt lat="48.69339" lon="1.91484">
        <ele>127</ele>
        <time>2018-08-19T09:51:06Z</time>
      </trkpt>
      <trkpt lat="48.6934" lon="1.91479">
        <ele>127</ele>
        <time>2018-08-19T09:51:12Z</time>
      </trkpt>
      <trkpt lat="48.69341" lon="1.9148">
        <ele>127</ele>
        <time>2018-08-19T09:51:25Z</time>
      </trkpt>
      <trkpt lat="48.6934" lon="1.91479">
        <ele>127</ele>
        <time>2018-08-19T09:51:30Z</time>
      </trkpt>
      <trkpt lat="48.69339" lon="1.91483">
        <ele>131</ele>
        <time>2018-08-19T09:51:34Z</time>
      </trkpt>
      <trkpt lat="48.69339" lon="1.91487">
        <ele>138</ele>
        <time>2018-08-19T09:51:39Z</time>
      </trkpt>
      <trkpt lat="48.69336" lon="1.91485">
        <ele>143</ele>
        <time>2018-08-19T09:51:43Z</time>
      </trkpt>
      <trkpt lat="48.6933" lon="1.91476">
        <ele>146</ele>
        <time>2018-08-19T09:51:48Z</time>
      </trkpt>
      <trkpt lat="48.69325" lon="1.91467">
        <ele>146</ele>
        <time>2018-08-19T09:51:53Z</time>
      </trkpt>
      <trkpt lat="48.69326" lon="1.91465">
        <ele>145</ele>
        <time>2018-08-19T09:51:57Z</time>
      </trkpt>
      <trkpt lat="48.69331" lon="1.91468">
        <ele>143</ele>
        <time>2018-08-19T09:52:01Z</time>
      </trkpt>
      <trkpt lat="48.69338" lon="1.91466">
        <ele>141</ele>
        <time>2018-08-19T09:52:05Z</time>
      </trkpt>
      <trkpt lat="48.69346" lon="1.9147">
        <ele>141</ele>
        <time>2018-08-19T09:52:09Z</time>
      </trkpt>
      <trkpt lat="48.69347" lon="1.91475">
        <ele>140</ele>
        <time>2018-08-19T09:52:14Z</time>
      </trkpt>
      <trkpt lat="48.69349" lon="1.91477">
        <ele>140</ele>
        <time>2018-08-19T09:52:18Z</time>
      </trkpt>
      <trkpt lat="48.6935" lon="1.9148">
        <ele>139</ele>
        <time>2018-08-19T09:52:24Z</time>
      </trkpt>
      <trkpt lat="48.6935" lon="1.91485">
        <ele>139</ele>
        <time>2018-08-19T09:52:29Z</time>
      </trkpt>
      <trkpt lat="48.69355" lon="1.91487">
        <ele>141</ele>
        <time>2018-08-19T09:52:34Z</time>
      </trkpt>
      <trkpt lat="48.69364" lon="1.91495">
        <ele>139</ele>
        <time>2018-08-19T09:52:39Z</time>
      </trkpt>
      <trkpt lat="48.69368" lon="1.91503">
        <ele>135</ele>
        <time>2018-08-19T09:52:43Z</time>
      </trkpt>
      <trkpt lat="48.69374" lon="1.91511">
        <ele>132</ele>
        <time>2018-08-19T09:52:48Z</time>
      </trkpt>
      <trkpt lat="48.69379" lon="1.91517">
        <ele>129</ele>
        <time>2018-08-19T09:52:52Z</time>
      </trkpt>
      <trkpt lat="48.69383" lon="1.91524">
        <ele>129</ele>
        <time>2018-08-19T09:52:56Z</time>
      </trkpt>
      <trkpt lat="48.69388" lon="1.91531">
        <ele>127</ele>
        <time>2018-08-19T09:53:00Z</time>
      </trkpt>
      <trkpt lat="48.69395" lon="1.9154">
        <ele>126</ele>
        <time>2018-08-19T09:53:05Z</time>
      </trkpt>
      <trkpt lat="48.694" lon="1.91547">
        <ele>126</ele>
        <time>2018-08-19T09:53:09Z</time>
      </trkpt>
      <trkpt lat="48.69406" lon="1.91558">
        <ele>126</ele>
        <time>2018-08-19T09:53:15Z</time>
      </trkpt>
      <trkpt lat="48.69412" lon="1.91563">
        <ele>126</ele>
        <time>2018-08-19T09:53:19Z</time>
      </trkpt>
      <trkpt lat="48.69415" lon="1.91571">
        <ele>129</ele>
        <time>2018-08-19T09:53:23Z</time>
      </trkpt>
      <trkpt lat="48.69421" lon="1.9158">
        <ele>129</ele>
        <time>2018-08-19T09:53:27Z</time>
      </trkpt>
      <trkpt lat="48.69426" lon="1.91586">
        <ele>129</ele>
        <time>2018-08-19T09:53:31Z</time>
      </trkpt>
      <trkpt lat="48.6943" lon="1.91593">
        <ele>129</ele>
        <time>2018-08-19T09:53:35Z</time>
      </trkpt>
      <trkpt lat="48.69434" lon="1.91601">
        <ele>128</ele>
        <time>2018-08-19T09:53:39Z</time>
      </trkpt>
      <trkpt lat="48.69437" lon="1.91608">
        <ele>126</ele>
        <time>2018-08-19T09:53:43Z</time>
      </trkpt>
      <trkpt lat="48.69441" lon="1.91616">
        <ele>124</ele>
        <time>2018-08-19T09:53:47Z</time>
      </trkpt>
      <trkpt lat="48.69442" lon="1.91623">
        <ele>124</ele>
        <time>2018-08-19T09:53:52Z</time>
      </trkpt>
      <trkpt lat="48.69443" lon="1.91623">
        <ele>125</ele>
        <time>2018-08-19T09:53:59Z</time>
      </trkpt>
      <trkpt lat="48.69446" lon="1.91623">
        <ele>136</ele>
        <time>2018-08-19T09:54:07Z</time>
      </trkpt>
      <trkpt lat="48.69449" lon="1.91627">
        <ele>145</ele>
        <time>2018-08-19T09:54:15Z</time>
      </trkpt>
      <trkpt lat="48.6945" lon="1.91641">
        <ele>149</ele>
        <time>2018-08-19T09:54:20Z</time>
      </trkpt>
      <trkpt lat="48.69454" lon="1.91651">
        <ele>147</ele>
        <time>2018-08-19T09:54:25Z</time>
      </trkpt>
      <trkpt lat="48.6946" lon="1.91661">
        <ele>142</ele>
        <time>2018-08-19T09:54:30Z</time>
      </trkpt>
      <trkpt lat="48.69462" lon="1.91669">
        <ele>142</ele>
        <time>2018-08-19T09:54:34Z</time>
      </trkpt>
      <trkpt lat="48.69463" lon="1.91678">
        <ele>141</ele>
        <time>2018-08-19T09:54:38Z</time>
      </trkpt>
      <trkpt lat="48.69464" lon="1.91686">
        <ele>141</ele>
        <time>2018-08-19T09:54:42Z</time>
      </trkpt>
      <trkpt lat="48.69465" lon="1.91695">
        <ele>141</ele>
        <time>2018-08-19T09:54:47Z</time>
      </trkpt>
      <trkpt lat="48.69469" lon="1.91705">
        <ele>141</ele>
        <time>2018-08-19T09:54:52Z</time>
      </trkpt>
      <trkpt lat="48.69471" lon="1.91714">
        <ele>141</ele>
        <time>2018-08-19T09:54:57Z</time>
      </trkpt>
      <trkpt lat="48.69474" lon="1.91721">
        <ele>141</ele>
        <time>2018-08-19T09:55:01Z</time>
      </trkpt>
      <trkpt lat="48.69476" lon="1.9173">
        <ele>141</ele>
        <time>2018-08-19T09:55:05Z</time>
      </trkpt>
      <trkpt lat="48.69478" lon="1.9174">
        <ele>141</ele>
        <time>2018-08-19T09:55:10Z</time>
      </trkpt>
      <trkpt lat="48.69482" lon="1.91747">
        <ele>141</ele>
        <time>2018-08-19T09:55:14Z</time>
      </trkpt>
      <trkpt lat="48.69484" lon="1.91755">
        <ele>144</ele>
        <time>2018-08-19T09:55:18Z</time>
      </trkpt>
      <trkpt lat="48.69487" lon="1.91762">
        <ele>145</ele>
        <time>2018-08-19T09:55:22Z</time>
      </trkpt>
      <trkpt lat="48.69489" lon="1.91771">
        <ele>145</ele>
        <time>2018-08-19T09:55:26Z</time>
      </trkpt>
      <trkpt lat="48.6949" lon="1.91781">
        <ele>146</ele>
        <time>2018-08-19T09:55:30Z</time>
      </trkpt>
      <trkpt lat="48.69492" lon="1.91789">
        <ele>148</ele>
        <time>2018-08-19T09:55:34Z</time>
      </trkpt>
      <trkpt lat="48.69495" lon="1.91795">
        <ele>149</ele>
        <time>2018-08-19T09:55:38Z</time>
      </trkpt>
      <trkpt lat="48.69498" lon="1.91802">
        <ele>149</ele>
        <time>2018-08-19T09:55:42Z</time>
      </trkpt>
      <trkpt lat="48.69502" lon="1.91808">
        <ele>149</ele>
        <time>2018-08-19T09:55:46Z</time>
      </trkpt>
      <trkpt lat="48.69505" lon="1.91815">
        <ele>150</ele>
        <time>2018-08-19T09:55:50Z</time>
      </trkpt>
      <trkpt lat="48.69508" lon="1.91821">
        <ele>154</ele>
        <time>2018-08-19T09:55:54Z</time>
      </trkpt>
      <trkpt lat="48.69512" lon="1.9183">
        <ele>156</ele>
        <time>2018-08-19T09:55:59Z</time>
      </trkpt>
      <trkpt lat="48.69518" lon="1.91839">
        <ele>156</ele>
        <time>2018-08-19T09:56:04Z</time>
      </trkpt>
      <trkpt lat="48.69521" lon="1.91844">
        <ele>156</ele>
        <time>2018-08-19T09:56:08Z</time>
      </trkpt>
      <trkpt lat="48.69525" lon="1.91851">
        <ele>156</ele>
        <time>2018-08-19T09:56:12Z</time>
      </trkpt>
      <trkpt lat="48.69528" lon="1.91857">
        <ele>156</ele>
        <time>2018-08-19T09:56:16Z</time>
      </trkpt>
      <trkpt lat="48.69532" lon="1.91864">
        <ele>156</ele>
        <time>2018-08-19T09:56:20Z</time>
      </trkpt>
      <trkpt lat="48.69535" lon="1.9187">
        <ele>155</ele>
        <time>2018-08-19T09:56:24Z</time>
      </trkpt>
      <trkpt lat="48.6954" lon="1.9188">
        <ele>154</ele>
        <time>2018-08-19T09:56:30Z</time>
      </trkpt>
      <trkpt lat="48.69543" lon="1.91886">
        <ele>154</ele>
        <time>2018-08-19T09:56:34Z</time>
      </trkpt>
      <trkpt lat="48.69547" lon="1.91891">
        <ele>154</ele>
        <time>2018-08-19T09:56:39Z</time>
      </trkpt>
      <trkpt lat="48.69549" lon="1.919">
        <ele>154</ele>
        <time>2018-08-19T09:56:43Z</time>
      </trkpt>
      <trkpt lat="48.69552" lon="1.91907">
        <ele>155</ele>
        <time>2018-08-19T09:56:47Z</time>
      </trkpt>
      <trkpt lat="48.69557" lon="1.91913">
        <ele>157</ele>
        <time>2018-08-19T09:56:51Z</time>
      </trkpt>
      <trkpt lat="48.69562" lon="1.91919">
        <ele>157</ele>
        <time>2018-08-19T09:56:56Z</time>
      </trkpt>
      <trkpt lat="48.69566" lon="1.91928">
        <ele>157</ele>
        <time>2018-08-19T09:57:01Z</time>
      </trkpt>
      <trkpt lat="48.69569" lon="1.91934">
        <ele>157</ele>
        <time>2018-08-19T09:57:05Z</time>
      </trkpt>
      <trkpt lat="48.69572" lon="1.91941">
        <ele>157</ele>
        <time>2018-08-19T09:57:09Z</time>
      </trkpt>
      <trkpt lat="48.69577" lon="1.91947">
        <ele>158</ele>
        <time>2018-08-19T09:57:13Z</time>
      </trkpt>
      <trkpt lat="48.69582" lon="1.91955">
        <ele>158</ele>
        <time>2018-08-19T09:57:18Z</time>
      </trkpt>
      <trkpt lat="48.69587" lon="1.91962">
        <ele>158</ele>
        <time>2018-08-19T09:57:23Z</time>
      </trkpt>
      <trkpt lat="48.6959" lon="1.91969">
        <ele>158</ele>
        <time>2018-08-19T09:57:27Z</time>
      </trkpt>
      <trkpt lat="48.69595" lon="1.91977">
        <ele>160</ele>
        <time>2018-08-19T09:57:32Z</time>
      </trkpt>
      <trkpt lat="48.696" lon="1.91982">
        <ele>163</ele>
        <time>2018-08-19T09:57:36Z</time>
      </trkpt>
      <trkpt lat="48.69603" lon="1.91988">
        <ele>163</ele>
        <time>2018-08-19T09:57:40Z</time>
      </trkpt>
      <trkpt lat="48.69609" lon="1.91991">
        <ele>163</ele>
        <time>2018-08-19T09:57:45Z</time>
      </trkpt>
      <trkpt lat="48.69614" lon="1.91995">
        <ele>165</ele>
        <time>2018-08-19T09:57:49Z</time>
      </trkpt>
      <trkpt lat="48.69619" lon="1.91999">
        <ele>165</ele>
        <time>2018-08-19T09:57:53Z</time>
      </trkpt>
      <trkpt lat="48.69624" lon="1.92004">
        <ele>165</ele>
        <time>2018-08-19T09:57:58Z</time>
      </trkpt>
      <trkpt lat="48.6963" lon="1.92008">
        <ele>165</ele>
        <time>2018-08-19T09:58:03Z</time>
      </trkpt>
      <trkpt lat="48.69637" lon="1.92013">
        <ele>165</ele>
        <time>2018-08-19T09:58:09Z</time>
      </trkpt>
      <trkpt lat="48.69641" lon="1.92016">
        <ele>165</ele>
        <time>2018-08-19T09:58:13Z</time>
      </trkpt>
      <trkpt lat="48.69647" lon="1.9202">
        <ele>165</ele>
        <time>2018-08-19T09:58:17Z</time>
      </trkpt>
      <trkpt lat="48.69653" lon="1.92024">
        <ele>165</ele>
        <time>2018-08-19T09:58:21Z</time>
      </trkpt>
      <trkpt lat="48.69659" lon="1.92028">
        <ele>165</ele>
        <time>2018-08-19T09:58:25Z</time>
      </trkpt>
      <trkpt lat="48.69664" lon="1.92033">
        <ele>165</ele>
        <time>2018-08-19T09:58:29Z</time>
      </trkpt>
      <trkpt lat="48.69669" lon="1.92037">
        <ele>165</ele>
        <time>2018-08-19T09:58:33Z</time>
      </trkpt>
      <trkpt lat="48.69676" lon="1.92041">
        <ele>165</ele>
        <time>2018-08-19T09:58:37Z</time>
      </trkpt>
      <trkpt lat="48.6968" lon="1.92045">
        <ele>164</ele>
        <time>2018-08-19T09:58:41Z</time>
      </trkpt>
      <trkpt lat="48.69685" lon="1.92047">
        <ele>164</ele>
        <time>2018-08-19T09:58:46Z</time>
      </trkpt>
      <trkpt lat="48.6969" lon="1.92051">
        <ele>163</ele>
        <time>2018-08-19T09:58:50Z</time>
      </trkpt>
      <trkpt lat="48.69696" lon="1.92055">
        <ele>161</ele>
        <time>2018-08-19T09:58:54Z</time>
      </trkpt>
      <trkpt lat="48.69702" lon="1.92059">
        <ele>161</ele>
        <time>2018-08-19T09:58:58Z</time>
      </trkpt>
      <trkpt lat="48.69707" lon="1.92063">
        <ele>160</ele>
        <time>2018-08-19T09:59:02Z</time>
      </trkpt>
      <trkpt lat="48.69713" lon="1.92068">
        <ele>159</ele>
        <time>2018-08-19T09:59:07Z</time>
      </trkpt>
      <trkpt lat="48.69717" lon="1.92072">
        <ele>159</ele>
        <time>2018-08-19T09:59:11Z</time>
      </trkpt>
      <trkpt lat="48.69723" lon="1.92075">
        <ele>158</ele>
        <time>2018-08-19T09:59:15Z</time>
      </trkpt>
      <trkpt lat="48.69727" lon="1.92078">
        <ele>158</ele>
        <time>2018-08-19T09:59:20Z</time>
      </trkpt>
      <trkpt lat="48.69733" lon="1.9208">
        <ele>157</ele>
        <time>2018-08-19T09:59:24Z</time>
      </trkpt>
      <trkpt lat="48.6974" lon="1.92086">
        <ele>157</ele>
        <time>2018-08-19T09:59:28Z</time>
      </trkpt>
      <trkpt lat="48.69746" lon="1.9209">
        <ele>157</ele>
        <time>2018-08-19T09:59:32Z</time>
      </trkpt>
      <trkpt lat="48.69752" lon="1.92095">
        <ele>157</ele>
        <time>2018-08-19T09:59:37Z</time>
      </trkpt>
      <trkpt lat="48.69757" lon="1.92099">
        <ele>157</ele>
        <time>2018-08-19T09:59:41Z</time>
      </trkpt>
      <trkpt lat="48.69763" lon="1.92101">
        <ele>157</ele>
        <time>2018-08-19T09:59:46Z</time>
      </trkpt>
      <trkpt lat="48.69769" lon="1.92104">
        <ele>157</ele>
        <time>2018-08-19T09:59:50Z</time>
      </trkpt>
      <trkpt lat="48.69776" lon="1.92109">
        <ele>157</ele>
        <time>2018-08-19T09:59:55Z</time>
      </trkpt>
      <trkpt lat="48.69782" lon="1.92113">
        <ele>157</ele>
        <time>2018-08-19T09:59:59Z</time>
      </trkpt>
      <trkpt lat="48.69787" lon="1.92117">
        <ele>160</ele>
        <time>2018-08-19T10:00:03Z</time>
      </trkpt>
      <trkpt lat="48.69792" lon="1.9212">
        <ele>160</ele>
        <time>2018-08-19T10:00:07Z</time>
      </trkpt>
      <trkpt lat="48.69797" lon="1.92127">
        <ele>160</ele>
        <time>2018-08-19T10:00:11Z</time>
      </trkpt>
      <trkpt lat="48.69799" lon="1.92136">
        <ele>160</ele>
        <time>2018-08-19T10:00:16Z</time>
      </trkpt>
      <trkpt lat="48.69796" lon="1.92143">
        <ele>163</ele>
        <time>2018-08-19T10:00:20Z</time>
      </trkpt>
      <trkpt lat="48.69793" lon="1.92151">
        <ele>166</ele>
        <time>2018-08-19T10:00:24Z</time>
      </trkpt>
      <trkpt lat="48.69789" lon="1.92159">
        <ele>170</ele>
        <time>2018-08-19T10:00:28Z</time>
      </trkpt>
      <trkpt lat="48.69786" lon="1.92167">
        <ele>173</ele>
        <time>2018-08-19T10:00:32Z</time>
      </trkpt>
      <trkpt lat="48.69783" lon="1.92174">
        <ele>174</ele>
        <time>2018-08-19T10:00:36Z</time>
      </trkpt>
      <trkpt lat="48.69778" lon="1.92181">
        <ele>174</ele>
        <time>2018-08-19T10:00:40Z</time>
      </trkpt>
      <trkpt lat="48.69774" lon="1.92189">
        <ele>174</ele>
        <time>2018-08-19T10:00:44Z</time>
      </trkpt>
      <trkpt lat="48.6977" lon="1.92197">
        <ele>174</ele>
        <time>2018-08-19T10:00:48Z</time>
      </trkpt>
      <trkpt lat="48.69766" lon="1.92207">
        <ele>178</ele>
        <time>2018-08-19T10:00:52Z</time>
      </trkpt>
      <trkpt lat="48.69764" lon="1.92213">
        <ele>182</ele>
        <time>2018-08-19T10:00:56Z</time>
      </trkpt>
      <trkpt lat="48.69761" lon="1.92221">
        <ele>182</ele>
        <time>2018-08-19T10:01:00Z</time>
      </trkpt>
      <trkpt lat="48.69759" lon="1.92227">
        <ele>182</ele>
        <time>2018-08-19T10:01:04Z</time>
      </trkpt>
      <trkpt lat="48.69756" lon="1.92235">
        <ele>182</ele>
        <time>2018-08-19T10:01:08Z</time>
      </trkpt>
      <trkpt lat="48.69753" lon="1.92242">
        <ele>182</ele>
        <time>2018-08-19T10:01:12Z</time>
      </trkpt>
      <trkpt lat="48.69747" lon="1.92254">
        <ele>183</ele>
        <time>2018-08-19T10:01:16Z</time>
      </trkpt>
      <trkpt lat="48.69743" lon="1.92262">
        <ele>187</ele>
        <time>2018-08-19T10:01:20Z</time>
      </trkpt>
      <trkpt lat="48.69741" lon="1.92266">
        <ele>188</ele>
        <time>2018-08-19T10:01:24Z</time>
      </trkpt>
      <trkpt lat="48.69737" lon="1.92272">
        <ele>188</ele>
        <time>2018-08-19T10:01:28Z</time>
      </trkpt>
      <trkpt lat="48.69733" lon="1.92279">
        <ele>188</ele>
        <time>2018-08-19T10:01:32Z</time>
      </trkpt>
      <trkpt lat="48.69729" lon="1.92287">
        <ele>190</ele>
        <time>2018-08-19T10:01:37Z</time>
      </trkpt>
      <trkpt lat="48.69727" lon="1.92294">
        <ele>190</ele>
        <time>2018-08-19T10:01:41Z</time>
      </trkpt>
      <trkpt lat="48.69724" lon="1.92299">
        <ele>190</ele>
        <time>2018-08-19T10:01:45Z</time>
      </trkpt>
      <trkpt lat="48.69721" lon="1.92307">
        <ele>190</ele>
        <time>2018-08-19T10:01:49Z</time>
      </trkpt>
      <trkpt lat="48.69717" lon="1.92314">
        <ele>190</ele>
        <time>2018-08-19T10:01:53Z</time>
      </trkpt>
      <trkpt lat="48.69715" lon="1.92322">
        <ele>190</ele>
        <time>2018-08-19T10:01:57Z</time>
      </trkpt>
      <trkpt lat="48.69713" lon="1.92329">
        <ele>190</ele>
        <time>2018-08-19T10:02:01Z</time>
      </trkpt>
      <trkpt lat="48.6971" lon="1.92334">
        <ele>190</ele>
        <time>2018-08-19T10:02:05Z</time>
      </trkpt>
      <trkpt lat="48.69706" lon="1.9234">
        <ele>187</ele>
        <time>2018-08-19T10:02:09Z</time>
      </trkpt>
      <trkpt lat="48.69703" lon="1.92347">
        <ele>185</ele>
        <time>2018-08-19T10:02:13Z</time>
      </trkpt>
      <trkpt lat="48.697" lon="1.92355">
        <ele>185</ele>
        <time>2018-08-19T10:02:17Z</time>
      </trkpt>
      <trkpt lat="48.69696" lon="1.92365">
        <ele>185</ele>
        <time>2018-08-19T10:02:21Z</time>
      </trkpt>
      <trkpt lat="48.69693" lon="1.92373">
        <ele>185</ele>
        <time>2018-08-19T10:02:25Z</time>
      </trkpt>
      <trkpt lat="48.69689" lon="1.92381">
        <ele>185</ele>
        <time>2018-08-19T10:02:29Z</time>
      </trkpt>
      <trkpt lat="48.69687" lon="1.92389">
        <ele>184</ele>
        <time>2018-08-19T10:02:33Z</time>
      </trkpt>
      <trkpt lat="48.69682" lon="1.92397">
        <ele>184</ele>
        <time>2018-08-19T10:02:37Z</time>
      </trkpt>
      <trkpt lat="48.69678" lon="1.92405">
        <ele>184</ele>
        <time>2018-08-19T10:02:41Z</time>
      </trkpt>
      <trkpt lat="48.69674" lon="1.92414">
        <ele>184</ele>
        <time>2018-08-19T10:02:46Z</time>
      </trkpt>
      <trkpt lat="48.6967" lon="1.92422">
        <ele>184</ele>
        <time>2018-08-19T10:02:51Z</time>
      </trkpt>
      <trkpt lat="48.69667" lon="1.9243">
        <ele>184</ele>
        <time>2018-08-19T10:02:56Z</time>
      </trkpt>
      <trkpt lat="48.69664" lon="1.92438">
        <ele>184</ele>
        <time>2018-08-19T10:03:00Z</time>
      </trkpt>
      <trkpt lat="48.69661" lon="1.92446">
        <ele>184</ele>
        <time>2018-08-19T10:03:05Z</time>
      </trkpt>
      <trkpt lat="48.69657" lon="1.92455">
        <ele>183</ele>
        <time>2018-08-19T10:03:09Z</time>
      </trkpt>
      <trkpt lat="48.69653" lon="1.92463">
        <ele>183</ele>
        <time>2018-08-19T10:03:13Z</time>
      </trkpt>
      <trkpt lat="48.6965" lon="1.92471">
        <ele>183</ele>
        <time>2018-08-19T10:03:17Z</time>
      </trkpt>
      <trkpt lat="48.69647" lon="1.92479">
        <ele>181</ele>
        <time>2018-08-19T10:03:21Z</time>
      </trkpt>
      <trkpt lat="48.69644" lon="1.92487">
        <ele>178</ele>
        <time>2018-08-19T10:03:25Z</time>
      </trkpt>
      <trkpt lat="48.69642" lon="1.92493">
        <ele>178</ele>
        <time>2018-08-19T10:03:29Z</time>
      </trkpt>
      <trkpt lat="48.69638" lon="1.925">
        <ele>178</ele>
        <time>2018-08-19T10:03:33Z</time>
      </trkpt>
      <trkpt lat="48.69632" lon="1.9251">
        <ele>178</ele>
        <time>2018-08-19T10:03:38Z</time>
      </trkpt>
      <trkpt lat="48.69629" lon="1.92516">
        <ele>178</ele>
        <time>2018-08-19T10:03:42Z</time>
      </trkpt>
      <trkpt lat="48.69624" lon="1.92524">
        <ele>178</ele>
        <time>2018-08-19T10:03:47Z</time>
      </trkpt>
      <trkpt lat="48.69621" lon="1.92533">
        <ele>178</ele>
        <time>2018-08-19T10:03:52Z</time>
      </trkpt>
      <trkpt lat="48.69618" lon="1.9254">
        <ele>178</ele>
        <time>2018-08-19T10:03:56Z</time>
      </trkpt>
      <trkpt lat="48.69614" lon="1.92549">
        <ele>178</ele>
        <time>2018-08-19T10:04:00Z</time>
      </trkpt>
      <trkpt lat="48.6961" lon="1.92557">
        <ele>178</ele>
        <time>2018-08-19T10:04:04Z</time>
      </trkpt>
      <trkpt lat="48.69604" lon="1.92565">
        <ele>178</ele>
        <time>2018-08-19T10:04:09Z</time>
      </trkpt>
      <trkpt lat="48.69601" lon="1.92571">
        <ele>175</ele>
        <time>2018-08-19T10:04:13Z</time>
      </trkpt>
      <trkpt lat="48.69596" lon="1.9258">
        <ele>174</ele>
        <time>2018-08-19T10:04:17Z</time>
      </trkpt>
      <trkpt lat="48.69593" lon="1.92587">
        <ele>174</ele>
        <time>2018-08-19T10:04:21Z</time>
      </trkpt>
      <trkpt lat="48.6959" lon="1.92593">
        <ele>174</ele>
        <time>2018-08-19T10:04:25Z</time>
      </trkpt>
      <trkpt lat="48.69589" lon="1.92599">
        <ele>173</ele>
        <time>2018-08-19T10:04:29Z</time>
      </trkpt>
      <trkpt lat="48.69584" lon="1.92608">
        <ele>172</ele>
        <time>2018-08-19T10:04:34Z</time>
      </trkpt>
      <trkpt lat="48.6958" lon="1.92615">
        <ele>172</ele>
        <time>2018-08-19T10:04:38Z</time>
      </trkpt>
      <trkpt lat="48.69576" lon="1.92624">
        <ele>172</ele>
        <time>2018-08-19T10:04:43Z</time>
      </trkpt>
      <trkpt lat="48.69572" lon="1.92631">
        <ele>170</ele>
        <time>2018-08-19T10:04:47Z</time>
      </trkpt>
      <trkpt lat="48.69568" lon="1.9264">
        <ele>170</ele>
        <time>2018-08-19T10:04:51Z</time>
      </trkpt>
      <trkpt lat="48.69565" lon="1.92648">
        <ele>170</ele>
        <time>2018-08-19T10:04:55Z</time>
      </trkpt>
      <trkpt lat="48.69561" lon="1.92655">
        <ele>170</ele>
        <time>2018-08-19T10:04:59Z</time>
      </trkpt>
      <trkpt lat="48.69556" lon="1.92664">
        <ele>170</ele>
        <time>2018-08-19T10:05:04Z</time>
      </trkpt>
      <trkpt lat="48.69553" lon="1.92673">
        <ele>170</ele>
        <time>2018-08-19T10:05:09Z</time>
      </trkpt>
      <trkpt lat="48.69551" lon="1.92683">
        <ele>170</ele>
        <time>2018-08-19T10:05:14Z</time>
      </trkpt>
      <trkpt lat="48.69547" lon="1.92694">
        <ele>166</ele>
        <time>2018-08-19T10:05:19Z</time>
      </trkpt>
      <trkpt lat="48.69544" lon="1.92701">
        <ele>165</ele>
        <time>2018-08-19T10:05:23Z</time>
      </trkpt>
      <trkpt lat="48.69541" lon="1.92709">
        <ele>165</ele>
        <time>2018-08-19T10:05:27Z</time>
      </trkpt>
      <trkpt lat="48.69538" lon="1.92716">
        <ele>165</ele>
        <time>2018-08-19T10:05:31Z</time>
      </trkpt>
      <trkpt lat="48.69533" lon="1.92724">
        <ele>165</ele>
        <time>2018-08-19T10:05:35Z</time>
      </trkpt>
      <trkpt lat="48.69528" lon="1.9273">
        <ele>165</ele>
        <time>2018-08-19T10:05:39Z</time>
      </trkpt>
      <trkpt lat="48.69524" lon="1.92736">
        <ele>166</ele>
        <time>2018-08-19T10:05:43Z</time>
      </trkpt>
      <trkpt lat="48.69521" lon="1.92744">
        <ele>168</ele>
        <time>2018-08-19T10:05:47Z</time>
      </trkpt>
      <trkpt lat="48.69517" lon="1.92752">
        <ele>170</ele>
        <time>2018-08-19T10:05:52Z</time>
      </trkpt>
      <trkpt lat="48.69514" lon="1.9276">
        <ele>172</ele>
        <time>2018-08-19T10:05:56Z</time>
      </trkpt>
      <trkpt lat="48.69508" lon="1.9277">
        <ele>174</ele>
        <time>2018-08-19T10:06:02Z</time>
      </trkpt>
      <trkpt lat="48.69505" lon="1.92778">
        <ele>175</ele>
        <time>2018-08-19T10:06:06Z</time>
      </trkpt>
      <trkpt lat="48.69501" lon="1.92786">
        <ele>175</ele>
        <time>2018-08-19T10:06:10Z</time>
      </trkpt>
      <trkpt lat="48.69498" lon="1.92794">
        <ele>175</ele>
        <time>2018-08-19T10:06:14Z</time>
      </trkpt>
      <trkpt lat="48.69495" lon="1.928">
        <ele>175</ele>
        <time>2018-08-19T10:06:18Z</time>
      </trkpt>
      <trkpt lat="48.69491" lon="1.92809">
        <ele>176</ele>
        <time>2018-08-19T10:06:23Z</time>
      </trkpt>
      <trkpt lat="48.69487" lon="1.92816">
        <ele>177</ele>
        <time>2018-08-19T10:06:27Z</time>
      </trkpt>
      <trkpt lat="48.69482" lon="1.92824">
        <ele>178</ele>
        <time>2018-08-19T10:06:32Z</time>
      </trkpt>
      <trkpt lat="48.69479" lon="1.92834">
        <ele>178</ele>
        <time>2018-08-19T10:06:36Z</time>
      </trkpt>
      <trkpt lat="48.69474" lon="1.92843">
        <ele>177</ele>
        <time>2018-08-19T10:06:41Z</time>
      </trkpt>
      <trkpt lat="48.6947" lon="1.92849">
        <ele>177</ele>
        <time>2018-08-19T10:06:45Z</time>
      </trkpt>
      <trkpt lat="48.69468" lon="1.92854">
        <ele>177</ele>
        <time>2018-08-19T10:06:49Z</time>
      </trkpt>
      <trkpt lat="48.69464" lon="1.92862">
        <ele>176</ele>
        <time>2018-08-19T10:06:53Z</time>
      </trkpt>
      <trkpt lat="48.69461" lon="1.92869">
        <ele>176</ele>
        <time>2018-08-19T10:06:57Z</time>
      </trkpt>
      <trkpt lat="48.69458" lon="1.92877">
        <ele>176</ele>
        <time>2018-08-19T10:07:01Z</time>
      </trkpt>
      <trkpt lat="48.69454" lon="1.92887">
        <ele>174</ele>
        <time>2018-08-19T10:07:06Z</time>
      </trkpt>
      <trkpt lat="48.6945" lon="1.92896">
        <ele>172</ele>
        <time>2018-08-19T10:07:10Z</time>
      </trkpt>
      <trkpt lat="48.69446" lon="1.92901">
        <ele>172</ele>
        <time>2018-08-19T10:07:14Z</time>
      </trkpt>
      <trkpt lat="48.69442" lon="1.92908">
        <ele>173</ele>
        <time>2018-08-19T10:07:18Z</time>
      </trkpt>
      <trkpt lat="48.69439" lon="1.92913">
        <ele>175</ele>
        <time>2018-08-19T10:07:22Z</time>
      </trkpt>
      <trkpt lat="48.69434" lon="1.92918">
        <ele>176</ele>
        <time>2018-08-19T10:07:26Z</time>
      </trkpt>
      <trkpt lat="48.6943" lon="1.92925">
        <ele>180</ele>
        <time>2018-08-19T10:07:30Z</time>
      </trkpt>
      <trkpt lat="48.69429" lon="1.92929">
        <ele>182</ele>
        <time>2018-08-19T10:07:35Z</time>
      </trkpt>
      <trkpt lat="48.6943" lon="1.92932">
        <ele>183</ele>
        <time>2018-08-19T10:07:41Z</time>
      </trkpt>
      <trkpt lat="48.6943" lon="1.92937">
        <ele>183</ele>
        <time>2018-08-19T10:07:45Z</time>
      </trkpt>
      <trkpt lat="48.69429" lon="1.92944">
        <ele>183</ele>
        <time>2018-08-19T10:07:49Z</time>
      </trkpt>
      <trkpt lat="48.69426" lon="1.92953">
        <ele>183</ele>
        <time>2018-08-19T10:07:54Z</time>
      </trkpt>
      <trkpt lat="48.69422" lon="1.92961">
        <ele>183</ele>
        <time>2018-08-19T10:07:58Z</time>
      </trkpt>
      <trkpt lat="48.69417" lon="1.9297">
        <ele>183</ele>
        <time>2018-08-19T10:08:03Z</time>
      </trkpt>
      <trkpt lat="48.69412" lon="1.92978">
        <ele>183</ele>
        <time>2018-08-19T10:08:07Z</time>
      </trkpt>
      <trkpt lat="48.69409" lon="1.92985">
        <ele>183</ele>
        <time>2018-08-19T10:08:11Z</time>
      </trkpt>
      <trkpt lat="48.69406" lon="1.92992">
        <ele>183</ele>
        <time>2018-08-19T10:08:15Z</time>
      </trkpt>
      <trkpt lat="48.69402" lon="1.92998">
        <ele>183</ele>
        <time>2018-08-19T10:08:19Z</time>
      </trkpt>
      <trkpt lat="48.69398" lon="1.93008">
        <ele>183</ele>
        <time>2018-08-19T10:08:23Z</time>
      </trkpt>
      <trkpt lat="48.69394" lon="1.93016">
        <ele>182</ele>
        <time>2018-08-19T10:08:27Z</time>
      </trkpt>
      <trkpt lat="48.69391" lon="1.93023">
        <ele>181</ele>
        <time>2018-08-19T10:08:31Z</time>
      </trkpt>
      <trkpt lat="48.69387" lon="1.9303">
        <ele>180</ele>
        <time>2018-08-19T10:08:35Z</time>
      </trkpt>
      <trkpt lat="48.69384" lon="1.93038">
        <ele>179</ele>
        <time>2018-08-19T10:08:40Z</time>
      </trkpt>
      <trkpt lat="48.69381" lon="1.93044">
        <ele>178</ele>
        <time>2018-08-19T10:08:44Z</time>
      </trkpt>
      <trkpt lat="48.69377" lon="1.93051">
        <ele>177</ele>
        <time>2018-08-19T10:08:48Z</time>
      </trkpt>
      <trkpt lat="48.69374" lon="1.93058">
        <ele>176</ele>
        <time>2018-08-19T10:08:52Z</time>
      </trkpt>
      <trkpt lat="48.69371" lon="1.93066">
        <ele>176</ele>
        <time>2018-08-19T10:08:56Z</time>
      </trkpt>
      <trkpt lat="48.69368" lon="1.93074">
        <ele>176</ele>
        <time>2018-08-19T10:09:01Z</time>
      </trkpt>
      <trkpt lat="48.69365" lon="1.93081">
        <ele>176</ele>
        <time>2018-08-19T10:09:05Z</time>
      </trkpt>
      <trkpt lat="48.69362" lon="1.93089">
        <ele>176</ele>
        <time>2018-08-19T10:09:09Z</time>
      </trkpt>
      <trkpt lat="48.69359" lon="1.93095">
        <ele>176</ele>
        <time>2018-08-19T10:09:13Z</time>
      </trkpt>
      <trkpt lat="48.69356" lon="1.93102">
        <ele>176</ele>
        <time>2018-08-19T10:09:17Z</time>
      </trkpt>
      <trkpt lat="48.69353" lon="1.9311">
        <ele>176</ele>
        <time>2018-08-19T10:09:21Z</time>
      </trkpt>
      <trkpt lat="48.6935" lon="1.93118">
        <ele>176</ele>
        <time>2018-08-19T10:09:25Z</time>
      </trkpt>
      <trkpt lat="48.69347" lon="1.93126">
        <ele>176</ele>
        <time>2018-08-19T10:09:29Z</time>
      </trkpt>
      <trkpt lat="48.69343" lon="1.93134">
        <ele>176</ele>
        <time>2018-08-19T10:09:33Z</time>
      </trkpt>
      <trkpt lat="48.6934" lon="1.9314">
        <ele>176</ele>
        <time>2018-08-19T10:09:37Z</time>
      </trkpt>
      <trkpt lat="48.69337" lon="1.9315">
        <ele>176</ele>
        <time>2018-08-19T10:09:41Z</time>
      </trkpt>
      <trkpt lat="48.69334" lon="1.93157">
        <ele>176</ele>
        <time>2018-08-19T10:09:45Z</time>
      </trkpt>
      <trkpt lat="48.69331" lon="1.93165">
        <ele>176</ele>
        <time>2018-08-19T10:09:49Z</time>
      </trkpt>
      <trkpt lat="48.69329" lon="1.93172">
        <ele>176</ele>
        <time>2018-08-19T10:09:53Z</time>
      </trkpt>
      <trkpt lat="48.69326" lon="1.93179">
        <ele>176</ele>
        <time>2018-08-19T10:09:57Z</time>
      </trkpt>
      <trkpt lat="48.69322" lon="1.93187">
        <ele>176</ele>
        <time>2018-08-19T10:10:01Z</time>
      </trkpt>
      <trkpt lat="48.6932" lon="1.93196">
        <ele>176</ele>
        <time>2018-08-19T10:10:05Z</time>
      </trkpt>
      <trkpt lat="48.69317" lon="1.93204">
        <ele>176</ele>
        <time>2018-08-19T10:10:09Z</time>
      </trkpt>
      <trkpt lat="48.69313" lon="1.93212">
        <ele>176</ele>
        <time>2018-08-19T10:10:13Z</time>
      </trkpt>
      <trkpt lat="48.6931" lon="1.93219">
        <ele>176</ele>
        <time>2018-08-19T10:10:17Z</time>
      </trkpt>
      <trkpt lat="48.69307" lon="1.93227">
        <ele>176</ele>
        <time>2018-08-19T10:10:21Z</time>
      </trkpt>
      <trkpt lat="48.69304" lon="1.93236">
        <ele>176</ele>
        <time>2018-08-19T10:10:25Z</time>
      </trkpt>
      <trkpt lat="48.69302" lon="1.93243">
        <ele>176</ele>
        <time>2018-08-19T10:10:29Z</time>
      </trkpt>
      <trkpt lat="48.69299" lon="1.93252">
        <ele>176</ele>
        <time>2018-08-19T10:10:33Z</time>
      </trkpt>
      <trkpt lat="48.69296" lon="1.93259">
        <ele>176</ele>
        <time>2018-08-19T10:10:37Z</time>
      </trkpt>
      <trkpt lat="48.69293" lon="1.93267">
        <ele>176</ele>
        <time>2018-08-19T10:10:41Z</time>
      </trkpt>
      <trkpt lat="48.6929" lon="1.93275">
        <ele>176</ele>
        <time>2018-08-19T10:10:45Z</time>
      </trkpt>
      <trkpt lat="48.69287" lon="1.93283">
        <ele>176</ele>
        <time>2018-08-19T10:10:49Z</time>
      </trkpt>
      <trkpt lat="48.69284" lon="1.93291">
        <ele>176</ele>
        <time>2018-08-19T10:10:53Z</time>
      </trkpt>
      <trkpt lat="48.69281" lon="1.93298">
        <ele>176</ele>
        <time>2018-08-19T10:10:57Z</time>
      </trkpt>
      <trkpt lat="48.69279" lon="1.93306">
        <ele>175</ele>
        <time>2018-08-19T10:11:01Z</time>
      </trkpt>
      <trkpt lat="48.69276" lon="1.93313">
        <ele>174</ele>
        <time>2018-08-19T10:11:05Z</time>
      </trkpt>
      <trkpt lat="48.69273" lon="1.93321">
        <ele>173</ele>
        <time>2018-08-19T10:11:09Z</time>
      </trkpt>
      <trkpt lat="48.69269" lon="1.93328">
        <ele>172</ele>
        <time>2018-08-19T10:11:13Z</time>
      </trkpt>
      <trkpt lat="48.69266" lon="1.93335">
        <ele>172</ele>
        <time>2018-08-19T10:11:17Z</time>
      </trkpt>
      <trkpt lat="48.69264" lon="1.93343">
        <ele>172</ele>
        <time>2018-08-19T10:11:21Z</time>
      </trkpt>
      <trkpt lat="48.6926" lon="1.93351">
        <ele>172</ele>
        <time>2018-08-19T10:11:25Z</time>
      </trkpt>
      <trkpt lat="48.69257" lon="1.93358">
        <ele>172</ele>
        <time>2018-08-19T10:11:29Z</time>
      </trkpt>
      <trkpt lat="48.69254" lon="1.93367">
        <ele>172</ele>
        <time>2018-08-19T10:11:33Z</time>
      </trkpt>
      <trkpt lat="48.69251" lon="1.93375">
        <ele>172</ele>
        <time>2018-08-19T10:11:37Z</time>
      </trkpt>
      <trkpt lat="48.69247" lon="1.93383">
        <ele>172</ele>
        <time>2018-08-19T10:11:41Z</time>
      </trkpt>
      <trkpt lat="48.69245" lon="1.9339">
        <ele>172</ele>
        <time>2018-08-19T10:11:45Z</time>
      </trkpt>
      <trkpt lat="48.69241" lon="1.93397">
        <ele>172</ele>
        <time>2018-08-19T10:11:49Z</time>
      </trkpt>
      <trkpt lat="48.69238" lon="1.93404">
        <ele>173</ele>
        <time>2018-08-19T10:11:53Z</time>
      </trkpt>
      <trkpt lat="48.69235" lon="1.93411">
        <ele>174</ele>
        <time>2018-08-19T10:11:57Z</time>
      </trkpt>
      <trkpt lat="48.69233" lon="1.9342">
        <ele>174</ele>
        <time>2018-08-19T10:12:01Z</time>
      </trkpt>
      <trkpt lat="48.6923" lon="1.93428">
        <ele>174</ele>
        <time>2018-08-19T10:12:05Z</time>
      </trkpt>
      <trkpt lat="48.69227" lon="1.93436">
        <ele>174</ele>
        <time>2018-08-19T10:12:09Z</time>
      </trkpt>
      <trkpt lat="48.69223" lon="1.93443">
        <ele>174</ele>
        <time>2018-08-19T10:12:13Z</time>
      </trkpt>
      <trkpt lat="48.6922" lon="1.9345">
        <ele>174</ele>
        <time>2018-08-19T10:12:17Z</time>
      </trkpt>
      <trkpt lat="48.69217" lon="1.93457">
        <ele>174</ele>
        <time>2018-08-19T10:12:21Z</time>
      </trkpt>
      <trkpt lat="48.69214" lon="1.93465">
        <ele>174</ele>
        <time>2018-08-19T10:12:25Z</time>
      </trkpt>
      <trkpt lat="48.69211" lon="1.93473">
        <ele>174</ele>
        <time>2018-08-19T10:12:29Z</time>
      </trkpt>
      <trkpt lat="48.69208" lon="1.93481">
        <ele>174</ele>
        <time>2018-08-19T10:12:33Z</time>
      </trkpt>
      <trkpt lat="48.69205" lon="1.93489">
        <ele>174</ele>
        <time>2018-08-19T10:12:37Z</time>
      </trkpt>
      <trkpt lat="48.692" lon="1.93498">
        <ele>174</ele>
        <time>2018-08-19T10:12:42Z</time>
      </trkpt>
      <trkpt lat="48.69197" lon="1.93506">
        <ele>174</ele>
        <time>2018-08-19T10:12:46Z</time>
      </trkpt>
      <trkpt lat="48.69194" lon="1.93513">
        <ele>174</ele>
        <time>2018-08-19T10:12:50Z</time>
      </trkpt>
      <trkpt lat="48.69191" lon="1.93521">
        <ele>174</ele>
        <time>2018-08-19T10:12:54Z</time>
      </trkpt>
      <trkpt lat="48.69188" lon="1.93529">
        <ele>174</ele>
        <time>2018-08-19T10:12:58Z</time>
      </trkpt>
      <trkpt lat="48.69185" lon="1.93537">
        <ele>174</ele>
        <time>2018-08-19T10:13:02Z</time>
      </trkpt>
      <trkpt lat="48.69182" lon="1.93545">
        <ele>174</ele>
        <time>2018-08-19T10:13:06Z</time>
      </trkpt>
      <trkpt lat="48.69179" lon="1.93553">
        <ele>174</ele>
        <time>2018-08-19T10:13:10Z</time>
      </trkpt>
      <trkpt lat="48.69178" lon="1.9356">
        <ele>174</ele>
        <time>2018-08-19T10:13:14Z</time>
      </trkpt>
      <trkpt lat="48.69175" lon="1.93566">
        <ele>174</ele>
        <time>2018-08-19T10:13:18Z</time>
      </trkpt>
      <trkpt lat="48.69172" lon="1.93574">
        <ele>174</ele>
        <time>2018-08-19T10:13:23Z</time>
      </trkpt>
      <trkpt lat="48.69169" lon="1.93581">
        <ele>174</ele>
        <time>2018-08-19T10:13:27Z</time>
      </trkpt>
      <trkpt lat="48.69166" lon="1.93589">
        <ele>174</ele>
        <time>2018-08-19T10:13:31Z</time>
      </trkpt>
      <trkpt lat="48.69163" lon="1.93597">
        <ele>174</ele>
        <time>2018-08-19T10:13:35Z</time>
      </trkpt>
      <trkpt lat="48.6916" lon="1.93605">
        <ele>173</ele>
        <time>2018-08-19T10:13:39Z</time>
      </trkpt>
      <trkpt lat="48.69157" lon="1.93614">
        <ele>173</ele>
        <time>2018-08-19T10:13:43Z</time>
      </trkpt>
      <trkpt lat="48.69153" lon="1.93622">
        <ele>173</ele>
        <time>2018-08-19T10:13:47Z</time>
      </trkpt>
      <trkpt lat="48.6915" lon="1.93629">
        <ele>173</ele>
        <time>2018-08-19T10:13:51Z</time>
      </trkpt>
      <trkpt lat="48.69146" lon="1.93637">
        <ele>173</ele>
        <time>2018-08-19T10:13:55Z</time>
      </trkpt>
      <trkpt lat="48.69144" lon="1.93645">
        <ele>173</ele>
        <time>2018-08-19T10:13:59Z</time>
      </trkpt>
      <trkpt lat="48.6914" lon="1.93654">
        <ele>173</ele>
        <time>2018-08-19T10:14:03Z</time>
      </trkpt>
      <trkpt lat="48.69137" lon="1.93662">
        <ele>173</ele>
        <time>2018-08-19T10:14:07Z</time>
      </trkpt>
      <trkpt lat="48.69134" lon="1.9367">
        <ele>173</ele>
        <time>2018-08-19T10:14:11Z</time>
      </trkpt>
      <trkpt lat="48.69132" lon="1.93677">
        <ele>173</ele>
        <time>2018-08-19T10:14:15Z</time>
      </trkpt>
      <trkpt lat="48.69128" lon="1.93685">
        <ele>173</ele>
        <time>2018-08-19T10:14:19Z</time>
      </trkpt>
      <trkpt lat="48.69125" lon="1.93693">
        <ele>173</ele>
        <time>2018-08-19T10:14:23Z</time>
      </trkpt>
      <trkpt lat="48.69122" lon="1.93701">
        <ele>173</ele>
        <time>2018-08-19T10:14:27Z</time>
      </trkpt>
      <trkpt lat="48.69119" lon="1.93709">
        <ele>173</ele>
        <time>2018-08-19T10:14:31Z</time>
      </trkpt>
      <trkpt lat="48.69116" lon="1.93716">
        <ele>173</ele>
        <time>2018-08-19T10:14:35Z</time>
      </trkpt>
      <trkpt lat="48.69114" lon="1.93724">
        <ele>173</ele>
        <time>2018-08-19T10:14:39Z</time>
      </trkpt>
      <trkpt lat="48.69111" lon="1.9373">
        <ele>173</ele>
        <time>2018-08-19T10:14:43Z</time>
      </trkpt>
      <trkpt lat="48.69108" lon="1.93738">
        <ele>173</ele>
        <time>2018-08-19T10:14:47Z</time>
      </trkpt>
      <trkpt lat="48.69105" lon="1.93745">
        <ele>173</ele>
        <time>2018-08-19T10:14:51Z</time>
      </trkpt>
      <trkpt lat="48.69102" lon="1.93753">
        <ele>173</ele>
        <time>2018-08-19T10:14:55Z</time>
      </trkpt>
      <trkpt lat="48.69099" lon="1.9376">
        <ele>173</ele>
        <time>2018-08-19T10:14:59Z</time>
      </trkpt>
      <trkpt lat="48.69096" lon="1.93766">
        <ele>173</ele>
        <time>2018-08-19T10:15:03Z</time>
      </trkpt>
      <trkpt lat="48.69093" lon="1.93774">
        <ele>173</ele>
        <time>2018-08-19T10:15:07Z</time>
      </trkpt>
      <trkpt lat="48.69091" lon="1.93782">
        <ele>173</ele>
        <time>2018-08-19T10:15:11Z</time>
      </trkpt>
      <trkpt lat="48.69088" lon="1.93789">
        <ele>173</ele>
        <time>2018-08-19T10:15:15Z</time>
      </trkpt>
      <trkpt lat="48.69085" lon="1.93797">
        <ele>173</ele>
        <time>2018-08-19T10:15:19Z</time>
      </trkpt>
      <trkpt lat="48.69081" lon="1.93805">
        <ele>173</ele>
        <time>2018-08-19T10:15:23Z</time>
      </trkpt>
      <trkpt lat="48.69078" lon="1.93812">
        <ele>173</ele>
        <time>2018-08-19T10:15:27Z</time>
      </trkpt>
      <trkpt lat="48.69075" lon="1.93819">
        <ele>173</ele>
        <time>2018-08-19T10:15:31Z</time>
      </trkpt>
      <trkpt lat="48.69073" lon="1.93826">
        <ele>173</ele>
        <time>2018-08-19T10:15:35Z</time>
      </trkpt>
      <trkpt lat="48.69071" lon="1.9383">
        <ele>173</ele>
        <time>2018-08-19T10:15:40Z</time>
      </trkpt>
      <trkpt lat="48.69072" lon="1.93832">
        <ele>173</ele>
        <time>2018-08-19T10:15:58Z</time>
      </trkpt>
      <trkpt lat="48.69071" lon="1.93833">
        <ele>173</ele>
        <time>2018-08-19T10:16:15Z</time>
      </trkpt>
      <trkpt lat="48.69071" lon="1.93832">
        <ele>173</ele>
        <time>2018-08-19T10:16:29Z</time>
      </trkpt>
      <trkpt lat="48.6907" lon="1.93832">
        <ele>173</ele>
        <time>2018-08-19T10:17:06Z</time>
      </trkpt>
      <trkpt lat="48.69069" lon="1.93834">
        <ele>173</ele>
        <time>2018-08-19T10:17:21Z</time>
      </trkpt>
      <trkpt lat="48.69067" lon="1.9384">
        <ele>173</ele>
        <time>2018-08-19T10:17:25Z</time>
      </trkpt>
      <trkpt lat="48.69065" lon="1.93847">
        <ele>172</ele>
        <time>2018-08-19T10:17:29Z</time>
      </trkpt>
      <trkpt lat="48.69062" lon="1.93854">
        <ele>172</ele>
        <time>2018-08-19T10:17:33Z</time>
      </trkpt>
      <trkpt lat="48.69058" lon="1.93862">
        <ele>172</ele>
        <time>2018-08-19T10:17:38Z</time>
      </trkpt>
      <trkpt lat="48.69055" lon="1.93869">
        <ele>172</ele>
        <time>2018-08-19T10:17:42Z</time>
      </trkpt>
      <trkpt lat="48.69052" lon="1.93876">
        <ele>172</ele>
        <time>2018-08-19T10:17:46Z</time>
      </trkpt>
      <trkpt lat="48.69049" lon="1.93884">
        <ele>172</ele>
        <time>2018-08-19T10:17:50Z</time>
      </trkpt>
      <trkpt lat="48.69046" lon="1.93892">
        <ele>171</ele>
        <time>2018-08-19T10:17:54Z</time>
      </trkpt>
      <trkpt lat="48.69043" lon="1.93898">
        <ele>171</ele>
        <time>2018-08-19T10:17:58Z</time>
      </trkpt>
      <trkpt lat="48.69041" lon="1.93907">
        <ele>171</ele>
        <time>2018-08-19T10:18:02Z</time>
      </trkpt>
      <trkpt lat="48.69037" lon="1.93916">
        <ele>171</ele>
        <time>2018-08-19T10:18:06Z</time>
      </trkpt>
      <trkpt lat="48.69034" lon="1.93924">
        <ele>171</ele>
        <time>2018-08-19T10:18:10Z</time>
      </trkpt>
      <trkpt lat="48.69031" lon="1.93932">
        <ele>171</ele>
        <time>2018-08-19T10:18:14Z</time>
      </trkpt>
      <trkpt lat="48.69027" lon="1.93941">
        <ele>170</ele>
        <time>2018-08-19T10:18:18Z</time>
      </trkpt>
      <trkpt lat="48.69024" lon="1.93949">
        <ele>170</ele>
        <time>2018-08-19T10:18:22Z</time>
      </trkpt>
      <trkpt lat="48.69021" lon="1.93957">
        <ele>170</ele>
        <time>2018-08-19T10:18:26Z</time>
      </trkpt>
      <trkpt lat="48.69017" lon="1.93965">
        <ele>170</ele>
        <time>2018-08-19T10:18:30Z</time>
      </trkpt>
      <trkpt lat="48.69014" lon="1.93974">
        <ele>170</ele>
        <time>2018-08-19T10:18:34Z</time>
      </trkpt>
      <trkpt lat="48.69011" lon="1.93982">
        <ele>170</ele>
        <time>2018-08-19T10:18:38Z</time>
      </trkpt>
      <trkpt lat="48.69008" lon="1.9399">
        <ele>170</ele>
        <time>2018-08-19T10:18:42Z</time>
      </trkpt>
      <trkpt lat="48.69004" lon="1.93997">
        <ele>170</ele>
        <time>2018-08-19T10:18:46Z</time>
      </trkpt>
      <trkpt lat="48.69002" lon="1.94005">
        <ele>170</ele>
        <time>2018-08-19T10:18:50Z</time>
      </trkpt>
      <trkpt lat="48.68998" lon="1.94011">
        <ele>170</ele>
        <time>2018-08-19T10:18:54Z</time>
      </trkpt>
      <trkpt lat="48.68996" lon="1.94019">
        <ele>170</ele>
        <time>2018-08-19T10:18:58Z</time>
      </trkpt>
      <trkpt lat="48.68993" lon="1.94027">
        <ele>170</ele>
        <time>2018-08-19T10:19:02Z</time>
      </trkpt>
      <trkpt lat="48.6899" lon="1.94035">
        <ele>170</ele>
        <time>2018-08-19T10:19:06Z</time>
      </trkpt>
      <trkpt lat="48.68987" lon="1.94043">
        <ele>170</ele>
        <time>2018-08-19T10:19:10Z</time>
      </trkpt>
      <trkpt lat="48.68984" lon="1.9405">
        <ele>170</ele>
        <time>2018-08-19T10:19:14Z</time>
      </trkpt>
      <trkpt lat="48.68982" lon="1.94057">
        <ele>170</ele>
        <time>2018-08-19T10:19:18Z</time>
      </trkpt>
      <trkpt lat="48.68979" lon="1.94064">
        <ele>170</ele>
        <time>2018-08-19T10:19:22Z</time>
      </trkpt>
      <trkpt lat="48.68976" lon="1.94071">
        <ele>170</ele>
        <time>2018-08-19T10:19:26Z</time>
      </trkpt>
      <trkpt lat="48.68973" lon="1.94079">
        <ele>170</ele>
        <time>2018-08-19T10:19:30Z</time>
      </trkpt>
      <trkpt lat="48.68971" lon="1.94088">
        <ele>169</ele>
        <time>2018-08-19T10:19:34Z</time>
      </trkpt>
      <trkpt lat="48.68968" lon="1.94095">
        <ele>168</ele>
        <time>2018-08-19T10:19:38Z</time>
      </trkpt>
      <trkpt lat="48.68965" lon="1.94103">
        <ele>167</ele>
        <time>2018-08-19T10:19:42Z</time>
      </trkpt>
      <trkpt lat="48.68961" lon="1.94111">
        <ele>167</ele>
        <time>2018-08-19T10:19:46Z</time>
      </trkpt>
      <trkpt lat="48.68958" lon="1.94118">
        <ele>165</ele>
        <time>2018-08-19T10:19:50Z</time>
      </trkpt>
      <trkpt lat="48.68955" lon="1.94125">
        <ele>164</ele>
        <time>2018-08-19T10:19:54Z</time>
      </trkpt>
      <trkpt lat="48.68952" lon="1.94134">
        <ele>164</ele>
        <time>2018-08-19T10:19:58Z</time>
      </trkpt>
      <trkpt lat="48.68949" lon="1.94142">
        <ele>164</ele>
        <time>2018-08-19T10:20:02Z</time>
      </trkpt>
      <trkpt lat="48.68947" lon="1.9415">
        <ele>164</ele>
        <time>2018-08-19T10:20:06Z</time>
      </trkpt>
      <trkpt lat="48.68943" lon="1.94159">
        <ele>164</ele>
        <time>2018-08-19T10:20:10Z</time>
      </trkpt>
      <trkpt lat="48.6894" lon="1.94168">
        <ele>164</ele>
        <time>2018-08-19T10:20:14Z</time>
      </trkpt>
      <trkpt lat="48.68936" lon="1.94175">
        <ele>164</ele>
        <time>2018-08-19T10:20:18Z</time>
      </trkpt>
      <trkpt lat="48.68934" lon="1.94183">
        <ele>163</ele>
        <time>2018-08-19T10:20:22Z</time>
      </trkpt>
      <trkpt lat="48.6893" lon="1.94191">
        <ele>163</ele>
        <time>2018-08-19T10:20:26Z</time>
      </trkpt>
      <trkpt lat="48.68927" lon="1.94199">
        <ele>163</ele>
        <time>2018-08-19T10:20:30Z</time>
      </trkpt>
      <trkpt lat="48.68924" lon="1.94208">
        <ele>163</ele>
        <time>2018-08-19T10:20:34Z</time>
      </trkpt>
      <trkpt lat="48.6892" lon="1.94216">
        <ele>163</ele>
        <time>2018-08-19T10:20:38Z</time>
      </trkpt>
      <trkpt lat="48.68918" lon="1.94223">
        <ele>161</ele>
        <time>2018-08-19T10:20:42Z</time>
      </trkpt>
      <trkpt lat="48.68914" lon="1.94231">
        <ele>158</ele>
        <time>2018-08-19T10:20:46Z</time>
      </trkpt>
      <trkpt lat="48.68912" lon="1.94239">
        <ele>157</ele>
        <time>2018-08-19T10:20:50Z</time>
      </trkpt>
      <trkpt lat="48.6891" lon="1.94248">
        <ele>155</ele>
        <time>2018-08-19T10:20:54Z</time>
      </trkpt>
      <trkpt lat="48.68907" lon="1.94256">
        <ele>153</ele>
        <time>2018-08-19T10:20:58Z</time>
      </trkpt>
      <trkpt lat="48.68904" lon="1.94264">
        <ele>150</ele>
        <time>2018-08-19T10:21:02Z</time>
      </trkpt>
      <trkpt lat="48.68901" lon="1.94273">
        <ele>150</ele>
        <time>2018-08-19T10:21:07Z</time>
      </trkpt>
      <trkpt lat="48.68897" lon="1.94281">
        <ele>148</ele>
        <time>2018-08-19T10:21:11Z</time>
      </trkpt>
      <trkpt lat="48.68893" lon="1.94288">
        <ele>148</ele>
        <time>2018-08-19T10:21:15Z</time>
      </trkpt>
      <trkpt lat="48.6889" lon="1.94297">
        <ele>148</ele>
        <time>2018-08-19T10:21:19Z</time>
      </trkpt>
      <trkpt lat="48.68886" lon="1.94306">
        <ele>152</ele>
        <time>2018-08-19T10:21:23Z</time>
      </trkpt>
      <trkpt lat="48.68883" lon="1.94315">
        <ele>153</ele>
        <time>2018-08-19T10:21:27Z</time>
      </trkpt>
      <trkpt lat="48.68879" lon="1.94323">
        <ele>153</ele>
        <time>2018-08-19T10:21:31Z</time>
      </trkpt>
      <trkpt lat="48.68876" lon="1.94331">
        <ele>153</ele>
        <time>2018-08-19T10:21:35Z</time>
      </trkpt>
      <trkpt lat="48.68871" lon="1.94339">
        <ele>153</ele>
        <time>2018-08-19T10:21:39Z</time>
      </trkpt>
      <trkpt lat="48.68868" lon="1.94347">
        <ele>153</ele>
        <time>2018-08-19T10:21:43Z</time>
      </trkpt>
      <trkpt lat="48.68865" lon="1.94354">
        <ele>153</ele>
        <time>2018-08-19T10:21:47Z</time>
      </trkpt>
      <trkpt lat="48.68862" lon="1.9436">
        <ele>153</ele>
        <time>2018-08-19T10:21:51Z</time>
      </trkpt>
      <trkpt lat="48.68857" lon="1.94358">
        <ele>155</ele>
        <time>2018-08-19T10:21:56Z</time>
      </trkpt>
      <trkpt lat="48.68856" lon="1.94357">
        <ele>159</ele>
        <time>2018-08-19T10:22:00Z</time>
      </trkpt>
      <trkpt lat="48.68854" lon="1.94353">
        <ele>164</ele>
        <time>2018-08-19T10:22:09Z</time>
      </trkpt>
      <trkpt lat="48.68856" lon="1.94356">
        <ele>165</ele>
        <time>2018-08-19T10:22:16Z</time>
      </trkpt>
      <trkpt lat="48.68857" lon="1.94362">
        <ele>169</ele>
        <time>2018-08-19T10:22:20Z</time>
      </trkpt>
      <trkpt lat="48.68854" lon="1.94371">
        <ele>173</ele>
        <time>2018-08-19T10:22:24Z</time>
      </trkpt>
      <trkpt lat="48.68852" lon="1.94381">
        <ele>173</ele>
        <time>2018-08-19T10:22:29Z</time>
      </trkpt>
      <trkpt lat="48.68849" lon="1.94388">
        <ele>169</ele>
        <time>2018-08-19T10:22:33Z</time>
      </trkpt>
      <trkpt lat="48.68846" lon="1.94396">
        <ele>167</ele>
        <time>2018-08-19T10:22:37Z</time>
      </trkpt>
      <trkpt lat="48.68844" lon="1.94402">
        <ele>166</ele>
        <time>2018-08-19T10:22:41Z</time>
      </trkpt>
      <trkpt lat="48.68842" lon="1.9441">
        <ele>164</ele>
        <time>2018-08-19T10:22:45Z</time>
      </trkpt>
      <trkpt lat="48.68839" lon="1.94421">
        <ele>162</ele>
        <time>2018-08-19T10:22:50Z</time>
      </trkpt>
      <trkpt lat="48.68835" lon="1.94429">
        <ele>160</ele>
        <time>2018-08-19T10:22:54Z</time>
      </trkpt>
      <trkpt lat="48.68832" lon="1.94438">
        <ele>159</ele>
        <time>2018-08-19T10:22:58Z</time>
      </trkpt>
      <trkpt lat="48.68828" lon="1.94447">
        <ele>159</ele>
        <time>2018-08-19T10:23:02Z</time>
      </trkpt>
      <trkpt lat="48.68824" lon="1.94455">
        <ele>159</ele>
        <time>2018-08-19T10:23:06Z</time>
      </trkpt>
      <trkpt lat="48.68821" lon="1.94463">
        <ele>159</ele>
        <time>2018-08-19T10:23:10Z</time>
      </trkpt>
      <trkpt lat="48.68819" lon="1.94471">
        <ele>159</ele>
        <time>2018-08-19T10:23:14Z</time>
      </trkpt>
      <trkpt lat="48.68816" lon="1.9448">
        <ele>159</ele>
        <time>2018-08-19T10:23:18Z</time>
      </trkpt>
      <trkpt lat="48.68813" lon="1.94488">
        <ele>159</ele>
        <time>2018-08-19T10:23:22Z</time>
      </trkpt>
      <trkpt lat="48.68809" lon="1.94497">
        <ele>160</ele>
        <time>2018-08-19T10:23:26Z</time>
      </trkpt>
      <trkpt lat="48.68805" lon="1.94506">
        <ele>161</ele>
        <time>2018-08-19T10:23:30Z</time>
      </trkpt>
      <trkpt lat="48.68803" lon="1.94514">
        <ele>161</ele>
        <time>2018-08-19T10:23:34Z</time>
      </trkpt>
      <trkpt lat="48.688" lon="1.94523">
        <ele>161</ele>
        <time>2018-08-19T10:23:38Z</time>
      </trkpt>
      <trkpt lat="48.68796" lon="1.94531">
        <ele>161</ele>
        <time>2018-08-19T10:23:42Z</time>
      </trkpt>
      <trkpt lat="48.68794" lon="1.9454">
        <ele>161</ele>
        <time>2018-08-19T10:23:46Z</time>
      </trkpt>
      <trkpt lat="48.6879" lon="1.94548">
        <ele>161</ele>
        <time>2018-08-19T10:23:50Z</time>
      </trkpt>
      <trkpt lat="48.68786" lon="1.94556">
        <ele>161</ele>
        <time>2018-08-19T10:23:54Z</time>
      </trkpt>
      <trkpt lat="48.68782" lon="1.94564">
        <ele>161</ele>
        <time>2018-08-19T10:23:58Z</time>
      </trkpt>
      <trkpt lat="48.68779" lon="1.94572">
        <ele>161</ele>
        <time>2018-08-19T10:24:02Z</time>
      </trkpt>
      <trkpt lat="48.68776" lon="1.9458">
        <ele>161</ele>
        <time>2018-08-19T10:24:06Z</time>
      </trkpt>
      <trkpt lat="48.68774" lon="1.94588">
        <ele>161</ele>
        <time>2018-08-19T10:24:10Z</time>
      </trkpt>
      <trkpt lat="48.68769" lon="1.94595">
        <ele>161</ele>
        <time>2018-08-19T10:24:15Z</time>
      </trkpt>
      <trkpt lat="48.68765" lon="1.94603">
        <ele>161</ele>
        <time>2018-08-19T10:24:19Z</time>
      </trkpt>
      <trkpt lat="48.68762" lon="1.94611">
        <ele>162</ele>
        <time>2018-08-19T10:24:23Z</time>
      </trkpt>
      <trkpt lat="48.68758" lon="1.94619">
        <ele>163</ele>
        <time>2018-08-19T10:24:27Z</time>
      </trkpt>
      <trkpt lat="48.68755" lon="1.94627">
        <ele>164</ele>
        <time>2018-08-19T10:24:31Z</time>
      </trkpt>
      <trkpt lat="48.6875" lon="1.94635">
        <ele>164</ele>
        <time>2018-08-19T10:24:36Z</time>
      </trkpt>
      <trkpt lat="48.68747" lon="1.94643">
        <ele>164</ele>
        <time>2018-08-19T10:24:40Z</time>
      </trkpt>
      <trkpt lat="48.68745" lon="1.9465">
        <ele>164</ele>
        <time>2018-08-19T10:24:44Z</time>
      </trkpt>
      <trkpt lat="48.68742" lon="1.94657">
        <ele>163</ele>
        <time>2018-08-19T10:24:48Z</time>
      </trkpt>
      <trkpt lat="48.68738" lon="1.94666">
        <ele>160</ele>
        <time>2018-08-19T10:24:52Z</time>
      </trkpt>
      <trkpt lat="48.68736" lon="1.94674">
        <ele>159</ele>
        <time>2018-08-19T10:24:56Z</time>
      </trkpt>
      <trkpt lat="48.68733" lon="1.94683">
        <ele>159</ele>
        <time>2018-08-19T10:25:00Z</time>
      </trkpt>
      <trkpt lat="48.68729" lon="1.94691">
        <ele>159</ele>
        <time>2018-08-19T10:25:04Z</time>
      </trkpt>
      <trkpt lat="48.68727" lon="1.94698">
        <ele>158</ele>
        <time>2018-08-19T10:25:08Z</time>
      </trkpt>
      <trkpt lat="48.68724" lon="1.94705">
        <ele>155</ele>
        <time>2018-08-19T10:25:12Z</time>
      </trkpt>
      <trkpt lat="48.6872" lon="1.94714">
        <ele>155</ele>
        <time>2018-08-19T10:25:16Z</time>
      </trkpt>
      <trkpt lat="48.68717" lon="1.94724">
        <ele>155</ele>
        <time>2018-08-19T10:25:21Z</time>
      </trkpt>
      <trkpt lat="48.68714" lon="1.94733">
        <ele>155</ele>
        <time>2018-08-19T10:25:25Z</time>
      </trkpt>
      <trkpt lat="48.68711" lon="1.94741">
        <ele>155</ele>
        <time>2018-08-19T10:25:29Z</time>
      </trkpt>
      <trkpt lat="48.68708" lon="1.9475">
        <ele>155</ele>
        <time>2018-08-19T10:25:33Z</time>
      </trkpt>
      <trkpt lat="48.68705" lon="1.94759">
        <ele>156</ele>
        <time>2018-08-19T10:25:37Z</time>
      </trkpt>
      <trkpt lat="48.68701" lon="1.94767">
        <ele>156</ele>
        <time>2018-08-19T10:25:41Z</time>
      </trkpt>
      <trkpt lat="48.68698" lon="1.94775">
        <ele>156</ele>
        <time>2018-08-19T10:25:45Z</time>
      </trkpt>
      <trkpt lat="48.68696" lon="1.94781">
        <ele>158</ele>
        <time>2018-08-19T10:25:49Z</time>
      </trkpt>
      <trkpt lat="48.68692" lon="1.94788">
        <ele>158</ele>
        <time>2018-08-19T10:25:53Z</time>
      </trkpt>
      <trkpt lat="48.68689" lon="1.94796">
        <ele>158</ele>
        <time>2018-08-19T10:25:57Z</time>
      </trkpt>
      <trkpt lat="48.68685" lon="1.94806">
        <ele>156</ele>
        <time>2018-08-19T10:26:01Z</time>
      </trkpt>
      <trkpt lat="48.68683" lon="1.94813">
        <ele>154</ele>
        <time>2018-08-19T10:26:05Z</time>
      </trkpt>
      <trkpt lat="48.68679" lon="1.9482">
        <ele>154</ele>
        <time>2018-08-19T10:26:09Z</time>
      </trkpt>
      <trkpt lat="48.68676" lon="1.94826">
        <ele>154</ele>
        <time>2018-08-19T10:26:13Z</time>
      </trkpt>
      <trkpt lat="48.68673" lon="1.94836">
        <ele>153</ele>
        <time>2018-08-19T10:26:17Z</time>
      </trkpt>
      <trkpt lat="48.6867" lon="1.94844">
        <ele>153</ele>
        <time>2018-08-19T10:26:21Z</time>
      </trkpt>
      <trkpt lat="48.68667" lon="1.94851">
        <ele>153</ele>
        <time>2018-08-19T10:26:25Z</time>
      </trkpt>
      <trkpt lat="48.68664" lon="1.9486">
        <ele>152</ele>
        <time>2018-08-19T10:26:29Z</time>
      </trkpt>
      <trkpt lat="48.68661" lon="1.94867">
        <ele>150</ele>
        <time>2018-08-19T10:26:33Z</time>
      </trkpt>
      <trkpt lat="48.68658" lon="1.94874">
        <ele>149</ele>
        <time>2018-08-19T10:26:37Z</time>
      </trkpt>
      <trkpt lat="48.68655" lon="1.94882">
        <ele>148</ele>
        <time>2018-08-19T10:26:41Z</time>
      </trkpt>
      <trkpt lat="48.68652" lon="1.9489">
        <ele>145</ele>
        <time>2018-08-19T10:26:45Z</time>
      </trkpt>
      <trkpt lat="48.68649" lon="1.94898">
        <ele>145</ele>
        <time>2018-08-19T10:26:49Z</time>
      </trkpt>
      <trkpt lat="48.68645" lon="1.94909">
        <ele>145</ele>
        <time>2018-08-19T10:26:53Z</time>
      </trkpt>
      <trkpt lat="48.68642" lon="1.94917">
        <ele>145</ele>
        <time>2018-08-19T10:26:57Z</time>
      </trkpt>
      <trkpt lat="48.68639" lon="1.94926">
        <ele>145</ele>
        <time>2018-08-19T10:27:01Z</time>
      </trkpt>
      <trkpt lat="48.68636" lon="1.94936">
        <ele>147</ele>
        <time>2018-08-19T10:27:05Z</time>
      </trkpt>
      <trkpt lat="48.68634" lon="1.94945">
        <ele>151</ele>
        <time>2018-08-19T10:27:09Z</time>
      </trkpt>
      <trkpt lat="48.68631" lon="1.94954">
        <ele>155</ele>
        <time>2018-08-19T10:27:13Z</time>
      </trkpt>
      <trkpt lat="48.68627" lon="1.94962">
        <ele>155</ele>
        <time>2018-08-19T10:27:17Z</time>
      </trkpt>
      <trkpt lat="48.68624" lon="1.94971">
        <ele>157</ele>
        <time>2018-08-19T10:27:21Z</time>
      </trkpt>
      <trkpt lat="48.68622" lon="1.9498">
        <ele>160</ele>
        <time>2018-08-19T10:27:25Z</time>
      </trkpt>
      <trkpt lat="48.68618" lon="1.94986">
        <ele>161</ele>
        <time>2018-08-19T10:27:29Z</time>
      </trkpt>
      <trkpt lat="48.68615" lon="1.94993">
        <ele>159</ele>
        <time>2018-08-19T10:27:33Z</time>
      </trkpt>
      <trkpt lat="48.68612" lon="1.95001">
        <ele>159</ele>
        <time>2018-08-19T10:27:37Z</time>
      </trkpt>
      <trkpt lat="48.6861" lon="1.9501">
        <ele>158</ele>
        <time>2018-08-19T10:27:41Z</time>
      </trkpt>
      <trkpt lat="48.68607" lon="1.9502">
        <ele>158</ele>
        <time>2018-08-19T10:27:45Z</time>
      </trkpt>
      <trkpt lat="48.68604" lon="1.95027">
        <ele>158</ele>
        <time>2018-08-19T10:27:49Z</time>
      </trkpt>
      <trkpt lat="48.68601" lon="1.95036">
        <ele>158</ele>
        <time>2018-08-19T10:27:53Z</time>
      </trkpt>
      <trkpt lat="48.68598" lon="1.95044">
        <ele>158</ele>
        <time>2018-08-19T10:27:57Z</time>
      </trkpt>
      <trkpt lat="48.68595" lon="1.95052">
        <ele>156</ele>
        <time>2018-08-19T10:28:01Z</time>
      </trkpt>
      <trkpt lat="48.68591" lon="1.9506">
        <ele>155</ele>
        <time>2018-08-19T10:28:05Z</time>
      </trkpt>
      <trkpt lat="48.68589" lon="1.95067">
        <ele>155</ele>
        <time>2018-08-19T10:28:09Z</time>
      </trkpt>
      <trkpt lat="48.68585" lon="1.95074">
        <ele>155</ele>
        <time>2018-08-19T10:28:13Z</time>
      </trkpt>
      <trkpt lat="48.6858" lon="1.95083">
        <ele>155</ele>
        <time>2018-08-19T10:28:17Z</time>
      </trkpt>
      <trkpt lat="48.68577" lon="1.9509">
        <ele>154</ele>
        <time>2018-08-19T10:28:21Z</time>
      </trkpt>
      <trkpt lat="48.68574" lon="1.95097">
        <ele>152</ele>
        <time>2018-08-19T10:28:25Z</time>
      </trkpt>
      <trkpt lat="48.6857" lon="1.95106">
        <ele>149</ele>
        <time>2018-08-19T10:28:29Z</time>
      </trkpt>
      <trkpt lat="48.68568" lon="1.95114">
        <ele>149</ele>
        <time>2018-08-19T10:28:33Z</time>
      </trkpt>
      <trkpt lat="48.68566" lon="1.95122">
        <ele>149</ele>
        <time>2018-08-19T10:28:37Z</time>
      </trkpt>
      <trkpt lat="48.68563" lon="1.95132">
        <ele>148</ele>
        <time>2018-08-19T10:28:41Z</time>
      </trkpt>
      <trkpt lat="48.68559" lon="1.95141">
        <ele>148</ele>
        <time>2018-08-19T10:28:45Z</time>
      </trkpt>
      <trkpt lat="48.68555" lon="1.95151">
        <ele>148</ele>
        <time>2018-08-19T10:28:49Z</time>
      </trkpt>
      <trkpt lat="48.68551" lon="1.95159">
        <ele>149</ele>
        <time>2018-08-19T10:28:53Z</time>
      </trkpt>
      <trkpt lat="48.68547" lon="1.95167">
        <ele>149</ele>
        <time>2018-08-19T10:28:57Z</time>
      </trkpt>
      <trkpt lat="48.68544" lon="1.95176">
        <ele>149</ele>
        <time>2018-08-19T10:29:01Z</time>
      </trkpt>
      <trkpt lat="48.68542" lon="1.95182">
        <ele>149</ele>
        <time>2018-08-19T10:29:05Z</time>
      </trkpt>
      <trkpt lat="48.68544" lon="1.95185">
        <ele>155</ele>
        <time>2018-08-19T10:29:11Z</time>
      </trkpt>
      <trkpt lat="48.68545" lon="1.95187">
        <ele>163</ele>
        <time>2018-08-19T10:29:18Z</time>
      </trkpt>
      <trkpt lat="48.68542" lon="1.95181">
        <ele>167</ele>
        <time>2018-08-19T10:29:22Z</time>
      </trkpt>
      <trkpt lat="48.68538" lon="1.95183">
        <ele>171</ele>
        <time>2018-08-19T10:29:26Z</time>
      </trkpt>
      <trkpt lat="48.68533" lon="1.9519">
        <ele>171</ele>
        <time>2018-08-19T10:29:30Z</time>
      </trkpt>
      <trkpt lat="48.6853" lon="1.95198">
        <ele>171</ele>
        <time>2018-08-19T10:29:34Z</time>
      </trkpt>
      <trkpt lat="48.68528" lon="1.95208">
        <ele>171</ele>
        <time>2018-08-19T10:29:38Z</time>
      </trkpt>
      <trkpt lat="48.68527" lon="1.95218">
        <ele>168</ele>
        <time>2018-08-19T10:29:42Z</time>
      </trkpt>
      <trkpt lat="48.68522" lon="1.95227">
        <ele>167</ele>
        <time>2018-08-19T10:29:46Z</time>
      </trkpt>
      <trkpt lat="48.6852" lon="1.95235">
        <ele>167</ele>
        <time>2018-08-19T10:29:50Z</time>
      </trkpt>
      <trkpt lat="48.68518" lon="1.95244">
        <ele>167</ele>
        <time>2018-08-19T10:29:54Z</time>
      </trkpt>
      <trkpt lat="48.68514" lon="1.95253">
        <ele>167</ele>
        <time>2018-08-19T10:29:58Z</time>
      </trkpt>
      <trkpt lat="48.68511" lon="1.95262">
        <ele>167</ele>
        <time>2018-08-19T10:30:02Z</time>
      </trkpt>
      <trkpt lat="48.68509" lon="1.95272">
        <ele>167</ele>
        <time>2018-08-19T10:30:06Z</time>
      </trkpt>
      <trkpt lat="48.68506" lon="1.9528">
        <ele>167</ele>
        <time>2018-08-19T10:30:10Z</time>
      </trkpt>
      <trkpt lat="48.68503" lon="1.95287">
        <ele>164</ele>
        <time>2018-08-19T10:30:14Z</time>
      </trkpt>
      <trkpt lat="48.68501" lon="1.95296">
        <ele>163</ele>
        <time>2018-08-19T10:30:18Z</time>
      </trkpt>
      <trkpt lat="48.68499" lon="1.95304">
        <ele>163</ele>
        <time>2018-08-19T10:30:22Z</time>
      </trkpt>
      <trkpt lat="48.68495" lon="1.95314">
        <ele>163</ele>
        <time>2018-08-19T10:30:26Z</time>
      </trkpt>
      <trkpt lat="48.68491" lon="1.95321">
        <ele>163</ele>
        <time>2018-08-19T10:30:30Z</time>
      </trkpt>
      <trkpt lat="48.68487" lon="1.95329">
        <ele>162</ele>
        <time>2018-08-19T10:30:34Z</time>
      </trkpt>
      <trkpt lat="48.68484" lon="1.95338">
        <ele>162</ele>
        <time>2018-08-19T10:30:38Z</time>
      </trkpt>
      <trkpt lat="48.68482" lon="1.95348">
        <ele>162</ele>
        <time>2018-08-19T10:30:42Z</time>
      </trkpt>
      <trkpt lat="48.68478" lon="1.95356">
        <ele>162</ele>
        <time>2018-08-19T10:30:46Z</time>
      </trkpt>
      <trkpt lat="48.68475" lon="1.95365">
        <ele>162</ele>
        <time>2018-08-19T10:30:50Z</time>
      </trkpt>
      <trkpt lat="48.68471" lon="1.95372">
        <ele>162</ele>
        <time>2018-08-19T10:30:54Z</time>
      </trkpt>
      <trkpt lat="48.68468" lon="1.9538">
        <ele>161</ele>
        <time>2018-08-19T10:30:58Z</time>
      </trkpt>
      <trkpt lat="48.68464" lon="1.95389">
        <ele>160</ele>
        <time>2018-08-19T10:31:02Z</time>
      </trkpt>
      <trkpt lat="48.68461" lon="1.95397">
        <ele>160</ele>
        <time>2018-08-19T10:31:06Z</time>
      </trkpt>
      <trkpt lat="48.68457" lon="1.95405">
        <ele>160</ele>
        <time>2018-08-19T10:31:10Z</time>
      </trkpt>
      <trkpt lat="48.68453" lon="1.95414">
        <ele>160</ele>
        <time>2018-08-19T10:31:14Z</time>
      </trkpt>
      <trkpt lat="48.6845" lon="1.95423">
        <ele>160</ele>
        <time>2018-08-19T10:31:18Z</time>
      </trkpt>
      <trkpt lat="48.68446" lon="1.95431">
        <ele>160</ele>
        <time>2018-08-19T10:31:22Z</time>
      </trkpt>
      <trkpt lat="48.68443" lon="1.95439">
        <ele>160</ele>
        <time>2018-08-19T10:31:26Z</time>
      </trkpt>
      <trkpt lat="48.68439" lon="1.95447">
        <ele>160</ele>
        <time>2018-08-19T10:31:30Z</time>
      </trkpt>
      <trkpt lat="48.68436" lon="1.95454">
        <ele>160</ele>
        <time>2018-08-19T10:31:34Z</time>
      </trkpt>
      <trkpt lat="48.68433" lon="1.95462">
        <ele>160</ele>
        <time>2018-08-19T10:31:38Z</time>
      </trkpt>
      <trkpt lat="48.68428" lon="1.9547">
        <ele>160</ele>
        <time>2018-08-19T10:31:42Z</time>
      </trkpt>
      <trkpt lat="48.68426" lon="1.95473">
        <ele>160</ele>
        <time>2018-08-19T10:31:50Z</time>
      </trkpt>
      <trkpt lat="48.68427" lon="1.95474">
        <ele>160</ele>
        <time>2018-08-19T10:31:56Z</time>
      </trkpt>
      <trkpt lat="48.68428" lon="1.95472">
        <ele>161</ele>
        <time>2018-08-19T10:32:06Z</time>
      </trkpt>
      <trkpt lat="48.68428" lon="1.95474">
        <ele>163</ele>
        <time>2018-08-19T10:32:16Z</time>
      </trkpt>
      <trkpt lat="48.68427" lon="1.95476">
        <ele>165</ele>
        <time>2018-08-19T10:32:23Z</time>
      </trkpt>
      <trkpt lat="48.68425" lon="1.95483">
        <ele>165</ele>
        <time>2018-08-19T10:32:27Z</time>
      </trkpt>
      <trkpt lat="48.68422" lon="1.95491">
        <ele>165</ele>
        <time>2018-08-19T10:32:31Z</time>
      </trkpt>
      <trkpt lat="48.6842" lon="1.95498">
        <ele>165</ele>
        <time>2018-08-19T10:32:35Z</time>
      </trkpt>
      <trkpt lat="48.68419" lon="1.95504">
        <ele>165</ele>
        <time>2018-08-19T10:32:39Z</time>
      </trkpt>
      <trkpt lat="48.68416" lon="1.95509">
        <ele>165</ele>
        <time>2018-08-19T10:32:43Z</time>
      </trkpt>
      <trkpt lat="48.68413" lon="1.95514">
        <ele>165</ele>
        <time>2018-08-19T10:32:47Z</time>
      </trkpt>
      <trkpt lat="48.68411" lon="1.9552">
        <ele>165</ele>
        <time>2018-08-19T10:32:51Z</time>
      </trkpt>
      <trkpt lat="48.68407" lon="1.95525">
        <ele>165</ele>
        <time>2018-08-19T10:32:56Z</time>
      </trkpt>
      <trkpt lat="48.684" lon="1.95526">
        <ele>165</ele>
        <time>2018-08-19T10:33:00Z</time>
      </trkpt>
      <trkpt lat="48.68397" lon="1.95516">
        <ele>165</ele>
        <time>2018-08-19T10:33:04Z</time>
      </trkpt>
      <trkpt lat="48.68399" lon="1.95513">
        <ele>165</ele>
        <time>2018-08-19T10:33:08Z</time>
      </trkpt>
      <trkpt lat="48.68398" lon="1.9551">
        <ele>165</ele>
        <time>2018-08-19T10:33:12Z</time>
      </trkpt>
      <trkpt lat="48.68392" lon="1.95508">
        <ele>164</ele>
        <time>2018-08-19T10:33:17Z</time>
      </trkpt>
      <trkpt lat="48.68389" lon="1.95508">
        <ele>163</ele>
        <time>2018-08-19T10:33:21Z</time>
      </trkpt>
      <trkpt lat="48.6839" lon="1.95509">
        <ele>163</ele>
        <time>2018-08-19T10:33:27Z</time>
      </trkpt>
      <trkpt lat="48.68393" lon="1.95511">
        <ele>165</ele>
        <time>2018-08-19T10:33:34Z</time>
      </trkpt>
      <trkpt lat="48.68391" lon="1.95511">
        <ele>169</ele>
        <time>2018-08-19T10:33:39Z</time>
      </trkpt>
      <trkpt lat="48.6839" lon="1.9551">
        <ele>174</ele>
        <time>2018-08-19T10:33:58Z</time>
      </trkpt>
      <trkpt lat="48.68388" lon="1.95508">
        <ele>172</ele>
        <time>2018-08-19T10:34:04Z</time>
      </trkpt>
      <trkpt lat="48.68389" lon="1.95508">
        <ele>171</ele>
        <time>2018-08-19T10:34:33Z</time>
      </trkpt>
      <trkpt lat="48.68389" lon="1.95509">
        <ele>171</ele>
        <time>2018-08-19T10:35:05Z</time>
      </trkpt>
      <trkpt lat="48.68387" lon="1.95512">
        <ele>170</ele>
        <time>2018-08-19T10:35:09Z</time>
      </trkpt>
      <trkpt lat="48.68384" lon="1.95514">
        <ele>167</ele>
        <time>2018-08-19T10:35:13Z</time>
      </trkpt>
      <trkpt lat="48.68384" lon="1.95515">
        <ele>165</ele>
        <time>2018-08-19T10:35:19Z</time>
      </trkpt>
      <trkpt lat="48.68386" lon="1.95511">
        <ele>165</ele>
        <time>2018-08-19T10:35:23Z</time>
      </trkpt>
      <trkpt lat="48.68389" lon="1.95513">
        <ele>165</ele>
        <time>2018-08-19T10:35:28Z</time>
      </trkpt>
      <trkpt lat="48.68391" lon="1.95516">
        <ele>168</ele>
        <time>2018-08-19T10:35:32Z</time>
      </trkpt>
      <trkpt lat="48.68394" lon="1.9552">
        <ele>172</ele>
        <time>2018-08-19T10:35:36Z</time>
      </trkpt>
      <trkpt lat="48.68395" lon="1.95521">
        <ele>179</ele>
        <time>2018-08-19T10:35:46Z</time>
      </trkpt>
      <trkpt lat="48.68396" lon="1.95519">
        <ele>187</ele>
        <time>2018-08-19T10:35:55Z</time>
      </trkpt>
      <trkpt lat="48.68395" lon="1.95519">
        <ele>189</ele>
        <time>2018-08-19T10:36:00Z</time>
      </trkpt>
      <trkpt lat="48.68392" lon="1.95515">
        <ele>190</ele>
        <time>2018-08-19T10:36:11Z</time>
      </trkpt>
      <trkpt lat="48.68391" lon="1.95514">
        <ele>187</ele>
        <time>2018-08-19T10:36:15Z</time>
      </trkpt>
      <trkpt lat="48.6839" lon="1.95515">
        <ele>185</ele>
        <time>2018-08-19T10:36:19Z</time>
      </trkpt>
      <trkpt lat="48.68388" lon="1.95514">
        <ele>182</ele>
        <time>2018-08-19T10:36:37Z</time>
      </trkpt>
      <trkpt lat="48.68383" lon="1.95512">
        <ele>182</ele>
        <time>2018-08-19T10:36:42Z</time>
      </trkpt>
      <trkpt lat="48.68379" lon="1.95508">
        <ele>178</ele>
        <time>2018-08-19T10:36:46Z</time>
      </trkpt>
      <trkpt lat="48.68375" lon="1.95505">
        <ele>173</ele>
        <time>2018-08-19T10:36:51Z</time>
      </trkpt>
      <trkpt lat="48.68374" lon="1.95503">
        <ele>171</ele>
        <time>2018-08-19T10:36:58Z</time>
      </trkpt>
      <trkpt lat="48.68376" lon="1.95502">
        <ele>170</ele>
        <time>2018-08-19T10:37:03Z</time>
      </trkpt>
      <trkpt lat="48.68381" lon="1.95503">
        <ele>170</ele>
        <time>2018-08-19T10:37:08Z</time>
      </trkpt>
      <trkpt lat="48.68384" lon="1.95504">
        <ele>170</ele>
        <time>2018-08-19T10:37:12Z</time>
      </trkpt>
      <trkpt lat="48.68388" lon="1.95507">
        <ele>170</ele>
        <time>2018-08-19T10:37:17Z</time>
      </trkpt>
      <trkpt lat="48.68389" lon="1.95509">
        <ele>170</ele>
        <time>2018-08-19T10:37:21Z</time>
      </trkpt>
      <trkpt lat="48.68391" lon="1.95512">
        <ele>170</ele>
        <time>2018-08-19T10:37:27Z</time>
      </trkpt>
      <trkpt lat="48.6839" lon="1.95514">
        <ele>171</ele>
        <time>2018-08-19T10:37:37Z</time>
      </trkpt>
      <trkpt lat="48.68389" lon="1.95518">
        <ele>171</ele>
        <time>2018-08-19T10:37:41Z</time>
      </trkpt>
      <trkpt lat="48.68388" lon="1.95522">
        <ele>173</ele>
        <time>2018-08-19T10:37:47Z</time>
      </trkpt>
      <trkpt lat="48.68388" lon="1.9552">
        <ele>175</ele>
        <time>2018-08-19T10:37:52Z</time>
      </trkpt>
      <trkpt lat="48.68389" lon="1.95516">
        <ele>173</ele>
        <time>2018-08-19T10:37:57Z</time>
      </trkpt>
      <trkpt lat="48.68388" lon="1.95515">
        <ele>170</ele>
        <time>2018-08-19T10:38:04Z</time>
      </trkpt>
      <trkpt lat="48.68385" lon="1.95513">
        <ele>168</ele>
        <time>2018-08-19T10:38:08Z</time>
      </trkpt>
      <trkpt lat="48.6838" lon="1.9551">
        <ele>167</ele>
        <time>2018-08-19T10:38:13Z</time>
      </trkpt>
      <trkpt lat="48.68377" lon="1.95507">
        <ele>166</ele>
        <time>2018-08-19T10:38:17Z</time>
      </trkpt>
      <trkpt lat="48.68376" lon="1.95507">
        <ele>166</ele>
        <time>2018-08-19T10:38:21Z</time>
      </trkpt>
      <trkpt lat="48.68379" lon="1.95509">
        <ele>166</ele>
        <time>2018-08-19T10:38:26Z</time>
      </trkpt>
      <trkpt lat="48.6838" lon="1.95513">
        <ele>163</ele>
        <time>2018-08-19T10:38:30Z</time>
      </trkpt>
      <trkpt lat="48.68379" lon="1.95518">
        <ele>163</ele>
        <time>2018-08-19T10:38:34Z</time>
      </trkpt>
      <trkpt lat="48.68381" lon="1.95525">
        <ele>163</ele>
        <time>2018-08-19T10:38:39Z</time>
      </trkpt>
      <trkpt lat="48.68386" lon="1.9553">
        <ele>163</ele>
        <time>2018-08-19T10:38:43Z</time>
      </trkpt>
      <trkpt lat="48.68388" lon="1.95536">
        <ele>164</ele>
        <time>2018-08-19T10:38:47Z</time>
      </trkpt>
      <trkpt lat="48.68396" lon="1.95538">
        <ele>166</ele>
        <time>2018-08-19T10:38:52Z</time>
      </trkpt>
      <trkpt lat="48.68399" lon="1.9554">
        <ele>169</ele>
        <time>2018-08-19T10:38:57Z</time>
      </trkpt>
      <trkpt lat="48.68401" lon="1.95544">
        <ele>170</ele>
        <time>2018-08-19T10:39:02Z</time>
      </trkpt>
      <trkpt lat="48.68404" lon="1.95547">
        <ele>170</ele>
        <time>2018-08-19T10:39:06Z</time>
      </trkpt>
      <trkpt lat="48.68408" lon="1.9555">
        <ele>170</ele>
        <time>2018-08-19T10:39:10Z</time>
      </trkpt>
      <trkpt lat="48.68414" lon="1.95554">
        <ele>170</ele>
        <time>2018-08-19T10:39:15Z</time>
      </trkpt>
      <trkpt lat="48.68419" lon="1.95555">
        <ele>171</ele>
        <time>2018-08-19T10:39:19Z</time>
      </trkpt>
      <trkpt lat="48.68422" lon="1.95558">
        <ele>171</ele>
        <time>2018-08-19T10:39:23Z</time>
      </trkpt>
      <trkpt lat="48.68426" lon="1.95562">
        <ele>171</ele>
        <time>2018-08-19T10:39:27Z</time>
      </trkpt>
      <trkpt lat="48.68432" lon="1.95564">
        <ele>171</ele>
        <time>2018-08-19T10:39:31Z</time>
      </trkpt>
      <trkpt lat="48.68438" lon="1.9557">
        <ele>171</ele>
        <time>2018-08-19T10:39:36Z</time>
      </trkpt>
      <trkpt lat="48.6844" lon="1.95577">
        <ele>171</ele>
        <time>2018-08-19T10:39:41Z</time>
      </trkpt>
      <trkpt lat="48.68444" lon="1.9558">
        <ele>170</ele>
        <time>2018-08-19T10:39:45Z</time>
      </trkpt>
      <trkpt lat="48.68447" lon="1.95584">
        <ele>170</ele>
        <time>2018-08-19T10:39:49Z</time>
      </trkpt>
      <trkpt lat="48.6845" lon="1.95586">
        <ele>170</ele>
        <time>2018-08-19T10:39:53Z</time>
      </trkpt>
      <trkpt lat="48.68453" lon="1.95589">
        <ele>169</ele>
        <time>2018-08-19T10:39:57Z</time>
      </trkpt>
      <trkpt lat="48.68457" lon="1.95593">
        <ele>169</ele>
        <time>2018-08-19T10:40:01Z</time>
      </trkpt>
      <trkpt lat="48.68463" lon="1.95595">
        <ele>169</ele>
        <time>2018-08-19T10:40:05Z</time>
      </trkpt>
      <trkpt lat="48.68469" lon="1.95597">
        <ele>169</ele>
        <time>2018-08-19T10:40:09Z</time>
      </trkpt>
      <trkpt lat="48.68472" lon="1.95599">
        <ele>168</ele>
        <time>2018-08-19T10:40:13Z</time>
      </trkpt>
      <trkpt lat="48.68475" lon="1.95604">
        <ele>167</ele>
        <time>2018-08-19T10:40:17Z</time>
      </trkpt>
      <trkpt lat="48.68478" lon="1.95607">
        <ele>167</ele>
        <time>2018-08-19T10:40:21Z</time>
      </trkpt>
      <trkpt lat="48.68482" lon="1.95611">
        <ele>167</ele>
        <time>2018-08-19T10:40:25Z</time>
      </trkpt>
      <trkpt lat="48.68486" lon="1.95615">
        <ele>166</ele>
        <time>2018-08-19T10:40:29Z</time>
      </trkpt>
      <trkpt lat="48.6849" lon="1.95619">
        <ele>165</ele>
        <time>2018-08-19T10:40:33Z</time>
      </trkpt>
      <trkpt lat="48.68495" lon="1.95623">
        <ele>164</ele>
        <time>2018-08-19T10:40:38Z</time>
      </trkpt>
      <trkpt lat="48.68498" lon="1.95627">
        <ele>164</ele>
        <time>2018-08-19T10:40:42Z</time>
      </trkpt>
      <trkpt lat="48.68502" lon="1.95632">
        <ele>164</ele>
        <time>2018-08-19T10:40:46Z</time>
      </trkpt>
      <trkpt lat="48.68507" lon="1.95636">
        <ele>164</ele>
        <time>2018-08-19T10:40:51Z</time>
      </trkpt>
      <trkpt lat="48.68513" lon="1.9564">
        <ele>164</ele>
        <time>2018-08-19T10:40:55Z</time>
      </trkpt>
      <trkpt lat="48.6852" lon="1.95644">
        <ele>164</ele>
        <time>2018-08-19T10:41:00Z</time>
      </trkpt>
      <trkpt lat="48.68525" lon="1.95647">
        <ele>164</ele>
        <time>2018-08-19T10:41:04Z</time>
      </trkpt>
      <trkpt lat="48.68528" lon="1.95652">
        <ele>164</ele>
        <time>2018-08-19T10:41:08Z</time>
      </trkpt>
      <trkpt lat="48.68534" lon="1.95654">
        <ele>164</ele>
        <time>2018-08-19T10:41:12Z</time>
      </trkpt>
      <trkpt lat="48.68539" lon="1.95659">
        <ele>164</ele>
        <time>2018-08-19T10:41:17Z</time>
      </trkpt>
      <trkpt lat="48.68543" lon="1.95664">
        <ele>164</ele>
        <time>2018-08-19T10:41:21Z</time>
      </trkpt>
      <trkpt lat="48.6855" lon="1.95667">
        <ele>164</ele>
        <time>2018-08-19T10:41:25Z</time>
      </trkpt>
      <trkpt lat="48.68556" lon="1.95669">
        <ele>164</ele>
        <time>2018-08-19T10:41:29Z</time>
      </trkpt>
      <trkpt lat="48.68559" lon="1.95675">
        <ele>164</ele>
        <time>2018-08-19T10:41:33Z</time>
      </trkpt>
      <trkpt lat="48.68562" lon="1.95681">
        <ele>165</ele>
        <time>2018-08-19T10:41:38Z</time>
      </trkpt>
      <trkpt lat="48.68566" lon="1.95685">
        <ele>165</ele>
        <time>2018-08-19T10:41:42Z</time>
      </trkpt>
      <trkpt lat="48.68569" lon="1.95689">
        <ele>165</ele>
        <time>2018-08-19T10:41:47Z</time>
      </trkpt>
      <trkpt lat="48.68572" lon="1.9569">
        <ele>165</ele>
        <time>2018-08-19T10:41:51Z</time>
      </trkpt>
      <trkpt lat="48.68574" lon="1.95694">
        <ele>165</ele>
        <time>2018-08-19T10:41:55Z</time>
      </trkpt>
      <trkpt lat="48.68581" lon="1.95698">
        <ele>165</ele>
        <time>2018-08-19T10:42:00Z</time>
      </trkpt>
      <trkpt lat="48.68585" lon="1.95701">
        <ele>165</ele>
        <time>2018-08-19T10:42:04Z</time>
      </trkpt>
      <trkpt lat="48.68591" lon="1.95704">
        <ele>165</ele>
        <time>2018-08-19T10:42:08Z</time>
      </trkpt>
      <trkpt lat="48.68594" lon="1.95708">
        <ele>165</ele>
        <time>2018-08-19T10:42:12Z</time>
      </trkpt>
      <trkpt lat="48.68598" lon="1.95712">
        <ele>165</ele>
        <time>2018-08-19T10:42:17Z</time>
      </trkpt>
      <trkpt lat="48.68602" lon="1.95717">
        <ele>165</ele>
        <time>2018-08-19T10:42:21Z</time>
      </trkpt>
      <trkpt lat="48.68606" lon="1.95721">
        <ele>165</ele>
        <time>2018-08-19T10:42:25Z</time>
      </trkpt>
      <trkpt lat="48.68609" lon="1.95725">
        <ele>165</ele>
        <time>2018-08-19T10:42:30Z</time>
      </trkpt>
      <trkpt lat="48.68613" lon="1.95728">
        <ele>165</ele>
        <time>2018-08-19T10:42:34Z</time>
      </trkpt>
      <trkpt lat="48.68618" lon="1.95733">
        <ele>163</ele>
        <time>2018-08-19T10:42:39Z</time>
      </trkpt>
      <trkpt lat="48.68623" lon="1.95737">
        <ele>163</ele>
        <time>2018-08-19T10:42:43Z</time>
      </trkpt>
      <trkpt lat="48.68626" lon="1.95741">
        <ele>163</ele>
        <time>2018-08-19T10:42:47Z</time>
      </trkpt>
      <trkpt lat="48.68631" lon="1.95746">
        <ele>163</ele>
        <time>2018-08-19T10:42:52Z</time>
      </trkpt>
      <trkpt lat="48.68638" lon="1.95751">
        <ele>163</ele>
        <time>2018-08-19T10:42:57Z</time>
      </trkpt>
      <trkpt lat="48.68644" lon="1.95755">
        <ele>163</ele>
        <time>2018-08-19T10:43:01Z</time>
      </trkpt>
      <trkpt lat="48.68649" lon="1.95759">
        <ele>163</ele>
        <time>2018-08-19T10:43:05Z</time>
      </trkpt>
      <trkpt lat="48.68654" lon="1.95763">
        <ele>163</ele>
        <time>2018-08-19T10:43:10Z</time>
      </trkpt>
      <trkpt lat="48.68657" lon="1.95767">
        <ele>163</ele>
        <time>2018-08-19T10:43:14Z</time>
      </trkpt>
      <trkpt lat="48.68661" lon="1.95771">
        <ele>164</ele>
        <time>2018-08-19T10:43:18Z</time>
      </trkpt>
      <trkpt lat="48.68665" lon="1.95774">
        <ele>164</ele>
        <time>2018-08-19T10:43:22Z</time>
      </trkpt>
      <trkpt lat="48.68671" lon="1.95777">
        <ele>164</ele>
        <time>2018-08-19T10:43:26Z</time>
      </trkpt>
      <trkpt lat="48.68675" lon="1.95781">
        <ele>164</ele>
        <time>2018-08-19T10:43:30Z</time>
      </trkpt>
      <trkpt lat="48.68681" lon="1.95786">
        <ele>164</ele>
        <time>2018-08-19T10:43:35Z</time>
      </trkpt>
      <trkpt lat="48.68687" lon="1.95789">
        <ele>164</ele>
        <time>2018-08-19T10:43:40Z</time>
      </trkpt>
      <trkpt lat="48.68693" lon="1.95794">
        <ele>164</ele>
        <time>2018-08-19T10:43:44Z</time>
      </trkpt>
      <trkpt lat="48.68696" lon="1.95798">
        <ele>164</ele>
        <time>2018-08-19T10:43:48Z</time>
      </trkpt>
      <trkpt lat="48.68697" lon="1.95803">
        <ele>164</ele>
        <time>2018-08-19T10:43:52Z</time>
      </trkpt>
      <trkpt lat="48.68701" lon="1.95807">
        <ele>164</ele>
        <time>2018-08-19T10:43:56Z</time>
      </trkpt>
      <trkpt lat="48.68707" lon="1.95808">
        <ele>164</ele>
        <time>2018-08-19T10:44:00Z</time>
      </trkpt>
      <trkpt lat="48.68712" lon="1.95811">
        <ele>164</ele>
        <time>2018-08-19T10:44:04Z</time>
      </trkpt>
      <trkpt lat="48.68716" lon="1.95816">
        <ele>164</ele>
        <time>2018-08-19T10:44:08Z</time>
      </trkpt>
      <trkpt lat="48.68721" lon="1.9582">
        <ele>164</ele>
        <time>2018-08-19T10:44:12Z</time>
      </trkpt>
      <trkpt lat="48.68724" lon="1.95824">
        <ele>164</ele>
        <time>2018-08-19T10:44:16Z</time>
      </trkpt>
      <trkpt lat="48.68728" lon="1.95829">
        <ele>164</ele>
        <time>2018-08-19T10:44:20Z</time>
      </trkpt>
      <trkpt lat="48.68732" lon="1.95834">
        <ele>164</ele>
        <time>2018-08-19T10:44:24Z</time>
      </trkpt>
      <trkpt lat="48.68736" lon="1.95838">
        <ele>164</ele>
        <time>2018-08-19T10:44:29Z</time>
      </trkpt>
      <trkpt lat="48.6874" lon="1.95843">
        <ele>164</ele>
        <time>2018-08-19T10:44:33Z</time>
      </trkpt>
      <trkpt lat="48.68746" lon="1.95846">
        <ele>164</ele>
        <time>2018-08-19T10:44:37Z</time>
      </trkpt>
      <trkpt lat="48.68749" lon="1.9585">
        <ele>164</ele>
        <time>2018-08-19T10:44:41Z</time>
      </trkpt>
      <trkpt lat="48.68754" lon="1.95857">
        <ele>164</ele>
        <time>2018-08-19T10:44:46Z</time>
      </trkpt>
      <trkpt lat="48.68757" lon="1.95861">
        <ele>164</ele>
        <time>2018-08-19T10:44:50Z</time>
      </trkpt>
      <trkpt lat="48.68763" lon="1.95866">
        <ele>164</ele>
        <time>2018-08-19T10:44:54Z</time>
      </trkpt>
      <trkpt lat="48.68768" lon="1.9587">
        <ele>164</ele>
        <time>2018-08-19T10:44:58Z</time>
      </trkpt>
      <trkpt lat="48.68773" lon="1.95874">
        <ele>164</ele>
        <time>2018-08-19T10:45:02Z</time>
      </trkpt>
      <trkpt lat="48.68777" lon="1.95877">
        <ele>164</ele>
        <time>2018-08-19T10:45:06Z</time>
      </trkpt>
      <trkpt lat="48.68781" lon="1.9588">
        <ele>164</ele>
        <time>2018-08-19T10:45:10Z</time>
      </trkpt>
      <trkpt lat="48.68786" lon="1.95885">
        <ele>164</ele>
        <time>2018-08-19T10:45:14Z</time>
      </trkpt>
      <trkpt lat="48.68792" lon="1.95888">
        <ele>164</ele>
        <time>2018-08-19T10:45:18Z</time>
      </trkpt>
      <trkpt lat="48.688" lon="1.95891">
        <ele>164</ele>
        <time>2018-08-19T10:45:22Z</time>
      </trkpt>
      <trkpt lat="48.68808" lon="1.95894">
        <ele>164</ele>
        <time>2018-08-19T10:45:27Z</time>
      </trkpt>
      <trkpt lat="48.68814" lon="1.95898">
        <ele>164</ele>
        <time>2018-08-19T10:45:31Z</time>
      </trkpt>
      <trkpt lat="48.68819" lon="1.95903">
        <ele>164</ele>
        <time>2018-08-19T10:45:36Z</time>
      </trkpt>
      <trkpt lat="48.68823" lon="1.95906">
        <ele>162</ele>
        <time>2018-08-19T10:45:40Z</time>
      </trkpt>
      <trkpt lat="48.68827" lon="1.95909">
        <ele>161</ele>
        <time>2018-08-19T10:45:44Z</time>
      </trkpt>
      <trkpt lat="48.68834" lon="1.95913">
        <ele>160</ele>
        <time>2018-08-19T10:45:49Z</time>
      </trkpt>
      <trkpt lat="48.68839" lon="1.95916">
        <ele>160</ele>
        <time>2018-08-19T10:45:53Z</time>
      </trkpt>
      <trkpt lat="48.68844" lon="1.9592">
        <ele>160</ele>
        <time>2018-08-19T10:45:57Z</time>
      </trkpt>
      <trkpt lat="48.68849" lon="1.95924">
        <ele>160</ele>
        <time>2018-08-19T10:46:02Z</time>
      </trkpt>
      <trkpt lat="48.68853" lon="1.95929">
        <ele>160</ele>
        <time>2018-08-19T10:46:07Z</time>
      </trkpt>
      <trkpt lat="48.68856" lon="1.95934">
        <ele>160</ele>
        <time>2018-08-19T10:46:11Z</time>
      </trkpt>
      <trkpt lat="48.68865" lon="1.95935">
        <ele>160</ele>
        <time>2018-08-19T10:46:16Z</time>
      </trkpt>
      <trkpt lat="48.6887" lon="1.9594">
        <ele>161</ele>
        <time>2018-08-19T10:46:21Z</time>
      </trkpt>
      <trkpt lat="48.68874" lon="1.95946">
        <ele>161</ele>
        <time>2018-08-19T10:46:25Z</time>
      </trkpt>
      <trkpt lat="48.68878" lon="1.9595">
        <ele>161</ele>
        <time>2018-08-19T10:46:30Z</time>
      </trkpt>
      <trkpt lat="48.68881" lon="1.95956">
        <ele>161</ele>
        <time>2018-08-19T10:46:34Z</time>
      </trkpt>
      <trkpt lat="48.68883" lon="1.95959">
        <ele>161</ele>
        <time>2018-08-19T10:46:38Z</time>
      </trkpt>
      <trkpt lat="48.68888" lon="1.95965">
        <ele>161</ele>
        <time>2018-08-19T10:46:44Z</time>
      </trkpt>
      <trkpt lat="48.6889" lon="1.9597">
        <ele>161</ele>
        <time>2018-08-19T10:46:49Z</time>
      </trkpt>
      <trkpt lat="48.68895" lon="1.95975">
        <ele>161</ele>
        <time>2018-08-19T10:46:53Z</time>
      </trkpt>
      <trkpt lat="48.68899" lon="1.9598">
        <ele>161</ele>
        <time>2018-08-19T10:46:57Z</time>
      </trkpt>
      <trkpt lat="48.68904" lon="1.95984">
        <ele>161</ele>
        <time>2018-08-19T10:47:01Z</time>
      </trkpt>
      <trkpt lat="48.68907" lon="1.95988">
        <ele>161</ele>
        <time>2018-08-19T10:47:05Z</time>
      </trkpt>
      <trkpt lat="48.68911" lon="1.95993">
        <ele>161</ele>
        <time>2018-08-19T10:47:09Z</time>
      </trkpt>
      <trkpt lat="48.68915" lon="1.95996">
        <ele>161</ele>
        <time>2018-08-19T10:47:13Z</time>
      </trkpt>
      <trkpt lat="48.6892" lon="1.95999">
        <ele>161</ele>
        <time>2018-08-19T10:47:17Z</time>
      </trkpt>
      <trkpt lat="48.68925" lon="1.96004">
        <ele>159</ele>
        <time>2018-08-19T10:47:22Z</time>
      </trkpt>
      <trkpt lat="48.68931" lon="1.9601">
        <ele>159</ele>
        <time>2018-08-19T10:47:27Z</time>
      </trkpt>
      <trkpt lat="48.68936" lon="1.96014">
        <ele>159</ele>
        <time>2018-08-19T10:47:31Z</time>
      </trkpt>
      <trkpt lat="48.68942" lon="1.96019">
        <ele>159</ele>
        <time>2018-08-19T10:47:36Z</time>
      </trkpt>
      <trkpt lat="48.68947" lon="1.96024">
        <ele>159</ele>
        <time>2018-08-19T10:47:41Z</time>
      </trkpt>
      <trkpt lat="48.68953" lon="1.96028">
        <ele>159</ele>
        <time>2018-08-19T10:47:45Z</time>
      </trkpt>
      <trkpt lat="48.68958" lon="1.96033">
        <ele>159</ele>
        <time>2018-08-19T10:47:50Z</time>
      </trkpt>
      <trkpt lat="48.68963" lon="1.96038">
        <ele>159</ele>
        <time>2018-08-19T10:47:54Z</time>
      </trkpt>
      <trkpt lat="48.68967" lon="1.9604">
        <ele>158</ele>
        <time>2018-08-19T10:47:58Z</time>
      </trkpt>
      <trkpt lat="48.68972" lon="1.96046">
        <ele>157</ele>
        <time>2018-08-19T10:48:03Z</time>
      </trkpt>
      <trkpt lat="48.68981" lon="1.96049">
        <ele>157</ele>
        <time>2018-08-19T10:48:08Z</time>
      </trkpt>
      <trkpt lat="48.68984" lon="1.96054">
        <ele>157</ele>
        <time>2018-08-19T10:48:12Z</time>
      </trkpt>
      <trkpt lat="48.68988" lon="1.96057">
        <ele>157</ele>
        <time>2018-08-19T10:48:16Z</time>
      </trkpt>
      <trkpt lat="48.68992" lon="1.96062">
        <ele>157</ele>
        <time>2018-08-19T10:48:21Z</time>
      </trkpt>
      <trkpt lat="48.68996" lon="1.96068">
        <ele>157</ele>
        <time>2018-08-19T10:48:26Z</time>
      </trkpt>
      <trkpt lat="48.69002" lon="1.96071">
        <ele>157</ele>
        <time>2018-08-19T10:48:30Z</time>
      </trkpt>
      <trkpt lat="48.69005" lon="1.96075">
        <ele>156</ele>
        <time>2018-08-19T10:48:34Z</time>
      </trkpt>
      <trkpt lat="48.69008" lon="1.96079">
        <ele>156</ele>
        <time>2018-08-19T10:48:38Z</time>
      </trkpt>
      <trkpt lat="48.69013" lon="1.96082">
        <ele>156</ele>
        <time>2018-08-19T10:48:42Z</time>
      </trkpt>
      <trkpt lat="48.69017" lon="1.96087">
        <ele>156</ele>
        <time>2018-08-19T10:48:46Z</time>
      </trkpt>
      <trkpt lat="48.69021" lon="1.96091">
        <ele>156</ele>
        <time>2018-08-19T10:48:50Z</time>
      </trkpt>
      <trkpt lat="48.69025" lon="1.96092">
        <ele>156</ele>
        <time>2018-08-19T10:48:55Z</time>
      </trkpt>
      <trkpt lat="48.69031" lon="1.96092">
        <ele>156</ele>
        <time>2018-08-19T10:48:59Z</time>
      </trkpt>
      <trkpt lat="48.69038" lon="1.96088">
        <ele>158</ele>
        <time>2018-08-19T10:49:04Z</time>
      </trkpt>
      <trkpt lat="48.69041" lon="1.96085">
        <ele>161</ele>
        <time>2018-08-19T10:49:09Z</time>
      </trkpt>
      <trkpt lat="48.69045" lon="1.96081">
        <ele>162</ele>
        <time>2018-08-19T10:49:14Z</time>
      </trkpt>
      <trkpt lat="48.69051" lon="1.96075">
        <ele>163</ele>
        <time>2018-08-19T10:49:19Z</time>
      </trkpt>
      <trkpt lat="48.69055" lon="1.96073">
        <ele>163</ele>
        <time>2018-08-19T10:49:23Z</time>
      </trkpt>
      <trkpt lat="48.69062" lon="1.96068">
        <ele>163</ele>
        <time>2018-08-19T10:49:28Z</time>
      </trkpt>
      <trkpt lat="48.69066" lon="1.96065">
        <ele>164</ele>
        <time>2018-08-19T10:49:33Z</time>
      </trkpt>
      <trkpt lat="48.6907" lon="1.96061">
        <ele>164</ele>
        <time>2018-08-19T10:49:37Z</time>
      </trkpt>
      <trkpt lat="48.69072" lon="1.96057">
        <ele>165</ele>
        <time>2018-08-19T10:49:41Z</time>
      </trkpt>
      <trkpt lat="48.69078" lon="1.96055">
        <ele>165</ele>
        <time>2018-08-19T10:49:45Z</time>
      </trkpt>
      <trkpt lat="48.69082" lon="1.96051">
        <ele>165</ele>
        <time>2018-08-19T10:49:49Z</time>
      </trkpt>
      <trkpt lat="48.69084" lon="1.96045">
        <ele>165</ele>
        <time>2018-08-19T10:49:53Z</time>
      </trkpt>
      <trkpt lat="48.69088" lon="1.96044">
        <ele>165</ele>
        <time>2018-08-19T10:49:57Z</time>
      </trkpt>
      <trkpt lat="48.69092" lon="1.9604">
        <ele>165</ele>
        <time>2018-08-19T10:50:01Z</time>
      </trkpt>
      <trkpt lat="48.69093" lon="1.96037">
        <ele>165</ele>
        <time>2018-08-19T10:50:08Z</time>
      </trkpt>
      <trkpt lat="48.69095" lon="1.96039">
        <ele>166</ele>
        <time>2018-08-19T10:50:24Z</time>
      </trkpt>
      <trkpt lat="48.69095" lon="1.96045">
        <ele>166</ele>
        <time>2018-08-19T10:50:28Z</time>
      </trkpt>
      <trkpt lat="48.69092" lon="1.96053">
        <ele>166</ele>
        <time>2018-08-19T10:50:32Z</time>
      </trkpt>
      <trkpt lat="48.69094" lon="1.96059">
        <ele>166</ele>
        <time>2018-08-19T10:50:36Z</time>
      </trkpt>
      <trkpt lat="48.69097" lon="1.96064">
        <ele>167</ele>
        <time>2018-08-19T10:50:40Z</time>
      </trkpt>
      <trkpt lat="48.691" lon="1.9607">
        <ele>167</ele>
        <time>2018-08-19T10:50:45Z</time>
      </trkpt>
      <trkpt lat="48.691" lon="1.96071">
        <ele>167</ele>
        <time>2018-08-19T10:50:52Z</time>
      </trkpt>
      <trkpt lat="48.69099" lon="1.9607">
        <ele>167</ele>
        <time>2018-08-19T10:51:00Z</time>
      </trkpt>
      <trkpt lat="48.69098" lon="1.96066">
        <ele>167</ele>
        <time>2018-08-19T10:51:05Z</time>
      </trkpt>
      <trkpt lat="48.69098" lon="1.96061">
        <ele>167</ele>
        <time>2018-08-19T10:51:09Z</time>
      </trkpt>
      <trkpt lat="48.69095" lon="1.96061">
        <ele>167</ele>
        <time>2018-08-19T10:51:13Z</time>
      </trkpt>
      <trkpt lat="48.69092" lon="1.96065">
        <ele>169</ele>
        <time>2018-08-19T10:51:28Z</time>
      </trkpt>
      <trkpt lat="48.69092" lon="1.96059">
        <ele>169</ele>
        <time>2018-08-19T10:51:32Z</time>
      </trkpt>
      <trkpt lat="48.6909" lon="1.96056">
        <ele>169</ele>
        <time>2018-08-19T10:51:36Z</time>
      </trkpt>
      <trkpt lat="48.69088" lon="1.96047">
        <ele>169</ele>
        <time>2018-08-19T10:51:40Z</time>
      </trkpt>
      <trkpt lat="48.6909" lon="1.96041">
        <ele>169</ele>
        <time>2018-08-19T10:51:44Z</time>
      </trkpt>
      <trkpt lat="48.69091" lon="1.96032">
        <ele>169</ele>
        <time>2018-08-19T10:51:49Z</time>
      </trkpt>
      <trkpt lat="48.69093" lon="1.9603">
        <ele>169</ele>
        <time>2018-08-19T10:51:56Z</time>
      </trkpt>
      <trkpt lat="48.69094" lon="1.96028">
        <ele>171</ele>
        <time>2018-08-19T10:52:05Z</time>
      </trkpt>
      <trkpt lat="48.69095" lon="1.9603">
        <ele>176</ele>
        <time>2018-08-19T10:52:23Z</time>
      </trkpt>
      <trkpt lat="48.69098" lon="1.96029">
        <ele>177</ele>
        <time>2018-08-19T10:52:30Z</time>
      </trkpt>
      <trkpt lat="48.69101" lon="1.96026">
        <ele>177</ele>
        <time>2018-08-19T10:52:35Z</time>
      </trkpt>
      <trkpt lat="48.69104" lon="1.9603">
        <ele>174</ele>
        <time>2018-08-19T10:52:39Z</time>
      </trkpt>
      <trkpt lat="48.69105" lon="1.96031">
        <ele>172</ele>
        <time>2018-08-19T10:52:45Z</time>
      </trkpt>
      <trkpt lat="48.69105" lon="1.96037">
        <ele>171</ele>
        <time>2018-08-19T10:52:50Z</time>
      </trkpt>
      <trkpt lat="48.69102" lon="1.96042">
        <ele>171</ele>
        <time>2018-08-19T10:52:54Z</time>
      </trkpt>
      <trkpt lat="48.69096" lon="1.96047">
        <ele>171</ele>
        <time>2018-08-19T10:52:58Z</time>
      </trkpt>
      <trkpt lat="48.69092" lon="1.96052">
        <ele>171</ele>
        <time>2018-08-19T10:53:02Z</time>
      </trkpt>
      <trkpt lat="48.69087" lon="1.96057">
        <ele>171</ele>
        <time>2018-08-19T10:53:06Z</time>
      </trkpt>
      <trkpt lat="48.69083" lon="1.96061">
        <ele>171</ele>
        <time>2018-08-19T10:53:10Z</time>
      </trkpt>
      <trkpt lat="48.69078" lon="1.96066">
        <ele>171</ele>
        <time>2018-08-19T10:53:14Z</time>
      </trkpt>
      <trkpt lat="48.69072" lon="1.96071">
        <ele>171</ele>
        <time>2018-08-19T10:53:18Z</time>
      </trkpt>
      <trkpt lat="48.69066" lon="1.96075">
        <ele>171</ele>
        <time>2018-08-19T10:53:22Z</time>
      </trkpt>
      <trkpt lat="48.69062" lon="1.96079">
        <ele>171</ele>
        <time>2018-08-19T10:53:26Z</time>
      </trkpt>
      <trkpt lat="48.69056" lon="1.96084">
        <ele>171</ele>
        <time>2018-08-19T10:53:31Z</time>
      </trkpt>
      <trkpt lat="48.69051" lon="1.96089">
        <ele>171</ele>
        <time>2018-08-19T10:53:35Z</time>
      </trkpt>
      <trkpt lat="48.69046" lon="1.96093">
        <ele>171</ele>
        <time>2018-08-19T10:53:39Z</time>
      </trkpt>
      <trkpt lat="48.69044" lon="1.96096">
        <ele>171</ele>
        <time>2018-08-19T10:53:43Z</time>
      </trkpt>
      <trkpt lat="48.69045" lon="1.96104">
        <ele>171</ele>
        <time>2018-08-19T10:53:47Z</time>
      </trkpt>
      <trkpt lat="48.69044" lon="1.96112">
        <ele>171</ele>
        <time>2018-08-19T10:53:51Z</time>
      </trkpt>
      <trkpt lat="48.69041" lon="1.96114">
        <ele>171</ele>
        <time>2018-08-19T10:53:55Z</time>
      </trkpt>
      <trkpt lat="48.69037" lon="1.96116">
        <ele>171</ele>
        <time>2018-08-19T10:53:59Z</time>
      </trkpt>
      <trkpt lat="48.69036" lon="1.9612">
        <ele>171</ele>
        <time>2018-08-19T10:54:03Z</time>
      </trkpt>
      <trkpt lat="48.69037" lon="1.96128">
        <ele>171</ele>
        <time>2018-08-19T10:54:07Z</time>
      </trkpt>
      <trkpt lat="48.69037" lon="1.96136">
        <ele>170</ele>
        <time>2018-08-19T10:54:11Z</time>
      </trkpt>
      <trkpt lat="48.69037" lon="1.96143">
        <ele>166</ele>
        <time>2018-08-19T10:54:15Z</time>
      </trkpt>
      <trkpt lat="48.69039" lon="1.9615">
        <ele>164</ele>
        <time>2018-08-19T10:54:19Z</time>
      </trkpt>
      <trkpt lat="48.6904" lon="1.96157">
        <ele>164</ele>
        <time>2018-08-19T10:54:23Z</time>
      </trkpt>
      <trkpt lat="48.69043" lon="1.96162">
        <ele>163</ele>
        <time>2018-08-19T10:54:27Z</time>
      </trkpt>
      <trkpt lat="48.69047" lon="1.96169">
        <ele>163</ele>
        <time>2018-08-19T10:54:32Z</time>
      </trkpt>
      <trkpt lat="48.69045" lon="1.96178">
        <ele>163</ele>
        <time>2018-08-19T10:54:36Z</time>
      </trkpt>
      <trkpt lat="48.69043" lon="1.96187">
        <ele>163</ele>
        <time>2018-08-19T10:54:40Z</time>
      </trkpt>
      <trkpt lat="48.69043" lon="1.96198">
        <ele>163</ele>
        <time>2018-08-19T10:54:44Z</time>
      </trkpt>
      <trkpt lat="48.69041" lon="1.96205">
        <ele>163</ele>
        <time>2018-08-19T10:54:48Z</time>
      </trkpt>
      <trkpt lat="48.69038" lon="1.96211">
        <ele>163</ele>
        <time>2018-08-19T10:54:52Z</time>
      </trkpt>
      <trkpt lat="48.69037" lon="1.96216">
        <ele>163</ele>
        <time>2018-08-19T10:54:58Z</time>
      </trkpt>
      <trkpt lat="48.69035" lon="1.9622">
        <ele>163</ele>
        <time>2018-08-19T10:55:04Z</time>
      </trkpt>
      <trkpt lat="48.69032" lon="1.96223">
        <ele>163</ele>
        <time>2018-08-19T10:55:08Z</time>
      </trkpt>
      <trkpt lat="48.69029" lon="1.96227">
        <ele>163</ele>
        <time>2018-08-19T10:55:12Z</time>
      </trkpt>
      <trkpt lat="48.69026" lon="1.96232">
        <ele>163</ele>
        <time>2018-08-19T10:55:16Z</time>
      </trkpt>
      <trkpt lat="48.69023" lon="1.96238">
        <ele>162</ele>
        <time>2018-08-19T10:55:20Z</time>
      </trkpt>
      <trkpt lat="48.69022" lon="1.96242">
        <ele>161</ele>
        <time>2018-08-19T10:55:24Z</time>
      </trkpt>
      <trkpt lat="48.6902" lon="1.96252">
        <ele>160</ele>
        <time>2018-08-19T10:55:28Z</time>
      </trkpt>
      <trkpt lat="48.69015" lon="1.96262">
        <ele>160</ele>
        <time>2018-08-19T10:55:32Z</time>
      </trkpt>
      <trkpt lat="48.69014" lon="1.96269">
        <ele>159</ele>
        <time>2018-08-19T10:55:36Z</time>
      </trkpt>
      <trkpt lat="48.69011" lon="1.96276">
        <ele>157</ele>
        <time>2018-08-19T10:55:40Z</time>
      </trkpt>
      <trkpt lat="48.69008" lon="1.96284">
        <ele>155</ele>
        <time>2018-08-19T10:55:44Z</time>
      </trkpt>
      <trkpt lat="48.69009" lon="1.96293">
        <ele>155</ele>
        <time>2018-08-19T10:55:48Z</time>
      </trkpt>
      <trkpt lat="48.69008" lon="1.96304">
        <ele>154</ele>
        <time>2018-08-19T10:55:52Z</time>
      </trkpt>
      <trkpt lat="48.6901" lon="1.96312">
        <ele>154</ele>
        <time>2018-08-19T10:55:56Z</time>
      </trkpt>
      <trkpt lat="48.69011" lon="1.96321">
        <ele>152</ele>
        <time>2018-08-19T10:56:00Z</time>
      </trkpt>
      <trkpt lat="48.69012" lon="1.9633">
        <ele>151</ele>
        <time>2018-08-19T10:56:04Z</time>
      </trkpt>
      <trkpt lat="48.69013" lon="1.96338">
        <ele>150</ele>
        <time>2018-08-19T10:56:08Z</time>
      </trkpt>
      <trkpt lat="48.69014" lon="1.96346">
        <ele>150</ele>
        <time>2018-08-19T10:56:12Z</time>
      </trkpt>
      <trkpt lat="48.69015" lon="1.96355">
        <ele>150</ele>
        <time>2018-08-19T10:56:16Z</time>
      </trkpt>
      <trkpt lat="48.69015" lon="1.96366">
        <ele>150</ele>
        <time>2018-08-19T10:56:20Z</time>
      </trkpt>
      <trkpt lat="48.69015" lon="1.96376">
        <ele>150</ele>
        <time>2018-08-19T10:56:24Z</time>
      </trkpt>
      <trkpt lat="48.69012" lon="1.96388">
        <ele>150</ele>
        <time>2018-08-19T10:56:28Z</time>
      </trkpt>
      <trkpt lat="48.69007" lon="1.96395">
        <ele>150</ele>
        <time>2018-08-19T10:56:32Z</time>
      </trkpt>
      <trkpt lat="48.69002" lon="1.96401">
        <ele>150</ele>
        <time>2018-08-19T10:56:36Z</time>
      </trkpt>
      <trkpt lat="48.68999" lon="1.96408">
        <ele>150</ele>
        <time>2018-08-19T10:56:40Z</time>
      </trkpt>
      <trkpt lat="48.68995" lon="1.96413">
        <ele>152</ele>
        <time>2018-08-19T10:56:44Z</time>
      </trkpt>
      <trkpt lat="48.6899" lon="1.96417">
        <ele>152</ele>
        <time>2018-08-19T10:56:48Z</time>
      </trkpt>
      <trkpt lat="48.68984" lon="1.9642">
        <ele>152</ele>
        <time>2018-08-19T10:56:52Z</time>
      </trkpt>
      <trkpt lat="48.68978" lon="1.96425">
        <ele>152</ele>
        <time>2018-08-19T10:56:56Z</time>
      </trkpt>
      <trkpt lat="48.68973" lon="1.9643">
        <ele>150</ele>
        <time>2018-08-19T10:57:00Z</time>
      </trkpt>
      <trkpt lat="48.68971" lon="1.96437">
        <ele>148</ele>
        <time>2018-08-19T10:57:04Z</time>
      </trkpt>
      <trkpt lat="48.68969" lon="1.96444">
        <ele>145</ele>
        <time>2018-08-19T10:57:08Z</time>
      </trkpt>
      <trkpt lat="48.68966" lon="1.96452">
        <ele>143</ele>
        <time>2018-08-19T10:57:12Z</time>
      </trkpt>
      <trkpt lat="48.68964" lon="1.96461">
        <ele>141</ele>
        <time>2018-08-19T10:57:16Z</time>
      </trkpt>
      <trkpt lat="48.68961" lon="1.9647">
        <ele>140</ele>
        <time>2018-08-19T10:57:20Z</time>
      </trkpt>
      <trkpt lat="48.6896" lon="1.9648">
        <ele>140</ele>
        <time>2018-08-19T10:57:24Z</time>
      </trkpt>
      <trkpt lat="48.68959" lon="1.96492">
        <ele>140</ele>
        <time>2018-08-19T10:57:28Z</time>
      </trkpt>
      <trkpt lat="48.68958" lon="1.96498">
        <ele>140</ele>
        <time>2018-08-19T10:57:33Z</time>
      </trkpt>
      <trkpt lat="48.68958" lon="1.965">
        <ele>140</ele>
        <time>2018-08-19T10:57:40Z</time>
      </trkpt>
      <trkpt lat="48.6896" lon="1.96498">
        <ele>140</ele>
        <time>2018-08-19T10:57:46Z</time>
      </trkpt>
      <trkpt lat="48.6896" lon="1.96496">
        <ele>140</ele>
        <time>2018-08-19T10:57:57Z</time>
      </trkpt>
      <trkpt lat="48.68958" lon="1.96497">
        <ele>140</ele>
        <time>2018-08-19T10:58:02Z</time>
      </trkpt>
      <trkpt lat="48.68956" lon="1.96496">
        <ele>140</ele>
        <time>2018-08-19T10:58:12Z</time>
      </trkpt>
      <trkpt lat="48.68955" lon="1.96496">
        <ele>140</ele>
        <time>2018-08-19T10:58:17Z</time>
      </trkpt>
      <trkpt lat="48.68956" lon="1.965">
        <ele>140</ele>
        <time>2018-08-19T10:58:24Z</time>
      </trkpt>
      <trkpt lat="48.68957" lon="1.965">
        <ele>140</ele>
        <time>2018-08-19T10:58:34Z</time>
      </trkpt>
      <trkpt lat="48.68958" lon="1.96497">
        <ele>140</ele>
        <time>2018-08-19T10:58:39Z</time>
      </trkpt>
      <trkpt lat="48.68959" lon="1.96494">
        <ele>140</ele>
        <time>2018-08-19T10:58:59Z</time>
      </trkpt>
      <trkpt lat="48.68958" lon="1.96494">
        <ele>140</ele>
        <time>2018-08-19T10:59:06Z</time>
      </trkpt>
      <trkpt lat="48.68956" lon="1.96497">
        <ele>140</ele>
        <time>2018-08-19T10:59:11Z</time>
      </trkpt>
      <trkpt lat="48.68956" lon="1.96499">
        <ele>140</ele>
        <time>2018-08-19T10:59:25Z</time>
      </trkpt>
      <trkpt lat="48.68957" lon="1.96499">
        <ele>140</ele>
        <time>2018-08-19T10:59:36Z</time>
      </trkpt>
      <trkpt lat="48.68958" lon="1.96505">
        <ele>140</ele>
        <time>2018-08-19T10:59:40Z</time>
      </trkpt>
      <trkpt lat="48.68956" lon="1.96515">
        <ele>140</ele>
        <time>2018-08-19T10:59:45Z</time>
      </trkpt>
      <trkpt lat="48.68955" lon="1.96523">
        <ele>140</ele>
        <time>2018-08-19T10:59:49Z</time>
      </trkpt>
      <trkpt lat="48.68953" lon="1.9653">
        <ele>140</ele>
        <time>2018-08-19T10:59:53Z</time>
      </trkpt>
      <trkpt lat="48.68952" lon="1.96538">
        <ele>139</ele>
        <time>2018-08-19T10:59:57Z</time>
      </trkpt>
      <trkpt lat="48.68951" lon="1.96545">
        <ele>138</ele>
        <time>2018-08-19T11:00:01Z</time>
      </trkpt>
      <trkpt lat="48.6895" lon="1.96553">
        <ele>137</ele>
        <time>2018-08-19T11:00:05Z</time>
      </trkpt>
      <trkpt lat="48.68948" lon="1.96561">
        <ele>137</ele>
        <time>2018-08-19T11:00:09Z</time>
      </trkpt>
      <trkpt lat="48.68947" lon="1.96571">
        <ele>136</ele>
        <time>2018-08-19T11:00:14Z</time>
      </trkpt>
      <trkpt lat="48.68946" lon="1.96581">
        <ele>136</ele>
        <time>2018-08-19T11:00:19Z</time>
      </trkpt>
      <trkpt lat="48.68944" lon="1.96591">
        <ele>136</ele>
        <time>2018-08-19T11:00:25Z</time>
      </trkpt>
      <trkpt lat="48.68944" lon="1.96595">
        <ele>136</ele>
        <time>2018-08-19T11:00:30Z</time>
      </trkpt>
      <trkpt lat="48.68942" lon="1.96602">
        <ele>136</ele>
        <time>2018-08-19T11:00:34Z</time>
      </trkpt>
      <trkpt lat="48.6894" lon="1.9661">
        <ele>136</ele>
        <time>2018-08-19T11:00:39Z</time>
      </trkpt>
      <trkpt lat="48.68938" lon="1.96616">
        <ele>136</ele>
        <time>2018-08-19T11:00:43Z</time>
      </trkpt>
      <trkpt lat="48.68936" lon="1.96623">
        <ele>135</ele>
        <time>2018-08-19T11:00:47Z</time>
      </trkpt>
      <trkpt lat="48.68933" lon="1.9663">
        <ele>133</ele>
        <time>2018-08-19T11:00:52Z</time>
      </trkpt>
      <trkpt lat="48.6893" lon="1.96636">
        <ele>131</ele>
        <time>2018-08-19T11:00:56Z</time>
      </trkpt>
      <trkpt lat="48.68928" lon="1.96642">
        <ele>131</ele>
        <time>2018-08-19T11:01:00Z</time>
      </trkpt>
      <trkpt lat="48.68926" lon="1.96648">
        <ele>131</ele>
        <time>2018-08-19T11:01:04Z</time>
      </trkpt>
      <trkpt lat="48.68923" lon="1.96656">
        <ele>131</ele>
        <time>2018-08-19T11:01:09Z</time>
      </trkpt>
      <trkpt lat="48.68921" lon="1.96663">
        <ele>131</ele>
        <time>2018-08-19T11:01:13Z</time>
      </trkpt>
      <trkpt lat="48.68918" lon="1.96672">
        <ele>131</ele>
        <time>2018-08-19T11:01:18Z</time>
      </trkpt>
      <trkpt lat="48.68916" lon="1.96679">
        <ele>131</ele>
        <time>2018-08-19T11:01:22Z</time>
      </trkpt>
      <trkpt lat="48.68913" lon="1.96687">
        <ele>131</ele>
        <time>2018-08-19T11:01:27Z</time>
      </trkpt>
      <trkpt lat="48.68911" lon="1.96694">
        <ele>131</ele>
        <time>2018-08-19T11:01:31Z</time>
      </trkpt>
      <trkpt lat="48.68911" lon="1.96698">
        <ele>131</ele>
        <time>2018-08-19T11:01:35Z</time>
      </trkpt>
      <trkpt lat="48.68908" lon="1.96708">
        <ele>131</ele>
        <time>2018-08-19T11:01:39Z</time>
      </trkpt>
      <trkpt lat="48.68906" lon="1.96713">
        <ele>131</ele>
        <time>2018-08-19T11:01:43Z</time>
      </trkpt>
      <trkpt lat="48.68903" lon="1.96718">
        <ele>131</ele>
        <time>2018-08-19T11:01:47Z</time>
      </trkpt>
      <trkpt lat="48.68901" lon="1.96724">
        <ele>130</ele>
        <time>2018-08-19T11:01:51Z</time>
      </trkpt>
      <trkpt lat="48.689" lon="1.96731">
        <ele>129</ele>
        <time>2018-08-19T11:01:55Z</time>
      </trkpt>
      <trkpt lat="48.68897" lon="1.96738">
        <ele>129</ele>
        <time>2018-08-19T11:01:59Z</time>
      </trkpt>
      <trkpt lat="48.68897" lon="1.96748">
        <ele>129</ele>
        <time>2018-08-19T11:02:03Z</time>
      </trkpt>
      <trkpt lat="48.68894" lon="1.96755">
        <ele>129</ele>
        <time>2018-08-19T11:02:07Z</time>
      </trkpt>
      <trkpt lat="48.68892" lon="1.96762">
        <ele>129</ele>
        <time>2018-08-19T11:02:11Z</time>
      </trkpt>
      <trkpt lat="48.68889" lon="1.96771">
        <ele>128</ele>
        <time>2018-08-19T11:02:15Z</time>
      </trkpt>
      <trkpt lat="48.68886" lon="1.9678">
        <ele>128</ele>
        <time>2018-08-19T11:02:19Z</time>
      </trkpt>
      <trkpt lat="48.68883" lon="1.96788">
        <ele>128</ele>
        <time>2018-08-19T11:02:24Z</time>
      </trkpt>
      <trkpt lat="48.68882" lon="1.96795">
        <ele>128</ele>
        <time>2018-08-19T11:02:28Z</time>
      </trkpt>
      <trkpt lat="48.6888" lon="1.96803">
        <ele>128</ele>
        <time>2018-08-19T11:02:32Z</time>
      </trkpt>
      <trkpt lat="48.68878" lon="1.96812">
        <ele>128</ele>
        <time>2018-08-19T11:02:36Z</time>
      </trkpt>
      <trkpt lat="48.68876" lon="1.96819">
        <ele>127</ele>
        <time>2018-08-19T11:02:40Z</time>
      </trkpt>
      <trkpt lat="48.68874" lon="1.96827">
        <ele>126</ele>
        <time>2018-08-19T11:02:44Z</time>
      </trkpt>
      <trkpt lat="48.68872" lon="1.96835">
        <ele>125</ele>
        <time>2018-08-19T11:02:48Z</time>
      </trkpt>
      <trkpt lat="48.6887" lon="1.96843">
        <ele>123</ele>
        <time>2018-08-19T11:02:52Z</time>
      </trkpt>
      <trkpt lat="48.68869" lon="1.96851">
        <ele>121</ele>
        <time>2018-08-19T11:02:56Z</time>
      </trkpt>
      <trkpt lat="48.68868" lon="1.96858">
        <ele>120</ele>
        <time>2018-08-19T11:03:00Z</time>
      </trkpt>
      <trkpt lat="48.68866" lon="1.96866">
        <ele>119</ele>
        <time>2018-08-19T11:03:04Z</time>
      </trkpt>
      <trkpt lat="48.68865" lon="1.96874">
        <ele>119</ele>
        <time>2018-08-19T11:03:08Z</time>
      </trkpt>
      <trkpt lat="48.68864" lon="1.96883">
        <ele>119</ele>
        <time>2018-08-19T11:03:12Z</time>
      </trkpt>
      <trkpt lat="48.68864" lon="1.96891">
        <ele>119</ele>
        <time>2018-08-19T11:03:16Z</time>
      </trkpt>
      <trkpt lat="48.68863" lon="1.969">
        <ele>119</ele>
        <time>2018-08-19T11:03:20Z</time>
      </trkpt>
      <trkpt lat="48.68863" lon="1.96908">
        <ele>118</ele>
        <time>2018-08-19T11:03:24Z</time>
      </trkpt>
      <trkpt lat="48.68863" lon="1.96916">
        <ele>118</ele>
        <time>2018-08-19T11:03:28Z</time>
      </trkpt>
      <trkpt lat="48.68862" lon="1.96924">
        <ele>117</ele>
        <time>2018-08-19T11:03:32Z</time>
      </trkpt>
      <trkpt lat="48.68862" lon="1.96931">
        <ele>116</ele>
        <time>2018-08-19T11:03:36Z</time>
      </trkpt>
      <trkpt lat="48.68862" lon="1.96939">
        <ele>116</ele>
        <time>2018-08-19T11:03:40Z</time>
      </trkpt>
      <trkpt lat="48.68862" lon="1.96949">
        <ele>115</ele>
        <time>2018-08-19T11:03:45Z</time>
      </trkpt>
      <trkpt lat="48.68861" lon="1.96957">
        <ele>114</ele>
        <time>2018-08-19T11:03:49Z</time>
      </trkpt>
      <trkpt lat="48.68862" lon="1.96967">
        <ele>114</ele>
        <time>2018-08-19T11:03:54Z</time>
      </trkpt>
      <trkpt lat="48.68862" lon="1.96975">
        <ele>114</ele>
        <time>2018-08-19T11:03:58Z</time>
      </trkpt>
      <trkpt lat="48.68863" lon="1.96983">
        <ele>114</ele>
        <time>2018-08-19T11:04:02Z</time>
      </trkpt>
      <trkpt lat="48.68863" lon="1.96992">
        <ele>113</ele>
        <time>2018-08-19T11:04:06Z</time>
      </trkpt>
      <trkpt lat="48.68862" lon="1.97">
        <ele>113</ele>
        <time>2018-08-19T11:04:10Z</time>
      </trkpt>
      <trkpt lat="48.68862" lon="1.97008">
        <ele>113</ele>
        <time>2018-08-19T11:04:14Z</time>
      </trkpt>
      <trkpt lat="48.68861" lon="1.97017">
        <ele>113</ele>
        <time>2018-08-19T11:04:18Z</time>
      </trkpt>
      <trkpt lat="48.68861" lon="1.97027">
        <ele>113</ele>
        <time>2018-08-19T11:04:23Z</time>
      </trkpt>
      <trkpt lat="48.68861" lon="1.97035">
        <ele>113</ele>
        <time>2018-08-19T11:04:27Z</time>
      </trkpt>
      <trkpt lat="48.68859" lon="1.97043">
        <ele>113</ele>
        <time>2018-08-19T11:04:31Z</time>
      </trkpt>
      <trkpt lat="48.68858" lon="1.9705">
        <ele>113</ele>
        <time>2018-08-19T11:04:35Z</time>
      </trkpt>
      <trkpt lat="48.68856" lon="1.97059">
        <ele>113</ele>
        <time>2018-08-19T11:04:39Z</time>
      </trkpt>
      <trkpt lat="48.68855" lon="1.97069">
        <ele>113</ele>
        <time>2018-08-19T11:04:44Z</time>
      </trkpt>
      <trkpt lat="48.68855" lon="1.97073">
        <ele>113</ele>
        <time>2018-08-19T11:04:58Z</time>
      </trkpt>
      <trkpt lat="48.68856" lon="1.97075">
        <ele>113</ele>
        <time>2018-08-19T11:05:45Z</time>
      </trkpt>
      <trkpt lat="48.68856" lon="1.97073">
        <ele>113</ele>
        <time>2018-08-19T11:05:57Z</time>
      </trkpt>
      <trkpt lat="48.68856" lon="1.97065">
        <ele>113</ele>
        <time>2018-08-19T11:06:03Z</time>
      </trkpt>
      <trkpt lat="48.68856" lon="1.97067">
        <ele>113</ele>
        <time>2018-08-19T11:06:10Z</time>
      </trkpt>
      <trkpt lat="48.68856" lon="1.97071">
        <ele>113</ele>
        <time>2018-08-19T11:06:19Z</time>
      </trkpt>
      <trkpt lat="48.68856" lon="1.97072">
        <ele>113</ele>
        <time>2018-08-19T11:06:53Z</time>
      </trkpt>
      <trkpt lat="48.68856" lon="1.9707">
        <ele>113</ele>
        <time>2018-08-19T11:07:11Z</time>
      </trkpt>
      <trkpt lat="48.68856" lon="1.97062">
        <ele>113</ele>
        <time>2018-08-19T11:07:17Z</time>
      </trkpt>
      <trkpt lat="48.68857" lon="1.97062">
        <ele>113</ele>
        <time>2018-08-19T11:07:27Z</time>
      </trkpt>
      <trkpt lat="48.68856" lon="1.9706">
        <ele>113</ele>
        <time>2018-08-19T11:07:39Z</time>
      </trkpt>
      <trkpt lat="48.68855" lon="1.97062">
        <ele>113</ele>
        <time>2018-08-19T11:08:03Z</time>
      </trkpt>
      <trkpt lat="48.68856" lon="1.97061">
        <ele>113</ele>
        <time>2018-08-19T11:08:23Z</time>
      </trkpt>
      <trkpt lat="48.68858" lon="1.97062">
        <ele>113</ele>
        <time>2018-08-19T11:08:41Z</time>
      </trkpt>
      <trkpt lat="48.68857" lon="1.97063">
        <ele>114</ele>
        <time>2018-08-19T11:09:53Z</time>
      </trkpt>
      <trkpt lat="48.68856" lon="1.97072">
        <ele>114</ele>
        <time>2018-08-19T11:09:59Z</time>
      </trkpt>
      <trkpt lat="48.68857" lon="1.97076">
        <ele>114</ele>
        <time>2018-08-19T11:10:17Z</time>
      </trkpt>
      <trkpt lat="48.68857" lon="1.97077">
        <ele>114</ele>
        <time>2018-08-19T11:10:30Z</time>
      </trkpt>
      <trkpt lat="48.68858" lon="1.97076">
        <ele>114</ele>
        <time>2018-08-19T11:10:40Z</time>
      </trkpt>
      <trkpt lat="48.68858" lon="1.97077">
        <ele>114</ele>
        <time>2018-08-19T11:12:05Z</time>
      </trkpt>
      <trkpt lat="48.68857" lon="1.97078">
        <ele>114</ele>
        <time>2018-08-19T11:12:49Z</time>
      </trkpt>
      <trkpt lat="48.68856" lon="1.97076">
        <ele>114</ele>
        <time>2018-08-19T11:13:55Z</time>
      </trkpt>
      <trkpt lat="48.68856" lon="1.97074">
        <ele>114</ele>
        <time>2018-08-19T11:14:24Z</time>
      </trkpt>
      <trkpt lat="48.68857" lon="1.97071">
        <ele>114</ele>
        <time>2018-08-19T11:14:29Z</time>
      </trkpt>
      <trkpt lat="48.68858" lon="1.97067">
        <ele>114</ele>
        <time>2018-08-19T11:14:35Z</time>
      </trkpt>
      <trkpt lat="48.68857" lon="1.97061">
        <ele>114</ele>
        <time>2018-08-19T11:14:39Z</time>
      </trkpt>
      <trkpt lat="48.68856" lon="1.97063">
        <ele>114</ele>
        <time>2018-08-19T11:15:17Z</time>
      </trkpt>
      <trkpt lat="48.68855" lon="1.97064">
        <ele>114</ele>
        <time>2018-08-19T11:15:58Z</time>
      </trkpt>
      <trkpt lat="48.68854" lon="1.97066">
        <ele>114</ele>
        <time>2018-08-19T11:16:10Z</time>
      </trkpt>
      <trkpt lat="48.68855" lon="1.97064">
        <ele>114</ele>
        <time>2018-08-19T11:16:24Z</time>
      </trkpt>
      <trkpt lat="48.68853" lon="1.97063">
        <ele>114</ele>
        <time>2018-08-19T11:16:31Z</time>
      </trkpt>
      <trkpt lat="48.68852" lon="1.97059">
        <ele>114</ele>
        <time>2018-08-19T11:16:37Z</time>
      </trkpt>
      <trkpt lat="48.68853" lon="1.97061">
        <ele>114</ele>
        <time>2018-08-19T11:16:47Z</time>
      </trkpt>
      <trkpt lat="48.68856" lon="1.97061">
        <ele>114</ele>
        <time>2018-08-19T11:17:01Z</time>
      </trkpt>
      <trkpt lat="48.68855" lon="1.97063">
        <ele>114</ele>
        <time>2018-08-19T11:17:30Z</time>
      </trkpt>
      <trkpt lat="48.68856" lon="1.97062">
        <ele>114</ele>
        <time>2018-08-19T11:18:27Z</time>
      </trkpt>
      <trkpt lat="48.68855" lon="1.97063">
        <ele>114</ele>
        <time>2018-08-19T11:18:48Z</time>
      </trkpt>
      <trkpt lat="48.68855" lon="1.97065">
        <ele>114</ele>
        <time>2018-08-19T11:19:20Z</time>
      </trkpt>
      <trkpt lat="48.68854" lon="1.97065">
        <ele>114</ele>
        <time>2018-08-19T11:19:48Z</time>
      </trkpt>
      <trkpt lat="48.68855" lon="1.97065">
        <ele>114</ele>
        <time>2018-08-19T11:20:03Z</time>
      </trkpt>
      <trkpt lat="48.68856" lon="1.97065">
        <ele>114</ele>
        <time>2018-08-19T11:20:17Z</time>
      </trkpt>
      <trkpt lat="48.68856" lon="1.97067">
        <ele>114</ele>
        <time>2018-08-19T11:20:42Z</time>
      </trkpt>
      <trkpt lat="48.68856" lon="1.97069">
        <ele>114</ele>
        <time>2018-08-19T11:20:58Z</time>
      </trkpt>
      <trkpt lat="48.68855" lon="1.97075">
        <ele>114</ele>
        <time>2018-08-19T11:21:02Z</time>
      </trkpt>
      <trkpt lat="48.68855" lon="1.97083">
        <ele>114</ele>
        <time>2018-08-19T11:21:06Z</time>
      </trkpt>
      <trkpt lat="48.68854" lon="1.9709">
        <ele>114</ele>
        <time>2018-08-19T11:21:10Z</time>
      </trkpt>
      <trkpt lat="48.68852" lon="1.97097">
        <ele>114</ele>
        <time>2018-08-19T11:21:14Z</time>
      </trkpt>
      <trkpt lat="48.6885" lon="1.97102">
        <ele>114</ele>
        <time>2018-08-19T11:21:26Z</time>
      </trkpt>
      <trkpt lat="48.68851" lon="1.97104">
        <ele>114</ele>
        <time>2018-08-19T11:21:32Z</time>
      </trkpt>
      <trkpt lat="48.68851" lon="1.97106">
        <ele>114</ele>
        <time>2018-08-19T11:22:07Z</time>
      </trkpt>
      <trkpt lat="48.68852" lon="1.97108">
        <ele>114</ele>
        <time>2018-08-19T11:23:02Z</time>
      </trkpt>
      <trkpt lat="48.68848" lon="1.97116">
        <ele>114</ele>
        <time>2018-08-19T11:23:08Z</time>
      </trkpt>
      <trkpt lat="48.68844" lon="1.97124">
        <ele>114</ele>
        <time>2018-08-19T11:23:14Z</time>
      </trkpt>
      <trkpt lat="48.68838" lon="1.97132">
        <ele>114</ele>
        <time>2018-08-19T11:23:20Z</time>
      </trkpt>
      <trkpt lat="48.68832" lon="1.97139">
        <ele>113</ele>
        <time>2018-08-19T11:23:26Z</time>
      </trkpt>
      <trkpt lat="48.68826" lon="1.97146">
        <ele>113</ele>
        <time>2018-08-19T11:23:32Z</time>
      </trkpt>
      <trkpt lat="48.68821" lon="1.97154">
        <ele>113</ele>
        <time>2018-08-19T11:23:38Z</time>
      </trkpt>
      <trkpt lat="48.68817" lon="1.97159">
        <ele>113</ele>
        <time>2018-08-19T11:23:42Z</time>
      </trkpt>
      <trkpt lat="48.68811" lon="1.97164">
        <ele>113</ele>
        <time>2018-08-19T11:23:47Z</time>
      </trkpt>
      <trkpt lat="48.68807" lon="1.97168">
        <ele>113</ele>
        <time>2018-08-19T11:23:51Z</time>
      </trkpt>
      <trkpt lat="48.68802" lon="1.97174">
        <ele>113</ele>
        <time>2018-08-19T11:23:56Z</time>
      </trkpt>
      <trkpt lat="48.68798" lon="1.97179">
        <ele>113</ele>
        <time>2018-08-19T11:24:00Z</time>
      </trkpt>
      <trkpt lat="48.68793" lon="1.97187">
        <ele>113</ele>
        <time>2018-08-19T11:24:06Z</time>
      </trkpt>
      <trkpt lat="48.68787" lon="1.97194">
        <ele>112</ele>
        <time>2018-08-19T11:24:12Z</time>
      </trkpt>
      <trkpt lat="48.68784" lon="1.97199">
        <ele>111</ele>
        <time>2018-08-19T11:24:16Z</time>
      </trkpt>
      <trkpt lat="48.6878" lon="1.97207">
        <ele>111</ele>
        <time>2018-08-19T11:24:21Z</time>
      </trkpt>
      <trkpt lat="48.68778" lon="1.97212">
        <ele>110</ele>
        <time>2018-08-19T11:24:25Z</time>
      </trkpt>
      <trkpt lat="48.68776" lon="1.97217">
        <ele>110</ele>
        <time>2018-08-19T11:24:30Z</time>
      </trkpt>
      <trkpt lat="48.68775" lon="1.97224">
        <ele>110</ele>
        <time>2018-08-19T11:24:34Z</time>
      </trkpt>
      <trkpt lat="48.68775" lon="1.97233">
        <ele>110</ele>
        <time>2018-08-19T11:24:38Z</time>
      </trkpt>
      <trkpt lat="48.68776" lon="1.97242">
        <ele>110</ele>
        <time>2018-08-19T11:24:42Z</time>
      </trkpt>
      <trkpt lat="48.68775" lon="1.9725">
        <ele>110</ele>
        <time>2018-08-19T11:24:46Z</time>
      </trkpt>
      <trkpt lat="48.68776" lon="1.97259">
        <ele>110</ele>
        <time>2018-08-19T11:24:50Z</time>
      </trkpt>
      <trkpt lat="48.68777" lon="1.9727">
        <ele>110</ele>
        <time>2018-08-19T11:24:55Z</time>
      </trkpt>
      <trkpt lat="48.68778" lon="1.9728">
        <ele>110</ele>
        <time>2018-08-19T11:25:00Z</time>
      </trkpt>
      <trkpt lat="48.68779" lon="1.97291">
        <ele>110</ele>
        <time>2018-08-19T11:25:05Z</time>
      </trkpt>
      <trkpt lat="48.68781" lon="1.97302">
        <ele>110</ele>
        <time>2018-08-19T11:25:10Z</time>
      </trkpt>
      <trkpt lat="48.68782" lon="1.97311">
        <ele>109</ele>
        <time>2018-08-19T11:25:15Z</time>
      </trkpt>
      <trkpt lat="48.68783" lon="1.97319">
        <ele>109</ele>
        <time>2018-08-19T11:25:19Z</time>
      </trkpt>
      <trkpt lat="48.68784" lon="1.97327">
        <ele>109</ele>
        <time>2018-08-19T11:25:23Z</time>
      </trkpt>
      <trkpt lat="48.68784" lon="1.97336">
        <ele>108</ele>
        <time>2018-08-19T11:25:27Z</time>
      </trkpt>
      <trkpt lat="48.68785" lon="1.97344">
        <ele>107</ele>
        <time>2018-08-19T11:25:31Z</time>
      </trkpt>
      <trkpt lat="48.68786" lon="1.97353">
        <ele>106</ele>
        <time>2018-08-19T11:25:35Z</time>
      </trkpt>
      <trkpt lat="48.68787" lon="1.97361">
        <ele>106</ele>
        <time>2018-08-19T11:25:39Z</time>
      </trkpt>
      <trkpt lat="48.68788" lon="1.9737">
        <ele>105</ele>
        <time>2018-08-19T11:25:43Z</time>
      </trkpt>
      <trkpt lat="48.68789" lon="1.97378">
        <ele>105</ele>
        <time>2018-08-19T11:25:47Z</time>
      </trkpt>
      <trkpt lat="48.6879" lon="1.97387">
        <ele>105</ele>
        <time>2018-08-19T11:25:51Z</time>
      </trkpt>
      <trkpt lat="48.68791" lon="1.97396">
        <ele>105</ele>
        <time>2018-08-19T11:25:55Z</time>
      </trkpt>
      <trkpt lat="48.68792" lon="1.97404">
        <ele>105</ele>
        <time>2018-08-19T11:25:59Z</time>
      </trkpt>
      <trkpt lat="48.68794" lon="1.97413">
        <ele>105</ele>
        <time>2018-08-19T11:26:03Z</time>
      </trkpt>
      <trkpt lat="48.68795" lon="1.97422">
        <ele>105</ele>
        <time>2018-08-19T11:26:07Z</time>
      </trkpt>
      <trkpt lat="48.68796" lon="1.9743">
        <ele>105</ele>
        <time>2018-08-19T11:26:11Z</time>
      </trkpt>
      <trkpt lat="48.68797" lon="1.97439">
        <ele>105</ele>
        <time>2018-08-19T11:26:15Z</time>
      </trkpt>
      <trkpt lat="48.68798" lon="1.97447">
        <ele>105</ele>
        <time>2018-08-19T11:26:19Z</time>
      </trkpt>
      <trkpt lat="48.68799" lon="1.97456">
        <ele>105</ele>
        <time>2018-08-19T11:26:23Z</time>
      </trkpt>
      <trkpt lat="48.688" lon="1.97465">
        <ele>105</ele>
        <time>2018-08-19T11:26:27Z</time>
      </trkpt>
      <trkpt lat="48.68801" lon="1.97473">
        <ele>105</ele>
        <time>2018-08-19T11:26:31Z</time>
      </trkpt>
      <trkpt lat="48.68803" lon="1.97481">
        <ele>105</ele>
        <time>2018-08-19T11:26:35Z</time>
      </trkpt>
      <trkpt lat="48.68807" lon="1.97489">
        <ele>105</ele>
        <time>2018-08-19T11:26:39Z</time>
      </trkpt>
      <trkpt lat="48.68811" lon="1.97495">
        <ele>105</ele>
        <time>2018-08-19T11:26:43Z</time>
      </trkpt>
      <trkpt lat="48.68816" lon="1.975">
        <ele>105</ele>
        <time>2018-08-19T11:26:47Z</time>
      </trkpt>
      <trkpt lat="48.68821" lon="1.97504">
        <ele>105</ele>
        <time>2018-08-19T11:26:51Z</time>
      </trkpt>
      <trkpt lat="48.68824" lon="1.97507">
        <ele>105</ele>
        <time>2018-08-19T11:26:55Z</time>
      </trkpt>
      <trkpt lat="48.6883" lon="1.97509">
        <ele>105</ele>
        <time>2018-08-19T11:26:59Z</time>
      </trkpt>
      <trkpt lat="48.68835" lon="1.97511">
        <ele>105</ele>
        <time>2018-08-19T11:27:03Z</time>
      </trkpt>
      <trkpt lat="48.68841" lon="1.97514">
        <ele>105</ele>
        <time>2018-08-19T11:27:07Z</time>
      </trkpt>
      <trkpt lat="48.68845" lon="1.97516">
        <ele>105</ele>
        <time>2018-08-19T11:27:11Z</time>
      </trkpt>
      <trkpt lat="48.68849" lon="1.9752">
        <ele>105</ele>
        <time>2018-08-19T11:27:15Z</time>
      </trkpt>
      <trkpt lat="48.68852" lon="1.97527">
        <ele>105</ele>
        <time>2018-08-19T11:27:19Z</time>
      </trkpt>
      <trkpt lat="48.68853" lon="1.97535">
        <ele>105</ele>
        <time>2018-08-19T11:27:23Z</time>
      </trkpt>
      <trkpt lat="48.68853" lon="1.97544">
        <ele>105</ele>
        <time>2018-08-19T11:27:27Z</time>
      </trkpt>
      <trkpt lat="48.68853" lon="1.97552">
        <ele>105</ele>
        <time>2018-08-19T11:27:31Z</time>
      </trkpt>
      <trkpt lat="48.68853" lon="1.97561">
        <ele>105</ele>
        <time>2018-08-19T11:27:35Z</time>
      </trkpt>
      <trkpt lat="48.68852" lon="1.9757">
        <ele>105</ele>
        <time>2018-08-19T11:27:39Z</time>
      </trkpt>
      <trkpt lat="48.68852" lon="1.97579">
        <ele>105</ele>
        <time>2018-08-19T11:27:43Z</time>
      </trkpt>
      <trkpt lat="48.68851" lon="1.97587">
        <ele>105</ele>
        <time>2018-08-19T11:27:47Z</time>
      </trkpt>
      <trkpt lat="48.6885" lon="1.97596">
        <ele>105</ele>
        <time>2018-08-19T11:27:51Z</time>
      </trkpt>
      <trkpt lat="48.6885" lon="1.97604">
        <ele>105</ele>
        <time>2018-08-19T11:27:55Z</time>
      </trkpt>
      <trkpt lat="48.6885" lon="1.97612">
        <ele>105</ele>
        <time>2018-08-19T11:27:59Z</time>
      </trkpt>
      <trkpt lat="48.6885" lon="1.97621">
        <ele>105</ele>
        <time>2018-08-19T11:28:03Z</time>
      </trkpt>
      <trkpt lat="48.6885" lon="1.9763">
        <ele>105</ele>
        <time>2018-08-19T11:28:07Z</time>
      </trkpt>
      <trkpt lat="48.68849" lon="1.97639">
        <ele>104</ele>
        <time>2018-08-19T11:28:11Z</time>
      </trkpt>
      <trkpt lat="48.68849" lon="1.97648">
        <ele>104</ele>
        <time>2018-08-19T11:28:15Z</time>
      </trkpt>
      <trkpt lat="48.68849" lon="1.97656">
        <ele>104</ele>
        <time>2018-08-19T11:28:19Z</time>
      </trkpt>
      <trkpt lat="48.68849" lon="1.97665">
        <ele>103</ele>
        <time>2018-08-19T11:28:23Z</time>
      </trkpt>
      <trkpt lat="48.6885" lon="1.97673">
        <ele>103</ele>
        <time>2018-08-19T11:28:27Z</time>
      </trkpt>
      <trkpt lat="48.68852" lon="1.97681">
        <ele>102</ele>
        <time>2018-08-19T11:28:31Z</time>
      </trkpt>
      <trkpt lat="48.68854" lon="1.97688">
        <ele>101</ele>
        <time>2018-08-19T11:28:35Z</time>
      </trkpt>
      <trkpt lat="48.68858" lon="1.97694">
        <ele>100</ele>
        <time>2018-08-19T11:28:39Z</time>
      </trkpt>
      <trkpt lat="48.68862" lon="1.977">
        <ele>100</ele>
        <time>2018-08-19T11:28:43Z</time>
      </trkpt>
      <trkpt lat="48.68867" lon="1.97704">
        <ele>100</ele>
        <time>2018-08-19T11:28:47Z</time>
      </trkpt>
      <trkpt lat="48.68872" lon="1.97707">
        <ele>100</ele>
        <time>2018-08-19T11:28:51Z</time>
      </trkpt>
      <trkpt lat="48.68877" lon="1.97711">
        <ele>100</ele>
        <time>2018-08-19T11:28:55Z</time>
      </trkpt>
      <trkpt lat="48.68882" lon="1.97715">
        <ele>100</ele>
        <time>2018-08-19T11:28:59Z</time>
      </trkpt>
      <trkpt lat="48.68887" lon="1.97718">
        <ele>100</ele>
        <time>2018-08-19T11:29:03Z</time>
      </trkpt>
      <trkpt lat="48.68892" lon="1.97722">
        <ele>100</ele>
        <time>2018-08-19T11:29:07Z</time>
      </trkpt>
      <trkpt lat="48.68897" lon="1.97726">
        <ele>99</ele>
        <time>2018-08-19T11:29:11Z</time>
      </trkpt>
      <trkpt lat="48.68902" lon="1.9773">
        <ele>99</ele>
        <time>2018-08-19T11:29:15Z</time>
      </trkpt>
      <trkpt lat="48.68907" lon="1.97734">
        <ele>99</ele>
        <time>2018-08-19T11:29:19Z</time>
      </trkpt>
      <trkpt lat="48.68913" lon="1.97739">
        <ele>99</ele>
        <time>2018-08-19T11:29:24Z</time>
      </trkpt>
      <trkpt lat="48.68918" lon="1.97743">
        <ele>99</ele>
        <time>2018-08-19T11:29:28Z</time>
      </trkpt>
      <trkpt lat="48.68922" lon="1.97747">
        <ele>99</ele>
        <time>2018-08-19T11:29:32Z</time>
      </trkpt>
      <trkpt lat="48.68927" lon="1.97752">
        <ele>99</ele>
        <time>2018-08-19T11:29:36Z</time>
      </trkpt>
      <trkpt lat="48.68931" lon="1.97755">
        <ele>99</ele>
        <time>2018-08-19T11:29:48Z</time>
      </trkpt>
      <trkpt lat="48.68931" lon="1.97757">
        <ele>99</ele>
        <time>2018-08-19T11:29:53Z</time>
      </trkpt>
      <trkpt lat="48.68933" lon="1.97756">
        <ele>99</ele>
        <time>2018-08-19T11:30:05Z</time>
      </trkpt>
      <trkpt lat="48.68937" lon="1.9776">
        <ele>99</ele>
        <time>2018-08-19T11:30:09Z</time>
      </trkpt>
      <trkpt lat="48.68941" lon="1.97765">
        <ele>99</ele>
        <time>2018-08-19T11:30:13Z</time>
      </trkpt>
      <trkpt lat="48.68943" lon="1.97772">
        <ele>99</ele>
        <time>2018-08-19T11:30:17Z</time>
      </trkpt>
      <trkpt lat="48.68943" lon="1.97779">
        <ele>99</ele>
        <time>2018-08-19T11:30:21Z</time>
      </trkpt>
      <trkpt lat="48.6894" lon="1.97787">
        <ele>99</ele>
        <time>2018-08-19T11:30:26Z</time>
      </trkpt>
      <trkpt lat="48.68937" lon="1.97792">
        <ele>99</ele>
        <time>2018-08-19T11:30:30Z</time>
      </trkpt>
      <trkpt lat="48.68934" lon="1.97798">
        <ele>99</ele>
        <time>2018-08-19T11:30:34Z</time>
      </trkpt>
      <trkpt lat="48.68929" lon="1.97805">
        <ele>99</ele>
        <time>2018-08-19T11:30:39Z</time>
      </trkpt>
      <trkpt lat="48.68924" lon="1.97813">
        <ele>98</ele>
        <time>2018-08-19T11:30:44Z</time>
      </trkpt>
      <trkpt lat="48.68922" lon="1.97818">
        <ele>98</ele>
        <time>2018-08-19T11:30:49Z</time>
      </trkpt>
      <trkpt lat="48.68916" lon="1.97825">
        <ele>98</ele>
        <time>2018-08-19T11:30:54Z</time>
      </trkpt>
      <trkpt lat="48.68913" lon="1.97832">
        <ele>98</ele>
        <time>2018-08-19T11:30:58Z</time>
      </trkpt>
      <trkpt lat="48.68908" lon="1.9784">
        <ele>97</ele>
        <time>2018-08-19T11:31:03Z</time>
      </trkpt>
      <trkpt lat="48.68902" lon="1.97847">
        <ele>97</ele>
        <time>2018-08-19T11:31:08Z</time>
      </trkpt>
      <trkpt lat="48.68898" lon="1.97855">
        <ele>96</ele>
        <time>2018-08-19T11:31:13Z</time>
      </trkpt>
      <trkpt lat="48.68894" lon="1.9786">
        <ele>96</ele>
        <time>2018-08-19T11:31:17Z</time>
      </trkpt>
      <trkpt lat="48.6889" lon="1.97866">
        <ele>96</ele>
        <time>2018-08-19T11:31:21Z</time>
      </trkpt>
      <trkpt lat="48.68887" lon="1.97873">
        <ele>96</ele>
        <time>2018-08-19T11:31:25Z</time>
      </trkpt>
      <trkpt lat="48.68883" lon="1.9788">
        <ele>96</ele>
        <time>2018-08-19T11:31:29Z</time>
      </trkpt>
      <trkpt lat="48.68879" lon="1.97885">
        <ele>96</ele>
        <time>2018-08-19T11:31:33Z</time>
      </trkpt>
      <trkpt lat="48.68875" lon="1.97891">
        <ele>96</ele>
        <time>2018-08-19T11:31:37Z</time>
      </trkpt>
      <trkpt lat="48.68871" lon="1.97897">
        <ele>96</ele>
        <time>2018-08-19T11:31:41Z</time>
      </trkpt>
      <trkpt lat="48.68866" lon="1.97906">
        <ele>96</ele>
        <time>2018-08-19T11:31:46Z</time>
      </trkpt>
      <trkpt lat="48.68863" lon="1.97911">
        <ele>96</ele>
        <time>2018-08-19T11:31:50Z</time>
      </trkpt>
      <trkpt lat="48.6886" lon="1.97917">
        <ele>96</ele>
        <time>2018-08-19T11:31:54Z</time>
      </trkpt>
      <trkpt lat="48.68857" lon="1.97922">
        <ele>96</ele>
        <time>2018-08-19T11:31:58Z</time>
      </trkpt>
      <trkpt lat="48.68853" lon="1.97928">
        <ele>96</ele>
        <time>2018-08-19T11:32:02Z</time>
      </trkpt>
      <trkpt lat="48.6885" lon="1.97933">
        <ele>96</ele>
        <time>2018-08-19T11:32:06Z</time>
      </trkpt>
      <trkpt lat="48.68846" lon="1.97939">
        <ele>96</ele>
        <time>2018-08-19T11:32:10Z</time>
      </trkpt>
      <trkpt lat="48.68842" lon="1.97947">
        <ele>96</ele>
        <time>2018-08-19T11:32:15Z</time>
      </trkpt>
      <trkpt lat="48.68838" lon="1.97953">
        <ele>96</ele>
        <time>2018-08-19T11:32:19Z</time>
      </trkpt>
      <trkpt lat="48.68835" lon="1.97959">
        <ele>96</ele>
        <time>2018-08-19T11:32:23Z</time>
      </trkpt>
      <trkpt lat="48.68832" lon="1.97965">
        <ele>96</ele>
        <time>2018-08-19T11:32:27Z</time>
      </trkpt>
      <trkpt lat="48.68829" lon="1.97972">
        <ele>95</ele>
        <time>2018-08-19T11:32:31Z</time>
      </trkpt>
      <trkpt lat="48.68826" lon="1.97979">
        <ele>95</ele>
        <time>2018-08-19T11:32:35Z</time>
      </trkpt>
      <trkpt lat="48.68823" lon="1.97987">
        <ele>95</ele>
        <time>2018-08-19T11:32:39Z</time>
      </trkpt>
      <trkpt lat="48.6882" lon="1.97994">
        <ele>95</ele>
        <time>2018-08-19T11:32:43Z</time>
      </trkpt>
      <trkpt lat="48.68817" lon="1.98">
        <ele>95</ele>
        <time>2018-08-19T11:32:47Z</time>
      </trkpt>
      <trkpt lat="48.68813" lon="1.98007">
        <ele>95</ele>
        <time>2018-08-19T11:32:51Z</time>
      </trkpt>
      <trkpt lat="48.68809" lon="1.98014">
        <ele>95</ele>
        <time>2018-08-19T11:32:55Z</time>
      </trkpt>
      <trkpt lat="48.68805" lon="1.9802">
        <ele>94</ele>
        <time>2018-08-19T11:32:59Z</time>
      </trkpt>
      <trkpt lat="48.68802" lon="1.98027">
        <ele>94</ele>
        <time>2018-08-19T11:33:03Z</time>
      </trkpt>
      <trkpt lat="48.688" lon="1.9803">
        <ele>94</ele>
        <time>2018-08-19T11:33:25Z</time>
      </trkpt>
      <trkpt lat="48.68798" lon="1.98035">
        <ele>94</ele>
        <time>2018-08-19T11:33:29Z</time>
      </trkpt>
      <trkpt lat="48.68795" lon="1.98043">
        <ele>94</ele>
        <time>2018-08-19T11:33:33Z</time>
      </trkpt>
      <trkpt lat="48.6879" lon="1.9805">
        <ele>94</ele>
        <time>2018-08-19T11:33:37Z</time>
      </trkpt>
      <trkpt lat="48.68787" lon="1.98057">
        <ele>94</ele>
        <time>2018-08-19T11:33:41Z</time>
      </trkpt>
      <trkpt lat="48.68783" lon="1.98064">
        <ele>94</ele>
        <time>2018-08-19T11:33:45Z</time>
      </trkpt>
      <trkpt lat="48.68779" lon="1.98072">
        <ele>94</ele>
        <time>2018-08-19T11:33:49Z</time>
      </trkpt>
      <trkpt lat="48.68775" lon="1.98078">
        <ele>94</ele>
        <time>2018-08-19T11:33:53Z</time>
      </trkpt>
      <trkpt lat="48.68772" lon="1.98086">
        <ele>94</ele>
        <time>2018-08-19T11:33:57Z</time>
      </trkpt>
      <trkpt lat="48.68768" lon="1.98093">
        <ele>94</ele>
        <time>2018-08-19T11:34:01Z</time>
      </trkpt>
      <trkpt lat="48.68765" lon="1.981">
        <ele>94</ele>
        <time>2018-08-19T11:34:05Z</time>
      </trkpt>
      <trkpt lat="48.68761" lon="1.98107">
        <ele>94</ele>
        <time>2018-08-19T11:34:09Z</time>
      </trkpt>
      <trkpt lat="48.68759" lon="1.98114">
        <ele>95</ele>
        <time>2018-08-19T11:34:13Z</time>
      </trkpt>
      <trkpt lat="48.68762" lon="1.98122">
        <ele>95</ele>
        <time>2018-08-19T11:34:17Z</time>
      </trkpt>
      <trkpt lat="48.68767" lon="1.98129">
        <ele>96</ele>
        <time>2018-08-19T11:34:21Z</time>
      </trkpt>
      <trkpt lat="48.68769" lon="1.98138">
        <ele>97</ele>
        <time>2018-08-19T11:34:25Z</time>
      </trkpt>
      <trkpt lat="48.68771" lon="1.98147">
        <ele>97</ele>
        <time>2018-08-19T11:34:29Z</time>
      </trkpt>
      <trkpt lat="48.68773" lon="1.98156">
        <ele>98</ele>
        <time>2018-08-19T11:34:33Z</time>
      </trkpt>
      <trkpt lat="48.68774" lon="1.98165">
        <ele>99</ele>
        <time>2018-08-19T11:34:37Z</time>
      </trkpt>
      <trkpt lat="48.68774" lon="1.98174">
        <ele>99</ele>
        <time>2018-08-19T11:34:41Z</time>
      </trkpt>
      <trkpt lat="48.68772" lon="1.98181">
        <ele>100</ele>
        <time>2018-08-19T11:34:45Z</time>
      </trkpt>
      <trkpt lat="48.68767" lon="1.98186">
        <ele>100</ele>
        <time>2018-08-19T11:34:49Z</time>
      </trkpt>
      <trkpt lat="48.68762" lon="1.98189">
        <ele>101</ele>
        <time>2018-08-19T11:34:53Z</time>
      </trkpt>
      <trkpt lat="48.68761" lon="1.9819">
        <ele>102</ele>
        <time>2018-08-19T11:35:02Z</time>
      </trkpt>
      <trkpt lat="48.68766" lon="1.9819">
        <ele>102</ele>
        <time>2018-08-19T11:35:06Z</time>
      </trkpt>
      <trkpt lat="48.68772" lon="1.98189">
        <ele>102</ele>
        <time>2018-08-19T11:35:10Z</time>
      </trkpt>
      <trkpt lat="48.68778" lon="1.98194">
        <ele>102</ele>
        <time>2018-08-19T11:35:14Z</time>
      </trkpt>
      <trkpt lat="48.68781" lon="1.98201">
        <ele>102</ele>
        <time>2018-08-19T11:35:18Z</time>
      </trkpt>
      <trkpt lat="48.68785" lon="1.98208">
        <ele>102</ele>
        <time>2018-08-19T11:35:22Z</time>
      </trkpt>
      <trkpt lat="48.68789" lon="1.98214">
        <ele>102</ele>
        <time>2018-08-19T11:35:26Z</time>
      </trkpt>
      <trkpt lat="48.68792" lon="1.9822">
        <ele>102</ele>
        <time>2018-08-19T11:35:30Z</time>
      </trkpt>
      <trkpt lat="48.68799" lon="1.98225">
        <ele>102</ele>
        <time>2018-08-19T11:35:35Z</time>
      </trkpt>
      <trkpt lat="48.68802" lon="1.98233">
        <ele>102</ele>
        <time>2018-08-19T11:35:39Z</time>
      </trkpt>
      <trkpt lat="48.68804" lon="1.98241">
        <ele>102</ele>
        <time>2018-08-19T11:35:43Z</time>
      </trkpt>
      <trkpt lat="48.68806" lon="1.9825">
        <ele>102</ele>
        <time>2018-08-19T11:35:47Z</time>
      </trkpt>
      <trkpt lat="48.68808" lon="1.98258">
        <ele>102</ele>
        <time>2018-08-19T11:35:51Z</time>
      </trkpt>
      <trkpt lat="48.6881" lon="1.98267">
        <ele>102</ele>
        <time>2018-08-19T11:35:55Z</time>
      </trkpt>
      <trkpt lat="48.68811" lon="1.98275">
        <ele>102</ele>
        <time>2018-08-19T11:35:59Z</time>
      </trkpt>
      <trkpt lat="48.68812" lon="1.98283">
        <ele>102</ele>
        <time>2018-08-19T11:36:03Z</time>
      </trkpt>
      <trkpt lat="48.68814" lon="1.98291">
        <ele>102</ele>
        <time>2018-08-19T11:36:07Z</time>
      </trkpt>
      <trkpt lat="48.68815" lon="1.98301">
        <ele>102</ele>
        <time>2018-08-19T11:36:11Z</time>
      </trkpt>
      <trkpt lat="48.68817" lon="1.98309">
        <ele>102</ele>
        <time>2018-08-19T11:36:15Z</time>
      </trkpt>
      <trkpt lat="48.68818" lon="1.98318">
        <ele>102</ele>
        <time>2018-08-19T11:36:19Z</time>
      </trkpt>
      <trkpt lat="48.68816" lon="1.98327">
        <ele>102</ele>
        <time>2018-08-19T11:36:23Z</time>
      </trkpt>
      <trkpt lat="48.68814" lon="1.98336">
        <ele>102</ele>
        <time>2018-08-19T11:36:27Z</time>
      </trkpt>
      <trkpt lat="48.68811" lon="1.98343">
        <ele>102</ele>
        <time>2018-08-19T11:36:31Z</time>
      </trkpt>
      <trkpt lat="48.68808" lon="1.98351">
        <ele>102</ele>
        <time>2018-08-19T11:36:35Z</time>
      </trkpt>
      <trkpt lat="48.68807" lon="1.98358">
        <ele>102</ele>
        <time>2018-08-19T11:36:39Z</time>
      </trkpt>
      <trkpt lat="48.68808" lon="1.98362">
        <ele>103</ele>
        <time>2018-08-19T11:36:43Z</time>
      </trkpt>
      <trkpt lat="48.68807" lon="1.98361">
        <ele>104</ele>
        <time>2018-08-19T11:36:49Z</time>
      </trkpt>
      <trkpt lat="48.68805" lon="1.98361">
        <ele>106</ele>
        <time>2018-08-19T11:36:54Z</time>
      </trkpt>
      <trkpt lat="48.68806" lon="1.98368">
        <ele>107</ele>
        <time>2018-08-19T11:36:59Z</time>
      </trkpt>
      <trkpt lat="48.68811" lon="1.98373">
        <ele>108</ele>
        <time>2018-08-19T11:37:04Z</time>
      </trkpt>
      <trkpt lat="48.68815" lon="1.98374">
        <ele>108</ele>
        <time>2018-08-19T11:37:08Z</time>
      </trkpt>
      <trkpt lat="48.6882" lon="1.98375">
        <ele>109</ele>
        <time>2018-08-19T11:37:13Z</time>
      </trkpt>
      <trkpt lat="48.68824" lon="1.98376">
        <ele>109</ele>
        <time>2018-08-19T11:37:17Z</time>
      </trkpt>
      <trkpt lat="48.68828" lon="1.98378">
        <ele>109</ele>
        <time>2018-08-19T11:37:21Z</time>
      </trkpt>
      <trkpt lat="48.68834" lon="1.9838">
        <ele>109</ele>
        <time>2018-08-19T11:37:25Z</time>
      </trkpt>
      <trkpt lat="48.68839" lon="1.98383">
        <ele>109</ele>
        <time>2018-08-19T11:37:29Z</time>
      </trkpt>
      <trkpt lat="48.68845" lon="1.98386">
        <ele>109</ele>
        <time>2018-08-19T11:37:34Z</time>
      </trkpt>
      <trkpt lat="48.6885" lon="1.98388">
        <ele>109</ele>
        <time>2018-08-19T11:37:38Z</time>
      </trkpt>
      <trkpt lat="48.68856" lon="1.98389">
        <ele>109</ele>
        <time>2018-08-19T11:37:42Z</time>
      </trkpt>
      <trkpt lat="48.68862" lon="1.98389">
        <ele>109</ele>
        <time>2018-08-19T11:37:47Z</time>
      </trkpt>
      <trkpt lat="48.68867" lon="1.98392">
        <ele>109</ele>
        <time>2018-08-19T11:37:51Z</time>
      </trkpt>
      <trkpt lat="48.68872" lon="1.98397">
        <ele>109</ele>
        <time>2018-08-19T11:37:55Z</time>
      </trkpt>
      <trkpt lat="48.68877" lon="1.984">
        <ele>109</ele>
        <time>2018-08-19T11:38:00Z</time>
      </trkpt>
      <trkpt lat="48.68882" lon="1.98406">
        <ele>109</ele>
        <time>2018-08-19T11:38:04Z</time>
      </trkpt>
      <trkpt lat="48.68886" lon="1.98412">
        <ele>110</ele>
        <time>2018-08-19T11:38:08Z</time>
      </trkpt>
      <trkpt lat="48.68892" lon="1.9842">
        <ele>113</ele>
        <time>2018-08-19T11:38:13Z</time>
      </trkpt>
      <trkpt lat="48.68895" lon="1.98428">
        <ele>113</ele>
        <time>2018-08-19T11:38:17Z</time>
      </trkpt>
      <trkpt lat="48.689" lon="1.98435">
        <ele>113</ele>
        <time>2018-08-19T11:38:22Z</time>
      </trkpt>
      <trkpt lat="48.68904" lon="1.98441">
        <ele>113</ele>
        <time>2018-08-19T11:38:26Z</time>
      </trkpt>
      <trkpt lat="48.68909" lon="1.98449">
        <ele>114</ele>
        <time>2018-08-19T11:38:31Z</time>
      </trkpt>
      <trkpt lat="48.68912" lon="1.98454">
        <ele>115</ele>
        <time>2018-08-19T11:38:35Z</time>
      </trkpt>
      <trkpt lat="48.68916" lon="1.98461">
        <ele>116</ele>
        <time>2018-08-19T11:38:39Z</time>
      </trkpt>
      <trkpt lat="48.68919" lon="1.98469">
        <ele>116</ele>
        <time>2018-08-19T11:38:43Z</time>
      </trkpt>
      <trkpt lat="48.68925" lon="1.98477">
        <ele>116</ele>
        <time>2018-08-19T11:38:47Z</time>
      </trkpt>
      <trkpt lat="48.68932" lon="1.98484">
        <ele>119</ele>
        <time>2018-08-19T11:38:51Z</time>
      </trkpt>
      <trkpt lat="48.68935" lon="1.98491">
        <ele>121</ele>
        <time>2018-08-19T11:38:56Z</time>
      </trkpt>
      <trkpt lat="48.68939" lon="1.98498">
        <ele>122</ele>
        <time>2018-08-19T11:39:00Z</time>
      </trkpt>
      <trkpt lat="48.6894" lon="1.98506">
        <ele>125</ele>
        <time>2018-08-19T11:39:04Z</time>
      </trkpt>
      <trkpt lat="48.68942" lon="1.98514">
        <ele>125</ele>
        <time>2018-08-19T11:39:08Z</time>
      </trkpt>
      <trkpt lat="48.68947" lon="1.98522">
        <ele>126</ele>
        <time>2018-08-19T11:39:12Z</time>
      </trkpt>
      <trkpt lat="48.6895" lon="1.9853">
        <ele>128</ele>
        <time>2018-08-19T11:39:16Z</time>
      </trkpt>
      <trkpt lat="48.68952" lon="1.98538">
        <ele>130</ele>
        <time>2018-08-19T11:39:20Z</time>
      </trkpt>
      <trkpt lat="48.68955" lon="1.98547">
        <ele>131</ele>
        <time>2018-08-19T11:39:25Z</time>
      </trkpt>
      <trkpt lat="48.68957" lon="1.98555">
        <ele>132</ele>
        <time>2018-08-19T11:39:29Z</time>
      </trkpt>
      <trkpt lat="48.6896" lon="1.98562">
        <ele>132</ele>
        <time>2018-08-19T11:39:33Z</time>
      </trkpt>
      <trkpt lat="48.68962" lon="1.9857">
        <ele>132</ele>
        <time>2018-08-19T11:39:37Z</time>
      </trkpt>
      <trkpt lat="48.68965" lon="1.98576">
        <ele>132</ele>
        <time>2018-08-19T11:39:41Z</time>
      </trkpt>
      <trkpt lat="48.68966" lon="1.98584">
        <ele>132</ele>
        <time>2018-08-19T11:39:45Z</time>
      </trkpt>
      <trkpt lat="48.68969" lon="1.98592">
        <ele>132</ele>
        <time>2018-08-19T11:39:49Z</time>
      </trkpt>
      <trkpt lat="48.68971" lon="1.98599">
        <ele>135</ele>
        <time>2018-08-19T11:39:53Z</time>
      </trkpt>
      <trkpt lat="48.68974" lon="1.98607">
        <ele>137</ele>
        <time>2018-08-19T11:39:58Z</time>
      </trkpt>
      <trkpt lat="48.68976" lon="1.98614">
        <ele>139</ele>
        <time>2018-08-19T11:40:02Z</time>
      </trkpt>
      <trkpt lat="48.68979" lon="1.98621">
        <ele>140</ele>
        <time>2018-08-19T11:40:06Z</time>
      </trkpt>
      <trkpt lat="48.68982" lon="1.98631">
        <ele>140</ele>
        <time>2018-08-19T11:40:10Z</time>
      </trkpt>
      <trkpt lat="48.68987" lon="1.9864">
        <ele>140</ele>
        <time>2018-08-19T11:40:14Z</time>
      </trkpt>
      <trkpt lat="48.68991" lon="1.98651">
        <ele>142</ele>
        <time>2018-08-19T11:40:18Z</time>
      </trkpt>
      <trkpt lat="48.68989" lon="1.98658">
        <ele>142</ele>
        <time>2018-08-19T11:40:22Z</time>
      </trkpt>
      <trkpt lat="48.6899" lon="1.98667">
        <ele>142</ele>
        <time>2018-08-19T11:40:26Z</time>
      </trkpt>
      <trkpt lat="48.6899" lon="1.98673">
        <ele>142</ele>
        <time>2018-08-19T11:40:30Z</time>
      </trkpt>
      <trkpt lat="48.68993" lon="1.98682">
        <ele>140</ele>
        <time>2018-08-19T11:40:34Z</time>
      </trkpt>
      <trkpt lat="48.68995" lon="1.9869">
        <ele>139</ele>
        <time>2018-08-19T11:40:38Z</time>
      </trkpt>
      <trkpt lat="48.68996" lon="1.98699">
        <ele>139</ele>
        <time>2018-08-19T11:40:42Z</time>
      </trkpt>
      <trkpt lat="48.68997" lon="1.98706">
        <ele>139</ele>
        <time>2018-08-19T11:40:46Z</time>
      </trkpt>
      <trkpt lat="48.68998" lon="1.98714">
        <ele>139</ele>
        <time>2018-08-19T11:40:50Z</time>
      </trkpt>
      <trkpt lat="48.68999" lon="1.98721">
        <ele>139</ele>
        <time>2018-08-19T11:40:54Z</time>
      </trkpt>
      <trkpt lat="48.68999" lon="1.9873">
        <ele>139</ele>
        <time>2018-08-19T11:40:58Z</time>
      </trkpt>
      <trkpt lat="48.69002" lon="1.98739">
        <ele>139</ele>
        <time>2018-08-19T11:41:02Z</time>
      </trkpt>
      <trkpt lat="48.69006" lon="1.98745">
        <ele>140</ele>
        <time>2018-08-19T11:41:06Z</time>
      </trkpt>
      <trkpt lat="48.69014" lon="1.98745">
        <ele>142</ele>
        <time>2018-08-19T11:41:10Z</time>
      </trkpt>
      <trkpt lat="48.69017" lon="1.98746">
        <ele>145</ele>
        <time>2018-08-19T11:41:14Z</time>
      </trkpt>
      <trkpt lat="48.69021" lon="1.98747">
        <ele>145</ele>
        <time>2018-08-19T11:41:19Z</time>
      </trkpt>
      <trkpt lat="48.69025" lon="1.98747">
        <ele>145</ele>
        <time>2018-08-19T11:41:23Z</time>
      </trkpt>
      <trkpt lat="48.69032" lon="1.98749">
        <ele>144</ele>
        <time>2018-08-19T11:41:28Z</time>
      </trkpt>
      <trkpt lat="48.69039" lon="1.98748">
        <ele>143</ele>
        <time>2018-08-19T11:41:32Z</time>
      </trkpt>
      <trkpt lat="48.69044" lon="1.98747">
        <ele>143</ele>
        <time>2018-08-19T11:41:36Z</time>
      </trkpt>
      <trkpt lat="48.69048" lon="1.98747">
        <ele>143</ele>
        <time>2018-08-19T11:41:40Z</time>
      </trkpt>
      <trkpt lat="48.69054" lon="1.98746">
        <ele>143</ele>
        <time>2018-08-19T11:41:44Z</time>
      </trkpt>
      <trkpt lat="48.69063" lon="1.98744">
        <ele>143</ele>
        <time>2018-08-19T11:41:48Z</time>
      </trkpt>
      <trkpt lat="48.69069" lon="1.98746">
        <ele>144</ele>
        <time>2018-08-19T11:41:53Z</time>
      </trkpt>
      <trkpt lat="48.69075" lon="1.98751">
        <ele>145</ele>
        <time>2018-08-19T11:41:58Z</time>
      </trkpt>
      <trkpt lat="48.69077" lon="1.9876">
        <ele>145</ele>
        <time>2018-08-19T11:42:03Z</time>
      </trkpt>
      <trkpt lat="48.69075" lon="1.98764">
        <ele>145</ele>
        <time>2018-08-19T11:42:07Z</time>
      </trkpt>
      <trkpt lat="48.69074" lon="1.98768">
        <ele>147</ele>
        <time>2018-08-19T11:42:11Z</time>
      </trkpt>
      <trkpt lat="48.69071" lon="1.98772">
        <ele>147</ele>
        <time>2018-08-19T11:42:15Z</time>
      </trkpt>
      <trkpt lat="48.69067" lon="1.98779">
        <ele>147</ele>
        <time>2018-08-19T11:42:20Z</time>
      </trkpt>
      <trkpt lat="48.69063" lon="1.98784">
        <ele>147</ele>
        <time>2018-08-19T11:42:24Z</time>
      </trkpt>
      <trkpt lat="48.69059" lon="1.98789">
        <ele>147</ele>
        <time>2018-08-19T11:42:28Z</time>
      </trkpt>
      <trkpt lat="48.69055" lon="1.98797">
        <ele>147</ele>
        <time>2018-08-19T11:42:33Z</time>
      </trkpt>
      <trkpt lat="48.69054" lon="1.98802">
        <ele>147</ele>
        <time>2018-08-19T11:42:37Z</time>
      </trkpt>
      <trkpt lat="48.6905" lon="1.98807">
        <ele>147</ele>
        <time>2018-08-19T11:42:41Z</time>
      </trkpt>
      <trkpt lat="48.69047" lon="1.98814">
        <ele>147</ele>
        <time>2018-08-19T11:42:45Z</time>
      </trkpt>
      <trkpt lat="48.69045" lon="1.98821">
        <ele>147</ele>
        <time>2018-08-19T11:42:49Z</time>
      </trkpt>
      <trkpt lat="48.69043" lon="1.9883">
        <ele>147</ele>
        <time>2018-08-19T11:42:54Z</time>
      </trkpt>
      <trkpt lat="48.69041" lon="1.98835">
        <ele>147</ele>
        <time>2018-08-19T11:42:58Z</time>
      </trkpt>
      <trkpt lat="48.69039" lon="1.98839">
        <ele>147</ele>
        <time>2018-08-19T11:43:02Z</time>
      </trkpt>
      <trkpt lat="48.69038" lon="1.9884">
        <ele>147</ele>
        <time>2018-08-19T11:43:06Z</time>
      </trkpt>
      <trkpt lat="48.69037" lon="1.98842">
        <ele>147</ele>
        <time>2018-08-19T11:43:10Z</time>
      </trkpt>
      <trkpt lat="48.69036" lon="1.98844">
        <ele>148</ele>
        <time>2018-08-19T11:43:14Z</time>
      </trkpt>
      <trkpt lat="48.69033" lon="1.9885">
        <ele>152</ele>
        <time>2018-08-19T11:43:19Z</time>
      </trkpt>
      <trkpt lat="48.69029" lon="1.98851">
        <ele>152</ele>
        <time>2018-08-19T11:43:23Z</time>
      </trkpt>
      <trkpt lat="48.69024" lon="1.98853">
        <ele>152</ele>
        <time>2018-08-19T11:43:27Z</time>
      </trkpt>
      <trkpt lat="48.69019" lon="1.98853">
        <ele>152</ele>
        <time>2018-08-19T11:43:31Z</time>
      </trkpt>
      <trkpt lat="48.69014" lon="1.98852">
        <ele>152</ele>
        <time>2018-08-19T11:43:35Z</time>
      </trkpt>
      <trkpt lat="48.69008" lon="1.98851">
        <ele>152</ele>
        <time>2018-08-19T11:43:39Z</time>
      </trkpt>
      <trkpt lat="48.69004" lon="1.9885">
        <ele>152</ele>
        <time>2018-08-19T11:43:43Z</time>
      </trkpt>
      <trkpt lat="48.68998" lon="1.98847">
        <ele>152</ele>
        <time>2018-08-19T11:43:47Z</time>
      </trkpt>
      <trkpt lat="48.68991" lon="1.98846">
        <ele>152</ele>
        <time>2018-08-19T11:43:51Z</time>
      </trkpt>
      <trkpt lat="48.68984" lon="1.98844">
        <ele>155</ele>
        <time>2018-08-19T11:43:55Z</time>
      </trkpt>
      <trkpt lat="48.68979" lon="1.98841">
        <ele>157</ele>
        <time>2018-08-19T11:43:59Z</time>
      </trkpt>
      <trkpt lat="48.68973" lon="1.98839">
        <ele>158</ele>
        <time>2018-08-19T11:44:03Z</time>
      </trkpt>
      <trkpt lat="48.68969" lon="1.98835">
        <ele>159</ele>
        <time>2018-08-19T11:44:07Z</time>
      </trkpt>
      <trkpt lat="48.68965" lon="1.98834">
        <ele>160</ele>
        <time>2018-08-19T11:44:11Z</time>
      </trkpt>
      <trkpt lat="48.6896" lon="1.98831">
        <ele>162</ele>
        <time>2018-08-19T11:44:15Z</time>
      </trkpt>
      <trkpt lat="48.68956" lon="1.9883">
        <ele>164</ele>
        <time>2018-08-19T11:44:19Z</time>
      </trkpt>
      <trkpt lat="48.68948" lon="1.98825">
        <ele>165</ele>
        <time>2018-08-19T11:44:23Z</time>
      </trkpt>
      <trkpt lat="48.68943" lon="1.9882">
        <ele>167</ele>
        <time>2018-08-19T11:44:27Z</time>
      </trkpt>
      <trkpt lat="48.68939" lon="1.98812">
        <ele>167</ele>
        <time>2018-08-19T11:44:31Z</time>
      </trkpt>
      <trkpt lat="48.68938" lon="1.98803">
        <ele>167</ele>
        <time>2018-08-19T11:44:35Z</time>
      </trkpt>
      <trkpt lat="48.68937" lon="1.98792">
        <ele>167</ele>
        <time>2018-08-19T11:44:39Z</time>
      </trkpt>
      <trkpt lat="48.68936" lon="1.98783">
        <ele>167</ele>
        <time>2018-08-19T11:44:43Z</time>
      </trkpt>
      <trkpt lat="48.68937" lon="1.98776">
        <ele>167</ele>
        <time>2018-08-19T11:44:47Z</time>
      </trkpt>
      <trkpt lat="48.68938" lon="1.98767">
        <ele>167</ele>
        <time>2018-08-19T11:44:51Z</time>
      </trkpt>
      <trkpt lat="48.68938" lon="1.98759">
        <ele>166</ele>
        <time>2018-08-19T11:44:55Z</time>
      </trkpt>
      <trkpt lat="48.68935" lon="1.9875">
        <ele>165</ele>
        <time>2018-08-19T11:44:59Z</time>
      </trkpt>
      <trkpt lat="48.68932" lon="1.98741">
        <ele>163</ele>
        <time>2018-08-19T11:45:03Z</time>
      </trkpt>
      <trkpt lat="48.68932" lon="1.98734">
        <ele>161</ele>
        <time>2018-08-19T11:45:07Z</time>
      </trkpt>
      <trkpt lat="48.6893" lon="1.98725">
        <ele>160</ele>
        <time>2018-08-19T11:45:11Z</time>
      </trkpt>
      <trkpt lat="48.68928" lon="1.98715">
        <ele>160</ele>
        <time>2018-08-19T11:45:15Z</time>
      </trkpt>
      <trkpt lat="48.68928" lon="1.98711">
        <ele>160</ele>
        <time>2018-08-19T11:45:23Z</time>
      </trkpt>
      <trkpt lat="48.68926" lon="1.98707">
        <ele>160</ele>
        <time>2018-08-19T11:45:28Z</time>
      </trkpt>
      <trkpt lat="48.68924" lon="1.98706">
        <ele>160</ele>
        <time>2018-08-19T11:45:34Z</time>
      </trkpt>
      <trkpt lat="48.68922" lon="1.987">
        <ele>160</ele>
        <time>2018-08-19T11:45:39Z</time>
      </trkpt>
      <trkpt lat="48.68916" lon="1.98696">
        <ele>162</ele>
        <time>2018-08-19T11:45:43Z</time>
      </trkpt>
      <trkpt lat="48.68912" lon="1.9869">
        <ele>162</ele>
        <time>2018-08-19T11:45:48Z</time>
      </trkpt>
      <trkpt lat="48.6891" lon="1.98684">
        <ele>162</ele>
        <time>2018-08-19T11:45:52Z</time>
      </trkpt>
      <trkpt lat="48.68904" lon="1.98676">
        <ele>162</ele>
        <time>2018-08-19T11:45:57Z</time>
      </trkpt>
      <trkpt lat="48.689" lon="1.98672">
        <ele>159</ele>
        <time>2018-08-19T11:46:01Z</time>
      </trkpt>
      <trkpt lat="48.68895" lon="1.98669">
        <ele>156</ele>
        <time>2018-08-19T11:46:06Z</time>
      </trkpt>
      <trkpt lat="48.68889" lon="1.98664">
        <ele>155</ele>
        <time>2018-08-19T11:46:10Z</time>
      </trkpt>
      <trkpt lat="48.68881" lon="1.98658">
        <ele>155</ele>
        <time>2018-08-19T11:46:14Z</time>
      </trkpt>
      <trkpt lat="48.68876" lon="1.98655">
        <ele>155</ele>
        <time>2018-08-19T11:46:18Z</time>
      </trkpt>
      <trkpt lat="48.68871" lon="1.98654">
        <ele>155</ele>
        <time>2018-08-19T11:46:22Z</time>
      </trkpt>
      <trkpt lat="48.68864" lon="1.98651">
        <ele>155</ele>
        <time>2018-08-19T11:46:26Z</time>
      </trkpt>
      <trkpt lat="48.68858" lon="1.98648">
        <ele>155</ele>
        <time>2018-08-19T11:46:30Z</time>
      </trkpt>
      <trkpt lat="48.68852" lon="1.98647">
        <ele>155</ele>
        <time>2018-08-19T11:46:34Z</time>
      </trkpt>
      <trkpt lat="48.68845" lon="1.98646">
        <ele>155</ele>
        <time>2018-08-19T11:46:39Z</time>
      </trkpt>
      <trkpt lat="48.68838" lon="1.98645">
        <ele>155</ele>
        <time>2018-08-19T11:46:43Z</time>
      </trkpt>
      <trkpt lat="48.68831" lon="1.98645">
        <ele>155</ele>
        <time>2018-08-19T11:46:47Z</time>
      </trkpt>
      <trkpt lat="48.68825" lon="1.98647">
        <ele>155</ele>
        <time>2018-08-19T11:46:51Z</time>
      </trkpt>
      <trkpt lat="48.68819" lon="1.9865">
        <ele>155</ele>
        <time>2018-08-19T11:46:55Z</time>
      </trkpt>
      <trkpt lat="48.68814" lon="1.98655">
        <ele>155</ele>
        <time>2018-08-19T11:46:59Z</time>
      </trkpt>
      <trkpt lat="48.68808" lon="1.98659">
        <ele>155</ele>
        <time>2018-08-19T11:47:03Z</time>
      </trkpt>
      <trkpt lat="48.68803" lon="1.98668">
        <ele>157</ele>
        <time>2018-08-19T11:47:07Z</time>
      </trkpt>
      <trkpt lat="48.68798" lon="1.98675">
        <ele>159</ele>
        <time>2018-08-19T11:47:11Z</time>
      </trkpt>
      <trkpt lat="48.68792" lon="1.98682">
        <ele>160</ele>
        <time>2018-08-19T11:47:15Z</time>
      </trkpt>
      <trkpt lat="48.68786" lon="1.98688">
        <ele>160</ele>
        <time>2018-08-19T11:47:19Z</time>
      </trkpt>
      <trkpt lat="48.68782" lon="1.98695">
        <ele>160</ele>
        <time>2018-08-19T11:47:23Z</time>
      </trkpt>
      <trkpt lat="48.68778" lon="1.98702">
        <ele>160</ele>
        <time>2018-08-19T11:47:27Z</time>
      </trkpt>
      <trkpt lat="48.68774" lon="1.98709">
        <ele>160</ele>
        <time>2018-08-19T11:47:31Z</time>
      </trkpt>
      <trkpt lat="48.6877" lon="1.98716">
        <ele>160</ele>
        <time>2018-08-19T11:47:35Z</time>
      </trkpt>
      <trkpt lat="48.68766" lon="1.98724">
        <ele>160</ele>
        <time>2018-08-19T11:47:39Z</time>
      </trkpt>
      <trkpt lat="48.68762" lon="1.98734">
        <ele>160</ele>
        <time>2018-08-19T11:47:43Z</time>
      </trkpt>
      <trkpt lat="48.6876" lon="1.98741">
        <ele>162</ele>
        <time>2018-08-19T11:47:47Z</time>
      </trkpt>
      <trkpt lat="48.68755" lon="1.98751">
        <ele>163</ele>
        <time>2018-08-19T11:47:51Z</time>
      </trkpt>
      <trkpt lat="48.6875" lon="1.98758">
        <ele>165</ele>
        <time>2018-08-19T11:47:55Z</time>
      </trkpt>
      <trkpt lat="48.68745" lon="1.98765">
        <ele>166</ele>
        <time>2018-08-19T11:47:59Z</time>
      </trkpt>
      <trkpt lat="48.68741" lon="1.98772">
        <ele>167</ele>
        <time>2018-08-19T11:48:03Z</time>
      </trkpt>
      <trkpt lat="48.68735" lon="1.98777">
        <ele>167</ele>
        <time>2018-08-19T11:48:07Z</time>
      </trkpt>
      <trkpt lat="48.6873" lon="1.98782">
        <ele>167</ele>
        <time>2018-08-19T11:48:11Z</time>
      </trkpt>
      <trkpt lat="48.68725" lon="1.98788">
        <ele>167</ele>
        <time>2018-08-19T11:48:15Z</time>
      </trkpt>
      <trkpt lat="48.68721" lon="1.98794">
        <ele>167</ele>
        <time>2018-08-19T11:48:20Z</time>
      </trkpt>
      <trkpt lat="48.68717" lon="1.98798">
        <ele>167</ele>
        <time>2018-08-19T11:48:24Z</time>
      </trkpt>
      <trkpt lat="48.68712" lon="1.98803">
        <ele>167</ele>
        <time>2018-08-19T11:48:28Z</time>
      </trkpt>
      <trkpt lat="48.68706" lon="1.98809">
        <ele>167</ele>
        <time>2018-08-19T11:48:32Z</time>
      </trkpt>
      <trkpt lat="48.687" lon="1.98813">
        <ele>167</ele>
        <time>2018-08-19T11:48:36Z</time>
      </trkpt>
      <trkpt lat="48.68695" lon="1.98819">
        <ele>167</ele>
        <time>2018-08-19T11:48:40Z</time>
      </trkpt>
      <trkpt lat="48.68689" lon="1.98824">
        <ele>167</ele>
        <time>2018-08-19T11:48:44Z</time>
      </trkpt>
      <trkpt lat="48.68683" lon="1.98827">
        <ele>167</ele>
        <time>2018-08-19T11:48:48Z</time>
      </trkpt>
      <trkpt lat="48.68677" lon="1.98827">
        <ele>167</ele>
        <time>2018-08-19T11:48:52Z</time>
      </trkpt>
      <trkpt lat="48.68672" lon="1.98829">
        <ele>167</ele>
        <time>2018-08-19T11:48:56Z</time>
      </trkpt>
      <trkpt lat="48.68665" lon="1.98829">
        <ele>167</ele>
        <time>2018-08-19T11:49:00Z</time>
      </trkpt>
      <trkpt lat="48.68658" lon="1.98829">
        <ele>167</ele>
        <time>2018-08-19T11:49:04Z</time>
      </trkpt>
      <trkpt lat="48.68652" lon="1.9883">
        <ele>167</ele>
        <time>2018-08-19T11:49:08Z</time>
      </trkpt>
      <trkpt lat="48.68645" lon="1.9883">
        <ele>167</ele>
        <time>2018-08-19T11:49:12Z</time>
      </trkpt>
      <trkpt lat="48.68638" lon="1.9883">
        <ele>167</ele>
        <time>2018-08-19T11:49:16Z</time>
      </trkpt>
      <trkpt lat="48.68631" lon="1.9883">
        <ele>167</ele>
        <time>2018-08-19T11:49:20Z</time>
      </trkpt>
      <trkpt lat="48.68624" lon="1.9883">
        <ele>167</ele>
        <time>2018-08-19T11:49:24Z</time>
      </trkpt>
      <trkpt lat="48.68617" lon="1.98832">
        <ele>167</ele>
        <time>2018-08-19T11:49:28Z</time>
      </trkpt>
      <trkpt lat="48.68611" lon="1.98833">
        <ele>167</ele>
        <time>2018-08-19T11:49:32Z</time>
      </trkpt>
      <trkpt lat="48.68604" lon="1.98834">
        <ele>167</ele>
        <time>2018-08-19T11:49:36Z</time>
      </trkpt>
      <trkpt lat="48.68597" lon="1.98836">
        <ele>167</ele>
        <time>2018-08-19T11:49:40Z</time>
      </trkpt>
      <trkpt lat="48.68592" lon="1.98836">
        <ele>167</ele>
        <time>2018-08-19T11:49:44Z</time>
      </trkpt>
      <trkpt lat="48.68587" lon="1.98836">
        <ele>167</ele>
        <time>2018-08-19T11:49:48Z</time>
      </trkpt>
      <trkpt lat="48.68584" lon="1.98833">
        <ele>167</ele>
        <time>2018-08-19T11:49:53Z</time>
      </trkpt>
      <trkpt lat="48.68583" lon="1.98832">
        <ele>168</ele>
        <time>2018-08-19T11:50:00Z</time>
      </trkpt>
      <trkpt lat="48.68581" lon="1.9883">
        <ele>168</ele>
        <time>2018-08-19T11:50:04Z</time>
      </trkpt>
      <trkpt lat="48.68577" lon="1.98828">
        <ele>168</ele>
        <time>2018-08-19T11:50:08Z</time>
      </trkpt>
      <trkpt lat="48.68571" lon="1.98829">
        <ele>168</ele>
        <time>2018-08-19T11:50:12Z</time>
      </trkpt>
      <trkpt lat="48.68565" lon="1.98832">
        <ele>168</ele>
        <time>2018-08-19T11:50:16Z</time>
      </trkpt>
      <trkpt lat="48.6856" lon="1.98834">
        <ele>168</ele>
        <time>2018-08-19T11:50:20Z</time>
      </trkpt>
      <trkpt lat="48.68556" lon="1.98837">
        <ele>167</ele>
        <time>2018-08-19T11:50:24Z</time>
      </trkpt>
      <trkpt lat="48.68552" lon="1.98839">
        <ele>167</ele>
        <time>2018-08-19T11:50:28Z</time>
      </trkpt>
      <trkpt lat="48.68549" lon="1.9884">
        <ele>167</ele>
        <time>2018-08-19T11:50:32Z</time>
      </trkpt>
      <trkpt lat="48.68547" lon="1.98841">
        <ele>167</ele>
        <time>2018-08-19T11:50:36Z</time>
      </trkpt>
      <trkpt lat="48.68544" lon="1.98839">
        <ele>167</ele>
        <time>2018-08-19T11:50:41Z</time>
      </trkpt>
      <trkpt lat="48.68542" lon="1.98835">
        <ele>167</ele>
        <time>2018-08-19T11:50:45Z</time>
      </trkpt>
      <trkpt lat="48.6854" lon="1.98829">
        <ele>167</ele>
        <time>2018-08-19T11:50:49Z</time>
      </trkpt>
      <trkpt lat="48.68536" lon="1.98821">
        <ele>167</ele>
        <time>2018-08-19T11:50:54Z</time>
      </trkpt>
      <trkpt lat="48.68535" lon="1.98817">
        <ele>167</ele>
        <time>2018-08-19T11:50:58Z</time>
      </trkpt>
      <trkpt lat="48.68533" lon="1.98811">
        <ele>167</ele>
        <time>2018-08-19T11:51:02Z</time>
      </trkpt>
      <trkpt lat="48.68529" lon="1.98805">
        <ele>167</ele>
        <time>2018-08-19T11:51:06Z</time>
      </trkpt>
      <trkpt lat="48.68525" lon="1.988">
        <ele>167</ele>
        <time>2018-08-19T11:51:10Z</time>
      </trkpt>
      <trkpt lat="48.68521" lon="1.98795">
        <ele>167</ele>
        <time>2018-08-19T11:51:14Z</time>
      </trkpt>
      <trkpt lat="48.68515" lon="1.98789">
        <ele>167</ele>
        <time>2018-08-19T11:51:19Z</time>
      </trkpt>
      <trkpt lat="48.6851" lon="1.98784">
        <ele>167</ele>
        <time>2018-08-19T11:51:23Z</time>
      </trkpt>
      <trkpt lat="48.68506" lon="1.9878">
        <ele>167</ele>
        <time>2018-08-19T11:51:27Z</time>
      </trkpt>
      <trkpt lat="48.685" lon="1.98776">
        <ele>167</ele>
        <time>2018-08-19T11:51:31Z</time>
      </trkpt>
      <trkpt lat="48.68495" lon="1.98771">
        <ele>167</ele>
        <time>2018-08-19T11:51:35Z</time>
      </trkpt>
      <trkpt lat="48.68491" lon="1.98768">
        <ele>167</ele>
        <time>2018-08-19T11:51:39Z</time>
      </trkpt>
      <trkpt lat="48.68485" lon="1.98764">
        <ele>167</ele>
        <time>2018-08-19T11:51:43Z</time>
      </trkpt>
      <trkpt lat="48.6848" lon="1.98761">
        <ele>167</ele>
        <time>2018-08-19T11:51:47Z</time>
      </trkpt>
      <trkpt lat="48.68474" lon="1.98757">
        <ele>167</ele>
        <time>2018-08-19T11:51:51Z</time>
      </trkpt>
      <trkpt lat="48.68469" lon="1.98754">
        <ele>167</ele>
        <time>2018-08-19T11:51:55Z</time>
      </trkpt>
      <trkpt lat="48.68463" lon="1.98752">
        <ele>167</ele>
        <time>2018-08-19T11:51:59Z</time>
      </trkpt>
      <trkpt lat="48.68458" lon="1.98751">
        <ele>167</ele>
        <time>2018-08-19T11:52:03Z</time>
      </trkpt>
      <trkpt lat="48.68453" lon="1.98748">
        <ele>167</ele>
        <time>2018-08-19T11:52:07Z</time>
      </trkpt>
      <trkpt lat="48.68447" lon="1.98744">
        <ele>167</ele>
        <time>2018-08-19T11:52:11Z</time>
      </trkpt>
      <trkpt lat="48.68442" lon="1.9874">
        <ele>167</ele>
        <time>2018-08-19T11:52:15Z</time>
      </trkpt>
      <trkpt lat="48.68438" lon="1.98737">
        <ele>167</ele>
        <time>2018-08-19T11:52:19Z</time>
      </trkpt>
      <trkpt lat="48.68433" lon="1.98733">
        <ele>167</ele>
        <time>2018-08-19T11:52:23Z</time>
      </trkpt>
      <trkpt lat="48.68428" lon="1.9873">
        <ele>167</ele>
        <time>2018-08-19T11:52:27Z</time>
      </trkpt>
      <trkpt lat="48.68421" lon="1.98726">
        <ele>167</ele>
        <time>2018-08-19T11:52:31Z</time>
      </trkpt>
      <trkpt lat="48.68416" lon="1.98723">
        <ele>167</ele>
        <time>2018-08-19T11:52:35Z</time>
      </trkpt>
      <trkpt lat="48.6841" lon="1.9872">
        <ele>167</ele>
        <time>2018-08-19T11:52:39Z</time>
      </trkpt>
      <trkpt lat="48.68404" lon="1.98716">
        <ele>167</ele>
        <time>2018-08-19T11:52:44Z</time>
      </trkpt>
      <trkpt lat="48.68399" lon="1.98713">
        <ele>167</ele>
        <time>2018-08-19T11:52:48Z</time>
      </trkpt>
      <trkpt lat="48.68394" lon="1.98709">
        <ele>167</ele>
        <time>2018-08-19T11:52:52Z</time>
      </trkpt>
      <trkpt lat="48.68388" lon="1.98705">
        <ele>167</ele>
        <time>2018-08-19T11:52:56Z</time>
      </trkpt>
      <trkpt lat="48.68382" lon="1.98702">
        <ele>167</ele>
        <time>2018-08-19T11:53:00Z</time>
      </trkpt>
      <trkpt lat="48.68376" lon="1.98697">
        <ele>167</ele>
        <time>2018-08-19T11:53:04Z</time>
      </trkpt>
      <trkpt lat="48.68369" lon="1.98693">
        <ele>167</ele>
        <time>2018-08-19T11:53:08Z</time>
      </trkpt>
      <trkpt lat="48.68364" lon="1.98689">
        <ele>167</ele>
        <time>2018-08-19T11:53:12Z</time>
      </trkpt>
      <trkpt lat="48.68359" lon="1.98685">
        <ele>167</ele>
        <time>2018-08-19T11:53:17Z</time>
      </trkpt>
      <trkpt lat="48.68354" lon="1.98684">
        <ele>167</ele>
        <time>2018-08-19T11:53:21Z</time>
      </trkpt>
      <trkpt lat="48.68348" lon="1.9868">
        <ele>167</ele>
        <time>2018-08-19T11:53:25Z</time>
      </trkpt>
      <trkpt lat="48.68342" lon="1.98677">
        <ele>167</ele>
        <time>2018-08-19T11:53:29Z</time>
      </trkpt>
      <trkpt lat="48.68335" lon="1.98675">
        <ele>167</ele>
        <time>2018-08-19T11:53:33Z</time>
      </trkpt>
      <trkpt lat="48.68328" lon="1.9867">
        <ele>167</ele>
        <time>2018-08-19T11:53:37Z</time>
      </trkpt>
      <trkpt lat="48.68323" lon="1.98668">
        <ele>167</ele>
        <time>2018-08-19T11:53:41Z</time>
      </trkpt>
      <trkpt lat="48.68317" lon="1.98666">
        <ele>167</ele>
        <time>2018-08-19T11:53:45Z</time>
      </trkpt>
      <trkpt lat="48.68311" lon="1.98661">
        <ele>167</ele>
        <time>2018-08-19T11:53:50Z</time>
      </trkpt>
      <trkpt lat="48.68307" lon="1.98658">
        <ele>167</ele>
        <time>2018-08-19T11:53:54Z</time>
      </trkpt>
      <trkpt lat="48.68301" lon="1.98654">
        <ele>167</ele>
        <time>2018-08-19T11:53:58Z</time>
      </trkpt>
      <trkpt lat="48.68296" lon="1.98651">
        <ele>167</ele>
        <time>2018-08-19T11:54:02Z</time>
      </trkpt>
      <trkpt lat="48.68291" lon="1.98649">
        <ele>167</ele>
        <time>2018-08-19T11:54:06Z</time>
      </trkpt>
      <trkpt lat="48.68285" lon="1.98648">
        <ele>167</ele>
        <time>2018-08-19T11:54:10Z</time>
      </trkpt>
      <trkpt lat="48.68279" lon="1.98647">
        <ele>167</ele>
        <time>2018-08-19T11:54:14Z</time>
      </trkpt>
      <trkpt lat="48.68274" lon="1.98646">
        <ele>167</ele>
        <time>2018-08-19T11:54:18Z</time>
      </trkpt>
      <trkpt lat="48.68269" lon="1.98645">
        <ele>167</ele>
        <time>2018-08-19T11:54:22Z</time>
      </trkpt>
      <trkpt lat="48.68264" lon="1.98644">
        <ele>167</ele>
        <time>2018-08-19T11:54:26Z</time>
      </trkpt>
      <trkpt lat="48.6826" lon="1.98645">
        <ele>167</ele>
        <time>2018-08-19T11:54:30Z</time>
      </trkpt>
      <trkpt lat="48.68256" lon="1.98646">
        <ele>167</ele>
        <time>2018-08-19T11:54:34Z</time>
      </trkpt>
      <trkpt lat="48.6825" lon="1.98646">
        <ele>167</ele>
        <time>2018-08-19T11:54:38Z</time>
      </trkpt>
      <trkpt lat="48.68245" lon="1.98647">
        <ele>167</ele>
        <time>2018-08-19T11:54:42Z</time>
      </trkpt>
      <trkpt lat="48.68239" lon="1.98648">
        <ele>167</ele>
        <time>2018-08-19T11:54:46Z</time>
      </trkpt>
      <trkpt lat="48.68233" lon="1.98649">
        <ele>167</ele>
        <time>2018-08-19T11:54:50Z</time>
      </trkpt>
      <trkpt lat="48.68228" lon="1.9865">
        <ele>167</ele>
        <time>2018-08-19T11:54:54Z</time>
      </trkpt>
      <trkpt lat="48.68222" lon="1.98651">
        <ele>167</ele>
        <time>2018-08-19T11:54:58Z</time>
      </trkpt>
      <trkpt lat="48.68216" lon="1.98652">
        <ele>167</ele>
        <time>2018-08-19T11:55:02Z</time>
      </trkpt>
      <trkpt lat="48.6821" lon="1.98651">
        <ele>167</ele>
        <time>2018-08-19T11:55:06Z</time>
      </trkpt>
      <trkpt lat="48.68204" lon="1.98652">
        <ele>166</ele>
        <time>2018-08-19T11:55:10Z</time>
      </trkpt>
      <trkpt lat="48.68199" lon="1.98653">
        <ele>166</ele>
        <time>2018-08-19T11:55:14Z</time>
      </trkpt>
      <trkpt lat="48.68193" lon="1.98654">
        <ele>166</ele>
        <time>2018-08-19T11:55:18Z</time>
      </trkpt>
      <trkpt lat="48.68187" lon="1.98656">
        <ele>166</ele>
        <time>2018-08-19T11:55:22Z</time>
      </trkpt>
      <trkpt lat="48.68181" lon="1.98656">
        <ele>166</ele>
        <time>2018-08-19T11:55:26Z</time>
      </trkpt>
      <trkpt lat="48.68174" lon="1.98658">
        <ele>166</ele>
        <time>2018-08-19T11:55:30Z</time>
      </trkpt>
      <trkpt lat="48.68168" lon="1.98658">
        <ele>166</ele>
        <time>2018-08-19T11:55:34Z</time>
      </trkpt>
      <trkpt lat="48.68163" lon="1.98657">
        <ele>166</ele>
        <time>2018-08-19T11:55:38Z</time>
      </trkpt>
      <trkpt lat="48.68157" lon="1.98658">
        <ele>166</ele>
        <time>2018-08-19T11:55:42Z</time>
      </trkpt>
      <trkpt lat="48.68151" lon="1.98659">
        <ele>166</ele>
        <time>2018-08-19T11:55:46Z</time>
      </trkpt>
      <trkpt lat="48.68144" lon="1.98658">
        <ele>166</ele>
        <time>2018-08-19T11:55:50Z</time>
      </trkpt>
      <trkpt lat="48.68139" lon="1.98658">
        <ele>166</ele>
        <time>2018-08-19T11:55:54Z</time>
      </trkpt>
      <trkpt lat="48.68133" lon="1.98658">
        <ele>165</ele>
        <time>2018-08-19T11:55:58Z</time>
      </trkpt>
      <trkpt lat="48.68126" lon="1.98657">
        <ele>165</ele>
        <time>2018-08-19T11:56:02Z</time>
      </trkpt>
      <trkpt lat="48.68119" lon="1.98654">
        <ele>164</ele>
        <time>2018-08-19T11:56:06Z</time>
      </trkpt>
      <trkpt lat="48.68114" lon="1.98654">
        <ele>164</ele>
        <time>2018-08-19T11:56:10Z</time>
      </trkpt>
      <trkpt lat="48.68108" lon="1.98653">
        <ele>164</ele>
        <time>2018-08-19T11:56:14Z</time>
      </trkpt>
      <trkpt lat="48.68101" lon="1.98652">
        <ele>163</ele>
        <time>2018-08-19T11:56:18Z</time>
      </trkpt>
      <trkpt lat="48.68095" lon="1.98651">
        <ele>163</ele>
        <time>2018-08-19T11:56:22Z</time>
      </trkpt>
      <trkpt lat="48.68089" lon="1.9865">
        <ele>163</ele>
        <time>2018-08-19T11:56:26Z</time>
      </trkpt>
      <trkpt lat="48.68083" lon="1.98649">
        <ele>163</ele>
        <time>2018-08-19T11:56:30Z</time>
      </trkpt>
      <trkpt lat="48.68077" lon="1.98649">
        <ele>163</ele>
        <time>2018-08-19T11:56:34Z</time>
      </trkpt>
      <trkpt lat="48.68072" lon="1.98649">
        <ele>163</ele>
        <time>2018-08-19T11:56:38Z</time>
      </trkpt>
      <trkpt lat="48.68066" lon="1.98648">
        <ele>163</ele>
        <time>2018-08-19T11:56:42Z</time>
      </trkpt>
      <trkpt lat="48.6806" lon="1.98647">
        <ele>163</ele>
        <time>2018-08-19T11:56:46Z</time>
      </trkpt>
      <trkpt lat="48.68053" lon="1.98643">
        <ele>163</ele>
        <time>2018-08-19T11:56:50Z</time>
      </trkpt>
      <trkpt lat="48.68048" lon="1.9864">
        <ele>163</ele>
        <time>2018-08-19T11:56:54Z</time>
      </trkpt>
      <trkpt lat="48.68042" lon="1.98638">
        <ele>163</ele>
        <time>2018-08-19T11:56:58Z</time>
      </trkpt>
      <trkpt lat="48.68036" lon="1.98636">
        <ele>163</ele>
        <time>2018-08-19T11:57:02Z</time>
      </trkpt>
      <trkpt lat="48.6803" lon="1.98635">
        <ele>163</ele>
        <time>2018-08-19T11:57:06Z</time>
      </trkpt>
      <trkpt lat="48.68024" lon="1.98633">
        <ele>163</ele>
        <time>2018-08-19T11:57:10Z</time>
      </trkpt>
      <trkpt lat="48.68019" lon="1.98631">
        <ele>163</ele>
        <time>2018-08-19T11:57:14Z</time>
      </trkpt>
      <trkpt lat="48.68014" lon="1.98629">
        <ele>163</ele>
        <time>2018-08-19T11:57:18Z</time>
      </trkpt>
      <trkpt lat="48.68008" lon="1.98627">
        <ele>163</ele>
        <time>2018-08-19T11:57:23Z</time>
      </trkpt>
      <trkpt lat="48.68" lon="1.98627">
        <ele>165</ele>
        <time>2018-08-19T11:57:27Z</time>
      </trkpt>
      <trkpt lat="48.67994" lon="1.98623">
        <ele>167</ele>
        <time>2018-08-19T11:57:31Z</time>
      </trkpt>
      <trkpt lat="48.67989" lon="1.98623">
        <ele>167</ele>
        <time>2018-08-19T11:57:35Z</time>
      </trkpt>
      <trkpt lat="48.67983" lon="1.98621">
        <ele>168</ele>
        <time>2018-08-19T11:57:39Z</time>
      </trkpt>
      <trkpt lat="48.67977" lon="1.98618">
        <ele>168</ele>
        <time>2018-08-19T11:57:43Z</time>
      </trkpt>
      <trkpt lat="48.6797" lon="1.98615">
        <ele>168</ele>
        <time>2018-08-19T11:57:47Z</time>
      </trkpt>
      <trkpt lat="48.67964" lon="1.98611">
        <ele>168</ele>
        <time>2018-08-19T11:57:51Z</time>
      </trkpt>
      <trkpt lat="48.67959" lon="1.98609">
        <ele>168</ele>
        <time>2018-08-19T11:57:55Z</time>
      </trkpt>
      <trkpt lat="48.67953" lon="1.98605">
        <ele>168</ele>
        <time>2018-08-19T11:57:59Z</time>
      </trkpt>
      <trkpt lat="48.67947" lon="1.98602">
        <ele>168</ele>
        <time>2018-08-19T11:58:03Z</time>
      </trkpt>
      <trkpt lat="48.67941" lon="1.98599">
        <ele>168</ele>
        <time>2018-08-19T11:58:07Z</time>
      </trkpt>
      <trkpt lat="48.67935" lon="1.98596">
        <ele>168</ele>
        <time>2018-08-19T11:58:11Z</time>
      </trkpt>
      <trkpt lat="48.67929" lon="1.98595">
        <ele>168</ele>
        <time>2018-08-19T11:58:15Z</time>
      </trkpt>
      <trkpt lat="48.67923" lon="1.98594">
        <ele>168</ele>
        <time>2018-08-19T11:58:19Z</time>
      </trkpt>
      <trkpt lat="48.67918" lon="1.98595">
        <ele>168</ele>
        <time>2018-08-19T11:58:23Z</time>
      </trkpt>
      <trkpt lat="48.67912" lon="1.98595">
        <ele>168</ele>
        <time>2018-08-19T11:58:27Z</time>
      </trkpt>
      <trkpt lat="48.67906" lon="1.98596">
        <ele>167</ele>
        <time>2018-08-19T11:58:31Z</time>
      </trkpt>
      <trkpt lat="48.67899" lon="1.98599">
        <ele>167</ele>
        <time>2018-08-19T11:58:35Z</time>
      </trkpt>
      <trkpt lat="48.67894" lon="1.986">
        <ele>167</ele>
        <time>2018-08-19T11:58:39Z</time>
      </trkpt>
      <trkpt lat="48.67885" lon="1.98602">
        <ele>167</ele>
        <time>2018-08-19T11:58:44Z</time>
      </trkpt>
      <trkpt lat="48.6788" lon="1.98606">
        <ele>167</ele>
        <time>2018-08-19T11:58:48Z</time>
      </trkpt>
      <trkpt lat="48.67876" lon="1.98608">
        <ele>167</ele>
        <time>2018-08-19T11:58:52Z</time>
      </trkpt>
      <trkpt lat="48.67871" lon="1.98612">
        <ele>167</ele>
        <time>2018-08-19T11:58:56Z</time>
      </trkpt>
      <trkpt lat="48.67866" lon="1.98615">
        <ele>167</ele>
        <time>2018-08-19T11:59:00Z</time>
      </trkpt>
      <trkpt lat="48.67861" lon="1.98621">
        <ele>167</ele>
        <time>2018-08-19T11:59:05Z</time>
      </trkpt>
      <trkpt lat="48.67857" lon="1.98629">
        <ele>167</ele>
        <time>2018-08-19T11:59:09Z</time>
      </trkpt>
      <trkpt lat="48.67853" lon="1.98638">
        <ele>167</ele>
        <time>2018-08-19T11:59:13Z</time>
      </trkpt>
      <trkpt lat="48.6785" lon="1.98646">
        <ele>168</ele>
        <time>2018-08-19T11:59:17Z</time>
      </trkpt>
      <trkpt lat="48.67848" lon="1.98656">
        <ele>168</ele>
        <time>2018-08-19T11:59:22Z</time>
      </trkpt>
      <trkpt lat="48.67847" lon="1.98666">
        <ele>169</ele>
        <time>2018-08-19T11:59:27Z</time>
      </trkpt>
      <trkpt lat="48.67845" lon="1.98675">
        <ele>169</ele>
        <time>2018-08-19T11:59:31Z</time>
      </trkpt>
      <trkpt lat="48.67841" lon="1.98684">
        <ele>169</ele>
        <time>2018-08-19T11:59:36Z</time>
      </trkpt>
      <trkpt lat="48.67837" lon="1.9869">
        <ele>169</ele>
        <time>2018-08-19T11:59:40Z</time>
      </trkpt>
      <trkpt lat="48.67832" lon="1.98698">
        <ele>168</ele>
        <time>2018-08-19T11:59:44Z</time>
      </trkpt>
      <trkpt lat="48.67826" lon="1.98705">
        <ele>166</ele>
        <time>2018-08-19T11:59:49Z</time>
      </trkpt>
      <trkpt lat="48.67822" lon="1.98712">
        <ele>166</ele>
        <time>2018-08-19T11:59:53Z</time>
      </trkpt>
      <trkpt lat="48.67818" lon="1.9872">
        <ele>165</ele>
        <time>2018-08-19T11:59:57Z</time>
      </trkpt>
      <trkpt lat="48.67812" lon="1.98729">
        <ele>165</ele>
        <time>2018-08-19T12:00:02Z</time>
      </trkpt>
      <trkpt lat="48.67807" lon="1.9874">
        <ele>165</ele>
        <time>2018-08-19T12:00:07Z</time>
      </trkpt>
      <trkpt lat="48.67802" lon="1.98744">
        <ele>165</ele>
        <time>2018-08-19T12:00:11Z</time>
      </trkpt>
      <trkpt lat="48.67799" lon="1.98749">
        <ele>165</ele>
        <time>2018-08-19T12:00:15Z</time>
      </trkpt>
      <trkpt lat="48.67794" lon="1.98753">
        <ele>165</ele>
        <time>2018-08-19T12:00:19Z</time>
      </trkpt>
      <trkpt lat="48.67788" lon="1.98758">
        <ele>165</ele>
        <time>2018-08-19T12:00:23Z</time>
      </trkpt>
      <trkpt lat="48.67781" lon="1.98761">
        <ele>165</ele>
        <time>2018-08-19T12:00:28Z</time>
      </trkpt>
      <trkpt lat="48.67775" lon="1.98762">
        <ele>165</ele>
        <time>2018-08-19T12:00:32Z</time>
      </trkpt>
      <trkpt lat="48.67768" lon="1.98763">
        <ele>165</ele>
        <time>2018-08-19T12:00:36Z</time>
      </trkpt>
      <trkpt lat="48.67762" lon="1.98765">
        <ele>165</ele>
        <time>2018-08-19T12:00:40Z</time>
      </trkpt>
      <trkpt lat="48.67757" lon="1.98765">
        <ele>165</ele>
        <time>2018-08-19T12:00:44Z</time>
      </trkpt>
      <trkpt lat="48.67749" lon="1.98766">
        <ele>165</ele>
        <time>2018-08-19T12:00:49Z</time>
      </trkpt>
      <trkpt lat="48.67742" lon="1.98768">
        <ele>165</ele>
        <time>2018-08-19T12:00:54Z</time>
      </trkpt>
      <trkpt lat="48.67736" lon="1.98772">
        <ele>165</ele>
        <time>2018-08-19T12:00:58Z</time>
      </trkpt>
      <trkpt lat="48.6773" lon="1.9878">
        <ele>165</ele>
        <time>2018-08-19T12:01:03Z</time>
      </trkpt>
      <trkpt lat="48.67728" lon="1.98789">
        <ele>165</ele>
        <time>2018-08-19T12:01:07Z</time>
      </trkpt>
      <trkpt lat="48.67728" lon="1.988">
        <ele>165</ele>
        <time>2018-08-19T12:01:11Z</time>
      </trkpt>
      <trkpt lat="48.67728" lon="1.9881">
        <ele>166</ele>
        <time>2018-08-19T12:01:15Z</time>
      </trkpt>
      <trkpt lat="48.67728" lon="1.9882">
        <ele>167</ele>
        <time>2018-08-19T12:01:19Z</time>
      </trkpt>
      <trkpt lat="48.67726" lon="1.98828">
        <ele>167</ele>
        <time>2018-08-19T12:01:29Z</time>
      </trkpt>
      <trkpt lat="48.67726" lon="1.98834">
        <ele>168</ele>
        <time>2018-08-19T12:01:39Z</time>
      </trkpt>
      <trkpt lat="48.67727" lon="1.98836">
        <ele>170</ele>
        <time>2018-08-19T12:01:44Z</time>
      </trkpt>
      <trkpt lat="48.67725" lon="1.98836">
        <ele>172</ele>
        <time>2018-08-19T12:01:53Z</time>
      </trkpt>
      <trkpt lat="48.67727" lon="1.98835">
        <ele>173</ele>
        <time>2018-08-19T12:02:07Z</time>
      </trkpt>
      <trkpt lat="48.67727" lon="1.9884">
        <ele>173</ele>
        <time>2018-08-19T12:02:12Z</time>
      </trkpt>
      <trkpt lat="48.67727" lon="1.98844">
        <ele>173</ele>
        <time>2018-08-19T12:02:20Z</time>
      </trkpt>
      <trkpt lat="48.67726" lon="1.98851">
        <ele>173</ele>
        <time>2018-08-19T12:02:27Z</time>
      </trkpt>
      <trkpt lat="48.67726" lon="1.98855">
        <ele>173</ele>
        <time>2018-08-19T12:03:02Z</time>
      </trkpt>
      <trkpt lat="48.67727" lon="1.98866">
        <ele>173</ele>
        <time>2018-08-19T12:03:07Z</time>
      </trkpt>
      <trkpt lat="48.67727" lon="1.98876">
        <ele>173</ele>
        <time>2018-08-19T12:03:12Z</time>
      </trkpt>
      <trkpt lat="48.67722" lon="1.98879">
        <ele>173</ele>
        <time>2018-08-19T12:03:25Z</time>
      </trkpt>
      <trkpt lat="48.67719" lon="1.98884">
        <ele>173</ele>
        <time>2018-08-19T12:03:29Z</time>
      </trkpt>
      <trkpt lat="48.67716" lon="1.98892">
        <ele>173</ele>
        <time>2018-08-19T12:03:33Z</time>
      </trkpt>
      <trkpt lat="48.67716" lon="1.989">
        <ele>173</ele>
        <time>2018-08-19T12:03:37Z</time>
      </trkpt>
      <trkpt lat="48.67716" lon="1.9891">
        <ele>173</ele>
        <time>2018-08-19T12:03:41Z</time>
      </trkpt>
      <trkpt lat="48.67715" lon="1.9892">
        <ele>173</ele>
        <time>2018-08-19T12:03:45Z</time>
      </trkpt>
      <trkpt lat="48.67713" lon="1.98929">
        <ele>173</ele>
        <time>2018-08-19T12:03:49Z</time>
      </trkpt>
      <trkpt lat="48.6771" lon="1.98936">
        <ele>173</ele>
        <time>2018-08-19T12:03:53Z</time>
      </trkpt>
      <trkpt lat="48.67706" lon="1.98943">
        <ele>173</ele>
        <time>2018-08-19T12:03:57Z</time>
      </trkpt>
      <trkpt lat="48.677" lon="1.98949">
        <ele>173</ele>
        <time>2018-08-19T12:04:01Z</time>
      </trkpt>
      <trkpt lat="48.67695" lon="1.98955">
        <ele>173</ele>
        <time>2018-08-19T12:04:05Z</time>
      </trkpt>
      <trkpt lat="48.6769" lon="1.9896">
        <ele>173</ele>
        <time>2018-08-19T12:04:09Z</time>
      </trkpt>
      <trkpt lat="48.67684" lon="1.98966">
        <ele>173</ele>
        <time>2018-08-19T12:04:13Z</time>
      </trkpt>
      <trkpt lat="48.67679" lon="1.98972">
        <ele>173</ele>
        <time>2018-08-19T12:04:17Z</time>
      </trkpt>
      <trkpt lat="48.67674" lon="1.98978">
        <ele>173</ele>
        <time>2018-08-19T12:04:21Z</time>
      </trkpt>
      <trkpt lat="48.67669" lon="1.98984">
        <ele>173</ele>
        <time>2018-08-19T12:04:25Z</time>
      </trkpt>
      <trkpt lat="48.67663" lon="1.9899">
        <ele>173</ele>
        <time>2018-08-19T12:04:29Z</time>
      </trkpt>
      <trkpt lat="48.67658" lon="1.98996">
        <ele>173</ele>
        <time>2018-08-19T12:04:33Z</time>
      </trkpt>
      <trkpt lat="48.67653" lon="1.99002">
        <ele>173</ele>
        <time>2018-08-19T12:04:37Z</time>
      </trkpt>
      <trkpt lat="48.67648" lon="1.99008">
        <ele>173</ele>
        <time>2018-08-19T12:04:41Z</time>
      </trkpt>
      <trkpt lat="48.67642" lon="1.99013">
        <ele>173</ele>
        <time>2018-08-19T12:04:45Z</time>
      </trkpt>
      <trkpt lat="48.67637" lon="1.99019">
        <ele>173</ele>
        <time>2018-08-19T12:04:49Z</time>
      </trkpt>
      <trkpt lat="48.67632" lon="1.99025">
        <ele>174</ele>
        <time>2018-08-19T12:04:53Z</time>
      </trkpt>
      <trkpt lat="48.67627" lon="1.9903">
        <ele>174</ele>
        <time>2018-08-19T12:04:57Z</time>
      </trkpt>
      <trkpt lat="48.67622" lon="1.99036">
        <ele>174</ele>
        <time>2018-08-19T12:05:01Z</time>
      </trkpt>
      <trkpt lat="48.67617" lon="1.99042">
        <ele>175</ele>
        <time>2018-08-19T12:05:05Z</time>
      </trkpt>
      <trkpt lat="48.67612" lon="1.99047">
        <ele>175</ele>
        <time>2018-08-19T12:05:09Z</time>
      </trkpt>
      <trkpt lat="48.67606" lon="1.99053">
        <ele>175</ele>
        <time>2018-08-19T12:05:13Z</time>
      </trkpt>
      <trkpt lat="48.67601" lon="1.99059">
        <ele>176</ele>
        <time>2018-08-19T12:05:17Z</time>
      </trkpt>
      <trkpt lat="48.67595" lon="1.99063">
        <ele>177</ele>
        <time>2018-08-19T12:05:21Z</time>
      </trkpt>
      <trkpt lat="48.6759" lon="1.99067">
        <ele>177</ele>
        <time>2018-08-19T12:05:25Z</time>
      </trkpt>
      <trkpt lat="48.67584" lon="1.99071">
        <ele>178</ele>
        <time>2018-08-19T12:05:29Z</time>
      </trkpt>
      <trkpt lat="48.67578" lon="1.99073">
        <ele>178</ele>
        <time>2018-08-19T12:05:33Z</time>
      </trkpt>
      <trkpt lat="48.67571" lon="1.99076">
        <ele>178</ele>
        <time>2018-08-19T12:05:37Z</time>
      </trkpt>
      <trkpt lat="48.67565" lon="1.99077">
        <ele>178</ele>
        <time>2018-08-19T12:05:41Z</time>
      </trkpt>
      <trkpt lat="48.67559" lon="1.99082">
        <ele>178</ele>
        <time>2018-08-19T12:05:45Z</time>
      </trkpt>
      <trkpt lat="48.67554" lon="1.99087">
        <ele>178</ele>
        <time>2018-08-19T12:05:49Z</time>
      </trkpt>
      <trkpt lat="48.67548" lon="1.99092">
        <ele>178</ele>
        <time>2018-08-19T12:05:53Z</time>
      </trkpt>
      <trkpt lat="48.67543" lon="1.99097">
        <ele>178</ele>
        <time>2018-08-19T12:05:57Z</time>
      </trkpt>
      <trkpt lat="48.67537" lon="1.99102">
        <ele>178</ele>
        <time>2018-08-19T12:06:01Z</time>
      </trkpt>
      <trkpt lat="48.67531" lon="1.99108">
        <ele>178</ele>
        <time>2018-08-19T12:06:05Z</time>
      </trkpt>
      <trkpt lat="48.67526" lon="1.99115">
        <ele>178</ele>
        <time>2018-08-19T12:06:09Z</time>
      </trkpt>
      <trkpt lat="48.67519" lon="1.99124">
        <ele>178</ele>
        <time>2018-08-19T12:06:13Z</time>
      </trkpt>
      <trkpt lat="48.67508" lon="1.99138">
        <ele>178</ele>
        <time>2018-08-19T12:06:17Z</time>
      </trkpt>
      <trkpt lat="48.67495" lon="1.99154">
        <ele>178</ele>
        <time>2018-08-19T12:06:21Z</time>
      </trkpt>
      <trkpt lat="48.67482" lon="1.99171">
        <ele>178</ele>
        <time>2018-08-19T12:06:25Z</time>
      </trkpt>
      <trkpt lat="48.67468" lon="1.9919">
        <ele>178</ele>
        <time>2018-08-19T12:06:29Z</time>
      </trkpt>
      <trkpt lat="48.67453" lon="1.99211">
        <ele>178</ele>
        <time>2018-08-19T12:06:33Z</time>
      </trkpt>
      <trkpt lat="48.67437" lon="1.99233">
        <ele>178</ele>
        <time>2018-08-19T12:06:37Z</time>
      </trkpt>
      <trkpt lat="48.67421" lon="1.99254">
        <ele>178</ele>
        <time>2018-08-19T12:06:41Z</time>
      </trkpt>
      <trkpt lat="48.67404" lon="1.99275">
        <ele>178</ele>
        <time>2018-08-19T12:06:45Z</time>
      </trkpt>
      <trkpt lat="48.67388" lon="1.99297">
        <ele>178</ele>
        <time>2018-08-19T12:06:49Z</time>
      </trkpt>
      <trkpt lat="48.6737" lon="1.99318">
        <ele>178</ele>
        <time>2018-08-19T12:06:53Z</time>
      </trkpt>
      <trkpt lat="48.67352" lon="1.9934">
        <ele>178</ele>
        <time>2018-08-19T12:06:57Z</time>
      </trkpt>
      <trkpt lat="48.67335" lon="1.99361">
        <ele>178</ele>
        <time>2018-08-19T12:07:01Z</time>
      </trkpt>
      <trkpt lat="48.67318" lon="1.99382">
        <ele>178</ele>
        <time>2018-08-19T12:07:05Z</time>
      </trkpt>
      <trkpt lat="48.673" lon="1.99403">
        <ele>178</ele>
        <time>2018-08-19T12:07:09Z</time>
      </trkpt>
      <trkpt lat="48.67282" lon="1.99422">
        <ele>178</ele>
        <time>2018-08-19T12:07:13Z</time>
      </trkpt>
      <trkpt lat="48.67265" lon="1.99441">
        <ele>178</ele>
        <time>2018-08-19T12:07:17Z</time>
      </trkpt>
      <trkpt lat="48.67247" lon="1.9946">
        <ele>178</ele>
        <time>2018-08-19T12:07:21Z</time>
      </trkpt>
      <trkpt lat="48.6723" lon="1.9948">
        <ele>178</ele>
        <time>2018-08-19T12:07:25Z</time>
      </trkpt>
      <trkpt lat="48.67211" lon="1.99499">
        <ele>178</ele>
        <time>2018-08-19T12:07:29Z</time>
      </trkpt>
      <trkpt lat="48.67194" lon="1.99516">
        <ele>178</ele>
        <time>2018-08-19T12:07:33Z</time>
      </trkpt>
      <trkpt lat="48.67176" lon="1.99531">
        <ele>178</ele>
        <time>2018-08-19T12:07:37Z</time>
      </trkpt>
      <trkpt lat="48.67157" lon="1.99548">
        <ele>178</ele>
        <time>2018-08-19T12:07:41Z</time>
      </trkpt>
      <trkpt lat="48.6714" lon="1.99565">
        <ele>178</ele>
        <time>2018-08-19T12:07:45Z</time>
      </trkpt>
      <trkpt lat="48.67122" lon="1.99581">
        <ele>178</ele>
        <time>2018-08-19T12:07:49Z</time>
      </trkpt>
      <trkpt lat="48.67104" lon="1.99596">
        <ele>178</ele>
        <time>2018-08-19T12:07:53Z</time>
      </trkpt>
      <trkpt lat="48.67089" lon="1.9961">
        <ele>178</ele>
        <time>2018-08-19T12:07:57Z</time>
      </trkpt>
      <trkpt lat="48.67073" lon="1.99626">
        <ele>178</ele>
        <time>2018-08-19T12:08:01Z</time>
      </trkpt>
      <trkpt lat="48.67053" lon="1.9964">
        <ele>178</ele>
        <time>2018-08-19T12:08:05Z</time>
      </trkpt>
      <trkpt lat="48.67032" lon="1.99652">
        <ele>178</ele>
        <time>2018-08-19T12:08:09Z</time>
      </trkpt>
      <trkpt lat="48.67012" lon="1.99663">
        <ele>178</ele>
        <time>2018-08-19T12:08:13Z</time>
      </trkpt>
      <trkpt lat="48.66991" lon="1.99675">
        <ele>178</ele>
        <time>2018-08-19T12:08:17Z</time>
      </trkpt>
      <trkpt lat="48.66971" lon="1.99687">
        <ele>178</ele>
        <time>2018-08-19T12:08:21Z</time>
      </trkpt>
      <trkpt lat="48.66952" lon="1.99703">
        <ele>178</ele>
        <time>2018-08-19T12:08:25Z</time>
      </trkpt>
      <trkpt lat="48.66935" lon="1.99723">
        <ele>178</ele>
        <time>2018-08-19T12:08:29Z</time>
      </trkpt>
      <trkpt lat="48.6692" lon="1.99747">
        <ele>178</ele>
        <time>2018-08-19T12:08:33Z</time>
      </trkpt>
      <trkpt lat="48.66908" lon="1.99774">
        <ele>178</ele>
        <time>2018-08-19T12:08:37Z</time>
      </trkpt>
      <trkpt lat="48.66896" lon="1.99803">
        <ele>178</ele>
        <time>2018-08-19T12:08:41Z</time>
      </trkpt>
      <trkpt lat="48.66886" lon="1.99832">
        <ele>178</ele>
        <time>2018-08-19T12:08:45Z</time>
      </trkpt>
      <trkpt lat="48.66876" lon="1.99863">
        <ele>178</ele>
        <time>2018-08-19T12:08:49Z</time>
      </trkpt>
      <trkpt lat="48.66867" lon="1.99892">
        <ele>178</ele>
        <time>2018-08-19T12:08:53Z</time>
      </trkpt>
      <trkpt lat="48.6686" lon="1.99922">
        <ele>178</ele>
        <time>2018-08-19T12:08:57Z</time>
      </trkpt>
      <trkpt lat="48.66855" lon="1.99954">
        <ele>178</ele>
        <time>2018-08-19T12:09:01Z</time>
      </trkpt>
      <trkpt lat="48.66848" lon="1.99984">
        <ele>178</ele>
        <time>2018-08-19T12:09:05Z</time>
      </trkpt>
      <trkpt lat="48.66839" lon="2.00012">
        <ele>178</ele>
        <time>2018-08-19T12:09:09Z</time>
      </trkpt>
      <trkpt lat="48.66827" lon="2.00038">
        <ele>178</ele>
        <time>2018-08-19T12:09:13Z</time>
      </trkpt>
      <trkpt lat="48.66813" lon="2.00061">
        <ele>178</ele>
        <time>2018-08-19T12:09:17Z</time>
      </trkpt>
      <trkpt lat="48.66797" lon="2.00083">
        <ele>178</ele>
        <time>2018-08-19T12:09:21Z</time>
      </trkpt>
      <trkpt lat="48.66785" lon="2.00106">
        <ele>178</ele>
        <time>2018-08-19T12:09:25Z</time>
      </trkpt>
      <trkpt lat="48.66776" lon="2.00133">
        <ele>178</ele>
        <time>2018-08-19T12:09:29Z</time>
      </trkpt>
      <trkpt lat="48.66769" lon="2.00159">
        <ele>178</ele>
        <time>2018-08-19T12:09:33Z</time>
      </trkpt>
      <trkpt lat="48.66762" lon="2.00186">
        <ele>178</ele>
        <time>2018-08-19T12:09:37Z</time>
      </trkpt>
      <trkpt lat="48.66756" lon="2.00214">
        <ele>178</ele>
        <time>2018-08-19T12:09:41Z</time>
      </trkpt>
      <trkpt lat="48.6675" lon="2.00242">
        <ele>178</ele>
        <time>2018-08-19T12:09:45Z</time>
      </trkpt>
      <trkpt lat="48.66743" lon="2.0027">
        <ele>178</ele>
        <time>2018-08-19T12:09:49Z</time>
      </trkpt>
      <trkpt lat="48.66736" lon="2.00298">
        <ele>178</ele>
        <time>2018-08-19T12:09:53Z</time>
      </trkpt>
      <trkpt lat="48.66728" lon="2.00326">
        <ele>178</ele>
        <time>2018-08-19T12:09:57Z</time>
      </trkpt>
      <trkpt lat="48.6672" lon="2.00354">
        <ele>178</ele>
        <time>2018-08-19T12:10:01Z</time>
      </trkpt>
      <trkpt lat="48.66711" lon="2.00382">
        <ele>178</ele>
        <time>2018-08-19T12:10:05Z</time>
      </trkpt>
      <trkpt lat="48.66703" lon="2.00409">
        <ele>178</ele>
        <time>2018-08-19T12:10:09Z</time>
      </trkpt>
      <trkpt lat="48.66695" lon="2.00435">
        <ele>178</ele>
        <time>2018-08-19T12:10:13Z</time>
      </trkpt>
      <trkpt lat="48.66688" lon="2.00457">
        <ele>178</ele>
        <time>2018-08-19T12:10:17Z</time>
      </trkpt>
      <trkpt lat="48.66683" lon="2.00476">
        <ele>178</ele>
        <time>2018-08-19T12:10:21Z</time>
      </trkpt>
      <trkpt lat="48.66679" lon="2.00495">
        <ele>178</ele>
        <time>2018-08-19T12:10:25Z</time>
      </trkpt>
      <trkpt lat="48.66676" lon="2.00513">
        <ele>178</ele>
        <time>2018-08-19T12:10:29Z</time>
      </trkpt>
      <trkpt lat="48.66674" lon="2.0053">
        <ele>178</ele>
        <time>2018-08-19T12:10:33Z</time>
      </trkpt>
      <trkpt lat="48.66671" lon="2.00545">
        <ele>178</ele>
        <time>2018-08-19T12:10:37Z</time>
      </trkpt>
      <trkpt lat="48.66668" lon="2.00566">
        <ele>178</ele>
        <time>2018-08-19T12:10:41Z</time>
      </trkpt>
      <trkpt lat="48.66665" lon="2.00588">
        <ele>178</ele>
        <time>2018-08-19T12:10:45Z</time>
      </trkpt>
      <trkpt lat="48.66663" lon="2.0061">
        <ele>178</ele>
        <time>2018-08-19T12:10:49Z</time>
      </trkpt>
      <trkpt lat="48.6666" lon="2.00633">
        <ele>178</ele>
        <time>2018-08-19T12:10:53Z</time>
      </trkpt>
      <trkpt lat="48.66658" lon="2.00658">
        <ele>178</ele>
        <time>2018-08-19T12:10:57Z</time>
      </trkpt>
      <trkpt lat="48.66657" lon="2.00682">
        <ele>178</ele>
        <time>2018-08-19T12:11:01Z</time>
      </trkpt>
      <trkpt lat="48.66654" lon="2.00708">
        <ele>178</ele>
        <time>2018-08-19T12:11:05Z</time>
      </trkpt>
      <trkpt lat="48.66652" lon="2.00733">
        <ele>178</ele>
        <time>2018-08-19T12:11:09Z</time>
      </trkpt>
      <trkpt lat="48.66649" lon="2.0076">
        <ele>178</ele>
        <time>2018-08-19T12:11:13Z</time>
      </trkpt>
      <trkpt lat="48.66645" lon="2.00785">
        <ele>178</ele>
        <time>2018-08-19T12:11:17Z</time>
      </trkpt>
      <trkpt lat="48.66639" lon="2.00811">
        <ele>178</ele>
        <time>2018-08-19T12:11:21Z</time>
      </trkpt>
      <trkpt lat="48.6663" lon="2.00834">
        <ele>178</ele>
        <time>2018-08-19T12:11:25Z</time>
      </trkpt>
      <trkpt lat="48.66618" lon="2.00853">
        <ele>178</ele>
        <time>2018-08-19T12:11:29Z</time>
      </trkpt>
      <trkpt lat="48.66605" lon="2.00871">
        <ele>178</ele>
        <time>2018-08-19T12:11:33Z</time>
      </trkpt>
      <trkpt lat="48.6659" lon="2.00889">
        <ele>178</ele>
        <time>2018-08-19T12:11:37Z</time>
      </trkpt>
      <trkpt lat="48.66575" lon="2.00905">
        <ele>178</ele>
        <time>2018-08-19T12:11:41Z</time>
      </trkpt>
      <trkpt lat="48.6656" lon="2.00922">
        <ele>178</ele>
        <time>2018-08-19T12:11:45Z</time>
      </trkpt>
      <trkpt lat="48.66545" lon="2.00938">
        <ele>178</ele>
        <time>2018-08-19T12:11:49Z</time>
      </trkpt>
      <trkpt lat="48.6653" lon="2.00955">
        <ele>178</ele>
        <time>2018-08-19T12:11:53Z</time>
      </trkpt>
      <trkpt lat="48.66516" lon="2.00972">
        <ele>178</ele>
        <time>2018-08-19T12:11:57Z</time>
      </trkpt>
      <trkpt lat="48.66501" lon="2.00988">
        <ele>178</ele>
        <time>2018-08-19T12:12:01Z</time>
      </trkpt>
      <trkpt lat="48.66486" lon="2.01004">
        <ele>178</ele>
        <time>2018-08-19T12:12:05Z</time>
      </trkpt>
      <trkpt lat="48.6647" lon="2.01018">
        <ele>178</ele>
        <time>2018-08-19T12:12:09Z</time>
      </trkpt>
      <trkpt lat="48.66454" lon="2.0103">
        <ele>178</ele>
        <time>2018-08-19T12:12:13Z</time>
      </trkpt>
      <trkpt lat="48.66439" lon="2.01043">
        <ele>178</ele>
        <time>2018-08-19T12:12:17Z</time>
      </trkpt>
      <trkpt lat="48.66427" lon="2.01055">
        <ele>178</ele>
        <time>2018-08-19T12:12:21Z</time>
      </trkpt>
      <trkpt lat="48.66416" lon="2.01066">
        <ele>178</ele>
        <time>2018-08-19T12:12:25Z</time>
      </trkpt>
      <trkpt lat="48.66408" lon="2.01075">
        <ele>178</ele>
        <time>2018-08-19T12:12:29Z</time>
      </trkpt>
      <trkpt lat="48.66403" lon="2.01081">
        <ele>178</ele>
        <time>2018-08-19T12:12:33Z</time>
      </trkpt>
      <trkpt lat="48.66398" lon="2.01084">
        <ele>178</ele>
        <time>2018-08-19T12:12:37Z</time>
      </trkpt>
      <trkpt lat="48.66393" lon="2.01084">
        <ele>178</ele>
        <time>2018-08-19T12:12:41Z</time>
      </trkpt>
      <trkpt lat="48.66388" lon="2.01081">
        <ele>178</ele>
        <time>2018-08-19T12:12:45Z</time>
      </trkpt>
      <trkpt lat="48.66382" lon="2.01078">
        <ele>178</ele>
        <time>2018-08-19T12:12:49Z</time>
      </trkpt>
      <trkpt lat="48.66375" lon="2.01074">
        <ele>178</ele>
        <time>2018-08-19T12:12:53Z</time>
      </trkpt>
      <trkpt lat="48.66369" lon="2.01071">
        <ele>178</ele>
        <time>2018-08-19T12:12:57Z</time>
      </trkpt>
      <trkpt lat="48.66363" lon="2.01069">
        <ele>178</ele>
        <time>2018-08-19T12:13:01Z</time>
      </trkpt>
      <trkpt lat="48.66357" lon="2.01068">
        <ele>178</ele>
        <time>2018-08-19T12:13:05Z</time>
      </trkpt>
      <trkpt lat="48.66351" lon="2.01067">
        <ele>178</ele>
        <time>2018-08-19T12:13:09Z</time>
      </trkpt>
      <trkpt lat="48.66345" lon="2.01066">
        <ele>178</ele>
        <time>2018-08-19T12:13:13Z</time>
      </trkpt>
      <trkpt lat="48.66339" lon="2.01065">
        <ele>178</ele>
        <time>2018-08-19T12:13:17Z</time>
      </trkpt>
      <trkpt lat="48.66333" lon="2.01065">
        <ele>178</ele>
        <time>2018-08-19T12:13:21Z</time>
      </trkpt>
      <trkpt lat="48.66327" lon="2.01065">
        <ele>178</ele>
        <time>2018-08-19T12:13:25Z</time>
      </trkpt>
      <trkpt lat="48.6632" lon="2.01064">
        <ele>177</ele>
        <time>2018-08-19T12:13:29Z</time>
      </trkpt>
      <trkpt lat="48.66314" lon="2.01063">
        <ele>177</ele>
        <time>2018-08-19T12:13:33Z</time>
      </trkpt>
      <trkpt lat="48.66308" lon="2.01061">
        <ele>177</ele>
        <time>2018-08-19T12:13:37Z</time>
      </trkpt>
      <trkpt lat="48.66303" lon="2.01061">
        <ele>177</ele>
        <time>2018-08-19T12:13:41Z</time>
      </trkpt>
      <trkpt lat="48.66302" lon="2.01061">
        <ele>177</ele>
        <time>2018-08-19T12:14:12Z</time>
      </trkpt>
      <trkpt lat="48.66301" lon="2.0106">
        <ele>177</ele>
        <time>2018-08-19T12:14:16Z</time>
      </trkpt>
      <trkpt lat="48.66299" lon="2.0106">
        <ele>177</ele>
        <time>2018-08-19T12:14:21Z</time>
      </trkpt>
      <trkpt lat="48.66293" lon="2.01061">
        <ele>177</ele>
        <time>2018-08-19T12:14:25Z</time>
      </trkpt>
      <trkpt lat="48.66288" lon="2.01064">
        <ele>177</ele>
        <time>2018-08-19T12:14:29Z</time>
      </trkpt>
      <trkpt lat="48.66283" lon="2.01069">
        <ele>177</ele>
        <time>2018-08-19T12:14:33Z</time>
      </trkpt>
      <trkpt lat="48.66277" lon="2.01069">
        <ele>177</ele>
        <time>2018-08-19T12:14:37Z</time>
      </trkpt>
      <trkpt lat="48.6627" lon="2.01068">
        <ele>177</ele>
        <time>2018-08-19T12:14:41Z</time>
      </trkpt>
      <trkpt lat="48.66264" lon="2.01069">
        <ele>177</ele>
        <time>2018-08-19T12:14:45Z</time>
      </trkpt>
      <trkpt lat="48.66258" lon="2.0107">
        <ele>177</ele>
        <time>2018-08-19T12:14:49Z</time>
      </trkpt>
      <trkpt lat="48.66251" lon="2.0107">
        <ele>177</ele>
        <time>2018-08-19T12:14:53Z</time>
      </trkpt>
      <trkpt lat="48.66244" lon="2.0107">
        <ele>177</ele>
        <time>2018-08-19T12:14:57Z</time>
      </trkpt>
      <trkpt lat="48.66238" lon="2.01071">
        <ele>177</ele>
        <time>2018-08-19T12:15:01Z</time>
      </trkpt>
      <trkpt lat="48.66232" lon="2.0107">
        <ele>177</ele>
        <time>2018-08-19T12:15:05Z</time>
      </trkpt>
      <trkpt lat="48.66225" lon="2.0107">
        <ele>177</ele>
        <time>2018-08-19T12:15:09Z</time>
      </trkpt>
      <trkpt lat="48.66219" lon="2.0107">
        <ele>177</ele>
        <time>2018-08-19T12:15:13Z</time>
      </trkpt>
      <trkpt lat="48.66213" lon="2.01069">
        <ele>177</ele>
        <time>2018-08-19T12:15:17Z</time>
      </trkpt>
      <trkpt lat="48.66206" lon="2.01068">
        <ele>177</ele>
        <time>2018-08-19T12:15:21Z</time>
      </trkpt>
      <trkpt lat="48.66199" lon="2.01068">
        <ele>177</ele>
        <time>2018-08-19T12:15:25Z</time>
      </trkpt>
      <trkpt lat="48.66192" lon="2.01067">
        <ele>177</ele>
        <time>2018-08-19T12:15:29Z</time>
      </trkpt>
      <trkpt lat="48.66185" lon="2.01067">
        <ele>177</ele>
        <time>2018-08-19T12:15:33Z</time>
      </trkpt>
      <trkpt lat="48.66177" lon="2.01067">
        <ele>177</ele>
        <time>2018-08-19T12:15:37Z</time>
      </trkpt>
      <trkpt lat="48.6617" lon="2.01066">
        <ele>177</ele>
        <time>2018-08-19T12:15:41Z</time>
      </trkpt>
      <trkpt lat="48.66163" lon="2.01065">
        <ele>176</ele>
        <time>2018-08-19T12:15:45Z</time>
      </trkpt>
      <trkpt lat="48.66156" lon="2.01064">
        <ele>176</ele>
        <time>2018-08-19T12:15:49Z</time>
      </trkpt>
      <trkpt lat="48.66149" lon="2.01063">
        <ele>175</ele>
        <time>2018-08-19T12:15:53Z</time>
      </trkpt>
      <trkpt lat="48.66143" lon="2.01063">
        <ele>175</ele>
        <time>2018-08-19T12:15:57Z</time>
      </trkpt>
      <trkpt lat="48.66136" lon="2.01062">
        <ele>174</ele>
        <time>2018-08-19T12:16:01Z</time>
      </trkpt>
      <trkpt lat="48.66129" lon="2.01061">
        <ele>174</ele>
        <time>2018-08-19T12:16:05Z</time>
      </trkpt>
      <trkpt lat="48.66122" lon="2.0106">
        <ele>174</ele>
        <time>2018-08-19T12:16:09Z</time>
      </trkpt>
      <trkpt lat="48.66116" lon="2.01058">
        <ele>173</ele>
        <time>2018-08-19T12:16:13Z</time>
      </trkpt>
      <trkpt lat="48.66109" lon="2.01057">
        <ele>173</ele>
        <time>2018-08-19T12:16:17Z</time>
      </trkpt>
      <trkpt lat="48.66102" lon="2.01055">
        <ele>173</ele>
        <time>2018-08-19T12:16:21Z</time>
      </trkpt>
      <trkpt lat="48.66096" lon="2.01053">
        <ele>173</ele>
        <time>2018-08-19T12:16:25Z</time>
      </trkpt>
      <trkpt lat="48.66089" lon="2.01052">
        <ele>172</ele>
        <time>2018-08-19T12:16:29Z</time>
      </trkpt>
      <trkpt lat="48.66082" lon="2.0105">
        <ele>172</ele>
        <time>2018-08-19T12:16:33Z</time>
      </trkpt>
      <trkpt lat="48.66076" lon="2.01048">
        <ele>172</ele>
        <time>2018-08-19T12:16:37Z</time>
      </trkpt>
      <trkpt lat="48.66069" lon="2.01046">
        <ele>172</ele>
        <time>2018-08-19T12:16:42Z</time>
      </trkpt>
      <trkpt lat="48.66068" lon="2.01045">
        <ele>172</ele>
        <time>2018-08-19T12:16:48Z</time>
      </trkpt>
      <trkpt lat="48.66067" lon="2.01045">
        <ele>171</ele>
        <time>2018-08-19T12:16:52Z</time>
      </trkpt>
      <trkpt lat="48.66066" lon="2.01044">
        <ele>171</ele>
        <time>2018-08-19T12:16:58Z</time>
      </trkpt>
      <trkpt lat="48.66063" lon="2.01043">
        <ele>171</ele>
        <time>2018-08-19T12:17:02Z</time>
      </trkpt>
      <trkpt lat="48.66059" lon="2.01041">
        <ele>171</ele>
        <time>2018-08-19T12:17:06Z</time>
      </trkpt>
      <trkpt lat="48.66054" lon="2.0104">
        <ele>171</ele>
        <time>2018-08-19T12:17:10Z</time>
      </trkpt>
      <trkpt lat="48.66049" lon="2.01035">
        <ele>170</ele>
        <time>2018-08-19T12:17:14Z</time>
      </trkpt>
      <trkpt lat="48.66043" lon="2.01032">
        <ele>170</ele>
        <time>2018-08-19T12:17:18Z</time>
      </trkpt>
      <trkpt lat="48.66037" lon="2.0103">
        <ele>170</ele>
        <time>2018-08-19T12:17:22Z</time>
      </trkpt>
      <trkpt lat="48.66032" lon="2.01029">
        <ele>169</ele>
        <time>2018-08-19T12:17:26Z</time>
      </trkpt>
      <trkpt lat="48.66025" lon="2.01027">
        <ele>168</ele>
        <time>2018-08-19T12:17:30Z</time>
      </trkpt>
      <trkpt lat="48.66019" lon="2.01025">
        <ele>167</ele>
        <time>2018-08-19T12:17:34Z</time>
      </trkpt>
      <trkpt lat="48.66013" lon="2.01023">
        <ele>167</ele>
        <time>2018-08-19T12:17:38Z</time>
      </trkpt>
      <trkpt lat="48.66008" lon="2.01022">
        <ele>166</ele>
        <time>2018-08-19T12:17:42Z</time>
      </trkpt>
      <trkpt lat="48.66002" lon="2.01022">
        <ele>165</ele>
        <time>2018-08-19T12:17:46Z</time>
      </trkpt>
      <trkpt lat="48.65997" lon="2.0102">
        <ele>165</ele>
        <time>2018-08-19T12:17:50Z</time>
      </trkpt>
      <trkpt lat="48.6599" lon="2.01018">
        <ele>165</ele>
        <time>2018-08-19T12:17:54Z</time>
      </trkpt>
      <trkpt lat="48.65984" lon="2.01017">
        <ele>165</ele>
        <time>2018-08-19T12:17:58Z</time>
      </trkpt>
      <trkpt lat="48.65978" lon="2.01017">
        <ele>165</ele>
        <time>2018-08-19T12:18:02Z</time>
      </trkpt>
      <trkpt lat="48.65973" lon="2.01019">
        <ele>165</ele>
        <time>2018-08-19T12:18:06Z</time>
      </trkpt>
      <trkpt lat="48.65969" lon="2.01027">
        <ele>165</ele>
        <time>2018-08-19T12:18:10Z</time>
      </trkpt>
      <trkpt lat="48.65965" lon="2.01036">
        <ele>165</ele>
        <time>2018-08-19T12:18:14Z</time>
      </trkpt>
      <trkpt lat="48.65962" lon="2.01044">
        <ele>165</ele>
        <time>2018-08-19T12:18:18Z</time>
      </trkpt>
      <trkpt lat="48.65958" lon="2.01053">
        <ele>165</ele>
        <time>2018-08-19T12:18:22Z</time>
      </trkpt>
      <trkpt lat="48.65955" lon="2.01061">
        <ele>165</ele>
        <time>2018-08-19T12:18:26Z</time>
      </trkpt>
      <trkpt lat="48.65952" lon="2.01069">
        <ele>165</ele>
        <time>2018-08-19T12:18:30Z</time>
      </trkpt>
      <trkpt lat="48.65947" lon="2.01076">
        <ele>165</ele>
        <time>2018-08-19T12:18:34Z</time>
      </trkpt>
      <trkpt lat="48.65943" lon="2.01083">
        <ele>165</ele>
        <time>2018-08-19T12:18:38Z</time>
      </trkpt>
      <trkpt lat="48.65937" lon="2.01089">
        <ele>165</ele>
        <time>2018-08-19T12:18:42Z</time>
      </trkpt>
      <trkpt lat="48.65932" lon="2.01095">
        <ele>165</ele>
        <time>2018-08-19T12:18:46Z</time>
      </trkpt>
      <trkpt lat="48.65926" lon="2.01099">
        <ele>165</ele>
        <time>2018-08-19T12:18:50Z</time>
      </trkpt>
      <trkpt lat="48.6592" lon="2.01103">
        <ele>165</ele>
        <time>2018-08-19T12:18:54Z</time>
      </trkpt>
      <trkpt lat="48.65913" lon="2.01106">
        <ele>165</ele>
        <time>2018-08-19T12:18:58Z</time>
      </trkpt>
      <trkpt lat="48.65907" lon="2.0111">
        <ele>165</ele>
        <time>2018-08-19T12:19:02Z</time>
      </trkpt>
      <trkpt lat="48.65901" lon="2.01112">
        <ele>165</ele>
        <time>2018-08-19T12:19:06Z</time>
      </trkpt>
      <trkpt lat="48.65895" lon="2.01115">
        <ele>165</ele>
        <time>2018-08-19T12:19:10Z</time>
      </trkpt>
      <trkpt lat="48.65889" lon="2.01117">
        <ele>165</ele>
        <time>2018-08-19T12:19:14Z</time>
      </trkpt>
      <trkpt lat="48.65883" lon="2.0112">
        <ele>165</ele>
        <time>2018-08-19T12:19:18Z</time>
      </trkpt>
      <trkpt lat="48.65877" lon="2.01123">
        <ele>165</ele>
        <time>2018-08-19T12:19:22Z</time>
      </trkpt>
      <trkpt lat="48.65871" lon="2.01124">
        <ele>165</ele>
        <time>2018-08-19T12:19:26Z</time>
      </trkpt>
      <trkpt lat="48.65864" lon="2.01126">
        <ele>165</ele>
        <time>2018-08-19T12:19:30Z</time>
      </trkpt>
      <trkpt lat="48.65858" lon="2.01126">
        <ele>165</ele>
        <time>2018-08-19T12:19:34Z</time>
      </trkpt>
      <trkpt lat="48.65852" lon="2.01127">
        <ele>165</ele>
        <time>2018-08-19T12:19:38Z</time>
      </trkpt>
      <trkpt lat="48.65846" lon="2.01128">
        <ele>165</ele>
        <time>2018-08-19T12:19:42Z</time>
      </trkpt>
      <trkpt lat="48.6584" lon="2.01128">
        <ele>166</ele>
        <time>2018-08-19T12:19:46Z</time>
      </trkpt>
      <trkpt lat="48.65834" lon="2.01129">
        <ele>166</ele>
        <time>2018-08-19T12:19:50Z</time>
      </trkpt>
      <trkpt lat="48.65828" lon="2.01129">
        <ele>166</ele>
        <time>2018-08-19T12:19:54Z</time>
      </trkpt>
      <trkpt lat="48.65823" lon="2.0113">
        <ele>166</ele>
        <time>2018-08-19T12:19:58Z</time>
      </trkpt>
      <trkpt lat="48.65816" lon="2.01131">
        <ele>166</ele>
        <time>2018-08-19T12:20:02Z</time>
      </trkpt>
      <trkpt lat="48.6581" lon="2.01133">
        <ele>166</ele>
        <time>2018-08-19T12:20:06Z</time>
      </trkpt>
      <trkpt lat="48.65804" lon="2.01137">
        <ele>166</ele>
        <time>2018-08-19T12:20:10Z</time>
      </trkpt>
      <trkpt lat="48.65798" lon="2.01139">
        <ele>167</ele>
        <time>2018-08-19T12:20:14Z</time>
      </trkpt>
      <trkpt lat="48.65792" lon="2.01142">
        <ele>167</ele>
        <time>2018-08-19T12:20:18Z</time>
      </trkpt>
      <trkpt lat="48.65785" lon="2.01144">
        <ele>167</ele>
        <time>2018-08-19T12:20:22Z</time>
      </trkpt>
      <trkpt lat="48.65779" lon="2.01145">
        <ele>168</ele>
        <time>2018-08-19T12:20:26Z</time>
      </trkpt>
      <trkpt lat="48.65773" lon="2.01145">
        <ele>168</ele>
        <time>2018-08-19T12:20:30Z</time>
      </trkpt>
      <trkpt lat="48.65767" lon="2.01145">
        <ele>169</ele>
        <time>2018-08-19T12:20:34Z</time>
      </trkpt>
      <trkpt lat="48.6576" lon="2.01144">
        <ele>169</ele>
        <time>2018-08-19T12:20:38Z</time>
      </trkpt>
      <trkpt lat="48.65755" lon="2.01142">
        <ele>169</ele>
        <time>2018-08-19T12:20:42Z</time>
      </trkpt>
      <trkpt lat="48.65748" lon="2.0114">
        <ele>169</ele>
        <time>2018-08-19T12:20:46Z</time>
      </trkpt>
      <trkpt lat="48.65742" lon="2.01138">
        <ele>169</ele>
        <time>2018-08-19T12:20:50Z</time>
      </trkpt>
      <trkpt lat="48.65735" lon="2.01135">
        <ele>169</ele>
        <time>2018-08-19T12:20:54Z</time>
      </trkpt>
      <trkpt lat="48.65729" lon="2.01132">
        <ele>169</ele>
        <time>2018-08-19T12:20:58Z</time>
      </trkpt>
      <trkpt lat="48.65723" lon="2.0113">
        <ele>169</ele>
        <time>2018-08-19T12:21:02Z</time>
      </trkpt>
      <trkpt lat="48.65717" lon="2.01127">
        <ele>169</ele>
        <time>2018-08-19T12:21:06Z</time>
      </trkpt>
      <trkpt lat="48.6571" lon="2.01124">
        <ele>170</ele>
        <time>2018-08-19T12:21:10Z</time>
      </trkpt>
      <trkpt lat="48.65704" lon="2.01122">
        <ele>170</ele>
        <time>2018-08-19T12:21:14Z</time>
      </trkpt>
      <trkpt lat="48.65697" lon="2.0112">
        <ele>170</ele>
        <time>2018-08-19T12:21:18Z</time>
      </trkpt>
      <trkpt lat="48.65691" lon="2.01118">
        <ele>170</ele>
        <time>2018-08-19T12:21:22Z</time>
      </trkpt>
      <trkpt lat="48.65685" lon="2.01117">
        <ele>170</ele>
        <time>2018-08-19T12:21:26Z</time>
      </trkpt>
      <trkpt lat="48.65679" lon="2.01117">
        <ele>170</ele>
        <time>2018-08-19T12:21:30Z</time>
      </trkpt>
      <trkpt lat="48.65672" lon="2.01119">
        <ele>170</ele>
        <time>2018-08-19T12:21:34Z</time>
      </trkpt>
      <trkpt lat="48.65666" lon="2.01122">
        <ele>170</ele>
        <time>2018-08-19T12:21:38Z</time>
      </trkpt>
      <trkpt lat="48.65661" lon="2.01125">
        <ele>170</ele>
        <time>2018-08-19T12:21:42Z</time>
      </trkpt>
      <trkpt lat="48.65654" lon="2.01127">
        <ele>170</ele>
        <time>2018-08-19T12:21:46Z</time>
      </trkpt>
      <trkpt lat="48.65648" lon="2.01129">
        <ele>170</ele>
        <time>2018-08-19T12:21:50Z</time>
      </trkpt>
      <trkpt lat="48.65641" lon="2.0113">
        <ele>170</ele>
        <time>2018-08-19T12:21:54Z</time>
      </trkpt>
      <trkpt lat="48.65636" lon="2.01132">
        <ele>170</ele>
        <time>2018-08-19T12:21:58Z</time>
      </trkpt>
      <trkpt lat="48.6563" lon="2.01133">
        <ele>170</ele>
        <time>2018-08-19T12:22:02Z</time>
      </trkpt>
      <trkpt lat="48.65624" lon="2.01134">
        <ele>170</ele>
        <time>2018-08-19T12:22:06Z</time>
      </trkpt>
      <trkpt lat="48.65618" lon="2.01134">
        <ele>170</ele>
        <time>2018-08-19T12:22:10Z</time>
      </trkpt>
      <trkpt lat="48.65612" lon="2.01135">
        <ele>170</ele>
        <time>2018-08-19T12:22:14Z</time>
      </trkpt>
      <trkpt lat="48.65606" lon="2.01136">
        <ele>170</ele>
        <time>2018-08-19T12:22:18Z</time>
      </trkpt>
      <trkpt lat="48.65599" lon="2.01137">
        <ele>170</ele>
        <time>2018-08-19T12:22:22Z</time>
      </trkpt>
      <trkpt lat="48.65593" lon="2.01138">
        <ele>170</ele>
        <time>2018-08-19T12:22:26Z</time>
      </trkpt>
      <trkpt lat="48.65587" lon="2.0114">
        <ele>170</ele>
        <time>2018-08-19T12:22:30Z</time>
      </trkpt>
      <trkpt lat="48.6558" lon="2.0114">
        <ele>170</ele>
        <time>2018-08-19T12:22:34Z</time>
      </trkpt>
      <trkpt lat="48.65574" lon="2.01142">
        <ele>170</ele>
        <time>2018-08-19T12:22:38Z</time>
      </trkpt>
      <trkpt lat="48.65568" lon="2.01142">
        <ele>170</ele>
        <time>2018-08-19T12:22:42Z</time>
      </trkpt>
      <trkpt lat="48.65562" lon="2.01143">
        <ele>170</ele>
        <time>2018-08-19T12:22:46Z</time>
      </trkpt>
      <trkpt lat="48.65556" lon="2.01143">
        <ele>170</ele>
        <time>2018-08-19T12:22:50Z</time>
      </trkpt>
      <trkpt lat="48.65551" lon="2.01144">
        <ele>170</ele>
        <time>2018-08-19T12:22:55Z</time>
      </trkpt>
      <trkpt lat="48.65548" lon="2.01144">
        <ele>170</ele>
        <time>2018-08-19T12:22:59Z</time>
      </trkpt>
      <trkpt lat="48.65538" lon="2.01146">
        <ele>170</ele>
        <time>2018-08-19T12:23:03Z</time>
      </trkpt>
      <trkpt lat="48.65526" lon="2.0115">
        <ele>170</ele>
        <time>2018-08-19T12:23:07Z</time>
      </trkpt>
      <trkpt lat="48.65517" lon="2.01151">
        <ele>170</ele>
        <time>2018-08-19T12:23:11Z</time>
      </trkpt>
      <trkpt lat="48.6551" lon="2.01151">
        <ele>170</ele>
        <time>2018-08-19T12:23:15Z</time>
      </trkpt>
      <trkpt lat="48.65503" lon="2.01148">
        <ele>170</ele>
        <time>2018-08-19T12:23:19Z</time>
      </trkpt>
      <trkpt lat="48.65495" lon="2.01148">
        <ele>170</ele>
        <time>2018-08-19T12:23:23Z</time>
      </trkpt>
      <trkpt lat="48.65488" lon="2.01149">
        <ele>170</ele>
        <time>2018-08-19T12:23:27Z</time>
      </trkpt>
      <trkpt lat="48.65481" lon="2.0115">
        <ele>170</ele>
        <time>2018-08-19T12:23:31Z</time>
      </trkpt>
      <trkpt lat="48.65473" lon="2.01151">
        <ele>170</ele>
        <time>2018-08-19T12:23:35Z</time>
      </trkpt>
      <trkpt lat="48.65466" lon="2.01152">
        <ele>170</ele>
        <time>2018-08-19T12:23:39Z</time>
      </trkpt>
      <trkpt lat="48.6546" lon="2.01153">
        <ele>170</ele>
        <time>2018-08-19T12:23:43Z</time>
      </trkpt>
      <trkpt lat="48.65453" lon="2.01154">
        <ele>171</ele>
        <time>2018-08-19T12:23:47Z</time>
      </trkpt>
      <trkpt lat="48.65446" lon="2.01155">
        <ele>171</ele>
        <time>2018-08-19T12:23:51Z</time>
      </trkpt>
      <trkpt lat="48.6544" lon="2.01157">
        <ele>171</ele>
        <time>2018-08-19T12:23:55Z</time>
      </trkpt>
      <trkpt lat="48.65433" lon="2.01158">
        <ele>172</ele>
        <time>2018-08-19T12:23:59Z</time>
      </trkpt>
      <trkpt lat="48.65426" lon="2.01159">
        <ele>172</ele>
        <time>2018-08-19T12:24:03Z</time>
      </trkpt>
      <trkpt lat="48.65419" lon="2.01161">
        <ele>173</ele>
        <time>2018-08-19T12:24:07Z</time>
      </trkpt>
      <trkpt lat="48.65412" lon="2.01161">
        <ele>173</ele>
        <time>2018-08-19T12:24:11Z</time>
      </trkpt>
      <trkpt lat="48.65406" lon="2.01162">
        <ele>173</ele>
        <time>2018-08-19T12:24:15Z</time>
      </trkpt>
      <trkpt lat="48.65399" lon="2.01163">
        <ele>173</ele>
        <time>2018-08-19T12:24:19Z</time>
      </trkpt>
      <trkpt lat="48.65392" lon="2.01164">
        <ele>173</ele>
        <time>2018-08-19T12:24:23Z</time>
      </trkpt>
      <trkpt lat="48.65385" lon="2.01165">
        <ele>173</ele>
        <time>2018-08-19T12:24:27Z</time>
      </trkpt>
      <trkpt lat="48.65378" lon="2.01167">
        <ele>173</ele>
        <time>2018-08-19T12:24:31Z</time>
      </trkpt>
      <trkpt lat="48.65372" lon="2.01168">
        <ele>173</ele>
        <time>2018-08-19T12:24:35Z</time>
      </trkpt>
      <trkpt lat="48.65367" lon="2.01169">
        <ele>173</ele>
        <time>2018-08-19T12:24:39Z</time>
      </trkpt>
      <trkpt lat="48.65363" lon="2.01169">
        <ele>173</ele>
        <time>2018-08-19T12:24:43Z</time>
      </trkpt>
      <trkpt lat="48.65362" lon="2.01168">
        <ele>173</ele>
        <time>2018-08-19T12:24:48Z</time>
      </trkpt>
      <trkpt lat="48.65359" lon="2.0117">
        <ele>173</ele>
        <time>2018-08-19T12:24:52Z</time>
      </trkpt>
      <trkpt lat="48.65353" lon="2.01171">
        <ele>173</ele>
        <time>2018-08-19T12:24:56Z</time>
      </trkpt>
      <trkpt lat="48.65347" lon="2.01171">
        <ele>173</ele>
        <time>2018-08-19T12:25:00Z</time>
      </trkpt>
      <trkpt lat="48.6534" lon="2.01172">
        <ele>173</ele>
        <time>2018-08-19T12:25:04Z</time>
      </trkpt>
      <trkpt lat="48.65334" lon="2.01174">
        <ele>173</ele>
        <time>2018-08-19T12:25:08Z</time>
      </trkpt>
      <trkpt lat="48.65328" lon="2.01175">
        <ele>173</ele>
        <time>2018-08-19T12:25:12Z</time>
      </trkpt>
      <trkpt lat="48.65321" lon="2.01175">
        <ele>173</ele>
        <time>2018-08-19T12:25:16Z</time>
      </trkpt>
      <trkpt lat="48.65315" lon="2.01176">
        <ele>173</ele>
        <time>2018-08-19T12:25:20Z</time>
      </trkpt>
      <trkpt lat="48.65308" lon="2.01178">
        <ele>173</ele>
        <time>2018-08-19T12:25:24Z</time>
      </trkpt>
      <trkpt lat="48.65302" lon="2.01178">
        <ele>173</ele>
        <time>2018-08-19T12:25:28Z</time>
      </trkpt>
      <trkpt lat="48.65295" lon="2.0118">
        <ele>173</ele>
        <time>2018-08-19T12:25:32Z</time>
      </trkpt>
      <trkpt lat="48.65289" lon="2.01181">
        <ele>173</ele>
        <time>2018-08-19T12:25:36Z</time>
      </trkpt>
      <trkpt lat="48.65283" lon="2.01183">
        <ele>173</ele>
        <time>2018-08-19T12:25:40Z</time>
      </trkpt>
      <trkpt lat="48.65277" lon="2.01184">
        <ele>173</ele>
        <time>2018-08-19T12:25:44Z</time>
      </trkpt>
      <trkpt lat="48.65271" lon="2.01184">
        <ele>173</ele>
        <time>2018-08-19T12:25:48Z</time>
      </trkpt>
      <trkpt lat="48.65264" lon="2.01185">
        <ele>173</ele>
        <time>2018-08-19T12:25:52Z</time>
      </trkpt>
      <trkpt lat="48.65258" lon="2.01187">
        <ele>173</ele>
        <time>2018-08-19T12:25:56Z</time>
      </trkpt>
      <trkpt lat="48.65252" lon="2.01187">
        <ele>173</ele>
        <time>2018-08-19T12:26:00Z</time>
      </trkpt>
      <trkpt lat="48.65245" lon="2.01189">
        <ele>173</ele>
        <time>2018-08-19T12:26:04Z</time>
      </trkpt>
      <trkpt lat="48.65239" lon="2.0119">
        <ele>173</ele>
        <time>2018-08-19T12:26:08Z</time>
      </trkpt>
      <trkpt lat="48.65233" lon="2.01191">
        <ele>173</ele>
        <time>2018-08-19T12:26:12Z</time>
      </trkpt>
      <trkpt lat="48.65226" lon="2.01192">
        <ele>173</ele>
        <time>2018-08-19T12:26:16Z</time>
      </trkpt>
      <trkpt lat="48.6522" lon="2.01193">
        <ele>173</ele>
        <time>2018-08-19T12:26:20Z</time>
      </trkpt>
      <trkpt lat="48.65214" lon="2.01193">
        <ele>173</ele>
        <time>2018-08-19T12:26:24Z</time>
      </trkpt>
      <trkpt lat="48.65208" lon="2.01194">
        <ele>173</ele>
        <time>2018-08-19T12:26:28Z</time>
      </trkpt>
      <trkpt lat="48.65202" lon="2.01194">
        <ele>173</ele>
        <time>2018-08-19T12:26:32Z</time>
      </trkpt>
      <trkpt lat="48.65195" lon="2.01194">
        <ele>173</ele>
        <time>2018-08-19T12:26:36Z</time>
      </trkpt>
      <trkpt lat="48.65188" lon="2.01194">
        <ele>173</ele>
        <time>2018-08-19T12:26:40Z</time>
      </trkpt>
      <trkpt lat="48.65182" lon="2.01194">
        <ele>173</ele>
        <time>2018-08-19T12:26:44Z</time>
      </trkpt>
      <trkpt lat="48.65175" lon="2.01193">
        <ele>173</ele>
        <time>2018-08-19T12:26:48Z</time>
      </trkpt>
      <trkpt lat="48.65169" lon="2.01193">
        <ele>173</ele>
        <time>2018-08-19T12:26:52Z</time>
      </trkpt>
      <trkpt lat="48.65162" lon="2.01191">
        <ele>173</ele>
        <time>2018-08-19T12:26:56Z</time>
      </trkpt>
      <trkpt lat="48.65155" lon="2.01189">
        <ele>173</ele>
        <time>2018-08-19T12:27:00Z</time>
      </trkpt>
      <trkpt lat="48.65148" lon="2.01188">
        <ele>173</ele>
        <time>2018-08-19T12:27:04Z</time>
      </trkpt>
      <trkpt lat="48.65141" lon="2.01189">
        <ele>173</ele>
        <time>2018-08-19T12:27:08Z</time>
      </trkpt>
      <trkpt lat="48.65135" lon="2.01192">
        <ele>173</ele>
        <time>2018-08-19T12:27:12Z</time>
      </trkpt>
      <trkpt lat="48.65132" lon="2.01203">
        <ele>173</ele>
        <time>2018-08-19T12:27:16Z</time>
      </trkpt>
      <trkpt lat="48.65131" lon="2.01223">
        <ele>173</ele>
        <time>2018-08-19T12:27:20Z</time>
      </trkpt>
      <trkpt lat="48.65129" lon="2.01243">
        <ele>173</ele>
        <time>2018-08-19T12:27:24Z</time>
      </trkpt>
      <trkpt lat="48.65127" lon="2.01264">
        <ele>173</ele>
        <time>2018-08-19T12:27:28Z</time>
      </trkpt>
      <trkpt lat="48.65124" lon="2.01285">
        <ele>173</ele>
        <time>2018-08-19T12:27:32Z</time>
      </trkpt>
      <trkpt lat="48.65122" lon="2.01307">
        <ele>173</ele>
        <time>2018-08-19T12:27:36Z</time>
      </trkpt>
      <trkpt lat="48.65119" lon="2.01329">
        <ele>173</ele>
        <time>2018-08-19T12:27:40Z</time>
      </trkpt>
      <trkpt lat="48.65115" lon="2.01353">
        <ele>173</ele>
        <time>2018-08-19T12:27:44Z</time>
      </trkpt>
      <trkpt lat="48.65111" lon="2.01376">
        <ele>173</ele>
        <time>2018-08-19T12:27:48Z</time>
      </trkpt>
      <trkpt lat="48.65106" lon="2.01399">
        <ele>173</ele>
        <time>2018-08-19T12:27:52Z</time>
      </trkpt>
      <trkpt lat="48.65101" lon="2.01421">
        <ele>173</ele>
        <time>2018-08-19T12:27:56Z</time>
      </trkpt>
      <trkpt lat="48.65096" lon="2.01443">
        <ele>173</ele>
        <time>2018-08-19T12:28:00Z</time>
      </trkpt>
      <trkpt lat="48.65091" lon="2.01466">
        <ele>173</ele>
        <time>2018-08-19T12:28:04Z</time>
      </trkpt>
      <trkpt lat="48.65085" lon="2.01489">
        <ele>173</ele>
        <time>2018-08-19T12:28:08Z</time>
      </trkpt>
      <trkpt lat="48.6508" lon="2.01511">
        <ele>173</ele>
        <time>2018-08-19T12:28:12Z</time>
      </trkpt>
      <trkpt lat="48.65074" lon="2.01533">
        <ele>173</ele>
        <time>2018-08-19T12:28:16Z</time>
      </trkpt>
      <trkpt lat="48.65068" lon="2.01555">
        <ele>173</ele>
        <time>2018-08-19T12:28:20Z</time>
      </trkpt>
      <trkpt lat="48.65064" lon="2.01576">
        <ele>173</ele>
        <time>2018-08-19T12:28:24Z</time>
      </trkpt>
      <trkpt lat="48.65059" lon="2.01598">
        <ele>173</ele>
        <time>2018-08-19T12:28:28Z</time>
      </trkpt>
      <trkpt lat="48.65053" lon="2.01619">
        <ele>173</ele>
        <time>2018-08-19T12:28:32Z</time>
      </trkpt>
      <trkpt lat="48.65048" lon="2.0164">
        <ele>173</ele>
        <time>2018-08-19T12:28:36Z</time>
      </trkpt>
      <trkpt lat="48.65043" lon="2.01662">
        <ele>173</ele>
        <time>2018-08-19T12:28:40Z</time>
      </trkpt>
      <trkpt lat="48.65037" lon="2.01683">
        <ele>173</ele>
        <time>2018-08-19T12:28:44Z</time>
      </trkpt>
      <trkpt lat="48.65032" lon="2.01704">
        <ele>173</ele>
        <time>2018-08-19T12:28:48Z</time>
      </trkpt>
      <trkpt lat="48.65027" lon="2.01724">
        <ele>173</ele>
        <time>2018-08-19T12:28:52Z</time>
      </trkpt>
      <trkpt lat="48.65021" lon="2.01745">
        <ele>173</ele>
        <time>2018-08-19T12:28:56Z</time>
      </trkpt>
      <trkpt lat="48.65016" lon="2.01766">
        <ele>173</ele>
        <time>2018-08-19T12:29:00Z</time>
      </trkpt>
      <trkpt lat="48.65011" lon="2.01788">
        <ele>173</ele>
        <time>2018-08-19T12:29:04Z</time>
      </trkpt>
      <trkpt lat="48.65004" lon="2.0181">
        <ele>173</ele>
        <time>2018-08-19T12:29:08Z</time>
      </trkpt>
      <trkpt lat="48.65" lon="2.01832">
        <ele>173</ele>
        <time>2018-08-19T12:29:12Z</time>
      </trkpt>
      <trkpt lat="48.64995" lon="2.01854">
        <ele>173</ele>
        <time>2018-08-19T12:29:16Z</time>
      </trkpt>
      <trkpt lat="48.64991" lon="2.01877">
        <ele>173</ele>
        <time>2018-08-19T12:29:20Z</time>
      </trkpt>
      <trkpt lat="48.64987" lon="2.01901">
        <ele>173</ele>
        <time>2018-08-19T12:29:24Z</time>
      </trkpt>
      <trkpt lat="48.64983" lon="2.01926">
        <ele>173</ele>
        <time>2018-08-19T12:29:28Z</time>
      </trkpt>
      <trkpt lat="48.64982" lon="2.01949">
        <ele>173</ele>
        <time>2018-08-19T12:29:32Z</time>
      </trkpt>
      <trkpt lat="48.6498" lon="2.01971">
        <ele>173</ele>
        <time>2018-08-19T12:29:36Z</time>
      </trkpt>
      <trkpt lat="48.64979" lon="2.01994">
        <ele>173</ele>
        <time>2018-08-19T12:29:40Z</time>
      </trkpt>
      <trkpt lat="48.64978" lon="2.02017">
        <ele>173</ele>
        <time>2018-08-19T12:29:44Z</time>
      </trkpt>
      <trkpt lat="48.64977" lon="2.02039">
        <ele>173</ele>
        <time>2018-08-19T12:29:48Z</time>
      </trkpt>
      <trkpt lat="48.64975" lon="2.02061">
        <ele>173</ele>
        <time>2018-08-19T12:29:52Z</time>
      </trkpt>
      <trkpt lat="48.64974" lon="2.02081">
        <ele>173</ele>
        <time>2018-08-19T12:29:56Z</time>
      </trkpt>
      <trkpt lat="48.64975" lon="2.021">
        <ele>173</ele>
        <time>2018-08-19T12:30:00Z</time>
      </trkpt>
      <trkpt lat="48.64975" lon="2.02111">
        <ele>173</ele>
        <time>2018-08-19T12:30:04Z</time>
      </trkpt>
      <trkpt lat="48.64974" lon="2.02119">
        <ele>173</ele>
        <time>2018-08-19T12:30:08Z</time>
      </trkpt>
      <trkpt lat="48.64972" lon="2.02128">
        <ele>173</ele>
        <time>2018-08-19T12:30:12Z</time>
      </trkpt>
      <trkpt lat="48.64967" lon="2.02136">
        <ele>173</ele>
        <time>2018-08-19T12:30:16Z</time>
      </trkpt>
      <trkpt lat="48.64961" lon="2.02139">
        <ele>173</ele>
        <time>2018-08-19T12:30:20Z</time>
      </trkpt>
      <trkpt lat="48.64954" lon="2.0214">
        <ele>173</ele>
        <time>2018-08-19T12:30:24Z</time>
      </trkpt>
      <trkpt lat="48.64947" lon="2.02142">
        <ele>173</ele>
        <time>2018-08-19T12:30:28Z</time>
      </trkpt>
      <trkpt lat="48.64942" lon="2.02147">
        <ele>173</ele>
        <time>2018-08-19T12:30:32Z</time>
      </trkpt>
      <trkpt lat="48.64939" lon="2.02155">
        <ele>173</ele>
        <time>2018-08-19T12:30:36Z</time>
      </trkpt>
      <trkpt lat="48.64937" lon="2.02164">
        <ele>173</ele>
        <time>2018-08-19T12:30:40Z</time>
      </trkpt>
      <trkpt lat="48.64936" lon="2.02173">
        <ele>173</ele>
        <time>2018-08-19T12:30:44Z</time>
      </trkpt>
      <trkpt lat="48.64935" lon="2.02183">
        <ele>173</ele>
        <time>2018-08-19T12:30:48Z</time>
      </trkpt>
      <trkpt lat="48.64934" lon="2.02193">
        <ele>173</ele>
        <time>2018-08-19T12:30:52Z</time>
      </trkpt>
      <trkpt lat="48.64934" lon="2.02203">
        <ele>174</ele>
        <time>2018-08-19T12:30:56Z</time>
      </trkpt>
      <trkpt lat="48.64934" lon="2.02213">
        <ele>174</ele>
        <time>2018-08-19T12:31:00Z</time>
      </trkpt>
      <trkpt lat="48.64934" lon="2.02223">
        <ele>174</ele>
        <time>2018-08-19T12:31:04Z</time>
      </trkpt>
      <trkpt lat="48.64935" lon="2.02232">
        <ele>174</ele>
        <time>2018-08-19T12:31:08Z</time>
      </trkpt>
      <trkpt lat="48.64937" lon="2.02242">
        <ele>174</ele>
        <time>2018-08-19T12:31:12Z</time>
      </trkpt>
      <trkpt lat="48.64939" lon="2.02251">
        <ele>174</ele>
        <time>2018-08-19T12:31:16Z</time>
      </trkpt>
      <trkpt lat="48.64941" lon="2.0226">
        <ele>174</ele>
        <time>2018-08-19T12:31:20Z</time>
      </trkpt>
      <trkpt lat="48.64941" lon="2.02268">
        <ele>174</ele>
        <time>2018-08-19T12:31:24Z</time>
      </trkpt>
      <trkpt lat="48.6494" lon="2.02276">
        <ele>174</ele>
        <time>2018-08-19T12:31:28Z</time>
      </trkpt>
      <trkpt lat="48.64938" lon="2.02285">
        <ele>174</ele>
        <time>2018-08-19T12:31:32Z</time>
      </trkpt>
      <trkpt lat="48.64936" lon="2.02291">
        <ele>174</ele>
        <time>2018-08-19T12:31:36Z</time>
      </trkpt>
      <trkpt lat="48.64937" lon="2.02291">
        <ele>175</ele>
        <time>2018-08-19T12:32:22Z</time>
      </trkpt>
      <trkpt lat="48.64937" lon="2.02295">
        <ele>175</ele>
        <time>2018-08-19T12:32:26Z</time>
      </trkpt>
      <trkpt lat="48.64936" lon="2.02303">
        <ele>175</ele>
        <time>2018-08-19T12:32:30Z</time>
      </trkpt>
      <trkpt lat="48.64934" lon="2.02311">
        <ele>175</ele>
        <time>2018-08-19T12:32:34Z</time>
      </trkpt>
      <trkpt lat="48.64932" lon="2.0232">
        <ele>175</ele>
        <time>2018-08-19T12:32:38Z</time>
      </trkpt>
      <trkpt lat="48.6493" lon="2.02328">
        <ele>175</ele>
        <time>2018-08-19T12:32:42Z</time>
      </trkpt>
      <trkpt lat="48.64928" lon="2.02337">
        <ele>175</ele>
        <time>2018-08-19T12:32:46Z</time>
      </trkpt>
      <trkpt lat="48.64925" lon="2.02346">
        <ele>175</ele>
        <time>2018-08-19T12:32:50Z</time>
      </trkpt>
      <trkpt lat="48.64922" lon="2.02354">
        <ele>175</ele>
        <time>2018-08-19T12:32:54Z</time>
      </trkpt>
      <trkpt lat="48.6492" lon="2.02364">
        <ele>175</ele>
        <time>2018-08-19T12:32:58Z</time>
      </trkpt>
      <trkpt lat="48.64919" lon="2.02373">
        <ele>175</ele>
        <time>2018-08-19T12:33:02Z</time>
      </trkpt>
      <trkpt lat="48.64917" lon="2.02381">
        <ele>175</ele>
        <time>2018-08-19T12:33:06Z</time>
      </trkpt>
      <trkpt lat="48.64916" lon="2.0239">
        <ele>175</ele>
        <time>2018-08-19T12:33:10Z</time>
      </trkpt>
      <trkpt lat="48.64914" lon="2.02399">
        <ele>175</ele>
        <time>2018-08-19T12:33:14Z</time>
      </trkpt>
      <trkpt lat="48.64912" lon="2.02408">
        <ele>175</ele>
        <time>2018-08-19T12:33:18Z</time>
      </trkpt>
      <trkpt lat="48.6491" lon="2.02417">
        <ele>175</ele>
        <time>2018-08-19T12:33:22Z</time>
      </trkpt>
      <trkpt lat="48.64908" lon="2.02426">
        <ele>175</ele>
        <time>2018-08-19T12:33:26Z</time>
      </trkpt>
      <trkpt lat="48.64906" lon="2.02435">
        <ele>175</ele>
        <time>2018-08-19T12:33:30Z</time>
      </trkpt>
      <trkpt lat="48.64905" lon="2.02444">
        <ele>175</ele>
        <time>2018-08-19T12:33:34Z</time>
      </trkpt>
      <trkpt lat="48.64903" lon="2.02454">
        <ele>175</ele>
        <time>2018-08-19T12:33:38Z</time>
      </trkpt>
      <trkpt lat="48.64901" lon="2.02463">
        <ele>175</ele>
        <time>2018-08-19T12:33:42Z</time>
      </trkpt>
      <trkpt lat="48.64899" lon="2.02471">
        <ele>175</ele>
        <time>2018-08-19T12:33:46Z</time>
      </trkpt>
      <trkpt lat="48.64898" lon="2.0248">
        <ele>175</ele>
        <time>2018-08-19T12:33:50Z</time>
      </trkpt>
      <trkpt lat="48.64896" lon="2.02489">
        <ele>175</ele>
        <time>2018-08-19T12:33:54Z</time>
      </trkpt>
      <trkpt lat="48.64894" lon="2.02498">
        <ele>175</ele>
        <time>2018-08-19T12:33:58Z</time>
      </trkpt>
      <trkpt lat="48.64893" lon="2.02507">
        <ele>175</ele>
        <time>2018-08-19T12:34:02Z</time>
      </trkpt>
      <trkpt lat="48.64891" lon="2.02516">
        <ele>175</ele>
        <time>2018-08-19T12:34:06Z</time>
      </trkpt>
      <trkpt lat="48.64889" lon="2.02525">
        <ele>175</ele>
        <time>2018-08-19T12:34:10Z</time>
      </trkpt>
      <trkpt lat="48.64887" lon="2.02534">
        <ele>175</ele>
        <time>2018-08-19T12:34:14Z</time>
      </trkpt>
      <trkpt lat="48.64885" lon="2.02543">
        <ele>175</ele>
        <time>2018-08-19T12:34:18Z</time>
      </trkpt>
      <trkpt lat="48.64883" lon="2.02552">
        <ele>175</ele>
        <time>2018-08-19T12:34:22Z</time>
      </trkpt>
      <trkpt lat="48.64882" lon="2.02561">
        <ele>175</ele>
        <time>2018-08-19T12:34:26Z</time>
      </trkpt>
      <trkpt lat="48.6488" lon="2.0257">
        <ele>175</ele>
        <time>2018-08-19T12:34:30Z</time>
      </trkpt>
      <trkpt lat="48.64879" lon="2.02579">
        <ele>175</ele>
        <time>2018-08-19T12:34:34Z</time>
      </trkpt>
      <trkpt lat="48.64877" lon="2.02588">
        <ele>175</ele>
        <time>2018-08-19T12:34:38Z</time>
      </trkpt>
      <trkpt lat="48.64875" lon="2.02598">
        <ele>175</ele>
        <time>2018-08-19T12:34:42Z</time>
      </trkpt>
      <trkpt lat="48.64873" lon="2.02607">
        <ele>175</ele>
        <time>2018-08-19T12:34:46Z</time>
      </trkpt>
      <trkpt lat="48.64871" lon="2.02616">
        <ele>175</ele>
        <time>2018-08-19T12:34:50Z</time>
      </trkpt>
      <trkpt lat="48.64869" lon="2.02624">
        <ele>175</ele>
        <time>2018-08-19T12:34:54Z</time>
      </trkpt>
      <trkpt lat="48.64867" lon="2.02633">
        <ele>175</ele>
        <time>2018-08-19T12:34:58Z</time>
      </trkpt>
      <trkpt lat="48.64866" lon="2.02642">
        <ele>175</ele>
        <time>2018-08-19T12:35:02Z</time>
      </trkpt>
      <trkpt lat="48.64864" lon="2.02652">
        <ele>175</ele>
        <time>2018-08-19T12:35:06Z</time>
      </trkpt>
      <trkpt lat="48.64862" lon="2.0266">
        <ele>175</ele>
        <time>2018-08-19T12:35:10Z</time>
      </trkpt>
      <trkpt lat="48.6486" lon="2.0267">
        <ele>175</ele>
        <time>2018-08-19T12:35:14Z</time>
      </trkpt>
      <trkpt lat="48.64859" lon="2.02679">
        <ele>175</ele>
        <time>2018-08-19T12:35:18Z</time>
      </trkpt>
      <trkpt lat="48.64858" lon="2.02689">
        <ele>175</ele>
        <time>2018-08-19T12:35:22Z</time>
      </trkpt>
      <trkpt lat="48.64856" lon="2.02698">
        <ele>175</ele>
        <time>2018-08-19T12:35:26Z</time>
      </trkpt>
      <trkpt lat="48.64854" lon="2.02707">
        <ele>175</ele>
        <time>2018-08-19T12:35:30Z</time>
      </trkpt>
      <trkpt lat="48.64852" lon="2.02717">
        <ele>175</ele>
        <time>2018-08-19T12:35:34Z</time>
      </trkpt>
      <trkpt lat="48.64851" lon="2.02726">
        <ele>175</ele>
        <time>2018-08-19T12:35:38Z</time>
      </trkpt>
      <trkpt lat="48.64849" lon="2.02735">
        <ele>175</ele>
        <time>2018-08-19T12:35:42Z</time>
      </trkpt>
      <trkpt lat="48.64848" lon="2.02744">
        <ele>175</ele>
        <time>2018-08-19T12:35:46Z</time>
      </trkpt>
      <trkpt lat="48.64847" lon="2.02753">
        <ele>175</ele>
        <time>2018-08-19T12:35:50Z</time>
      </trkpt>
      <trkpt lat="48.64846" lon="2.02763">
        <ele>175</ele>
        <time>2018-08-19T12:35:54Z</time>
      </trkpt>
      <trkpt lat="48.64844" lon="2.02771">
        <ele>175</ele>
        <time>2018-08-19T12:35:58Z</time>
      </trkpt>
      <trkpt lat="48.64838" lon="2.02774">
        <ele>175</ele>
        <time>2018-08-19T12:36:03Z</time>
      </trkpt>
      <trkpt lat="48.64837" lon="2.02774">
        <ele>175</ele>
        <time>2018-08-19T12:36:08Z</time>
      </trkpt>
      <trkpt lat="48.64834" lon="2.02774">
        <ele>175</ele>
        <time>2018-08-19T12:36:12Z</time>
      </trkpt>
      <trkpt lat="48.64827" lon="2.02774">
        <ele>175</ele>
        <time>2018-08-19T12:36:16Z</time>
      </trkpt>
      <trkpt lat="48.64821" lon="2.02774">
        <ele>174</ele>
        <time>2018-08-19T12:36:20Z</time>
      </trkpt>
      <trkpt lat="48.64814" lon="2.02774">
        <ele>174</ele>
        <time>2018-08-19T12:36:24Z</time>
      </trkpt>
      <trkpt lat="48.64807" lon="2.02774">
        <ele>174</ele>
        <time>2018-08-19T12:36:28Z</time>
      </trkpt>
      <trkpt lat="48.648" lon="2.02774">
        <ele>174</ele>
        <time>2018-08-19T12:36:32Z</time>
      </trkpt>
      <trkpt lat="48.64793" lon="2.02774">
        <ele>174</ele>
        <time>2018-08-19T12:36:36Z</time>
      </trkpt>
      <trkpt lat="48.64787" lon="2.02774">
        <ele>174</ele>
        <time>2018-08-19T12:36:40Z</time>
      </trkpt>
      <trkpt lat="48.6478" lon="2.02774">
        <ele>174</ele>
        <time>2018-08-19T12:36:44Z</time>
      </trkpt>
      <trkpt lat="48.64772" lon="2.02774">
        <ele>174</ele>
        <time>2018-08-19T12:36:49Z</time>
      </trkpt>
      <trkpt lat="48.64766" lon="2.02774">
        <ele>174</ele>
        <time>2018-08-19T12:36:53Z</time>
      </trkpt>
      <trkpt lat="48.64757" lon="2.02773">
        <ele>174</ele>
        <time>2018-08-19T12:36:58Z</time>
      </trkpt>
      <trkpt lat="48.64749" lon="2.02774">
        <ele>174</ele>
        <time>2018-08-19T12:37:03Z</time>
      </trkpt>
      <trkpt lat="48.64743" lon="2.02774">
        <ele>174</ele>
        <time>2018-08-19T12:37:07Z</time>
      </trkpt>
      <trkpt lat="48.64737" lon="2.02774">
        <ele>174</ele>
        <time>2018-08-19T12:37:11Z</time>
      </trkpt>
      <trkpt lat="48.6473" lon="2.02775">
        <ele>173</ele>
        <time>2018-08-19T12:37:15Z</time>
      </trkpt>
      <trkpt lat="48.64724" lon="2.02775">
        <ele>173</ele>
        <time>2018-08-19T12:37:19Z</time>
      </trkpt>
      <trkpt lat="48.64717" lon="2.02775">
        <ele>173</ele>
        <time>2018-08-19T12:37:23Z</time>
      </trkpt>
      <trkpt lat="48.64711" lon="2.02776">
        <ele>173</ele>
        <time>2018-08-19T12:37:27Z</time>
      </trkpt>
      <trkpt lat="48.64705" lon="2.02777">
        <ele>173</ele>
        <time>2018-08-19T12:37:31Z</time>
      </trkpt>
      <trkpt lat="48.64697" lon="2.02779">
        <ele>173</ele>
        <time>2018-08-19T12:37:36Z</time>
      </trkpt>
      <trkpt lat="48.6469" lon="2.0278">
        <ele>173</ele>
        <time>2018-08-19T12:37:40Z</time>
      </trkpt>
      <trkpt lat="48.64684" lon="2.02782">
        <ele>173</ele>
        <time>2018-08-19T12:37:44Z</time>
      </trkpt>
      <trkpt lat="48.64675" lon="2.02784">
        <ele>173</ele>
        <time>2018-08-19T12:37:49Z</time>
      </trkpt>
      <trkpt lat="48.64668" lon="2.02786">
        <ele>173</ele>
        <time>2018-08-19T12:37:53Z</time>
      </trkpt>
      <trkpt lat="48.64662" lon="2.02788">
        <ele>173</ele>
        <time>2018-08-19T12:37:57Z</time>
      </trkpt>
      <trkpt lat="48.64655" lon="2.0279">
        <ele>173</ele>
        <time>2018-08-19T12:38:02Z</time>
      </trkpt>
      <trkpt lat="48.64648" lon="2.02792">
        <ele>173</ele>
        <time>2018-08-19T12:38:06Z</time>
      </trkpt>
      <trkpt lat="48.64642" lon="2.02795">
        <ele>172</ele>
        <time>2018-08-19T12:38:10Z</time>
      </trkpt>
      <trkpt lat="48.64636" lon="2.02797">
        <ele>172</ele>
        <time>2018-08-19T12:38:14Z</time>
      </trkpt>
      <trkpt lat="48.64629" lon="2.02799">
        <ele>172</ele>
        <time>2018-08-19T12:38:18Z</time>
      </trkpt>
      <trkpt lat="48.64623" lon="2.02801">
        <ele>172</ele>
        <time>2018-08-19T12:38:22Z</time>
      </trkpt>
      <trkpt lat="48.64616" lon="2.02804">
        <ele>172</ele>
        <time>2018-08-19T12:38:26Z</time>
      </trkpt>
      <trkpt lat="48.6461" lon="2.02806">
        <ele>172</ele>
        <time>2018-08-19T12:38:30Z</time>
      </trkpt>
      <trkpt lat="48.64604" lon="2.02808">
        <ele>172</ele>
        <time>2018-08-19T12:38:34Z</time>
      </trkpt>
      <trkpt lat="48.64597" lon="2.0281">
        <ele>172</ele>
        <time>2018-08-19T12:38:38Z</time>
      </trkpt>
      <trkpt lat="48.64591" lon="2.02813">
        <ele>172</ele>
        <time>2018-08-19T12:38:42Z</time>
      </trkpt>
      <trkpt lat="48.64585" lon="2.02814">
        <ele>172</ele>
        <time>2018-08-19T12:38:46Z</time>
      </trkpt>
      <trkpt lat="48.64579" lon="2.02816">
        <ele>172</ele>
        <time>2018-08-19T12:38:50Z</time>
      </trkpt>
      <trkpt lat="48.64573" lon="2.02817">
        <ele>172</ele>
        <time>2018-08-19T12:38:54Z</time>
      </trkpt>
      <trkpt lat="48.64566" lon="2.02819">
        <ele>172</ele>
        <time>2018-08-19T12:38:58Z</time>
      </trkpt>
      <trkpt lat="48.6456" lon="2.02821">
        <ele>172</ele>
        <time>2018-08-19T12:39:02Z</time>
      </trkpt>
      <trkpt lat="48.64554" lon="2.02822">
        <ele>172</ele>
        <time>2018-08-19T12:39:06Z</time>
      </trkpt>
      <trkpt lat="48.64547" lon="2.02823">
        <ele>172</ele>
        <time>2018-08-19T12:39:10Z</time>
      </trkpt>
      <trkpt lat="48.64542" lon="2.02825">
        <ele>172</ele>
        <time>2018-08-19T12:39:14Z</time>
      </trkpt>
      <trkpt lat="48.64535" lon="2.02826">
        <ele>172</ele>
        <time>2018-08-19T12:39:18Z</time>
      </trkpt>
      <trkpt lat="48.64529" lon="2.02828">
        <ele>172</ele>
        <time>2018-08-19T12:39:22Z</time>
      </trkpt>
      <trkpt lat="48.64523" lon="2.02829">
        <ele>172</ele>
        <time>2018-08-19T12:39:26Z</time>
      </trkpt>
      <trkpt lat="48.64516" lon="2.02831">
        <ele>172</ele>
        <time>2018-08-19T12:39:30Z</time>
      </trkpt>
      <trkpt lat="48.6451" lon="2.02832">
        <ele>172</ele>
        <time>2018-08-19T12:39:34Z</time>
      </trkpt>
      <trkpt lat="48.64504" lon="2.02832">
        <ele>172</ele>
        <time>2018-08-19T12:39:38Z</time>
      </trkpt>
      <trkpt lat="48.64497" lon="2.02833">
        <ele>172</ele>
        <time>2018-08-19T12:39:42Z</time>
      </trkpt>
      <trkpt lat="48.64491" lon="2.02834">
        <ele>172</ele>
        <time>2018-08-19T12:39:46Z</time>
      </trkpt>
      <trkpt lat="48.64485" lon="2.02835">
        <ele>172</ele>
        <time>2018-08-19T12:39:50Z</time>
      </trkpt>
      <trkpt lat="48.64479" lon="2.02836">
        <ele>172</ele>
        <time>2018-08-19T12:39:54Z</time>
      </trkpt>
      <trkpt lat="48.64472" lon="2.02836">
        <ele>172</ele>
        <time>2018-08-19T12:39:58Z</time>
      </trkpt>
      <trkpt lat="48.64467" lon="2.02836">
        <ele>172</ele>
        <time>2018-08-19T12:40:02Z</time>
      </trkpt>
      <trkpt lat="48.6446" lon="2.02836">
        <ele>172</ele>
        <time>2018-08-19T12:40:06Z</time>
      </trkpt>
      <trkpt lat="48.64454" lon="2.02835">
        <ele>172</ele>
        <time>2018-08-19T12:40:10Z</time>
      </trkpt>
      <trkpt lat="48.64447" lon="2.02835">
        <ele>172</ele>
        <time>2018-08-19T12:40:14Z</time>
      </trkpt>
      <trkpt lat="48.64441" lon="2.02834">
        <ele>171</ele>
        <time>2018-08-19T12:40:18Z</time>
      </trkpt>
      <trkpt lat="48.64434" lon="2.02834">
        <ele>171</ele>
        <time>2018-08-19T12:40:22Z</time>
      </trkpt>
      <trkpt lat="48.64428" lon="2.02833">
        <ele>171</ele>
        <time>2018-08-19T12:40:26Z</time>
      </trkpt>
      <trkpt lat="48.64422" lon="2.02833">
        <ele>170</ele>
        <time>2018-08-19T12:40:30Z</time>
      </trkpt>
      <trkpt lat="48.64415" lon="2.02832">
        <ele>170</ele>
        <time>2018-08-19T12:40:34Z</time>
      </trkpt>
      <trkpt lat="48.6441" lon="2.02831">
        <ele>169</ele>
        <time>2018-08-19T12:40:38Z</time>
      </trkpt>
      <trkpt lat="48.64404" lon="2.02831">
        <ele>169</ele>
        <time>2018-08-19T12:40:42Z</time>
      </trkpt>
      <trkpt lat="48.64397" lon="2.0283">
        <ele>169</ele>
        <time>2018-08-19T12:40:46Z</time>
      </trkpt>
      <trkpt lat="48.64391" lon="2.0283">
        <ele>168</ele>
        <time>2018-08-19T12:40:50Z</time>
      </trkpt>
      <trkpt lat="48.64385" lon="2.02829">
        <ele>168</ele>
        <time>2018-08-19T12:40:54Z</time>
      </trkpt>
      <trkpt lat="48.6438" lon="2.02829">
        <ele>168</ele>
        <time>2018-08-19T12:40:58Z</time>
      </trkpt>
      <trkpt lat="48.64373" lon="2.02829">
        <ele>167</ele>
        <time>2018-08-19T12:41:02Z</time>
      </trkpt>
      <trkpt lat="48.64367" lon="2.02828">
        <ele>167</ele>
        <time>2018-08-19T12:41:06Z</time>
      </trkpt>
      <trkpt lat="48.64361" lon="2.02828">
        <ele>166</ele>
        <time>2018-08-19T12:41:10Z</time>
      </trkpt>
      <trkpt lat="48.64354" lon="2.02828">
        <ele>166</ele>
        <time>2018-08-19T12:41:14Z</time>
      </trkpt>
      <trkpt lat="48.64348" lon="2.02828">
        <ele>166</ele>
        <time>2018-08-19T12:41:18Z</time>
      </trkpt>
      <trkpt lat="48.64342" lon="2.02828">
        <ele>165</ele>
        <time>2018-08-19T12:41:22Z</time>
      </trkpt>
      <trkpt lat="48.64336" lon="2.02828">
        <ele>165</ele>
        <time>2018-08-19T12:41:26Z</time>
      </trkpt>
      <trkpt lat="48.6433" lon="2.02828">
        <ele>164</ele>
        <time>2018-08-19T12:41:30Z</time>
      </trkpt>
      <trkpt lat="48.64324" lon="2.02828">
        <ele>164</ele>
        <time>2018-08-19T12:41:34Z</time>
      </trkpt>
      <trkpt lat="48.64318" lon="2.02828">
        <ele>163</ele>
        <time>2018-08-19T12:41:38Z</time>
      </trkpt>
      <trkpt lat="48.64311" lon="2.02828">
        <ele>163</ele>
        <time>2018-08-19T12:41:42Z</time>
      </trkpt>
      <trkpt lat="48.64305" lon="2.02829">
        <ele>162</ele>
        <time>2018-08-19T12:41:46Z</time>
      </trkpt>
      <trkpt lat="48.64297" lon="2.0283">
        <ele>162</ele>
        <time>2018-08-19T12:41:51Z</time>
      </trkpt>
      <trkpt lat="48.64291" lon="2.0283">
        <ele>162</ele>
        <time>2018-08-19T12:41:55Z</time>
      </trkpt>
      <trkpt lat="48.64285" lon="2.02834">
        <ele>162</ele>
        <time>2018-08-19T12:41:59Z</time>
      </trkpt>
      <trkpt lat="48.64281" lon="2.02842">
        <ele>162</ele>
        <time>2018-08-19T12:42:03Z</time>
      </trkpt>
      <trkpt lat="48.64279" lon="2.02851">
        <ele>162</ele>
        <time>2018-08-19T12:42:07Z</time>
      </trkpt>
      <trkpt lat="48.64277" lon="2.0286">
        <ele>162</ele>
        <time>2018-08-19T12:42:11Z</time>
      </trkpt>
      <trkpt lat="48.64272" lon="2.02866">
        <ele>162</ele>
        <time>2018-08-19T12:42:15Z</time>
      </trkpt>
      <trkpt lat="48.64266" lon="2.02867">
        <ele>162</ele>
        <time>2018-08-19T12:42:19Z</time>
      </trkpt>
      <trkpt lat="48.64262" lon="2.02861">
        <ele>162</ele>
        <time>2018-08-19T12:42:23Z</time>
      </trkpt>
      <trkpt lat="48.64259" lon="2.02853">
        <ele>162</ele>
        <time>2018-08-19T12:42:27Z</time>
      </trkpt>
      <trkpt lat="48.64255" lon="2.02845">
        <ele>162</ele>
        <time>2018-08-19T12:42:31Z</time>
      </trkpt>
      <trkpt lat="48.6425" lon="2.0284">
        <ele>162</ele>
        <time>2018-08-19T12:42:35Z</time>
      </trkpt>
      <trkpt lat="48.64245" lon="2.02845">
        <ele>162</ele>
        <time>2018-08-19T12:42:39Z</time>
      </trkpt>
      <trkpt lat="48.64241" lon="2.02853">
        <ele>162</ele>
        <time>2018-08-19T12:42:43Z</time>
      </trkpt>
      <trkpt lat="48.64238" lon="2.02862">
        <ele>162</ele>
        <time>2018-08-19T12:42:47Z</time>
      </trkpt>
      <trkpt lat="48.64237" lon="2.02872">
        <ele>162</ele>
        <time>2018-08-19T12:42:51Z</time>
      </trkpt>
      <trkpt lat="48.64236" lon="2.02883">
        <ele>162</ele>
        <time>2018-08-19T12:42:55Z</time>
      </trkpt>
      <trkpt lat="48.64235" lon="2.02893">
        <ele>162</ele>
        <time>2018-08-19T12:42:59Z</time>
      </trkpt>
      <trkpt lat="48.64233" lon="2.02903">
        <ele>162</ele>
        <time>2018-08-19T12:43:03Z</time>
      </trkpt>
      <trkpt lat="48.64233" lon="2.02914">
        <ele>162</ele>
        <time>2018-08-19T12:43:07Z</time>
      </trkpt>
      <trkpt lat="48.64232" lon="2.02924">
        <ele>162</ele>
        <time>2018-08-19T12:43:11Z</time>
      </trkpt>
      <trkpt lat="48.64231" lon="2.02933">
        <ele>162</ele>
        <time>2018-08-19T12:43:15Z</time>
      </trkpt>
      <trkpt lat="48.64229" lon="2.02943">
        <ele>162</ele>
        <time>2018-08-19T12:43:19Z</time>
      </trkpt>
      <trkpt lat="48.64228" lon="2.02953">
        <ele>162</ele>
        <time>2018-08-19T12:43:23Z</time>
      </trkpt>
      <trkpt lat="48.64227" lon="2.02962">
        <ele>162</ele>
        <time>2018-08-19T12:43:27Z</time>
      </trkpt>
      <trkpt lat="48.64225" lon="2.02971">
        <ele>162</ele>
        <time>2018-08-19T12:43:31Z</time>
      </trkpt>
      <trkpt lat="48.64224" lon="2.02981">
        <ele>162</ele>
        <time>2018-08-19T12:43:35Z</time>
      </trkpt>
      <trkpt lat="48.64222" lon="2.0299">
        <ele>162</ele>
        <time>2018-08-19T12:43:39Z</time>
      </trkpt>
      <trkpt lat="48.64221" lon="2.03">
        <ele>162</ele>
        <time>2018-08-19T12:43:43Z</time>
      </trkpt>
      <trkpt lat="48.64218" lon="2.03009">
        <ele>162</ele>
        <time>2018-08-19T12:43:47Z</time>
      </trkpt>
      <trkpt lat="48.64216" lon="2.03019">
        <ele>162</ele>
        <time>2018-08-19T12:43:51Z</time>
      </trkpt>
      <trkpt lat="48.64214" lon="2.03029">
        <ele>162</ele>
        <time>2018-08-19T12:43:55Z</time>
      </trkpt>
      <trkpt lat="48.64212" lon="2.03038">
        <ele>162</ele>
        <time>2018-08-19T12:43:59Z</time>
      </trkpt>
      <trkpt lat="48.64209" lon="2.03048">
        <ele>162</ele>
        <time>2018-08-19T12:44:03Z</time>
      </trkpt>
      <trkpt lat="48.64203" lon="2.03064">
        <ele>162</ele>
        <time>2018-08-19T12:44:07Z</time>
      </trkpt>
      <trkpt lat="48.64197" lon="2.03082">
        <ele>162</ele>
        <time>2018-08-19T12:44:11Z</time>
      </trkpt>
      <trkpt lat="48.6419" lon="2.03099">
        <ele>162</ele>
        <time>2018-08-19T12:44:15Z</time>
      </trkpt>
      <trkpt lat="48.6418" lon="2.03118">
        <ele>162</ele>
        <time>2018-08-19T12:44:19Z</time>
      </trkpt>
      <trkpt lat="48.64169" lon="2.03137">
        <ele>162</ele>
        <time>2018-08-19T12:44:23Z</time>
      </trkpt>
      <trkpt lat="48.64157" lon="2.03155">
        <ele>162</ele>
        <time>2018-08-19T12:44:27Z</time>
      </trkpt>
      <trkpt lat="48.64144" lon="2.03173">
        <ele>162</ele>
        <time>2018-08-19T12:44:31Z</time>
      </trkpt>
      <trkpt lat="48.6413" lon="2.0319">
        <ele>162</ele>
        <time>2018-08-19T12:44:35Z</time>
      </trkpt>
      <trkpt lat="48.64116" lon="2.03207">
        <ele>162</ele>
        <time>2018-08-19T12:44:39Z</time>
      </trkpt>
      <trkpt lat="48.64101" lon="2.03223">
        <ele>162</ele>
        <time>2018-08-19T12:44:43Z</time>
      </trkpt>
      <trkpt lat="48.64087" lon="2.03239">
        <ele>162</ele>
        <time>2018-08-19T12:44:47Z</time>
      </trkpt>
      <trkpt lat="48.64073" lon="2.03255">
        <ele>162</ele>
        <time>2018-08-19T12:44:51Z</time>
      </trkpt>
      <trkpt lat="48.64058" lon="2.03271">
        <ele>162</ele>
        <time>2018-08-19T12:44:55Z</time>
      </trkpt>
      <trkpt lat="48.64042" lon="2.03288">
        <ele>162</ele>
        <time>2018-08-19T12:44:59Z</time>
      </trkpt>
      <trkpt lat="48.64026" lon="2.03304">
        <ele>162</ele>
        <time>2018-08-19T12:45:03Z</time>
      </trkpt>
      <trkpt lat="48.64011" lon="2.0332">
        <ele>162</ele>
        <time>2018-08-19T12:45:07Z</time>
      </trkpt>
      <trkpt lat="48.63996" lon="2.03336">
        <ele>162</ele>
        <time>2018-08-19T12:45:11Z</time>
      </trkpt>
      <trkpt lat="48.63981" lon="2.03351">
        <ele>162</ele>
        <time>2018-08-19T12:45:15Z</time>
      </trkpt>
      <trkpt lat="48.63964" lon="2.03366">
        <ele>162</ele>
        <time>2018-08-19T12:45:19Z</time>
      </trkpt>
      <trkpt lat="48.63948" lon="2.03381">
        <ele>162</ele>
        <time>2018-08-19T12:45:23Z</time>
      </trkpt>
      <trkpt lat="48.63933" lon="2.03397">
        <ele>162</ele>
        <time>2018-08-19T12:45:27Z</time>
      </trkpt>
      <trkpt lat="48.63917" lon="2.03411">
        <ele>162</ele>
        <time>2018-08-19T12:45:31Z</time>
      </trkpt>
      <trkpt lat="48.63901" lon="2.03426">
        <ele>162</ele>
        <time>2018-08-19T12:45:35Z</time>
      </trkpt>
      <trkpt lat="48.63886" lon="2.03442">
        <ele>162</ele>
        <time>2018-08-19T12:45:39Z</time>
      </trkpt>
      <trkpt lat="48.63871" lon="2.03456">
        <ele>162</ele>
        <time>2018-08-19T12:45:43Z</time>
      </trkpt>
      <trkpt lat="48.63855" lon="2.03469">
        <ele>162</ele>
        <time>2018-08-19T12:45:47Z</time>
      </trkpt>
      <trkpt lat="48.63838" lon="2.0348">
        <ele>162</ele>
        <time>2018-08-19T12:45:51Z</time>
      </trkpt>
      <trkpt lat="48.6382" lon="2.03491">
        <ele>162</ele>
        <time>2018-08-19T12:45:55Z</time>
      </trkpt>
      <trkpt lat="48.63803" lon="2.03499">
        <ele>162</ele>
        <time>2018-08-19T12:45:59Z</time>
      </trkpt>
      <trkpt lat="48.63784" lon="2.03505">
        <ele>162</ele>
        <time>2018-08-19T12:46:03Z</time>
      </trkpt>
      <trkpt lat="48.63766" lon="2.03509">
        <ele>162</ele>
        <time>2018-08-19T12:46:07Z</time>
      </trkpt>
      <trkpt lat="48.63747" lon="2.03511">
        <ele>162</ele>
        <time>2018-08-19T12:46:11Z</time>
      </trkpt>
      <trkpt lat="48.63729" lon="2.03512">
        <ele>162</ele>
        <time>2018-08-19T12:46:15Z</time>
      </trkpt>
      <trkpt lat="48.63711" lon="2.03511">
        <ele>163</ele>
        <time>2018-08-19T12:46:19Z</time>
      </trkpt>
      <trkpt lat="48.63694" lon="2.0351">
        <ele>163</ele>
        <time>2018-08-19T12:46:23Z</time>
      </trkpt>
      <trkpt lat="48.63677" lon="2.03508">
        <ele>164</ele>
        <time>2018-08-19T12:46:27Z</time>
      </trkpt>
      <trkpt lat="48.6366" lon="2.03506">
        <ele>165</ele>
        <time>2018-08-19T12:46:31Z</time>
      </trkpt>
      <trkpt lat="48.63643" lon="2.03503">
        <ele>165</ele>
        <time>2018-08-19T12:46:35Z</time>
      </trkpt>
      <trkpt lat="48.63626" lon="2.03501">
        <ele>165</ele>
        <time>2018-08-19T12:46:39Z</time>
      </trkpt>
      <trkpt lat="48.63608" lon="2.035">
        <ele>165</ele>
        <time>2018-08-19T12:46:43Z</time>
      </trkpt>
      <trkpt lat="48.63592" lon="2.03503">
        <ele>166</ele>
        <time>2018-08-19T12:46:47Z</time>
      </trkpt>
      <trkpt lat="48.63575" lon="2.03508">
        <ele>166</ele>
        <time>2018-08-19T12:46:51Z</time>
      </trkpt>
      <trkpt lat="48.63559" lon="2.03517">
        <ele>166</ele>
        <time>2018-08-19T12:46:55Z</time>
      </trkpt>
      <trkpt lat="48.63542" lon="2.03526">
        <ele>167</ele>
        <time>2018-08-19T12:46:59Z</time>
      </trkpt>
      <trkpt lat="48.63526" lon="2.03537">
        <ele>167</ele>
        <time>2018-08-19T12:47:03Z</time>
      </trkpt>
      <trkpt lat="48.63509" lon="2.03548">
        <ele>167</ele>
        <time>2018-08-19T12:47:07Z</time>
      </trkpt>
      <trkpt lat="48.63492" lon="2.03559">
        <ele>167</ele>
        <time>2018-08-19T12:47:11Z</time>
      </trkpt>
      <trkpt lat="48.63475" lon="2.03571">
        <ele>167</ele>
        <time>2018-08-19T12:47:15Z</time>
      </trkpt>
      <trkpt lat="48.63459" lon="2.03582">
        <ele>167</ele>
        <time>2018-08-19T12:47:19Z</time>
      </trkpt>
      <trkpt lat="48.63442" lon="2.03594">
        <ele>167</ele>
        <time>2018-08-19T12:47:23Z</time>
      </trkpt>
      <trkpt lat="48.63425" lon="2.03606">
        <ele>167</ele>
        <time>2018-08-19T12:47:27Z</time>
      </trkpt>
      <trkpt lat="48.63407" lon="2.03617">
        <ele>167</ele>
        <time>2018-08-19T12:47:31Z</time>
      </trkpt>
      <trkpt lat="48.63391" lon="2.0363">
        <ele>167</ele>
        <time>2018-08-19T12:47:35Z</time>
      </trkpt>
      <trkpt lat="48.63378" lon="2.0364">
        <ele>167</ele>
        <time>2018-08-19T12:47:39Z</time>
      </trkpt>
      <trkpt lat="48.63366" lon="2.0365">
        <ele>167</ele>
        <time>2018-08-19T12:47:43Z</time>
      </trkpt>
      <trkpt lat="48.63355" lon="2.03659">
        <ele>167</ele>
        <time>2018-08-19T12:47:47Z</time>
      </trkpt>
      <trkpt lat="48.63346" lon="2.03668">
        <ele>167</ele>
        <time>2018-08-19T12:47:51Z</time>
      </trkpt>
      <trkpt lat="48.63336" lon="2.03677">
        <ele>167</ele>
        <time>2018-08-19T12:47:55Z</time>
      </trkpt>
      <trkpt lat="48.63329" lon="2.03683">
        <ele>167</ele>
        <time>2018-08-19T12:47:59Z</time>
      </trkpt>
      <trkpt lat="48.63324" lon="2.03688">
        <ele>167</ele>
        <time>2018-08-19T12:48:03Z</time>
      </trkpt>
      <trkpt lat="48.63319" lon="2.03694">
        <ele>167</ele>
        <time>2018-08-19T12:48:07Z</time>
      </trkpt>
      <trkpt lat="48.63314" lon="2.03698">
        <ele>167</ele>
        <time>2018-08-19T12:48:11Z</time>
      </trkpt>
      <trkpt lat="48.6331" lon="2.03706">
        <ele>167</ele>
        <time>2018-08-19T12:48:15Z</time>
      </trkpt>
      <trkpt lat="48.63305" lon="2.03712">
        <ele>167</ele>
        <time>2018-08-19T12:48:19Z</time>
      </trkpt>
      <trkpt lat="48.63301" lon="2.03719">
        <ele>167</ele>
        <time>2018-08-19T12:48:23Z</time>
      </trkpt>
      <trkpt lat="48.63296" lon="2.03725">
        <ele>167</ele>
        <time>2018-08-19T12:48:27Z</time>
      </trkpt>
      <trkpt lat="48.63292" lon="2.03732">
        <ele>167</ele>
        <time>2018-08-19T12:48:31Z</time>
      </trkpt>
      <trkpt lat="48.63287" lon="2.03738">
        <ele>167</ele>
        <time>2018-08-19T12:48:35Z</time>
      </trkpt>
      <trkpt lat="48.63282" lon="2.03746">
        <ele>167</ele>
        <time>2018-08-19T12:48:40Z</time>
      </trkpt>
      <trkpt lat="48.63277" lon="2.03753">
        <ele>167</ele>
        <time>2018-08-19T12:48:44Z</time>
      </trkpt>
      <trkpt lat="48.63273" lon="2.0376">
        <ele>167</ele>
        <time>2018-08-19T12:48:48Z</time>
      </trkpt>
      <trkpt lat="48.63269" lon="2.03767">
        <ele>167</ele>
        <time>2018-08-19T12:48:52Z</time>
      </trkpt>
      <trkpt lat="48.63264" lon="2.03773">
        <ele>167</ele>
        <time>2018-08-19T12:48:56Z</time>
      </trkpt>
      <trkpt lat="48.63262" lon="2.03782">
        <ele>167</ele>
        <time>2018-08-19T12:49:00Z</time>
      </trkpt>
      <trkpt lat="48.63261" lon="2.03791">
        <ele>167</ele>
        <time>2018-08-19T12:49:04Z</time>
      </trkpt>
      <trkpt lat="48.63261" lon="2.038">
        <ele>167</ele>
        <time>2018-08-19T12:49:08Z</time>
      </trkpt>
      <trkpt lat="48.63261" lon="2.03809">
        <ele>167</ele>
        <time>2018-08-19T12:49:12Z</time>
      </trkpt>
      <trkpt lat="48.63261" lon="2.03818">
        <ele>167</ele>
        <time>2018-08-19T12:49:16Z</time>
      </trkpt>
      <trkpt lat="48.6326" lon="2.03827">
        <ele>167</ele>
        <time>2018-08-19T12:49:20Z</time>
      </trkpt>
      <trkpt lat="48.6326" lon="2.03837">
        <ele>167</ele>
        <time>2018-08-19T12:49:24Z</time>
      </trkpt>
      <trkpt lat="48.63258" lon="2.03847">
        <ele>167</ele>
        <time>2018-08-19T12:49:28Z</time>
      </trkpt>
      <trkpt lat="48.63255" lon="2.03856">
        <ele>167</ele>
        <time>2018-08-19T12:49:32Z</time>
      </trkpt>
      <trkpt lat="48.63251" lon="2.03863">
        <ele>167</ele>
        <time>2018-08-19T12:49:36Z</time>
      </trkpt>
      <trkpt lat="48.63246" lon="2.0387">
        <ele>167</ele>
        <time>2018-08-19T12:49:40Z</time>
      </trkpt>
      <trkpt lat="48.63242" lon="2.03876">
        <ele>167</ele>
        <time>2018-08-19T12:49:44Z</time>
      </trkpt>
      <trkpt lat="48.63239" lon="2.0388">
        <ele>167</ele>
        <time>2018-08-19T12:49:48Z</time>
      </trkpt>
      <trkpt lat="48.63234" lon="2.03887">
        <ele>167</ele>
        <time>2018-08-19T12:49:53Z</time>
      </trkpt>
      <trkpt lat="48.63229" lon="2.03892">
        <ele>167</ele>
        <time>2018-08-19T12:49:57Z</time>
      </trkpt>
      <trkpt lat="48.63224" lon="2.03897">
        <ele>167</ele>
        <time>2018-08-19T12:50:01Z</time>
      </trkpt>
      <trkpt lat="48.6322" lon="2.03902">
        <ele>167</ele>
        <time>2018-08-19T12:50:05Z</time>
      </trkpt>
      <trkpt lat="48.63216" lon="2.03908">
        <ele>167</ele>
        <time>2018-08-19T12:50:09Z</time>
      </trkpt>
      <trkpt lat="48.63212" lon="2.03915">
        <ele>167</ele>
        <time>2018-08-19T12:50:13Z</time>
      </trkpt>
      <trkpt lat="48.63208" lon="2.03921">
        <ele>167</ele>
        <time>2018-08-19T12:50:17Z</time>
      </trkpt>
      <trkpt lat="48.63206" lon="2.03928">
        <ele>167</ele>
        <time>2018-08-19T12:50:21Z</time>
      </trkpt>
      <trkpt lat="48.63204" lon="2.03936">
        <ele>167</ele>
        <time>2018-08-19T12:50:25Z</time>
      </trkpt>
      <trkpt lat="48.63202" lon="2.03943">
        <ele>167</ele>
        <time>2018-08-19T12:50:29Z</time>
      </trkpt>
      <trkpt lat="48.632" lon="2.0395">
        <ele>166</ele>
        <time>2018-08-19T12:50:33Z</time>
      </trkpt>
      <trkpt lat="48.63198" lon="2.03957">
        <ele>165</ele>
        <time>2018-08-19T12:50:37Z</time>
      </trkpt>
      <trkpt lat="48.63196" lon="2.03965">
        <ele>164</ele>
        <time>2018-08-19T12:50:41Z</time>
      </trkpt>
      <trkpt lat="48.63194" lon="2.03973">
        <ele>163</ele>
        <time>2018-08-19T12:50:45Z</time>
      </trkpt>
      <trkpt lat="48.63192" lon="2.03981">
        <ele>162</ele>
        <time>2018-08-19T12:50:49Z</time>
      </trkpt>
      <trkpt lat="48.6319" lon="2.0399">
        <ele>161</ele>
        <time>2018-08-19T12:50:53Z</time>
      </trkpt>
      <trkpt lat="48.63188" lon="2.03998">
        <ele>160</ele>
        <time>2018-08-19T12:50:57Z</time>
      </trkpt>
      <trkpt lat="48.63187" lon="2.04007">
        <ele>160</ele>
        <time>2018-08-19T12:51:01Z</time>
      </trkpt>
      <trkpt lat="48.63186" lon="2.04016">
        <ele>160</ele>
        <time>2018-08-19T12:51:05Z</time>
      </trkpt>
      <trkpt lat="48.63184" lon="2.04025">
        <ele>160</ele>
        <time>2018-08-19T12:51:09Z</time>
      </trkpt>
      <trkpt lat="48.63184" lon="2.04034">
        <ele>160</ele>
        <time>2018-08-19T12:51:13Z</time>
      </trkpt>
      <trkpt lat="48.63183" lon="2.04042">
        <ele>159</ele>
        <time>2018-08-19T12:51:17Z</time>
      </trkpt>
      <trkpt lat="48.63182" lon="2.04051">
        <ele>158</ele>
        <time>2018-08-19T12:51:21Z</time>
      </trkpt>
      <trkpt lat="48.63182" lon="2.0406">
        <ele>157</ele>
        <time>2018-08-19T12:51:25Z</time>
      </trkpt>
      <trkpt lat="48.63182" lon="2.04069">
        <ele>156</ele>
        <time>2018-08-19T12:51:29Z</time>
      </trkpt>
      <trkpt lat="48.63182" lon="2.04078">
        <ele>156</ele>
        <time>2018-08-19T12:51:33Z</time>
      </trkpt>
      <trkpt lat="48.63182" lon="2.04087">
        <ele>156</ele>
        <time>2018-08-19T12:51:37Z</time>
      </trkpt>
      <trkpt lat="48.63183" lon="2.04098">
        <ele>155</ele>
        <time>2018-08-19T12:51:41Z</time>
      </trkpt>
      <trkpt lat="48.63183" lon="2.04108">
        <ele>155</ele>
        <time>2018-08-19T12:51:45Z</time>
      </trkpt>
      <trkpt lat="48.63182" lon="2.04119">
        <ele>154</ele>
        <time>2018-08-19T12:51:49Z</time>
      </trkpt>
      <trkpt lat="48.6318" lon="2.0413">
        <ele>153</ele>
        <time>2018-08-19T12:51:53Z</time>
      </trkpt>
      <trkpt lat="48.63178" lon="2.0414">
        <ele>152</ele>
        <time>2018-08-19T12:51:57Z</time>
      </trkpt>
      <trkpt lat="48.63174" lon="2.04149">
        <ele>152</ele>
        <time>2018-08-19T12:52:01Z</time>
      </trkpt>
      <trkpt lat="48.6317" lon="2.04157">
        <ele>152</ele>
        <time>2018-08-19T12:52:05Z</time>
      </trkpt>
      <trkpt lat="48.63164" lon="2.04163">
        <ele>152</ele>
        <time>2018-08-19T12:52:09Z</time>
      </trkpt>
      <trkpt lat="48.63158" lon="2.04168">
        <ele>151</ele>
        <time>2018-08-19T12:52:13Z</time>
      </trkpt>
      <trkpt lat="48.63151" lon="2.04172">
        <ele>151</ele>
        <time>2018-08-19T12:52:17Z</time>
      </trkpt>
      <trkpt lat="48.63144" lon="2.04174">
        <ele>150</ele>
        <time>2018-08-19T12:52:21Z</time>
      </trkpt>
      <trkpt lat="48.63138" lon="2.04176">
        <ele>150</ele>
        <time>2018-08-19T12:52:25Z</time>
      </trkpt>
      <trkpt lat="48.63132" lon="2.0418">
        <ele>150</ele>
        <time>2018-08-19T12:52:29Z</time>
      </trkpt>
      <trkpt lat="48.6313" lon="2.04179">
        <ele>150</ele>
        <time>2018-08-19T12:52:34Z</time>
      </trkpt>
      <trkpt lat="48.63123" lon="2.04174">
        <ele>150</ele>
        <time>2018-08-19T12:52:38Z</time>
      </trkpt>
      <trkpt lat="48.63117" lon="2.04174">
        <ele>150</ele>
        <time>2018-08-19T12:52:42Z</time>
      </trkpt>
      <trkpt lat="48.6311" lon="2.04176">
        <ele>150</ele>
        <time>2018-08-19T12:52:46Z</time>
      </trkpt>
      <trkpt lat="48.63103" lon="2.04179">
        <ele>150</ele>
        <time>2018-08-19T12:52:50Z</time>
      </trkpt>
      <trkpt lat="48.63097" lon="2.04184">
        <ele>150</ele>
        <time>2018-08-19T12:52:54Z</time>
      </trkpt>
      <trkpt lat="48.63091" lon="2.04191">
        <ele>150</ele>
        <time>2018-08-19T12:52:58Z</time>
      </trkpt>
      <trkpt lat="48.63087" lon="2.04198">
        <ele>150</ele>
        <time>2018-08-19T12:53:02Z</time>
      </trkpt>
      <trkpt lat="48.63082" lon="2.04205">
        <ele>150</ele>
        <time>2018-08-19T12:53:06Z</time>
      </trkpt>
      <trkpt lat="48.63079" lon="2.04212">
        <ele>150</ele>
        <time>2018-08-19T12:53:10Z</time>
      </trkpt>
      <trkpt lat="48.63075" lon="2.0422">
        <ele>150</ele>
        <time>2018-08-19T12:53:14Z</time>
      </trkpt>
      <trkpt lat="48.63071" lon="2.04228">
        <ele>150</ele>
        <time>2018-08-19T12:53:18Z</time>
      </trkpt>
      <trkpt lat="48.63068" lon="2.04235">
        <ele>150</ele>
        <time>2018-08-19T12:53:22Z</time>
      </trkpt>
      <trkpt lat="48.63064" lon="2.04243">
        <ele>150</ele>
        <time>2018-08-19T12:53:26Z</time>
      </trkpt>
      <trkpt lat="48.6306" lon="2.0425">
        <ele>150</ele>
        <time>2018-08-19T12:53:30Z</time>
      </trkpt>
      <trkpt lat="48.63057" lon="2.04257">
        <ele>150</ele>
        <time>2018-08-19T12:53:34Z</time>
      </trkpt>
      <trkpt lat="48.63054" lon="2.04265">
        <ele>150</ele>
        <time>2018-08-19T12:53:38Z</time>
      </trkpt>
      <trkpt lat="48.6305" lon="2.04272">
        <ele>150</ele>
        <time>2018-08-19T12:53:42Z</time>
      </trkpt>
      <trkpt lat="48.63047" lon="2.04279">
        <ele>150</ele>
        <time>2018-08-19T12:53:46Z</time>
      </trkpt>
      <trkpt lat="48.63044" lon="2.04286">
        <ele>150</ele>
        <time>2018-08-19T12:53:50Z</time>
      </trkpt>
      <trkpt lat="48.6304" lon="2.04294">
        <ele>150</ele>
        <time>2018-08-19T12:53:54Z</time>
      </trkpt>
      <trkpt lat="48.63037" lon="2.04302">
        <ele>149</ele>
        <time>2018-08-19T12:53:58Z</time>
      </trkpt>
      <trkpt lat="48.63034" lon="2.0431">
        <ele>148</ele>
        <time>2018-08-19T12:54:02Z</time>
      </trkpt>
      <trkpt lat="48.6303" lon="2.04317">
        <ele>147</ele>
        <time>2018-08-19T12:54:06Z</time>
      </trkpt>
      <trkpt lat="48.63028" lon="2.04325">
        <ele>147</ele>
        <time>2018-08-19T12:54:10Z</time>
      </trkpt>
      <trkpt lat="48.63025" lon="2.04333">
        <ele>146</ele>
        <time>2018-08-19T12:54:14Z</time>
      </trkpt>
      <trkpt lat="48.63022" lon="2.04341">
        <ele>146</ele>
        <time>2018-08-19T12:54:18Z</time>
      </trkpt>
      <trkpt lat="48.63019" lon="2.04348">
        <ele>145</ele>
        <time>2018-08-19T12:54:22Z</time>
      </trkpt>
      <trkpt lat="48.63016" lon="2.04356">
        <ele>144</ele>
        <time>2018-08-19T12:54:26Z</time>
      </trkpt>
      <trkpt lat="48.63013" lon="2.04364">
        <ele>144</ele>
        <time>2018-08-19T12:54:30Z</time>
      </trkpt>
      <trkpt lat="48.63009" lon="2.04372">
        <ele>144</ele>
        <time>2018-08-19T12:54:34Z</time>
      </trkpt>
      <trkpt lat="48.63005" lon="2.0438">
        <ele>144</ele>
        <time>2018-08-19T12:54:38Z</time>
      </trkpt>
      <trkpt lat="48.63002" lon="2.04388">
        <ele>144</ele>
        <time>2018-08-19T12:54:42Z</time>
      </trkpt>
      <trkpt lat="48.62998" lon="2.04396">
        <ele>143</ele>
        <time>2018-08-19T12:54:46Z</time>
      </trkpt>
      <trkpt lat="48.62995" lon="2.04404">
        <ele>142</ele>
        <time>2018-08-19T12:54:50Z</time>
      </trkpt>
      <trkpt lat="48.62992" lon="2.04412">
        <ele>142</ele>
        <time>2018-08-19T12:54:54Z</time>
      </trkpt>
      <trkpt lat="48.62989" lon="2.0442">
        <ele>141</ele>
        <time>2018-08-19T12:54:58Z</time>
      </trkpt>
      <trkpt lat="48.62986" lon="2.04427">
        <ele>141</ele>
        <time>2018-08-19T12:55:02Z</time>
      </trkpt>
      <trkpt lat="48.62983" lon="2.04435">
        <ele>140</ele>
        <time>2018-08-19T12:55:06Z</time>
      </trkpt>
      <trkpt lat="48.62979" lon="2.04443">
        <ele>140</ele>
        <time>2018-08-19T12:55:10Z</time>
      </trkpt>
      <trkpt lat="48.62975" lon="2.04452">
        <ele>140</ele>
        <time>2018-08-19T12:55:14Z</time>
      </trkpt>
      <trkpt lat="48.62973" lon="2.0446">
        <ele>139</ele>
        <time>2018-08-19T12:55:18Z</time>
      </trkpt>
      <trkpt lat="48.6297" lon="2.04468">
        <ele>139</ele>
        <time>2018-08-19T12:55:22Z</time>
      </trkpt>
      <trkpt lat="48.62967" lon="2.04476">
        <ele>138</ele>
        <time>2018-08-19T12:55:26Z</time>
      </trkpt>
      <trkpt lat="48.62964" lon="2.04484">
        <ele>137</ele>
        <time>2018-08-19T12:55:30Z</time>
      </trkpt>
      <trkpt lat="48.6296" lon="2.04492">
        <ele>136</ele>
        <time>2018-08-19T12:55:34Z</time>
      </trkpt>
      <trkpt lat="48.62956" lon="2.045">
        <ele>135</ele>
        <time>2018-08-19T12:55:38Z</time>
      </trkpt>
      <trkpt lat="48.62952" lon="2.04508">
        <ele>134</ele>
        <time>2018-08-19T12:55:42Z</time>
      </trkpt>
      <trkpt lat="48.62949" lon="2.04517">
        <ele>134</ele>
        <time>2018-08-19T12:55:46Z</time>
      </trkpt>
      <trkpt lat="48.62946" lon="2.04527">
        <ele>133</ele>
        <time>2018-08-19T12:55:50Z</time>
      </trkpt>
      <trkpt lat="48.62944" lon="2.04535">
        <ele>132</ele>
        <time>2018-08-19T12:55:54Z</time>
      </trkpt>
      <trkpt lat="48.62941" lon="2.04543">
        <ele>131</ele>
        <time>2018-08-19T12:55:58Z</time>
      </trkpt>
      <trkpt lat="48.62938" lon="2.04551">
        <ele>130</ele>
        <time>2018-08-19T12:56:02Z</time>
      </trkpt>
      <trkpt lat="48.62935" lon="2.04559">
        <ele>129</ele>
        <time>2018-08-19T12:56:06Z</time>
      </trkpt>
      <trkpt lat="48.62932" lon="2.04567">
        <ele>129</ele>
        <time>2018-08-19T12:56:10Z</time>
      </trkpt>
      <trkpt lat="48.62928" lon="2.04575">
        <ele>128</ele>
        <time>2018-08-19T12:56:14Z</time>
      </trkpt>
      <trkpt lat="48.62926" lon="2.04583">
        <ele>127</ele>
        <time>2018-08-19T12:56:18Z</time>
      </trkpt>
      <trkpt lat="48.62922" lon="2.04592">
        <ele>127</ele>
        <time>2018-08-19T12:56:22Z</time>
      </trkpt>
      <trkpt lat="48.6292" lon="2.046">
        <ele>126</ele>
        <time>2018-08-19T12:56:26Z</time>
      </trkpt>
      <trkpt lat="48.62917" lon="2.04608">
        <ele>126</ele>
        <time>2018-08-19T12:56:30Z</time>
      </trkpt>
      <trkpt lat="48.62914" lon="2.04616">
        <ele>126</ele>
        <time>2018-08-19T12:56:34Z</time>
      </trkpt>
      <trkpt lat="48.62912" lon="2.04624">
        <ele>126</ele>
        <time>2018-08-19T12:56:39Z</time>
      </trkpt>
      <trkpt lat="48.62912" lon="2.04626">
        <ele>126</ele>
        <time>2018-08-19T12:56:56Z</time>
      </trkpt>
      <trkpt lat="48.62912" lon="2.04628">
        <ele>126</ele>
        <time>2018-08-19T12:57:00Z</time>
      </trkpt>
      <trkpt lat="48.62911" lon="2.0463">
        <ele>126</ele>
        <time>2018-08-19T12:57:05Z</time>
      </trkpt>
      <trkpt lat="48.62912" lon="2.0463">
        <ele>126</ele>
        <time>2018-08-19T12:57:15Z</time>
      </trkpt>
      <trkpt lat="48.62912" lon="2.04632">
        <ele>126</ele>
        <time>2018-08-19T12:57:26Z</time>
      </trkpt>
      <trkpt lat="48.6291" lon="2.04637">
        <ele>126</ele>
        <time>2018-08-19T12:57:30Z</time>
      </trkpt>
      <trkpt lat="48.62909" lon="2.04645">
        <ele>126</ele>
        <time>2018-08-19T12:57:34Z</time>
      </trkpt>
      <trkpt lat="48.62913" lon="2.04653">
        <ele>126</ele>
        <time>2018-08-19T12:57:39Z</time>
      </trkpt>
      <trkpt lat="48.62917" lon="2.04659">
        <ele>126</ele>
        <time>2018-08-19T12:57:43Z</time>
      </trkpt>
      <trkpt lat="48.62923" lon="2.04665">
        <ele>126</ele>
        <time>2018-08-19T12:57:48Z</time>
      </trkpt>
      <trkpt lat="48.62927" lon="2.0467">
        <ele>126</ele>
        <time>2018-08-19T12:57:52Z</time>
      </trkpt>
      <trkpt lat="48.62931" lon="2.04675">
        <ele>126</ele>
        <time>2018-08-19T12:57:56Z</time>
      </trkpt>
      <trkpt lat="48.62936" lon="2.04681">
        <ele>126</ele>
        <time>2018-08-19T12:58:00Z</time>
      </trkpt>
      <trkpt lat="48.6294" lon="2.04687">
        <ele>126</ele>
        <time>2018-08-19T12:58:04Z</time>
      </trkpt>
      <trkpt lat="48.62945" lon="2.04692">
        <ele>126</ele>
        <time>2018-08-19T12:58:08Z</time>
      </trkpt>
      <trkpt lat="48.62949" lon="2.04698">
        <ele>126</ele>
        <time>2018-08-19T12:58:12Z</time>
      </trkpt>
      <trkpt lat="48.62954" lon="2.04704">
        <ele>126</ele>
        <time>2018-08-19T12:58:16Z</time>
      </trkpt>
      <trkpt lat="48.62957" lon="2.04712">
        <ele>126</ele>
        <time>2018-08-19T12:58:20Z</time>
      </trkpt>
      <trkpt lat="48.62958" lon="2.04722">
        <ele>126</ele>
        <time>2018-08-19T12:58:24Z</time>
      </trkpt>
      <trkpt lat="48.62958" lon="2.04732">
        <ele>126</ele>
        <time>2018-08-19T12:58:28Z</time>
      </trkpt>
      <trkpt lat="48.62958" lon="2.04741">
        <ele>126</ele>
        <time>2018-08-19T12:58:32Z</time>
      </trkpt>
      <trkpt lat="48.62959" lon="2.0475">
        <ele>126</ele>
        <time>2018-08-19T12:58:36Z</time>
      </trkpt>
      <trkpt lat="48.62959" lon="2.04759">
        <ele>126</ele>
        <time>2018-08-19T12:58:40Z</time>
      </trkpt>
      <trkpt lat="48.6296" lon="2.04767">
        <ele>125</ele>
        <time>2018-08-19T12:58:44Z</time>
      </trkpt>
      <trkpt lat="48.6296" lon="2.04776">
        <ele>125</ele>
        <time>2018-08-19T12:58:48Z</time>
      </trkpt>
      <trkpt lat="48.62961" lon="2.04785">
        <ele>124</ele>
        <time>2018-08-19T12:58:52Z</time>
      </trkpt>
      <trkpt lat="48.62962" lon="2.04794">
        <ele>124</ele>
        <time>2018-08-19T12:58:56Z</time>
      </trkpt>
      <trkpt lat="48.62963" lon="2.04804">
        <ele>124</ele>
        <time>2018-08-19T12:59:00Z</time>
      </trkpt>
      <trkpt lat="48.62962" lon="2.04813">
        <ele>124</ele>
        <time>2018-08-19T12:59:04Z</time>
      </trkpt>
      <trkpt lat="48.6296" lon="2.04822">
        <ele>124</ele>
        <time>2018-08-19T12:59:08Z</time>
      </trkpt>
      <trkpt lat="48.62957" lon="2.04831">
        <ele>124</ele>
        <time>2018-08-19T12:59:12Z</time>
      </trkpt>
      <trkpt lat="48.62953" lon="2.04838">
        <ele>124</ele>
        <time>2018-08-19T12:59:16Z</time>
      </trkpt>
      <trkpt lat="48.62948" lon="2.04841">
        <ele>124</ele>
        <time>2018-08-19T12:59:20Z</time>
      </trkpt>
      <trkpt lat="48.62941" lon="2.04844">
        <ele>124</ele>
        <time>2018-08-19T12:59:24Z</time>
      </trkpt>
      <trkpt lat="48.62935" lon="2.04845">
        <ele>124</ele>
        <time>2018-08-19T12:59:28Z</time>
      </trkpt>
      <trkpt lat="48.62929" lon="2.04847">
        <ele>124</ele>
        <time>2018-08-19T12:59:32Z</time>
      </trkpt>
      <trkpt lat="48.62923" lon="2.04848">
        <ele>124</ele>
        <time>2018-08-19T12:59:36Z</time>
      </trkpt>
      <trkpt lat="48.62917" lon="2.0485">
        <ele>124</ele>
        <time>2018-08-19T12:59:40Z</time>
      </trkpt>
      <trkpt lat="48.62912" lon="2.04851">
        <ele>124</ele>
        <time>2018-08-19T12:59:44Z</time>
      </trkpt>
      <trkpt lat="48.62906" lon="2.04852">
        <ele>124</ele>
        <time>2018-08-19T12:59:48Z</time>
      </trkpt>
      <trkpt lat="48.62899" lon="2.04854">
        <ele>124</ele>
        <time>2018-08-19T12:59:52Z</time>
      </trkpt>
      <trkpt lat="48.62893" lon="2.04855">
        <ele>124</ele>
        <time>2018-08-19T12:59:56Z</time>
      </trkpt>
      <trkpt lat="48.62887" lon="2.04857">
        <ele>124</ele>
        <time>2018-08-19T13:00:00Z</time>
      </trkpt>
      <trkpt lat="48.6288" lon="2.0486">
        <ele>124</ele>
        <time>2018-08-19T13:00:04Z</time>
      </trkpt>
      <trkpt lat="48.62875" lon="2.04863">
        <ele>124</ele>
        <time>2018-08-19T13:00:08Z</time>
      </trkpt>
      <trkpt lat="48.62869" lon="2.04868">
        <ele>124</ele>
        <time>2018-08-19T13:00:12Z</time>
      </trkpt>
      <trkpt lat="48.62864" lon="2.04871">
        <ele>124</ele>
        <time>2018-08-19T13:00:16Z</time>
      </trkpt>
      <trkpt lat="48.62859" lon="2.04876">
        <ele>124</ele>
        <time>2018-08-19T13:00:20Z</time>
      </trkpt>
      <trkpt lat="48.62856" lon="2.04882">
        <ele>124</ele>
        <time>2018-08-19T13:00:24Z</time>
      </trkpt>
      <trkpt lat="48.62854" lon="2.04884">
        <ele>124</ele>
        <time>2018-08-19T13:00:34Z</time>
      </trkpt>
      <trkpt lat="48.62853" lon="2.04886">
        <ele>124</ele>
        <time>2018-08-19T13:00:47Z</time>
      </trkpt>
      <trkpt lat="48.62849" lon="2.04892">
        <ele>124</ele>
        <time>2018-08-19T13:00:51Z</time>
      </trkpt>
      <trkpt lat="48.62844" lon="2.04899">
        <ele>124</ele>
        <time>2018-08-19T13:00:55Z</time>
      </trkpt>
      <trkpt lat="48.6284" lon="2.04907">
        <ele>124</ele>
        <time>2018-08-19T13:00:59Z</time>
      </trkpt>
      <trkpt lat="48.62835" lon="2.04917">
        <ele>124</ele>
        <time>2018-08-19T13:01:03Z</time>
      </trkpt>
      <trkpt lat="48.62832" lon="2.04926">
        <ele>124</ele>
        <time>2018-08-19T13:01:07Z</time>
      </trkpt>
      <trkpt lat="48.62829" lon="2.04936">
        <ele>124</ele>
        <time>2018-08-19T13:01:11Z</time>
      </trkpt>
      <trkpt lat="48.62825" lon="2.04945">
        <ele>124</ele>
        <time>2018-08-19T13:01:15Z</time>
      </trkpt>
      <trkpt lat="48.62822" lon="2.04954">
        <ele>124</ele>
        <time>2018-08-19T13:01:19Z</time>
      </trkpt>
      <trkpt lat="48.62819" lon="2.04964">
        <ele>124</ele>
        <time>2018-08-19T13:01:23Z</time>
      </trkpt>
      <trkpt lat="48.62817" lon="2.04974">
        <ele>124</ele>
        <time>2018-08-19T13:01:27Z</time>
      </trkpt>
      <trkpt lat="48.62814" lon="2.04983">
        <ele>125</ele>
        <time>2018-08-19T13:01:31Z</time>
      </trkpt>
      <trkpt lat="48.62813" lon="2.04994">
        <ele>125</ele>
        <time>2018-08-19T13:01:35Z</time>
      </trkpt>
      <trkpt lat="48.62812" lon="2.05004">
        <ele>125</ele>
        <time>2018-08-19T13:01:39Z</time>
      </trkpt>
      <trkpt lat="48.6281" lon="2.05015">
        <ele>125</ele>
        <time>2018-08-19T13:01:43Z</time>
      </trkpt>
      <trkpt lat="48.62808" lon="2.05025">
        <ele>125</ele>
        <time>2018-08-19T13:01:47Z</time>
      </trkpt>
      <trkpt lat="48.62806" lon="2.05036">
        <ele>126</ele>
        <time>2018-08-19T13:01:51Z</time>
      </trkpt>
      <trkpt lat="48.62804" lon="2.05046">
        <ele>127</ele>
        <time>2018-08-19T13:01:55Z</time>
      </trkpt>
      <trkpt lat="48.62802" lon="2.05056">
        <ele>127</ele>
        <time>2018-08-19T13:01:59Z</time>
      </trkpt>
      <trkpt lat="48.62799" lon="2.05064">
        <ele>127</ele>
        <time>2018-08-19T13:02:03Z</time>
      </trkpt>
      <trkpt lat="48.62795" lon="2.05072">
        <ele>127</ele>
        <time>2018-08-19T13:02:07Z</time>
      </trkpt>
      <trkpt lat="48.62792" lon="2.05081">
        <ele>128</ele>
        <time>2018-08-19T13:02:11Z</time>
      </trkpt>
      <trkpt lat="48.62789" lon="2.05089">
        <ele>128</ele>
        <time>2018-08-19T13:02:15Z</time>
      </trkpt>
      <trkpt lat="48.62785" lon="2.05097">
        <ele>129</ele>
        <time>2018-08-19T13:02:19Z</time>
      </trkpt>
      <trkpt lat="48.6278" lon="2.05103">
        <ele>129</ele>
        <time>2018-08-19T13:02:23Z</time>
      </trkpt>
      <trkpt lat="48.62774" lon="2.05108">
        <ele>129</ele>
        <time>2018-08-19T13:02:27Z</time>
      </trkpt>
      <trkpt lat="48.62769" lon="2.05112">
        <ele>129</ele>
        <time>2018-08-19T13:02:31Z</time>
      </trkpt>
      <trkpt lat="48.62764" lon="2.05116">
        <ele>130</ele>
        <time>2018-08-19T13:02:35Z</time>
      </trkpt>
      <trkpt lat="48.62757" lon="2.05117">
        <ele>130</ele>
        <time>2018-08-19T13:02:39Z</time>
      </trkpt>
      <trkpt lat="48.62751" lon="2.05116">
        <ele>130</ele>
        <time>2018-08-19T13:02:43Z</time>
      </trkpt>
      <trkpt lat="48.62746" lon="2.05115">
        <ele>130</ele>
        <time>2018-08-19T13:02:47Z</time>
      </trkpt>
      <trkpt lat="48.6274" lon="2.05114">
        <ele>130</ele>
        <time>2018-08-19T13:02:51Z</time>
      </trkpt>
      <trkpt lat="48.62734" lon="2.05114">
        <ele>130</ele>
        <time>2018-08-19T13:02:55Z</time>
      </trkpt>
      <trkpt lat="48.62729" lon="2.05113">
        <ele>130</ele>
        <time>2018-08-19T13:02:59Z</time>
      </trkpt>
      <trkpt lat="48.62723" lon="2.05112">
        <ele>130</ele>
        <time>2018-08-19T13:03:03Z</time>
      </trkpt>
      <trkpt lat="48.62717" lon="2.0511">
        <ele>130</ele>
        <time>2018-08-19T13:03:07Z</time>
      </trkpt>
      <trkpt lat="48.62712" lon="2.05107">
        <ele>130</ele>
        <time>2018-08-19T13:03:11Z</time>
      </trkpt>
      <trkpt lat="48.62706" lon="2.05104">
        <ele>130</ele>
        <time>2018-08-19T13:03:15Z</time>
      </trkpt>
      <trkpt lat="48.62701" lon="2.051">
        <ele>130</ele>
        <time>2018-08-19T13:03:19Z</time>
      </trkpt>
      <trkpt lat="48.62695" lon="2.05097">
        <ele>130</ele>
        <time>2018-08-19T13:03:23Z</time>
      </trkpt>
      <trkpt lat="48.62688" lon="2.05095">
        <ele>130</ele>
        <time>2018-08-19T13:03:27Z</time>
      </trkpt>
      <trkpt lat="48.62682" lon="2.05093">
        <ele>130</ele>
        <time>2018-08-19T13:03:31Z</time>
      </trkpt>
      <trkpt lat="48.62676" lon="2.0509">
        <ele>130</ele>
        <time>2018-08-19T13:03:35Z</time>
      </trkpt>
      <trkpt lat="48.6267" lon="2.05089">
        <ele>130</ele>
        <time>2018-08-19T13:03:39Z</time>
      </trkpt>
      <trkpt lat="48.62664" lon="2.05086">
        <ele>130</ele>
        <time>2018-08-19T13:03:43Z</time>
      </trkpt>
      <trkpt lat="48.62657" lon="2.05083">
        <ele>130</ele>
        <time>2018-08-19T13:03:47Z</time>
      </trkpt>
      <trkpt lat="48.62651" lon="2.05082">
        <ele>130</ele>
        <time>2018-08-19T13:03:51Z</time>
      </trkpt>
      <trkpt lat="48.62646" lon="2.0508">
        <ele>130</ele>
        <time>2018-08-19T13:03:55Z</time>
      </trkpt>
      <trkpt lat="48.6264" lon="2.05079">
        <ele>129</ele>
        <time>2018-08-19T13:03:59Z</time>
      </trkpt>
      <trkpt lat="48.62634" lon="2.05079">
        <ele>129</ele>
        <time>2018-08-19T13:04:03Z</time>
      </trkpt>
      <trkpt lat="48.62627" lon="2.05078">
        <ele>129</ele>
        <time>2018-08-19T13:04:07Z</time>
      </trkpt>
      <trkpt lat="48.62621" lon="2.05077">
        <ele>129</ele>
        <time>2018-08-19T13:04:11Z</time>
      </trkpt>
      <trkpt lat="48.62615" lon="2.05076">
        <ele>129</ele>
        <time>2018-08-19T13:04:15Z</time>
      </trkpt>
      <trkpt lat="48.62609" lon="2.05077">
        <ele>129</ele>
        <time>2018-08-19T13:04:19Z</time>
      </trkpt>
      <trkpt lat="48.62603" lon="2.05076">
        <ele>129</ele>
        <time>2018-08-19T13:04:23Z</time>
      </trkpt>
      <trkpt lat="48.62596" lon="2.05076">
        <ele>129</ele>
        <time>2018-08-19T13:04:27Z</time>
      </trkpt>
      <trkpt lat="48.6259" lon="2.05075">
        <ele>129</ele>
        <time>2018-08-19T13:04:31Z</time>
      </trkpt>
      <trkpt lat="48.62583" lon="2.05074">
        <ele>129</ele>
        <time>2018-08-19T13:04:35Z</time>
      </trkpt>
      <trkpt lat="48.62577" lon="2.05072">
        <ele>129</ele>
        <time>2018-08-19T13:04:39Z</time>
      </trkpt>
      <trkpt lat="48.62571" lon="2.05069">
        <ele>129</ele>
        <time>2018-08-19T13:04:43Z</time>
      </trkpt>
      <trkpt lat="48.62565" lon="2.05067">
        <ele>129</ele>
        <time>2018-08-19T13:04:47Z</time>
      </trkpt>
      <trkpt lat="48.62559" lon="2.05064">
        <ele>129</ele>
        <time>2018-08-19T13:04:51Z</time>
      </trkpt>
      <trkpt lat="48.62553" lon="2.05061">
        <ele>129</ele>
        <time>2018-08-19T13:04:55Z</time>
      </trkpt>
      <trkpt lat="48.62547" lon="2.05058">
        <ele>129</ele>
        <time>2018-08-19T13:04:59Z</time>
      </trkpt>
      <trkpt lat="48.62541" lon="2.05055">
        <ele>129</ele>
        <time>2018-08-19T13:05:03Z</time>
      </trkpt>
      <trkpt lat="48.62536" lon="2.05052">
        <ele>129</ele>
        <time>2018-08-19T13:05:07Z</time>
      </trkpt>
      <trkpt lat="48.6253" lon="2.05049">
        <ele>129</ele>
        <time>2018-08-19T13:05:11Z</time>
      </trkpt>
      <trkpt lat="48.62524" lon="2.05045">
        <ele>129</ele>
        <time>2018-08-19T13:05:15Z</time>
      </trkpt>
      <trkpt lat="48.62517" lon="2.05041">
        <ele>129</ele>
        <time>2018-08-19T13:05:19Z</time>
      </trkpt>
      <trkpt lat="48.62511" lon="2.05037">
        <ele>129</ele>
        <time>2018-08-19T13:05:23Z</time>
      </trkpt>
      <trkpt lat="48.62506" lon="2.05034">
        <ele>129</ele>
        <time>2018-08-19T13:05:27Z</time>
      </trkpt>
      <trkpt lat="48.625" lon="2.0503">
        <ele>129</ele>
        <time>2018-08-19T13:05:31Z</time>
      </trkpt>
      <trkpt lat="48.62494" lon="2.05026">
        <ele>129</ele>
        <time>2018-08-19T13:05:35Z</time>
      </trkpt>
      <trkpt lat="48.62487" lon="2.05024">
        <ele>129</ele>
        <time>2018-08-19T13:05:39Z</time>
      </trkpt>
      <trkpt lat="48.62482" lon="2.05021">
        <ele>129</ele>
        <time>2018-08-19T13:05:43Z</time>
      </trkpt>
      <trkpt lat="48.62475" lon="2.0502">
        <ele>129</ele>
        <time>2018-08-19T13:05:47Z</time>
      </trkpt>
      <trkpt lat="48.6247" lon="2.05017">
        <ele>129</ele>
        <time>2018-08-19T13:05:51Z</time>
      </trkpt>
      <trkpt lat="48.62464" lon="2.05014">
        <ele>129</ele>
        <time>2018-08-19T13:05:55Z</time>
      </trkpt>
      <trkpt lat="48.62458" lon="2.05011">
        <ele>129</ele>
        <time>2018-08-19T13:05:59Z</time>
      </trkpt>
      <trkpt lat="48.62453" lon="2.05006">
        <ele>129</ele>
        <time>2018-08-19T13:06:03Z</time>
      </trkpt>
      <trkpt lat="48.62448" lon="2.05001">
        <ele>129</ele>
        <time>2018-08-19T13:06:07Z</time>
      </trkpt>
      <trkpt lat="48.62442" lon="2.04996">
        <ele>129</ele>
        <time>2018-08-19T13:06:11Z</time>
      </trkpt>
      <trkpt lat="48.62437" lon="2.04992">
        <ele>129</ele>
        <time>2018-08-19T13:06:15Z</time>
      </trkpt>
      <trkpt lat="48.62431" lon="2.04988">
        <ele>129</ele>
        <time>2018-08-19T13:06:19Z</time>
      </trkpt>
      <trkpt lat="48.62425" lon="2.04985">
        <ele>129</ele>
        <time>2018-08-19T13:06:23Z</time>
      </trkpt>
      <trkpt lat="48.6242" lon="2.04982">
        <ele>129</ele>
        <time>2018-08-19T13:06:27Z</time>
      </trkpt>
      <trkpt lat="48.62413" lon="2.04983">
        <ele>129</ele>
        <time>2018-08-19T13:06:31Z</time>
      </trkpt>
      <trkpt lat="48.62407" lon="2.04982">
        <ele>129</ele>
        <time>2018-08-19T13:06:35Z</time>
      </trkpt>
      <trkpt lat="48.62401" lon="2.04981">
        <ele>129</ele>
        <time>2018-08-19T13:06:39Z</time>
      </trkpt>
      <trkpt lat="48.62394" lon="2.04981">
        <ele>129</ele>
        <time>2018-08-19T13:06:43Z</time>
      </trkpt>
      <trkpt lat="48.62388" lon="2.04979">
        <ele>129</ele>
        <time>2018-08-19T13:06:47Z</time>
      </trkpt>
      <trkpt lat="48.62381" lon="2.04981">
        <ele>129</ele>
        <time>2018-08-19T13:06:51Z</time>
      </trkpt>
      <trkpt lat="48.62376" lon="2.04984">
        <ele>129</ele>
        <time>2018-08-19T13:06:55Z</time>
      </trkpt>
      <trkpt lat="48.62371" lon="2.0499">
        <ele>129</ele>
        <time>2018-08-19T13:06:59Z</time>
      </trkpt>
      <trkpt lat="48.62365" lon="2.04998">
        <ele>129</ele>
        <time>2018-08-19T13:07:03Z</time>
      </trkpt>
      <trkpt lat="48.6236" lon="2.05004">
        <ele>129</ele>
        <time>2018-08-19T13:07:07Z</time>
      </trkpt>
      <trkpt lat="48.62352" lon="2.0501">
        <ele>129</ele>
        <time>2018-08-19T13:07:11Z</time>
      </trkpt>
      <trkpt lat="48.6234" lon="2.05016">
        <ele>130</ele>
        <time>2018-08-19T13:07:15Z</time>
      </trkpt>
      <trkpt lat="48.62327" lon="2.05021">
        <ele>130</ele>
        <time>2018-08-19T13:07:19Z</time>
      </trkpt>
      <trkpt lat="48.62315" lon="2.05026">
        <ele>130</ele>
        <time>2018-08-19T13:07:23Z</time>
      </trkpt>
      <trkpt lat="48.62304" lon="2.05036">
        <ele>131</ele>
        <time>2018-08-19T13:07:27Z</time>
      </trkpt>
      <trkpt lat="48.62294" lon="2.05044">
        <ele>131</ele>
        <time>2018-08-19T13:07:31Z</time>
      </trkpt>
      <trkpt lat="48.62288" lon="2.05057">
        <ele>131</ele>
        <time>2018-08-19T13:07:35Z</time>
      </trkpt>
      <trkpt lat="48.62287" lon="2.05076">
        <ele>131</ele>
        <time>2018-08-19T13:07:39Z</time>
      </trkpt>
      <trkpt lat="48.62288" lon="2.05089">
        <ele>133</ele>
        <time>2018-08-19T13:07:43Z</time>
      </trkpt>
      <trkpt lat="48.62288" lon="2.05099">
        <ele>134</ele>
        <time>2018-08-19T13:07:47Z</time>
      </trkpt>
      <trkpt lat="48.62289" lon="2.05108">
        <ele>135</ele>
        <time>2018-08-19T13:07:51Z</time>
      </trkpt>
      <trkpt lat="48.62289" lon="2.05119">
        <ele>136</ele>
        <time>2018-08-19T13:07:55Z</time>
      </trkpt>
      <trkpt lat="48.62288" lon="2.05128">
        <ele>136</ele>
        <time>2018-08-19T13:07:59Z</time>
      </trkpt>
      <trkpt lat="48.62288" lon="2.05138">
        <ele>136</ele>
        <time>2018-08-19T13:08:03Z</time>
      </trkpt>
      <trkpt lat="48.62287" lon="2.05147">
        <ele>136</ele>
        <time>2018-08-19T13:08:07Z</time>
      </trkpt>
      <trkpt lat="48.62289" lon="2.05158">
        <ele>138</ele>
        <time>2018-08-19T13:08:11Z</time>
      </trkpt>
      <trkpt lat="48.62288" lon="2.05167">
        <ele>139</ele>
        <time>2018-08-19T13:08:15Z</time>
      </trkpt>
      <trkpt lat="48.62287" lon="2.0518">
        <ele>142</ele>
        <time>2018-08-19T13:08:19Z</time>
      </trkpt>
      <trkpt lat="48.62286" lon="2.05188">
        <ele>144</ele>
        <time>2018-08-19T13:08:23Z</time>
      </trkpt>
      <trkpt lat="48.62286" lon="2.05198">
        <ele>144</ele>
        <time>2018-08-19T13:08:27Z</time>
      </trkpt>
      <trkpt lat="48.62283" lon="2.05207">
        <ele>144</ele>
        <time>2018-08-19T13:08:31Z</time>
      </trkpt>
      <trkpt lat="48.62282" lon="2.05216">
        <ele>144</ele>
        <time>2018-08-19T13:08:35Z</time>
      </trkpt>
      <trkpt lat="48.6228" lon="2.05224">
        <ele>146</ele>
        <time>2018-08-19T13:08:39Z</time>
      </trkpt>
      <trkpt lat="48.62279" lon="2.05233">
        <ele>146</ele>
        <time>2018-08-19T13:08:43Z</time>
      </trkpt>
      <trkpt lat="48.62277" lon="2.05241">
        <ele>146</ele>
        <time>2018-08-19T13:08:47Z</time>
      </trkpt>
      <trkpt lat="48.62277" lon="2.05251">
        <ele>146</ele>
        <time>2018-08-19T13:08:51Z</time>
      </trkpt>
      <trkpt lat="48.62275" lon="2.05262">
        <ele>149</ele>
        <time>2018-08-19T13:08:55Z</time>
      </trkpt>
      <trkpt lat="48.62273" lon="2.05272">
        <ele>151</ele>
        <time>2018-08-19T13:08:59Z</time>
      </trkpt>
      <trkpt lat="48.62271" lon="2.05282">
        <ele>152</ele>
        <time>2018-08-19T13:09:03Z</time>
      </trkpt>
      <trkpt lat="48.6227" lon="2.05292">
        <ele>154</ele>
        <time>2018-08-19T13:09:07Z</time>
      </trkpt>
      <trkpt lat="48.62266" lon="2.05307">
        <ele>154</ele>
        <time>2018-08-19T13:09:11Z</time>
      </trkpt>
      <trkpt lat="48.62264" lon="2.05325">
        <ele>154</ele>
        <time>2018-08-19T13:09:15Z</time>
      </trkpt>
      <trkpt lat="48.62261" lon="2.05344">
        <ele>154</ele>
        <time>2018-08-19T13:09:19Z</time>
      </trkpt>
      <trkpt lat="48.62258" lon="2.05366">
        <ele>154</ele>
        <time>2018-08-19T13:09:23Z</time>
      </trkpt>
      <trkpt lat="48.62256" lon="2.05387">
        <ele>154</ele>
        <time>2018-08-19T13:09:27Z</time>
      </trkpt>
      <trkpt lat="48.62254" lon="2.05412">
        <ele>154</ele>
        <time>2018-08-19T13:09:31Z</time>
      </trkpt>
      <trkpt lat="48.62248" lon="2.05447">
        <ele>154</ele>
        <time>2018-08-19T13:09:35Z</time>
      </trkpt>
      <trkpt lat="48.62243" lon="2.05478">
        <ele>155</ele>
        <time>2018-08-19T13:09:39Z</time>
      </trkpt>
      <trkpt lat="48.62239" lon="2.05504">
        <ele>159</ele>
        <time>2018-08-19T13:09:43Z</time>
      </trkpt>
      <trkpt lat="48.62234" lon="2.05536">
        <ele>160</ele>
        <time>2018-08-19T13:09:47Z</time>
      </trkpt>
      <trkpt lat="48.62231" lon="2.05566">
        <ele>162</ele>
        <time>2018-08-19T13:09:51Z</time>
      </trkpt>
      <trkpt lat="48.62228" lon="2.05597">
        <ele>163</ele>
        <time>2018-08-19T13:09:55Z</time>
      </trkpt>
      <trkpt lat="48.62225" lon="2.05628">
        <ele>164</ele>
        <time>2018-08-19T13:09:59Z</time>
      </trkpt>
      <trkpt lat="48.62222" lon="2.05657">
        <ele>164</ele>
        <time>2018-08-19T13:10:03Z</time>
      </trkpt>
      <trkpt lat="48.62218" lon="2.05692">
        <ele>168</ele>
        <time>2018-08-19T13:10:07Z</time>
      </trkpt>
      <trkpt lat="48.62214" lon="2.05723">
        <ele>169</ele>
        <time>2018-08-19T13:10:11Z</time>
      </trkpt>
      <trkpt lat="48.62214" lon="2.05752">
        <ele>169</ele>
        <time>2018-08-19T13:10:15Z</time>
      </trkpt>
      <trkpt lat="48.6222" lon="2.05782">
        <ele>169</ele>
        <time>2018-08-19T13:10:19Z</time>
      </trkpt>
      <trkpt lat="48.62232" lon="2.05812">
        <ele>169</ele>
        <time>2018-08-19T13:10:23Z</time>
      </trkpt>
      <trkpt lat="48.62245" lon="2.05841">
        <ele>169</ele>
        <time>2018-08-19T13:10:27Z</time>
      </trkpt>
      <trkpt lat="48.62258" lon="2.05871">
        <ele>169</ele>
        <time>2018-08-19T13:10:31Z</time>
      </trkpt>
      <trkpt lat="48.6227" lon="2.059">
        <ele>168</ele>
        <time>2018-08-19T13:10:35Z</time>
      </trkpt>
      <trkpt lat="48.62279" lon="2.05934">
        <ele>167</ele>
        <time>2018-08-19T13:10:39Z</time>
      </trkpt>
      <trkpt lat="48.62288" lon="2.05967">
        <ele>167</ele>
        <time>2018-08-19T13:10:43Z</time>
      </trkpt>
      <trkpt lat="48.62298" lon="2.06">
        <ele>167</ele>
        <time>2018-08-19T13:10:47Z</time>
      </trkpt>
      <trkpt lat="48.62308" lon="2.06031">
        <ele>167</ele>
        <time>2018-08-19T13:10:51Z</time>
      </trkpt>
      <trkpt lat="48.62318" lon="2.06062">
        <ele>167</ele>
        <time>2018-08-19T13:10:55Z</time>
      </trkpt>
      <trkpt lat="48.62327" lon="2.06094">
        <ele>167</ele>
        <time>2018-08-19T13:11:00Z</time>
      </trkpt>
      <trkpt lat="48.6233" lon="2.0612">
        <ele>167</ele>
        <time>2018-08-19T13:11:04Z</time>
      </trkpt>
      <trkpt lat="48.62324" lon="2.06146">
        <ele>167</ele>
        <time>2018-08-19T13:11:08Z</time>
      </trkpt>
      <trkpt lat="48.62315" lon="2.06177">
        <ele>167</ele>
        <time>2018-08-19T13:11:12Z</time>
      </trkpt>
      <trkpt lat="48.62306" lon="2.06207">
        <ele>167</ele>
        <time>2018-08-19T13:11:16Z</time>
      </trkpt>
      <trkpt lat="48.62297" lon="2.06239">
        <ele>167</ele>
        <time>2018-08-19T13:11:20Z</time>
      </trkpt>
      <trkpt lat="48.62287" lon="2.06274">
        <ele>167</ele>
        <time>2018-08-19T13:11:24Z</time>
      </trkpt>
      <trkpt lat="48.62277" lon="2.06308">
        <ele>167</ele>
        <time>2018-08-19T13:11:28Z</time>
      </trkpt>
      <trkpt lat="48.62268" lon="2.06341">
        <ele>167</ele>
        <time>2018-08-19T13:11:32Z</time>
      </trkpt>
      <trkpt lat="48.62259" lon="2.06372">
        <ele>167</ele>
        <time>2018-08-19T13:11:36Z</time>
      </trkpt>
      <trkpt lat="48.62251" lon="2.06406">
        <ele>167</ele>
        <time>2018-08-19T13:11:40Z</time>
      </trkpt>
      <trkpt lat="48.62243" lon="2.06434">
        <ele>167</ele>
        <time>2018-08-19T13:11:44Z</time>
      </trkpt>
      <trkpt lat="48.62242" lon="2.06464">
        <ele>167</ele>
        <time>2018-08-19T13:11:48Z</time>
      </trkpt>
      <trkpt lat="48.62259" lon="2.06485">
        <ele>167</ele>
        <time>2018-08-19T13:11:52Z</time>
      </trkpt>
      <trkpt lat="48.62271" lon="2.06519">
        <ele>167</ele>
        <time>2018-08-19T13:11:57Z</time>
      </trkpt>
      <trkpt lat="48.6227" lon="2.06555">
        <ele>167</ele>
        <time>2018-08-19T13:12:01Z</time>
      </trkpt>
      <trkpt lat="48.62269" lon="2.0659">
        <ele>167</ele>
        <time>2018-08-19T13:12:05Z</time>
      </trkpt>
      <trkpt lat="48.62269" lon="2.06622">
        <ele>167</ele>
        <time>2018-08-19T13:12:09Z</time>
      </trkpt>
      <trkpt lat="48.62268" lon="2.06651">
        <ele>167</ele>
        <time>2018-08-19T13:12:13Z</time>
      </trkpt>
      <trkpt lat="48.62268" lon="2.06675">
        <ele>167</ele>
        <time>2018-08-19T13:12:17Z</time>
      </trkpt>
      <trkpt lat="48.6227" lon="2.0669">
        <ele>167</ele>
        <time>2018-08-19T13:12:21Z</time>
      </trkpt>
      <trkpt lat="48.6227" lon="2.06699">
        <ele>167</ele>
        <time>2018-08-19T13:12:25Z</time>
      </trkpt>
      <trkpt lat="48.62271" lon="2.0671">
        <ele>167</ele>
        <time>2018-08-19T13:12:29Z</time>
      </trkpt>
      <trkpt lat="48.62271" lon="2.0671">
        <ele>167</ele>
        <time>2018-08-19T13:12:39Z</time>
      </trkpt>
      <trkpt lat="48.6227" lon="2.06701">
        <ele>167</ele>
        <time>2018-08-19T13:12:44Z</time>
      </trkpt>
      <trkpt lat="48.62266" lon="2.06693">
        <ele>167</ele>
        <time>2018-08-19T13:12:48Z</time>
      </trkpt>
      <trkpt lat="48.62259" lon="2.06691">
        <ele>167</ele>
        <time>2018-08-19T13:12:52Z</time>
      </trkpt>
      <trkpt lat="48.62252" lon="2.06695">
        <ele>167</ele>
        <time>2018-08-19T13:12:56Z</time>
      </trkpt>
      <trkpt lat="48.62245" lon="2.06699">
        <ele>167</ele>
        <time>2018-08-19T13:13:00Z</time>
      </trkpt>
      <trkpt lat="48.62238" lon="2.06702">
        <ele>167</ele>
        <time>2018-08-19T13:13:04Z</time>
      </trkpt>
      <trkpt lat="48.6223" lon="2.06701">
        <ele>167</ele>
        <time>2018-08-19T13:13:09Z</time>
      </trkpt>
      <trkpt lat="48.62224" lon="2.06702">
        <ele>167</ele>
        <time>2018-08-19T13:13:13Z</time>
      </trkpt>
      <trkpt lat="48.62218" lon="2.06703">
        <ele>167</ele>
        <time>2018-08-19T13:13:17Z</time>
      </trkpt>
      <trkpt lat="48.62211" lon="2.06704">
        <ele>167</ele>
        <time>2018-08-19T13:13:21Z</time>
      </trkpt>
      <trkpt lat="48.62203" lon="2.06706">
        <ele>167</ele>
        <time>2018-08-19T13:13:26Z</time>
      </trkpt>
      <trkpt lat="48.62197" lon="2.06707">
        <ele>167</ele>
        <time>2018-08-19T13:13:30Z</time>
      </trkpt>
      <trkpt lat="48.6219" lon="2.0671">
        <ele>167</ele>
        <time>2018-08-19T13:13:34Z</time>
      </trkpt>
      <trkpt lat="48.62183" lon="2.06711">
        <ele>167</ele>
        <time>2018-08-19T13:13:38Z</time>
      </trkpt>
      <trkpt lat="48.62177" lon="2.06712">
        <ele>167</ele>
        <time>2018-08-19T13:13:42Z</time>
      </trkpt>
      <trkpt lat="48.6217" lon="2.06713">
        <ele>167</ele>
        <time>2018-08-19T13:13:46Z</time>
      </trkpt>
      <trkpt lat="48.62163" lon="2.06715">
        <ele>167</ele>
        <time>2018-08-19T13:13:50Z</time>
      </trkpt>
      <trkpt lat="48.62156" lon="2.06718">
        <ele>167</ele>
        <time>2018-08-19T13:13:54Z</time>
      </trkpt>
      <trkpt lat="48.62147" lon="2.06721">
        <ele>167</ele>
        <time>2018-08-19T13:13:59Z</time>
      </trkpt>
      <trkpt lat="48.62141" lon="2.06723">
        <ele>167</ele>
        <time>2018-08-19T13:14:03Z</time>
      </trkpt>
      <trkpt lat="48.62134" lon="2.06724">
        <ele>167</ele>
        <time>2018-08-19T13:14:07Z</time>
      </trkpt>
      <trkpt lat="48.62127" lon="2.06725">
        <ele>167</ele>
        <time>2018-08-19T13:14:11Z</time>
      </trkpt>
      <trkpt lat="48.62118" lon="2.06727">
        <ele>167</ele>
        <time>2018-08-19T13:14:16Z</time>
      </trkpt>
      <trkpt lat="48.6211" lon="2.06729">
        <ele>167</ele>
        <time>2018-08-19T13:14:21Z</time>
      </trkpt>
      <trkpt lat="48.62102" lon="2.0673">
        <ele>167</ele>
        <time>2018-08-19T13:14:26Z</time>
      </trkpt>
      <trkpt lat="48.62094" lon="2.06731">
        <ele>167</ele>
        <time>2018-08-19T13:14:31Z</time>
      </trkpt>
      <trkpt lat="48.62087" lon="2.06731">
        <ele>166</ele>
        <time>2018-08-19T13:14:36Z</time>
      </trkpt>
      <trkpt lat="48.62079" lon="2.06732">
        <ele>166</ele>
        <time>2018-08-19T13:14:41Z</time>
      </trkpt>
      <trkpt lat="48.62071" lon="2.06735">
        <ele>165</ele>
        <time>2018-08-19T13:14:46Z</time>
      </trkpt>
      <trkpt lat="48.62062" lon="2.06737">
        <ele>165</ele>
        <time>2018-08-19T13:14:51Z</time>
      </trkpt>
      <trkpt lat="48.62053" lon="2.06739">
        <ele>164</ele>
        <time>2018-08-19T13:14:56Z</time>
      </trkpt>
      <trkpt lat="48.62044" lon="2.06742">
        <ele>164</ele>
        <time>2018-08-19T13:15:01Z</time>
      </trkpt>
      <trkpt lat="48.62036" lon="2.06744">
        <ele>163</ele>
        <time>2018-08-19T13:15:06Z</time>
      </trkpt>
      <trkpt lat="48.62027" lon="2.06747">
        <ele>163</ele>
        <time>2018-08-19T13:15:11Z</time>
      </trkpt>
      <trkpt lat="48.62019" lon="2.06749">
        <ele>163</ele>
        <time>2018-08-19T13:15:16Z</time>
      </trkpt>
      <trkpt lat="48.62011" lon="2.06751">
        <ele>163</ele>
        <time>2018-08-19T13:15:21Z</time>
      </trkpt>
      <trkpt lat="48.62003" lon="2.06753">
        <ele>163</ele>
        <time>2018-08-19T13:15:26Z</time>
      </trkpt>
      <trkpt lat="48.61994" lon="2.06755">
        <ele>163</ele>
        <time>2018-08-19T13:15:31Z</time>
      </trkpt>
      <trkpt lat="48.61986" lon="2.06757">
        <ele>162</ele>
        <time>2018-08-19T13:15:36Z</time>
      </trkpt>
      <trkpt lat="48.61977" lon="2.06759">
        <ele>161</ele>
        <time>2018-08-19T13:15:41Z</time>
      </trkpt>
      <trkpt lat="48.61968" lon="2.06762">
        <ele>161</ele>
        <time>2018-08-19T13:15:46Z</time>
      </trkpt>
      <trkpt lat="48.6196" lon="2.06765">
        <ele>161</ele>
        <time>2018-08-19T13:15:51Z</time>
      </trkpt>
      <trkpt lat="48.61951" lon="2.06767">
        <ele>161</ele>
        <time>2018-08-19T13:15:56Z</time>
      </trkpt>
      <trkpt lat="48.61943" lon="2.06772">
        <ele>160</ele>
        <time>2018-08-19T13:16:01Z</time>
      </trkpt>
      <trkpt lat="48.61936" lon="2.06778">
        <ele>160</ele>
        <time>2018-08-19T13:16:06Z</time>
      </trkpt>
      <trkpt lat="48.6193" lon="2.06784">
        <ele>159</ele>
        <time>2018-08-19T13:16:10Z</time>
      </trkpt>
      <trkpt lat="48.61926" lon="2.06792">
        <ele>158</ele>
        <time>2018-08-19T13:16:14Z</time>
      </trkpt>
      <trkpt lat="48.61921" lon="2.06801">
        <ele>158</ele>
        <time>2018-08-19T13:16:18Z</time>
      </trkpt>
      <trkpt lat="48.61918" lon="2.0681">
        <ele>158</ele>
        <time>2018-08-19T13:16:22Z</time>
      </trkpt>
      <trkpt lat="48.61914" lon="2.0682">
        <ele>158</ele>
        <time>2018-08-19T13:16:26Z</time>
      </trkpt>
      <trkpt lat="48.6191" lon="2.06832">
        <ele>158</ele>
        <time>2018-08-19T13:16:31Z</time>
      </trkpt>
      <trkpt lat="48.61905" lon="2.06842">
        <ele>157</ele>
        <time>2018-08-19T13:16:36Z</time>
      </trkpt>
      <trkpt lat="48.61898" lon="2.06851">
        <ele>157</ele>
        <time>2018-08-19T13:16:41Z</time>
      </trkpt>
      <trkpt lat="48.61892" lon="2.0686">
        <ele>157</ele>
        <time>2018-08-19T13:16:46Z</time>
      </trkpt>
      <trkpt lat="48.61887" lon="2.06869">
        <ele>157</ele>
        <time>2018-08-19T13:16:51Z</time>
      </trkpt>
      <trkpt lat="48.61881" lon="2.06879">
        <ele>157</ele>
        <time>2018-08-19T13:16:56Z</time>
      </trkpt>
      <trkpt lat="48.61876" lon="2.06887">
        <ele>157</ele>
        <time>2018-08-19T13:17:01Z</time>
      </trkpt>
      <trkpt lat="48.6187" lon="2.06896">
        <ele>156</ele>
        <time>2018-08-19T13:17:06Z</time>
      </trkpt>
      <trkpt lat="48.61866" lon="2.06904">
        <ele>156</ele>
        <time>2018-08-19T13:17:10Z</time>
      </trkpt>
      <trkpt lat="48.61862" lon="2.06912">
        <ele>156</ele>
        <time>2018-08-19T13:17:14Z</time>
      </trkpt>
      <trkpt lat="48.61859" lon="2.0692">
        <ele>156</ele>
        <time>2018-08-19T13:17:18Z</time>
      </trkpt>
      <trkpt lat="48.61856" lon="2.06929">
        <ele>156</ele>
        <time>2018-08-19T13:17:22Z</time>
      </trkpt>
      <trkpt lat="48.61852" lon="2.06937">
        <ele>155</ele>
        <time>2018-08-19T13:17:26Z</time>
      </trkpt>
      <trkpt lat="48.61848" lon="2.06944">
        <ele>155</ele>
        <time>2018-08-19T13:17:30Z</time>
      </trkpt>
      <trkpt lat="48.61844" lon="2.06949">
        <ele>155</ele>
        <time>2018-08-19T13:17:35Z</time>
      </trkpt>
      <trkpt lat="48.61843" lon="2.06951">
        <ele>155</ele>
        <time>2018-08-19T13:17:41Z</time>
      </trkpt>
      <trkpt lat="48.61844" lon="2.06953">
        <ele>155</ele>
        <time>2018-08-19T13:18:09Z</time>
      </trkpt>
      <trkpt lat="48.61843" lon="2.06954">
        <ele>155</ele>
        <time>2018-08-19T13:18:25Z</time>
      </trkpt>
      <trkpt lat="48.61842" lon="2.06952">
        <ele>155</ele>
        <time>2018-08-19T13:18:41Z</time>
      </trkpt>
      <trkpt lat="48.61842" lon="2.06951">
        <ele>154</ele>
        <time>2018-08-19T13:18:48Z</time>
      </trkpt>
      <trkpt lat="48.61841" lon="2.06949">
        <ele>152</ele>
        <time>2018-08-19T13:18:59Z</time>
      </trkpt>
      <trkpt lat="48.61841" lon="2.06947">
        <ele>150</ele>
        <time>2018-08-19T13:19:15Z</time>
      </trkpt>
      <trkpt lat="48.6184" lon="2.06947">
        <ele>150</ele>
        <time>2018-08-19T13:19:22Z</time>
      </trkpt>
      <trkpt lat="48.61839" lon="2.06951">
        <ele>150</ele>
        <time>2018-08-19T13:19:26Z</time>
      </trkpt>
      <trkpt lat="48.61839" lon="2.06959">
        <ele>150</ele>
        <time>2018-08-19T13:19:30Z</time>
      </trkpt>
      <trkpt lat="48.6184" lon="2.06967">
        <ele>150</ele>
        <time>2018-08-19T13:19:34Z</time>
      </trkpt>
      <trkpt lat="48.61842" lon="2.06977">
        <ele>150</ele>
        <time>2018-08-19T13:19:39Z</time>
      </trkpt>
      <trkpt lat="48.61843" lon="2.06988">
        <ele>150</ele>
        <time>2018-08-19T13:19:44Z</time>
      </trkpt>
      <trkpt lat="48.61845" lon="2.06997">
        <ele>150</ele>
        <time>2018-08-19T13:19:48Z</time>
      </trkpt>
      <trkpt lat="48.61847" lon="2.07005">
        <ele>150</ele>
        <time>2018-08-19T13:19:52Z</time>
      </trkpt>
      <trkpt lat="48.61848" lon="2.07014">
        <ele>150</ele>
        <time>2018-08-19T13:19:56Z</time>
      </trkpt>
      <trkpt lat="48.61849" lon="2.07023">
        <ele>150</ele>
        <time>2018-08-19T13:20:00Z</time>
      </trkpt>
      <trkpt lat="48.6185" lon="2.07032">
        <ele>150</ele>
        <time>2018-08-19T13:20:04Z</time>
      </trkpt>
      <trkpt lat="48.61852" lon="2.07044">
        <ele>150</ele>
        <time>2018-08-19T13:20:09Z</time>
      </trkpt>
      <trkpt lat="48.61855" lon="2.07054">
        <ele>150</ele>
        <time>2018-08-19T13:20:14Z</time>
      </trkpt>
      <trkpt lat="48.61857" lon="2.07063">
        <ele>150</ele>
        <time>2018-08-19T13:20:18Z</time>
      </trkpt>
      <trkpt lat="48.61858" lon="2.07069">
        <ele>150</ele>
        <time>2018-08-19T13:20:22Z</time>
      </trkpt>
      <trkpt lat="48.6186" lon="2.07078">
        <ele>150</ele>
        <time>2018-08-19T13:20:26Z</time>
      </trkpt>
      <trkpt lat="48.61861" lon="2.07087">
        <ele>150</ele>
        <time>2018-08-19T13:20:30Z</time>
      </trkpt>
      <trkpt lat="48.61862" lon="2.07099">
        <ele>150</ele>
        <time>2018-08-19T13:20:35Z</time>
      </trkpt>
      <trkpt lat="48.61863" lon="2.07112">
        <ele>150</ele>
        <time>2018-08-19T13:20:40Z</time>
      </trkpt>
      <trkpt lat="48.61864" lon="2.07124">
        <ele>150</ele>
        <time>2018-08-19T13:20:45Z</time>
      </trkpt>
      <trkpt lat="48.61866" lon="2.07134">
        <ele>150</ele>
        <time>2018-08-19T13:20:49Z</time>
      </trkpt>
      <trkpt lat="48.61867" lon="2.07145">
        <ele>150</ele>
        <time>2018-08-19T13:20:54Z</time>
      </trkpt>
      <trkpt lat="48.61868" lon="2.07154">
        <ele>150</ele>
        <time>2018-08-19T13:20:58Z</time>
      </trkpt>
      <trkpt lat="48.61869" lon="2.07163">
        <ele>150</ele>
        <time>2018-08-19T13:21:02Z</time>
      </trkpt>
      <trkpt lat="48.61871" lon="2.07174">
        <ele>150</ele>
        <time>2018-08-19T13:21:07Z</time>
      </trkpt>
      <trkpt lat="48.61873" lon="2.07186">
        <ele>150</ele>
        <time>2018-08-19T13:21:12Z</time>
      </trkpt>
      <trkpt lat="48.61876" lon="2.07197">
        <ele>150</ele>
        <time>2018-08-19T13:21:17Z</time>
      </trkpt>
      <trkpt lat="48.61878" lon="2.07208">
        <ele>150</ele>
        <time>2018-08-19T13:21:22Z</time>
      </trkpt>
      <trkpt lat="48.6188" lon="2.0722">
        <ele>150</ele>
        <time>2018-08-19T13:21:27Z</time>
      </trkpt>
      <trkpt lat="48.61882" lon="2.07229">
        <ele>150</ele>
        <time>2018-08-19T13:21:31Z</time>
      </trkpt>
      <trkpt lat="48.61883" lon="2.07239">
        <ele>150</ele>
        <time>2018-08-19T13:21:35Z</time>
      </trkpt>
      <trkpt lat="48.61885" lon="2.07248">
        <ele>150</ele>
        <time>2018-08-19T13:21:39Z</time>
      </trkpt>
      <trkpt lat="48.61888" lon="2.0726">
        <ele>150</ele>
        <time>2018-08-19T13:21:44Z</time>
      </trkpt>
      <trkpt lat="48.6189" lon="2.07271">
        <ele>152</ele>
        <time>2018-08-19T13:21:49Z</time>
      </trkpt>
      <trkpt lat="48.61891" lon="2.07282">
        <ele>152</ele>
        <time>2018-08-19T13:21:54Z</time>
      </trkpt>
      <trkpt lat="48.61891" lon="2.0729">
        <ele>152</ele>
        <time>2018-08-19T13:21:58Z</time>
      </trkpt>
      <trkpt lat="48.61893" lon="2.07293">
        <ele>152</ele>
        <time>2018-08-19T13:22:04Z</time>
      </trkpt>
      <trkpt lat="48.61894" lon="2.07293">
        <ele>154</ele>
        <time>2018-08-19T13:22:12Z</time>
      </trkpt>
      <trkpt lat="48.61894" lon="2.07296">
        <ele>155</ele>
        <time>2018-08-19T13:22:20Z</time>
      </trkpt>
      <trkpt lat="48.61895" lon="2.07305">
        <ele>155</ele>
        <time>2018-08-19T13:22:25Z</time>
      </trkpt>
      <trkpt lat="48.61897" lon="2.07315">
        <ele>155</ele>
        <time>2018-08-19T13:22:30Z</time>
      </trkpt>
      <trkpt lat="48.61898" lon="2.07327">
        <ele>155</ele>
        <time>2018-08-19T13:22:35Z</time>
      </trkpt>
      <trkpt lat="48.619" lon="2.07338">
        <ele>155</ele>
        <time>2018-08-19T13:22:40Z</time>
      </trkpt>
      <trkpt lat="48.61902" lon="2.0735">
        <ele>155</ele>
        <time>2018-08-19T13:22:45Z</time>
      </trkpt>
      <trkpt lat="48.61906" lon="2.07361">
        <ele>155</ele>
        <time>2018-08-19T13:22:50Z</time>
      </trkpt>
      <trkpt lat="48.61908" lon="2.07371">
        <ele>155</ele>
        <time>2018-08-19T13:22:55Z</time>
      </trkpt>
      <trkpt lat="48.6191" lon="2.07382">
        <ele>155</ele>
        <time>2018-08-19T13:23:00Z</time>
      </trkpt>
      <trkpt lat="48.61911" lon="2.07393">
        <ele>155</ele>
        <time>2018-08-19T13:23:05Z</time>
      </trkpt>
      <trkpt lat="48.61913" lon="2.07405">
        <ele>155</ele>
        <time>2018-08-19T13:23:10Z</time>
      </trkpt>
      <trkpt lat="48.61915" lon="2.07417">
        <ele>155</ele>
        <time>2018-08-19T13:23:15Z</time>
      </trkpt>
      <trkpt lat="48.61916" lon="2.0743">
        <ele>155</ele>
        <time>2018-08-19T13:23:20Z</time>
      </trkpt>
      <trkpt lat="48.61919" lon="2.07441">
        <ele>155</ele>
        <time>2018-08-19T13:23:25Z</time>
      </trkpt>
      <trkpt lat="48.61923" lon="2.07452">
        <ele>157</ele>
        <time>2018-08-19T13:23:30Z</time>
      </trkpt>
      <trkpt lat="48.61924" lon="2.07463">
        <ele>157</ele>
        <time>2018-08-19T13:23:35Z</time>
      </trkpt>
      <trkpt lat="48.61925" lon="2.07474">
        <ele>157</ele>
        <time>2018-08-19T13:23:40Z</time>
      </trkpt>
      <trkpt lat="48.61927" lon="2.07485">
        <ele>157</ele>
        <time>2018-08-19T13:23:45Z</time>
      </trkpt>
      <trkpt lat="48.61929" lon="2.07497">
        <ele>157</ele>
        <time>2018-08-19T13:23:50Z</time>
      </trkpt>
      <trkpt lat="48.61931" lon="2.07509">
        <ele>157</ele>
        <time>2018-08-19T13:23:55Z</time>
      </trkpt>
      <trkpt lat="48.61933" lon="2.0752">
        <ele>157</ele>
        <time>2018-08-19T13:24:00Z</time>
      </trkpt>
      <trkpt lat="48.61932" lon="2.07529">
        <ele>157</ele>
        <time>2018-08-19T13:24:04Z</time>
      </trkpt>
      <trkpt lat="48.61929" lon="2.07537">
        <ele>157</ele>
        <time>2018-08-19T13:24:08Z</time>
      </trkpt>
      <trkpt lat="48.61926" lon="2.07545">
        <ele>157</ele>
        <time>2018-08-19T13:24:12Z</time>
      </trkpt>
      <trkpt lat="48.61923" lon="2.07553">
        <ele>157</ele>
        <time>2018-08-19T13:24:16Z</time>
      </trkpt>
      <trkpt lat="48.61921" lon="2.0756">
        <ele>157</ele>
        <time>2018-08-19T13:24:20Z</time>
      </trkpt>
      <trkpt lat="48.61919" lon="2.07571">
        <ele>157</ele>
        <time>2018-08-19T13:24:25Z</time>
      </trkpt>
      <trkpt lat="48.61917" lon="2.07577">
        <ele>157</ele>
        <time>2018-08-19T13:24:29Z</time>
      </trkpt>
      <trkpt lat="48.61916" lon="2.07585">
        <ele>157</ele>
        <time>2018-08-19T13:24:33Z</time>
      </trkpt>
      <trkpt lat="48.61913" lon="2.07593">
        <ele>157</ele>
        <time>2018-08-19T13:24:37Z</time>
      </trkpt>
      <trkpt lat="48.6191" lon="2.07602">
        <ele>157</ele>
        <time>2018-08-19T13:24:42Z</time>
      </trkpt>
      <trkpt lat="48.61906" lon="2.0761">
        <ele>157</ele>
        <time>2018-08-19T13:24:46Z</time>
      </trkpt>
      <trkpt lat="48.61902" lon="2.07618">
        <ele>157</ele>
        <time>2018-08-19T13:24:50Z</time>
      </trkpt>
      <trkpt lat="48.61899" lon="2.07629">
        <ele>157</ele>
        <time>2018-08-19T13:24:55Z</time>
      </trkpt>
      <trkpt lat="48.61895" lon="2.07639">
        <ele>157</ele>
        <time>2018-08-19T13:25:00Z</time>
      </trkpt>
      <trkpt lat="48.61892" lon="2.07649">
        <ele>157</ele>
        <time>2018-08-19T13:25:05Z</time>
      </trkpt>
      <trkpt lat="48.61888" lon="2.07657">
        <ele>157</ele>
        <time>2018-08-19T13:25:09Z</time>
      </trkpt>
      <trkpt lat="48.61888" lon="2.07663">
        <ele>161</ele>
        <time>2018-08-19T13:25:14Z</time>
      </trkpt>
      <trkpt lat="48.61886" lon="2.0767">
        <ele>165</ele>
        <time>2018-08-19T13:25:18Z</time>
      </trkpt>
      <trkpt lat="48.61884" lon="2.0768">
        <ele>167</ele>
        <time>2018-08-19T13:25:22Z</time>
      </trkpt>
      <trkpt lat="48.61882" lon="2.07688">
        <ele>168</ele>
        <time>2018-08-19T13:25:26Z</time>
      </trkpt>
      <trkpt lat="48.61879" lon="2.07698">
        <ele>168</ele>
        <time>2018-08-19T13:25:31Z</time>
      </trkpt>
      <trkpt lat="48.61876" lon="2.07707">
        <ele>168</ele>
        <time>2018-08-19T13:25:36Z</time>
      </trkpt>
      <trkpt lat="48.61871" lon="2.07715">
        <ele>168</ele>
        <time>2018-08-19T13:25:40Z</time>
      </trkpt>
      <trkpt lat="48.61867" lon="2.07723">
        <ele>168</ele>
        <time>2018-08-19T13:25:44Z</time>
      </trkpt>
      <trkpt lat="48.61865" lon="2.07731">
        <ele>166</ele>
        <time>2018-08-19T13:25:48Z</time>
      </trkpt>
      <trkpt lat="48.61863" lon="2.07736">
        <ele>163</ele>
        <time>2018-08-19T13:25:52Z</time>
      </trkpt>
      <trkpt lat="48.6186" lon="2.07743">
        <ele>159</ele>
        <time>2018-08-19T13:25:56Z</time>
      </trkpt>
      <trkpt lat="48.61857" lon="2.0775">
        <ele>156</ele>
        <time>2018-08-19T13:26:00Z</time>
      </trkpt>
      <trkpt lat="48.61854" lon="2.07758">
        <ele>153</ele>
        <time>2018-08-19T13:26:04Z</time>
      </trkpt>
      <trkpt lat="48.61851" lon="2.07765">
        <ele>153</ele>
        <time>2018-08-19T13:26:08Z</time>
      </trkpt>
      <trkpt lat="48.61849" lon="2.07773">
        <ele>152</ele>
        <time>2018-08-19T13:26:12Z</time>
      </trkpt>
      <trkpt lat="48.61845" lon="2.07781">
        <ele>150</ele>
        <time>2018-08-19T13:26:16Z</time>
      </trkpt>
      <trkpt lat="48.61842" lon="2.07788">
        <ele>149</ele>
        <time>2018-08-19T13:26:20Z</time>
      </trkpt>
      <trkpt lat="48.61839" lon="2.07795">
        <ele>148</ele>
        <time>2018-08-19T13:26:24Z</time>
      </trkpt>
      <trkpt lat="48.61835" lon="2.07803">
        <ele>148</ele>
        <time>2018-08-19T13:26:28Z</time>
      </trkpt>
      <trkpt lat="48.61829" lon="2.07811">
        <ele>148</ele>
        <time>2018-08-19T13:26:32Z</time>
      </trkpt>
      <trkpt lat="48.61824" lon="2.07821">
        <ele>148</ele>
        <time>2018-08-19T13:26:37Z</time>
      </trkpt>
      <trkpt lat="48.61819" lon="2.07834">
        <ele>148</ele>
        <time>2018-08-19T13:26:42Z</time>
      </trkpt>
      <trkpt lat="48.61815" lon="2.07843">
        <ele>148</ele>
        <time>2018-08-19T13:26:47Z</time>
      </trkpt>
      <trkpt lat="48.61811" lon="2.07853">
        <ele>148</ele>
        <time>2018-08-19T13:26:51Z</time>
      </trkpt>
      <trkpt lat="48.61805" lon="2.07862">
        <ele>148</ele>
        <time>2018-08-19T13:26:56Z</time>
      </trkpt>
      <trkpt lat="48.618" lon="2.07871">
        <ele>149</ele>
        <time>2018-08-19T13:27:00Z</time>
      </trkpt>
      <trkpt lat="48.61796" lon="2.0788">
        <ele>150</ele>
        <time>2018-08-19T13:27:04Z</time>
      </trkpt>
      <trkpt lat="48.61791" lon="2.0789">
        <ele>151</ele>
        <time>2018-08-19T13:27:09Z</time>
      </trkpt>
      <trkpt lat="48.61787" lon="2.079">
        <ele>154</ele>
        <time>2018-08-19T13:27:13Z</time>
      </trkpt>
      <trkpt lat="48.61784" lon="2.07909">
        <ele>156</ele>
        <time>2018-08-19T13:27:17Z</time>
      </trkpt>
      <trkpt lat="48.61778" lon="2.0792">
        <ele>158</ele>
        <time>2018-08-19T13:27:22Z</time>
      </trkpt>
      <trkpt lat="48.61774" lon="2.07928">
        <ele>160</ele>
        <time>2018-08-19T13:27:26Z</time>
      </trkpt>
      <trkpt lat="48.6177" lon="2.07938">
        <ele>160</ele>
        <time>2018-08-19T13:27:30Z</time>
      </trkpt>
      <trkpt lat="48.61766" lon="2.07946">
        <ele>160</ele>
        <time>2018-08-19T13:27:34Z</time>
      </trkpt>
      <trkpt lat="48.61762" lon="2.07953">
        <ele>160</ele>
        <time>2018-08-19T13:27:38Z</time>
      </trkpt>
      <trkpt lat="48.61759" lon="2.07959">
        <ele>160</ele>
        <time>2018-08-19T13:27:42Z</time>
      </trkpt>
      <trkpt lat="48.61753" lon="2.0797">
        <ele>160</ele>
        <time>2018-08-19T13:27:47Z</time>
      </trkpt>
      <trkpt lat="48.61748" lon="2.07979">
        <ele>160</ele>
        <time>2018-08-19T13:27:52Z</time>
      </trkpt>
      <trkpt lat="48.61743" lon="2.07988">
        <ele>160</ele>
        <time>2018-08-19T13:27:57Z</time>
      </trkpt>
      <trkpt lat="48.61739" lon="2.07999">
        <ele>160</ele>
        <time>2018-08-19T13:28:02Z</time>
      </trkpt>
      <trkpt lat="48.61736" lon="2.0801">
        <ele>160</ele>
        <time>2018-08-19T13:28:07Z</time>
      </trkpt>
      <trkpt lat="48.61733" lon="2.08021">
        <ele>160</ele>
        <time>2018-08-19T13:28:12Z</time>
      </trkpt>
      <trkpt lat="48.61731" lon="2.08034">
        <ele>160</ele>
        <time>2018-08-19T13:28:17Z</time>
      </trkpt>
      <trkpt lat="48.61729" lon="2.08048">
        <ele>160</ele>
        <time>2018-08-19T13:28:22Z</time>
      </trkpt>
      <trkpt lat="48.61727" lon="2.08061">
        <ele>160</ele>
        <time>2018-08-19T13:28:27Z</time>
      </trkpt>
      <trkpt lat="48.61725" lon="2.08076">
        <ele>160</ele>
        <time>2018-08-19T13:28:32Z</time>
      </trkpt>
      <trkpt lat="48.61722" lon="2.08087">
        <ele>160</ele>
        <time>2018-08-19T13:28:37Z</time>
      </trkpt>
      <trkpt lat="48.61721" lon="2.08099">
        <ele>160</ele>
        <time>2018-08-19T13:28:42Z</time>
      </trkpt>
      <trkpt lat="48.61721" lon="2.0811">
        <ele>160</ele>
        <time>2018-08-19T13:28:47Z</time>
      </trkpt>
      <trkpt lat="48.61722" lon="2.08122">
        <ele>159</ele>
        <time>2018-08-19T13:28:52Z</time>
      </trkpt>
      <trkpt lat="48.61721" lon="2.08133">
        <ele>157</ele>
        <time>2018-08-19T13:28:57Z</time>
      </trkpt>
      <trkpt lat="48.61719" lon="2.08147">
        <ele>157</ele>
        <time>2018-08-19T13:29:02Z</time>
      </trkpt>
      <trkpt lat="48.61718" lon="2.08157">
        <ele>157</ele>
        <time>2018-08-19T13:29:06Z</time>
      </trkpt>
      <trkpt lat="48.61716" lon="2.08165">
        <ele>156</ele>
        <time>2018-08-19T13:29:10Z</time>
      </trkpt>
      <trkpt lat="48.61717" lon="2.08173">
        <ele>155</ele>
        <time>2018-08-19T13:29:14Z</time>
      </trkpt>
      <trkpt lat="48.61717" lon="2.08182">
        <ele>155</ele>
        <time>2018-08-19T13:29:18Z</time>
      </trkpt>
      <trkpt lat="48.61716" lon="2.08192">
        <ele>155</ele>
        <time>2018-08-19T13:29:22Z</time>
      </trkpt>
      <trkpt lat="48.61712" lon="2.08204">
        <ele>155</ele>
        <time>2018-08-19T13:29:27Z</time>
      </trkpt>
      <trkpt lat="48.61705" lon="2.08217">
        <ele>155</ele>
        <time>2018-08-19T13:29:32Z</time>
      </trkpt>
      <trkpt lat="48.617" lon="2.08224">
        <ele>155</ele>
        <time>2018-08-19T13:29:36Z</time>
      </trkpt>
      <trkpt lat="48.61694" lon="2.0823">
        <ele>155</ele>
        <time>2018-08-19T13:29:40Z</time>
      </trkpt>
      <trkpt lat="48.61689" lon="2.08235">
        <ele>155</ele>
        <time>2018-08-19T13:29:44Z</time>
      </trkpt>
      <trkpt lat="48.61684" lon="2.08241">
        <ele>155</ele>
        <time>2018-08-19T13:29:48Z</time>
      </trkpt>
      <trkpt lat="48.61679" lon="2.08246">
        <ele>155</ele>
        <time>2018-08-19T13:29:52Z</time>
      </trkpt>
      <trkpt lat="48.61675" lon="2.08252">
        <ele>155</ele>
        <time>2018-08-19T13:29:56Z</time>
      </trkpt>
      <trkpt lat="48.61671" lon="2.08258">
        <ele>155</ele>
        <time>2018-08-19T13:30:00Z</time>
      </trkpt>
      <trkpt lat="48.61665" lon="2.08268">
        <ele>155</ele>
        <time>2018-08-19T13:30:04Z</time>
      </trkpt>
      <trkpt lat="48.61662" lon="2.08274">
        <ele>155</ele>
        <time>2018-08-19T13:30:08Z</time>
      </trkpt>
      <trkpt lat="48.61656" lon="2.08281">
        <ele>155</ele>
        <time>2018-08-19T13:30:12Z</time>
      </trkpt>
      <trkpt lat="48.61651" lon="2.08286">
        <ele>155</ele>
        <time>2018-08-19T13:30:16Z</time>
      </trkpt>
      <trkpt lat="48.61644" lon="2.08292">
        <ele>154</ele>
        <time>2018-08-19T13:30:20Z</time>
      </trkpt>
      <trkpt lat="48.61639" lon="2.08297">
        <ele>154</ele>
        <time>2018-08-19T13:30:24Z</time>
      </trkpt>
      <trkpt lat="48.61633" lon="2.08301">
        <ele>154</ele>
        <time>2018-08-19T13:30:28Z</time>
      </trkpt>
      <trkpt lat="48.61628" lon="2.08305">
        <ele>153</ele>
        <time>2018-08-19T13:30:32Z</time>
      </trkpt>
      <trkpt lat="48.61622" lon="2.08311">
        <ele>152</ele>
        <time>2018-08-19T13:30:36Z</time>
      </trkpt>
      <trkpt lat="48.61617" lon="2.08315">
        <ele>152</ele>
        <time>2018-08-19T13:30:40Z</time>
      </trkpt>
      <trkpt lat="48.61613" lon="2.0832">
        <ele>152</ele>
        <time>2018-08-19T13:30:44Z</time>
      </trkpt>
      <trkpt lat="48.6161" lon="2.08324">
        <ele>152</ele>
        <time>2018-08-19T13:30:50Z</time>
      </trkpt>
      <trkpt lat="48.61608" lon="2.08329">
        <ele>152</ele>
        <time>2018-08-19T13:30:55Z</time>
      </trkpt>
      <trkpt lat="48.61604" lon="2.08333">
        <ele>152</ele>
        <time>2018-08-19T13:30:59Z</time>
      </trkpt>
      <trkpt lat="48.61599" lon="2.08339">
        <ele>152</ele>
        <time>2018-08-19T13:31:04Z</time>
      </trkpt>
      <trkpt lat="48.61595" lon="2.08346">
        <ele>152</ele>
        <time>2018-08-19T13:31:08Z</time>
      </trkpt>
      <trkpt lat="48.61591" lon="2.08353">
        <ele>152</ele>
        <time>2018-08-19T13:31:12Z</time>
      </trkpt>
      <trkpt lat="48.61586" lon="2.0836">
        <ele>152</ele>
        <time>2018-08-19T13:31:16Z</time>
      </trkpt>
      <trkpt lat="48.6158" lon="2.08368">
        <ele>152</ele>
        <time>2018-08-19T13:31:21Z</time>
      </trkpt>
      <trkpt lat="48.61576" lon="2.08374">
        <ele>151</ele>
        <time>2018-08-19T13:31:25Z</time>
      </trkpt>
      <trkpt lat="48.61573" lon="2.08382">
        <ele>151</ele>
        <time>2018-08-19T13:31:29Z</time>
      </trkpt>
      <trkpt lat="48.6157" lon="2.08389">
        <ele>150</ele>
        <time>2018-08-19T13:31:33Z</time>
      </trkpt>
      <trkpt lat="48.61567" lon="2.08397">
        <ele>148</ele>
        <time>2018-08-19T13:31:37Z</time>
      </trkpt>
      <trkpt lat="48.61564" lon="2.08404">
        <ele>147</ele>
        <time>2018-08-19T13:31:41Z</time>
      </trkpt>
      <trkpt lat="48.6156" lon="2.08412">
        <ele>147</ele>
        <time>2018-08-19T13:31:45Z</time>
      </trkpt>
      <trkpt lat="48.61557" lon="2.08419">
        <ele>147</ele>
        <time>2018-08-19T13:31:49Z</time>
      </trkpt>
      <trkpt lat="48.61555" lon="2.08427">
        <ele>147</ele>
        <time>2018-08-19T13:31:53Z</time>
      </trkpt>
      <trkpt lat="48.61552" lon="2.08435">
        <ele>147</ele>
        <time>2018-08-19T13:31:57Z</time>
      </trkpt>
      <trkpt lat="48.61548" lon="2.08443">
        <ele>147</ele>
        <time>2018-08-19T13:32:01Z</time>
      </trkpt>
      <trkpt lat="48.61544" lon="2.0845">
        <ele>145</ele>
        <time>2018-08-19T13:32:05Z</time>
      </trkpt>
      <trkpt lat="48.61541" lon="2.08459">
        <ele>144</ele>
        <time>2018-08-19T13:32:09Z</time>
      </trkpt>
      <trkpt lat="48.61538" lon="2.08469">
        <ele>144</ele>
        <time>2018-08-19T13:32:13Z</time>
      </trkpt>
      <trkpt lat="48.61534" lon="2.08477">
        <ele>144</ele>
        <time>2018-08-19T13:32:17Z</time>
      </trkpt>
      <trkpt lat="48.61531" lon="2.08486">
        <ele>143</ele>
        <time>2018-08-19T13:32:21Z</time>
      </trkpt>
      <trkpt lat="48.61528" lon="2.08495">
        <ele>142</ele>
        <time>2018-08-19T13:32:25Z</time>
      </trkpt>
      <trkpt lat="48.61527" lon="2.08504">
        <ele>142</ele>
        <time>2018-08-19T13:32:29Z</time>
      </trkpt>
      <trkpt lat="48.61523" lon="2.08512">
        <ele>142</ele>
        <time>2018-08-19T13:32:33Z</time>
      </trkpt>
      <trkpt lat="48.61519" lon="2.08522">
        <ele>142</ele>
        <time>2018-08-19T13:32:37Z</time>
      </trkpt>
      <trkpt lat="48.61515" lon="2.08531">
        <ele>142</ele>
        <time>2018-08-19T13:32:41Z</time>
      </trkpt>
      <trkpt lat="48.61511" lon="2.08539">
        <ele>142</ele>
        <time>2018-08-19T13:32:45Z</time>
      </trkpt>
      <trkpt lat="48.61506" lon="2.08547">
        <ele>142</ele>
        <time>2018-08-19T13:32:49Z</time>
      </trkpt>
      <trkpt lat="48.615" lon="2.08554">
        <ele>142</ele>
        <time>2018-08-19T13:32:53Z</time>
      </trkpt>
      <trkpt lat="48.61494" lon="2.08561">
        <ele>142</ele>
        <time>2018-08-19T13:32:57Z</time>
      </trkpt>
      <trkpt lat="48.61489" lon="2.08565">
        <ele>142</ele>
        <time>2018-08-19T13:33:01Z</time>
      </trkpt>
      <trkpt lat="48.61483" lon="2.0857">
        <ele>142</ele>
        <time>2018-08-19T13:33:05Z</time>
      </trkpt>
      <trkpt lat="48.61476" lon="2.08573">
        <ele>142</ele>
        <time>2018-08-19T13:33:09Z</time>
      </trkpt>
      <trkpt lat="48.6147" lon="2.08576">
        <ele>142</ele>
        <time>2018-08-19T13:33:14Z</time>
      </trkpt>
      <trkpt lat="48.61464" lon="2.08582">
        <ele>140</ele>
        <time>2018-08-19T13:33:19Z</time>
      </trkpt>
      <trkpt lat="48.61459" lon="2.08586">
        <ele>139</ele>
        <time>2018-08-19T13:33:23Z</time>
      </trkpt>
      <trkpt lat="48.61454" lon="2.0859">
        <ele>139</ele>
        <time>2018-08-19T13:33:27Z</time>
      </trkpt>
      <trkpt lat="48.61448" lon="2.08595">
        <ele>139</ele>
        <time>2018-08-19T13:33:32Z</time>
      </trkpt>
      <trkpt lat="48.61443" lon="2.086">
        <ele>139</ele>
        <time>2018-08-19T13:33:36Z</time>
      </trkpt>
      <trkpt lat="48.61437" lon="2.08606">
        <ele>139</ele>
        <time>2018-08-19T13:33:40Z</time>
      </trkpt>
      <trkpt lat="48.61433" lon="2.08612">
        <ele>139</ele>
        <time>2018-08-19T13:33:44Z</time>
      </trkpt>
      <trkpt lat="48.61428" lon="2.08618">
        <ele>139</ele>
        <time>2018-08-19T13:33:48Z</time>
      </trkpt>
      <trkpt lat="48.61422" lon="2.08625">
        <ele>139</ele>
        <time>2018-08-19T13:33:52Z</time>
      </trkpt>
      <trkpt lat="48.61417" lon="2.08632">
        <ele>139</ele>
        <time>2018-08-19T13:33:56Z</time>
      </trkpt>
      <trkpt lat="48.61414" lon="2.0864">
        <ele>139</ele>
        <time>2018-08-19T13:34:00Z</time>
      </trkpt>
      <trkpt lat="48.61411" lon="2.08649">
        <ele>139</ele>
        <time>2018-08-19T13:34:04Z</time>
      </trkpt>
      <trkpt lat="48.61408" lon="2.08659">
        <ele>139</ele>
        <time>2018-08-19T13:34:08Z</time>
      </trkpt>
      <trkpt lat="48.61404" lon="2.08667">
        <ele>139</ele>
        <time>2018-08-19T13:34:12Z</time>
      </trkpt>
      <trkpt lat="48.614" lon="2.08675">
        <ele>139</ele>
        <time>2018-08-19T13:34:16Z</time>
      </trkpt>
      <trkpt lat="48.61396" lon="2.08684">
        <ele>139</ele>
        <time>2018-08-19T13:34:20Z</time>
      </trkpt>
      <trkpt lat="48.61391" lon="2.08692">
        <ele>139</ele>
        <time>2018-08-19T13:34:24Z</time>
      </trkpt>
      <trkpt lat="48.61387" lon="2.08701">
        <ele>139</ele>
        <time>2018-08-19T13:34:28Z</time>
      </trkpt>
      <trkpt lat="48.61384" lon="2.08709">
        <ele>139</ele>
        <time>2018-08-19T13:34:32Z</time>
      </trkpt>
      <trkpt lat="48.6138" lon="2.08718">
        <ele>139</ele>
        <time>2018-08-19T13:34:36Z</time>
      </trkpt>
      <trkpt lat="48.61377" lon="2.08726">
        <ele>139</ele>
        <time>2018-08-19T13:34:40Z</time>
      </trkpt>
      <trkpt lat="48.61374" lon="2.08735">
        <ele>139</ele>
        <time>2018-08-19T13:34:44Z</time>
      </trkpt>
      <trkpt lat="48.61371" lon="2.08743">
        <ele>139</ele>
        <time>2018-08-19T13:34:48Z</time>
      </trkpt>
      <trkpt lat="48.61368" lon="2.08751">
        <ele>139</ele>
        <time>2018-08-19T13:34:52Z</time>
      </trkpt>
      <trkpt lat="48.61366" lon="2.08759">
        <ele>139</ele>
        <time>2018-08-19T13:34:56Z</time>
      </trkpt>
      <trkpt lat="48.61364" lon="2.08768">
        <ele>139</ele>
        <time>2018-08-19T13:35:00Z</time>
      </trkpt>
      <trkpt lat="48.61361" lon="2.08777">
        <ele>139</ele>
        <time>2018-08-19T13:35:04Z</time>
      </trkpt>
      <trkpt lat="48.6136" lon="2.08786">
        <ele>139</ele>
        <time>2018-08-19T13:35:08Z</time>
      </trkpt>
      <trkpt lat="48.61359" lon="2.08795">
        <ele>139</ele>
        <time>2018-08-19T13:35:12Z</time>
      </trkpt>
      <trkpt lat="48.61358" lon="2.08805">
        <ele>139</ele>
        <time>2018-08-19T13:35:16Z</time>
      </trkpt>
      <trkpt lat="48.61358" lon="2.08814">
        <ele>138</ele>
        <time>2018-08-19T13:35:20Z</time>
      </trkpt>
      <trkpt lat="48.61358" lon="2.08824">
        <ele>137</ele>
        <time>2018-08-19T13:35:24Z</time>
      </trkpt>
      <trkpt lat="48.61358" lon="2.08834">
        <ele>137</ele>
        <time>2018-08-19T13:35:28Z</time>
      </trkpt>
      <trkpt lat="48.61359" lon="2.08843">
        <ele>136</ele>
        <time>2018-08-19T13:35:32Z</time>
      </trkpt>
      <trkpt lat="48.6136" lon="2.08852">
        <ele>136</ele>
        <time>2018-08-19T13:35:36Z</time>
      </trkpt>
      <trkpt lat="48.61361" lon="2.08862">
        <ele>135</ele>
        <time>2018-08-19T13:35:40Z</time>
      </trkpt>
      <trkpt lat="48.61362" lon="2.08871">
        <ele>135</ele>
        <time>2018-08-19T13:35:44Z</time>
      </trkpt>
      <trkpt lat="48.61363" lon="2.08881">
        <ele>134</ele>
        <time>2018-08-19T13:35:48Z</time>
      </trkpt>
      <trkpt lat="48.61364" lon="2.08891">
        <ele>134</ele>
        <time>2018-08-19T13:35:52Z</time>
      </trkpt>
      <trkpt lat="48.61367" lon="2.08901">
        <ele>134</ele>
        <time>2018-08-19T13:35:56Z</time>
      </trkpt>
      <trkpt lat="48.61368" lon="2.08911">
        <ele>134</ele>
        <time>2018-08-19T13:36:00Z</time>
      </trkpt>
      <trkpt lat="48.61369" lon="2.08921">
        <ele>134</ele>
        <time>2018-08-19T13:36:04Z</time>
      </trkpt>
      <trkpt lat="48.61371" lon="2.08931">
        <ele>134</ele>
        <time>2018-08-19T13:36:08Z</time>
      </trkpt>
      <trkpt lat="48.61371" lon="2.0894">
        <ele>133</ele>
        <time>2018-08-19T13:36:12Z</time>
      </trkpt>
      <trkpt lat="48.61369" lon="2.0895">
        <ele>133</ele>
        <time>2018-08-19T13:36:16Z</time>
      </trkpt>
      <trkpt lat="48.61367" lon="2.0896">
        <ele>133</ele>
        <time>2018-08-19T13:36:20Z</time>
      </trkpt>
      <trkpt lat="48.61365" lon="2.08968">
        <ele>133</ele>
        <time>2018-08-19T13:36:24Z</time>
      </trkpt>
      <trkpt lat="48.61361" lon="2.08976">
        <ele>133</ele>
        <time>2018-08-19T13:36:28Z</time>
      </trkpt>
      <trkpt lat="48.61358" lon="2.08985">
        <ele>133</ele>
        <time>2018-08-19T13:36:32Z</time>
      </trkpt>
      <trkpt lat="48.61354" lon="2.08993">
        <ele>133</ele>
        <time>2018-08-19T13:36:36Z</time>
      </trkpt>
      <trkpt lat="48.61352" lon="2.09001">
        <ele>133</ele>
        <time>2018-08-19T13:36:40Z</time>
      </trkpt>
      <trkpt lat="48.61351" lon="2.09011">
        <ele>133</ele>
        <time>2018-08-19T13:36:44Z</time>
      </trkpt>
      <trkpt lat="48.6135" lon="2.09021">
        <ele>133</ele>
        <time>2018-08-19T13:36:48Z</time>
      </trkpt>
      <trkpt lat="48.6135" lon="2.0903">
        <ele>132</ele>
        <time>2018-08-19T13:36:52Z</time>
      </trkpt>
      <trkpt lat="48.6135" lon="2.0904">
        <ele>132</ele>
        <time>2018-08-19T13:36:56Z</time>
      </trkpt>
      <trkpt lat="48.61351" lon="2.0905">
        <ele>132</ele>
        <time>2018-08-19T13:37:00Z</time>
      </trkpt>
      <trkpt lat="48.61352" lon="2.09059">
        <ele>132</ele>
        <time>2018-08-19T13:37:04Z</time>
      </trkpt>
      <trkpt lat="48.61353" lon="2.09068">
        <ele>132</ele>
        <time>2018-08-19T13:37:08Z</time>
      </trkpt>
      <trkpt lat="48.61354" lon="2.09078">
        <ele>131</ele>
        <time>2018-08-19T13:37:12Z</time>
      </trkpt>
      <trkpt lat="48.61355" lon="2.09087">
        <ele>131</ele>
        <time>2018-08-19T13:37:16Z</time>
      </trkpt>
      <trkpt lat="48.61356" lon="2.09096">
        <ele>131</ele>
        <time>2018-08-19T13:37:20Z</time>
      </trkpt>
      <trkpt lat="48.61357" lon="2.09105">
        <ele>130</ele>
        <time>2018-08-19T13:37:24Z</time>
      </trkpt>
      <trkpt lat="48.61359" lon="2.09114">
        <ele>130</ele>
        <time>2018-08-19T13:37:28Z</time>
      </trkpt>
      <trkpt lat="48.61359" lon="2.09123">
        <ele>130</ele>
        <time>2018-08-19T13:37:32Z</time>
      </trkpt>
      <trkpt lat="48.61361" lon="2.09132">
        <ele>130</ele>
        <time>2018-08-19T13:37:36Z</time>
      </trkpt>
      <trkpt lat="48.61361" lon="2.09141">
        <ele>129</ele>
        <time>2018-08-19T13:37:40Z</time>
      </trkpt>
      <trkpt lat="48.61363" lon="2.0915">
        <ele>129</ele>
        <time>2018-08-19T13:37:44Z</time>
      </trkpt>
      <trkpt lat="48.61364" lon="2.09159">
        <ele>129</ele>
        <time>2018-08-19T13:37:48Z</time>
      </trkpt>
      <trkpt lat="48.61365" lon="2.09168">
        <ele>129</ele>
        <time>2018-08-19T13:37:52Z</time>
      </trkpt>
      <trkpt lat="48.61366" lon="2.09177">
        <ele>129</ele>
        <time>2018-08-19T13:37:56Z</time>
      </trkpt>
      <trkpt lat="48.61367" lon="2.09185">
        <ele>129</ele>
        <time>2018-08-19T13:38:00Z</time>
      </trkpt>
      <trkpt lat="48.61369" lon="2.09194">
        <ele>128</ele>
        <time>2018-08-19T13:38:04Z</time>
      </trkpt>
      <trkpt lat="48.6137" lon="2.09204">
        <ele>128</ele>
        <time>2018-08-19T13:38:08Z</time>
      </trkpt>
      <trkpt lat="48.61374" lon="2.09212">
        <ele>128</ele>
        <time>2018-08-19T13:38:12Z</time>
      </trkpt>
      <trkpt lat="48.61381" lon="2.09213">
        <ele>128</ele>
        <time>2018-08-19T13:38:16Z</time>
      </trkpt>
      <trkpt lat="48.61388" lon="2.09211">
        <ele>128</ele>
        <time>2018-08-19T13:38:20Z</time>
      </trkpt>
      <trkpt lat="48.61395" lon="2.09207">
        <ele>128</ele>
        <time>2018-08-19T13:38:24Z</time>
      </trkpt>
      <trkpt lat="48.61403" lon="2.09203">
        <ele>128</ele>
        <time>2018-08-19T13:38:28Z</time>
      </trkpt>
      <trkpt lat="48.61409" lon="2.09199">
        <ele>128</ele>
        <time>2018-08-19T13:38:32Z</time>
      </trkpt>
      <trkpt lat="48.61416" lon="2.09196">
        <ele>128</ele>
        <time>2018-08-19T13:38:36Z</time>
      </trkpt>
      <trkpt lat="48.61422" lon="2.09194">
        <ele>128</ele>
        <time>2018-08-19T13:38:41Z</time>
      </trkpt>
      <trkpt lat="48.61426" lon="2.09194">
        <ele>128</ele>
        <time>2018-08-19T13:38:45Z</time>
      </trkpt>
      <trkpt lat="48.61431" lon="2.09194">
        <ele>128</ele>
        <time>2018-08-19T13:38:49Z</time>
      </trkpt>
      <trkpt lat="48.61437" lon="2.09194">
        <ele>128</ele>
        <time>2018-08-19T13:38:53Z</time>
      </trkpt>
      <trkpt lat="48.61443" lon="2.09193">
        <ele>128</ele>
        <time>2018-08-19T13:38:57Z</time>
      </trkpt>
      <trkpt lat="48.61449" lon="2.09194">
        <ele>128</ele>
        <time>2018-08-19T13:39:01Z</time>
      </trkpt>
      <trkpt lat="48.61455" lon="2.09195">
        <ele>128</ele>
        <time>2018-08-19T13:39:05Z</time>
      </trkpt>
      <trkpt lat="48.61461" lon="2.09201">
        <ele>128</ele>
        <time>2018-08-19T13:39:10Z</time>
      </trkpt>
      <trkpt lat="48.61463" lon="2.09209">
        <ele>128</ele>
        <time>2018-08-19T13:39:14Z</time>
      </trkpt>
      <trkpt lat="48.61465" lon="2.09218">
        <ele>128</ele>
        <time>2018-08-19T13:39:18Z</time>
      </trkpt>
      <trkpt lat="48.61467" lon="2.09227">
        <ele>128</ele>
        <time>2018-08-19T13:39:22Z</time>
      </trkpt>
      <trkpt lat="48.61469" lon="2.09236">
        <ele>128</ele>
        <time>2018-08-19T13:39:26Z</time>
      </trkpt>
      <trkpt lat="48.6147" lon="2.09245">
        <ele>128</ele>
        <time>2018-08-19T13:39:30Z</time>
      </trkpt>
      <trkpt lat="48.61472" lon="2.09254">
        <ele>128</ele>
        <time>2018-08-19T13:39:34Z</time>
      </trkpt>
      <trkpt lat="48.61474" lon="2.09263">
        <ele>128</ele>
        <time>2018-08-19T13:39:38Z</time>
      </trkpt>
      <trkpt lat="48.61476" lon="2.09272">
        <ele>128</ele>
        <time>2018-08-19T13:39:42Z</time>
      </trkpt>
      <trkpt lat="48.61478" lon="2.09281">
        <ele>128</ele>
        <time>2018-08-19T13:39:46Z</time>
      </trkpt>
      <trkpt lat="48.6148" lon="2.09291">
        <ele>128</ele>
        <time>2018-08-19T13:39:50Z</time>
      </trkpt>
      <trkpt lat="48.61482" lon="2.093">
        <ele>128</ele>
        <time>2018-08-19T13:39:54Z</time>
      </trkpt>
      <trkpt lat="48.61484" lon="2.09309">
        <ele>128</ele>
        <time>2018-08-19T13:39:58Z</time>
      </trkpt>
      <trkpt lat="48.61486" lon="2.09318">
        <ele>128</ele>
        <time>2018-08-19T13:40:02Z</time>
      </trkpt>
      <trkpt lat="48.61487" lon="2.09327">
        <ele>128</ele>
        <time>2018-08-19T13:40:06Z</time>
      </trkpt>
      <trkpt lat="48.61489" lon="2.09336">
        <ele>128</ele>
        <time>2018-08-19T13:40:10Z</time>
      </trkpt>
      <trkpt lat="48.61491" lon="2.09346">
        <ele>128</ele>
        <time>2018-08-19T13:40:14Z</time>
      </trkpt>
      <trkpt lat="48.61493" lon="2.09356">
        <ele>128</ele>
        <time>2018-08-19T13:40:18Z</time>
      </trkpt>
      <trkpt lat="48.61496" lon="2.09366">
        <ele>128</ele>
        <time>2018-08-19T13:40:22Z</time>
      </trkpt>
      <trkpt lat="48.61498" lon="2.09376">
        <ele>128</ele>
        <time>2018-08-19T13:40:26Z</time>
      </trkpt>
      <trkpt lat="48.615" lon="2.09385">
        <ele>128</ele>
        <time>2018-08-19T13:40:30Z</time>
      </trkpt>
      <trkpt lat="48.61502" lon="2.09394">
        <ele>128</ele>
        <time>2018-08-19T13:40:34Z</time>
      </trkpt>
      <trkpt lat="48.61504" lon="2.09404">
        <ele>128</ele>
        <time>2018-08-19T13:40:38Z</time>
      </trkpt>
      <trkpt lat="48.61506" lon="2.09413">
        <ele>128</ele>
        <time>2018-08-19T13:40:42Z</time>
      </trkpt>
      <trkpt lat="48.61508" lon="2.09423">
        <ele>128</ele>
        <time>2018-08-19T13:40:46Z</time>
      </trkpt>
      <trkpt lat="48.6151" lon="2.09432">
        <ele>128</ele>
        <time>2018-08-19T13:40:50Z</time>
      </trkpt>
      <trkpt lat="48.61512" lon="2.09441">
        <ele>128</ele>
        <time>2018-08-19T13:40:54Z</time>
      </trkpt>
      <trkpt lat="48.61514" lon="2.09451">
        <ele>128</ele>
        <time>2018-08-19T13:40:58Z</time>
      </trkpt>
      <trkpt lat="48.61516" lon="2.0946">
        <ele>128</ele>
        <time>2018-08-19T13:41:02Z</time>
      </trkpt>
      <trkpt lat="48.61518" lon="2.09469">
        <ele>128</ele>
        <time>2018-08-19T13:41:06Z</time>
      </trkpt>
      <trkpt lat="48.6152" lon="2.09478">
        <ele>128</ele>
        <time>2018-08-19T13:41:10Z</time>
      </trkpt>
      <trkpt lat="48.61523" lon="2.09488">
        <ele>128</ele>
        <time>2018-08-19T13:41:14Z</time>
      </trkpt>
      <trkpt lat="48.61525" lon="2.09498">
        <ele>128</ele>
        <time>2018-08-19T13:41:18Z</time>
      </trkpt>
      <trkpt lat="48.61527" lon="2.09507">
        <ele>128</ele>
        <time>2018-08-19T13:41:22Z</time>
      </trkpt>
      <trkpt lat="48.6153" lon="2.09515">
        <ele>128</ele>
        <time>2018-08-19T13:41:26Z</time>
      </trkpt>
      <trkpt lat="48.61532" lon="2.09524">
        <ele>128</ele>
        <time>2018-08-19T13:41:30Z</time>
      </trkpt>
      <trkpt lat="48.61535" lon="2.09533">
        <ele>128</ele>
        <time>2018-08-19T13:41:34Z</time>
      </trkpt>
      <trkpt lat="48.61537" lon="2.09542">
        <ele>128</ele>
        <time>2018-08-19T13:41:38Z</time>
      </trkpt>
      <trkpt lat="48.61538" lon="2.09551">
        <ele>128</ele>
        <time>2018-08-19T13:41:42Z</time>
      </trkpt>
      <trkpt lat="48.61541" lon="2.0956">
        <ele>128</ele>
        <time>2018-08-19T13:41:46Z</time>
      </trkpt>
      <trkpt lat="48.61543" lon="2.09569">
        <ele>128</ele>
        <time>2018-08-19T13:41:50Z</time>
      </trkpt>
      <trkpt lat="48.61545" lon="2.09579">
        <ele>128</ele>
        <time>2018-08-19T13:41:54Z</time>
      </trkpt>
      <trkpt lat="48.61546" lon="2.09588">
        <ele>128</ele>
        <time>2018-08-19T13:41:58Z</time>
      </trkpt>
      <trkpt lat="48.61548" lon="2.09597">
        <ele>128</ele>
        <time>2018-08-19T13:42:02Z</time>
      </trkpt>
      <trkpt lat="48.61549" lon="2.09603">
        <ele>128</ele>
        <time>2018-08-19T13:42:06Z</time>
      </trkpt>
      <trkpt lat="48.61548" lon="2.09604">
        <ele>127</ele>
        <time>2018-08-19T13:42:19Z</time>
      </trkpt>
      <trkpt lat="48.61547" lon="2.09604">
        <ele>126</ele>
        <time>2018-08-19T13:42:46Z</time>
      </trkpt>
      <trkpt lat="48.61547" lon="2.09606">
        <ele>126</ele>
        <time>2018-08-19T13:42:55Z</time>
      </trkpt>
      <trkpt lat="48.61548" lon="2.0961">
        <ele>126</ele>
        <time>2018-08-19T13:42:59Z</time>
      </trkpt>
      <trkpt lat="48.61549" lon="2.09618">
        <ele>126</ele>
        <time>2018-08-19T13:43:03Z</time>
      </trkpt>
      <trkpt lat="48.61551" lon="2.09625">
        <ele>126</ele>
        <time>2018-08-19T13:43:07Z</time>
      </trkpt>
      <trkpt lat="48.61553" lon="2.09632">
        <ele>126</ele>
        <time>2018-08-19T13:43:11Z</time>
      </trkpt>
      <trkpt lat="48.61555" lon="2.09639">
        <ele>125</ele>
        <time>2018-08-19T13:43:15Z</time>
      </trkpt>
      <trkpt lat="48.61556" lon="2.09647">
        <ele>125</ele>
        <time>2018-08-19T13:43:20Z</time>
      </trkpt>
      <trkpt lat="48.61558" lon="2.09653">
        <ele>125</ele>
        <time>2018-08-19T13:43:24Z</time>
      </trkpt>
      <trkpt lat="48.61558" lon="2.0966">
        <ele>125</ele>
        <time>2018-08-19T13:43:28Z</time>
      </trkpt>
      <trkpt lat="48.6156" lon="2.09667">
        <ele>125</ele>
        <time>2018-08-19T13:43:32Z</time>
      </trkpt>
      <trkpt lat="48.61562" lon="2.09675">
        <ele>125</ele>
        <time>2018-08-19T13:43:37Z</time>
      </trkpt>
      <trkpt lat="48.61563" lon="2.09681">
        <ele>125</ele>
        <time>2018-08-19T13:43:41Z</time>
      </trkpt>
      <trkpt lat="48.61565" lon="2.09688">
        <ele>125</ele>
        <time>2018-08-19T13:43:45Z</time>
      </trkpt>
      <trkpt lat="48.61567" lon="2.09696">
        <ele>124</ele>
        <time>2018-08-19T13:43:50Z</time>
      </trkpt>
      <trkpt lat="48.61567" lon="2.09703">
        <ele>124</ele>
        <time>2018-08-19T13:43:54Z</time>
      </trkpt>
      <trkpt lat="48.61568" lon="2.09711">
        <ele>123</ele>
        <time>2018-08-19T13:43:58Z</time>
      </trkpt>
      <trkpt lat="48.6157" lon="2.09719">
        <ele>123</ele>
        <time>2018-08-19T13:44:03Z</time>
      </trkpt>
      <trkpt lat="48.61572" lon="2.09726">
        <ele>123</ele>
        <time>2018-08-19T13:44:07Z</time>
      </trkpt>
      <trkpt lat="48.61573" lon="2.09733">
        <ele>123</ele>
        <time>2018-08-19T13:44:11Z</time>
      </trkpt>
      <trkpt lat="48.61573" lon="2.09741">
        <ele>123</ele>
        <time>2018-08-19T13:44:15Z</time>
      </trkpt>
      <trkpt lat="48.61574" lon="2.09748">
        <ele>123</ele>
        <time>2018-08-19T13:44:19Z</time>
      </trkpt>
      <trkpt lat="48.61574" lon="2.09756">
        <ele>122</ele>
        <time>2018-08-19T13:44:23Z</time>
      </trkpt>
      <trkpt lat="48.61575" lon="2.09764">
        <ele>122</ele>
        <time>2018-08-19T13:44:27Z</time>
      </trkpt>
      <trkpt lat="48.61575" lon="2.09772">
        <ele>121</ele>
        <time>2018-08-19T13:44:31Z</time>
      </trkpt>
      <trkpt lat="48.61576" lon="2.0978">
        <ele>120</ele>
        <time>2018-08-19T13:44:35Z</time>
      </trkpt>
      <trkpt lat="48.61577" lon="2.09786">
        <ele>120</ele>
        <time>2018-08-19T13:44:39Z</time>
      </trkpt>
      <trkpt lat="48.61578" lon="2.09794">
        <ele>120</ele>
        <time>2018-08-19T13:44:43Z</time>
      </trkpt>
      <trkpt lat="48.61579" lon="2.09801">
        <ele>120</ele>
        <time>2018-08-19T13:44:47Z</time>
      </trkpt>
      <trkpt lat="48.61579" lon="2.09809">
        <ele>120</ele>
        <time>2018-08-19T13:44:51Z</time>
      </trkpt>
      <trkpt lat="48.61579" lon="2.09817">
        <ele>120</ele>
        <time>2018-08-19T13:44:55Z</time>
      </trkpt>
      <trkpt lat="48.61578" lon="2.09827">
        <ele>120</ele>
        <time>2018-08-19T13:44:59Z</time>
      </trkpt>
      <trkpt lat="48.61579" lon="2.09835">
        <ele>120</ele>
        <time>2018-08-19T13:45:03Z</time>
      </trkpt>
      <trkpt lat="48.61581" lon="2.09842">
        <ele>120</ele>
        <time>2018-08-19T13:45:08Z</time>
      </trkpt>
      <trkpt lat="48.61583" lon="2.09848">
        <ele>120</ele>
        <time>2018-08-19T13:45:12Z</time>
      </trkpt>
      <trkpt lat="48.61585" lon="2.09854">
        <ele>120</ele>
        <time>2018-08-19T13:45:16Z</time>
      </trkpt>
      <trkpt lat="48.61584" lon="2.09862">
        <ele>120</ele>
        <time>2018-08-19T13:45:20Z</time>
      </trkpt>
      <trkpt lat="48.61584" lon="2.09871">
        <ele>120</ele>
        <time>2018-08-19T13:45:24Z</time>
      </trkpt>
      <trkpt lat="48.61584" lon="2.09879">
        <ele>120</ele>
        <time>2018-08-19T13:45:28Z</time>
      </trkpt>
      <trkpt lat="48.61585" lon="2.09887">
        <ele>119</ele>
        <time>2018-08-19T13:45:33Z</time>
      </trkpt>
      <trkpt lat="48.61585" lon="2.09896">
        <ele>119</ele>
        <time>2018-08-19T13:45:37Z</time>
      </trkpt>
      <trkpt lat="48.61585" lon="2.09904">
        <ele>119</ele>
        <time>2018-08-19T13:45:41Z</time>
      </trkpt>
      <trkpt lat="48.61585" lon="2.09913">
        <ele>119</ele>
        <time>2018-08-19T13:45:45Z</time>
      </trkpt>
      <trkpt lat="48.61585" lon="2.09921">
        <ele>119</ele>
        <time>2018-08-19T13:45:49Z</time>
      </trkpt>
      <trkpt lat="48.61585" lon="2.09929">
        <ele>119</ele>
        <time>2018-08-19T13:45:53Z</time>
      </trkpt>
      <trkpt lat="48.61586" lon="2.09937">
        <ele>119</ele>
        <time>2018-08-19T13:45:57Z</time>
      </trkpt>
      <trkpt lat="48.61587" lon="2.09945">
        <ele>119</ele>
        <time>2018-08-19T13:46:01Z</time>
      </trkpt>
      <trkpt lat="48.61586" lon="2.09953">
        <ele>119</ele>
        <time>2018-08-19T13:46:05Z</time>
      </trkpt>
      <trkpt lat="48.61585" lon="2.09962">
        <ele>119</ele>
        <time>2018-08-19T13:46:09Z</time>
      </trkpt>
      <trkpt lat="48.61585" lon="2.0997">
        <ele>119</ele>
        <time>2018-08-19T13:46:13Z</time>
      </trkpt>
      <trkpt lat="48.61585" lon="2.09978">
        <ele>119</ele>
        <time>2018-08-19T13:46:17Z</time>
      </trkpt>
      <trkpt lat="48.61584" lon="2.09987">
        <ele>119</ele>
        <time>2018-08-19T13:46:21Z</time>
      </trkpt>
      <trkpt lat="48.61582" lon="2.09995">
        <ele>119</ele>
        <time>2018-08-19T13:46:25Z</time>
      </trkpt>
      <trkpt lat="48.61582" lon="2.10003">
        <ele>119</ele>
        <time>2018-08-19T13:46:29Z</time>
      </trkpt>
      <trkpt lat="48.61582" lon="2.10011">
        <ele>119</ele>
        <time>2018-08-19T13:46:33Z</time>
      </trkpt>
      <trkpt lat="48.61581" lon="2.1002">
        <ele>119</ele>
        <time>2018-08-19T13:46:37Z</time>
      </trkpt>
      <trkpt lat="48.61579" lon="2.10029">
        <ele>119</ele>
        <time>2018-08-19T13:46:41Z</time>
      </trkpt>
      <trkpt lat="48.61578" lon="2.10037">
        <ele>118</ele>
        <time>2018-08-19T13:46:45Z</time>
      </trkpt>
      <trkpt lat="48.61577" lon="2.10045">
        <ele>118</ele>
        <time>2018-08-19T13:46:49Z</time>
      </trkpt>
      <trkpt lat="48.61577" lon="2.10054">
        <ele>118</ele>
        <time>2018-08-19T13:46:53Z</time>
      </trkpt>
      <trkpt lat="48.61577" lon="2.10061">
        <ele>117</ele>
        <time>2018-08-19T13:46:57Z</time>
      </trkpt>
      <trkpt lat="48.61576" lon="2.1007">
        <ele>117</ele>
        <time>2018-08-19T13:47:01Z</time>
      </trkpt>
      <trkpt lat="48.61574" lon="2.10078">
        <ele>117</ele>
        <time>2018-08-19T13:47:05Z</time>
      </trkpt>
      <trkpt lat="48.61573" lon="2.10086">
        <ele>117</ele>
        <time>2018-08-19T13:47:09Z</time>
      </trkpt>
      <trkpt lat="48.61571" lon="2.10094">
        <ele>116</ele>
        <time>2018-08-19T13:47:13Z</time>
      </trkpt>
      <trkpt lat="48.6157" lon="2.10101">
        <ele>116</ele>
        <time>2018-08-19T13:47:17Z</time>
      </trkpt>
      <trkpt lat="48.6157" lon="2.10109">
        <ele>115</ele>
        <time>2018-08-19T13:47:21Z</time>
      </trkpt>
      <trkpt lat="48.61569" lon="2.10117">
        <ele>115</ele>
        <time>2018-08-19T13:47:25Z</time>
      </trkpt>
      <trkpt lat="48.61567" lon="2.10125">
        <ele>115</ele>
        <time>2018-08-19T13:47:29Z</time>
      </trkpt>
      <trkpt lat="48.61566" lon="2.10133">
        <ele>115</ele>
        <time>2018-08-19T13:47:33Z</time>
      </trkpt>
      <trkpt lat="48.61565" lon="2.10141">
        <ele>115</ele>
        <time>2018-08-19T13:47:37Z</time>
      </trkpt>
      <trkpt lat="48.61564" lon="2.10149">
        <ele>115</ele>
        <time>2018-08-19T13:47:41Z</time>
      </trkpt>
      <trkpt lat="48.61563" lon="2.10157">
        <ele>115</ele>
        <time>2018-08-19T13:47:45Z</time>
      </trkpt>
      <trkpt lat="48.61562" lon="2.10165">
        <ele>115</ele>
        <time>2018-08-19T13:47:49Z</time>
      </trkpt>
      <trkpt lat="48.61561" lon="2.10173">
        <ele>115</ele>
        <time>2018-08-19T13:47:53Z</time>
      </trkpt>
      <trkpt lat="48.6156" lon="2.1018">
        <ele>115</ele>
        <time>2018-08-19T13:47:57Z</time>
      </trkpt>
      <trkpt lat="48.61559" lon="2.10187">
        <ele>115</ele>
        <time>2018-08-19T13:48:01Z</time>
      </trkpt>
      <trkpt lat="48.61557" lon="2.10195">
        <ele>115</ele>
        <time>2018-08-19T13:48:05Z</time>
      </trkpt>
      <trkpt lat="48.61553" lon="2.102">
        <ele>115</ele>
        <time>2018-08-19T13:48:09Z</time>
      </trkpt>
      <trkpt lat="48.61549" lon="2.10206">
        <ele>115</ele>
        <time>2018-08-19T13:48:14Z</time>
      </trkpt>
      <trkpt lat="48.61546" lon="2.10212">
        <ele>115</ele>
        <time>2018-08-19T13:48:18Z</time>
      </trkpt>
      <trkpt lat="48.61545" lon="2.10219">
        <ele>115</ele>
        <time>2018-08-19T13:48:22Z</time>
      </trkpt>
      <trkpt lat="48.61543" lon="2.10225">
        <ele>115</ele>
        <time>2018-08-19T13:48:26Z</time>
      </trkpt>
      <trkpt lat="48.6154" lon="2.10233">
        <ele>115</ele>
        <time>2018-08-19T13:48:31Z</time>
      </trkpt>
      <trkpt lat="48.61539" lon="2.10239">
        <ele>115</ele>
        <time>2018-08-19T13:48:35Z</time>
      </trkpt>
      <trkpt lat="48.61537" lon="2.10246">
        <ele>115</ele>
        <time>2018-08-19T13:48:39Z</time>
      </trkpt>
      <trkpt lat="48.61535" lon="2.10253">
        <ele>115</ele>
        <time>2018-08-19T13:48:43Z</time>
      </trkpt>
      <trkpt lat="48.61533" lon="2.1026">
        <ele>115</ele>
        <time>2018-08-19T13:48:47Z</time>
      </trkpt>
      <trkpt lat="48.6153" lon="2.10267">
        <ele>115</ele>
        <time>2018-08-19T13:48:51Z</time>
      </trkpt>
      <trkpt lat="48.61528" lon="2.10274">
        <ele>115</ele>
        <time>2018-08-19T13:48:55Z</time>
      </trkpt>
      <trkpt lat="48.61527" lon="2.10281">
        <ele>115</ele>
        <time>2018-08-19T13:48:59Z</time>
      </trkpt>
      <trkpt lat="48.61525" lon="2.10289">
        <ele>115</ele>
        <time>2018-08-19T13:49:03Z</time>
      </trkpt>
      <trkpt lat="48.61524" lon="2.10296">
        <ele>115</ele>
        <time>2018-08-19T13:49:07Z</time>
      </trkpt>
      <trkpt lat="48.61523" lon="2.10303">
        <ele>115</ele>
        <time>2018-08-19T13:49:11Z</time>
      </trkpt>
      <trkpt lat="48.61521" lon="2.1031">
        <ele>115</ele>
        <time>2018-08-19T13:49:15Z</time>
      </trkpt>
      <trkpt lat="48.61518" lon="2.10319">
        <ele>115</ele>
        <time>2018-08-19T13:49:20Z</time>
      </trkpt>
      <trkpt lat="48.61515" lon="2.10327">
        <ele>115</ele>
        <time>2018-08-19T13:49:24Z</time>
      </trkpt>
      <trkpt lat="48.61513" lon="2.10333">
        <ele>115</ele>
        <time>2018-08-19T13:49:28Z</time>
      </trkpt>
      <trkpt lat="48.6151" lon="2.1034">
        <ele>115</ele>
        <time>2018-08-19T13:49:32Z</time>
      </trkpt>
      <trkpt lat="48.61508" lon="2.10346">
        <ele>115</ele>
        <time>2018-08-19T13:49:36Z</time>
      </trkpt>
      <trkpt lat="48.61505" lon="2.10353">
        <ele>115</ele>
        <time>2018-08-19T13:49:40Z</time>
      </trkpt>
      <trkpt lat="48.61501" lon="2.1036">
        <ele>115</ele>
        <time>2018-08-19T13:49:44Z</time>
      </trkpt>
      <trkpt lat="48.61498" lon="2.10367">
        <ele>115</ele>
        <time>2018-08-19T13:49:48Z</time>
      </trkpt>
      <trkpt lat="48.61494" lon="2.10375">
        <ele>115</ele>
        <time>2018-08-19T13:49:53Z</time>
      </trkpt>
      <trkpt lat="48.6149" lon="2.10381">
        <ele>115</ele>
        <time>2018-08-19T13:49:57Z</time>
      </trkpt>
      <trkpt lat="48.61486" lon="2.10388">
        <ele>115</ele>
        <time>2018-08-19T13:50:01Z</time>
      </trkpt>
      <trkpt lat="48.61483" lon="2.10394">
        <ele>115</ele>
        <time>2018-08-19T13:50:05Z</time>
      </trkpt>
      <trkpt lat="48.61479" lon="2.104">
        <ele>115</ele>
        <time>2018-08-19T13:50:09Z</time>
      </trkpt>
      <trkpt lat="48.61476" lon="2.10407">
        <ele>115</ele>
        <time>2018-08-19T13:50:13Z</time>
      </trkpt>
      <trkpt lat="48.61472" lon="2.10412">
        <ele>115</ele>
        <time>2018-08-19T13:50:17Z</time>
      </trkpt>
      <trkpt lat="48.61468" lon="2.1042">
        <ele>115</ele>
        <time>2018-08-19T13:50:22Z</time>
      </trkpt>
      <trkpt lat="48.61464" lon="2.10425">
        <ele>115</ele>
        <time>2018-08-19T13:50:26Z</time>
      </trkpt>
      <trkpt lat="48.6146" lon="2.1043">
        <ele>115</ele>
        <time>2018-08-19T13:50:30Z</time>
      </trkpt>
      <trkpt lat="48.61457" lon="2.10435">
        <ele>115</ele>
        <time>2018-08-19T13:50:34Z</time>
      </trkpt>
      <trkpt lat="48.61454" lon="2.10441">
        <ele>115</ele>
        <time>2018-08-19T13:50:38Z</time>
      </trkpt>
      <trkpt lat="48.61451" lon="2.10447">
        <ele>115</ele>
        <time>2018-08-19T13:50:42Z</time>
      </trkpt>
      <trkpt lat="48.61447" lon="2.10452">
        <ele>115</ele>
        <time>2018-08-19T13:50:46Z</time>
      </trkpt>
      <trkpt lat="48.61444" lon="2.10459">
        <ele>115</ele>
        <time>2018-08-19T13:50:50Z</time>
      </trkpt>
      <trkpt lat="48.61442" lon="2.10465">
        <ele>115</ele>
        <time>2018-08-19T13:50:54Z</time>
      </trkpt>
      <trkpt lat="48.6144" lon="2.10472">
        <ele>115</ele>
        <time>2018-08-19T13:50:58Z</time>
      </trkpt>
      <trkpt lat="48.61437" lon="2.10478">
        <ele>115</ele>
        <time>2018-08-19T13:51:02Z</time>
      </trkpt>
      <trkpt lat="48.61434" lon="2.10486">
        <ele>115</ele>
        <time>2018-08-19T13:51:07Z</time>
      </trkpt>
      <trkpt lat="48.61431" lon="2.10494">
        <ele>115</ele>
        <time>2018-08-19T13:51:12Z</time>
      </trkpt>
      <trkpt lat="48.61427" lon="2.10502">
        <ele>115</ele>
        <time>2018-08-19T13:51:17Z</time>
      </trkpt>
      <trkpt lat="48.61424" lon="2.10508">
        <ele>114</ele>
        <time>2018-08-19T13:51:21Z</time>
      </trkpt>
      <trkpt lat="48.6142" lon="2.10516">
        <ele>111</ele>
        <time>2018-08-19T13:51:26Z</time>
      </trkpt>
      <trkpt lat="48.61418" lon="2.10522">
        <ele>110</ele>
        <time>2018-08-19T13:51:30Z</time>
      </trkpt>
      <trkpt lat="48.61417" lon="2.10529">
        <ele>109</ele>
        <time>2018-08-19T13:51:34Z</time>
      </trkpt>
      <trkpt lat="48.61415" lon="2.10536">
        <ele>108</ele>
        <time>2018-08-19T13:51:38Z</time>
      </trkpt>
      <trkpt lat="48.61413" lon="2.10543">
        <ele>107</ele>
        <time>2018-08-19T13:51:42Z</time>
      </trkpt>
      <trkpt lat="48.61412" lon="2.1055">
        <ele>106</ele>
        <time>2018-08-19T13:51:46Z</time>
      </trkpt>
      <trkpt lat="48.61411" lon="2.10557">
        <ele>105</ele>
        <time>2018-08-19T13:51:50Z</time>
      </trkpt>
      <trkpt lat="48.61411" lon="2.10564">
        <ele>105</ele>
        <time>2018-08-19T13:51:54Z</time>
      </trkpt>
      <trkpt lat="48.61411" lon="2.10572">
        <ele>105</ele>
        <time>2018-08-19T13:51:58Z</time>
      </trkpt>
      <trkpt lat="48.61411" lon="2.1058">
        <ele>105</ele>
        <time>2018-08-19T13:52:02Z</time>
      </trkpt>
      <trkpt lat="48.61412" lon="2.10587">
        <ele>105</ele>
        <time>2018-08-19T13:52:06Z</time>
      </trkpt>
      <trkpt lat="48.61414" lon="2.10594">
        <ele>105</ele>
        <time>2018-08-19T13:52:10Z</time>
      </trkpt>
      <trkpt lat="48.61416" lon="2.10601">
        <ele>105</ele>
        <time>2018-08-19T13:52:14Z</time>
      </trkpt>
      <trkpt lat="48.61419" lon="2.10607">
        <ele>105</ele>
        <time>2018-08-19T13:52:18Z</time>
      </trkpt>
      <trkpt lat="48.61423" lon="2.10611">
        <ele>104</ele>
        <time>2018-08-19T13:52:22Z</time>
      </trkpt>
      <trkpt lat="48.61427" lon="2.10617">
        <ele>104</ele>
        <time>2018-08-19T13:52:27Z</time>
      </trkpt>
      <trkpt lat="48.61432" lon="2.10625">
        <ele>104</ele>
        <time>2018-08-19T13:52:32Z</time>
      </trkpt>
      <trkpt lat="48.61435" lon="2.1063">
        <ele>104</ele>
        <time>2018-08-19T13:52:36Z</time>
      </trkpt>
      <trkpt lat="48.61438" lon="2.10637">
        <ele>104</ele>
        <time>2018-08-19T13:52:40Z</time>
      </trkpt>
      <trkpt lat="48.61442" lon="2.10642">
        <ele>104</ele>
        <time>2018-08-19T13:52:44Z</time>
      </trkpt>
      <trkpt lat="48.61446" lon="2.10648">
        <ele>104</ele>
        <time>2018-08-19T13:52:48Z</time>
      </trkpt>
      <trkpt lat="48.61448" lon="2.10652">
        <ele>104</ele>
        <time>2018-08-19T13:52:55Z</time>
      </trkpt>
      <trkpt lat="48.61452" lon="2.10657">
        <ele>104</ele>
        <time>2018-08-19T13:52:59Z</time>
      </trkpt>
      <trkpt lat="48.61457" lon="2.10663">
        <ele>104</ele>
        <time>2018-08-19T13:53:04Z</time>
      </trkpt>
      <trkpt lat="48.61461" lon="2.10669">
        <ele>104</ele>
        <time>2018-08-19T13:53:08Z</time>
      </trkpt>
      <trkpt lat="48.61464" lon="2.10675">
        <ele>104</ele>
        <time>2018-08-19T13:53:12Z</time>
      </trkpt>
      <trkpt lat="48.61468" lon="2.1068">
        <ele>104</ele>
        <time>2018-08-19T13:53:16Z</time>
      </trkpt>
      <trkpt lat="48.61471" lon="2.10683">
        <ele>104</ele>
        <time>2018-08-19T13:53:20Z</time>
      </trkpt>
      <trkpt lat="48.61475" lon="2.10688">
        <ele>104</ele>
        <time>2018-08-19T13:53:24Z</time>
      </trkpt>
      <trkpt lat="48.6148" lon="2.10695">
        <ele>104</ele>
        <time>2018-08-19T13:53:29Z</time>
      </trkpt>
      <trkpt lat="48.61485" lon="2.10699">
        <ele>104</ele>
        <time>2018-08-19T13:53:33Z</time>
      </trkpt>
      <trkpt lat="48.61489" lon="2.10702">
        <ele>104</ele>
        <time>2018-08-19T13:53:37Z</time>
      </trkpt>
      <trkpt lat="48.61494" lon="2.10706">
        <ele>103</ele>
        <time>2018-08-19T13:53:41Z</time>
      </trkpt>
      <trkpt lat="48.61498" lon="2.10709">
        <ele>102</ele>
        <time>2018-08-19T13:53:45Z</time>
      </trkpt>
      <trkpt lat="48.61503" lon="2.10712">
        <ele>102</ele>
        <time>2018-08-19T13:53:49Z</time>
      </trkpt>
      <trkpt lat="48.61506" lon="2.10717">
        <ele>102</ele>
        <time>2018-08-19T13:53:53Z</time>
      </trkpt>
      <trkpt lat="48.61508" lon="2.10725">
        <ele>102</ele>
        <time>2018-08-19T13:53:57Z</time>
      </trkpt>
      <trkpt lat="48.61507" lon="2.10733">
        <ele>102</ele>
        <time>2018-08-19T13:54:01Z</time>
      </trkpt>
      <trkpt lat="48.61505" lon="2.10739">
        <ele>102</ele>
        <time>2018-08-19T13:54:05Z</time>
      </trkpt>
      <trkpt lat="48.61503" lon="2.10746">
        <ele>102</ele>
        <time>2018-08-19T13:54:09Z</time>
      </trkpt>
      <trkpt lat="48.61501" lon="2.10753">
        <ele>101</ele>
        <time>2018-08-19T13:54:13Z</time>
      </trkpt>
      <trkpt lat="48.61498" lon="2.10761">
        <ele>101</ele>
        <time>2018-08-19T13:54:18Z</time>
      </trkpt>
      <trkpt lat="48.61496" lon="2.10769">
        <ele>101</ele>
        <time>2018-08-19T13:54:22Z</time>
      </trkpt>
      <trkpt lat="48.61494" lon="2.10776">
        <ele>101</ele>
        <time>2018-08-19T13:54:26Z</time>
      </trkpt>
      <trkpt lat="48.61492" lon="2.10784">
        <ele>101</ele>
        <time>2018-08-19T13:54:30Z</time>
      </trkpt>
      <trkpt lat="48.61491" lon="2.10792">
        <ele>101</ele>
        <time>2018-08-19T13:54:34Z</time>
      </trkpt>
      <trkpt lat="48.6149" lon="2.10799">
        <ele>101</ele>
        <time>2018-08-19T13:54:38Z</time>
      </trkpt>
      <trkpt lat="48.61492" lon="2.10805">
        <ele>101</ele>
        <time>2018-08-19T13:54:43Z</time>
      </trkpt>
      <trkpt lat="48.61493" lon="2.10806">
        <ele>101</ele>
        <time>2018-08-19T13:55:05Z</time>
      </trkpt>
      <trkpt lat="48.61492" lon="2.10808">
        <ele>101</ele>
        <time>2018-08-19T13:55:10Z</time>
      </trkpt>
      <trkpt lat="48.61493" lon="2.10809">
        <ele>101</ele>
        <time>2018-08-19T13:55:15Z</time>
      </trkpt>
      <trkpt lat="48.61492" lon="2.10811">
        <ele>101</ele>
        <time>2018-08-19T13:55:19Z</time>
      </trkpt>
      <trkpt lat="48.61492" lon="2.10813">
        <ele>103</ele>
        <time>2018-08-19T13:55:30Z</time>
      </trkpt>
      <trkpt lat="48.61493" lon="2.10814">
        <ele>103</ele>
        <time>2018-08-19T13:55:35Z</time>
      </trkpt>
      <trkpt lat="48.61494" lon="2.10818">
        <ele>103</ele>
        <time>2018-08-19T13:55:40Z</time>
      </trkpt>
      <trkpt lat="48.61494" lon="2.10814">
        <ele>103</ele>
        <time>2018-08-19T13:55:44Z</time>
      </trkpt>
      <trkpt lat="48.61498" lon="2.10808">
        <ele>96</ele>
        <time>2018-08-19T13:55:55Z</time>
      </trkpt>
      <trkpt lat="48.61495" lon="2.10813">
        <ele>96</ele>
        <time>2018-08-19T13:56:00Z</time>
      </trkpt>
      <trkpt lat="48.61493" lon="2.10818">
        <ele>96</ele>
        <time>2018-08-19T13:56:04Z</time>
      </trkpt>
      <trkpt lat="48.61494" lon="2.10821">
        <ele>99</ele>
        <time>2018-08-19T13:56:11Z</time>
      </trkpt>
      <trkpt lat="48.61493" lon="2.10828">
        <ele>102</ele>
        <time>2018-08-19T13:56:16Z</time>
      </trkpt>
      <trkpt lat="48.61495" lon="2.10832">
        <ele>103</ele>
        <time>2018-08-19T13:56:20Z</time>
      </trkpt>
      <trkpt lat="48.61496" lon="2.10835">
        <ele>104</ele>
        <time>2018-08-19T13:56:27Z</time>
      </trkpt>
      <trkpt lat="48.61495" lon="2.10838">
        <ele>104</ele>
        <time>2018-08-19T13:56:31Z</time>
      </trkpt>
      <trkpt lat="48.61492" lon="2.10838">
        <ele>104</ele>
        <time>2018-08-19T13:56:37Z</time>
      </trkpt>
      <trkpt lat="48.61493" lon="2.10838">
        <ele>104</ele>
        <time>2018-08-19T13:56:46Z</time>
      </trkpt>
      <trkpt lat="48.61494" lon="2.10842">
        <ele>104</ele>
        <time>2018-08-19T13:56:50Z</time>
      </trkpt>
      <trkpt lat="48.61495" lon="2.10843">
        <ele>104</ele>
        <time>2018-08-19T13:56:54Z</time>
      </trkpt>
      <trkpt lat="48.61494" lon="2.10842">
        <ele>104</ele>
        <time>2018-08-19T13:57:01Z</time>
      </trkpt>
      <trkpt lat="48.61494" lon="2.10839">
        <ele>104</ele>
        <time>2018-08-19T13:57:05Z</time>
      </trkpt>
      <trkpt lat="48.61494" lon="2.10834">
        <ele>104</ele>
        <time>2018-08-19T13:57:09Z</time>
      </trkpt>
      <trkpt lat="48.61496" lon="2.10829">
        <ele>104</ele>
        <time>2018-08-19T13:57:15Z</time>
      </trkpt>
      <trkpt lat="48.61496" lon="2.10826">
        <ele>104</ele>
        <time>2018-08-19T13:57:19Z</time>
      </trkpt>
      <trkpt lat="48.61497" lon="2.10826">
        <ele>104</ele>
        <time>2018-08-19T13:57:26Z</time>
      </trkpt>
      <trkpt lat="48.61498" lon="2.10828">
        <ele>104</ele>
        <time>2018-08-19T13:57:32Z</time>
      </trkpt>
      <trkpt lat="48.61494" lon="2.10823">
        <ele>104</ele>
        <time>2018-08-19T13:57:36Z</time>
      </trkpt>
      <trkpt lat="48.61493" lon="2.10817">
        <ele>104</ele>
        <time>2018-08-19T13:57:42Z</time>
      </trkpt>
      <trkpt lat="48.61492" lon="2.10814">
        <ele>104</ele>
        <time>2018-08-19T13:58:01Z</time>
      </trkpt>
      <trkpt lat="48.61491" lon="2.10811">
        <ele>104</ele>
        <time>2018-08-19T13:58:13Z</time>
      </trkpt>
      <trkpt lat="48.61491" lon="2.10813">
        <ele>104</ele>
        <time>2018-08-19T13:58:19Z</time>
      </trkpt>
      <trkpt lat="48.61493" lon="2.10813">
        <ele>106</ele>
        <time>2018-08-19T13:58:25Z</time>
      </trkpt>
      <trkpt lat="48.61494" lon="2.10813">
        <ele>107</ele>
        <time>2018-08-19T13:58:30Z</time>
      </trkpt>
      <trkpt lat="48.61492" lon="2.10815">
        <ele>107</ele>
        <time>2018-08-19T13:58:48Z</time>
      </trkpt>
      <trkpt lat="48.61492" lon="2.10814">
        <ele>107</ele>
        <time>2018-08-19T13:59:02Z</time>
      </trkpt>
      <trkpt lat="48.61493" lon="2.10813">
        <ele>107</ele>
        <time>2018-08-19T13:59:13Z</time>
      </trkpt>
      <trkpt lat="48.61493" lon="2.10813">
        <ele>107</ele>
        <time>2018-08-19T13:59:21Z</time>
      </trkpt>
    </trkseg>
  </trk>
</gpx>